<?xml version="1.0" encoding="UTF-8" standalone="no" ?>
<gpx xmlns="http://www.topografix.com/GPX/1/1" xmlns:xsi="http://www.w3.org/2001/XMLSchema-instance" xsi:schemaLocation="http://www.topografix.com/GPX/1/1 http://www.topografix.com/GPX/1/1/gpx.xsd" version="1.1" creator="VisuGPX - https://www.visugpx.com">
  <metadata>
    <name>Itinérance VTT Jour1</name>
    <desc><![CDATA[ItinÃ©rance VTT de montagne sur 6 jours.]]></desc>
  </metadata>
  <trk>
    <name><![CDATA[VDM J1, Orages...]]></name>
    <trkseg>
      <trkpt lat="44.39859" lon="6.50771">
        <ele>1064.6</ele>
        <time>2018-08-05T05:28:39Z</time>
      </trkpt>
      <trkpt lat="44.39836" lon="6.50773">
        <ele>1072.8</ele>
        <time>2018-08-05T05:28:40Z</time>
      </trkpt>
      <trkpt lat="44.39832" lon="6.50773">
        <ele>1074</ele>
        <time>2018-08-05T05:28:41Z</time>
      </trkpt>
      <trkpt lat="44.39824" lon="6.50774">
        <ele>1078.3</ele>
        <time>2018-08-05T05:28:44Z</time>
      </trkpt>
      <trkpt lat="44.39833" lon="6.50775">
        <ele>1074.2</ele>
        <time>2018-08-05T05:28:45Z</time>
      </trkpt>
      <trkpt lat="44.39825" lon="6.50777">
        <ele>1078.6</ele>
        <time>2018-08-05T05:28:46Z</time>
      </trkpt>
      <trkpt lat="44.39831" lon="6.50776">
        <ele>1075.7</ele>
        <time>2018-08-05T05:28:48Z</time>
      </trkpt>
      <trkpt lat="44.39828" lon="6.50781">
        <ele>1077.6</ele>
        <time>2018-08-05T05:28:49Z</time>
      </trkpt>
      <trkpt lat="44.39834" lon="6.50782">
        <ele>1074.7</ele>
        <time>2018-08-05T05:28:50Z</time>
      </trkpt>
      <trkpt lat="44.3984" lon="6.50777">
        <ele>1071.5</ele>
        <time>2018-08-05T05:28:53Z</time>
      </trkpt>
      <trkpt lat="44.39836" lon="6.50777">
        <ele>1072.9</ele>
        <time>2018-08-05T05:28:54Z</time>
      </trkpt>
      <trkpt lat="44.39833" lon="6.50777">
        <ele>1074.4</ele>
        <time>2018-08-05T05:28:55Z</time>
      </trkpt>
      <trkpt lat="44.3983" lon="6.50777">
        <ele>1075.7</ele>
        <time>2018-08-05T05:29:07Z</time>
      </trkpt>
      <trkpt lat="44.39828" lon="6.50781">
        <ele>1077.3</ele>
        <time>2018-08-05T05:29:19Z</time>
      </trkpt>
      <trkpt lat="44.39825" lon="6.50779">
        <ele>1078.6</ele>
        <time>2018-08-05T05:29:48Z</time>
      </trkpt>
      <trkpt lat="44.39827" lon="6.50777">
        <ele>1077.1</ele>
        <time>2018-08-05T05:31:00Z</time>
      </trkpt>
      <trkpt lat="44.3983" lon="6.50781">
        <ele>1075.9</ele>
        <time>2018-08-05T05:31:03Z</time>
      </trkpt>
      <trkpt lat="44.39829" lon="6.50785">
        <ele>1076.2</ele>
        <time>2018-08-05T05:31:05Z</time>
      </trkpt>
      <trkpt lat="44.39829" lon="6.50789">
        <ele>1076.4</ele>
        <time>2018-08-05T05:31:07Z</time>
      </trkpt>
      <trkpt lat="44.39831" lon="6.50792">
        <ele>1076.7</ele>
        <time>2018-08-05T05:31:10Z</time>
      </trkpt>
      <trkpt lat="44.39834" lon="6.5079">
        <ele>1074.9</ele>
        <time>2018-08-05T05:31:13Z</time>
      </trkpt>
      <trkpt lat="44.39832" lon="6.50786">
        <ele>1075.5</ele>
        <time>2018-08-05T05:31:15Z</time>
      </trkpt>
      <trkpt lat="44.3983" lon="6.50782">
        <ele>1076.1</ele>
        <time>2018-08-05T05:31:17Z</time>
      </trkpt>
      <trkpt lat="44.39829" lon="6.50778">
        <ele>1076.4</ele>
        <time>2018-08-05T05:31:28Z</time>
      </trkpt>
      <trkpt lat="44.39827" lon="6.50774">
        <ele>1077.2</ele>
        <time>2018-08-05T05:31:31Z</time>
      </trkpt>
      <trkpt lat="44.39826" lon="6.50769">
        <ele>1077.8</ele>
        <time>2018-08-05T05:31:33Z</time>
      </trkpt>
      <trkpt lat="44.39825" lon="6.50764">
        <ele>1078.1</ele>
        <time>2018-08-05T05:31:35Z</time>
      </trkpt>
      <trkpt lat="44.39824" lon="6.50758">
        <ele>1078.4</ele>
        <time>2018-08-05T05:31:37Z</time>
      </trkpt>
      <trkpt lat="44.39822" lon="6.50752">
        <ele>1078.7</ele>
        <time>2018-08-05T05:31:40Z</time>
      </trkpt>
      <trkpt lat="44.39819" lon="6.50747">
        <ele>1079.2</ele>
        <time>2018-08-05T05:31:42Z</time>
      </trkpt>
      <trkpt lat="44.3982" lon="6.50742">
        <ele>1079.9</ele>
        <time>2018-08-05T05:31:45Z</time>
      </trkpt>
      <trkpt lat="44.3982" lon="6.50735">
        <ele>1080.4</ele>
        <time>2018-08-05T05:31:47Z</time>
      </trkpt>
      <trkpt lat="44.3982" lon="6.50729">
        <ele>1080.7</ele>
        <time>2018-08-05T05:31:49Z</time>
      </trkpt>
      <trkpt lat="44.39819" lon="6.50725">
        <ele>1080.8</ele>
        <time>2018-08-05T05:31:51Z</time>
      </trkpt>
      <trkpt lat="44.39819" lon="6.5072">
        <ele>1080.9</ele>
        <time>2018-08-05T05:31:53Z</time>
      </trkpt>
      <trkpt lat="44.39818" lon="6.50716">
        <ele>1081</ele>
        <time>2018-08-05T05:31:55Z</time>
      </trkpt>
      <trkpt lat="44.39816" lon="6.50711">
        <ele>1081.1</ele>
        <time>2018-08-05T05:31:57Z</time>
      </trkpt>
      <trkpt lat="44.39815" lon="6.50706">
        <ele>1081.3</ele>
        <time>2018-08-05T05:31:59Z</time>
      </trkpt>
      <trkpt lat="44.39814" lon="6.507">
        <ele>1081.4</ele>
        <time>2018-08-05T05:32:01Z</time>
      </trkpt>
      <trkpt lat="44.39813" lon="6.50695">
        <ele>1081.6</ele>
        <time>2018-08-05T05:32:03Z</time>
      </trkpt>
      <trkpt lat="44.3981" lon="6.50692">
        <ele>1081.7</ele>
        <time>2018-08-05T05:32:05Z</time>
      </trkpt>
      <trkpt lat="44.39807" lon="6.50688">
        <ele>1081.9</ele>
        <time>2018-08-05T05:32:07Z</time>
      </trkpt>
      <trkpt lat="44.39802" lon="6.50687">
        <ele>1082.1</ele>
        <time>2018-08-05T05:32:09Z</time>
      </trkpt>
      <trkpt lat="44.39798" lon="6.50684">
        <ele>1082.6</ele>
        <time>2018-08-05T05:32:11Z</time>
      </trkpt>
      <trkpt lat="44.39796" lon="6.50683">
        <ele>1082.8</ele>
        <time>2018-08-05T05:32:12Z</time>
      </trkpt>
      <trkpt lat="44.39791" lon="6.50681">
        <ele>1083.2</ele>
        <time>2018-08-05T05:32:14Z</time>
      </trkpt>
      <trkpt lat="44.39788" lon="6.50678">
        <ele>1083.3</ele>
        <time>2018-08-05T05:32:16Z</time>
      </trkpt>
      <trkpt lat="44.39786" lon="6.50675">
        <ele>1083.5</ele>
        <time>2018-08-05T05:32:19Z</time>
      </trkpt>
      <trkpt lat="44.39783" lon="6.50677">
        <ele>1083.6</ele>
        <time>2018-08-05T05:32:23Z</time>
      </trkpt>
      <trkpt lat="44.39784" lon="6.50672">
        <ele>1083.6</ele>
        <time>2018-08-05T05:32:42Z</time>
      </trkpt>
      <trkpt lat="44.39782" lon="6.50668">
        <ele>1083.7</ele>
        <time>2018-08-05T05:32:44Z</time>
      </trkpt>
      <trkpt lat="44.3978" lon="6.50662">
        <ele>1083.8</ele>
        <time>2018-08-05T05:32:46Z</time>
      </trkpt>
      <trkpt lat="44.39778" lon="6.50659">
        <ele>1083.8</ele>
        <time>2018-08-05T05:32:47Z</time>
      </trkpt>
      <trkpt lat="44.39781" lon="6.50654">
        <ele>1083.9</ele>
        <time>2018-08-05T05:32:48Z</time>
      </trkpt>
      <trkpt lat="44.39778" lon="6.50649">
        <ele>1083.9</ele>
        <time>2018-08-05T05:32:49Z</time>
      </trkpt>
      <trkpt lat="44.39776" lon="6.50644">
        <ele>1083.8</ele>
        <time>2018-08-05T05:32:50Z</time>
      </trkpt>
      <trkpt lat="44.39773" lon="6.50641">
        <ele>1083.7</ele>
        <time>2018-08-05T05:32:51Z</time>
      </trkpt>
      <trkpt lat="44.3977" lon="6.50636">
        <ele>1083.6</ele>
        <time>2018-08-05T05:32:52Z</time>
      </trkpt>
      <trkpt lat="44.39769" lon="6.5063">
        <ele>1083.3</ele>
        <time>2018-08-05T05:32:53Z</time>
      </trkpt>
      <trkpt lat="44.39767" lon="6.50624">
        <ele>1082.9</ele>
        <time>2018-08-05T05:32:54Z</time>
      </trkpt>
      <trkpt lat="44.39765" lon="6.50618">
        <ele>1082.5</ele>
        <time>2018-08-05T05:32:55Z</time>
      </trkpt>
      <trkpt lat="44.39768" lon="6.5061">
        <ele>1081.9</ele>
        <time>2018-08-05T05:32:56Z</time>
      </trkpt>
      <trkpt lat="44.39769" lon="6.50602">
        <ele>1081.5</ele>
        <time>2018-08-05T05:32:57Z</time>
      </trkpt>
      <trkpt lat="44.39768" lon="6.50596">
        <ele>1081</ele>
        <time>2018-08-05T05:32:58Z</time>
      </trkpt>
      <trkpt lat="44.39767" lon="6.50591">
        <ele>1080.7</ele>
        <time>2018-08-05T05:32:59Z</time>
      </trkpt>
      <trkpt lat="44.39768" lon="6.50586">
        <ele>1080.2</ele>
        <time>2018-08-05T05:33:00Z</time>
      </trkpt>
      <trkpt lat="44.3977" lon="6.5058">
        <ele>1079.8</ele>
        <time>2018-08-05T05:33:01Z</time>
      </trkpt>
      <trkpt lat="44.39769" lon="6.50575">
        <ele>1079.3</ele>
        <time>2018-08-05T05:33:02Z</time>
      </trkpt>
      <trkpt lat="44.39768" lon="6.50569">
        <ele>1078.8</ele>
        <time>2018-08-05T05:33:03Z</time>
      </trkpt>
      <trkpt lat="44.39768" lon="6.50562">
        <ele>1078.5</ele>
        <time>2018-08-05T05:33:05Z</time>
      </trkpt>
      <trkpt lat="44.39767" lon="6.50556">
        <ele>1078.1</ele>
        <time>2018-08-05T05:33:06Z</time>
      </trkpt>
      <trkpt lat="44.39766" lon="6.5055">
        <ele>1077.6</ele>
        <time>2018-08-05T05:33:07Z</time>
      </trkpt>
      <trkpt lat="44.39765" lon="6.50543">
        <ele>1077.1</ele>
        <time>2018-08-05T05:33:08Z</time>
      </trkpt>
      <trkpt lat="44.39765" lon="6.50535">
        <ele>1076.7</ele>
        <time>2018-08-05T05:33:09Z</time>
      </trkpt>
      <trkpt lat="44.39766" lon="6.50529">
        <ele>1076.4</ele>
        <time>2018-08-05T05:33:10Z</time>
      </trkpt>
      <trkpt lat="44.39767" lon="6.50522">
        <ele>1076</ele>
        <time>2018-08-05T05:33:11Z</time>
      </trkpt>
      <trkpt lat="44.39769" lon="6.50515">
        <ele>1076</ele>
        <time>2018-08-05T05:33:12Z</time>
      </trkpt>
      <trkpt lat="44.39772" lon="6.50508">
        <ele>1075.9</ele>
        <time>2018-08-05T05:33:13Z</time>
      </trkpt>
      <trkpt lat="44.39774" lon="6.50501">
        <ele>1075.8</ele>
        <time>2018-08-05T05:33:14Z</time>
      </trkpt>
      <trkpt lat="44.39776" lon="6.50494">
        <ele>1075.6</ele>
        <time>2018-08-05T05:33:15Z</time>
      </trkpt>
      <trkpt lat="44.39782" lon="6.50489">
        <ele>1075.3</ele>
        <time>2018-08-05T05:33:16Z</time>
      </trkpt>
      <trkpt lat="44.39786" lon="6.50483">
        <ele>1075.1</ele>
        <time>2018-08-05T05:33:17Z</time>
      </trkpt>
      <trkpt lat="44.3979" lon="6.50473">
        <ele>1074.7</ele>
        <time>2018-08-05T05:33:18Z</time>
      </trkpt>
      <trkpt lat="44.39794" lon="6.50464">
        <ele>1074.4</ele>
        <time>2018-08-05T05:33:19Z</time>
      </trkpt>
      <trkpt lat="44.39797" lon="6.50456">
        <ele>1074.1</ele>
        <time>2018-08-05T05:33:20Z</time>
      </trkpt>
      <trkpt lat="44.39801" lon="6.50449">
        <ele>1073.9</ele>
        <time>2018-08-05T05:33:21Z</time>
      </trkpt>
      <trkpt lat="44.39804" lon="6.5044">
        <ele>1073.6</ele>
        <time>2018-08-05T05:33:22Z</time>
      </trkpt>
      <trkpt lat="44.39806" lon="6.50428">
        <ele>1073.1</ele>
        <time>2018-08-05T05:33:24Z</time>
      </trkpt>
      <trkpt lat="44.39808" lon="6.50416">
        <ele>1072.6</ele>
        <time>2018-08-05T05:33:25Z</time>
      </trkpt>
      <trkpt lat="44.39807" lon="6.50407">
        <ele>1072.3</ele>
        <time>2018-08-05T05:33:26Z</time>
      </trkpt>
      <trkpt lat="44.39808" lon="6.50398">
        <ele>1071.9</ele>
        <time>2018-08-05T05:33:27Z</time>
      </trkpt>
      <trkpt lat="44.3981" lon="6.50388">
        <ele>1071.7</ele>
        <time>2018-08-05T05:33:28Z</time>
      </trkpt>
      <trkpt lat="44.39809" lon="6.50378">
        <ele>1071.3</ele>
        <time>2018-08-05T05:33:29Z</time>
      </trkpt>
      <trkpt lat="44.3981" lon="6.50368">
        <ele>1071.1</ele>
        <time>2018-08-05T05:33:30Z</time>
      </trkpt>
      <trkpt lat="44.39811" lon="6.50358">
        <ele>1070.9</ele>
        <time>2018-08-05T05:33:31Z</time>
      </trkpt>
      <trkpt lat="44.39813" lon="6.50349">
        <ele>1070.6</ele>
        <time>2018-08-05T05:33:32Z</time>
      </trkpt>
      <trkpt lat="44.39814" lon="6.5034">
        <ele>1070.3</ele>
        <time>2018-08-05T05:33:33Z</time>
      </trkpt>
      <trkpt lat="44.39815" lon="6.5033">
        <ele>1070.1</ele>
        <time>2018-08-05T05:33:34Z</time>
      </trkpt>
      <trkpt lat="44.39816" lon="6.5032">
        <ele>1070</ele>
        <time>2018-08-05T05:33:35Z</time>
      </trkpt>
      <trkpt lat="44.39817" lon="6.50311">
        <ele>1069.9</ele>
        <time>2018-08-05T05:33:36Z</time>
      </trkpt>
      <trkpt lat="44.39818" lon="6.50302">
        <ele>1069.6</ele>
        <time>2018-08-05T05:33:37Z</time>
      </trkpt>
      <trkpt lat="44.39819" lon="6.50293">
        <ele>1069.4</ele>
        <time>2018-08-05T05:33:38Z</time>
      </trkpt>
      <trkpt lat="44.3982" lon="6.50284">
        <ele>1069.3</ele>
        <time>2018-08-05T05:33:39Z</time>
      </trkpt>
      <trkpt lat="44.3982" lon="6.50276">
        <ele>1069.2</ele>
        <time>2018-08-05T05:33:40Z</time>
      </trkpt>
      <trkpt lat="44.3982" lon="6.50267">
        <ele>1069.2</ele>
        <time>2018-08-05T05:33:41Z</time>
      </trkpt>
      <trkpt lat="44.3982" lon="6.50257">
        <ele>1069.1</ele>
        <time>2018-08-05T05:33:42Z</time>
      </trkpt>
      <trkpt lat="44.39819" lon="6.50247">
        <ele>1068.9</ele>
        <time>2018-08-05T05:33:43Z</time>
      </trkpt>
      <trkpt lat="44.39818" lon="6.50236">
        <ele>1068.6</ele>
        <time>2018-08-05T05:33:44Z</time>
      </trkpt>
      <trkpt lat="44.39819" lon="6.50226">
        <ele>1068.4</ele>
        <time>2018-08-05T05:33:45Z</time>
      </trkpt>
      <trkpt lat="44.39819" lon="6.50216">
        <ele>1068.2</ele>
        <time>2018-08-05T05:33:46Z</time>
      </trkpt>
      <trkpt lat="44.39818" lon="6.50205">
        <ele>1067.7</ele>
        <time>2018-08-05T05:33:47Z</time>
      </trkpt>
      <trkpt lat="44.39816" lon="6.50195">
        <ele>1067.1</ele>
        <time>2018-08-05T05:33:48Z</time>
      </trkpt>
      <trkpt lat="44.39815" lon="6.50185">
        <ele>1066.7</ele>
        <time>2018-08-05T05:33:49Z</time>
      </trkpt>
      <trkpt lat="44.39815" lon="6.50176">
        <ele>1066.2</ele>
        <time>2018-08-05T05:33:50Z</time>
      </trkpt>
      <trkpt lat="44.39815" lon="6.50169">
        <ele>1065.9</ele>
        <time>2018-08-05T05:33:51Z</time>
      </trkpt>
      <trkpt lat="44.39816" lon="6.50161">
        <ele>1065.7</ele>
        <time>2018-08-05T05:33:52Z</time>
      </trkpt>
      <trkpt lat="44.39814" lon="6.50153">
        <ele>1065.4</ele>
        <time>2018-08-05T05:33:53Z</time>
      </trkpt>
      <trkpt lat="44.39813" lon="6.50145">
        <ele>1064.9</ele>
        <time>2018-08-05T05:33:54Z</time>
      </trkpt>
      <trkpt lat="44.39811" lon="6.50136">
        <ele>1064.4</ele>
        <time>2018-08-05T05:33:55Z</time>
      </trkpt>
      <trkpt lat="44.39809" lon="6.50128">
        <ele>1064</ele>
        <time>2018-08-05T05:33:56Z</time>
      </trkpt>
      <trkpt lat="44.39807" lon="6.50119">
        <ele>1063.8</ele>
        <time>2018-08-05T05:33:57Z</time>
      </trkpt>
      <trkpt lat="44.39803" lon="6.50108">
        <ele>1063.7</ele>
        <time>2018-08-05T05:33:58Z</time>
      </trkpt>
      <trkpt lat="44.39801" lon="6.50097">
        <ele>1063.3</ele>
        <time>2018-08-05T05:33:59Z</time>
      </trkpt>
      <trkpt lat="44.39798" lon="6.50087">
        <ele>1062.9</ele>
        <time>2018-08-05T05:34:00Z</time>
      </trkpt>
      <trkpt lat="44.39796" lon="6.50075">
        <ele>1062.4</ele>
        <time>2018-08-05T05:34:01Z</time>
      </trkpt>
      <trkpt lat="44.39794" lon="6.50064">
        <ele>1062</ele>
        <time>2018-08-05T05:34:02Z</time>
      </trkpt>
      <trkpt lat="44.39791" lon="6.50053">
        <ele>1061.6</ele>
        <time>2018-08-05T05:34:03Z</time>
      </trkpt>
      <trkpt lat="44.39789" lon="6.50043">
        <ele>1061.3</ele>
        <time>2018-08-05T05:34:04Z</time>
      </trkpt>
      <trkpt lat="44.39788" lon="6.50034">
        <ele>1060.9</ele>
        <time>2018-08-05T05:34:05Z</time>
      </trkpt>
      <trkpt lat="44.39786" lon="6.50024">
        <ele>1060.6</ele>
        <time>2018-08-05T05:34:06Z</time>
      </trkpt>
      <trkpt lat="44.39785" lon="6.50014">
        <ele>1060.3</ele>
        <time>2018-08-05T05:34:07Z</time>
      </trkpt>
      <trkpt lat="44.39782" lon="6.50003">
        <ele>1059.7</ele>
        <time>2018-08-05T05:34:08Z</time>
      </trkpt>
      <trkpt lat="44.39779" lon="6.49993">
        <ele>1059.1</ele>
        <time>2018-08-05T05:34:09Z</time>
      </trkpt>
      <trkpt lat="44.39771" lon="6.49983">
        <ele>1058.3</ele>
        <time>2018-08-05T05:34:10Z</time>
      </trkpt>
      <trkpt lat="44.39768" lon="6.49973">
        <ele>1057.7</ele>
        <time>2018-08-05T05:34:11Z</time>
      </trkpt>
      <trkpt lat="44.39762" lon="6.49967">
        <ele>1057.3</ele>
        <time>2018-08-05T05:34:12Z</time>
      </trkpt>
      <trkpt lat="44.39758" lon="6.49958">
        <ele>1056.8</ele>
        <time>2018-08-05T05:34:13Z</time>
      </trkpt>
      <trkpt lat="44.39756" lon="6.49949">
        <ele>1056.5</ele>
        <time>2018-08-05T05:34:14Z</time>
      </trkpt>
      <trkpt lat="44.39753" lon="6.49942">
        <ele>1056.2</ele>
        <time>2018-08-05T05:34:15Z</time>
      </trkpt>
      <trkpt lat="44.39754" lon="6.49935">
        <ele>1055.6</ele>
        <time>2018-08-05T05:34:16Z</time>
      </trkpt>
      <trkpt lat="44.39751" lon="6.49932">
        <ele>1055.1</ele>
        <time>2018-08-05T05:34:18Z</time>
      </trkpt>
      <trkpt lat="44.39748" lon="6.49931">
        <ele>1054.8</ele>
        <time>2018-08-05T05:34:23Z</time>
      </trkpt>
      <trkpt lat="44.39747" lon="6.49928">
        <ele>1054.4</ele>
        <time>2018-08-05T05:34:29Z</time>
      </trkpt>
      <trkpt lat="44.39748" lon="6.49924">
        <ele>1054</ele>
        <time>2018-08-05T05:34:31Z</time>
      </trkpt>
      <trkpt lat="44.39749" lon="6.49918">
        <ele>1053.4</ele>
        <time>2018-08-05T05:34:33Z</time>
      </trkpt>
      <trkpt lat="44.3975" lon="6.49914">
        <ele>1053</ele>
        <time>2018-08-05T05:34:34Z</time>
      </trkpt>
      <trkpt lat="44.39751" lon="6.49909">
        <ele>1052.8</ele>
        <time>2018-08-05T05:34:35Z</time>
      </trkpt>
      <trkpt lat="44.39752" lon="6.49903">
        <ele>1052.5</ele>
        <time>2018-08-05T05:34:36Z</time>
      </trkpt>
      <trkpt lat="44.39752" lon="6.49897">
        <ele>1052.1</ele>
        <time>2018-08-05T05:34:37Z</time>
      </trkpt>
      <trkpt lat="44.39753" lon="6.49891">
        <ele>1051.5</ele>
        <time>2018-08-05T05:34:38Z</time>
      </trkpt>
      <trkpt lat="44.39753" lon="6.49885">
        <ele>1051</ele>
        <time>2018-08-05T05:34:39Z</time>
      </trkpt>
      <trkpt lat="44.39755" lon="6.49878">
        <ele>1050.6</ele>
        <time>2018-08-05T05:34:40Z</time>
      </trkpt>
      <trkpt lat="44.39755" lon="6.49872">
        <ele>1050.4</ele>
        <time>2018-08-05T05:34:41Z</time>
      </trkpt>
      <trkpt lat="44.39757" lon="6.49864">
        <ele>1050.1</ele>
        <time>2018-08-05T05:34:42Z</time>
      </trkpt>
      <trkpt lat="44.39758" lon="6.49856">
        <ele>1049.7</ele>
        <time>2018-08-05T05:34:43Z</time>
      </trkpt>
      <trkpt lat="44.39758" lon="6.49849">
        <ele>1049.2</ele>
        <time>2018-08-05T05:34:44Z</time>
      </trkpt>
      <trkpt lat="44.39759" lon="6.49843">
        <ele>1048.8</ele>
        <time>2018-08-05T05:34:45Z</time>
      </trkpt>
      <trkpt lat="44.39761" lon="6.49837">
        <ele>1048.4</ele>
        <time>2018-08-05T05:34:46Z</time>
      </trkpt>
      <trkpt lat="44.39763" lon="6.49831">
        <ele>1048.2</ele>
        <time>2018-08-05T05:34:47Z</time>
      </trkpt>
      <trkpt lat="44.39765" lon="6.49826">
        <ele>1048</ele>
        <time>2018-08-05T05:34:48Z</time>
      </trkpt>
      <trkpt lat="44.39768" lon="6.4982">
        <ele>1047.9</ele>
        <time>2018-08-05T05:34:49Z</time>
      </trkpt>
      <trkpt lat="44.3977" lon="6.49814">
        <ele>1047.8</ele>
        <time>2018-08-05T05:34:50Z</time>
      </trkpt>
      <trkpt lat="44.39772" lon="6.49809">
        <ele>1047.7</ele>
        <time>2018-08-05T05:34:51Z</time>
      </trkpt>
      <trkpt lat="44.39774" lon="6.49803">
        <ele>1047.7</ele>
        <time>2018-08-05T05:34:52Z</time>
      </trkpt>
      <trkpt lat="44.39776" lon="6.49799">
        <ele>1047.6</ele>
        <time>2018-08-05T05:34:53Z</time>
      </trkpt>
      <trkpt lat="44.39777" lon="6.49794">
        <ele>1047.6</ele>
        <time>2018-08-05T05:34:54Z</time>
      </trkpt>
      <trkpt lat="44.39778" lon="6.49788">
        <ele>1047.5</ele>
        <time>2018-08-05T05:34:55Z</time>
      </trkpt>
      <trkpt lat="44.39779" lon="6.49783">
        <ele>1047.5</ele>
        <time>2018-08-05T05:34:56Z</time>
      </trkpt>
      <trkpt lat="44.3978" lon="6.49778">
        <ele>1047.4</ele>
        <time>2018-08-05T05:34:57Z</time>
      </trkpt>
      <trkpt lat="44.39781" lon="6.49774">
        <ele>1047.4</ele>
        <time>2018-08-05T05:34:58Z</time>
      </trkpt>
      <trkpt lat="44.39781" lon="6.4977">
        <ele>1047.3</ele>
        <time>2018-08-05T05:34:59Z</time>
      </trkpt>
      <trkpt lat="44.39782" lon="6.49763">
        <ele>1047.2</ele>
        <time>2018-08-05T05:35:01Z</time>
      </trkpt>
      <trkpt lat="44.39782" lon="6.49755">
        <ele>1047.1</ele>
        <time>2018-08-05T05:35:03Z</time>
      </trkpt>
      <trkpt lat="44.39781" lon="6.49752">
        <ele>1047.1</ele>
        <time>2018-08-05T05:35:04Z</time>
      </trkpt>
      <trkpt lat="44.39782" lon="6.49747">
        <ele>1047</ele>
        <time>2018-08-05T05:35:05Z</time>
      </trkpt>
      <trkpt lat="44.39782" lon="6.4974">
        <ele>1047</ele>
        <time>2018-08-05T05:35:07Z</time>
      </trkpt>
      <trkpt lat="44.39784" lon="6.49735">
        <ele>1047</ele>
        <time>2018-08-05T05:35:08Z</time>
      </trkpt>
      <trkpt lat="44.39785" lon="6.49732">
        <ele>1047.1</ele>
        <time>2018-08-05T05:35:09Z</time>
      </trkpt>
      <trkpt lat="44.39785" lon="6.49728">
        <ele>1047.2</ele>
        <time>2018-08-05T05:35:10Z</time>
      </trkpt>
      <trkpt lat="44.39787" lon="6.49724">
        <ele>1047.2</ele>
        <time>2018-08-05T05:35:11Z</time>
      </trkpt>
      <trkpt lat="44.39788" lon="6.49719">
        <ele>1047.4</ele>
        <time>2018-08-05T05:35:12Z</time>
      </trkpt>
      <trkpt lat="44.3979" lon="6.49716">
        <ele>1047.6</ele>
        <time>2018-08-05T05:35:13Z</time>
      </trkpt>
      <trkpt lat="44.39792" lon="6.49709">
        <ele>1047.8</ele>
        <time>2018-08-05T05:35:15Z</time>
      </trkpt>
      <trkpt lat="44.39793" lon="6.49705">
        <ele>1047.8</ele>
        <time>2018-08-05T05:35:16Z</time>
      </trkpt>
      <trkpt lat="44.39794" lon="6.49701">
        <ele>1047.8</ele>
        <time>2018-08-05T05:35:17Z</time>
      </trkpt>
      <trkpt lat="44.39795" lon="6.49697">
        <ele>1047.9</ele>
        <time>2018-08-05T05:35:18Z</time>
      </trkpt>
      <trkpt lat="44.39796" lon="6.49692">
        <ele>1047.9</ele>
        <time>2018-08-05T05:35:19Z</time>
      </trkpt>
      <trkpt lat="44.39796" lon="6.49688">
        <ele>1047.9</ele>
        <time>2018-08-05T05:35:20Z</time>
      </trkpt>
      <trkpt lat="44.39798" lon="6.49684">
        <ele>1047.9</ele>
        <time>2018-08-05T05:35:21Z</time>
      </trkpt>
      <trkpt lat="44.39798" lon="6.4968">
        <ele>1047.9</ele>
        <time>2018-08-05T05:35:22Z</time>
      </trkpt>
      <trkpt lat="44.39799" lon="6.49677">
        <ele>1047.9</ele>
        <time>2018-08-05T05:35:23Z</time>
      </trkpt>
      <trkpt lat="44.39801" lon="6.49671">
        <ele>1047.9</ele>
        <time>2018-08-05T05:35:25Z</time>
      </trkpt>
      <trkpt lat="44.39801" lon="6.49667">
        <ele>1047.9</ele>
        <time>2018-08-05T05:35:27Z</time>
      </trkpt>
      <trkpt lat="44.39802" lon="6.49662">
        <ele>1047.9</ele>
        <time>2018-08-05T05:35:30Z</time>
      </trkpt>
      <trkpt lat="44.398" lon="6.4967">
        <ele>1047.8</ele>
        <time>2018-08-05T05:39:50Z</time>
      </trkpt>
      <trkpt lat="44.39799" lon="6.49673">
        <ele>1047.8</ele>
        <time>2018-08-05T05:40:05Z</time>
      </trkpt>
      <trkpt lat="44.39797" lon="6.49669">
        <ele>1047.8</ele>
        <time>2018-08-05T05:40:12Z</time>
      </trkpt>
      <trkpt lat="44.39802" lon="6.49662">
        <ele>1047.8</ele>
        <time>2018-08-05T05:41:28Z</time>
      </trkpt>
      <trkpt lat="44.39802" lon="6.49658">
        <ele>1047.7</ele>
        <time>2018-08-05T05:41:31Z</time>
      </trkpt>
      <trkpt lat="44.39802" lon="6.49654">
        <ele>1047.7</ele>
        <time>2018-08-05T05:41:32Z</time>
      </trkpt>
      <trkpt lat="44.39803" lon="6.49648">
        <ele>1047.7</ele>
        <time>2018-08-05T05:41:33Z</time>
      </trkpt>
      <trkpt lat="44.39804" lon="6.49643">
        <ele>1047.6</ele>
        <time>2018-08-05T05:41:34Z</time>
      </trkpt>
      <trkpt lat="44.39804" lon="6.49637">
        <ele>1047.5</ele>
        <time>2018-08-05T05:41:35Z</time>
      </trkpt>
      <trkpt lat="44.39803" lon="6.49629">
        <ele>1047.3</ele>
        <time>2018-08-05T05:41:36Z</time>
      </trkpt>
      <trkpt lat="44.39802" lon="6.49621">
        <ele>1047.1</ele>
        <time>2018-08-05T05:41:37Z</time>
      </trkpt>
      <trkpt lat="44.398" lon="6.49613">
        <ele>1046.7</ele>
        <time>2018-08-05T05:41:38Z</time>
      </trkpt>
      <trkpt lat="44.39798" lon="6.49604">
        <ele>1046.3</ele>
        <time>2018-08-05T05:41:39Z</time>
      </trkpt>
      <trkpt lat="44.39796" lon="6.49597">
        <ele>1045.7</ele>
        <time>2018-08-05T05:41:40Z</time>
      </trkpt>
      <trkpt lat="44.39793" lon="6.4959">
        <ele>1045</ele>
        <time>2018-08-05T05:41:41Z</time>
      </trkpt>
      <trkpt lat="44.39789" lon="6.49585">
        <ele>1044.6</ele>
        <time>2018-08-05T05:41:42Z</time>
      </trkpt>
      <trkpt lat="44.39785" lon="6.49577">
        <ele>1044.2</ele>
        <time>2018-08-05T05:41:43Z</time>
      </trkpt>
      <trkpt lat="44.39781" lon="6.49572">
        <ele>1044.1</ele>
        <time>2018-08-05T05:41:44Z</time>
      </trkpt>
      <trkpt lat="44.39779" lon="6.49566">
        <ele>1043.9</ele>
        <time>2018-08-05T05:41:45Z</time>
      </trkpt>
      <trkpt lat="44.39776" lon="6.49561">
        <ele>1043.7</ele>
        <time>2018-08-05T05:41:46Z</time>
      </trkpt>
      <trkpt lat="44.39774" lon="6.49557">
        <ele>1043.6</ele>
        <time>2018-08-05T05:41:47Z</time>
      </trkpt>
      <trkpt lat="44.39771" lon="6.49552">
        <ele>1043.3</ele>
        <time>2018-08-05T05:41:48Z</time>
      </trkpt>
      <trkpt lat="44.3977" lon="6.49547">
        <ele>1042.8</ele>
        <time>2018-08-05T05:41:49Z</time>
      </trkpt>
      <trkpt lat="44.39768" lon="6.49542">
        <ele>1042.1</ele>
        <time>2018-08-05T05:41:50Z</time>
      </trkpt>
      <trkpt lat="44.39772" lon="6.49535">
        <ele>1041</ele>
        <time>2018-08-05T05:41:51Z</time>
      </trkpt>
      <trkpt lat="44.39774" lon="6.49528">
        <ele>1040.2</ele>
        <time>2018-08-05T05:41:52Z</time>
      </trkpt>
      <trkpt lat="44.39775" lon="6.49521">
        <ele>1039.2</ele>
        <time>2018-08-05T05:41:53Z</time>
      </trkpt>
      <trkpt lat="44.39776" lon="6.49513">
        <ele>1038</ele>
        <time>2018-08-05T05:41:54Z</time>
      </trkpt>
      <trkpt lat="44.39775" lon="6.49505">
        <ele>1036.9</ele>
        <time>2018-08-05T05:41:55Z</time>
      </trkpt>
      <trkpt lat="44.39774" lon="6.49497">
        <ele>1035.8</ele>
        <time>2018-08-05T05:41:56Z</time>
      </trkpt>
      <trkpt lat="44.3977" lon="6.4949">
        <ele>1034.9</ele>
        <time>2018-08-05T05:41:57Z</time>
      </trkpt>
      <trkpt lat="44.39766" lon="6.49484">
        <ele>1034</ele>
        <time>2018-08-05T05:41:58Z</time>
      </trkpt>
      <trkpt lat="44.39763" lon="6.49474">
        <ele>1033.5</ele>
        <time>2018-08-05T05:41:59Z</time>
      </trkpt>
      <trkpt lat="44.3976" lon="6.49466">
        <ele>1033.1</ele>
        <time>2018-08-05T05:42:00Z</time>
      </trkpt>
      <trkpt lat="44.39756" lon="6.49458">
        <ele>1032.8</ele>
        <time>2018-08-05T05:42:01Z</time>
      </trkpt>
      <trkpt lat="44.39754" lon="6.4945">
        <ele>1032.5</ele>
        <time>2018-08-05T05:42:02Z</time>
      </trkpt>
      <trkpt lat="44.3975" lon="6.49441">
        <ele>1031.6</ele>
        <time>2018-08-05T05:42:03Z</time>
      </trkpt>
      <trkpt lat="44.39747" lon="6.49432">
        <ele>1030.8</ele>
        <time>2018-08-05T05:42:04Z</time>
      </trkpt>
      <trkpt lat="44.39741" lon="6.49425">
        <ele>1030.3</ele>
        <time>2018-08-05T05:42:05Z</time>
      </trkpt>
      <trkpt lat="44.39736" lon="6.49417">
        <ele>1029.7</ele>
        <time>2018-08-05T05:42:06Z</time>
      </trkpt>
      <trkpt lat="44.39731" lon="6.49409">
        <ele>1028.9</ele>
        <time>2018-08-05T05:42:07Z</time>
      </trkpt>
      <trkpt lat="44.39728" lon="6.49401">
        <ele>1028.5</ele>
        <time>2018-08-05T05:42:08Z</time>
      </trkpt>
      <trkpt lat="44.39726" lon="6.49394">
        <ele>1028.3</ele>
        <time>2018-08-05T05:42:09Z</time>
      </trkpt>
      <trkpt lat="44.39722" lon="6.49385">
        <ele>1028</ele>
        <time>2018-08-05T05:42:10Z</time>
      </trkpt>
      <trkpt lat="44.39719" lon="6.49376">
        <ele>1028</ele>
        <time>2018-08-05T05:42:11Z</time>
      </trkpt>
      <trkpt lat="44.39718" lon="6.49366">
        <ele>1027.9</ele>
        <time>2018-08-05T05:42:12Z</time>
      </trkpt>
      <trkpt lat="44.39718" lon="6.49356">
        <ele>1027.8</ele>
        <time>2018-08-05T05:42:13Z</time>
      </trkpt>
      <trkpt lat="44.39716" lon="6.49348">
        <ele>1027.7</ele>
        <time>2018-08-05T05:42:14Z</time>
      </trkpt>
      <trkpt lat="44.39715" lon="6.4934">
        <ele>1027.7</ele>
        <time>2018-08-05T05:42:15Z</time>
      </trkpt>
      <trkpt lat="44.39715" lon="6.49333">
        <ele>1027.6</ele>
        <time>2018-08-05T05:42:16Z</time>
      </trkpt>
      <trkpt lat="44.39716" lon="6.49325">
        <ele>1027.5</ele>
        <time>2018-08-05T05:42:17Z</time>
      </trkpt>
      <trkpt lat="44.39715" lon="6.49318">
        <ele>1027.5</ele>
        <time>2018-08-05T05:42:18Z</time>
      </trkpt>
      <trkpt lat="44.39709" lon="6.49313">
        <ele>1027.4</ele>
        <time>2018-08-05T05:42:19Z</time>
      </trkpt>
      <trkpt lat="44.39707" lon="6.49308">
        <ele>1027.3</ele>
        <time>2018-08-05T05:42:20Z</time>
      </trkpt>
      <trkpt lat="44.39708" lon="6.49302">
        <ele>1027.2</ele>
        <time>2018-08-05T05:42:21Z</time>
      </trkpt>
      <trkpt lat="44.39704" lon="6.49296">
        <ele>1027.2</ele>
        <time>2018-08-05T05:42:22Z</time>
      </trkpt>
      <trkpt lat="44.39703" lon="6.4929">
        <ele>1027.1</ele>
        <time>2018-08-05T05:42:23Z</time>
      </trkpt>
      <trkpt lat="44.39702" lon="6.49284">
        <ele>1027.1</ele>
        <time>2018-08-05T05:42:24Z</time>
      </trkpt>
      <trkpt lat="44.397" lon="6.49279">
        <ele>1026.9</ele>
        <time>2018-08-05T05:42:25Z</time>
      </trkpt>
      <trkpt lat="44.39699" lon="6.49273">
        <ele>1026.5</ele>
        <time>2018-08-05T05:42:26Z</time>
      </trkpt>
      <trkpt lat="44.39698" lon="6.49266">
        <ele>1026</ele>
        <time>2018-08-05T05:42:27Z</time>
      </trkpt>
      <trkpt lat="44.39695" lon="6.49261">
        <ele>1025.5</ele>
        <time>2018-08-05T05:42:28Z</time>
      </trkpt>
      <trkpt lat="44.39697" lon="6.49254">
        <ele>1025</ele>
        <time>2018-08-05T05:42:29Z</time>
      </trkpt>
      <trkpt lat="44.39698" lon="6.49246">
        <ele>1024.6</ele>
        <time>2018-08-05T05:42:30Z</time>
      </trkpt>
      <trkpt lat="44.39698" lon="6.4924">
        <ele>1024.3</ele>
        <time>2018-08-05T05:42:31Z</time>
      </trkpt>
      <trkpt lat="44.39699" lon="6.49234">
        <ele>1024.1</ele>
        <time>2018-08-05T05:42:32Z</time>
      </trkpt>
      <trkpt lat="44.397" lon="6.49227">
        <ele>1023.8</ele>
        <time>2018-08-05T05:42:33Z</time>
      </trkpt>
      <trkpt lat="44.397" lon="6.49221">
        <ele>1023.6</ele>
        <time>2018-08-05T05:42:34Z</time>
      </trkpt>
      <trkpt lat="44.397" lon="6.49215">
        <ele>1023.4</ele>
        <time>2018-08-05T05:42:35Z</time>
      </trkpt>
      <trkpt lat="44.39698" lon="6.49208">
        <ele>1023.2</ele>
        <time>2018-08-05T05:42:36Z</time>
      </trkpt>
      <trkpt lat="44.39697" lon="6.49202">
        <ele>1023</ele>
        <time>2018-08-05T05:42:37Z</time>
      </trkpt>
      <trkpt lat="44.39696" lon="6.49196">
        <ele>1022.8</ele>
        <time>2018-08-05T05:42:38Z</time>
      </trkpt>
      <trkpt lat="44.39695" lon="6.4919">
        <ele>1022.7</ele>
        <time>2018-08-05T05:42:39Z</time>
      </trkpt>
      <trkpt lat="44.39694" lon="6.49184">
        <ele>1022.5</ele>
        <time>2018-08-05T05:42:40Z</time>
      </trkpt>
      <trkpt lat="44.39693" lon="6.49179">
        <ele>1022.3</ele>
        <time>2018-08-05T05:42:41Z</time>
      </trkpt>
      <trkpt lat="44.39692" lon="6.49173">
        <ele>1022.2</ele>
        <time>2018-08-05T05:42:42Z</time>
      </trkpt>
      <trkpt lat="44.3969" lon="6.49168">
        <ele>1022</ele>
        <time>2018-08-05T05:42:43Z</time>
      </trkpt>
      <trkpt lat="44.3969" lon="6.49162">
        <ele>1021.9</ele>
        <time>2018-08-05T05:42:44Z</time>
      </trkpt>
      <trkpt lat="44.3969" lon="6.49156">
        <ele>1021.7</ele>
        <time>2018-08-05T05:42:45Z</time>
      </trkpt>
      <trkpt lat="44.3969" lon="6.4915">
        <ele>1021.6</ele>
        <time>2018-08-05T05:42:46Z</time>
      </trkpt>
      <trkpt lat="44.3969" lon="6.49144">
        <ele>1021.4</ele>
        <time>2018-08-05T05:42:47Z</time>
      </trkpt>
      <trkpt lat="44.3969" lon="6.49138">
        <ele>1021.2</ele>
        <time>2018-08-05T05:42:48Z</time>
      </trkpt>
      <trkpt lat="44.39689" lon="6.49132">
        <ele>1021</ele>
        <time>2018-08-05T05:42:49Z</time>
      </trkpt>
      <trkpt lat="44.39689" lon="6.49125">
        <ele>1020.9</ele>
        <time>2018-08-05T05:42:50Z</time>
      </trkpt>
      <trkpt lat="44.3969" lon="6.49118">
        <ele>1020.7</ele>
        <time>2018-08-05T05:42:51Z</time>
      </trkpt>
      <trkpt lat="44.39691" lon="6.49111">
        <ele>1020.5</ele>
        <time>2018-08-05T05:42:52Z</time>
      </trkpt>
      <trkpt lat="44.39692" lon="6.49104">
        <ele>1020.3</ele>
        <time>2018-08-05T05:42:53Z</time>
      </trkpt>
      <trkpt lat="44.3969" lon="6.49098">
        <ele>1020.1</ele>
        <time>2018-08-05T05:42:54Z</time>
      </trkpt>
      <trkpt lat="44.3969" lon="6.4909">
        <ele>1019.9</ele>
        <time>2018-08-05T05:42:55Z</time>
      </trkpt>
      <trkpt lat="44.3969" lon="6.49082">
        <ele>1019.7</ele>
        <time>2018-08-05T05:42:56Z</time>
      </trkpt>
      <trkpt lat="44.39688" lon="6.49074">
        <ele>1019.5</ele>
        <time>2018-08-05T05:42:57Z</time>
      </trkpt>
      <trkpt lat="44.39686" lon="6.49066">
        <ele>1019.1</ele>
        <time>2018-08-05T05:42:58Z</time>
      </trkpt>
      <trkpt lat="44.39685" lon="6.49059">
        <ele>1018.5</ele>
        <time>2018-08-05T05:42:59Z</time>
      </trkpt>
      <trkpt lat="44.39681" lon="6.49053">
        <ele>1017.9</ele>
        <time>2018-08-05T05:43:00Z</time>
      </trkpt>
      <trkpt lat="44.39678" lon="6.49047">
        <ele>1017.5</ele>
        <time>2018-08-05T05:43:01Z</time>
      </trkpt>
      <trkpt lat="44.39675" lon="6.49041">
        <ele>1016.9</ele>
        <time>2018-08-05T05:43:02Z</time>
      </trkpt>
      <trkpt lat="44.3967" lon="6.49035">
        <ele>1016.2</ele>
        <time>2018-08-05T05:43:03Z</time>
      </trkpt>
      <trkpt lat="44.39667" lon="6.4903">
        <ele>1015.7</ele>
        <time>2018-08-05T05:43:04Z</time>
      </trkpt>
      <trkpt lat="44.39664" lon="6.49024">
        <ele>1015.1</ele>
        <time>2018-08-05T05:43:05Z</time>
      </trkpt>
      <trkpt lat="44.3966" lon="6.49018">
        <ele>1014.4</ele>
        <time>2018-08-05T05:43:06Z</time>
      </trkpt>
      <trkpt lat="44.39656" lon="6.49013">
        <ele>1013.6</ele>
        <time>2018-08-05T05:43:07Z</time>
      </trkpt>
      <trkpt lat="44.39652" lon="6.49007">
        <ele>1012.5</ele>
        <time>2018-08-05T05:43:08Z</time>
      </trkpt>
      <trkpt lat="44.39649" lon="6.49002">
        <ele>1011.5</ele>
        <time>2018-08-05T05:43:09Z</time>
      </trkpt>
      <trkpt lat="44.39645" lon="6.48996">
        <ele>1010.3</ele>
        <time>2018-08-05T05:43:10Z</time>
      </trkpt>
      <trkpt lat="44.39642" lon="6.48988">
        <ele>1009</ele>
        <time>2018-08-05T05:43:11Z</time>
      </trkpt>
      <trkpt lat="44.39639" lon="6.48982">
        <ele>1008.2</ele>
        <time>2018-08-05T05:43:12Z</time>
      </trkpt>
      <trkpt lat="44.39637" lon="6.48974">
        <ele>1007.2</ele>
        <time>2018-08-05T05:43:13Z</time>
      </trkpt>
      <trkpt lat="44.39634" lon="6.48966">
        <ele>1006.2</ele>
        <time>2018-08-05T05:43:14Z</time>
      </trkpt>
      <trkpt lat="44.39636" lon="6.48958">
        <ele>1005.6</ele>
        <time>2018-08-05T05:43:15Z</time>
      </trkpt>
      <trkpt lat="44.39634" lon="6.48951">
        <ele>1005.1</ele>
        <time>2018-08-05T05:43:16Z</time>
      </trkpt>
      <trkpt lat="44.39633" lon="6.48943">
        <ele>1004.5</ele>
        <time>2018-08-05T05:43:17Z</time>
      </trkpt>
      <trkpt lat="44.39628" lon="6.48934">
        <ele>1003.4</ele>
        <time>2018-08-05T05:43:18Z</time>
      </trkpt>
      <trkpt lat="44.39626" lon="6.48925">
        <ele>1002.2</ele>
        <time>2018-08-05T05:43:19Z</time>
      </trkpt>
      <trkpt lat="44.39625" lon="6.48917">
        <ele>1001.3</ele>
        <time>2018-08-05T05:43:20Z</time>
      </trkpt>
      <trkpt lat="44.39622" lon="6.4891">
        <ele>1000.4</ele>
        <time>2018-08-05T05:43:21Z</time>
      </trkpt>
      <trkpt lat="44.39621" lon="6.48902">
        <ele>999.7</ele>
        <time>2018-08-05T05:43:22Z</time>
      </trkpt>
      <trkpt lat="44.3962" lon="6.48896">
        <ele>999.3</ele>
        <time>2018-08-05T05:43:23Z</time>
      </trkpt>
      <trkpt lat="44.39622" lon="6.48887">
        <ele>998.8</ele>
        <time>2018-08-05T05:43:24Z</time>
      </trkpt>
      <trkpt lat="44.39623" lon="6.48879">
        <ele>998.6</ele>
        <time>2018-08-05T05:43:25Z</time>
      </trkpt>
      <trkpt lat="44.39624" lon="6.48869">
        <ele>998.3</ele>
        <time>2018-08-05T05:43:26Z</time>
      </trkpt>
      <trkpt lat="44.39621" lon="6.48862">
        <ele>998.1</ele>
        <time>2018-08-05T05:43:27Z</time>
      </trkpt>
      <trkpt lat="44.39618" lon="6.48854">
        <ele>997.8</ele>
        <time>2018-08-05T05:43:28Z</time>
      </trkpt>
      <trkpt lat="44.39615" lon="6.48846">
        <ele>997.5</ele>
        <time>2018-08-05T05:43:29Z</time>
      </trkpt>
      <trkpt lat="44.39612" lon="6.48837">
        <ele>997</ele>
        <time>2018-08-05T05:43:30Z</time>
      </trkpt>
      <trkpt lat="44.39608" lon="6.4883">
        <ele>996.3</ele>
        <time>2018-08-05T05:43:31Z</time>
      </trkpt>
      <trkpt lat="44.3961" lon="6.48821">
        <ele>995.7</ele>
        <time>2018-08-05T05:43:32Z</time>
      </trkpt>
      <trkpt lat="44.39609" lon="6.48814">
        <ele>995.1</ele>
        <time>2018-08-05T05:43:33Z</time>
      </trkpt>
      <trkpt lat="44.39608" lon="6.48806">
        <ele>994.4</ele>
        <time>2018-08-05T05:43:34Z</time>
      </trkpt>
      <trkpt lat="44.39609" lon="6.48799">
        <ele>993.4</ele>
        <time>2018-08-05T05:43:35Z</time>
      </trkpt>
      <trkpt lat="44.39611" lon="6.48793">
        <ele>992.4</ele>
        <time>2018-08-05T05:43:36Z</time>
      </trkpt>
      <trkpt lat="44.39613" lon="6.48785">
        <ele>991.3</ele>
        <time>2018-08-05T05:43:37Z</time>
      </trkpt>
      <trkpt lat="44.39615" lon="6.48777">
        <ele>991.8</ele>
        <time>2018-08-05T05:43:38Z</time>
      </trkpt>
      <trkpt lat="44.39614" lon="6.48769">
        <ele>993</ele>
        <time>2018-08-05T05:43:39Z</time>
      </trkpt>
      <trkpt lat="44.39614" lon="6.48762">
        <ele>992.7</ele>
        <time>2018-08-05T05:43:40Z</time>
      </trkpt>
      <trkpt lat="44.39615" lon="6.48755">
        <ele>992.4</ele>
        <time>2018-08-05T05:43:41Z</time>
      </trkpt>
      <trkpt lat="44.39615" lon="6.48746">
        <ele>992</ele>
        <time>2018-08-05T05:43:42Z</time>
      </trkpt>
      <trkpt lat="44.39615" lon="6.48739">
        <ele>991.7</ele>
        <time>2018-08-05T05:43:43Z</time>
      </trkpt>
      <trkpt lat="44.39616" lon="6.48731">
        <ele>991.3</ele>
        <time>2018-08-05T05:43:44Z</time>
      </trkpt>
      <trkpt lat="44.3962" lon="6.48727">
        <ele>990.9</ele>
        <time>2018-08-05T05:43:45Z</time>
      </trkpt>
      <trkpt lat="44.39621" lon="6.48722">
        <ele>990.6</ele>
        <time>2018-08-05T05:43:46Z</time>
      </trkpt>
      <trkpt lat="44.39618" lon="6.48715">
        <ele>990.2</ele>
        <time>2018-08-05T05:43:47Z</time>
      </trkpt>
      <trkpt lat="44.39616" lon="6.48709">
        <ele>989.8</ele>
        <time>2018-08-05T05:43:48Z</time>
      </trkpt>
      <trkpt lat="44.39615" lon="6.48703">
        <ele>989.3</ele>
        <time>2018-08-05T05:43:49Z</time>
      </trkpt>
      <trkpt lat="44.39613" lon="6.48699">
        <ele>988.9</ele>
        <time>2018-08-05T05:43:50Z</time>
      </trkpt>
      <trkpt lat="44.3961" lon="6.48693">
        <ele>985.6</ele>
        <time>2018-08-05T05:43:51Z</time>
      </trkpt>
      <trkpt lat="44.39608" lon="6.48688">
        <ele>984.3</ele>
        <time>2018-08-05T05:43:52Z</time>
      </trkpt>
      <trkpt lat="44.39601" lon="6.4868">
        <ele>981.9</ele>
        <time>2018-08-05T05:43:53Z</time>
      </trkpt>
      <trkpt lat="44.39598" lon="6.48673">
        <ele>980.5</ele>
        <time>2018-08-05T05:43:54Z</time>
      </trkpt>
      <trkpt lat="44.39597" lon="6.48664">
        <ele>979</ele>
        <time>2018-08-05T05:43:55Z</time>
      </trkpt>
      <trkpt lat="44.39595" lon="6.48656">
        <ele>977.6</ele>
        <time>2018-08-05T05:43:56Z</time>
      </trkpt>
      <trkpt lat="44.39591" lon="6.48648">
        <ele>976.1</ele>
        <time>2018-08-05T05:43:57Z</time>
      </trkpt>
      <trkpt lat="44.39589" lon="6.4864">
        <ele>975</ele>
        <time>2018-08-05T05:43:58Z</time>
      </trkpt>
      <trkpt lat="44.39587" lon="6.48629">
        <ele>975.1</ele>
        <time>2018-08-05T05:43:59Z</time>
      </trkpt>
      <trkpt lat="44.39583" lon="6.48621">
        <ele>975.2</ele>
        <time>2018-08-05T05:44:00Z</time>
      </trkpt>
      <trkpt lat="44.3958" lon="6.48612">
        <ele>975.3</ele>
        <time>2018-08-05T05:44:01Z</time>
      </trkpt>
      <trkpt lat="44.39579" lon="6.48602">
        <ele>975.4</ele>
        <time>2018-08-05T05:44:02Z</time>
      </trkpt>
      <trkpt lat="44.39576" lon="6.48593">
        <ele>975.5</ele>
        <time>2018-08-05T05:44:03Z</time>
      </trkpt>
      <trkpt lat="44.39573" lon="6.48583">
        <ele>975.6</ele>
        <time>2018-08-05T05:44:04Z</time>
      </trkpt>
      <trkpt lat="44.39572" lon="6.48575">
        <ele>975.6</ele>
        <time>2018-08-05T05:44:05Z</time>
      </trkpt>
      <trkpt lat="44.39571" lon="6.48566">
        <ele>975.7</ele>
        <time>2018-08-05T05:44:06Z</time>
      </trkpt>
      <trkpt lat="44.3957" lon="6.48558">
        <ele>975.8</ele>
        <time>2018-08-05T05:44:07Z</time>
      </trkpt>
      <trkpt lat="44.39568" lon="6.4855">
        <ele>975.8</ele>
        <time>2018-08-05T05:44:08Z</time>
      </trkpt>
      <trkpt lat="44.39568" lon="6.48542">
        <ele>975.9</ele>
        <time>2018-08-05T05:44:09Z</time>
      </trkpt>
      <trkpt lat="44.39568" lon="6.48533">
        <ele>976</ele>
        <time>2018-08-05T05:44:10Z</time>
      </trkpt>
      <trkpt lat="44.39568" lon="6.48524">
        <ele>976</ele>
        <time>2018-08-05T05:44:11Z</time>
      </trkpt>
      <trkpt lat="44.39566" lon="6.48516">
        <ele>976.1</ele>
        <time>2018-08-05T05:44:12Z</time>
      </trkpt>
      <trkpt lat="44.39566" lon="6.48508">
        <ele>976.1</ele>
        <time>2018-08-05T05:44:13Z</time>
      </trkpt>
      <trkpt lat="44.39568" lon="6.48499">
        <ele>976.2</ele>
        <time>2018-08-05T05:44:14Z</time>
      </trkpt>
      <trkpt lat="44.39568" lon="6.48492">
        <ele>976.3</ele>
        <time>2018-08-05T05:44:15Z</time>
      </trkpt>
      <trkpt lat="44.39567" lon="6.48483">
        <ele>976.3</ele>
        <time>2018-08-05T05:44:16Z</time>
      </trkpt>
      <trkpt lat="44.39568" lon="6.48474">
        <ele>976.4</ele>
        <time>2018-08-05T05:44:17Z</time>
      </trkpt>
      <trkpt lat="44.39567" lon="6.48466">
        <ele>976.5</ele>
        <time>2018-08-05T05:44:18Z</time>
      </trkpt>
      <trkpt lat="44.39567" lon="6.48457">
        <ele>976.5</ele>
        <time>2018-08-05T05:44:19Z</time>
      </trkpt>
      <trkpt lat="44.39565" lon="6.48449">
        <ele>976.6</ele>
        <time>2018-08-05T05:44:20Z</time>
      </trkpt>
      <trkpt lat="44.39565" lon="6.48441">
        <ele>976.6</ele>
        <time>2018-08-05T05:44:21Z</time>
      </trkpt>
      <trkpt lat="44.39565" lon="6.48433">
        <ele>976.7</ele>
        <time>2018-08-05T05:44:22Z</time>
      </trkpt>
      <trkpt lat="44.39565" lon="6.48425">
        <ele>976.8</ele>
        <time>2018-08-05T05:44:23Z</time>
      </trkpt>
      <trkpt lat="44.39565" lon="6.48417">
        <ele>976.8</ele>
        <time>2018-08-05T05:44:24Z</time>
      </trkpt>
      <trkpt lat="44.39565" lon="6.48408">
        <ele>976.9</ele>
        <time>2018-08-05T05:44:25Z</time>
      </trkpt>
      <trkpt lat="44.39566" lon="6.484">
        <ele>977</ele>
        <time>2018-08-05T05:44:26Z</time>
      </trkpt>
      <trkpt lat="44.39566" lon="6.48392">
        <ele>977</ele>
        <time>2018-08-05T05:44:27Z</time>
      </trkpt>
      <trkpt lat="44.39566" lon="6.48384">
        <ele>977.1</ele>
        <time>2018-08-05T05:44:28Z</time>
      </trkpt>
      <trkpt lat="44.39569" lon="6.48377">
        <ele>977.2</ele>
        <time>2018-08-05T05:44:29Z</time>
      </trkpt>
      <trkpt lat="44.39569" lon="6.48369">
        <ele>977.2</ele>
        <time>2018-08-05T05:44:30Z</time>
      </trkpt>
      <trkpt lat="44.39568" lon="6.4836">
        <ele>977.3</ele>
        <time>2018-08-05T05:44:31Z</time>
      </trkpt>
      <trkpt lat="44.39568" lon="6.48351">
        <ele>977.3</ele>
        <time>2018-08-05T05:44:32Z</time>
      </trkpt>
      <trkpt lat="44.39567" lon="6.48342">
        <ele>977.4</ele>
        <time>2018-08-05T05:44:33Z</time>
      </trkpt>
      <trkpt lat="44.39566" lon="6.48334">
        <ele>977.4</ele>
        <time>2018-08-05T05:44:34Z</time>
      </trkpt>
      <trkpt lat="44.39565" lon="6.48326">
        <ele>977.5</ele>
        <time>2018-08-05T05:44:35Z</time>
      </trkpt>
      <trkpt lat="44.39562" lon="6.48318">
        <ele>977.6</ele>
        <time>2018-08-05T05:44:36Z</time>
      </trkpt>
      <trkpt lat="44.39561" lon="6.48312">
        <ele>977.6</ele>
        <time>2018-08-05T05:44:37Z</time>
      </trkpt>
      <trkpt lat="44.39557" lon="6.48304">
        <ele>977.7</ele>
        <time>2018-08-05T05:44:38Z</time>
      </trkpt>
      <trkpt lat="44.39555" lon="6.48297">
        <ele>977.7</ele>
        <time>2018-08-05T05:44:39Z</time>
      </trkpt>
      <trkpt lat="44.39551" lon="6.48289">
        <ele>977.8</ele>
        <time>2018-08-05T05:44:40Z</time>
      </trkpt>
      <trkpt lat="44.39546" lon="6.48284">
        <ele>977.9</ele>
        <time>2018-08-05T05:44:41Z</time>
      </trkpt>
      <trkpt lat="44.39542" lon="6.48275">
        <ele>977.9</ele>
        <time>2018-08-05T05:44:42Z</time>
      </trkpt>
      <trkpt lat="44.39539" lon="6.48268">
        <ele>978</ele>
        <time>2018-08-05T05:44:43Z</time>
      </trkpt>
      <trkpt lat="44.39538" lon="6.48261">
        <ele>978.1</ele>
        <time>2018-08-05T05:44:44Z</time>
      </trkpt>
      <trkpt lat="44.39533" lon="6.48253">
        <ele>978.1</ele>
        <time>2018-08-05T05:44:45Z</time>
      </trkpt>
      <trkpt lat="44.39531" lon="6.48247">
        <ele>978.2</ele>
        <time>2018-08-05T05:44:46Z</time>
      </trkpt>
      <trkpt lat="44.39527" lon="6.4824">
        <ele>978.3</ele>
        <time>2018-08-05T05:44:47Z</time>
      </trkpt>
      <trkpt lat="44.39526" lon="6.48233">
        <ele>978.3</ele>
        <time>2018-08-05T05:44:48Z</time>
      </trkpt>
      <trkpt lat="44.39523" lon="6.48226">
        <ele>978.4</ele>
        <time>2018-08-05T05:44:49Z</time>
      </trkpt>
      <trkpt lat="44.39521" lon="6.4822">
        <ele>978.4</ele>
        <time>2018-08-05T05:44:50Z</time>
      </trkpt>
      <trkpt lat="44.39518" lon="6.48212">
        <ele>978.5</ele>
        <time>2018-08-05T05:44:51Z</time>
      </trkpt>
      <trkpt lat="44.39516" lon="6.48204">
        <ele>978.6</ele>
        <time>2018-08-05T05:44:52Z</time>
      </trkpt>
      <trkpt lat="44.39512" lon="6.48198">
        <ele>978.7</ele>
        <time>2018-08-05T05:44:53Z</time>
      </trkpt>
      <trkpt lat="44.39509" lon="6.48192">
        <ele>978.7</ele>
        <time>2018-08-05T05:44:54Z</time>
      </trkpt>
      <trkpt lat="44.39506" lon="6.48186">
        <ele>978.8</ele>
        <time>2018-08-05T05:44:55Z</time>
      </trkpt>
      <trkpt lat="44.39505" lon="6.48179">
        <ele>978.8</ele>
        <time>2018-08-05T05:44:56Z</time>
      </trkpt>
      <trkpt lat="44.39503" lon="6.48173">
        <ele>978.9</ele>
        <time>2018-08-05T05:44:57Z</time>
      </trkpt>
      <trkpt lat="44.39501" lon="6.48168">
        <ele>978.9</ele>
        <time>2018-08-05T05:44:58Z</time>
      </trkpt>
      <trkpt lat="44.395" lon="6.48162">
        <ele>979.7</ele>
        <time>2018-08-05T05:44:59Z</time>
      </trkpt>
      <trkpt lat="44.39499" lon="6.48155">
        <ele>981.1</ele>
        <time>2018-08-05T05:45:00Z</time>
      </trkpt>
      <trkpt lat="44.395" lon="6.48149">
        <ele>982.3</ele>
        <time>2018-08-05T05:45:01Z</time>
      </trkpt>
      <trkpt lat="44.39499" lon="6.48144">
        <ele>983.3</ele>
        <time>2018-08-05T05:45:02Z</time>
      </trkpt>
      <trkpt lat="44.39499" lon="6.48138">
        <ele>984.4</ele>
        <time>2018-08-05T05:45:03Z</time>
      </trkpt>
      <trkpt lat="44.39499" lon="6.48131">
        <ele>985.6</ele>
        <time>2018-08-05T05:45:04Z</time>
      </trkpt>
      <trkpt lat="44.39498" lon="6.48126">
        <ele>986.5</ele>
        <time>2018-08-05T05:45:05Z</time>
      </trkpt>
      <trkpt lat="44.39498" lon="6.4812">
        <ele>987.4</ele>
        <time>2018-08-05T05:45:06Z</time>
      </trkpt>
      <trkpt lat="44.39499" lon="6.48114">
        <ele>988.4</ele>
        <time>2018-08-05T05:45:07Z</time>
      </trkpt>
      <trkpt lat="44.39499" lon="6.48107">
        <ele>989.4</ele>
        <time>2018-08-05T05:45:08Z</time>
      </trkpt>
      <trkpt lat="44.39499" lon="6.48099">
        <ele>990.6</ele>
        <time>2018-08-05T05:45:09Z</time>
      </trkpt>
      <trkpt lat="44.39499" lon="6.48093">
        <ele>991.6</ele>
        <time>2018-08-05T05:45:10Z</time>
      </trkpt>
      <trkpt lat="44.395" lon="6.48085">
        <ele>992.7</ele>
        <time>2018-08-05T05:45:11Z</time>
      </trkpt>
      <trkpt lat="44.39501" lon="6.48079">
        <ele>993.6</ele>
        <time>2018-08-05T05:45:12Z</time>
      </trkpt>
      <trkpt lat="44.39503" lon="6.48072">
        <ele>994.7</ele>
        <time>2018-08-05T05:45:13Z</time>
      </trkpt>
      <trkpt lat="44.39504" lon="6.48065">
        <ele>993</ele>
        <time>2018-08-05T05:45:14Z</time>
      </trkpt>
      <trkpt lat="44.39506" lon="6.48059">
        <ele>991.2</ele>
        <time>2018-08-05T05:45:15Z</time>
      </trkpt>
      <trkpt lat="44.39508" lon="6.48053">
        <ele>989.3</ele>
        <time>2018-08-05T05:45:16Z</time>
      </trkpt>
      <trkpt lat="44.3951" lon="6.48047">
        <ele>987.6</ele>
        <time>2018-08-05T05:45:17Z</time>
      </trkpt>
      <trkpt lat="44.39513" lon="6.48041">
        <ele>985.4</ele>
        <time>2018-08-05T05:45:18Z</time>
      </trkpt>
      <trkpt lat="44.39515" lon="6.48036">
        <ele>983.7</ele>
        <time>2018-08-05T05:45:19Z</time>
      </trkpt>
      <trkpt lat="44.39518" lon="6.48031">
        <ele>982.1</ele>
        <time>2018-08-05T05:45:20Z</time>
      </trkpt>
      <trkpt lat="44.3952" lon="6.48027">
        <ele>980.6</ele>
        <time>2018-08-05T05:45:21Z</time>
      </trkpt>
      <trkpt lat="44.39523" lon="6.48023">
        <ele>981.1</ele>
        <time>2018-08-05T05:45:22Z</time>
      </trkpt>
      <trkpt lat="44.39526" lon="6.48019">
        <ele>982.1</ele>
        <time>2018-08-05T05:45:23Z</time>
      </trkpt>
      <trkpt lat="44.39528" lon="6.48014">
        <ele>983</ele>
        <time>2018-08-05T05:45:24Z</time>
      </trkpt>
      <trkpt lat="44.39531" lon="6.48009">
        <ele>984</ele>
        <time>2018-08-05T05:45:25Z</time>
      </trkpt>
      <trkpt lat="44.39534" lon="6.48004">
        <ele>984.9</ele>
        <time>2018-08-05T05:45:26Z</time>
      </trkpt>
      <trkpt lat="44.39537" lon="6.48">
        <ele>985.8</ele>
        <time>2018-08-05T05:45:27Z</time>
      </trkpt>
      <trkpt lat="44.39541" lon="6.47995">
        <ele>986.7</ele>
        <time>2018-08-05T05:45:28Z</time>
      </trkpt>
      <trkpt lat="44.39544" lon="6.47989">
        <ele>987.6</ele>
        <time>2018-08-05T05:45:29Z</time>
      </trkpt>
      <trkpt lat="44.39547" lon="6.47984">
        <ele>988.5</ele>
        <time>2018-08-05T05:45:30Z</time>
      </trkpt>
      <trkpt lat="44.3955" lon="6.47979">
        <ele>989.3</ele>
        <time>2018-08-05T05:45:31Z</time>
      </trkpt>
      <trkpt lat="44.39553" lon="6.47973">
        <ele>990.2</ele>
        <time>2018-08-05T05:45:32Z</time>
      </trkpt>
      <trkpt lat="44.39555" lon="6.47966">
        <ele>991.1</ele>
        <time>2018-08-05T05:45:33Z</time>
      </trkpt>
      <trkpt lat="44.39559" lon="6.47961">
        <ele>992.1</ele>
        <time>2018-08-05T05:45:34Z</time>
      </trkpt>
      <trkpt lat="44.39562" lon="6.47956">
        <ele>993</ele>
        <time>2018-08-05T05:45:35Z</time>
      </trkpt>
      <trkpt lat="44.39565" lon="6.47951">
        <ele>993.8</ele>
        <time>2018-08-05T05:45:36Z</time>
      </trkpt>
      <trkpt lat="44.39568" lon="6.47945">
        <ele>994.9</ele>
        <time>2018-08-05T05:45:37Z</time>
      </trkpt>
      <trkpt lat="44.39571" lon="6.47939">
        <ele>995.7</ele>
        <time>2018-08-05T05:45:38Z</time>
      </trkpt>
      <trkpt lat="44.39575" lon="6.47934">
        <ele>996</ele>
        <time>2018-08-05T05:45:39Z</time>
      </trkpt>
      <trkpt lat="44.39578" lon="6.47928">
        <ele>996.1</ele>
        <time>2018-08-05T05:45:40Z</time>
      </trkpt>
      <trkpt lat="44.3958" lon="6.47922">
        <ele>996.2</ele>
        <time>2018-08-05T05:45:41Z</time>
      </trkpt>
      <trkpt lat="44.39584" lon="6.47918">
        <ele>996.2</ele>
        <time>2018-08-05T05:45:42Z</time>
      </trkpt>
      <trkpt lat="44.39586" lon="6.47912">
        <ele>996.3</ele>
        <time>2018-08-05T05:45:43Z</time>
      </trkpt>
      <trkpt lat="44.3959" lon="6.47908">
        <ele>996.4</ele>
        <time>2018-08-05T05:45:44Z</time>
      </trkpt>
      <trkpt lat="44.39592" lon="6.47902">
        <ele>996.4</ele>
        <time>2018-08-05T05:45:45Z</time>
      </trkpt>
      <trkpt lat="44.39595" lon="6.47897">
        <ele>996.5</ele>
        <time>2018-08-05T05:45:46Z</time>
      </trkpt>
      <trkpt lat="44.39599" lon="6.47891">
        <ele>996.6</ele>
        <time>2018-08-05T05:45:47Z</time>
      </trkpt>
      <trkpt lat="44.39603" lon="6.47885">
        <ele>996.7</ele>
        <time>2018-08-05T05:45:48Z</time>
      </trkpt>
      <trkpt lat="44.39606" lon="6.47879">
        <ele>996.9</ele>
        <time>2018-08-05T05:45:49Z</time>
      </trkpt>
      <trkpt lat="44.39609" lon="6.47875">
        <ele>997</ele>
        <time>2018-08-05T05:45:50Z</time>
      </trkpt>
      <trkpt lat="44.39613" lon="6.4787">
        <ele>997.2</ele>
        <time>2018-08-05T05:45:51Z</time>
      </trkpt>
      <trkpt lat="44.39616" lon="6.47867">
        <ele>997.3</ele>
        <time>2018-08-05T05:45:52Z</time>
      </trkpt>
      <trkpt lat="44.39618" lon="6.47863">
        <ele>997.6</ele>
        <time>2018-08-05T05:45:53Z</time>
      </trkpt>
      <trkpt lat="44.39621" lon="6.4786">
        <ele>997.9</ele>
        <time>2018-08-05T05:45:54Z</time>
      </trkpt>
      <trkpt lat="44.39624" lon="6.47857">
        <ele>998.2</ele>
        <time>2018-08-05T05:45:55Z</time>
      </trkpt>
      <trkpt lat="44.39628" lon="6.47854">
        <ele>998.8</ele>
        <time>2018-08-05T05:45:56Z</time>
      </trkpt>
      <trkpt lat="44.39631" lon="6.4785">
        <ele>999.5</ele>
        <time>2018-08-05T05:45:57Z</time>
      </trkpt>
      <trkpt lat="44.39634" lon="6.47847">
        <ele>1000.1</ele>
        <time>2018-08-05T05:45:58Z</time>
      </trkpt>
      <trkpt lat="44.39637" lon="6.47844">
        <ele>1000.5</ele>
        <time>2018-08-05T05:45:59Z</time>
      </trkpt>
      <trkpt lat="44.3964" lon="6.4784">
        <ele>1000.9</ele>
        <time>2018-08-05T05:46:00Z</time>
      </trkpt>
      <trkpt lat="44.39643" lon="6.47837">
        <ele>1001.3</ele>
        <time>2018-08-05T05:46:01Z</time>
      </trkpt>
      <trkpt lat="44.39645" lon="6.47833">
        <ele>1001.8</ele>
        <time>2018-08-05T05:46:02Z</time>
      </trkpt>
      <trkpt lat="44.39648" lon="6.4783">
        <ele>1002.5</ele>
        <time>2018-08-05T05:46:03Z</time>
      </trkpt>
      <trkpt lat="44.39649" lon="6.47827">
        <ele>1003.1</ele>
        <time>2018-08-05T05:46:04Z</time>
      </trkpt>
      <trkpt lat="44.39649" lon="6.47823">
        <ele>1003.7</ele>
        <time>2018-08-05T05:46:05Z</time>
      </trkpt>
      <trkpt lat="44.39648" lon="6.47817">
        <ele>1004.3</ele>
        <time>2018-08-05T05:46:07Z</time>
      </trkpt>
      <trkpt lat="44.39645" lon="6.47814">
        <ele>1005.3</ele>
        <time>2018-08-05T05:46:09Z</time>
      </trkpt>
      <trkpt lat="44.3964" lon="6.47813">
        <ele>1006.3</ele>
        <time>2018-08-05T05:46:11Z</time>
      </trkpt>
      <trkpt lat="44.39636" lon="6.47815">
        <ele>1006.9</ele>
        <time>2018-08-05T05:46:13Z</time>
      </trkpt>
      <trkpt lat="44.39633" lon="6.47818">
        <ele>1007.2</ele>
        <time>2018-08-05T05:46:15Z</time>
      </trkpt>
      <trkpt lat="44.39629" lon="6.4782">
        <ele>1007.5</ele>
        <time>2018-08-05T05:46:17Z</time>
      </trkpt>
      <trkpt lat="44.39626" lon="6.47823">
        <ele>1007.8</ele>
        <time>2018-08-05T05:46:19Z</time>
      </trkpt>
      <trkpt lat="44.39621" lon="6.47823">
        <ele>1008.1</ele>
        <time>2018-08-05T05:46:21Z</time>
      </trkpt>
      <trkpt lat="44.39618" lon="6.47825">
        <ele>1008.4</ele>
        <time>2018-08-05T05:46:23Z</time>
      </trkpt>
      <trkpt lat="44.39614" lon="6.47826">
        <ele>1008.6</ele>
        <time>2018-08-05T05:46:25Z</time>
      </trkpt>
      <trkpt lat="44.39611" lon="6.47827">
        <ele>1008.9</ele>
        <time>2018-08-05T05:46:27Z</time>
      </trkpt>
      <trkpt lat="44.39607" lon="6.47827">
        <ele>1009</ele>
        <time>2018-08-05T05:46:29Z</time>
      </trkpt>
      <trkpt lat="44.39602" lon="6.47827">
        <ele>1009</ele>
        <time>2018-08-05T05:46:31Z</time>
      </trkpt>
      <trkpt lat="44.39597" lon="6.47826">
        <ele>1009</ele>
        <time>2018-08-05T05:46:33Z</time>
      </trkpt>
      <trkpt lat="44.39594" lon="6.47827">
        <ele>1009</ele>
        <time>2018-08-05T05:46:35Z</time>
      </trkpt>
      <trkpt lat="44.39592" lon="6.47824">
        <ele>1009</ele>
        <time>2018-08-05T05:46:40Z</time>
      </trkpt>
      <trkpt lat="44.3959" lon="6.47827">
        <ele>1009</ele>
        <time>2018-08-05T05:47:48Z</time>
      </trkpt>
      <trkpt lat="44.39592" lon="6.47829">
        <ele>1009</ele>
        <time>2018-08-05T05:47:56Z</time>
      </trkpt>
      <trkpt lat="44.39593" lon="6.47825">
        <ele>1009.8</ele>
        <time>2018-08-05T05:48:03Z</time>
      </trkpt>
      <trkpt lat="44.3959" lon="6.47823">
        <ele>1010.6</ele>
        <time>2018-08-05T05:48:38Z</time>
      </trkpt>
      <trkpt lat="44.39587" lon="6.47823">
        <ele>1011.2</ele>
        <time>2018-08-05T05:48:40Z</time>
      </trkpt>
      <trkpt lat="44.39585" lon="6.47825">
        <ele>1011.4</ele>
        <time>2018-08-05T05:48:42Z</time>
      </trkpt>
      <trkpt lat="44.39583" lon="6.47827">
        <ele>1011.7</ele>
        <time>2018-08-05T05:48:44Z</time>
      </trkpt>
      <trkpt lat="44.39581" lon="6.47833">
        <ele>1012.1</ele>
        <time>2018-08-05T05:48:47Z</time>
      </trkpt>
      <trkpt lat="44.39579" lon="6.47837">
        <ele>1012.9</ele>
        <time>2018-08-05T05:48:49Z</time>
      </trkpt>
      <trkpt lat="44.39575" lon="6.47842">
        <ele>1013.5</ele>
        <time>2018-08-05T05:48:51Z</time>
      </trkpt>
      <trkpt lat="44.39572" lon="6.47846">
        <ele>1013.8</ele>
        <time>2018-08-05T05:48:53Z</time>
      </trkpt>
      <trkpt lat="44.39569" lon="6.47848">
        <ele>1014</ele>
        <time>2018-08-05T05:48:54Z</time>
      </trkpt>
      <trkpt lat="44.39566" lon="6.47851">
        <ele>1014.3</ele>
        <time>2018-08-05T05:48:56Z</time>
      </trkpt>
      <trkpt lat="44.39562" lon="6.47855">
        <ele>1014.6</ele>
        <time>2018-08-05T05:48:58Z</time>
      </trkpt>
      <trkpt lat="44.39559" lon="6.47858">
        <ele>1014.8</ele>
        <time>2018-08-05T05:49:00Z</time>
      </trkpt>
      <trkpt lat="44.39556" lon="6.47861">
        <ele>1015.5</ele>
        <time>2018-08-05T05:49:02Z</time>
      </trkpt>
      <trkpt lat="44.39553" lon="6.47865">
        <ele>1016.1</ele>
        <time>2018-08-05T05:49:04Z</time>
      </trkpt>
      <trkpt lat="44.3955" lon="6.47867">
        <ele>1016.4</ele>
        <time>2018-08-05T05:49:06Z</time>
      </trkpt>
      <trkpt lat="44.39548" lon="6.4787">
        <ele>1016.6</ele>
        <time>2018-08-05T05:49:08Z</time>
      </trkpt>
      <trkpt lat="44.39544" lon="6.47872">
        <ele>1016.9</ele>
        <time>2018-08-05T05:49:10Z</time>
      </trkpt>
      <trkpt lat="44.39541" lon="6.47875">
        <ele>1017.3</ele>
        <time>2018-08-05T05:49:12Z</time>
      </trkpt>
      <trkpt lat="44.39537" lon="6.47877">
        <ele>1017.9</ele>
        <time>2018-08-05T05:49:14Z</time>
      </trkpt>
      <trkpt lat="44.39534" lon="6.4788">
        <ele>1018.8</ele>
        <time>2018-08-05T05:49:16Z</time>
      </trkpt>
      <trkpt lat="44.39531" lon="6.47882">
        <ele>1019.3</ele>
        <time>2018-08-05T05:49:18Z</time>
      </trkpt>
      <trkpt lat="44.39528" lon="6.47883">
        <ele>1019.6</ele>
        <time>2018-08-05T05:49:20Z</time>
      </trkpt>
      <trkpt lat="44.39524" lon="6.47883">
        <ele>1019.9</ele>
        <time>2018-08-05T05:49:22Z</time>
      </trkpt>
      <trkpt lat="44.39521" lon="6.47885">
        <ele>1020.5</ele>
        <time>2018-08-05T05:49:24Z</time>
      </trkpt>
      <trkpt lat="44.39517" lon="6.47887">
        <ele>1021.2</ele>
        <time>2018-08-05T05:49:26Z</time>
      </trkpt>
      <trkpt lat="44.39514" lon="6.47888">
        <ele>1021.4</ele>
        <time>2018-08-05T05:49:28Z</time>
      </trkpt>
      <trkpt lat="44.39511" lon="6.47887">
        <ele>1021.7</ele>
        <time>2018-08-05T05:49:30Z</time>
      </trkpt>
      <trkpt lat="44.39508" lon="6.47888">
        <ele>1021.9</ele>
        <time>2018-08-05T05:49:32Z</time>
      </trkpt>
      <trkpt lat="44.39505" lon="6.4789">
        <ele>1022.1</ele>
        <time>2018-08-05T05:49:34Z</time>
      </trkpt>
      <trkpt lat="44.395" lon="6.47891">
        <ele>1022.6</ele>
        <time>2018-08-05T05:49:37Z</time>
      </trkpt>
      <trkpt lat="44.39497" lon="6.47891">
        <ele>1022.8</ele>
        <time>2018-08-05T05:49:39Z</time>
      </trkpt>
      <trkpt lat="44.39494" lon="6.47891">
        <ele>1023.2</ele>
        <time>2018-08-05T05:49:40Z</time>
      </trkpt>
      <trkpt lat="44.3949" lon="6.47891">
        <ele>1023.8</ele>
        <time>2018-08-05T05:49:42Z</time>
      </trkpt>
      <trkpt lat="44.39487" lon="6.47892">
        <ele>1024</ele>
        <time>2018-08-05T05:49:44Z</time>
      </trkpt>
      <trkpt lat="44.39483" lon="6.47891">
        <ele>1024.4</ele>
        <time>2018-08-05T05:49:46Z</time>
      </trkpt>
      <trkpt lat="44.3948" lon="6.47891">
        <ele>1024.6</ele>
        <time>2018-08-05T05:49:49Z</time>
      </trkpt>
      <trkpt lat="44.39477" lon="6.47891">
        <ele>1024.8</ele>
        <time>2018-08-05T05:49:51Z</time>
      </trkpt>
      <trkpt lat="44.39474" lon="6.47893">
        <ele>1025.4</ele>
        <time>2018-08-05T05:49:53Z</time>
      </trkpt>
      <trkpt lat="44.3947" lon="6.47892">
        <ele>1026.1</ele>
        <time>2018-08-05T05:49:55Z</time>
      </trkpt>
      <trkpt lat="44.39467" lon="6.47893">
        <ele>1027</ele>
        <time>2018-08-05T05:49:57Z</time>
      </trkpt>
      <trkpt lat="44.39464" lon="6.47893">
        <ele>1027.3</ele>
        <time>2018-08-05T05:49:58Z</time>
      </trkpt>
      <trkpt lat="44.3946" lon="6.47895">
        <ele>1027.8</ele>
        <time>2018-08-05T05:50:01Z</time>
      </trkpt>
      <trkpt lat="44.39457" lon="6.47898">
        <ele>1028.5</ele>
        <time>2018-08-05T05:50:04Z</time>
      </trkpt>
      <trkpt lat="44.39453" lon="6.47898">
        <ele>1029.4</ele>
        <time>2018-08-05T05:50:06Z</time>
      </trkpt>
      <trkpt lat="44.39448" lon="6.47901">
        <ele>1030</ele>
        <time>2018-08-05T05:50:08Z</time>
      </trkpt>
      <trkpt lat="44.39445" lon="6.47902">
        <ele>1030.4</ele>
        <time>2018-08-05T05:50:10Z</time>
      </trkpt>
      <trkpt lat="44.39442" lon="6.47905">
        <ele>1030.6</ele>
        <time>2018-08-05T05:50:11Z</time>
      </trkpt>
      <trkpt lat="44.3944" lon="6.47906">
        <ele>1030.9</ele>
        <time>2018-08-05T05:50:12Z</time>
      </trkpt>
      <trkpt lat="44.39437" lon="6.47908">
        <ele>1031.3</ele>
        <time>2018-08-05T05:50:13Z</time>
      </trkpt>
      <trkpt lat="44.39435" lon="6.47912">
        <ele>1032</ele>
        <time>2018-08-05T05:50:15Z</time>
      </trkpt>
      <trkpt lat="44.39431" lon="6.47914">
        <ele>1032.5</ele>
        <time>2018-08-05T05:50:17Z</time>
      </trkpt>
      <trkpt lat="44.39429" lon="6.47916">
        <ele>1032.8</ele>
        <time>2018-08-05T05:50:18Z</time>
      </trkpt>
      <trkpt lat="44.39425" lon="6.4792">
        <ele>1033.2</ele>
        <time>2018-08-05T05:50:21Z</time>
      </trkpt>
      <trkpt lat="44.39423" lon="6.47923">
        <ele>1033.7</ele>
        <time>2018-08-05T05:50:23Z</time>
      </trkpt>
      <trkpt lat="44.3942" lon="6.47928">
        <ele>1034.7</ele>
        <time>2018-08-05T05:50:25Z</time>
      </trkpt>
      <trkpt lat="44.39417" lon="6.47931">
        <ele>1035.3</ele>
        <time>2018-08-05T05:50:27Z</time>
      </trkpt>
      <trkpt lat="44.39414" lon="6.47935">
        <ele>1035.6</ele>
        <time>2018-08-05T05:50:29Z</time>
      </trkpt>
      <trkpt lat="44.39412" lon="6.4794">
        <ele>1036</ele>
        <time>2018-08-05T05:50:31Z</time>
      </trkpt>
      <trkpt lat="44.39409" lon="6.47942">
        <ele>1036.5</ele>
        <time>2018-08-05T05:50:32Z</time>
      </trkpt>
      <trkpt lat="44.39405" lon="6.47944">
        <ele>1037.3</ele>
        <time>2018-08-05T05:50:34Z</time>
      </trkpt>
      <trkpt lat="44.39403" lon="6.47948">
        <ele>1037.6</ele>
        <time>2018-08-05T05:50:36Z</time>
      </trkpt>
      <trkpt lat="44.39399" lon="6.47952">
        <ele>1037.8</ele>
        <time>2018-08-05T05:50:38Z</time>
      </trkpt>
      <trkpt lat="44.39397" lon="6.47956">
        <ele>1038</ele>
        <time>2018-08-05T05:50:40Z</time>
      </trkpt>
      <trkpt lat="44.39394" lon="6.47959">
        <ele>1038.1</ele>
        <time>2018-08-05T05:50:42Z</time>
      </trkpt>
      <trkpt lat="44.39392" lon="6.47961">
        <ele>1038.3</ele>
        <time>2018-08-05T05:50:44Z</time>
      </trkpt>
      <trkpt lat="44.39389" lon="6.47963">
        <ele>1038.5</ele>
        <time>2018-08-05T05:50:46Z</time>
      </trkpt>
      <trkpt lat="44.39387" lon="6.47967">
        <ele>1038.9</ele>
        <time>2018-08-05T05:50:48Z</time>
      </trkpt>
      <trkpt lat="44.39384" lon="6.47971">
        <ele>1039.2</ele>
        <time>2018-08-05T05:50:50Z</time>
      </trkpt>
      <trkpt lat="44.39382" lon="6.47973">
        <ele>1039.7</ele>
        <time>2018-08-05T05:50:52Z</time>
      </trkpt>
      <trkpt lat="44.39379" lon="6.47977">
        <ele>1040.3</ele>
        <time>2018-08-05T05:50:54Z</time>
      </trkpt>
      <trkpt lat="44.39375" lon="6.47979">
        <ele>1040.6</ele>
        <time>2018-08-05T05:50:56Z</time>
      </trkpt>
      <trkpt lat="44.39372" lon="6.47981">
        <ele>1040.7</ele>
        <time>2018-08-05T05:50:58Z</time>
      </trkpt>
      <trkpt lat="44.39369" lon="6.47982">
        <ele>1040.9</ele>
        <time>2018-08-05T05:51:00Z</time>
      </trkpt>
      <trkpt lat="44.39366" lon="6.47982">
        <ele>1041.1</ele>
        <time>2018-08-05T05:51:02Z</time>
      </trkpt>
      <trkpt lat="44.39362" lon="6.47984">
        <ele>1041.2</ele>
        <time>2018-08-05T05:51:05Z</time>
      </trkpt>
      <trkpt lat="44.39359" lon="6.47984">
        <ele>1041.4</ele>
        <time>2018-08-05T05:51:07Z</time>
      </trkpt>
      <trkpt lat="44.39356" lon="6.47985">
        <ele>1041.8</ele>
        <time>2018-08-05T05:51:09Z</time>
      </trkpt>
      <trkpt lat="44.39353" lon="6.47985">
        <ele>1042.1</ele>
        <time>2018-08-05T05:51:11Z</time>
      </trkpt>
      <trkpt lat="44.3935" lon="6.47986">
        <ele>1042.4</ele>
        <time>2018-08-05T05:51:13Z</time>
      </trkpt>
      <trkpt lat="44.39347" lon="6.47986">
        <ele>1042.6</ele>
        <time>2018-08-05T05:51:15Z</time>
      </trkpt>
      <trkpt lat="44.39343" lon="6.47985">
        <ele>1042.8</ele>
        <time>2018-08-05T05:51:17Z</time>
      </trkpt>
      <trkpt lat="44.3934" lon="6.47985">
        <ele>1042.9</ele>
        <time>2018-08-05T05:51:19Z</time>
      </trkpt>
      <trkpt lat="44.39337" lon="6.47985">
        <ele>1043.2</ele>
        <time>2018-08-05T05:51:21Z</time>
      </trkpt>
      <trkpt lat="44.39334" lon="6.47984">
        <ele>1043.6</ele>
        <time>2018-08-05T05:51:23Z</time>
      </trkpt>
      <trkpt lat="44.39331" lon="6.47984">
        <ele>1044.1</ele>
        <time>2018-08-05T05:51:25Z</time>
      </trkpt>
      <trkpt lat="44.39327" lon="6.47983">
        <ele>1044.3</ele>
        <time>2018-08-05T05:51:27Z</time>
      </trkpt>
      <trkpt lat="44.39323" lon="6.47983">
        <ele>1044.5</ele>
        <time>2018-08-05T05:51:29Z</time>
      </trkpt>
      <trkpt lat="44.3932" lon="6.47983">
        <ele>1044.7</ele>
        <time>2018-08-05T05:51:31Z</time>
      </trkpt>
      <trkpt lat="44.39316" lon="6.47982">
        <ele>1045.2</ele>
        <time>2018-08-05T05:51:33Z</time>
      </trkpt>
      <trkpt lat="44.39314" lon="6.4798">
        <ele>1045.6</ele>
        <time>2018-08-05T05:51:35Z</time>
      </trkpt>
      <trkpt lat="44.39309" lon="6.47979">
        <ele>1045.9</ele>
        <time>2018-08-05T05:51:37Z</time>
      </trkpt>
      <trkpt lat="44.39306" lon="6.47979">
        <ele>1046.1</ele>
        <time>2018-08-05T05:51:39Z</time>
      </trkpt>
      <trkpt lat="44.39303" lon="6.47977">
        <ele>1046.3</ele>
        <time>2018-08-05T05:51:41Z</time>
      </trkpt>
      <trkpt lat="44.393" lon="6.47975">
        <ele>1046.7</ele>
        <time>2018-08-05T05:51:43Z</time>
      </trkpt>
      <trkpt lat="44.39295" lon="6.47974">
        <ele>1047.3</ele>
        <time>2018-08-05T05:51:45Z</time>
      </trkpt>
      <trkpt lat="44.39291" lon="6.47972">
        <ele>1047.8</ele>
        <time>2018-08-05T05:51:47Z</time>
      </trkpt>
      <trkpt lat="44.39288" lon="6.47971">
        <ele>1048.1</ele>
        <time>2018-08-05T05:51:49Z</time>
      </trkpt>
      <trkpt lat="44.39284" lon="6.4797">
        <ele>1048.4</ele>
        <time>2018-08-05T05:51:51Z</time>
      </trkpt>
      <trkpt lat="44.39282" lon="6.47969">
        <ele>1048.9</ele>
        <time>2018-08-05T05:51:53Z</time>
      </trkpt>
      <trkpt lat="44.39278" lon="6.47966">
        <ele>1049.2</ele>
        <time>2018-08-05T05:51:55Z</time>
      </trkpt>
      <trkpt lat="44.39276" lon="6.47963">
        <ele>1049.3</ele>
        <time>2018-08-05T05:51:57Z</time>
      </trkpt>
      <trkpt lat="44.39272" lon="6.47961">
        <ele>1049.6</ele>
        <time>2018-08-05T05:51:59Z</time>
      </trkpt>
      <trkpt lat="44.39269" lon="6.47958">
        <ele>1049.9</ele>
        <time>2018-08-05T05:52:01Z</time>
      </trkpt>
      <trkpt lat="44.39266" lon="6.47956">
        <ele>1050.4</ele>
        <time>2018-08-05T05:52:03Z</time>
      </trkpt>
      <trkpt lat="44.39263" lon="6.47954">
        <ele>1051</ele>
        <time>2018-08-05T05:52:05Z</time>
      </trkpt>
      <trkpt lat="44.39259" lon="6.47951">
        <ele>1051.3</ele>
        <time>2018-08-05T05:52:07Z</time>
      </trkpt>
      <trkpt lat="44.39256" lon="6.47949">
        <ele>1051.5</ele>
        <time>2018-08-05T05:52:09Z</time>
      </trkpt>
      <trkpt lat="44.39253" lon="6.47948">
        <ele>1052</ele>
        <time>2018-08-05T05:52:11Z</time>
      </trkpt>
      <trkpt lat="44.39249" lon="6.47945">
        <ele>1052.3</ele>
        <time>2018-08-05T05:52:13Z</time>
      </trkpt>
      <trkpt lat="44.39246" lon="6.47943">
        <ele>1052.4</ele>
        <time>2018-08-05T05:52:15Z</time>
      </trkpt>
      <trkpt lat="44.39243" lon="6.47939">
        <ele>1052.5</ele>
        <time>2018-08-05T05:52:17Z</time>
      </trkpt>
      <trkpt lat="44.39239" lon="6.47937">
        <ele>1052.6</ele>
        <time>2018-08-05T05:52:19Z</time>
      </trkpt>
      <trkpt lat="44.39236" lon="6.47935">
        <ele>1052.6</ele>
        <time>2018-08-05T05:52:21Z</time>
      </trkpt>
      <trkpt lat="44.39234" lon="6.47933">
        <ele>1052.7</ele>
        <time>2018-08-05T05:52:23Z</time>
      </trkpt>
      <trkpt lat="44.39231" lon="6.47928">
        <ele>1052.8</ele>
        <time>2018-08-05T05:52:25Z</time>
      </trkpt>
      <trkpt lat="44.3923" lon="6.47924">
        <ele>1053</ele>
        <time>2018-08-05T05:52:27Z</time>
      </trkpt>
      <trkpt lat="44.39229" lon="6.47919">
        <ele>1053.4</ele>
        <time>2018-08-05T05:52:29Z</time>
      </trkpt>
      <trkpt lat="44.39228" lon="6.47915">
        <ele>1053.7</ele>
        <time>2018-08-05T05:52:31Z</time>
      </trkpt>
      <trkpt lat="44.39227" lon="6.4791">
        <ele>1054</ele>
        <time>2018-08-05T05:52:34Z</time>
      </trkpt>
      <trkpt lat="44.39226" lon="6.47905">
        <ele>1054.2</ele>
        <time>2018-08-05T05:52:37Z</time>
      </trkpt>
      <trkpt lat="44.39224" lon="6.479">
        <ele>1054.4</ele>
        <time>2018-08-05T05:52:39Z</time>
      </trkpt>
      <trkpt lat="44.39222" lon="6.47896">
        <ele>1054.7</ele>
        <time>2018-08-05T05:52:41Z</time>
      </trkpt>
      <trkpt lat="44.39218" lon="6.47893">
        <ele>1055.3</ele>
        <time>2018-08-05T05:52:43Z</time>
      </trkpt>
      <trkpt lat="44.39216" lon="6.47888">
        <ele>1055.8</ele>
        <time>2018-08-05T05:52:45Z</time>
      </trkpt>
      <trkpt lat="44.39214" lon="6.47883">
        <ele>1056.2</ele>
        <time>2018-08-05T05:52:47Z</time>
      </trkpt>
      <trkpt lat="44.39212" lon="6.47879">
        <ele>1056.8</ele>
        <time>2018-08-05T05:52:49Z</time>
      </trkpt>
      <trkpt lat="44.3921" lon="6.47875">
        <ele>1057.3</ele>
        <time>2018-08-05T05:52:51Z</time>
      </trkpt>
      <trkpt lat="44.39207" lon="6.4787">
        <ele>1057.6</ele>
        <time>2018-08-05T05:52:53Z</time>
      </trkpt>
      <trkpt lat="44.39205" lon="6.47868">
        <ele>1057.9</ele>
        <time>2018-08-05T05:52:55Z</time>
      </trkpt>
      <trkpt lat="44.39203" lon="6.47865">
        <ele>1058.2</ele>
        <time>2018-08-05T05:52:57Z</time>
      </trkpt>
      <trkpt lat="44.392" lon="6.47861">
        <ele>1058.8</ele>
        <time>2018-08-05T05:52:59Z</time>
      </trkpt>
      <trkpt lat="44.39197" lon="6.47856">
        <ele>1059.2</ele>
        <time>2018-08-05T05:53:01Z</time>
      </trkpt>
      <trkpt lat="44.39196" lon="6.47851">
        <ele>1059.4</ele>
        <time>2018-08-05T05:53:03Z</time>
      </trkpt>
      <trkpt lat="44.39195" lon="6.47846">
        <ele>1059.6</ele>
        <time>2018-08-05T05:53:05Z</time>
      </trkpt>
      <trkpt lat="44.39194" lon="6.47842">
        <ele>1059.9</ele>
        <time>2018-08-05T05:53:07Z</time>
      </trkpt>
      <trkpt lat="44.39191" lon="6.47838">
        <ele>1060.4</ele>
        <time>2018-08-05T05:53:09Z</time>
      </trkpt>
      <trkpt lat="44.39187" lon="6.47835">
        <ele>1060.7</ele>
        <time>2018-08-05T05:53:11Z</time>
      </trkpt>
      <trkpt lat="44.39184" lon="6.47832">
        <ele>1061</ele>
        <time>2018-08-05T05:53:13Z</time>
      </trkpt>
      <trkpt lat="44.39182" lon="6.47828">
        <ele>1061.1</ele>
        <time>2018-08-05T05:53:15Z</time>
      </trkpt>
      <trkpt lat="44.3918" lon="6.47824">
        <ele>1061.3</ele>
        <time>2018-08-05T05:53:17Z</time>
      </trkpt>
      <trkpt lat="44.39178" lon="6.4782">
        <ele>1061.7</ele>
        <time>2018-08-05T05:53:19Z</time>
      </trkpt>
      <trkpt lat="44.39176" lon="6.47816">
        <ele>1062.2</ele>
        <time>2018-08-05T05:53:21Z</time>
      </trkpt>
      <trkpt lat="44.39173" lon="6.4781">
        <ele>1062.6</ele>
        <time>2018-08-05T05:53:23Z</time>
      </trkpt>
      <trkpt lat="44.3917" lon="6.47808">
        <ele>1062.8</ele>
        <time>2018-08-05T05:53:25Z</time>
      </trkpt>
      <trkpt lat="44.39168" lon="6.47805">
        <ele>1062.9</ele>
        <time>2018-08-05T05:53:27Z</time>
      </trkpt>
      <trkpt lat="44.39165" lon="6.478">
        <ele>1063.2</ele>
        <time>2018-08-05T05:53:29Z</time>
      </trkpt>
      <trkpt lat="44.39162" lon="6.47796">
        <ele>1063.7</ele>
        <time>2018-08-05T05:53:32Z</time>
      </trkpt>
      <trkpt lat="44.39159" lon="6.47792">
        <ele>1064.2</ele>
        <time>2018-08-05T05:53:34Z</time>
      </trkpt>
      <trkpt lat="44.39157" lon="6.47788">
        <ele>1064.4</ele>
        <time>2018-08-05T05:53:35Z</time>
      </trkpt>
      <trkpt lat="44.39155" lon="6.47784">
        <ele>1064.7</ele>
        <time>2018-08-05T05:53:37Z</time>
      </trkpt>
      <trkpt lat="44.39152" lon="6.47781">
        <ele>1064.9</ele>
        <time>2018-08-05T05:53:40Z</time>
      </trkpt>
      <trkpt lat="44.39151" lon="6.47775">
        <ele>1065.3</ele>
        <time>2018-08-05T05:56:34Z</time>
      </trkpt>
      <trkpt lat="44.39148" lon="6.47774">
        <ele>1065.7</ele>
        <time>2018-08-05T05:56:48Z</time>
      </trkpt>
      <trkpt lat="44.39146" lon="6.47771">
        <ele>1065.9</ele>
        <time>2018-08-05T05:56:50Z</time>
      </trkpt>
      <trkpt lat="44.39143" lon="6.47767">
        <ele>1066.3</ele>
        <time>2018-08-05T05:56:52Z</time>
      </trkpt>
      <trkpt lat="44.3914" lon="6.47763">
        <ele>1066.5</ele>
        <time>2018-08-05T05:56:54Z</time>
      </trkpt>
      <trkpt lat="44.39137" lon="6.47759">
        <ele>1066.8</ele>
        <time>2018-08-05T05:56:56Z</time>
      </trkpt>
      <trkpt lat="44.39134" lon="6.47754">
        <ele>1067.4</ele>
        <time>2018-08-05T05:56:58Z</time>
      </trkpt>
      <trkpt lat="44.39131" lon="6.4775">
        <ele>1068</ele>
        <time>2018-08-05T05:57:00Z</time>
      </trkpt>
      <trkpt lat="44.39129" lon="6.47746">
        <ele>1068.3</ele>
        <time>2018-08-05T05:57:02Z</time>
      </trkpt>
      <trkpt lat="44.39126" lon="6.47743">
        <ele>1068.6</ele>
        <time>2018-08-05T05:57:04Z</time>
      </trkpt>
      <trkpt lat="44.39123" lon="6.47738">
        <ele>1069.2</ele>
        <time>2018-08-05T05:57:06Z</time>
      </trkpt>
      <trkpt lat="44.3912" lon="6.47734">
        <ele>1069.6</ele>
        <time>2018-08-05T05:57:08Z</time>
      </trkpt>
      <trkpt lat="44.39117" lon="6.47731">
        <ele>1069.8</ele>
        <time>2018-08-05T05:57:10Z</time>
      </trkpt>
      <trkpt lat="44.39115" lon="6.47728">
        <ele>1070</ele>
        <time>2018-08-05T05:57:12Z</time>
      </trkpt>
      <trkpt lat="44.39112" lon="6.47723">
        <ele>1070.7</ele>
        <time>2018-08-05T05:57:14Z</time>
      </trkpt>
      <trkpt lat="44.3911" lon="6.47719">
        <ele>1071.2</ele>
        <time>2018-08-05T05:57:16Z</time>
      </trkpt>
      <trkpt lat="44.39109" lon="6.47715">
        <ele>1071.4</ele>
        <time>2018-08-05T05:57:17Z</time>
      </trkpt>
      <trkpt lat="44.39105" lon="6.47709">
        <ele>1071.7</ele>
        <time>2018-08-05T05:57:19Z</time>
      </trkpt>
      <trkpt lat="44.39102" lon="6.47706">
        <ele>1072</ele>
        <time>2018-08-05T05:57:21Z</time>
      </trkpt>
      <trkpt lat="44.391" lon="6.47703">
        <ele>1072.4</ele>
        <time>2018-08-05T05:57:22Z</time>
      </trkpt>
      <trkpt lat="44.39096" lon="6.47699">
        <ele>1072.9</ele>
        <time>2018-08-05T05:57:24Z</time>
      </trkpt>
      <trkpt lat="44.39094" lon="6.47698">
        <ele>1073</ele>
        <time>2018-08-05T05:57:25Z</time>
      </trkpt>
      <trkpt lat="44.3909" lon="6.47694">
        <ele>1073.3</ele>
        <time>2018-08-05T05:57:27Z</time>
      </trkpt>
      <trkpt lat="44.39086" lon="6.47691">
        <ele>1073.9</ele>
        <time>2018-08-05T05:57:29Z</time>
      </trkpt>
      <trkpt lat="44.39084" lon="6.47688">
        <ele>1074.3</ele>
        <time>2018-08-05T05:57:31Z</time>
      </trkpt>
      <trkpt lat="44.3908" lon="6.47682">
        <ele>1074.5</ele>
        <time>2018-08-05T05:57:33Z</time>
      </trkpt>
      <trkpt lat="44.39076" lon="6.47678">
        <ele>1074.7</ele>
        <time>2018-08-05T05:57:35Z</time>
      </trkpt>
      <trkpt lat="44.39073" lon="6.47674">
        <ele>1074.7</ele>
        <time>2018-08-05T05:57:37Z</time>
      </trkpt>
      <trkpt lat="44.39069" lon="6.47669">
        <ele>1074.8</ele>
        <time>2018-08-05T05:57:39Z</time>
      </trkpt>
      <trkpt lat="44.39067" lon="6.47666">
        <ele>1074.8</ele>
        <time>2018-08-05T05:57:40Z</time>
      </trkpt>
      <trkpt lat="44.39065" lon="6.4766">
        <ele>1074.9</ele>
        <time>2018-08-05T05:57:42Z</time>
      </trkpt>
      <trkpt lat="44.39062" lon="6.47658">
        <ele>1074.9</ele>
        <time>2018-08-05T05:57:43Z</time>
      </trkpt>
      <trkpt lat="44.39061" lon="6.47655">
        <ele>1075</ele>
        <time>2018-08-05T05:57:44Z</time>
      </trkpt>
      <trkpt lat="44.39059" lon="6.47652">
        <ele>1075</ele>
        <time>2018-08-05T05:57:45Z</time>
      </trkpt>
      <trkpt lat="44.39057" lon="6.47648">
        <ele>1075.1</ele>
        <time>2018-08-05T05:57:46Z</time>
      </trkpt>
      <trkpt lat="44.39054" lon="6.47646">
        <ele>1075.2</ele>
        <time>2018-08-05T05:57:47Z</time>
      </trkpt>
      <trkpt lat="44.39051" lon="6.47644">
        <ele>1075.2</ele>
        <time>2018-08-05T05:57:48Z</time>
      </trkpt>
      <trkpt lat="44.39048" lon="6.47642">
        <ele>1075.3</ele>
        <time>2018-08-05T05:57:49Z</time>
      </trkpt>
      <trkpt lat="44.39045" lon="6.47638">
        <ele>1075.5</ele>
        <time>2018-08-05T05:57:51Z</time>
      </trkpt>
      <trkpt lat="44.39041" lon="6.47633">
        <ele>1075.9</ele>
        <time>2018-08-05T05:57:53Z</time>
      </trkpt>
      <trkpt lat="44.39039" lon="6.4763">
        <ele>1076</ele>
        <time>2018-08-05T05:57:54Z</time>
      </trkpt>
      <trkpt lat="44.39035" lon="6.47626">
        <ele>1076.1</ele>
        <time>2018-08-05T05:57:56Z</time>
      </trkpt>
      <trkpt lat="44.39031" lon="6.47623">
        <ele>1076.2</ele>
        <time>2018-08-05T05:57:58Z</time>
      </trkpt>
      <trkpt lat="44.39026" lon="6.47619">
        <ele>1076.3</ele>
        <time>2018-08-05T05:58:00Z</time>
      </trkpt>
      <trkpt lat="44.39023" lon="6.47615">
        <ele>1076.3</ele>
        <time>2018-08-05T05:58:02Z</time>
      </trkpt>
      <trkpt lat="44.39019" lon="6.47611">
        <ele>1076.4</ele>
        <time>2018-08-05T05:58:04Z</time>
      </trkpt>
      <trkpt lat="44.39016" lon="6.47607">
        <ele>1076.5</ele>
        <time>2018-08-05T05:58:06Z</time>
      </trkpt>
      <trkpt lat="44.39012" lon="6.47603">
        <ele>1076.7</ele>
        <time>2018-08-05T05:58:08Z</time>
      </trkpt>
      <trkpt lat="44.39007" lon="6.47599">
        <ele>1076.9</ele>
        <time>2018-08-05T05:58:10Z</time>
      </trkpt>
      <trkpt lat="44.39004" lon="6.47594">
        <ele>1077.4</ele>
        <time>2018-08-05T05:58:12Z</time>
      </trkpt>
      <trkpt lat="44.39002" lon="6.47591">
        <ele>1077.7</ele>
        <time>2018-08-05T05:58:13Z</time>
      </trkpt>
      <trkpt lat="44.38998" lon="6.47587">
        <ele>1078</ele>
        <time>2018-08-05T05:58:15Z</time>
      </trkpt>
      <trkpt lat="44.38996" lon="6.47584">
        <ele>1078.2</ele>
        <time>2018-08-05T05:58:18Z</time>
      </trkpt>
      <trkpt lat="44.38993" lon="6.47579">
        <ele>1078.4</ele>
        <time>2018-08-05T05:58:21Z</time>
      </trkpt>
      <trkpt lat="44.3899" lon="6.47575">
        <ele>1078.8</ele>
        <time>2018-08-05T05:58:23Z</time>
      </trkpt>
      <trkpt lat="44.38986" lon="6.47574">
        <ele>1079.1</ele>
        <time>2018-08-05T05:58:25Z</time>
      </trkpt>
      <trkpt lat="44.38983" lon="6.47572">
        <ele>1079.2</ele>
        <time>2018-08-05T05:58:27Z</time>
      </trkpt>
      <trkpt lat="44.3898" lon="6.47568">
        <ele>1079.3</ele>
        <time>2018-08-05T05:58:29Z</time>
      </trkpt>
      <trkpt lat="44.38978" lon="6.47564">
        <ele>1079.4</ele>
        <time>2018-08-05T05:58:31Z</time>
      </trkpt>
      <trkpt lat="44.38976" lon="6.47559">
        <ele>1079.6</ele>
        <time>2018-08-05T05:58:33Z</time>
      </trkpt>
      <trkpt lat="44.38974" lon="6.47555">
        <ele>1079.7</ele>
        <time>2018-08-05T05:58:35Z</time>
      </trkpt>
      <trkpt lat="44.38971" lon="6.4755">
        <ele>1079.8</ele>
        <time>2018-08-05T05:58:37Z</time>
      </trkpt>
      <trkpt lat="44.38968" lon="6.47546">
        <ele>1080</ele>
        <time>2018-08-05T05:58:39Z</time>
      </trkpt>
      <trkpt lat="44.38966" lon="6.47543">
        <ele>1080.4</ele>
        <time>2018-08-05T05:58:41Z</time>
      </trkpt>
      <trkpt lat="44.38963" lon="6.47541">
        <ele>1080.7</ele>
        <time>2018-08-05T05:58:43Z</time>
      </trkpt>
      <trkpt lat="44.3896" lon="6.47538">
        <ele>1081</ele>
        <time>2018-08-05T05:58:45Z</time>
      </trkpt>
      <trkpt lat="44.38958" lon="6.47533">
        <ele>1081.2</ele>
        <time>2018-08-05T05:58:47Z</time>
      </trkpt>
      <trkpt lat="44.38955" lon="6.47528">
        <ele>1081.4</ele>
        <time>2018-08-05T05:58:49Z</time>
      </trkpt>
      <trkpt lat="44.38952" lon="6.47525">
        <ele>1081.6</ele>
        <time>2018-08-05T05:58:51Z</time>
      </trkpt>
      <trkpt lat="44.38949" lon="6.4752">
        <ele>1082.2</ele>
        <time>2018-08-05T05:58:53Z</time>
      </trkpt>
      <trkpt lat="44.38946" lon="6.47515">
        <ele>1082.6</ele>
        <time>2018-08-05T05:58:55Z</time>
      </trkpt>
      <trkpt lat="44.38943" lon="6.47514">
        <ele>1082.8</ele>
        <time>2018-08-05T05:58:57Z</time>
      </trkpt>
      <trkpt lat="44.38939" lon="6.47512">
        <ele>1083</ele>
        <time>2018-08-05T05:58:59Z</time>
      </trkpt>
      <trkpt lat="44.38937" lon="6.47509">
        <ele>1083.1</ele>
        <time>2018-08-05T05:59:01Z</time>
      </trkpt>
      <trkpt lat="44.38934" lon="6.47506">
        <ele>1083.5</ele>
        <time>2018-08-05T05:59:03Z</time>
      </trkpt>
      <trkpt lat="44.38932" lon="6.47502">
        <ele>1083.9</ele>
        <time>2018-08-05T05:59:05Z</time>
      </trkpt>
      <trkpt lat="44.38929" lon="6.47501">
        <ele>1084.1</ele>
        <time>2018-08-05T05:59:07Z</time>
      </trkpt>
      <trkpt lat="44.38926" lon="6.47498">
        <ele>1084.3</ele>
        <time>2018-08-05T05:59:09Z</time>
      </trkpt>
      <trkpt lat="44.38924" lon="6.47494">
        <ele>1084.6</ele>
        <time>2018-08-05T05:59:11Z</time>
      </trkpt>
      <trkpt lat="44.38921" lon="6.47489">
        <ele>1084.9</ele>
        <time>2018-08-05T05:59:13Z</time>
      </trkpt>
      <trkpt lat="44.38918" lon="6.47487">
        <ele>1085.1</ele>
        <time>2018-08-05T05:59:15Z</time>
      </trkpt>
      <trkpt lat="44.38914" lon="6.47484">
        <ele>1085.6</ele>
        <time>2018-08-05T05:59:17Z</time>
      </trkpt>
      <trkpt lat="44.38911" lon="6.47481">
        <ele>1086</ele>
        <time>2018-08-05T05:59:19Z</time>
      </trkpt>
      <trkpt lat="44.38909" lon="6.47476">
        <ele>1086.2</ele>
        <time>2018-08-05T05:59:21Z</time>
      </trkpt>
      <trkpt lat="44.38906" lon="6.47471">
        <ele>1086.4</ele>
        <time>2018-08-05T05:59:23Z</time>
      </trkpt>
      <trkpt lat="44.38903" lon="6.47468">
        <ele>1086.6</ele>
        <time>2018-08-05T05:59:25Z</time>
      </trkpt>
      <trkpt lat="44.38901" lon="6.47464">
        <ele>1086.8</ele>
        <time>2018-08-05T05:59:27Z</time>
      </trkpt>
      <trkpt lat="44.38899" lon="6.4746">
        <ele>1087.1</ele>
        <time>2018-08-05T05:59:29Z</time>
      </trkpt>
      <trkpt lat="44.38898" lon="6.47457">
        <ele>1087.5</ele>
        <time>2018-08-05T05:59:31Z</time>
      </trkpt>
      <trkpt lat="44.38895" lon="6.47453">
        <ele>1087.7</ele>
        <time>2018-08-05T05:59:33Z</time>
      </trkpt>
      <trkpt lat="44.38892" lon="6.4745">
        <ele>1087.8</ele>
        <time>2018-08-05T05:59:35Z</time>
      </trkpt>
      <trkpt lat="44.38888" lon="6.47446">
        <ele>1088</ele>
        <time>2018-08-05T05:59:37Z</time>
      </trkpt>
      <trkpt lat="44.38885" lon="6.47441">
        <ele>1088.2</ele>
        <time>2018-08-05T05:59:39Z</time>
      </trkpt>
      <trkpt lat="44.38883" lon="6.47438">
        <ele>1088.4</ele>
        <time>2018-08-05T05:59:41Z</time>
      </trkpt>
      <trkpt lat="44.38881" lon="6.47432">
        <ele>1088.8</ele>
        <time>2018-08-05T05:59:43Z</time>
      </trkpt>
      <trkpt lat="44.38878" lon="6.47428">
        <ele>1089.3</ele>
        <time>2018-08-05T05:59:45Z</time>
      </trkpt>
      <trkpt lat="44.38875" lon="6.47422">
        <ele>1089.5</ele>
        <time>2018-08-05T05:59:47Z</time>
      </trkpt>
      <trkpt lat="44.38872" lon="6.47416">
        <ele>1089.7</ele>
        <time>2018-08-05T05:59:49Z</time>
      </trkpt>
      <trkpt lat="44.38869" lon="6.47413">
        <ele>1090</ele>
        <time>2018-08-05T05:59:51Z</time>
      </trkpt>
      <trkpt lat="44.38866" lon="6.4741">
        <ele>1090.4</ele>
        <time>2018-08-05T05:59:53Z</time>
      </trkpt>
      <trkpt lat="44.38862" lon="6.47406">
        <ele>1090.9</ele>
        <time>2018-08-05T05:59:55Z</time>
      </trkpt>
      <trkpt lat="44.38857" lon="6.47402">
        <ele>1091.1</ele>
        <time>2018-08-05T05:59:57Z</time>
      </trkpt>
      <trkpt lat="44.38854" lon="6.47398">
        <ele>1091.4</ele>
        <time>2018-08-05T05:59:59Z</time>
      </trkpt>
      <trkpt lat="44.3885" lon="6.47393">
        <ele>1091.6</ele>
        <time>2018-08-05T06:00:01Z</time>
      </trkpt>
      <trkpt lat="44.38847" lon="6.4739">
        <ele>1091.9</ele>
        <time>2018-08-05T06:00:03Z</time>
      </trkpt>
      <trkpt lat="44.38846" lon="6.47386">
        <ele>1092.3</ele>
        <time>2018-08-05T06:00:04Z</time>
      </trkpt>
      <trkpt lat="44.38844" lon="6.47381">
        <ele>1092.6</ele>
        <time>2018-08-05T06:00:06Z</time>
      </trkpt>
      <trkpt lat="44.38839" lon="6.47378">
        <ele>1092.9</ele>
        <time>2018-08-05T06:00:08Z</time>
      </trkpt>
      <trkpt lat="44.38835" lon="6.47374">
        <ele>1093</ele>
        <time>2018-08-05T06:00:10Z</time>
      </trkpt>
      <trkpt lat="44.38831" lon="6.47369">
        <ele>1093.2</ele>
        <time>2018-08-05T06:00:12Z</time>
      </trkpt>
      <trkpt lat="44.38829" lon="6.47367">
        <ele>1093.2</ele>
        <time>2018-08-05T06:00:13Z</time>
      </trkpt>
      <trkpt lat="44.38826" lon="6.47363">
        <ele>1093.4</ele>
        <time>2018-08-05T06:00:15Z</time>
      </trkpt>
      <trkpt lat="44.38823" lon="6.4736">
        <ele>1093.6</ele>
        <time>2018-08-05T06:00:16Z</time>
      </trkpt>
      <trkpt lat="44.38819" lon="6.47358">
        <ele>1094</ele>
        <time>2018-08-05T06:00:18Z</time>
      </trkpt>
      <trkpt lat="44.38815" lon="6.47353">
        <ele>1094.3</ele>
        <time>2018-08-05T06:00:20Z</time>
      </trkpt>
      <trkpt lat="44.38811" lon="6.4735">
        <ele>1094.5</ele>
        <time>2018-08-05T06:00:22Z</time>
      </trkpt>
      <trkpt lat="44.38808" lon="6.47344">
        <ele>1094.6</ele>
        <time>2018-08-05T06:00:24Z</time>
      </trkpt>
      <trkpt lat="44.38804" lon="6.4734">
        <ele>1094.7</ele>
        <time>2018-08-05T06:00:26Z</time>
      </trkpt>
      <trkpt lat="44.38803" lon="6.47333">
        <ele>1094.8</ele>
        <time>2018-08-05T06:00:28Z</time>
      </trkpt>
      <trkpt lat="44.38801" lon="6.4733">
        <ele>1094.8</ele>
        <time>2018-08-05T06:00:29Z</time>
      </trkpt>
      <trkpt lat="44.38798" lon="6.47325">
        <ele>1094.9</ele>
        <time>2018-08-05T06:00:31Z</time>
      </trkpt>
      <trkpt lat="44.38795" lon="6.4732">
        <ele>1095.1</ele>
        <time>2018-08-05T06:00:33Z</time>
      </trkpt>
      <trkpt lat="44.38793" lon="6.47317">
        <ele>1095.3</ele>
        <time>2018-08-05T06:00:34Z</time>
      </trkpt>
      <trkpt lat="44.38791" lon="6.47315">
        <ele>1095.7</ele>
        <time>2018-08-05T06:00:35Z</time>
      </trkpt>
      <trkpt lat="44.38789" lon="6.47312">
        <ele>1095.9</ele>
        <time>2018-08-05T06:00:36Z</time>
      </trkpt>
      <trkpt lat="44.38785" lon="6.47308">
        <ele>1096.2</ele>
        <time>2018-08-05T06:00:38Z</time>
      </trkpt>
      <trkpt lat="44.3878" lon="6.47304">
        <ele>1096.3</ele>
        <time>2018-08-05T06:00:40Z</time>
      </trkpt>
      <trkpt lat="44.38776" lon="6.47302">
        <ele>1096.4</ele>
        <time>2018-08-05T06:00:42Z</time>
      </trkpt>
      <trkpt lat="44.38773" lon="6.47299">
        <ele>1096.5</ele>
        <time>2018-08-05T06:00:44Z</time>
      </trkpt>
      <trkpt lat="44.38768" lon="6.47296">
        <ele>1096.7</ele>
        <time>2018-08-05T06:00:46Z</time>
      </trkpt>
      <trkpt lat="44.38764" lon="6.47296">
        <ele>1096.8</ele>
        <time>2018-08-05T06:00:48Z</time>
      </trkpt>
      <trkpt lat="44.38759" lon="6.47296">
        <ele>1097.1</ele>
        <time>2018-08-05T06:00:50Z</time>
      </trkpt>
      <trkpt lat="44.38755" lon="6.47296">
        <ele>1097.4</ele>
        <time>2018-08-05T06:00:51Z</time>
      </trkpt>
      <trkpt lat="44.38751" lon="6.47298">
        <ele>1097.6</ele>
        <time>2018-08-05T06:00:53Z</time>
      </trkpt>
      <trkpt lat="44.38746" lon="6.473">
        <ele>1097.8</ele>
        <time>2018-08-05T06:00:55Z</time>
      </trkpt>
      <trkpt lat="44.38741" lon="6.47301">
        <ele>1097.9</ele>
        <time>2018-08-05T06:00:57Z</time>
      </trkpt>
      <trkpt lat="44.38738" lon="6.47303">
        <ele>1098</ele>
        <time>2018-08-05T06:00:58Z</time>
      </trkpt>
      <trkpt lat="44.38735" lon="6.47303">
        <ele>1098.1</ele>
        <time>2018-08-05T06:00:59Z</time>
      </trkpt>
      <trkpt lat="44.38732" lon="6.47303">
        <ele>1098.2</ele>
        <time>2018-08-05T06:01:00Z</time>
      </trkpt>
      <trkpt lat="44.38727" lon="6.47301">
        <ele>1098.4</ele>
        <time>2018-08-05T06:01:02Z</time>
      </trkpt>
      <trkpt lat="44.38722" lon="6.473">
        <ele>1098.7</ele>
        <time>2018-08-05T06:01:04Z</time>
      </trkpt>
      <trkpt lat="44.38718" lon="6.47297">
        <ele>1099.1</ele>
        <time>2018-08-05T06:01:06Z</time>
      </trkpt>
      <trkpt lat="44.38714" lon="6.47294">
        <ele>1099.2</ele>
        <time>2018-08-05T06:01:08Z</time>
      </trkpt>
      <trkpt lat="44.3871" lon="6.47292">
        <ele>1099.4</ele>
        <time>2018-08-05T06:01:10Z</time>
      </trkpt>
      <trkpt lat="44.38707" lon="6.4729">
        <ele>1099.5</ele>
        <time>2018-08-05T06:01:11Z</time>
      </trkpt>
      <trkpt lat="44.38703" lon="6.47287">
        <ele>1099.6</ele>
        <time>2018-08-05T06:01:13Z</time>
      </trkpt>
      <trkpt lat="44.387" lon="6.47284">
        <ele>1099.7</ele>
        <time>2018-08-05T06:01:15Z</time>
      </trkpt>
      <trkpt lat="44.38696" lon="6.4728">
        <ele>1099.8</ele>
        <time>2018-08-05T06:01:17Z</time>
      </trkpt>
      <trkpt lat="44.38692" lon="6.47277">
        <ele>1100</ele>
        <time>2018-08-05T06:01:19Z</time>
      </trkpt>
      <trkpt lat="44.38687" lon="6.47274">
        <ele>1100.5</ele>
        <time>2018-08-05T06:01:21Z</time>
      </trkpt>
      <trkpt lat="44.38684" lon="6.4727">
        <ele>1100.8</ele>
        <time>2018-08-05T06:01:23Z</time>
      </trkpt>
      <trkpt lat="44.38679" lon="6.47267">
        <ele>1101</ele>
        <time>2018-08-05T06:01:25Z</time>
      </trkpt>
      <trkpt lat="44.38676" lon="6.47265">
        <ele>1101.1</ele>
        <time>2018-08-05T06:01:27Z</time>
      </trkpt>
      <trkpt lat="44.38671" lon="6.47263">
        <ele>1101.3</ele>
        <time>2018-08-05T06:01:29Z</time>
      </trkpt>
      <trkpt lat="44.38667" lon="6.47261">
        <ele>1101.5</ele>
        <time>2018-08-05T06:01:31Z</time>
      </trkpt>
      <trkpt lat="44.38664" lon="6.47259">
        <ele>1101.9</ele>
        <time>2018-08-05T06:01:33Z</time>
      </trkpt>
      <trkpt lat="44.38662" lon="6.47254">
        <ele>1102.3</ele>
        <time>2018-08-05T06:01:35Z</time>
      </trkpt>
      <trkpt lat="44.38658" lon="6.47251">
        <ele>1102.5</ele>
        <time>2018-08-05T06:01:37Z</time>
      </trkpt>
      <trkpt lat="44.38655" lon="6.47248">
        <ele>1102.6</ele>
        <time>2018-08-05T06:01:39Z</time>
      </trkpt>
      <trkpt lat="44.38651" lon="6.47245">
        <ele>1102.8</ele>
        <time>2018-08-05T06:01:41Z</time>
      </trkpt>
      <trkpt lat="44.38647" lon="6.47242">
        <ele>1103</ele>
        <time>2018-08-05T06:01:43Z</time>
      </trkpt>
      <trkpt lat="44.38643" lon="6.47238">
        <ele>1103.2</ele>
        <time>2018-08-05T06:01:45Z</time>
      </trkpt>
      <trkpt lat="44.3864" lon="6.47235">
        <ele>1103.6</ele>
        <time>2018-08-05T06:01:47Z</time>
      </trkpt>
      <trkpt lat="44.38637" lon="6.47231">
        <ele>1104</ele>
        <time>2018-08-05T06:01:49Z</time>
      </trkpt>
      <trkpt lat="44.38634" lon="6.47227">
        <ele>1104.2</ele>
        <time>2018-08-05T06:01:51Z</time>
      </trkpt>
      <trkpt lat="44.38632" lon="6.47224">
        <ele>1104.3</ele>
        <time>2018-08-05T06:01:53Z</time>
      </trkpt>
      <trkpt lat="44.38628" lon="6.4722">
        <ele>1104.5</ele>
        <time>2018-08-05T06:01:55Z</time>
      </trkpt>
      <trkpt lat="44.38626" lon="6.47217">
        <ele>1104.6</ele>
        <time>2018-08-05T06:01:57Z</time>
      </trkpt>
      <trkpt lat="44.38623" lon="6.47213">
        <ele>1104.8</ele>
        <time>2018-08-05T06:01:59Z</time>
      </trkpt>
      <trkpt lat="44.3862" lon="6.47209">
        <ele>1105.4</ele>
        <time>2018-08-05T06:02:01Z</time>
      </trkpt>
      <trkpt lat="44.38619" lon="6.47205">
        <ele>1105.8</ele>
        <time>2018-08-05T06:02:03Z</time>
      </trkpt>
      <trkpt lat="44.38618" lon="6.472">
        <ele>1106.4</ele>
        <time>2018-08-05T06:02:05Z</time>
      </trkpt>
      <trkpt lat="44.38616" lon="6.47196">
        <ele>1107</ele>
        <time>2018-08-05T06:02:07Z</time>
      </trkpt>
      <trkpt lat="44.38614" lon="6.47191">
        <ele>1107.8</ele>
        <time>2018-08-05T06:02:09Z</time>
      </trkpt>
      <trkpt lat="44.38614" lon="6.47185">
        <ele>1108.6</ele>
        <time>2018-08-05T06:02:10Z</time>
      </trkpt>
      <trkpt lat="44.38613" lon="6.47181">
        <ele>1109.1</ele>
        <time>2018-08-05T06:02:11Z</time>
      </trkpt>
      <trkpt lat="44.3861" lon="6.47175">
        <ele>1110</ele>
        <time>2018-08-05T06:02:13Z</time>
      </trkpt>
      <trkpt lat="44.38607" lon="6.47172">
        <ele>1110.7</ele>
        <time>2018-08-05T06:02:15Z</time>
      </trkpt>
      <trkpt lat="44.38605" lon="6.47167">
        <ele>1111.5</ele>
        <time>2018-08-05T06:02:17Z</time>
      </trkpt>
      <trkpt lat="44.38603" lon="6.47163">
        <ele>1112.1</ele>
        <time>2018-08-05T06:02:19Z</time>
      </trkpt>
      <trkpt lat="44.38601" lon="6.47157">
        <ele>1112.8</ele>
        <time>2018-08-05T06:02:21Z</time>
      </trkpt>
      <trkpt lat="44.38598" lon="6.47151">
        <ele>1113.6</ele>
        <time>2018-08-05T06:02:23Z</time>
      </trkpt>
      <trkpt lat="44.38594" lon="6.47147">
        <ele>1114.4</ele>
        <time>2018-08-05T06:02:25Z</time>
      </trkpt>
      <trkpt lat="44.3859" lon="6.47145">
        <ele>1115</ele>
        <time>2018-08-05T06:02:27Z</time>
      </trkpt>
      <trkpt lat="44.38586" lon="6.47143">
        <ele>1115.4</ele>
        <time>2018-08-05T06:02:29Z</time>
      </trkpt>
      <trkpt lat="44.38584" lon="6.47141">
        <ele>1115.6</ele>
        <time>2018-08-05T06:02:30Z</time>
      </trkpt>
      <trkpt lat="44.38581" lon="6.47139">
        <ele>1115.9</ele>
        <time>2018-08-05T06:02:32Z</time>
      </trkpt>
      <trkpt lat="44.38577" lon="6.47135">
        <ele>1116.3</ele>
        <time>2018-08-05T06:02:34Z</time>
      </trkpt>
      <trkpt lat="44.38574" lon="6.47131">
        <ele>1116.6</ele>
        <time>2018-08-05T06:02:36Z</time>
      </trkpt>
      <trkpt lat="44.38571" lon="6.47127">
        <ele>1117</ele>
        <time>2018-08-05T06:02:38Z</time>
      </trkpt>
      <trkpt lat="44.38568" lon="6.47122">
        <ele>1117.4</ele>
        <time>2018-08-05T06:02:40Z</time>
      </trkpt>
      <trkpt lat="44.38563" lon="6.47118">
        <ele>1117.8</ele>
        <time>2018-08-05T06:02:42Z</time>
      </trkpt>
      <trkpt lat="44.38561" lon="6.47116">
        <ele>1118.3</ele>
        <time>2018-08-05T06:02:44Z</time>
      </trkpt>
      <trkpt lat="44.38558" lon="6.47113">
        <ele>1118.9</ele>
        <time>2018-08-05T06:02:46Z</time>
      </trkpt>
      <trkpt lat="44.38555" lon="6.4711">
        <ele>1119.7</ele>
        <time>2018-08-05T06:02:48Z</time>
      </trkpt>
      <trkpt lat="44.38552" lon="6.47106">
        <ele>1120.5</ele>
        <time>2018-08-05T06:02:50Z</time>
      </trkpt>
      <trkpt lat="44.38549" lon="6.47102">
        <ele>1121.3</ele>
        <time>2018-08-05T06:02:52Z</time>
      </trkpt>
      <trkpt lat="44.38547" lon="6.47098">
        <ele>1122</ele>
        <time>2018-08-05T06:02:54Z</time>
      </trkpt>
      <trkpt lat="44.38546" lon="6.47094">
        <ele>1122.8</ele>
        <time>2018-08-05T06:02:56Z</time>
      </trkpt>
      <trkpt lat="44.38545" lon="6.47088">
        <ele>1123.7</ele>
        <time>2018-08-05T06:02:58Z</time>
      </trkpt>
      <trkpt lat="44.38546" lon="6.47083">
        <ele>1124.5</ele>
        <time>2018-08-05T06:03:00Z</time>
      </trkpt>
      <trkpt lat="44.38542" lon="6.47081">
        <ele>1125.3</ele>
        <time>2018-08-05T06:03:02Z</time>
      </trkpt>
      <trkpt lat="44.38539" lon="6.47079">
        <ele>1126.1</ele>
        <time>2018-08-05T06:03:04Z</time>
      </trkpt>
      <trkpt lat="44.38536" lon="6.47075">
        <ele>1126.9</ele>
        <time>2018-08-05T06:03:06Z</time>
      </trkpt>
      <trkpt lat="44.38533" lon="6.47073">
        <ele>1127.7</ele>
        <time>2018-08-05T06:03:08Z</time>
      </trkpt>
      <trkpt lat="44.3853" lon="6.47072">
        <ele>1128.5</ele>
        <time>2018-08-05T06:03:10Z</time>
      </trkpt>
      <trkpt lat="44.38527" lon="6.47068">
        <ele>1129.4</ele>
        <time>2018-08-05T06:03:12Z</time>
      </trkpt>
      <trkpt lat="44.38522" lon="6.47066">
        <ele>1130.4</ele>
        <time>2018-08-05T06:03:14Z</time>
      </trkpt>
      <trkpt lat="44.3852" lon="6.47063">
        <ele>1131.2</ele>
        <time>2018-08-05T06:03:16Z</time>
      </trkpt>
      <trkpt lat="44.38516" lon="6.47061">
        <ele>1132</ele>
        <time>2018-08-05T06:03:18Z</time>
      </trkpt>
      <trkpt lat="44.38512" lon="6.47059">
        <ele>1133</ele>
        <time>2018-08-05T06:03:20Z</time>
      </trkpt>
      <trkpt lat="44.38509" lon="6.4706">
        <ele>1133.8</ele>
        <time>2018-08-05T06:03:22Z</time>
      </trkpt>
      <trkpt lat="44.38506" lon="6.47058">
        <ele>1134.5</ele>
        <time>2018-08-05T06:03:24Z</time>
      </trkpt>
      <trkpt lat="44.38503" lon="6.47056">
        <ele>1135.1</ele>
        <time>2018-08-05T06:03:25Z</time>
      </trkpt>
      <trkpt lat="44.38501" lon="6.47053">
        <ele>1135.8</ele>
        <time>2018-08-05T06:03:27Z</time>
      </trkpt>
      <trkpt lat="44.38497" lon="6.47049">
        <ele>1136.6</ele>
        <time>2018-08-05T06:03:29Z</time>
      </trkpt>
      <trkpt lat="44.38496" lon="6.47045">
        <ele>1137.2</ele>
        <time>2018-08-05T06:03:31Z</time>
      </trkpt>
      <trkpt lat="44.38492" lon="6.47042">
        <ele>1137.9</ele>
        <time>2018-08-05T06:03:33Z</time>
      </trkpt>
      <trkpt lat="44.3849" lon="6.4704">
        <ele>1138.4</ele>
        <time>2018-08-05T06:03:34Z</time>
      </trkpt>
      <trkpt lat="44.38487" lon="6.47037">
        <ele>1139</ele>
        <time>2018-08-05T06:03:36Z</time>
      </trkpt>
      <trkpt lat="44.38484" lon="6.47034">
        <ele>1139.6</ele>
        <time>2018-08-05T06:03:38Z</time>
      </trkpt>
      <trkpt lat="44.38481" lon="6.47031">
        <ele>1140.2</ele>
        <time>2018-08-05T06:03:40Z</time>
      </trkpt>
      <trkpt lat="44.38478" lon="6.47028">
        <ele>1140.7</ele>
        <time>2018-08-05T06:03:42Z</time>
      </trkpt>
      <trkpt lat="44.38476" lon="6.47024">
        <ele>1141.3</ele>
        <time>2018-08-05T06:03:44Z</time>
      </trkpt>
      <trkpt lat="44.38472" lon="6.47021">
        <ele>1142.1</ele>
        <time>2018-08-05T06:03:47Z</time>
      </trkpt>
      <trkpt lat="44.38469" lon="6.47018">
        <ele>1142.6</ele>
        <time>2018-08-05T06:03:49Z</time>
      </trkpt>
      <trkpt lat="44.38466" lon="6.47015">
        <ele>1143.2</ele>
        <time>2018-08-05T06:03:51Z</time>
      </trkpt>
      <trkpt lat="44.38462" lon="6.47011">
        <ele>1143.9</ele>
        <time>2018-08-05T06:03:53Z</time>
      </trkpt>
      <trkpt lat="44.3846" lon="6.47009">
        <ele>1144.3</ele>
        <time>2018-08-05T06:03:55Z</time>
      </trkpt>
      <trkpt lat="44.38458" lon="6.47007">
        <ele>1144.8</ele>
        <time>2018-08-05T06:03:57Z</time>
      </trkpt>
      <trkpt lat="44.38454" lon="6.47006">
        <ele>1145.4</ele>
        <time>2018-08-05T06:03:59Z</time>
      </trkpt>
      <trkpt lat="44.38451" lon="6.47003">
        <ele>1145.9</ele>
        <time>2018-08-05T06:04:01Z</time>
      </trkpt>
      <trkpt lat="44.38448" lon="6.47001">
        <ele>1146.5</ele>
        <time>2018-08-05T06:04:03Z</time>
      </trkpt>
      <trkpt lat="44.38444" lon="6.46998">
        <ele>1147.2</ele>
        <time>2018-08-05T06:04:05Z</time>
      </trkpt>
      <trkpt lat="44.38441" lon="6.46994">
        <ele>1147.9</ele>
        <time>2018-08-05T06:04:07Z</time>
      </trkpt>
      <trkpt lat="44.38438" lon="6.46992">
        <ele>1148.5</ele>
        <time>2018-08-05T06:04:09Z</time>
      </trkpt>
      <trkpt lat="44.38435" lon="6.46989">
        <ele>1149.1</ele>
        <time>2018-08-05T06:04:11Z</time>
      </trkpt>
      <trkpt lat="44.38432" lon="6.46987">
        <ele>1149.8</ele>
        <time>2018-08-05T06:04:13Z</time>
      </trkpt>
      <trkpt lat="44.38429" lon="6.46986">
        <ele>1150.3</ele>
        <time>2018-08-05T06:04:15Z</time>
      </trkpt>
      <trkpt lat="44.38425" lon="6.46984">
        <ele>1151</ele>
        <time>2018-08-05T06:04:17Z</time>
      </trkpt>
      <trkpt lat="44.38422" lon="6.46982">
        <ele>1151.7</ele>
        <time>2018-08-05T06:04:19Z</time>
      </trkpt>
      <trkpt lat="44.38419" lon="6.46979">
        <ele>1152.3</ele>
        <time>2018-08-05T06:04:21Z</time>
      </trkpt>
      <trkpt lat="44.38415" lon="6.46976">
        <ele>1153.1</ele>
        <time>2018-08-05T06:04:23Z</time>
      </trkpt>
      <trkpt lat="44.38412" lon="6.46974">
        <ele>1153.7</ele>
        <time>2018-08-05T06:04:25Z</time>
      </trkpt>
      <trkpt lat="44.38409" lon="6.4697">
        <ele>1154.3</ele>
        <time>2018-08-05T06:04:27Z</time>
      </trkpt>
      <trkpt lat="44.38406" lon="6.46968">
        <ele>1154.7</ele>
        <time>2018-08-05T06:04:29Z</time>
      </trkpt>
      <trkpt lat="44.38403" lon="6.46965">
        <ele>1155.3</ele>
        <time>2018-08-05T06:04:31Z</time>
      </trkpt>
      <trkpt lat="44.38401" lon="6.46963">
        <ele>1155.8</ele>
        <time>2018-08-05T06:04:33Z</time>
      </trkpt>
      <trkpt lat="44.38397" lon="6.46959">
        <ele>1156.4</ele>
        <time>2018-08-05T06:04:35Z</time>
      </trkpt>
      <trkpt lat="44.38395" lon="6.46956">
        <ele>1156.8</ele>
        <time>2018-08-05T06:04:37Z</time>
      </trkpt>
      <trkpt lat="44.38392" lon="6.46954">
        <ele>1157.3</ele>
        <time>2018-08-05T06:04:39Z</time>
      </trkpt>
      <trkpt lat="44.38389" lon="6.46951">
        <ele>1157.8</ele>
        <time>2018-08-05T06:04:41Z</time>
      </trkpt>
      <trkpt lat="44.38386" lon="6.4695">
        <ele>1158.2</ele>
        <time>2018-08-05T06:04:43Z</time>
      </trkpt>
      <trkpt lat="44.38383" lon="6.46949">
        <ele>1158.7</ele>
        <time>2018-08-05T06:04:45Z</time>
      </trkpt>
      <trkpt lat="44.3838" lon="6.46947">
        <ele>1159.1</ele>
        <time>2018-08-05T06:04:47Z</time>
      </trkpt>
      <trkpt lat="44.38376" lon="6.46945">
        <ele>1159.6</ele>
        <time>2018-08-05T06:04:50Z</time>
      </trkpt>
      <trkpt lat="44.38372" lon="6.46945">
        <ele>1160.1</ele>
        <time>2018-08-05T06:04:52Z</time>
      </trkpt>
      <trkpt lat="44.3837" lon="6.46943">
        <ele>1160.5</ele>
        <time>2018-08-05T06:04:55Z</time>
      </trkpt>
      <trkpt lat="44.38367" lon="6.46941">
        <ele>1161</ele>
        <time>2018-08-05T06:04:56Z</time>
      </trkpt>
      <trkpt lat="44.38364" lon="6.4694">
        <ele>1161.5</ele>
        <time>2018-08-05T06:04:58Z</time>
      </trkpt>
      <trkpt lat="44.3836" lon="6.46938">
        <ele>1162.1</ele>
        <time>2018-08-05T06:05:00Z</time>
      </trkpt>
      <trkpt lat="44.38356" lon="6.46937">
        <ele>1162.6</ele>
        <time>2018-08-05T06:05:02Z</time>
      </trkpt>
      <trkpt lat="44.38351" lon="6.46936">
        <ele>1163.4</ele>
        <time>2018-08-05T06:05:05Z</time>
      </trkpt>
      <trkpt lat="44.38347" lon="6.46933">
        <ele>1164</ele>
        <time>2018-08-05T06:05:07Z</time>
      </trkpt>
      <trkpt lat="44.38343" lon="6.4693">
        <ele>1164.5</ele>
        <time>2018-08-05T06:05:10Z</time>
      </trkpt>
      <trkpt lat="44.38341" lon="6.46927">
        <ele>1164.9</ele>
        <time>2018-08-05T06:05:12Z</time>
      </trkpt>
      <trkpt lat="44.38338" lon="6.46924">
        <ele>1165.4</ele>
        <time>2018-08-05T06:05:14Z</time>
      </trkpt>
      <trkpt lat="44.38335" lon="6.46922">
        <ele>1165.9</ele>
        <time>2018-08-05T06:05:15Z</time>
      </trkpt>
      <trkpt lat="44.38332" lon="6.46919">
        <ele>1166.4</ele>
        <time>2018-08-05T06:05:17Z</time>
      </trkpt>
      <trkpt lat="44.38328" lon="6.46918">
        <ele>1167</ele>
        <time>2018-08-05T06:05:19Z</time>
      </trkpt>
      <trkpt lat="44.38324" lon="6.46917">
        <ele>1167.6</ele>
        <time>2018-08-05T06:05:21Z</time>
      </trkpt>
      <trkpt lat="44.38322" lon="6.46913">
        <ele>1168</ele>
        <time>2018-08-05T06:05:23Z</time>
      </trkpt>
      <trkpt lat="44.38318" lon="6.4691">
        <ele>1168.6</ele>
        <time>2018-08-05T06:05:25Z</time>
      </trkpt>
      <trkpt lat="44.38314" lon="6.46907">
        <ele>1169.3</ele>
        <time>2018-08-05T06:05:27Z</time>
      </trkpt>
      <trkpt lat="44.38312" lon="6.46903">
        <ele>1169.8</ele>
        <time>2018-08-05T06:05:29Z</time>
      </trkpt>
      <trkpt lat="44.38308" lon="6.46901">
        <ele>1170.3</ele>
        <time>2018-08-05T06:05:31Z</time>
      </trkpt>
      <trkpt lat="44.38305" lon="6.46899">
        <ele>1170.9</ele>
        <time>2018-08-05T06:05:33Z</time>
      </trkpt>
      <trkpt lat="44.38301" lon="6.46898">
        <ele>1171.4</ele>
        <time>2018-08-05T06:05:35Z</time>
      </trkpt>
      <trkpt lat="44.38298" lon="6.46895">
        <ele>1171.9</ele>
        <time>2018-08-05T06:05:37Z</time>
      </trkpt>
      <trkpt lat="44.38297" lon="6.46892">
        <ele>1172.3</ele>
        <time>2018-08-05T06:05:38Z</time>
      </trkpt>
      <trkpt lat="44.38294" lon="6.46889">
        <ele>1172.8</ele>
        <time>2018-08-05T06:05:40Z</time>
      </trkpt>
      <trkpt lat="44.38291" lon="6.46885">
        <ele>1173.4</ele>
        <time>2018-08-05T06:05:42Z</time>
      </trkpt>
      <trkpt lat="44.3829" lon="6.46882">
        <ele>1173.8</ele>
        <time>2018-08-05T06:05:44Z</time>
      </trkpt>
      <trkpt lat="44.38288" lon="6.46877">
        <ele>1174.4</ele>
        <time>2018-08-05T06:05:46Z</time>
      </trkpt>
      <trkpt lat="44.38287" lon="6.46872">
        <ele>1174.9</ele>
        <time>2018-08-05T06:05:48Z</time>
      </trkpt>
      <trkpt lat="44.38287" lon="6.46867">
        <ele>1175.4</ele>
        <time>2018-08-05T06:05:50Z</time>
      </trkpt>
      <trkpt lat="44.38287" lon="6.46863">
        <ele>1175.9</ele>
        <time>2018-08-05T06:05:52Z</time>
      </trkpt>
      <trkpt lat="44.38286" lon="6.46858">
        <ele>1176.4</ele>
        <time>2018-08-05T06:05:54Z</time>
      </trkpt>
      <trkpt lat="44.38284" lon="6.46853">
        <ele>1177</ele>
        <time>2018-08-05T06:05:57Z</time>
      </trkpt>
      <trkpt lat="44.38283" lon="6.46847">
        <ele>1177.6</ele>
        <time>2018-08-05T06:05:59Z</time>
      </trkpt>
      <trkpt lat="44.38282" lon="6.46842">
        <ele>1178.2</ele>
        <time>2018-08-05T06:06:01Z</time>
      </trkpt>
      <trkpt lat="44.38281" lon="6.46836">
        <ele>1178.7</ele>
        <time>2018-08-05T06:06:03Z</time>
      </trkpt>
      <trkpt lat="44.38281" lon="6.46832">
        <ele>1179.1</ele>
        <time>2018-08-05T06:06:05Z</time>
      </trkpt>
      <trkpt lat="44.38281" lon="6.46826">
        <ele>1179.6</ele>
        <time>2018-08-05T06:06:07Z</time>
      </trkpt>
      <trkpt lat="44.3828" lon="6.46821">
        <ele>1180</ele>
        <time>2018-08-05T06:06:09Z</time>
      </trkpt>
      <trkpt lat="44.38279" lon="6.46818">
        <ele>1180.3</ele>
        <time>2018-08-05T06:06:11Z</time>
      </trkpt>
      <trkpt lat="44.38278" lon="6.46812">
        <ele>1180.8</ele>
        <time>2018-08-05T06:06:13Z</time>
      </trkpt>
      <trkpt lat="44.38277" lon="6.46807">
        <ele>1181.2</ele>
        <time>2018-08-05T06:06:15Z</time>
      </trkpt>
      <trkpt lat="44.38277" lon="6.46802">
        <ele>1181.5</ele>
        <time>2018-08-05T06:06:17Z</time>
      </trkpt>
      <trkpt lat="44.38276" lon="6.46797">
        <ele>1182</ele>
        <time>2018-08-05T06:06:20Z</time>
      </trkpt>
      <trkpt lat="44.38274" lon="6.46792">
        <ele>1182.4</ele>
        <time>2018-08-05T06:06:22Z</time>
      </trkpt>
      <trkpt lat="44.38273" lon="6.46787">
        <ele>1182.8</ele>
        <time>2018-08-05T06:06:24Z</time>
      </trkpt>
      <trkpt lat="44.38271" lon="6.46783">
        <ele>1183.2</ele>
        <time>2018-08-05T06:06:27Z</time>
      </trkpt>
      <trkpt lat="44.38269" lon="6.46779">
        <ele>1183.5</ele>
        <time>2018-08-05T06:06:29Z</time>
      </trkpt>
      <trkpt lat="44.38268" lon="6.46775">
        <ele>1183.9</ele>
        <time>2018-08-05T06:06:31Z</time>
      </trkpt>
      <trkpt lat="44.38266" lon="6.46771">
        <ele>1184.2</ele>
        <time>2018-08-05T06:06:33Z</time>
      </trkpt>
      <trkpt lat="44.38264" lon="6.46766">
        <ele>1184.7</ele>
        <time>2018-08-05T06:06:35Z</time>
      </trkpt>
      <trkpt lat="44.38261" lon="6.46762">
        <ele>1185.2</ele>
        <time>2018-08-05T06:06:37Z</time>
      </trkpt>
      <trkpt lat="44.38258" lon="6.46758">
        <ele>1185.7</ele>
        <time>2018-08-05T06:06:39Z</time>
      </trkpt>
      <trkpt lat="44.38256" lon="6.46752">
        <ele>1186.5</ele>
        <time>2018-08-05T06:06:41Z</time>
      </trkpt>
      <trkpt lat="44.38254" lon="6.46747">
        <ele>1187.2</ele>
        <time>2018-08-05T06:06:43Z</time>
      </trkpt>
      <trkpt lat="44.38251" lon="6.46745">
        <ele>1187.9</ele>
        <time>2018-08-05T06:06:45Z</time>
      </trkpt>
      <trkpt lat="44.38246" lon="6.46743">
        <ele>1188.8</ele>
        <time>2018-08-05T06:06:47Z</time>
      </trkpt>
      <trkpt lat="44.38243" lon="6.4674">
        <ele>1189.6</ele>
        <time>2018-08-05T06:06:49Z</time>
      </trkpt>
      <trkpt lat="44.3824" lon="6.46738">
        <ele>1190.3</ele>
        <time>2018-08-05T06:06:51Z</time>
      </trkpt>
      <trkpt lat="44.38235" lon="6.46738">
        <ele>1190.8</ele>
        <time>2018-08-05T06:06:53Z</time>
      </trkpt>
      <trkpt lat="44.38231" lon="6.46736">
        <ele>1190.6</ele>
        <time>2018-08-05T06:06:55Z</time>
      </trkpt>
      <trkpt lat="44.38228" lon="6.46736">
        <ele>1190.4</ele>
        <time>2018-08-05T06:06:58Z</time>
      </trkpt>
      <trkpt lat="44.38224" lon="6.46738">
        <ele>1190.1</ele>
        <time>2018-08-05T06:07:00Z</time>
      </trkpt>
      <trkpt lat="44.38221" lon="6.46739">
        <ele>1190</ele>
        <time>2018-08-05T06:07:01Z</time>
      </trkpt>
      <trkpt lat="44.38218" lon="6.46742">
        <ele>1189.8</ele>
        <time>2018-08-05T06:07:03Z</time>
      </trkpt>
      <trkpt lat="44.38215" lon="6.46746">
        <ele>1189.5</ele>
        <time>2018-08-05T06:07:05Z</time>
      </trkpt>
      <trkpt lat="44.38211" lon="6.4675">
        <ele>1189.2</ele>
        <time>2018-08-05T06:07:07Z</time>
      </trkpt>
      <trkpt lat="44.38208" lon="6.46754">
        <ele>1189</ele>
        <time>2018-08-05T06:07:09Z</time>
      </trkpt>
      <trkpt lat="44.38206" lon="6.46759">
        <ele>1188.8</ele>
        <time>2018-08-05T06:07:11Z</time>
      </trkpt>
      <trkpt lat="44.38203" lon="6.46763">
        <ele>1188.5</ele>
        <time>2018-08-05T06:07:13Z</time>
      </trkpt>
      <trkpt lat="44.382" lon="6.46766">
        <ele>1188.3</ele>
        <time>2018-08-05T06:07:15Z</time>
      </trkpt>
      <trkpt lat="44.38197" lon="6.46769">
        <ele>1188</ele>
        <time>2018-08-05T06:07:17Z</time>
      </trkpt>
      <trkpt lat="44.38194" lon="6.46772">
        <ele>1187.8</ele>
        <time>2018-08-05T06:07:19Z</time>
      </trkpt>
      <trkpt lat="44.38189" lon="6.46772">
        <ele>1187.7</ele>
        <time>2018-08-05T06:07:21Z</time>
      </trkpt>
      <trkpt lat="44.38186" lon="6.46772">
        <ele>1187.6</ele>
        <time>2018-08-05T06:07:23Z</time>
      </trkpt>
      <trkpt lat="44.38183" lon="6.46769">
        <ele>1187.6</ele>
        <time>2018-08-05T06:07:25Z</time>
      </trkpt>
      <trkpt lat="44.3818" lon="6.46767">
        <ele>1187.6</ele>
        <time>2018-08-05T06:07:27Z</time>
      </trkpt>
      <trkpt lat="44.38176" lon="6.46764">
        <ele>1187.7</ele>
        <time>2018-08-05T06:07:30Z</time>
      </trkpt>
      <trkpt lat="44.38174" lon="6.4676">
        <ele>1187.8</ele>
        <time>2018-08-05T06:07:32Z</time>
      </trkpt>
      <trkpt lat="44.38172" lon="6.46758">
        <ele>1188</ele>
        <time>2018-08-05T06:07:34Z</time>
      </trkpt>
      <trkpt lat="44.38169" lon="6.46754">
        <ele>1188.3</ele>
        <time>2018-08-05T06:07:36Z</time>
      </trkpt>
      <trkpt lat="44.38165" lon="6.46751">
        <ele>1188.7</ele>
        <time>2018-08-05T06:07:38Z</time>
      </trkpt>
      <trkpt lat="44.38163" lon="6.46747">
        <ele>1189</ele>
        <time>2018-08-05T06:07:40Z</time>
      </trkpt>
      <trkpt lat="44.38161" lon="6.46744">
        <ele>1189.3</ele>
        <time>2018-08-05T06:07:42Z</time>
      </trkpt>
      <trkpt lat="44.38159" lon="6.46739">
        <ele>1189.7</ele>
        <time>2018-08-05T06:07:44Z</time>
      </trkpt>
      <trkpt lat="44.38156" lon="6.46735">
        <ele>1190</ele>
        <time>2018-08-05T06:07:46Z</time>
      </trkpt>
      <trkpt lat="44.38153" lon="6.46732">
        <ele>1190.4</ele>
        <time>2018-08-05T06:07:48Z</time>
      </trkpt>
      <trkpt lat="44.38151" lon="6.4673">
        <ele>1190.7</ele>
        <time>2018-08-05T06:07:50Z</time>
      </trkpt>
      <trkpt lat="44.38147" lon="6.46728">
        <ele>1191.1</ele>
        <time>2018-08-05T06:07:52Z</time>
      </trkpt>
      <trkpt lat="44.38145" lon="6.46725">
        <ele>1191.3</ele>
        <time>2018-08-05T06:07:54Z</time>
      </trkpt>
      <trkpt lat="44.38141" lon="6.46722">
        <ele>1191.5</ele>
        <time>2018-08-05T06:07:56Z</time>
      </trkpt>
      <trkpt lat="44.38139" lon="6.46719">
        <ele>1191.7</ele>
        <time>2018-08-05T06:07:58Z</time>
      </trkpt>
      <trkpt lat="44.38136" lon="6.46715">
        <ele>1192</ele>
        <time>2018-08-05T06:08:00Z</time>
      </trkpt>
      <trkpt lat="44.38134" lon="6.46713">
        <ele>1192.2</ele>
        <time>2018-08-05T06:08:02Z</time>
      </trkpt>
      <trkpt lat="44.38129" lon="6.46713">
        <ele>1192.5</ele>
        <time>2018-08-05T06:08:04Z</time>
      </trkpt>
      <trkpt lat="44.38127" lon="6.46708">
        <ele>1192.7</ele>
        <time>2018-08-05T06:08:06Z</time>
      </trkpt>
      <trkpt lat="44.38124" lon="6.46706">
        <ele>1193.1</ele>
        <time>2018-08-05T06:08:08Z</time>
      </trkpt>
      <trkpt lat="44.38121" lon="6.46702">
        <ele>1193.5</ele>
        <time>2018-08-05T06:08:10Z</time>
      </trkpt>
      <trkpt lat="44.38117" lon="6.46698">
        <ele>1194</ele>
        <time>2018-08-05T06:08:12Z</time>
      </trkpt>
      <trkpt lat="44.38114" lon="6.46693">
        <ele>1194.5</ele>
        <time>2018-08-05T06:08:14Z</time>
      </trkpt>
      <trkpt lat="44.38111" lon="6.46691">
        <ele>1194.9</ele>
        <time>2018-08-05T06:08:16Z</time>
      </trkpt>
      <trkpt lat="44.38108" lon="6.46688">
        <ele>1195.3</ele>
        <time>2018-08-05T06:08:18Z</time>
      </trkpt>
      <trkpt lat="44.38103" lon="6.46685">
        <ele>1195.8</ele>
        <time>2018-08-05T06:08:20Z</time>
      </trkpt>
      <trkpt lat="44.38098" lon="6.46685">
        <ele>1196.3</ele>
        <time>2018-08-05T06:08:22Z</time>
      </trkpt>
      <trkpt lat="44.38094" lon="6.46685">
        <ele>1196.6</ele>
        <time>2018-08-05T06:08:24Z</time>
      </trkpt>
      <trkpt lat="44.38092" lon="6.46683">
        <ele>1196.9</ele>
        <time>2018-08-05T06:08:26Z</time>
      </trkpt>
      <trkpt lat="44.38088" lon="6.46681">
        <ele>1197.2</ele>
        <time>2018-08-05T06:08:28Z</time>
      </trkpt>
      <trkpt lat="44.38085" lon="6.46681">
        <ele>1197.3</ele>
        <time>2018-08-05T06:08:30Z</time>
      </trkpt>
      <trkpt lat="44.38081" lon="6.46679">
        <ele>1197.5</ele>
        <time>2018-08-05T06:08:32Z</time>
      </trkpt>
      <trkpt lat="44.38077" lon="6.46676">
        <ele>1197.8</ele>
        <time>2018-08-05T06:08:34Z</time>
      </trkpt>
      <trkpt lat="44.38073" lon="6.46675">
        <ele>1198</ele>
        <time>2018-08-05T06:08:36Z</time>
      </trkpt>
      <trkpt lat="44.38068" lon="6.46673">
        <ele>1198.1</ele>
        <time>2018-08-05T06:08:38Z</time>
      </trkpt>
      <trkpt lat="44.38066" lon="6.46672">
        <ele>1198.2</ele>
        <time>2018-08-05T06:08:39Z</time>
      </trkpt>
      <trkpt lat="44.38062" lon="6.46669">
        <ele>1198.4</ele>
        <time>2018-08-05T06:08:41Z</time>
      </trkpt>
      <trkpt lat="44.38058" lon="6.46668">
        <ele>1198.5</ele>
        <time>2018-08-05T06:08:43Z</time>
      </trkpt>
      <trkpt lat="44.38056" lon="6.46665">
        <ele>1198.6</ele>
        <time>2018-08-05T06:08:44Z</time>
      </trkpt>
      <trkpt lat="44.38052" lon="6.46663">
        <ele>1198.8</ele>
        <time>2018-08-05T06:08:46Z</time>
      </trkpt>
      <trkpt lat="44.38048" lon="6.46661">
        <ele>1198.9</ele>
        <time>2018-08-05T06:08:48Z</time>
      </trkpt>
      <trkpt lat="44.38044" lon="6.46657">
        <ele>1199.1</ele>
        <time>2018-08-05T06:08:50Z</time>
      </trkpt>
      <trkpt lat="44.3804" lon="6.46655">
        <ele>1199.3</ele>
        <time>2018-08-05T06:08:52Z</time>
      </trkpt>
      <trkpt lat="44.38036" lon="6.46651">
        <ele>1199.6</ele>
        <time>2018-08-05T06:08:54Z</time>
      </trkpt>
      <trkpt lat="44.38033" lon="6.4665">
        <ele>1199.7</ele>
        <time>2018-08-05T06:08:55Z</time>
      </trkpt>
      <trkpt lat="44.3803" lon="6.46648">
        <ele>1199.8</ele>
        <time>2018-08-05T06:08:56Z</time>
      </trkpt>
      <trkpt lat="44.38027" lon="6.46644">
        <ele>1200.1</ele>
        <time>2018-08-05T06:08:58Z</time>
      </trkpt>
      <trkpt lat="44.38023" lon="6.46643">
        <ele>1200.5</ele>
        <time>2018-08-05T06:09:00Z</time>
      </trkpt>
      <trkpt lat="44.3802" lon="6.4664">
        <ele>1200.9</ele>
        <time>2018-08-05T06:09:02Z</time>
      </trkpt>
      <trkpt lat="44.38016" lon="6.46639">
        <ele>1201.3</ele>
        <time>2018-08-05T06:09:04Z</time>
      </trkpt>
      <trkpt lat="44.38011" lon="6.46636">
        <ele>1201.7</ele>
        <time>2018-08-05T06:09:06Z</time>
      </trkpt>
      <trkpt lat="44.38006" lon="6.46636">
        <ele>1202.3</ele>
        <time>2018-08-05T06:09:08Z</time>
      </trkpt>
      <trkpt lat="44.38001" lon="6.46634">
        <ele>1202.9</ele>
        <time>2018-08-05T06:09:10Z</time>
      </trkpt>
      <trkpt lat="44.37997" lon="6.46633">
        <ele>1203.4</ele>
        <time>2018-08-05T06:09:12Z</time>
      </trkpt>
      <trkpt lat="44.37992" lon="6.46634">
        <ele>1204</ele>
        <time>2018-08-05T06:09:14Z</time>
      </trkpt>
      <trkpt lat="44.37988" lon="6.4663">
        <ele>1204.6</ele>
        <time>2018-08-05T06:09:16Z</time>
      </trkpt>
      <trkpt lat="44.37984" lon="6.4663">
        <ele>1205.1</ele>
        <time>2018-08-05T06:09:19Z</time>
      </trkpt>
      <trkpt lat="44.37979" lon="6.4663">
        <ele>1205.8</ele>
        <time>2018-08-05T06:09:21Z</time>
      </trkpt>
      <trkpt lat="44.37976" lon="6.46627">
        <ele>1206.2</ele>
        <time>2018-08-05T06:09:22Z</time>
      </trkpt>
      <trkpt lat="44.37972" lon="6.46626">
        <ele>1206.8</ele>
        <time>2018-08-05T06:09:24Z</time>
      </trkpt>
      <trkpt lat="44.37968" lon="6.46623">
        <ele>1207.4</ele>
        <time>2018-08-05T06:09:26Z</time>
      </trkpt>
      <trkpt lat="44.37965" lon="6.46622">
        <ele>1207.9</ele>
        <time>2018-08-05T06:09:27Z</time>
      </trkpt>
      <trkpt lat="44.37962" lon="6.46622">
        <ele>1208.4</ele>
        <time>2018-08-05T06:09:29Z</time>
      </trkpt>
      <trkpt lat="44.37959" lon="6.46621">
        <ele>1208.8</ele>
        <time>2018-08-05T06:09:30Z</time>
      </trkpt>
      <trkpt lat="44.37954" lon="6.4662">
        <ele>1209.5</ele>
        <time>2018-08-05T06:09:32Z</time>
      </trkpt>
      <trkpt lat="44.3795" lon="6.46619">
        <ele>1210.1</ele>
        <time>2018-08-05T06:09:34Z</time>
      </trkpt>
      <trkpt lat="44.37945" lon="6.46618">
        <ele>1210.8</ele>
        <time>2018-08-05T06:09:36Z</time>
      </trkpt>
      <trkpt lat="44.37941" lon="6.46618">
        <ele>1211.5</ele>
        <time>2018-08-05T06:09:38Z</time>
      </trkpt>
      <trkpt lat="44.37936" lon="6.46621">
        <ele>1212.1</ele>
        <time>2018-08-05T06:09:40Z</time>
      </trkpt>
      <trkpt lat="44.37933" lon="6.46619">
        <ele>1212.6</ele>
        <time>2018-08-05T06:09:41Z</time>
      </trkpt>
      <trkpt lat="44.37931" lon="6.46619">
        <ele>1212.9</ele>
        <time>2018-08-05T06:09:42Z</time>
      </trkpt>
      <trkpt lat="44.37928" lon="6.4662">
        <ele>1213.3</ele>
        <time>2018-08-05T06:09:43Z</time>
      </trkpt>
      <trkpt lat="44.37923" lon="6.4662">
        <ele>1214</ele>
        <time>2018-08-05T06:09:45Z</time>
      </trkpt>
      <trkpt lat="44.37919" lon="6.46619">
        <ele>1214.4</ele>
        <time>2018-08-05T06:09:47Z</time>
      </trkpt>
      <trkpt lat="44.37915" lon="6.46619">
        <ele>1214.9</ele>
        <time>2018-08-05T06:09:49Z</time>
      </trkpt>
      <trkpt lat="44.37911" lon="6.46617">
        <ele>1215.3</ele>
        <time>2018-08-05T06:09:51Z</time>
      </trkpt>
      <trkpt lat="44.37907" lon="6.46618">
        <ele>1215.7</ele>
        <time>2018-08-05T06:09:53Z</time>
      </trkpt>
      <trkpt lat="44.37903" lon="6.46618">
        <ele>1216</ele>
        <time>2018-08-05T06:09:55Z</time>
      </trkpt>
      <trkpt lat="44.37898" lon="6.4662">
        <ele>1216.4</ele>
        <time>2018-08-05T06:09:57Z</time>
      </trkpt>
      <trkpt lat="44.37895" lon="6.4662">
        <ele>1216.5</ele>
        <time>2018-08-05T06:09:59Z</time>
      </trkpt>
      <trkpt lat="44.37891" lon="6.46618">
        <ele>1216.6</ele>
        <time>2018-08-05T06:10:01Z</time>
      </trkpt>
      <trkpt lat="44.37887" lon="6.46618">
        <ele>1216.8</ele>
        <time>2018-08-05T06:10:03Z</time>
      </trkpt>
      <trkpt lat="44.37883" lon="6.46619">
        <ele>1217</ele>
        <time>2018-08-05T06:10:05Z</time>
      </trkpt>
      <trkpt lat="44.3788" lon="6.46619">
        <ele>1217.1</ele>
        <time>2018-08-05T06:10:06Z</time>
      </trkpt>
      <trkpt lat="44.37877" lon="6.46619">
        <ele>1217.2</ele>
        <time>2018-08-05T06:10:07Z</time>
      </trkpt>
      <trkpt lat="44.37873" lon="6.46618">
        <ele>1217.3</ele>
        <time>2018-08-05T06:10:09Z</time>
      </trkpt>
      <trkpt lat="44.37869" lon="6.46616">
        <ele>1217.5</ele>
        <time>2018-08-05T06:10:11Z</time>
      </trkpt>
      <trkpt lat="44.37865" lon="6.46615">
        <ele>1217.7</ele>
        <time>2018-08-05T06:10:13Z</time>
      </trkpt>
      <trkpt lat="44.37861" lon="6.46614">
        <ele>1217.9</ele>
        <time>2018-08-05T06:10:15Z</time>
      </trkpt>
      <trkpt lat="44.37857" lon="6.46613">
        <ele>1218</ele>
        <time>2018-08-05T06:10:17Z</time>
      </trkpt>
      <trkpt lat="44.37854" lon="6.46611">
        <ele>1218.1</ele>
        <time>2018-08-05T06:10:19Z</time>
      </trkpt>
      <trkpt lat="44.3785" lon="6.4661">
        <ele>1218.3</ele>
        <time>2018-08-05T06:10:21Z</time>
      </trkpt>
      <trkpt lat="44.37846" lon="6.46607">
        <ele>1218.4</ele>
        <time>2018-08-05T06:10:23Z</time>
      </trkpt>
      <trkpt lat="44.37843" lon="6.46604">
        <ele>1218.5</ele>
        <time>2018-08-05T06:10:25Z</time>
      </trkpt>
      <trkpt lat="44.37841" lon="6.466">
        <ele>1218.6</ele>
        <time>2018-08-05T06:10:27Z</time>
      </trkpt>
      <trkpt lat="44.37838" lon="6.46596">
        <ele>1218.7</ele>
        <time>2018-08-05T06:10:29Z</time>
      </trkpt>
      <trkpt lat="44.37836" lon="6.46591">
        <ele>1218.9</ele>
        <time>2018-08-05T06:10:31Z</time>
      </trkpt>
      <trkpt lat="44.37835" lon="6.46587">
        <ele>1218.9</ele>
        <time>2018-08-05T06:10:33Z</time>
      </trkpt>
      <trkpt lat="44.37834" lon="6.46582">
        <ele>1219</ele>
        <time>2018-08-05T06:10:35Z</time>
      </trkpt>
      <trkpt lat="44.37833" lon="6.46577">
        <ele>1219.1</ele>
        <time>2018-08-05T06:10:37Z</time>
      </trkpt>
      <trkpt lat="44.37832" lon="6.46572">
        <ele>1219.2</ele>
        <time>2018-08-05T06:10:39Z</time>
      </trkpt>
      <trkpt lat="44.37831" lon="6.46566">
        <ele>1219.4</ele>
        <time>2018-08-05T06:10:41Z</time>
      </trkpt>
      <trkpt lat="44.3783" lon="6.46559">
        <ele>1219.5</ele>
        <time>2018-08-05T06:10:43Z</time>
      </trkpt>
      <trkpt lat="44.37828" lon="6.46554">
        <ele>1219.7</ele>
        <time>2018-08-05T06:10:45Z</time>
      </trkpt>
      <trkpt lat="44.37827" lon="6.46549">
        <ele>1219.8</ele>
        <time>2018-08-05T06:10:47Z</time>
      </trkpt>
      <trkpt lat="44.37825" lon="6.46543">
        <ele>1220</ele>
        <time>2018-08-05T06:10:49Z</time>
      </trkpt>
      <trkpt lat="44.37823" lon="6.46538">
        <ele>1220.2</ele>
        <time>2018-08-05T06:10:51Z</time>
      </trkpt>
      <trkpt lat="44.3782" lon="6.46537">
        <ele>1220.4</ele>
        <time>2018-08-05T06:10:52Z</time>
      </trkpt>
      <trkpt lat="44.37817" lon="6.46534">
        <ele>1220.5</ele>
        <time>2018-08-05T06:10:54Z</time>
      </trkpt>
      <trkpt lat="44.37813" lon="6.46534">
        <ele>1220.7</ele>
        <time>2018-08-05T06:10:55Z</time>
      </trkpt>
      <trkpt lat="44.37809" lon="6.46534">
        <ele>1221</ele>
        <time>2018-08-05T06:10:57Z</time>
      </trkpt>
      <trkpt lat="44.37806" lon="6.46536">
        <ele>1219.9</ele>
        <time>2018-08-05T06:10:59Z</time>
      </trkpt>
      <trkpt lat="44.37801" lon="6.46538">
        <ele>1218.4</ele>
        <time>2018-08-05T06:11:01Z</time>
      </trkpt>
      <trkpt lat="44.37798" lon="6.46544">
        <ele>1216.9</ele>
        <time>2018-08-05T06:11:03Z</time>
      </trkpt>
      <trkpt lat="44.37796" lon="6.46548">
        <ele>1216.1</ele>
        <time>2018-08-05T06:11:05Z</time>
      </trkpt>
      <trkpt lat="44.37794" lon="6.46553">
        <ele>1215.2</ele>
        <time>2018-08-05T06:11:07Z</time>
      </trkpt>
      <trkpt lat="44.37791" lon="6.46559">
        <ele>1214.8</ele>
        <time>2018-08-05T06:11:09Z</time>
      </trkpt>
      <trkpt lat="44.37789" lon="6.46562">
        <ele>1214.5</ele>
        <time>2018-08-05T06:11:10Z</time>
      </trkpt>
      <trkpt lat="44.37786" lon="6.46566">
        <ele>1214.1</ele>
        <time>2018-08-05T06:11:12Z</time>
      </trkpt>
      <trkpt lat="44.37783" lon="6.46572">
        <ele>1213.6</ele>
        <time>2018-08-05T06:11:14Z</time>
      </trkpt>
      <trkpt lat="44.37779" lon="6.46576">
        <ele>1213.2</ele>
        <time>2018-08-05T06:11:16Z</time>
      </trkpt>
      <trkpt lat="44.37776" lon="6.46578">
        <ele>1212.9</ele>
        <time>2018-08-05T06:11:18Z</time>
      </trkpt>
      <trkpt lat="44.37773" lon="6.46578">
        <ele>1212.7</ele>
        <time>2018-08-05T06:11:20Z</time>
      </trkpt>
      <trkpt lat="44.37767" lon="6.46579">
        <ele>1212.2</ele>
        <time>2018-08-05T06:11:22Z</time>
      </trkpt>
      <trkpt lat="44.37764" lon="6.4658">
        <ele>1211.9</ele>
        <time>2018-08-05T06:11:24Z</time>
      </trkpt>
      <trkpt lat="44.3776" lon="6.46578">
        <ele>1211.5</ele>
        <time>2018-08-05T06:11:26Z</time>
      </trkpt>
      <trkpt lat="44.37756" lon="6.46577">
        <ele>1211.1</ele>
        <time>2018-08-05T06:11:28Z</time>
      </trkpt>
      <trkpt lat="44.37752" lon="6.46575">
        <ele>1210.6</ele>
        <time>2018-08-05T06:11:30Z</time>
      </trkpt>
      <trkpt lat="44.37747" lon="6.46573">
        <ele>1209.9</ele>
        <time>2018-08-05T06:11:32Z</time>
      </trkpt>
      <trkpt lat="44.37743" lon="6.46571">
        <ele>1209.5</ele>
        <time>2018-08-05T06:11:34Z</time>
      </trkpt>
      <trkpt lat="44.37738" lon="6.46569">
        <ele>1209</ele>
        <time>2018-08-05T06:11:36Z</time>
      </trkpt>
      <trkpt lat="44.37732" lon="6.46568">
        <ele>1208.5</ele>
        <time>2018-08-05T06:11:38Z</time>
      </trkpt>
      <trkpt lat="44.37728" lon="6.46569">
        <ele>1207.9</ele>
        <time>2018-08-05T06:11:40Z</time>
      </trkpt>
      <trkpt lat="44.37724" lon="6.46567">
        <ele>1207.5</ele>
        <time>2018-08-05T06:11:42Z</time>
      </trkpt>
      <trkpt lat="44.37722" lon="6.46564">
        <ele>1207.2</ele>
        <time>2018-08-05T06:11:43Z</time>
      </trkpt>
      <trkpt lat="44.37718" lon="6.46564">
        <ele>1206.8</ele>
        <time>2018-08-05T06:11:45Z</time>
      </trkpt>
      <trkpt lat="44.37715" lon="6.46561">
        <ele>1206.5</ele>
        <time>2018-08-05T06:11:47Z</time>
      </trkpt>
      <trkpt lat="44.37711" lon="6.46562">
        <ele>1206.2</ele>
        <time>2018-08-05T06:11:49Z</time>
      </trkpt>
      <trkpt lat="44.37706" lon="6.46562">
        <ele>1205.8</ele>
        <time>2018-08-05T06:11:51Z</time>
      </trkpt>
      <trkpt lat="44.37702" lon="6.46563">
        <ele>1205.5</ele>
        <time>2018-08-05T06:11:52Z</time>
      </trkpt>
      <trkpt lat="44.37697" lon="6.46562">
        <ele>1205.1</ele>
        <time>2018-08-05T06:11:54Z</time>
      </trkpt>
      <trkpt lat="44.37694" lon="6.4656">
        <ele>1204.8</ele>
        <time>2018-08-05T06:11:55Z</time>
      </trkpt>
      <trkpt lat="44.37689" lon="6.46557">
        <ele>1204.2</ele>
        <time>2018-08-05T06:11:57Z</time>
      </trkpt>
      <trkpt lat="44.37684" lon="6.46555">
        <ele>1203.8</ele>
        <time>2018-08-05T06:11:59Z</time>
      </trkpt>
      <trkpt lat="44.37683" lon="6.46552">
        <ele>1203.5</ele>
        <time>2018-08-05T06:12:00Z</time>
      </trkpt>
      <trkpt lat="44.37679" lon="6.46549">
        <ele>1203.1</ele>
        <time>2018-08-05T06:12:02Z</time>
      </trkpt>
      <trkpt lat="44.37676" lon="6.46547">
        <ele>1202.9</ele>
        <time>2018-08-05T06:12:03Z</time>
      </trkpt>
      <trkpt lat="44.37671" lon="6.46544">
        <ele>1202.5</ele>
        <time>2018-08-05T06:12:05Z</time>
      </trkpt>
      <trkpt lat="44.37668" lon="6.46542">
        <ele>1202.1</ele>
        <time>2018-08-05T06:12:07Z</time>
      </trkpt>
      <trkpt lat="44.37664" lon="6.46537">
        <ele>1201.6</ele>
        <time>2018-08-05T06:12:09Z</time>
      </trkpt>
      <trkpt lat="44.37662" lon="6.46532">
        <ele>1200.9</ele>
        <time>2018-08-05T06:12:11Z</time>
      </trkpt>
      <trkpt lat="44.3766" lon="6.46527">
        <ele>1200.3</ele>
        <time>2018-08-05T06:12:13Z</time>
      </trkpt>
      <trkpt lat="44.3766" lon="6.46521">
        <ele>1199.6</ele>
        <time>2018-08-05T06:12:15Z</time>
      </trkpt>
      <trkpt lat="44.37659" lon="6.46515">
        <ele>1200.4</ele>
        <time>2018-08-05T06:12:17Z</time>
      </trkpt>
      <trkpt lat="44.37656" lon="6.4651">
        <ele>1201.6</ele>
        <time>2018-08-05T06:12:19Z</time>
      </trkpt>
      <trkpt lat="44.37654" lon="6.46506">
        <ele>1202.4</ele>
        <time>2018-08-05T06:12:21Z</time>
      </trkpt>
      <trkpt lat="44.37652" lon="6.46502">
        <ele>1203.1</ele>
        <time>2018-08-05T06:12:23Z</time>
      </trkpt>
      <trkpt lat="44.37649" lon="6.46497">
        <ele>1204</ele>
        <time>2018-08-05T06:12:25Z</time>
      </trkpt>
      <trkpt lat="44.37648" lon="6.46492">
        <ele>1204.8</ele>
        <time>2018-08-05T06:12:27Z</time>
      </trkpt>
      <trkpt lat="44.37646" lon="6.46489">
        <ele>1205.5</ele>
        <time>2018-08-05T06:12:28Z</time>
      </trkpt>
      <trkpt lat="44.37643" lon="6.46484">
        <ele>1206.6</ele>
        <time>2018-08-05T06:12:30Z</time>
      </trkpt>
      <trkpt lat="44.37641" lon="6.4648">
        <ele>1207.5</ele>
        <time>2018-08-05T06:12:32Z</time>
      </trkpt>
      <trkpt lat="44.3764" lon="6.46473">
        <ele>1208.6</ele>
        <time>2018-08-05T06:12:34Z</time>
      </trkpt>
      <trkpt lat="44.37637" lon="6.46468">
        <ele>1209.5</ele>
        <time>2018-08-05T06:12:36Z</time>
      </trkpt>
      <trkpt lat="44.37636" lon="6.46462">
        <ele>1210.6</ele>
        <time>2018-08-05T06:12:38Z</time>
      </trkpt>
      <trkpt lat="44.37634" lon="6.46459">
        <ele>1211.1</ele>
        <time>2018-08-05T06:12:39Z</time>
      </trkpt>
      <trkpt lat="44.3763" lon="6.46456">
        <ele>1211.9</ele>
        <time>2018-08-05T06:12:41Z</time>
      </trkpt>
      <trkpt lat="44.37626" lon="6.46453">
        <ele>1212.8</ele>
        <time>2018-08-05T06:12:43Z</time>
      </trkpt>
      <trkpt lat="44.37623" lon="6.4645">
        <ele>1213.5</ele>
        <time>2018-08-05T06:12:45Z</time>
      </trkpt>
      <trkpt lat="44.37618" lon="6.46447">
        <ele>1214.5</ele>
        <time>2018-08-05T06:12:47Z</time>
      </trkpt>
      <trkpt lat="44.37615" lon="6.46446">
        <ele>1215.1</ele>
        <time>2018-08-05T06:12:48Z</time>
      </trkpt>
      <trkpt lat="44.37611" lon="6.46443">
        <ele>1215.9</ele>
        <time>2018-08-05T06:12:50Z</time>
      </trkpt>
      <trkpt lat="44.37608" lon="6.46439">
        <ele>1216.6</ele>
        <time>2018-08-05T06:12:52Z</time>
      </trkpt>
      <trkpt lat="44.37604" lon="6.46436">
        <ele>1217.2</ele>
        <time>2018-08-05T06:12:54Z</time>
      </trkpt>
      <trkpt lat="44.37601" lon="6.46433">
        <ele>1217.6</ele>
        <time>2018-08-05T06:12:56Z</time>
      </trkpt>
      <trkpt lat="44.37599" lon="6.4643">
        <ele>1218</ele>
        <time>2018-08-05T06:12:57Z</time>
      </trkpt>
      <trkpt lat="44.37594" lon="6.46427">
        <ele>1218.5</ele>
        <time>2018-08-05T06:12:59Z</time>
      </trkpt>
      <trkpt lat="44.37591" lon="6.46423">
        <ele>1219</ele>
        <time>2018-08-05T06:13:01Z</time>
      </trkpt>
      <trkpt lat="44.37587" lon="6.46421">
        <ele>1219.8</ele>
        <time>2018-08-05T06:13:03Z</time>
      </trkpt>
      <trkpt lat="44.37583" lon="6.46418">
        <ele>1220.7</ele>
        <time>2018-08-05T06:13:05Z</time>
      </trkpt>
      <trkpt lat="44.37579" lon="6.46418">
        <ele>1221.5</ele>
        <time>2018-08-05T06:13:07Z</time>
      </trkpt>
      <trkpt lat="44.37575" lon="6.46415">
        <ele>1222.6</ele>
        <time>2018-08-05T06:13:09Z</time>
      </trkpt>
      <trkpt lat="44.37571" lon="6.46413">
        <ele>1223.5</ele>
        <time>2018-08-05T06:13:11Z</time>
      </trkpt>
      <trkpt lat="44.37566" lon="6.46412">
        <ele>1224.5</ele>
        <time>2018-08-05T06:13:13Z</time>
      </trkpt>
      <trkpt lat="44.37564" lon="6.46411">
        <ele>1225.2</ele>
        <time>2018-08-05T06:13:14Z</time>
      </trkpt>
      <trkpt lat="44.3756" lon="6.4641">
        <ele>1226.1</ele>
        <time>2018-08-05T06:13:16Z</time>
      </trkpt>
      <trkpt lat="44.37555" lon="6.4641">
        <ele>1227.2</ele>
        <time>2018-08-05T06:13:18Z</time>
      </trkpt>
      <trkpt lat="44.37551" lon="6.46411">
        <ele>1228</ele>
        <time>2018-08-05T06:13:20Z</time>
      </trkpt>
      <trkpt lat="44.37549" lon="6.46409">
        <ele>1228.7</ele>
        <time>2018-08-05T06:13:21Z</time>
      </trkpt>
      <trkpt lat="44.37544" lon="6.46406">
        <ele>1230</ele>
        <time>2018-08-05T06:13:23Z</time>
      </trkpt>
      <trkpt lat="44.3754" lon="6.46406">
        <ele>1230.9</ele>
        <time>2018-08-05T06:13:25Z</time>
      </trkpt>
      <trkpt lat="44.37537" lon="6.46406">
        <ele>1231.8</ele>
        <time>2018-08-05T06:13:27Z</time>
      </trkpt>
      <trkpt lat="44.37533" lon="6.46404">
        <ele>1232.7</ele>
        <time>2018-08-05T06:13:29Z</time>
      </trkpt>
      <trkpt lat="44.37529" lon="6.46405">
        <ele>1233.5</ele>
        <time>2018-08-05T06:13:31Z</time>
      </trkpt>
      <trkpt lat="44.37524" lon="6.46405">
        <ele>1234.4</ele>
        <time>2018-08-05T06:13:33Z</time>
      </trkpt>
      <trkpt lat="44.37521" lon="6.46406">
        <ele>1235.3</ele>
        <time>2018-08-05T06:13:35Z</time>
      </trkpt>
      <trkpt lat="44.37515" lon="6.46407">
        <ele>1236.6</ele>
        <time>2018-08-05T06:13:37Z</time>
      </trkpt>
      <trkpt lat="44.37512" lon="6.46407">
        <ele>1237.3</ele>
        <time>2018-08-05T06:13:39Z</time>
      </trkpt>
      <trkpt lat="44.37509" lon="6.46409">
        <ele>1238.1</ele>
        <time>2018-08-05T06:13:41Z</time>
      </trkpt>
      <trkpt lat="44.37506" lon="6.46409">
        <ele>1238.7</ele>
        <time>2018-08-05T06:13:43Z</time>
      </trkpt>
      <trkpt lat="44.37502" lon="6.46408">
        <ele>1239.6</ele>
        <time>2018-08-05T06:13:45Z</time>
      </trkpt>
      <trkpt lat="44.37498" lon="6.4641">
        <ele>1240.4</ele>
        <time>2018-08-05T06:13:47Z</time>
      </trkpt>
      <trkpt lat="44.37493" lon="6.46411">
        <ele>1241.2</ele>
        <time>2018-08-05T06:13:49Z</time>
      </trkpt>
      <trkpt lat="44.37489" lon="6.46411">
        <ele>1241.9</ele>
        <time>2018-08-05T06:13:51Z</time>
      </trkpt>
      <trkpt lat="44.37487" lon="6.46413">
        <ele>1242.3</ele>
        <time>2018-08-05T06:13:52Z</time>
      </trkpt>
      <trkpt lat="44.37483" lon="6.46415">
        <ele>1242.8</ele>
        <time>2018-08-05T06:13:54Z</time>
      </trkpt>
      <trkpt lat="44.37481" lon="6.46419">
        <ele>1243.3</ele>
        <time>2018-08-05T06:13:56Z</time>
      </trkpt>
      <trkpt lat="44.37478" lon="6.46421">
        <ele>1243.7</ele>
        <time>2018-08-05T06:13:58Z</time>
      </trkpt>
      <trkpt lat="44.37474" lon="6.46423">
        <ele>1244.3</ele>
        <time>2018-08-05T06:14:00Z</time>
      </trkpt>
      <trkpt lat="44.37471" lon="6.46424">
        <ele>1244.5</ele>
        <time>2018-08-05T06:14:02Z</time>
      </trkpt>
      <trkpt lat="44.37468" lon="6.46425">
        <ele>1244.8</ele>
        <time>2018-08-05T06:14:03Z</time>
      </trkpt>
      <trkpt lat="44.37464" lon="6.46426">
        <ele>1245.3</ele>
        <time>2018-08-05T06:14:05Z</time>
      </trkpt>
      <trkpt lat="44.37461" lon="6.46431">
        <ele>1245.7</ele>
        <time>2018-08-05T06:14:07Z</time>
      </trkpt>
      <trkpt lat="44.37457" lon="6.46434">
        <ele>1246.1</ele>
        <time>2018-08-05T06:14:09Z</time>
      </trkpt>
      <trkpt lat="44.37453" lon="6.46437">
        <ele>1246.7</ele>
        <time>2018-08-05T06:14:11Z</time>
      </trkpt>
      <trkpt lat="44.37449" lon="6.46441">
        <ele>1247.5</ele>
        <time>2018-08-05T06:14:13Z</time>
      </trkpt>
      <trkpt lat="44.37445" lon="6.46444">
        <ele>1248.3</ele>
        <time>2018-08-05T06:14:15Z</time>
      </trkpt>
      <trkpt lat="44.3744" lon="6.46446">
        <ele>1249.1</ele>
        <time>2018-08-05T06:14:17Z</time>
      </trkpt>
      <trkpt lat="44.37437" lon="6.46447">
        <ele>1249.5</ele>
        <time>2018-08-05T06:14:19Z</time>
      </trkpt>
      <trkpt lat="44.37434" lon="6.46447">
        <ele>1249.9</ele>
        <time>2018-08-05T06:14:21Z</time>
      </trkpt>
      <trkpt lat="44.37431" lon="6.46446">
        <ele>1250.4</ele>
        <time>2018-08-05T06:14:24Z</time>
      </trkpt>
      <trkpt lat="44.37428" lon="6.46444">
        <ele>1250.9</ele>
        <time>2018-08-05T06:14:25Z</time>
      </trkpt>
      <trkpt lat="44.37425" lon="6.46444">
        <ele>1251.3</ele>
        <time>2018-08-05T06:14:27Z</time>
      </trkpt>
      <trkpt lat="44.37421" lon="6.46447">
        <ele>1252</ele>
        <time>2018-08-05T06:14:29Z</time>
      </trkpt>
      <trkpt lat="44.37418" lon="6.46448">
        <ele>1252.3</ele>
        <time>2018-08-05T06:14:30Z</time>
      </trkpt>
      <trkpt lat="44.37414" lon="6.46446">
        <ele>1252.8</ele>
        <time>2018-08-05T06:14:32Z</time>
      </trkpt>
      <trkpt lat="44.37411" lon="6.46448">
        <ele>1252.9</ele>
        <time>2018-08-05T06:14:33Z</time>
      </trkpt>
      <trkpt lat="44.37406" lon="6.4645">
        <ele>1253</ele>
        <time>2018-08-05T06:14:35Z</time>
      </trkpt>
      <trkpt lat="44.37404" lon="6.46452">
        <ele>1253.1</ele>
        <time>2018-08-05T06:14:36Z</time>
      </trkpt>
      <trkpt lat="44.37401" lon="6.46455">
        <ele>1253.1</ele>
        <time>2018-08-05T06:14:37Z</time>
      </trkpt>
      <trkpt lat="44.37399" lon="6.46458">
        <ele>1253.2</ele>
        <time>2018-08-05T06:14:38Z</time>
      </trkpt>
      <trkpt lat="44.37396" lon="6.4646">
        <ele>1253.3</ele>
        <time>2018-08-05T06:14:39Z</time>
      </trkpt>
      <trkpt lat="44.37393" lon="6.46462">
        <ele>1253.3</ele>
        <time>2018-08-05T06:14:40Z</time>
      </trkpt>
      <trkpt lat="44.37389" lon="6.46464">
        <ele>1253.4</ele>
        <time>2018-08-05T06:14:41Z</time>
      </trkpt>
      <trkpt lat="44.37386" lon="6.46466">
        <ele>1253.6</ele>
        <time>2018-08-05T06:14:42Z</time>
      </trkpt>
      <trkpt lat="44.37383" lon="6.46467">
        <ele>1253.9</ele>
        <time>2018-08-05T06:14:43Z</time>
      </trkpt>
      <trkpt lat="44.37379" lon="6.46467">
        <ele>1254.2</ele>
        <time>2018-08-05T06:14:44Z</time>
      </trkpt>
      <trkpt lat="44.37375" lon="6.46465">
        <ele>1254.3</ele>
        <time>2018-08-05T06:14:45Z</time>
      </trkpt>
      <trkpt lat="44.37372" lon="6.46462">
        <ele>1254.4</ele>
        <time>2018-08-05T06:14:46Z</time>
      </trkpt>
      <trkpt lat="44.3737" lon="6.4646">
        <ele>1254.4</ele>
        <time>2018-08-05T06:14:47Z</time>
      </trkpt>
      <trkpt lat="44.37368" lon="6.46454">
        <ele>1254.5</ele>
        <time>2018-08-05T06:14:48Z</time>
      </trkpt>
      <trkpt lat="44.37367" lon="6.4645">
        <ele>1254.5</ele>
        <time>2018-08-05T06:14:49Z</time>
      </trkpt>
      <trkpt lat="44.37366" lon="6.46446">
        <ele>1254.5</ele>
        <time>2018-08-05T06:14:50Z</time>
      </trkpt>
      <trkpt lat="44.37365" lon="6.4644">
        <ele>1254.5</ele>
        <time>2018-08-05T06:14:52Z</time>
      </trkpt>
      <trkpt lat="44.37362" lon="6.46437">
        <ele>1254.5</ele>
        <time>2018-08-05T06:14:53Z</time>
      </trkpt>
      <trkpt lat="44.37361" lon="6.46431">
        <ele>1254.5</ele>
        <time>2018-08-05T06:14:54Z</time>
      </trkpt>
      <trkpt lat="44.37359" lon="6.46427">
        <ele>1254.5</ele>
        <time>2018-08-05T06:14:55Z</time>
      </trkpt>
      <trkpt lat="44.37357" lon="6.46422">
        <ele>1254.5</ele>
        <time>2018-08-05T06:14:56Z</time>
      </trkpt>
      <trkpt lat="44.37354" lon="6.46419">
        <ele>1254.5</ele>
        <time>2018-08-05T06:14:57Z</time>
      </trkpt>
      <trkpt lat="44.37351" lon="6.46417">
        <ele>1254.5</ele>
        <time>2018-08-05T06:14:58Z</time>
      </trkpt>
      <trkpt lat="44.37349" lon="6.46413">
        <ele>1254.5</ele>
        <time>2018-08-05T06:14:59Z</time>
      </trkpt>
      <trkpt lat="44.37346" lon="6.46411">
        <ele>1254.4</ele>
        <time>2018-08-05T06:15:00Z</time>
      </trkpt>
      <trkpt lat="44.37344" lon="6.46407">
        <ele>1254.4</ele>
        <time>2018-08-05T06:15:01Z</time>
      </trkpt>
      <trkpt lat="44.37342" lon="6.46405">
        <ele>1254.4</ele>
        <time>2018-08-05T06:15:02Z</time>
      </trkpt>
      <trkpt lat="44.3734" lon="6.46402">
        <ele>1254.4</ele>
        <time>2018-08-05T06:15:03Z</time>
      </trkpt>
      <trkpt lat="44.37338" lon="6.46398">
        <ele>1254.3</ele>
        <time>2018-08-05T06:15:04Z</time>
      </trkpt>
      <trkpt lat="44.37336" lon="6.46394">
        <ele>1254.3</ele>
        <time>2018-08-05T06:15:05Z</time>
      </trkpt>
      <trkpt lat="44.37335" lon="6.46387">
        <ele>1254.2</ele>
        <time>2018-08-05T06:15:07Z</time>
      </trkpt>
      <trkpt lat="44.37333" lon="6.4638">
        <ele>1254.2</ele>
        <time>2018-08-05T06:15:09Z</time>
      </trkpt>
      <trkpt lat="44.37329" lon="6.46375">
        <ele>1254.1</ele>
        <time>2018-08-05T06:15:11Z</time>
      </trkpt>
      <trkpt lat="44.37325" lon="6.46371">
        <ele>1254.1</ele>
        <time>2018-08-05T06:15:13Z</time>
      </trkpt>
      <trkpt lat="44.37322" lon="6.46369">
        <ele>1254.1</ele>
        <time>2018-08-05T06:15:14Z</time>
      </trkpt>
      <trkpt lat="44.37317" lon="6.46369">
        <ele>1254</ele>
        <time>2018-08-05T06:15:16Z</time>
      </trkpt>
      <trkpt lat="44.37315" lon="6.46373">
        <ele>1254</ele>
        <time>2018-08-05T06:15:18Z</time>
      </trkpt>
      <trkpt lat="44.37313" lon="6.46375">
        <ele>1253.9</ele>
        <time>2018-08-05T06:15:19Z</time>
      </trkpt>
      <trkpt lat="44.3731" lon="6.4638">
        <ele>1253.8</ele>
        <time>2018-08-05T06:15:21Z</time>
      </trkpt>
      <trkpt lat="44.37311" lon="6.46386">
        <ele>1253.8</ele>
        <time>2018-08-05T06:15:23Z</time>
      </trkpt>
      <trkpt lat="44.37308" lon="6.46394">
        <ele>1253.8</ele>
        <time>2018-08-05T06:15:26Z</time>
      </trkpt>
      <trkpt lat="44.37305" lon="6.46398">
        <ele>1253.7</ele>
        <time>2018-08-05T06:15:27Z</time>
      </trkpt>
      <trkpt lat="44.37302" lon="6.46403">
        <ele>1253.7</ele>
        <time>2018-08-05T06:15:29Z</time>
      </trkpt>
      <trkpt lat="44.37294" lon="6.46406">
        <ele>1253.9</ele>
        <time>2018-08-05T06:15:30Z</time>
      </trkpt>
      <trkpt lat="44.37291" lon="6.4641">
        <ele>1254.1</ele>
        <time>2018-08-05T06:15:31Z</time>
      </trkpt>
      <trkpt lat="44.37289" lon="6.46413">
        <ele>1254.4</ele>
        <time>2018-08-05T06:15:32Z</time>
      </trkpt>
      <trkpt lat="44.37287" lon="6.46417">
        <ele>1254.6</ele>
        <time>2018-08-05T06:15:33Z</time>
      </trkpt>
      <trkpt lat="44.37285" lon="6.46421">
        <ele>1254.7</ele>
        <time>2018-08-05T06:15:34Z</time>
      </trkpt>
      <trkpt lat="44.37283" lon="6.46425">
        <ele>1254.8</ele>
        <time>2018-08-05T06:15:35Z</time>
      </trkpt>
      <trkpt lat="44.37281" lon="6.46428">
        <ele>1254.8</ele>
        <time>2018-08-05T06:15:36Z</time>
      </trkpt>
      <trkpt lat="44.37279" lon="6.4643">
        <ele>1254.9</ele>
        <time>2018-08-05T06:15:37Z</time>
      </trkpt>
      <trkpt lat="44.37276" lon="6.46432">
        <ele>1255</ele>
        <time>2018-08-05T06:15:38Z</time>
      </trkpt>
      <trkpt lat="44.37273" lon="6.46434">
        <ele>1255</ele>
        <time>2018-08-05T06:15:39Z</time>
      </trkpt>
      <trkpt lat="44.37271" lon="6.46435">
        <ele>1255.1</ele>
        <time>2018-08-05T06:15:40Z</time>
      </trkpt>
      <trkpt lat="44.37267" lon="6.46436">
        <ele>1255.1</ele>
        <time>2018-08-05T06:15:41Z</time>
      </trkpt>
      <trkpt lat="44.37264" lon="6.46437">
        <ele>1255.2</ele>
        <time>2018-08-05T06:15:42Z</time>
      </trkpt>
      <trkpt lat="44.37261" lon="6.46437">
        <ele>1255.3</ele>
        <time>2018-08-05T06:15:43Z</time>
      </trkpt>
      <trkpt lat="44.37258" lon="6.46437">
        <ele>1255.4</ele>
        <time>2018-08-05T06:15:44Z</time>
      </trkpt>
      <trkpt lat="44.37255" lon="6.46437">
        <ele>1255.5</ele>
        <time>2018-08-05T06:15:45Z</time>
      </trkpt>
      <trkpt lat="44.37252" lon="6.46437">
        <ele>1255.7</ele>
        <time>2018-08-05T06:15:46Z</time>
      </trkpt>
      <trkpt lat="44.37249" lon="6.46435">
        <ele>1255.9</ele>
        <time>2018-08-05T06:15:47Z</time>
      </trkpt>
      <trkpt lat="44.37246" lon="6.46434">
        <ele>1256</ele>
        <time>2018-08-05T06:15:48Z</time>
      </trkpt>
      <trkpt lat="44.37243" lon="6.46433">
        <ele>1256.1</ele>
        <time>2018-08-05T06:15:49Z</time>
      </trkpt>
      <trkpt lat="44.3724" lon="6.46431">
        <ele>1256.1</ele>
        <time>2018-08-05T06:15:50Z</time>
      </trkpt>
      <trkpt lat="44.37237" lon="6.4643">
        <ele>1256.2</ele>
        <time>2018-08-05T06:15:51Z</time>
      </trkpt>
      <trkpt lat="44.37234" lon="6.46428">
        <ele>1256.2</ele>
        <time>2018-08-05T06:15:52Z</time>
      </trkpt>
      <trkpt lat="44.37231" lon="6.46427">
        <ele>1256.2</ele>
        <time>2018-08-05T06:15:53Z</time>
      </trkpt>
      <trkpt lat="44.37227" lon="6.46425">
        <ele>1256.2</ele>
        <time>2018-08-05T06:15:54Z</time>
      </trkpt>
      <trkpt lat="44.37223" lon="6.46424">
        <ele>1256.2</ele>
        <time>2018-08-05T06:15:55Z</time>
      </trkpt>
      <trkpt lat="44.3722" lon="6.46423">
        <ele>1256.3</ele>
        <time>2018-08-05T06:15:56Z</time>
      </trkpt>
      <trkpt lat="44.37216" lon="6.46422">
        <ele>1256.3</ele>
        <time>2018-08-05T06:15:57Z</time>
      </trkpt>
      <trkpt lat="44.37213" lon="6.46421">
        <ele>1256.3</ele>
        <time>2018-08-05T06:15:58Z</time>
      </trkpt>
      <trkpt lat="44.37209" lon="6.46419">
        <ele>1256.3</ele>
        <time>2018-08-05T06:15:59Z</time>
      </trkpt>
      <trkpt lat="44.37204" lon="6.46419">
        <ele>1256.3</ele>
        <time>2018-08-05T06:16:00Z</time>
      </trkpt>
      <trkpt lat="44.372" lon="6.46418">
        <ele>1256.3</ele>
        <time>2018-08-05T06:16:01Z</time>
      </trkpt>
      <trkpt lat="44.37197" lon="6.46417">
        <ele>1256.3</ele>
        <time>2018-08-05T06:16:02Z</time>
      </trkpt>
      <trkpt lat="44.37193" lon="6.46417">
        <ele>1256.3</ele>
        <time>2018-08-05T06:16:03Z</time>
      </trkpt>
      <trkpt lat="44.3719" lon="6.46416">
        <ele>1256.3</ele>
        <time>2018-08-05T06:16:04Z</time>
      </trkpt>
      <trkpt lat="44.37186" lon="6.46415">
        <ele>1256.2</ele>
        <time>2018-08-05T06:16:05Z</time>
      </trkpt>
      <trkpt lat="44.37182" lon="6.46414">
        <ele>1256.2</ele>
        <time>2018-08-05T06:16:06Z</time>
      </trkpt>
      <trkpt lat="44.37179" lon="6.46414">
        <ele>1256.2</ele>
        <time>2018-08-05T06:16:07Z</time>
      </trkpt>
      <trkpt lat="44.37175" lon="6.46414">
        <ele>1256.2</ele>
        <time>2018-08-05T06:16:08Z</time>
      </trkpt>
      <trkpt lat="44.37172" lon="6.46412">
        <ele>1256.2</ele>
        <time>2018-08-05T06:16:09Z</time>
      </trkpt>
      <trkpt lat="44.37169" lon="6.46411">
        <ele>1256.2</ele>
        <time>2018-08-05T06:16:10Z</time>
      </trkpt>
      <trkpt lat="44.37165" lon="6.46411">
        <ele>1256.2</ele>
        <time>2018-08-05T06:16:11Z</time>
      </trkpt>
      <trkpt lat="44.37162" lon="6.4641">
        <ele>1256.3</ele>
        <time>2018-08-05T06:16:12Z</time>
      </trkpt>
      <trkpt lat="44.37158" lon="6.4641">
        <ele>1256.3</ele>
        <time>2018-08-05T06:16:13Z</time>
      </trkpt>
      <trkpt lat="44.37155" lon="6.46409">
        <ele>1256.3</ele>
        <time>2018-08-05T06:16:14Z</time>
      </trkpt>
      <trkpt lat="44.37151" lon="6.46409">
        <ele>1256.3</ele>
        <time>2018-08-05T06:16:15Z</time>
      </trkpt>
      <trkpt lat="44.37147" lon="6.46408">
        <ele>1256.4</ele>
        <time>2018-08-05T06:16:16Z</time>
      </trkpt>
      <trkpt lat="44.37144" lon="6.46408">
        <ele>1256.4</ele>
        <time>2018-08-05T06:16:17Z</time>
      </trkpt>
      <trkpt lat="44.3714" lon="6.46408">
        <ele>1256.6</ele>
        <time>2018-08-05T06:16:18Z</time>
      </trkpt>
      <trkpt lat="44.37136" lon="6.46408">
        <ele>1256.8</ele>
        <time>2018-08-05T06:16:19Z</time>
      </trkpt>
      <trkpt lat="44.37131" lon="6.46408">
        <ele>1257</ele>
        <time>2018-08-05T06:16:20Z</time>
      </trkpt>
      <trkpt lat="44.37127" lon="6.46409">
        <ele>1257.2</ele>
        <time>2018-08-05T06:16:21Z</time>
      </trkpt>
      <trkpt lat="44.37123" lon="6.4641">
        <ele>1257.4</ele>
        <time>2018-08-05T06:16:22Z</time>
      </trkpt>
      <trkpt lat="44.37119" lon="6.46413">
        <ele>1257.4</ele>
        <time>2018-08-05T06:16:23Z</time>
      </trkpt>
      <trkpt lat="44.37116" lon="6.46414">
        <ele>1257.4</ele>
        <time>2018-08-05T06:16:24Z</time>
      </trkpt>
      <trkpt lat="44.37113" lon="6.46417">
        <ele>1257.4</ele>
        <time>2018-08-05T06:16:25Z</time>
      </trkpt>
      <trkpt lat="44.3711" lon="6.46419">
        <ele>1257.4</ele>
        <time>2018-08-05T06:16:26Z</time>
      </trkpt>
      <trkpt lat="44.37107" lon="6.46424">
        <ele>1257.4</ele>
        <time>2018-08-05T06:16:27Z</time>
      </trkpt>
      <trkpt lat="44.37105" lon="6.46428">
        <ele>1257.4</ele>
        <time>2018-08-05T06:16:28Z</time>
      </trkpt>
      <trkpt lat="44.37102" lon="6.46432">
        <ele>1257.4</ele>
        <time>2018-08-05T06:16:29Z</time>
      </trkpt>
      <trkpt lat="44.37098" lon="6.46437">
        <ele>1257.4</ele>
        <time>2018-08-05T06:16:30Z</time>
      </trkpt>
      <trkpt lat="44.37095" lon="6.46441">
        <ele>1257.3</ele>
        <time>2018-08-05T06:16:31Z</time>
      </trkpt>
      <trkpt lat="44.37092" lon="6.46445">
        <ele>1257.3</ele>
        <time>2018-08-05T06:16:32Z</time>
      </trkpt>
      <trkpt lat="44.37089" lon="6.46448">
        <ele>1257.3</ele>
        <time>2018-08-05T06:16:33Z</time>
      </trkpt>
      <trkpt lat="44.37086" lon="6.46452">
        <ele>1257.3</ele>
        <time>2018-08-05T06:16:34Z</time>
      </trkpt>
      <trkpt lat="44.37083" lon="6.46455">
        <ele>1257.3</ele>
        <time>2018-08-05T06:16:35Z</time>
      </trkpt>
      <trkpt lat="44.3708" lon="6.46458">
        <ele>1257.2</ele>
        <time>2018-08-05T06:16:36Z</time>
      </trkpt>
      <trkpt lat="44.37077" lon="6.46462">
        <ele>1257.2</ele>
        <time>2018-08-05T06:16:37Z</time>
      </trkpt>
      <trkpt lat="44.37074" lon="6.46465">
        <ele>1257.2</ele>
        <time>2018-08-05T06:16:38Z</time>
      </trkpt>
      <trkpt lat="44.37072" lon="6.46469">
        <ele>1257.2</ele>
        <time>2018-08-05T06:16:39Z</time>
      </trkpt>
      <trkpt lat="44.37069" lon="6.46473">
        <ele>1257.2</ele>
        <time>2018-08-05T06:16:40Z</time>
      </trkpt>
      <trkpt lat="44.37066" lon="6.46477">
        <ele>1257.2</ele>
        <time>2018-08-05T06:16:41Z</time>
      </trkpt>
      <trkpt lat="44.37064" lon="6.46481">
        <ele>1257.2</ele>
        <time>2018-08-05T06:16:42Z</time>
      </trkpt>
      <trkpt lat="44.37061" lon="6.46484">
        <ele>1257.1</ele>
        <time>2018-08-05T06:16:43Z</time>
      </trkpt>
      <trkpt lat="44.37058" lon="6.46488">
        <ele>1257.1</ele>
        <time>2018-08-05T06:16:44Z</time>
      </trkpt>
      <trkpt lat="44.37056" lon="6.46492">
        <ele>1257.1</ele>
        <time>2018-08-05T06:16:45Z</time>
      </trkpt>
      <trkpt lat="44.37053" lon="6.46495">
        <ele>1257.1</ele>
        <time>2018-08-05T06:16:46Z</time>
      </trkpt>
      <trkpt lat="44.37049" lon="6.46498">
        <ele>1257.1</ele>
        <time>2018-08-05T06:16:47Z</time>
      </trkpt>
      <trkpt lat="44.37047" lon="6.46501">
        <ele>1257.1</ele>
        <time>2018-08-05T06:16:48Z</time>
      </trkpt>
      <trkpt lat="44.37044" lon="6.46504">
        <ele>1257.1</ele>
        <time>2018-08-05T06:16:49Z</time>
      </trkpt>
      <trkpt lat="44.37041" lon="6.46507">
        <ele>1257</ele>
        <time>2018-08-05T06:16:50Z</time>
      </trkpt>
      <trkpt lat="44.37039" lon="6.4651">
        <ele>1257</ele>
        <time>2018-08-05T06:16:51Z</time>
      </trkpt>
      <trkpt lat="44.37035" lon="6.46514">
        <ele>1257</ele>
        <time>2018-08-05T06:16:53Z</time>
      </trkpt>
      <trkpt lat="44.37031" lon="6.46519">
        <ele>1257.2</ele>
        <time>2018-08-05T06:16:55Z</time>
      </trkpt>
      <trkpt lat="44.37029" lon="6.46521">
        <ele>1257.5</ele>
        <time>2018-08-05T06:16:56Z</time>
      </trkpt>
      <trkpt lat="44.37026" lon="6.46524">
        <ele>1257.8</ele>
        <time>2018-08-05T06:16:57Z</time>
      </trkpt>
      <trkpt lat="44.37023" lon="6.46527">
        <ele>1258.1</ele>
        <time>2018-08-05T06:16:58Z</time>
      </trkpt>
      <trkpt lat="44.37021" lon="6.4653">
        <ele>1258.3</ele>
        <time>2018-08-05T06:16:59Z</time>
      </trkpt>
      <trkpt lat="44.37018" lon="6.46533">
        <ele>1258.6</ele>
        <time>2018-08-05T06:17:00Z</time>
      </trkpt>
      <trkpt lat="44.37016" lon="6.46536">
        <ele>1258.9</ele>
        <time>2018-08-05T06:17:01Z</time>
      </trkpt>
      <trkpt lat="44.37013" lon="6.4654">
        <ele>1259.2</ele>
        <time>2018-08-05T06:17:02Z</time>
      </trkpt>
      <trkpt lat="44.3701" lon="6.46543">
        <ele>1259.5</ele>
        <time>2018-08-05T06:17:03Z</time>
      </trkpt>
      <trkpt lat="44.37007" lon="6.46546">
        <ele>1259.8</ele>
        <time>2018-08-05T06:17:04Z</time>
      </trkpt>
      <trkpt lat="44.37004" lon="6.46549">
        <ele>1260.4</ele>
        <time>2018-08-05T06:17:05Z</time>
      </trkpt>
      <trkpt lat="44.37001" lon="6.46552">
        <ele>1260.9</ele>
        <time>2018-08-05T06:17:06Z</time>
      </trkpt>
      <trkpt lat="44.36998" lon="6.46555">
        <ele>1261.5</ele>
        <time>2018-08-05T06:17:07Z</time>
      </trkpt>
      <trkpt lat="44.36995" lon="6.46558">
        <ele>1261.9</ele>
        <time>2018-08-05T06:17:08Z</time>
      </trkpt>
      <trkpt lat="44.36991" lon="6.46561">
        <ele>1262.3</ele>
        <time>2018-08-05T06:17:09Z</time>
      </trkpt>
      <trkpt lat="44.36988" lon="6.46563">
        <ele>1262.8</ele>
        <time>2018-08-05T06:17:10Z</time>
      </trkpt>
      <trkpt lat="44.36984" lon="6.46563">
        <ele>1263.2</ele>
        <time>2018-08-05T06:17:11Z</time>
      </trkpt>
      <trkpt lat="44.3698" lon="6.46563">
        <ele>1263.6</ele>
        <time>2018-08-05T06:17:12Z</time>
      </trkpt>
      <trkpt lat="44.36977" lon="6.46562">
        <ele>1263.9</ele>
        <time>2018-08-05T06:17:13Z</time>
      </trkpt>
      <trkpt lat="44.36973" lon="6.4656">
        <ele>1264.3</ele>
        <time>2018-08-05T06:17:14Z</time>
      </trkpt>
      <trkpt lat="44.3697" lon="6.46557">
        <ele>1264.6</ele>
        <time>2018-08-05T06:17:15Z</time>
      </trkpt>
      <trkpt lat="44.36966" lon="6.46554">
        <ele>1265</ele>
        <time>2018-08-05T06:17:16Z</time>
      </trkpt>
      <trkpt lat="44.36963" lon="6.46552">
        <ele>1265.5</ele>
        <time>2018-08-05T06:17:17Z</time>
      </trkpt>
      <trkpt lat="44.36959" lon="6.46549">
        <ele>1266.3</ele>
        <time>2018-08-05T06:17:18Z</time>
      </trkpt>
      <trkpt lat="44.36955" lon="6.46546">
        <ele>1267</ele>
        <time>2018-08-05T06:17:19Z</time>
      </trkpt>
      <trkpt lat="44.3695" lon="6.46543">
        <ele>1267.8</ele>
        <time>2018-08-05T06:17:20Z</time>
      </trkpt>
      <trkpt lat="44.36945" lon="6.46541">
        <ele>1268.4</ele>
        <time>2018-08-05T06:17:21Z</time>
      </trkpt>
      <trkpt lat="44.36941" lon="6.46539">
        <ele>1269.1</ele>
        <time>2018-08-05T06:17:22Z</time>
      </trkpt>
      <trkpt lat="44.36936" lon="6.46536">
        <ele>1269.8</ele>
        <time>2018-08-05T06:17:23Z</time>
      </trkpt>
      <trkpt lat="44.36932" lon="6.46537">
        <ele>1270.4</ele>
        <time>2018-08-05T06:17:24Z</time>
      </trkpt>
      <trkpt lat="44.36926" lon="6.46538">
        <ele>1271.2</ele>
        <time>2018-08-05T06:17:25Z</time>
      </trkpt>
      <trkpt lat="44.36922" lon="6.46539">
        <ele>1271.8</ele>
        <time>2018-08-05T06:17:26Z</time>
      </trkpt>
      <trkpt lat="44.3692" lon="6.46543">
        <ele>1272.3</ele>
        <time>2018-08-05T06:17:27Z</time>
      </trkpt>
      <trkpt lat="44.36916" lon="6.46547">
        <ele>1272.9</ele>
        <time>2018-08-05T06:17:28Z</time>
      </trkpt>
      <trkpt lat="44.3691" lon="6.46549">
        <ele>1273.7</ele>
        <time>2018-08-05T06:17:29Z</time>
      </trkpt>
      <trkpt lat="44.36908" lon="6.46552">
        <ele>1274</ele>
        <time>2018-08-05T06:17:30Z</time>
      </trkpt>
      <trkpt lat="44.36903" lon="6.46557">
        <ele>1274.7</ele>
        <time>2018-08-05T06:17:31Z</time>
      </trkpt>
      <trkpt lat="44.369" lon="6.46561">
        <ele>1275.6</ele>
        <time>2018-08-05T06:17:32Z</time>
      </trkpt>
      <trkpt lat="44.36898" lon="6.46565">
        <ele>1276.1</ele>
        <time>2018-08-05T06:17:33Z</time>
      </trkpt>
      <trkpt lat="44.36895" lon="6.46569">
        <ele>1276.5</ele>
        <time>2018-08-05T06:17:34Z</time>
      </trkpt>
      <trkpt lat="44.36895" lon="6.46573">
        <ele>1276.8</ele>
        <time>2018-08-05T06:17:35Z</time>
      </trkpt>
      <trkpt lat="44.36893" lon="6.46577">
        <ele>1277.1</ele>
        <time>2018-08-05T06:17:36Z</time>
      </trkpt>
      <trkpt lat="44.36891" lon="6.46581">
        <ele>1277.5</ele>
        <time>2018-08-05T06:17:37Z</time>
      </trkpt>
      <trkpt lat="44.36888" lon="6.46584">
        <ele>1277.8</ele>
        <time>2018-08-05T06:17:38Z</time>
      </trkpt>
      <trkpt lat="44.36886" lon="6.46587">
        <ele>1278.2</ele>
        <time>2018-08-05T06:17:39Z</time>
      </trkpt>
      <trkpt lat="44.36883" lon="6.46591">
        <ele>1278.6</ele>
        <time>2018-08-05T06:17:40Z</time>
      </trkpt>
      <trkpt lat="44.36879" lon="6.46594">
        <ele>1279.4</ele>
        <time>2018-08-05T06:17:41Z</time>
      </trkpt>
      <trkpt lat="44.36877" lon="6.46598">
        <ele>1280</ele>
        <time>2018-08-05T06:17:42Z</time>
      </trkpt>
      <trkpt lat="44.36874" lon="6.46601">
        <ele>1280.6</ele>
        <time>2018-08-05T06:17:43Z</time>
      </trkpt>
      <trkpt lat="44.36872" lon="6.46604">
        <ele>1281.7</ele>
        <time>2018-08-05T06:17:44Z</time>
      </trkpt>
      <trkpt lat="44.36869" lon="6.46608">
        <ele>1283</ele>
        <time>2018-08-05T06:17:45Z</time>
      </trkpt>
      <trkpt lat="44.36867" lon="6.46613">
        <ele>1284.5</ele>
        <time>2018-08-05T06:17:46Z</time>
      </trkpt>
      <trkpt lat="44.36866" lon="6.46617">
        <ele>1285</ele>
        <time>2018-08-05T06:17:47Z</time>
      </trkpt>
      <trkpt lat="44.36865" lon="6.46622">
        <ele>1285.6</ele>
        <time>2018-08-05T06:17:48Z</time>
      </trkpt>
      <trkpt lat="44.36862" lon="6.46626">
        <ele>1286.3</ele>
        <time>2018-08-05T06:17:49Z</time>
      </trkpt>
      <trkpt lat="44.36866" lon="6.46632">
        <ele>1287.2</ele>
        <time>2018-08-05T06:17:50Z</time>
      </trkpt>
      <trkpt lat="44.36866" lon="6.46637">
        <ele>1287.8</ele>
        <time>2018-08-05T06:17:51Z</time>
      </trkpt>
      <trkpt lat="44.36868" lon="6.46642">
        <ele>1288.5</ele>
        <time>2018-08-05T06:17:52Z</time>
      </trkpt>
      <trkpt lat="44.36871" lon="6.46646">
        <ele>1286</ele>
        <time>2018-08-05T06:17:53Z</time>
      </trkpt>
      <trkpt lat="44.36873" lon="6.4665">
        <ele>1283.6</ele>
        <time>2018-08-05T06:17:54Z</time>
      </trkpt>
      <trkpt lat="44.36875" lon="6.46655">
        <ele>1281.1</ele>
        <time>2018-08-05T06:17:55Z</time>
      </trkpt>
      <trkpt lat="44.36877" lon="6.46659">
        <ele>1278.5</ele>
        <time>2018-08-05T06:17:56Z</time>
      </trkpt>
      <trkpt lat="44.36879" lon="6.46663">
        <ele>1276.1</ele>
        <time>2018-08-05T06:17:57Z</time>
      </trkpt>
      <trkpt lat="44.36881" lon="6.46667">
        <ele>1273.7</ele>
        <time>2018-08-05T06:17:58Z</time>
      </trkpt>
      <trkpt lat="44.36883" lon="6.46671">
        <ele>1270.9</ele>
        <time>2018-08-05T06:17:59Z</time>
      </trkpt>
      <trkpt lat="44.36886" lon="6.46675">
        <ele>1270.1</ele>
        <time>2018-08-05T06:18:00Z</time>
      </trkpt>
      <trkpt lat="44.36888" lon="6.46678">
        <ele>1270.2</ele>
        <time>2018-08-05T06:18:01Z</time>
      </trkpt>
      <trkpt lat="44.36891" lon="6.46681">
        <ele>1270.3</ele>
        <time>2018-08-05T06:18:02Z</time>
      </trkpt>
      <trkpt lat="44.36893" lon="6.46684">
        <ele>1270.4</ele>
        <time>2018-08-05T06:18:03Z</time>
      </trkpt>
      <trkpt lat="44.36897" lon="6.46686">
        <ele>1270.5</ele>
        <time>2018-08-05T06:18:04Z</time>
      </trkpt>
      <trkpt lat="44.36899" lon="6.46689">
        <ele>1270.7</ele>
        <time>2018-08-05T06:18:05Z</time>
      </trkpt>
      <trkpt lat="44.36902" lon="6.46691">
        <ele>1270.8</ele>
        <time>2018-08-05T06:18:06Z</time>
      </trkpt>
      <trkpt lat="44.36907" lon="6.46692">
        <ele>1271.3</ele>
        <time>2018-08-05T06:18:08Z</time>
      </trkpt>
      <trkpt lat="44.36909" lon="6.46693">
        <ele>1271.7</ele>
        <time>2018-08-05T06:18:09Z</time>
      </trkpt>
      <trkpt lat="44.36912" lon="6.46694">
        <ele>1271.9</ele>
        <time>2018-08-05T06:18:10Z</time>
      </trkpt>
      <trkpt lat="44.36916" lon="6.46694">
        <ele>1272.2</ele>
        <time>2018-08-05T06:18:12Z</time>
      </trkpt>
      <trkpt lat="44.3692" lon="6.46692">
        <ele>1272.5</ele>
        <time>2018-08-05T06:18:14Z</time>
      </trkpt>
      <trkpt lat="44.36923" lon="6.46691">
        <ele>1272.9</ele>
        <time>2018-08-05T06:18:16Z</time>
      </trkpt>
      <trkpt lat="44.36927" lon="6.46691">
        <ele>1273.5</ele>
        <time>2018-08-05T06:18:19Z</time>
      </trkpt>
      <trkpt lat="44.36934" lon="6.46691">
        <ele>1273.9</ele>
        <time>2018-08-05T06:18:21Z</time>
      </trkpt>
      <trkpt lat="44.36938" lon="6.46694">
        <ele>1274.3</ele>
        <time>2018-08-05T06:18:23Z</time>
      </trkpt>
      <trkpt lat="44.36939" lon="6.467">
        <ele>1275</ele>
        <time>2018-08-05T06:18:25Z</time>
      </trkpt>
      <trkpt lat="44.36937" lon="6.46704">
        <ele>1275.4</ele>
        <time>2018-08-05T06:18:28Z</time>
      </trkpt>
      <trkpt lat="44.36933" lon="6.46706">
        <ele>1275.7</ele>
        <time>2018-08-05T06:18:31Z</time>
      </trkpt>
      <trkpt lat="44.3693" lon="6.46707">
        <ele>1275.9</ele>
        <time>2018-08-05T06:18:33Z</time>
      </trkpt>
      <trkpt lat="44.36927" lon="6.4671">
        <ele>1276.2</ele>
        <time>2018-08-05T06:18:36Z</time>
      </trkpt>
      <trkpt lat="44.36924" lon="6.46712">
        <ele>1276.5</ele>
        <time>2018-08-05T06:18:38Z</time>
      </trkpt>
      <trkpt lat="44.36921" lon="6.46715">
        <ele>1277</ele>
        <time>2018-08-05T06:18:40Z</time>
      </trkpt>
      <trkpt lat="44.36918" lon="6.46719">
        <ele>1277.6</ele>
        <time>2018-08-05T06:18:43Z</time>
      </trkpt>
      <trkpt lat="44.36916" lon="6.46723">
        <ele>1278.1</ele>
        <time>2018-08-05T06:18:45Z</time>
      </trkpt>
      <trkpt lat="44.36913" lon="6.46726">
        <ele>1278.6</ele>
        <time>2018-08-05T06:18:47Z</time>
      </trkpt>
      <trkpt lat="44.3691" lon="6.4673">
        <ele>1279.2</ele>
        <time>2018-08-05T06:18:49Z</time>
      </trkpt>
      <trkpt lat="44.36907" lon="6.46732">
        <ele>1279.4</ele>
        <time>2018-08-05T06:18:52Z</time>
      </trkpt>
      <trkpt lat="44.36906" lon="6.46736">
        <ele>1279.6</ele>
        <time>2018-08-05T06:18:54Z</time>
      </trkpt>
      <trkpt lat="44.36903" lon="6.4674">
        <ele>1280</ele>
        <time>2018-08-05T06:18:57Z</time>
      </trkpt>
      <trkpt lat="44.369" lon="6.46743">
        <ele>1280.6</ele>
        <time>2018-08-05T06:18:59Z</time>
      </trkpt>
      <trkpt lat="44.36898" lon="6.46747">
        <ele>1281.4</ele>
        <time>2018-08-05T06:19:01Z</time>
      </trkpt>
      <trkpt lat="44.36895" lon="6.46749">
        <ele>1281.9</ele>
        <time>2018-08-05T06:19:03Z</time>
      </trkpt>
      <trkpt lat="44.36893" lon="6.46753">
        <ele>1282.3</ele>
        <time>2018-08-05T06:19:05Z</time>
      </trkpt>
      <trkpt lat="44.36891" lon="6.46757">
        <ele>1282.9</ele>
        <time>2018-08-05T06:19:07Z</time>
      </trkpt>
      <trkpt lat="44.36888" lon="6.46758">
        <ele>1283.1</ele>
        <time>2018-08-05T06:19:09Z</time>
      </trkpt>
      <trkpt lat="44.36885" lon="6.46761">
        <ele>1283.4</ele>
        <time>2018-08-05T06:19:11Z</time>
      </trkpt>
      <trkpt lat="44.36882" lon="6.46761">
        <ele>1283.6</ele>
        <time>2018-08-05T06:19:13Z</time>
      </trkpt>
      <trkpt lat="44.3688" lon="6.46765">
        <ele>1283.9</ele>
        <time>2018-08-05T06:19:15Z</time>
      </trkpt>
      <trkpt lat="44.36877" lon="6.46768">
        <ele>1284.2</ele>
        <time>2018-08-05T06:19:17Z</time>
      </trkpt>
      <trkpt lat="44.36874" lon="6.46772">
        <ele>1284.5</ele>
        <time>2018-08-05T06:19:19Z</time>
      </trkpt>
      <trkpt lat="44.36872" lon="6.46775">
        <ele>1284.7</ele>
        <time>2018-08-05T06:19:21Z</time>
      </trkpt>
      <trkpt lat="44.36871" lon="6.46778">
        <ele>1284.9</ele>
        <time>2018-08-05T06:19:23Z</time>
      </trkpt>
      <trkpt lat="44.36867" lon="6.46782">
        <ele>1285.2</ele>
        <time>2018-08-05T06:19:26Z</time>
      </trkpt>
      <trkpt lat="44.36865" lon="6.46786">
        <ele>1285.9</ele>
        <time>2018-08-05T06:19:28Z</time>
      </trkpt>
      <trkpt lat="44.36862" lon="6.46789">
        <ele>1286.7</ele>
        <time>2018-08-05T06:19:30Z</time>
      </trkpt>
      <trkpt lat="44.36859" lon="6.46792">
        <ele>1287.1</ele>
        <time>2018-08-05T06:19:33Z</time>
      </trkpt>
      <trkpt lat="44.36857" lon="6.46794">
        <ele>1287.3</ele>
        <time>2018-08-05T06:19:35Z</time>
      </trkpt>
      <trkpt lat="44.36855" lon="6.46797">
        <ele>1287.6</ele>
        <time>2018-08-05T06:19:36Z</time>
      </trkpt>
      <trkpt lat="44.36852" lon="6.46802">
        <ele>1287.9</ele>
        <time>2018-08-05T06:19:38Z</time>
      </trkpt>
      <trkpt lat="44.3685" lon="6.46806">
        <ele>1288.3</ele>
        <time>2018-08-05T06:19:40Z</time>
      </trkpt>
      <trkpt lat="44.36848" lon="6.4681">
        <ele>1288.8</ele>
        <time>2018-08-05T06:19:42Z</time>
      </trkpt>
      <trkpt lat="44.36846" lon="6.46812">
        <ele>1289.1</ele>
        <time>2018-08-05T06:19:44Z</time>
      </trkpt>
      <trkpt lat="44.36844" lon="6.46815">
        <ele>1289.3</ele>
        <time>2018-08-05T06:19:48Z</time>
      </trkpt>
      <trkpt lat="44.36842" lon="6.46819">
        <ele>1289.6</ele>
        <time>2018-08-05T06:19:51Z</time>
      </trkpt>
      <trkpt lat="44.36838" lon="6.46821">
        <ele>1289.9</ele>
        <time>2018-08-05T06:19:53Z</time>
      </trkpt>
      <trkpt lat="44.36836" lon="6.46825">
        <ele>1290.4</ele>
        <time>2018-08-05T06:19:54Z</time>
      </trkpt>
      <trkpt lat="44.36833" lon="6.46829">
        <ele>1290.8</ele>
        <time>2018-08-05T06:19:56Z</time>
      </trkpt>
      <trkpt lat="44.36832" lon="6.46833">
        <ele>1291</ele>
        <time>2018-08-05T06:19:58Z</time>
      </trkpt>
      <trkpt lat="44.36831" lon="6.46836">
        <ele>1291.2</ele>
        <time>2018-08-05T06:19:59Z</time>
      </trkpt>
      <trkpt lat="44.3683" lon="6.46843">
        <ele>1291.4</ele>
        <time>2018-08-05T06:20:01Z</time>
      </trkpt>
      <trkpt lat="44.36829" lon="6.46847">
        <ele>1291.6</ele>
        <time>2018-08-05T06:20:03Z</time>
      </trkpt>
      <trkpt lat="44.36828" lon="6.46852">
        <ele>1292.1</ele>
        <time>2018-08-05T06:20:05Z</time>
      </trkpt>
      <trkpt lat="44.36826" lon="6.46859">
        <ele>1292.4</ele>
        <time>2018-08-05T06:20:07Z</time>
      </trkpt>
      <trkpt lat="44.36825" lon="6.46864">
        <ele>1292.5</ele>
        <time>2018-08-05T06:20:08Z</time>
      </trkpt>
      <trkpt lat="44.36825" lon="6.46868">
        <ele>1292.5</ele>
        <time>2018-08-05T06:20:09Z</time>
      </trkpt>
      <trkpt lat="44.36823" lon="6.46876">
        <ele>1292.8</ele>
        <time>2018-08-05T06:20:11Z</time>
      </trkpt>
      <trkpt lat="44.36822" lon="6.4688">
        <ele>1293.3</ele>
        <time>2018-08-05T06:20:13Z</time>
      </trkpt>
      <trkpt lat="44.3682" lon="6.46886">
        <ele>1294.2</ele>
        <time>2018-08-05T06:20:15Z</time>
      </trkpt>
      <trkpt lat="44.36818" lon="6.46893">
        <ele>1295</ele>
        <time>2018-08-05T06:20:17Z</time>
      </trkpt>
      <trkpt lat="44.36815" lon="6.46898">
        <ele>1295.3</ele>
        <time>2018-08-05T06:20:19Z</time>
      </trkpt>
      <trkpt lat="44.36812" lon="6.469">
        <ele>1295.9</ele>
        <time>2018-08-05T06:20:20Z</time>
      </trkpt>
      <trkpt lat="44.3681" lon="6.46903">
        <ele>1296.2</ele>
        <time>2018-08-05T06:20:21Z</time>
      </trkpt>
      <trkpt lat="44.36806" lon="6.46907">
        <ele>1296.3</ele>
        <time>2018-08-05T06:20:23Z</time>
      </trkpt>
      <trkpt lat="44.36804" lon="6.4691">
        <ele>1296</ele>
        <time>2018-08-05T06:20:24Z</time>
      </trkpt>
      <trkpt lat="44.36802" lon="6.46914">
        <ele>1295.9</ele>
        <time>2018-08-05T06:20:25Z</time>
      </trkpt>
      <trkpt lat="44.368" lon="6.46918">
        <ele>1295.8</ele>
        <time>2018-08-05T06:20:26Z</time>
      </trkpt>
      <trkpt lat="44.36797" lon="6.4692">
        <ele>1295.7</ele>
        <time>2018-08-05T06:20:27Z</time>
      </trkpt>
      <trkpt lat="44.36795" lon="6.46922">
        <ele>1295.6</ele>
        <time>2018-08-05T06:20:28Z</time>
      </trkpt>
      <trkpt lat="44.36792" lon="6.46922">
        <ele>1295.6</ele>
        <time>2018-08-05T06:20:29Z</time>
      </trkpt>
      <trkpt lat="44.3679" lon="6.46925">
        <ele>1295.5</ele>
        <time>2018-08-05T06:20:30Z</time>
      </trkpt>
      <trkpt lat="44.36788" lon="6.46928">
        <ele>1295.5</ele>
        <time>2018-08-05T06:20:31Z</time>
      </trkpt>
      <trkpt lat="44.36783" lon="6.46934">
        <ele>1295.5</ele>
        <time>2018-08-05T06:20:33Z</time>
      </trkpt>
      <trkpt lat="44.36779" lon="6.46937">
        <ele>1295.5</ele>
        <time>2018-08-05T06:20:35Z</time>
      </trkpt>
      <trkpt lat="44.36775" lon="6.46939">
        <ele>1295.6</ele>
        <time>2018-08-05T06:20:38Z</time>
      </trkpt>
      <trkpt lat="44.36771" lon="6.4694">
        <ele>1295.6</ele>
        <time>2018-08-05T06:20:40Z</time>
      </trkpt>
      <trkpt lat="44.36768" lon="6.46946">
        <ele>1295.8</ele>
        <time>2018-08-05T06:20:42Z</time>
      </trkpt>
      <trkpt lat="44.36765" lon="6.46949">
        <ele>1295.9</ele>
        <time>2018-08-05T06:20:44Z</time>
      </trkpt>
      <trkpt lat="44.36762" lon="6.46953">
        <ele>1296.4</ele>
        <time>2018-08-05T06:20:46Z</time>
      </trkpt>
      <trkpt lat="44.36758" lon="6.46954">
        <ele>1296.8</ele>
        <time>2018-08-05T06:20:48Z</time>
      </trkpt>
      <trkpt lat="44.36754" lon="6.46954">
        <ele>1297</ele>
        <time>2018-08-05T06:20:50Z</time>
      </trkpt>
      <trkpt lat="44.36751" lon="6.46957">
        <ele>1297.2</ele>
        <time>2018-08-05T06:20:51Z</time>
      </trkpt>
      <trkpt lat="44.36747" lon="6.46957">
        <ele>1297.3</ele>
        <time>2018-08-05T06:20:53Z</time>
      </trkpt>
      <trkpt lat="44.36745" lon="6.4696">
        <ele>1297.5</ele>
        <time>2018-08-05T06:20:54Z</time>
      </trkpt>
      <trkpt lat="44.36741" lon="6.46962">
        <ele>1297.8</ele>
        <time>2018-08-05T06:20:56Z</time>
      </trkpt>
      <trkpt lat="44.36737" lon="6.46963">
        <ele>1298.1</ele>
        <time>2018-08-05T06:20:58Z</time>
      </trkpt>
      <trkpt lat="44.36733" lon="6.46967">
        <ele>1298.6</ele>
        <time>2018-08-05T06:21:00Z</time>
      </trkpt>
      <trkpt lat="44.36731" lon="6.4697">
        <ele>1298.7</ele>
        <time>2018-08-05T06:21:01Z</time>
      </trkpt>
      <trkpt lat="44.36727" lon="6.46973">
        <ele>1298.9</ele>
        <time>2018-08-05T06:21:03Z</time>
      </trkpt>
      <trkpt lat="44.36724" lon="6.46975">
        <ele>1299.1</ele>
        <time>2018-08-05T06:21:05Z</time>
      </trkpt>
      <trkpt lat="44.3672" lon="6.46973">
        <ele>1299.2</ele>
        <time>2018-08-05T06:21:06Z</time>
      </trkpt>
      <trkpt lat="44.36716" lon="6.46978">
        <ele>1299.5</ele>
        <time>2018-08-05T06:21:08Z</time>
      </trkpt>
      <trkpt lat="44.36715" lon="6.46982">
        <ele>1299.6</ele>
        <time>2018-08-05T06:21:09Z</time>
      </trkpt>
      <trkpt lat="44.36713" lon="6.46984">
        <ele>1299.8</ele>
        <time>2018-08-05T06:21:10Z</time>
      </trkpt>
      <trkpt lat="44.36711" lon="6.46987">
        <ele>1300.1</ele>
        <time>2018-08-05T06:21:11Z</time>
      </trkpt>
      <trkpt lat="44.36708" lon="6.46992">
        <ele>1300.4</ele>
        <time>2018-08-05T06:21:13Z</time>
      </trkpt>
      <trkpt lat="44.36706" lon="6.46994">
        <ele>1300.5</ele>
        <time>2018-08-05T06:21:14Z</time>
      </trkpt>
      <trkpt lat="44.36704" lon="6.46997">
        <ele>1300.6</ele>
        <time>2018-08-05T06:21:15Z</time>
      </trkpt>
      <trkpt lat="44.367" lon="6.47002">
        <ele>1300.7</ele>
        <time>2018-08-05T06:21:17Z</time>
      </trkpt>
      <trkpt lat="44.36696" lon="6.47006">
        <ele>1300.9</ele>
        <time>2018-08-05T06:21:19Z</time>
      </trkpt>
      <trkpt lat="44.36692" lon="6.47011">
        <ele>1300.9</ele>
        <time>2018-08-05T06:21:21Z</time>
      </trkpt>
      <trkpt lat="44.36689" lon="6.47012">
        <ele>1301</ele>
        <time>2018-08-05T06:21:22Z</time>
      </trkpt>
      <trkpt lat="44.36686" lon="6.47016">
        <ele>1301.1</ele>
        <time>2018-08-05T06:21:24Z</time>
      </trkpt>
      <trkpt lat="44.36683" lon="6.47019">
        <ele>1301.2</ele>
        <time>2018-08-05T06:21:26Z</time>
      </trkpt>
      <trkpt lat="44.3668" lon="6.47024">
        <ele>1301.3</ele>
        <time>2018-08-05T06:21:28Z</time>
      </trkpt>
      <trkpt lat="44.36677" lon="6.47027">
        <ele>1301.5</ele>
        <time>2018-08-05T06:21:30Z</time>
      </trkpt>
      <trkpt lat="44.36674" lon="6.47031">
        <ele>1302</ele>
        <time>2018-08-05T06:21:32Z</time>
      </trkpt>
      <trkpt lat="44.3667" lon="6.47035">
        <ele>1302.6</ele>
        <time>2018-08-05T06:21:34Z</time>
      </trkpt>
      <trkpt lat="44.36667" lon="6.47039">
        <ele>1302.8</ele>
        <time>2018-08-05T06:21:36Z</time>
      </trkpt>
      <trkpt lat="44.36663" lon="6.47042">
        <ele>1302.9</ele>
        <time>2018-08-05T06:21:38Z</time>
      </trkpt>
      <trkpt lat="44.36661" lon="6.47046">
        <ele>1303.1</ele>
        <time>2018-08-05T06:21:40Z</time>
      </trkpt>
      <trkpt lat="44.36659" lon="6.4705">
        <ele>1303.3</ele>
        <time>2018-08-05T06:21:42Z</time>
      </trkpt>
      <trkpt lat="44.36656" lon="6.47055">
        <ele>1303.7</ele>
        <time>2018-08-05T06:21:44Z</time>
      </trkpt>
      <trkpt lat="44.36653" lon="6.47061">
        <ele>1304.3</ele>
        <time>2018-08-05T06:21:46Z</time>
      </trkpt>
      <trkpt lat="44.36651" lon="6.47065">
        <ele>1304.5</ele>
        <time>2018-08-05T06:21:48Z</time>
      </trkpt>
      <trkpt lat="44.36648" lon="6.47068">
        <ele>1304.6</ele>
        <time>2018-08-05T06:21:50Z</time>
      </trkpt>
      <trkpt lat="44.36645" lon="6.47071">
        <ele>1304.9</ele>
        <time>2018-08-05T06:21:52Z</time>
      </trkpt>
      <trkpt lat="44.36642" lon="6.47074">
        <ele>1305.3</ele>
        <time>2018-08-05T06:21:54Z</time>
      </trkpt>
      <trkpt lat="44.3664" lon="6.47078">
        <ele>1305.8</ele>
        <time>2018-08-05T06:21:56Z</time>
      </trkpt>
      <trkpt lat="44.36638" lon="6.47081">
        <ele>1306</ele>
        <time>2018-08-05T06:21:57Z</time>
      </trkpt>
      <trkpt lat="44.36635" lon="6.47085">
        <ele>1306.2</ele>
        <time>2018-08-05T06:21:59Z</time>
      </trkpt>
      <trkpt lat="44.36632" lon="6.47088">
        <ele>1306.4</ele>
        <time>2018-08-05T06:22:01Z</time>
      </trkpt>
      <trkpt lat="44.36629" lon="6.47092">
        <ele>1306.6</ele>
        <time>2018-08-05T06:22:03Z</time>
      </trkpt>
      <trkpt lat="44.36627" lon="6.47097">
        <ele>1307.4</ele>
        <time>2018-08-05T06:22:05Z</time>
      </trkpt>
      <trkpt lat="44.36625" lon="6.47101">
        <ele>1307.9</ele>
        <time>2018-08-05T06:22:07Z</time>
      </trkpt>
      <trkpt lat="44.36623" lon="6.47105">
        <ele>1308.3</ele>
        <time>2018-08-05T06:22:09Z</time>
      </trkpt>
      <trkpt lat="44.3662" lon="6.4711">
        <ele>1308.7</ele>
        <time>2018-08-05T06:22:11Z</time>
      </trkpt>
      <trkpt lat="44.36617" lon="6.47114">
        <ele>1309.1</ele>
        <time>2018-08-05T06:22:13Z</time>
      </trkpt>
      <trkpt lat="44.36614" lon="6.47118">
        <ele>1309.4</ele>
        <time>2018-08-05T06:22:15Z</time>
      </trkpt>
      <trkpt lat="44.36613" lon="6.47122">
        <ele>1309.6</ele>
        <time>2018-08-05T06:22:17Z</time>
      </trkpt>
      <trkpt lat="44.36611" lon="6.47126">
        <ele>1309.9</ele>
        <time>2018-08-05T06:22:19Z</time>
      </trkpt>
      <trkpt lat="44.3661" lon="6.4713">
        <ele>1310.1</ele>
        <time>2018-08-05T06:22:21Z</time>
      </trkpt>
      <trkpt lat="44.36607" lon="6.47134">
        <ele>1310.4</ele>
        <time>2018-08-05T06:22:23Z</time>
      </trkpt>
      <trkpt lat="44.36606" lon="6.47139">
        <ele>1310.7</ele>
        <time>2018-08-05T06:22:25Z</time>
      </trkpt>
      <trkpt lat="44.36604" lon="6.47143">
        <ele>1311.2</ele>
        <time>2018-08-05T06:22:27Z</time>
      </trkpt>
      <trkpt lat="44.36602" lon="6.47148">
        <ele>1311.7</ele>
        <time>2018-08-05T06:22:29Z</time>
      </trkpt>
      <trkpt lat="44.366" lon="6.47152">
        <ele>1311.8</ele>
        <time>2018-08-05T06:22:31Z</time>
      </trkpt>
      <trkpt lat="44.36597" lon="6.47156">
        <ele>1312</ele>
        <time>2018-08-05T06:22:33Z</time>
      </trkpt>
      <trkpt lat="44.36596" lon="6.4716">
        <ele>1312.2</ele>
        <time>2018-08-05T06:22:34Z</time>
      </trkpt>
      <trkpt lat="44.36593" lon="6.47163">
        <ele>1312.4</ele>
        <time>2018-08-05T06:22:36Z</time>
      </trkpt>
      <trkpt lat="44.36591" lon="6.47168">
        <ele>1312.9</ele>
        <time>2018-08-05T06:22:38Z</time>
      </trkpt>
      <trkpt lat="44.36589" lon="6.47172">
        <ele>1313.3</ele>
        <time>2018-08-05T06:22:40Z</time>
      </trkpt>
      <trkpt lat="44.36587" lon="6.47178">
        <ele>1313.6</ele>
        <time>2018-08-05T06:22:42Z</time>
      </trkpt>
      <trkpt lat="44.36585" lon="6.47183">
        <ele>1313.7</ele>
        <time>2018-08-05T06:22:44Z</time>
      </trkpt>
      <trkpt lat="44.36582" lon="6.47187">
        <ele>1313.9</ele>
        <time>2018-08-05T06:22:46Z</time>
      </trkpt>
      <trkpt lat="44.3658" lon="6.4719">
        <ele>1314</ele>
        <time>2018-08-05T06:22:47Z</time>
      </trkpt>
      <trkpt lat="44.36578" lon="6.47193">
        <ele>1314.1</ele>
        <time>2018-08-05T06:22:49Z</time>
      </trkpt>
      <trkpt lat="44.36575" lon="6.47199">
        <ele>1314.7</ele>
        <time>2018-08-05T06:22:51Z</time>
      </trkpt>
      <trkpt lat="44.36573" lon="6.47202">
        <ele>1315</ele>
        <time>2018-08-05T06:22:52Z</time>
      </trkpt>
      <trkpt lat="44.3657" lon="6.47205">
        <ele>1315.4</ele>
        <time>2018-08-05T06:22:54Z</time>
      </trkpt>
      <trkpt lat="44.36567" lon="6.47211">
        <ele>1315.7</ele>
        <time>2018-08-05T06:22:56Z</time>
      </trkpt>
      <trkpt lat="44.36565" lon="6.47217">
        <ele>1315.9</ele>
        <time>2018-08-05T06:22:58Z</time>
      </trkpt>
      <trkpt lat="44.36562" lon="6.47223">
        <ele>1316</ele>
        <time>2018-08-05T06:23:00Z</time>
      </trkpt>
      <trkpt lat="44.36559" lon="6.47229">
        <ele>1316.2</ele>
        <time>2018-08-05T06:23:02Z</time>
      </trkpt>
      <trkpt lat="44.36558" lon="6.47232">
        <ele>1316.5</ele>
        <time>2018-08-05T06:23:03Z</time>
      </trkpt>
      <trkpt lat="44.36555" lon="6.47236">
        <ele>1316.9</ele>
        <time>2018-08-05T06:23:05Z</time>
      </trkpt>
      <trkpt lat="44.36553" lon="6.47241">
        <ele>1317</ele>
        <time>2018-08-05T06:23:07Z</time>
      </trkpt>
      <trkpt lat="44.3655" lon="6.47245">
        <ele>1317.2</ele>
        <time>2018-08-05T06:23:09Z</time>
      </trkpt>
      <trkpt lat="44.36548" lon="6.47248">
        <ele>1317.3</ele>
        <time>2018-08-05T06:23:11Z</time>
      </trkpt>
      <trkpt lat="44.36545" lon="6.47251">
        <ele>1317.4</ele>
        <time>2018-08-05T06:23:13Z</time>
      </trkpt>
      <trkpt lat="44.36543" lon="6.47255">
        <ele>1317.5</ele>
        <time>2018-08-05T06:23:15Z</time>
      </trkpt>
      <trkpt lat="44.36539" lon="6.47259">
        <ele>1317.7</ele>
        <time>2018-08-05T06:23:17Z</time>
      </trkpt>
      <trkpt lat="44.36536" lon="6.47264">
        <ele>1317.9</ele>
        <time>2018-08-05T06:23:19Z</time>
      </trkpt>
      <trkpt lat="44.36533" lon="6.47268">
        <ele>1318.3</ele>
        <time>2018-08-05T06:23:21Z</time>
      </trkpt>
      <trkpt lat="44.36531" lon="6.47273">
        <ele>1318.7</ele>
        <time>2018-08-05T06:23:23Z</time>
      </trkpt>
      <trkpt lat="44.36529" lon="6.47278">
        <ele>1319.1</ele>
        <time>2018-08-05T06:23:25Z</time>
      </trkpt>
      <trkpt lat="44.36527" lon="6.4728">
        <ele>1319.3</ele>
        <time>2018-08-05T06:23:27Z</time>
      </trkpt>
      <trkpt lat="44.36523" lon="6.47284">
        <ele>1319.4</ele>
        <time>2018-08-05T06:23:29Z</time>
      </trkpt>
      <trkpt lat="44.36519" lon="6.47285">
        <ele>1319.8</ele>
        <time>2018-08-05T06:23:31Z</time>
      </trkpt>
      <trkpt lat="44.36516" lon="6.47287">
        <ele>1320</ele>
        <time>2018-08-05T06:23:33Z</time>
      </trkpt>
      <trkpt lat="44.36512" lon="6.4729">
        <ele>1320.3</ele>
        <time>2018-08-05T06:23:35Z</time>
      </trkpt>
      <trkpt lat="44.36508" lon="6.47294">
        <ele>1320.7</ele>
        <time>2018-08-05T06:23:37Z</time>
      </trkpt>
      <trkpt lat="44.36505" lon="6.47297">
        <ele>1321</ele>
        <time>2018-08-05T06:23:39Z</time>
      </trkpt>
      <trkpt lat="44.36502" lon="6.47301">
        <ele>1321.3</ele>
        <time>2018-08-05T06:23:41Z</time>
      </trkpt>
      <trkpt lat="44.365" lon="6.47305">
        <ele>1321.6</ele>
        <time>2018-08-05T06:23:42Z</time>
      </trkpt>
      <trkpt lat="44.36496" lon="6.4731">
        <ele>1322.3</ele>
        <time>2018-08-05T06:23:44Z</time>
      </trkpt>
      <trkpt lat="44.36493" lon="6.47314">
        <ele>1322.7</ele>
        <time>2018-08-05T06:23:46Z</time>
      </trkpt>
      <trkpt lat="44.3649" lon="6.47316">
        <ele>1323</ele>
        <time>2018-08-05T06:23:48Z</time>
      </trkpt>
      <trkpt lat="44.36487" lon="6.47321">
        <ele>1323.4</ele>
        <time>2018-08-05T06:23:50Z</time>
      </trkpt>
      <trkpt lat="44.36484" lon="6.47326">
        <ele>1324</ele>
        <time>2018-08-05T06:23:52Z</time>
      </trkpt>
      <trkpt lat="44.3648" lon="6.47329">
        <ele>1324.3</ele>
        <time>2018-08-05T06:23:54Z</time>
      </trkpt>
      <trkpt lat="44.36477" lon="6.47332">
        <ele>1324.4</ele>
        <time>2018-08-05T06:23:56Z</time>
      </trkpt>
      <trkpt lat="44.36473" lon="6.47334">
        <ele>1324.5</ele>
        <time>2018-08-05T06:23:58Z</time>
      </trkpt>
      <trkpt lat="44.3647" lon="6.47337">
        <ele>1324.7</ele>
        <time>2018-08-05T06:24:00Z</time>
      </trkpt>
      <trkpt lat="44.36467" lon="6.47339">
        <ele>1324.8</ele>
        <time>2018-08-05T06:24:02Z</time>
      </trkpt>
      <trkpt lat="44.36464" lon="6.47343">
        <ele>1324.9</ele>
        <time>2018-08-05T06:24:04Z</time>
      </trkpt>
      <trkpt lat="44.3646" lon="6.47346">
        <ele>1325</ele>
        <time>2018-08-05T06:24:06Z</time>
      </trkpt>
      <trkpt lat="44.36457" lon="6.47349">
        <ele>1325.3</ele>
        <time>2018-08-05T06:24:08Z</time>
      </trkpt>
      <trkpt lat="44.36454" lon="6.47353">
        <ele>1325.8</ele>
        <time>2018-08-05T06:24:10Z</time>
      </trkpt>
      <trkpt lat="44.36452" lon="6.47356">
        <ele>1326.1</ele>
        <time>2018-08-05T06:24:12Z</time>
      </trkpt>
      <trkpt lat="44.36449" lon="6.47361">
        <ele>1326.3</ele>
        <time>2018-08-05T06:24:14Z</time>
      </trkpt>
      <trkpt lat="44.36447" lon="6.47366">
        <ele>1326.5</ele>
        <time>2018-08-05T06:24:16Z</time>
      </trkpt>
      <trkpt lat="44.36444" lon="6.47371">
        <ele>1326.7</ele>
        <time>2018-08-05T06:24:18Z</time>
      </trkpt>
      <trkpt lat="44.36441" lon="6.47374">
        <ele>1326.9</ele>
        <time>2018-08-05T06:24:19Z</time>
      </trkpt>
      <trkpt lat="44.36438" lon="6.47377">
        <ele>1327</ele>
        <time>2018-08-05T06:24:21Z</time>
      </trkpt>
      <trkpt lat="44.36436" lon="6.47381">
        <ele>1327.2</ele>
        <time>2018-08-05T06:24:22Z</time>
      </trkpt>
      <trkpt lat="44.36433" lon="6.47385">
        <ele>1327.7</ele>
        <time>2018-08-05T06:24:24Z</time>
      </trkpt>
      <trkpt lat="44.3643" lon="6.47388">
        <ele>1328.1</ele>
        <time>2018-08-05T06:24:26Z</time>
      </trkpt>
      <trkpt lat="44.36427" lon="6.47393">
        <ele>1328.3</ele>
        <time>2018-08-05T06:24:28Z</time>
      </trkpt>
      <trkpt lat="44.36425" lon="6.47397">
        <ele>1328.5</ele>
        <time>2018-08-05T06:24:30Z</time>
      </trkpt>
      <trkpt lat="44.36422" lon="6.47402">
        <ele>1328.7</ele>
        <time>2018-08-05T06:24:32Z</time>
      </trkpt>
      <trkpt lat="44.3642" lon="6.47406">
        <ele>1328.9</ele>
        <time>2018-08-05T06:24:34Z</time>
      </trkpt>
      <trkpt lat="44.36417" lon="6.47411">
        <ele>1329.2</ele>
        <time>2018-08-05T06:24:36Z</time>
      </trkpt>
      <trkpt lat="44.36415" lon="6.47416">
        <ele>1329.8</ele>
        <time>2018-08-05T06:24:38Z</time>
      </trkpt>
      <trkpt lat="44.36412" lon="6.4742">
        <ele>1330</ele>
        <time>2018-08-05T06:24:40Z</time>
      </trkpt>
      <trkpt lat="44.36411" lon="6.47425">
        <ele>1330.2</ele>
        <time>2018-08-05T06:24:42Z</time>
      </trkpt>
      <trkpt lat="44.36409" lon="6.4743">
        <ele>1330.3</ele>
        <time>2018-08-05T06:24:44Z</time>
      </trkpt>
      <trkpt lat="44.36406" lon="6.47433">
        <ele>1330.4</ele>
        <time>2018-08-05T06:24:46Z</time>
      </trkpt>
      <trkpt lat="44.36404" lon="6.47439">
        <ele>1330.6</ele>
        <time>2018-08-05T06:24:48Z</time>
      </trkpt>
      <trkpt lat="44.36401" lon="6.47443">
        <ele>1330.9</ele>
        <time>2018-08-05T06:24:50Z</time>
      </trkpt>
      <trkpt lat="44.36399" lon="6.47448">
        <ele>1331.6</ele>
        <time>2018-08-05T06:24:52Z</time>
      </trkpt>
      <trkpt lat="44.36395" lon="6.47449">
        <ele>1331.7</ele>
        <time>2018-08-05T06:24:54Z</time>
      </trkpt>
      <trkpt lat="44.36392" lon="6.47453">
        <ele>1331.9</ele>
        <time>2018-08-05T06:24:56Z</time>
      </trkpt>
      <trkpt lat="44.36389" lon="6.47457">
        <ele>1332.1</ele>
        <time>2018-08-05T06:24:58Z</time>
      </trkpt>
      <trkpt lat="44.36386" lon="6.47461">
        <ele>1332.4</ele>
        <time>2018-08-05T06:25:00Z</time>
      </trkpt>
      <trkpt lat="44.36383" lon="6.47464">
        <ele>1332.8</ele>
        <time>2018-08-05T06:25:02Z</time>
      </trkpt>
      <trkpt lat="44.3638" lon="6.47467">
        <ele>1333.2</ele>
        <time>2018-08-05T06:25:04Z</time>
      </trkpt>
      <trkpt lat="44.36378" lon="6.47471">
        <ele>1333.4</ele>
        <time>2018-08-05T06:25:06Z</time>
      </trkpt>
      <trkpt lat="44.36375" lon="6.47472">
        <ele>1333.5</ele>
        <time>2018-08-05T06:25:08Z</time>
      </trkpt>
      <trkpt lat="44.36372" lon="6.47476">
        <ele>1333.7</ele>
        <time>2018-08-05T06:25:10Z</time>
      </trkpt>
      <trkpt lat="44.36369" lon="6.47478">
        <ele>1333.9</ele>
        <time>2018-08-05T06:25:12Z</time>
      </trkpt>
      <trkpt lat="44.36367" lon="6.47482">
        <ele>1334.1</ele>
        <time>2018-08-05T06:25:14Z</time>
      </trkpt>
      <trkpt lat="44.36364" lon="6.47486">
        <ele>1334.3</ele>
        <time>2018-08-05T06:25:16Z</time>
      </trkpt>
      <trkpt lat="44.36361" lon="6.47489">
        <ele>1334.8</ele>
        <time>2018-08-05T06:25:17Z</time>
      </trkpt>
      <trkpt lat="44.36357" lon="6.47491">
        <ele>1335.1</ele>
        <time>2018-08-05T06:25:20Z</time>
      </trkpt>
      <trkpt lat="44.36354" lon="6.47494">
        <ele>1335.3</ele>
        <time>2018-08-05T06:25:22Z</time>
      </trkpt>
      <trkpt lat="44.36351" lon="6.47497">
        <ele>1335.5</ele>
        <time>2018-08-05T06:25:24Z</time>
      </trkpt>
      <trkpt lat="44.36349" lon="6.47501">
        <ele>1335.6</ele>
        <time>2018-08-05T06:25:26Z</time>
      </trkpt>
      <trkpt lat="44.36345" lon="6.47505">
        <ele>1335.8</ele>
        <time>2018-08-05T06:25:28Z</time>
      </trkpt>
      <trkpt lat="44.36341" lon="6.47507">
        <ele>1336.2</ele>
        <time>2018-08-05T06:25:30Z</time>
      </trkpt>
      <trkpt lat="44.36337" lon="6.4751">
        <ele>1336.7</ele>
        <time>2018-08-05T06:25:32Z</time>
      </trkpt>
      <trkpt lat="44.36334" lon="6.47514">
        <ele>1337.1</ele>
        <time>2018-08-05T06:25:34Z</time>
      </trkpt>
      <trkpt lat="44.3633" lon="6.47513">
        <ele>1337.3</ele>
        <time>2018-08-05T06:25:36Z</time>
      </trkpt>
      <trkpt lat="44.36328" lon="6.47516">
        <ele>1337.5</ele>
        <time>2018-08-05T06:25:37Z</time>
      </trkpt>
      <trkpt lat="44.36324" lon="6.47518">
        <ele>1338.1</ele>
        <time>2018-08-05T06:25:39Z</time>
      </trkpt>
      <trkpt lat="44.36321" lon="6.4752">
        <ele>1338.5</ele>
        <time>2018-08-05T06:25:40Z</time>
      </trkpt>
      <trkpt lat="44.36317" lon="6.47524">
        <ele>1338.9</ele>
        <time>2018-08-05T06:25:43Z</time>
      </trkpt>
      <trkpt lat="44.36314" lon="6.47529">
        <ele>1339.1</ele>
        <time>2018-08-05T06:25:45Z</time>
      </trkpt>
      <trkpt lat="44.36312" lon="6.47531">
        <ele>1339.2</ele>
        <time>2018-08-05T06:25:46Z</time>
      </trkpt>
      <trkpt lat="44.36307" lon="6.47534">
        <ele>1339.4</ele>
        <time>2018-08-05T06:25:48Z</time>
      </trkpt>
      <trkpt lat="44.36304" lon="6.47535">
        <ele>1339.5</ele>
        <time>2018-08-05T06:25:50Z</time>
      </trkpt>
      <trkpt lat="44.36299" lon="6.47537">
        <ele>1339.9</ele>
        <time>2018-08-05T06:25:52Z</time>
      </trkpt>
      <trkpt lat="44.36296" lon="6.47539">
        <ele>1340.3</ele>
        <time>2018-08-05T06:25:54Z</time>
      </trkpt>
      <trkpt lat="44.36292" lon="6.4754">
        <ele>1340.6</ele>
        <time>2018-08-05T06:25:56Z</time>
      </trkpt>
      <trkpt lat="44.36289" lon="6.47542">
        <ele>1340.8</ele>
        <time>2018-08-05T06:25:57Z</time>
      </trkpt>
      <trkpt lat="44.36286" lon="6.47544">
        <ele>1340.9</ele>
        <time>2018-08-05T06:25:58Z</time>
      </trkpt>
      <trkpt lat="44.36283" lon="6.47546">
        <ele>1341.1</ele>
        <time>2018-08-05T06:26:00Z</time>
      </trkpt>
      <trkpt lat="44.36278" lon="6.47549">
        <ele>1341.4</ele>
        <time>2018-08-05T06:26:02Z</time>
      </trkpt>
      <trkpt lat="44.36276" lon="6.47551">
        <ele>1341.8</ele>
        <time>2018-08-05T06:26:03Z</time>
      </trkpt>
      <trkpt lat="44.36273" lon="6.47553">
        <ele>1342.1</ele>
        <time>2018-08-05T06:26:05Z</time>
      </trkpt>
      <trkpt lat="44.36268" lon="6.47557">
        <ele>1342.4</ele>
        <time>2018-08-05T06:26:07Z</time>
      </trkpt>
      <trkpt lat="44.36266" lon="6.47559">
        <ele>1342.5</ele>
        <time>2018-08-05T06:26:09Z</time>
      </trkpt>
      <trkpt lat="44.36262" lon="6.47563">
        <ele>1342.7</ele>
        <time>2018-08-05T06:26:11Z</time>
      </trkpt>
      <trkpt lat="44.36261" lon="6.47566">
        <ele>1342.9</ele>
        <time>2018-08-05T06:26:12Z</time>
      </trkpt>
      <trkpt lat="44.36259" lon="6.47569">
        <ele>1343</ele>
        <time>2018-08-05T06:26:13Z</time>
      </trkpt>
      <trkpt lat="44.36254" lon="6.47572">
        <ele>1343.9</ele>
        <time>2018-08-05T06:26:15Z</time>
      </trkpt>
      <trkpt lat="44.36251" lon="6.47575">
        <ele>1344.4</ele>
        <time>2018-08-05T06:26:17Z</time>
      </trkpt>
      <trkpt lat="44.36248" lon="6.47575">
        <ele>1344.6</ele>
        <time>2018-08-05T06:26:19Z</time>
      </trkpt>
      <trkpt lat="44.36245" lon="6.47576">
        <ele>1345.5</ele>
        <time>2018-08-05T06:26:21Z</time>
      </trkpt>
      <trkpt lat="44.36241" lon="6.47578">
        <ele>1345.9</ele>
        <time>2018-08-05T06:26:23Z</time>
      </trkpt>
      <trkpt lat="44.36237" lon="6.47581">
        <ele>1346.2</ele>
        <time>2018-08-05T06:26:25Z</time>
      </trkpt>
      <trkpt lat="44.36233" lon="6.47582">
        <ele>1346.6</ele>
        <time>2018-08-05T06:26:27Z</time>
      </trkpt>
      <trkpt lat="44.3623" lon="6.47584">
        <ele>1346.8</ele>
        <time>2018-08-05T06:26:29Z</time>
      </trkpt>
      <trkpt lat="44.36228" lon="6.47586">
        <ele>1347.2</ele>
        <time>2018-08-05T06:26:31Z</time>
      </trkpt>
      <trkpt lat="44.36224" lon="6.4759">
        <ele>1347.9</ele>
        <time>2018-08-05T06:26:33Z</time>
      </trkpt>
      <trkpt lat="44.36221" lon="6.47592">
        <ele>1348.1</ele>
        <time>2018-08-05T06:26:35Z</time>
      </trkpt>
      <trkpt lat="44.36218" lon="6.47595">
        <ele>1348.5</ele>
        <time>2018-08-05T06:26:37Z</time>
      </trkpt>
      <trkpt lat="44.36215" lon="6.47595">
        <ele>1349.1</ele>
        <time>2018-08-05T06:26:39Z</time>
      </trkpt>
      <trkpt lat="44.36211" lon="6.47597">
        <ele>1350</ele>
        <time>2018-08-05T06:26:41Z</time>
      </trkpt>
      <trkpt lat="44.36207" lon="6.476">
        <ele>1350.3</ele>
        <time>2018-08-05T06:26:43Z</time>
      </trkpt>
      <trkpt lat="44.36203" lon="6.47603">
        <ele>1350.7</ele>
        <time>2018-08-05T06:26:45Z</time>
      </trkpt>
      <trkpt lat="44.36199" lon="6.47606">
        <ele>1351.6</ele>
        <time>2018-08-05T06:26:47Z</time>
      </trkpt>
      <trkpt lat="44.36196" lon="6.47606">
        <ele>1351.8</ele>
        <time>2018-08-05T06:26:49Z</time>
      </trkpt>
      <trkpt lat="44.36192" lon="6.47607">
        <ele>1352.1</ele>
        <time>2018-08-05T06:26:51Z</time>
      </trkpt>
      <trkpt lat="44.36189" lon="6.47608">
        <ele>1352.4</ele>
        <time>2018-08-05T06:26:53Z</time>
      </trkpt>
      <trkpt lat="44.36185" lon="6.4761">
        <ele>1353</ele>
        <time>2018-08-05T06:26:55Z</time>
      </trkpt>
      <trkpt lat="44.36181" lon="6.47612">
        <ele>1353.4</ele>
        <time>2018-08-05T06:26:57Z</time>
      </trkpt>
      <trkpt lat="44.36178" lon="6.47612">
        <ele>1353.7</ele>
        <time>2018-08-05T06:26:59Z</time>
      </trkpt>
      <trkpt lat="44.36175" lon="6.47614">
        <ele>1353.9</ele>
        <time>2018-08-05T06:27:01Z</time>
      </trkpt>
      <trkpt lat="44.36171" lon="6.47615">
        <ele>1354.2</ele>
        <time>2018-08-05T06:27:03Z</time>
      </trkpt>
      <trkpt lat="44.36168" lon="6.47616">
        <ele>1354.5</ele>
        <time>2018-08-05T06:27:05Z</time>
      </trkpt>
      <trkpt lat="44.36165" lon="6.47616">
        <ele>1355.1</ele>
        <time>2018-08-05T06:27:07Z</time>
      </trkpt>
      <trkpt lat="44.36161" lon="6.47616">
        <ele>1355.4</ele>
        <time>2018-08-05T06:27:09Z</time>
      </trkpt>
      <trkpt lat="44.36157" lon="6.47617">
        <ele>1355.7</ele>
        <time>2018-08-05T06:27:11Z</time>
      </trkpt>
      <trkpt lat="44.36152" lon="6.47617">
        <ele>1356.4</ele>
        <time>2018-08-05T06:27:13Z</time>
      </trkpt>
      <trkpt lat="44.36148" lon="6.47619">
        <ele>1356.8</ele>
        <time>2018-08-05T06:27:15Z</time>
      </trkpt>
      <trkpt lat="44.36144" lon="6.47618">
        <ele>1357</ele>
        <time>2018-08-05T06:27:17Z</time>
      </trkpt>
      <trkpt lat="44.36141" lon="6.47615">
        <ele>1357.1</ele>
        <time>2018-08-05T06:27:19Z</time>
      </trkpt>
      <trkpt lat="44.36137" lon="6.47613">
        <ele>1357.3</ele>
        <time>2018-08-05T06:27:21Z</time>
      </trkpt>
      <trkpt lat="44.36133" lon="6.47613">
        <ele>1357.4</ele>
        <time>2018-08-05T06:27:23Z</time>
      </trkpt>
      <trkpt lat="44.3613" lon="6.47614">
        <ele>1357.6</ele>
        <time>2018-08-05T06:27:25Z</time>
      </trkpt>
      <trkpt lat="44.36125" lon="6.47615">
        <ele>1357.8</ele>
        <time>2018-08-05T06:27:27Z</time>
      </trkpt>
      <trkpt lat="44.36121" lon="6.47616">
        <ele>1358</ele>
        <time>2018-08-05T06:27:29Z</time>
      </trkpt>
      <trkpt lat="44.36118" lon="6.47618">
        <ele>1358.5</ele>
        <time>2018-08-05T06:27:31Z</time>
      </trkpt>
      <trkpt lat="44.36114" lon="6.4762">
        <ele>1358.8</ele>
        <time>2018-08-05T06:27:33Z</time>
      </trkpt>
      <trkpt lat="44.36112" lon="6.47623">
        <ele>1359</ele>
        <time>2018-08-05T06:27:35Z</time>
      </trkpt>
      <trkpt lat="44.36109" lon="6.47626">
        <ele>1359.2</ele>
        <time>2018-08-05T06:27:37Z</time>
      </trkpt>
      <trkpt lat="44.36105" lon="6.47628">
        <ele>1359.4</ele>
        <time>2018-08-05T06:27:39Z</time>
      </trkpt>
      <trkpt lat="44.36103" lon="6.47631">
        <ele>1359.5</ele>
        <time>2018-08-05T06:27:41Z</time>
      </trkpt>
      <trkpt lat="44.361" lon="6.47634">
        <ele>1359.7</ele>
        <time>2018-08-05T06:27:43Z</time>
      </trkpt>
      <trkpt lat="44.36096" lon="6.47637">
        <ele>1360.2</ele>
        <time>2018-08-05T06:27:45Z</time>
      </trkpt>
      <trkpt lat="44.36092" lon="6.47639">
        <ele>1360.6</ele>
        <time>2018-08-05T06:27:47Z</time>
      </trkpt>
      <trkpt lat="44.36087" lon="6.47641">
        <ele>1360.8</ele>
        <time>2018-08-05T06:27:49Z</time>
      </trkpt>
      <trkpt lat="44.36083" lon="6.47642">
        <ele>1360.9</ele>
        <time>2018-08-05T06:27:51Z</time>
      </trkpt>
      <trkpt lat="44.36079" lon="6.47643">
        <ele>1361</ele>
        <time>2018-08-05T06:27:53Z</time>
      </trkpt>
      <trkpt lat="44.36075" lon="6.47646">
        <ele>1361.1</ele>
        <time>2018-08-05T06:27:55Z</time>
      </trkpt>
      <trkpt lat="44.36071" lon="6.47648">
        <ele>1361.4</ele>
        <time>2018-08-05T06:27:57Z</time>
      </trkpt>
      <trkpt lat="44.36068" lon="6.4765">
        <ele>1362</ele>
        <time>2018-08-05T06:27:59Z</time>
      </trkpt>
      <trkpt lat="44.36064" lon="6.47652">
        <ele>1362.7</ele>
        <time>2018-08-05T06:28:01Z</time>
      </trkpt>
      <trkpt lat="44.3606" lon="6.47654">
        <ele>1363.1</ele>
        <time>2018-08-05T06:28:03Z</time>
      </trkpt>
      <trkpt lat="44.36056" lon="6.47657">
        <ele>1363.2</ele>
        <time>2018-08-05T06:28:05Z</time>
      </trkpt>
      <trkpt lat="44.36052" lon="6.47658">
        <ele>1363.2</ele>
        <time>2018-08-05T06:28:07Z</time>
      </trkpt>
      <trkpt lat="44.36048" lon="6.4766">
        <ele>1363.2</ele>
        <time>2018-08-05T06:28:09Z</time>
      </trkpt>
      <trkpt lat="44.36045" lon="6.47661">
        <ele>1363.2</ele>
        <time>2018-08-05T06:28:11Z</time>
      </trkpt>
      <trkpt lat="44.36041" lon="6.4766">
        <ele>1363.2</ele>
        <time>2018-08-05T06:28:13Z</time>
      </trkpt>
      <trkpt lat="44.36038" lon="6.47661">
        <ele>1363.3</ele>
        <time>2018-08-05T06:28:14Z</time>
      </trkpt>
      <trkpt lat="44.36034" lon="6.47663">
        <ele>1363.4</ele>
        <time>2018-08-05T06:28:16Z</time>
      </trkpt>
      <trkpt lat="44.3603" lon="6.47666">
        <ele>1363.5</ele>
        <time>2018-08-05T06:28:18Z</time>
      </trkpt>
      <trkpt lat="44.36027" lon="6.47668">
        <ele>1363.7</ele>
        <time>2018-08-05T06:28:20Z</time>
      </trkpt>
      <trkpt lat="44.36023" lon="6.47671">
        <ele>1364.2</ele>
        <time>2018-08-05T06:28:22Z</time>
      </trkpt>
      <trkpt lat="44.36017" lon="6.47678">
        <ele>1364.7</ele>
        <time>2018-08-05T06:28:24Z</time>
      </trkpt>
      <trkpt lat="44.36012" lon="6.47683">
        <ele>1364.9</ele>
        <time>2018-08-05T06:28:26Z</time>
      </trkpt>
      <trkpt lat="44.36007" lon="6.47688">
        <ele>1365.3</ele>
        <time>2018-08-05T06:28:28Z</time>
      </trkpt>
      <trkpt lat="44.36004" lon="6.47689">
        <ele>1365.8</ele>
        <time>2018-08-05T06:28:30Z</time>
      </trkpt>
      <trkpt lat="44.36" lon="6.4769">
        <ele>1366.3</ele>
        <time>2018-08-05T06:28:32Z</time>
      </trkpt>
      <trkpt lat="44.35996" lon="6.47693">
        <ele>1366.6</ele>
        <time>2018-08-05T06:28:34Z</time>
      </trkpt>
      <trkpt lat="44.35992" lon="6.47696">
        <ele>1366.8</ele>
        <time>2018-08-05T06:28:36Z</time>
      </trkpt>
      <trkpt lat="44.35989" lon="6.47696">
        <ele>1367</ele>
        <time>2018-08-05T06:28:37Z</time>
      </trkpt>
      <trkpt lat="44.35986" lon="6.47702">
        <ele>1367.2</ele>
        <time>2018-08-05T06:28:38Z</time>
      </trkpt>
      <trkpt lat="44.35982" lon="6.47706">
        <ele>1367.5</ele>
        <time>2018-08-05T06:28:40Z</time>
      </trkpt>
      <trkpt lat="44.35977" lon="6.47709">
        <ele>1368</ele>
        <time>2018-08-05T06:28:42Z</time>
      </trkpt>
      <trkpt lat="44.35974" lon="6.47713">
        <ele>1368.2</ele>
        <time>2018-08-05T06:28:44Z</time>
      </trkpt>
      <trkpt lat="44.3597" lon="6.47716">
        <ele>1368.3</ele>
        <time>2018-08-05T06:28:46Z</time>
      </trkpt>
      <trkpt lat="44.35966" lon="6.47718">
        <ele>1368.5</ele>
        <time>2018-08-05T06:28:48Z</time>
      </trkpt>
      <trkpt lat="44.35963" lon="6.4772">
        <ele>1368.6</ele>
        <time>2018-08-05T06:28:49Z</time>
      </trkpt>
      <trkpt lat="44.35959" lon="6.47721">
        <ele>1368.7</ele>
        <time>2018-08-05T06:28:51Z</time>
      </trkpt>
      <trkpt lat="44.35954" lon="6.47725">
        <ele>1368.9</ele>
        <time>2018-08-05T06:28:53Z</time>
      </trkpt>
      <trkpt lat="44.35949" lon="6.47727">
        <ele>1369.3</ele>
        <time>2018-08-05T06:28:55Z</time>
      </trkpt>
      <trkpt lat="44.35943" lon="6.47731">
        <ele>1369.8</ele>
        <time>2018-08-05T06:28:57Z</time>
      </trkpt>
      <trkpt lat="44.35941" lon="6.47733">
        <ele>1369.9</ele>
        <time>2018-08-05T06:28:58Z</time>
      </trkpt>
      <trkpt lat="44.35936" lon="6.47735">
        <ele>1370.1</ele>
        <time>2018-08-05T06:29:00Z</time>
      </trkpt>
      <trkpt lat="44.35931" lon="6.47736">
        <ele>1370.3</ele>
        <time>2018-08-05T06:29:02Z</time>
      </trkpt>
      <trkpt lat="44.35927" lon="6.4774">
        <ele>1370.5</ele>
        <time>2018-08-05T06:29:04Z</time>
      </trkpt>
      <trkpt lat="44.35925" lon="6.47742">
        <ele>1370.8</ele>
        <time>2018-08-05T06:29:05Z</time>
      </trkpt>
      <trkpt lat="44.35922" lon="6.47745">
        <ele>1371.1</ele>
        <time>2018-08-05T06:29:06Z</time>
      </trkpt>
      <trkpt lat="44.35918" lon="6.4775">
        <ele>1371.4</ele>
        <time>2018-08-05T06:29:08Z</time>
      </trkpt>
      <trkpt lat="44.35916" lon="6.47752">
        <ele>1371.6</ele>
        <time>2018-08-05T06:29:09Z</time>
      </trkpt>
      <trkpt lat="44.35913" lon="6.47754">
        <ele>1371.7</ele>
        <time>2018-08-05T06:29:10Z</time>
      </trkpt>
      <trkpt lat="44.3591" lon="6.47756">
        <ele>1371.7</ele>
        <time>2018-08-05T06:29:11Z</time>
      </trkpt>
      <trkpt lat="44.35908" lon="6.47758">
        <ele>1371.8</ele>
        <time>2018-08-05T06:29:12Z</time>
      </trkpt>
      <trkpt lat="44.35906" lon="6.4776">
        <ele>1371.8</ele>
        <time>2018-08-05T06:29:13Z</time>
      </trkpt>
      <trkpt lat="44.35903" lon="6.47763">
        <ele>1371.9</ele>
        <time>2018-08-05T06:29:14Z</time>
      </trkpt>
      <trkpt lat="44.35901" lon="6.47765">
        <ele>1371.9</ele>
        <time>2018-08-05T06:29:15Z</time>
      </trkpt>
      <trkpt lat="44.35898" lon="6.47767">
        <ele>1372</ele>
        <time>2018-08-05T06:29:16Z</time>
      </trkpt>
      <trkpt lat="44.35896" lon="6.47769">
        <ele>1372</ele>
        <time>2018-08-05T06:29:17Z</time>
      </trkpt>
      <trkpt lat="44.35892" lon="6.47771">
        <ele>1372.1</ele>
        <time>2018-08-05T06:29:18Z</time>
      </trkpt>
      <trkpt lat="44.3589" lon="6.47773">
        <ele>1372.2</ele>
        <time>2018-08-05T06:29:19Z</time>
      </trkpt>
      <trkpt lat="44.35887" lon="6.47774">
        <ele>1372.3</ele>
        <time>2018-08-05T06:29:20Z</time>
      </trkpt>
      <trkpt lat="44.35884" lon="6.47775">
        <ele>1372.4</ele>
        <time>2018-08-05T06:29:21Z</time>
      </trkpt>
      <trkpt lat="44.35881" lon="6.47777">
        <ele>1372.5</ele>
        <time>2018-08-05T06:29:22Z</time>
      </trkpt>
      <trkpt lat="44.35877" lon="6.47781">
        <ele>1372.9</ele>
        <time>2018-08-05T06:29:24Z</time>
      </trkpt>
      <trkpt lat="44.35874" lon="6.47783">
        <ele>1373.1</ele>
        <time>2018-08-05T06:29:25Z</time>
      </trkpt>
      <trkpt lat="44.35869" lon="6.47788">
        <ele>1373.4</ele>
        <time>2018-08-05T06:29:27Z</time>
      </trkpt>
      <trkpt lat="44.35867" lon="6.47791">
        <ele>1373.5</ele>
        <time>2018-08-05T06:29:28Z</time>
      </trkpt>
      <trkpt lat="44.35865" lon="6.47794">
        <ele>1373.5</ele>
        <time>2018-08-05T06:29:29Z</time>
      </trkpt>
      <trkpt lat="44.35861" lon="6.47797">
        <ele>1373.5</ele>
        <time>2018-08-05T06:29:30Z</time>
      </trkpt>
      <trkpt lat="44.35857" lon="6.47798">
        <ele>1373.6</ele>
        <time>2018-08-05T06:29:31Z</time>
      </trkpt>
      <trkpt lat="44.35854" lon="6.47802">
        <ele>1373.6</ele>
        <time>2018-08-05T06:29:32Z</time>
      </trkpt>
      <trkpt lat="44.35851" lon="6.47806">
        <ele>1373.6</ele>
        <time>2018-08-05T06:29:33Z</time>
      </trkpt>
      <trkpt lat="44.35849" lon="6.4781">
        <ele>1373.6</ele>
        <time>2018-08-05T06:29:34Z</time>
      </trkpt>
      <trkpt lat="44.35846" lon="6.47815">
        <ele>1373.6</ele>
        <time>2018-08-05T06:29:35Z</time>
      </trkpt>
      <trkpt lat="44.35844" lon="6.47818">
        <ele>1373.6</ele>
        <time>2018-08-05T06:29:36Z</time>
      </trkpt>
      <trkpt lat="44.35841" lon="6.47821">
        <ele>1373.7</ele>
        <time>2018-08-05T06:29:37Z</time>
      </trkpt>
      <trkpt lat="44.35838" lon="6.47826">
        <ele>1373.7</ele>
        <time>2018-08-05T06:29:38Z</time>
      </trkpt>
      <trkpt lat="44.35835" lon="6.47829">
        <ele>1373.7</ele>
        <time>2018-08-05T06:29:39Z</time>
      </trkpt>
      <trkpt lat="44.35831" lon="6.47833">
        <ele>1373.7</ele>
        <time>2018-08-05T06:29:40Z</time>
      </trkpt>
      <trkpt lat="44.35828" lon="6.47836">
        <ele>1373.7</ele>
        <time>2018-08-05T06:29:41Z</time>
      </trkpt>
      <trkpt lat="44.35825" lon="6.4784">
        <ele>1373.7</ele>
        <time>2018-08-05T06:29:42Z</time>
      </trkpt>
      <trkpt lat="44.35822" lon="6.47842">
        <ele>1373.7</ele>
        <time>2018-08-05T06:29:43Z</time>
      </trkpt>
      <trkpt lat="44.35819" lon="6.47846">
        <ele>1373.7</ele>
        <time>2018-08-05T06:29:44Z</time>
      </trkpt>
      <trkpt lat="44.35815" lon="6.47849">
        <ele>1373.7</ele>
        <time>2018-08-05T06:29:45Z</time>
      </trkpt>
      <trkpt lat="44.35812" lon="6.47851">
        <ele>1373.8</ele>
        <time>2018-08-05T06:29:46Z</time>
      </trkpt>
      <trkpt lat="44.35808" lon="6.47854">
        <ele>1373.8</ele>
        <time>2018-08-05T06:29:47Z</time>
      </trkpt>
      <trkpt lat="44.35805" lon="6.47857">
        <ele>1373.9</ele>
        <time>2018-08-05T06:29:48Z</time>
      </trkpt>
      <trkpt lat="44.35802" lon="6.47859">
        <ele>1373.9</ele>
        <time>2018-08-05T06:29:49Z</time>
      </trkpt>
      <trkpt lat="44.358" lon="6.47861">
        <ele>1374</ele>
        <time>2018-08-05T06:29:50Z</time>
      </trkpt>
      <trkpt lat="44.35797" lon="6.47864">
        <ele>1374</ele>
        <time>2018-08-05T06:29:51Z</time>
      </trkpt>
      <trkpt lat="44.35795" lon="6.47868">
        <ele>1374.1</ele>
        <time>2018-08-05T06:29:52Z</time>
      </trkpt>
      <trkpt lat="44.35793" lon="6.4787">
        <ele>1374.2</ele>
        <time>2018-08-05T06:29:53Z</time>
      </trkpt>
      <trkpt lat="44.35791" lon="6.47875">
        <ele>1374.4</ele>
        <time>2018-08-05T06:29:54Z</time>
      </trkpt>
      <trkpt lat="44.3579" lon="6.4788">
        <ele>1374.7</ele>
        <time>2018-08-05T06:29:55Z</time>
      </trkpt>
      <trkpt lat="44.35787" lon="6.47884">
        <ele>1375</ele>
        <time>2018-08-05T06:29:56Z</time>
      </trkpt>
      <trkpt lat="44.35785" lon="6.47888">
        <ele>1375.1</ele>
        <time>2018-08-05T06:29:57Z</time>
      </trkpt>
      <trkpt lat="44.35783" lon="6.47892">
        <ele>1375.2</ele>
        <time>2018-08-05T06:29:58Z</time>
      </trkpt>
      <trkpt lat="44.35782" lon="6.47897">
        <ele>1375.2</ele>
        <time>2018-08-05T06:29:59Z</time>
      </trkpt>
      <trkpt lat="44.3578" lon="6.47902">
        <ele>1375.3</ele>
        <time>2018-08-05T06:30:00Z</time>
      </trkpt>
      <trkpt lat="44.35777" lon="6.47908">
        <ele>1375.3</ele>
        <time>2018-08-05T06:30:01Z</time>
      </trkpt>
      <trkpt lat="44.35774" lon="6.47913">
        <ele>1375.3</ele>
        <time>2018-08-05T06:30:02Z</time>
      </trkpt>
      <trkpt lat="44.35772" lon="6.47918">
        <ele>1375.4</ele>
        <time>2018-08-05T06:30:03Z</time>
      </trkpt>
      <trkpt lat="44.35769" lon="6.47923">
        <ele>1375.4</ele>
        <time>2018-08-05T06:30:04Z</time>
      </trkpt>
      <trkpt lat="44.35765" lon="6.47926">
        <ele>1375.4</ele>
        <time>2018-08-05T06:30:05Z</time>
      </trkpt>
      <trkpt lat="44.35762" lon="6.47929">
        <ele>1375.5</ele>
        <time>2018-08-05T06:30:06Z</time>
      </trkpt>
      <trkpt lat="44.35758" lon="6.47931">
        <ele>1375.5</ele>
        <time>2018-08-05T06:30:07Z</time>
      </trkpt>
      <trkpt lat="44.35755" lon="6.47933">
        <ele>1375.6</ele>
        <time>2018-08-05T06:30:08Z</time>
      </trkpt>
      <trkpt lat="44.35751" lon="6.47934">
        <ele>1375.6</ele>
        <time>2018-08-05T06:30:09Z</time>
      </trkpt>
      <trkpt lat="44.35748" lon="6.47936">
        <ele>1375.6</ele>
        <time>2018-08-05T06:30:10Z</time>
      </trkpt>
      <trkpt lat="44.35745" lon="6.47937">
        <ele>1375.7</ele>
        <time>2018-08-05T06:30:11Z</time>
      </trkpt>
      <trkpt lat="44.35742" lon="6.4794">
        <ele>1375.8</ele>
        <time>2018-08-05T06:30:12Z</time>
      </trkpt>
      <trkpt lat="44.35739" lon="6.47942">
        <ele>1375.9</ele>
        <time>2018-08-05T06:30:13Z</time>
      </trkpt>
      <trkpt lat="44.35736" lon="6.47947">
        <ele>1376.2</ele>
        <time>2018-08-05T06:30:14Z</time>
      </trkpt>
      <trkpt lat="44.35734" lon="6.47951">
        <ele>1376.5</ele>
        <time>2018-08-05T06:30:15Z</time>
      </trkpt>
      <trkpt lat="44.35733" lon="6.47954">
        <ele>1376.5</ele>
        <time>2018-08-05T06:30:16Z</time>
      </trkpt>
      <trkpt lat="44.35732" lon="6.47959">
        <ele>1376.6</ele>
        <time>2018-08-05T06:30:17Z</time>
      </trkpt>
      <trkpt lat="44.3573" lon="6.47962">
        <ele>1376.7</ele>
        <time>2018-08-05T06:30:18Z</time>
      </trkpt>
      <trkpt lat="44.35728" lon="6.47966">
        <ele>1376.7</ele>
        <time>2018-08-05T06:30:19Z</time>
      </trkpt>
      <trkpt lat="44.35726" lon="6.47969">
        <ele>1376.8</ele>
        <time>2018-08-05T06:30:20Z</time>
      </trkpt>
      <trkpt lat="44.35723" lon="6.47975">
        <ele>1376.9</ele>
        <time>2018-08-05T06:30:22Z</time>
      </trkpt>
      <trkpt lat="44.35721" lon="6.47979">
        <ele>1376.9</ele>
        <time>2018-08-05T06:30:24Z</time>
      </trkpt>
      <trkpt lat="44.3572" lon="6.47984">
        <ele>1376.9</ele>
        <time>2018-08-05T06:30:26Z</time>
      </trkpt>
      <trkpt lat="44.35718" lon="6.47991">
        <ele>1377</ele>
        <time>2018-08-05T06:30:28Z</time>
      </trkpt>
      <trkpt lat="44.35715" lon="6.47996">
        <ele>1377</ele>
        <time>2018-08-05T06:30:30Z</time>
      </trkpt>
      <trkpt lat="44.35713" lon="6.48002">
        <ele>1377</ele>
        <time>2018-08-05T06:30:32Z</time>
      </trkpt>
      <trkpt lat="44.35712" lon="6.48006">
        <ele>1377.6</ele>
        <time>2018-08-05T06:30:34Z</time>
      </trkpt>
      <trkpt lat="44.3571" lon="6.48011">
        <ele>1378.3</ele>
        <time>2018-08-05T06:30:36Z</time>
      </trkpt>
      <trkpt lat="44.35707" lon="6.48016">
        <ele>1378.6</ele>
        <time>2018-08-05T06:30:38Z</time>
      </trkpt>
      <trkpt lat="44.35705" lon="6.48021">
        <ele>1378.8</ele>
        <time>2018-08-05T06:30:40Z</time>
      </trkpt>
      <trkpt lat="44.35703" lon="6.48026">
        <ele>1379.3</ele>
        <time>2018-08-05T06:30:42Z</time>
      </trkpt>
      <trkpt lat="44.35701" lon="6.4803">
        <ele>1380</ele>
        <time>2018-08-05T06:30:44Z</time>
      </trkpt>
      <trkpt lat="44.35698" lon="6.48035">
        <ele>1380.6</ele>
        <time>2018-08-05T06:30:46Z</time>
      </trkpt>
      <trkpt lat="44.35695" lon="6.48038">
        <ele>1380.9</ele>
        <time>2018-08-05T06:30:48Z</time>
      </trkpt>
      <trkpt lat="44.35692" lon="6.48041">
        <ele>1381.1</ele>
        <time>2018-08-05T06:30:50Z</time>
      </trkpt>
      <trkpt lat="44.3569" lon="6.48046">
        <ele>1381.5</ele>
        <time>2018-08-05T06:30:53Z</time>
      </trkpt>
      <trkpt lat="44.35688" lon="6.4805">
        <ele>1381.8</ele>
        <time>2018-08-05T06:30:55Z</time>
      </trkpt>
      <trkpt lat="44.35685" lon="6.48051">
        <ele>1382.1</ele>
        <time>2018-08-05T06:30:57Z</time>
      </trkpt>
      <trkpt lat="44.35681" lon="6.48052">
        <ele>1382.4</ele>
        <time>2018-08-05T06:30:59Z</time>
      </trkpt>
      <trkpt lat="44.35681" lon="6.48057">
        <ele>1382.8</ele>
        <time>2018-08-05T06:31:08Z</time>
      </trkpt>
      <trkpt lat="44.35681" lon="6.48061">
        <ele>1383.2</ele>
        <time>2018-08-05T06:31:10Z</time>
      </trkpt>
      <trkpt lat="44.3568" lon="6.48064">
        <ele>1383.9</ele>
        <time>2018-08-05T06:31:14Z</time>
      </trkpt>
      <trkpt lat="44.35682" lon="6.48067">
        <ele>1384.7</ele>
        <time>2018-08-05T06:31:22Z</time>
      </trkpt>
      <trkpt lat="44.3568" lon="6.48065">
        <ele>1385.3</ele>
        <time>2018-08-05T06:32:02Z</time>
      </trkpt>
      <trkpt lat="44.35678" lon="6.48061">
        <ele>1385.6</ele>
        <time>2018-08-05T06:32:18Z</time>
      </trkpt>
      <trkpt lat="44.35676" lon="6.48065">
        <ele>1385.9</ele>
        <time>2018-08-05T06:32:32Z</time>
      </trkpt>
      <trkpt lat="44.35674" lon="6.48067">
        <ele>1386.3</ele>
        <time>2018-08-05T06:32:34Z</time>
      </trkpt>
      <trkpt lat="44.35671" lon="6.48072">
        <ele>1386.7</ele>
        <time>2018-08-05T06:32:36Z</time>
      </trkpt>
      <trkpt lat="44.35668" lon="6.48075">
        <ele>1387.1</ele>
        <time>2018-08-05T06:32:38Z</time>
      </trkpt>
      <trkpt lat="44.35665" lon="6.48079">
        <ele>1387.6</ele>
        <time>2018-08-05T06:32:40Z</time>
      </trkpt>
      <trkpt lat="44.35663" lon="6.48083">
        <ele>1388.2</ele>
        <time>2018-08-05T06:32:43Z</time>
      </trkpt>
      <trkpt lat="44.35661" lon="6.48087">
        <ele>1388.7</ele>
        <time>2018-08-05T06:32:45Z</time>
      </trkpt>
      <trkpt lat="44.35658" lon="6.4809">
        <ele>1389.2</ele>
        <time>2018-08-05T06:32:47Z</time>
      </trkpt>
      <trkpt lat="44.35656" lon="6.48093">
        <ele>1389.7</ele>
        <time>2018-08-05T06:32:49Z</time>
      </trkpt>
      <trkpt lat="44.35653" lon="6.48094">
        <ele>1390.4</ele>
        <time>2018-08-05T06:32:51Z</time>
      </trkpt>
      <trkpt lat="44.35651" lon="6.48097">
        <ele>1390.9</ele>
        <time>2018-08-05T06:32:53Z</time>
      </trkpt>
      <trkpt lat="44.3565" lon="6.48103">
        <ele>1391.6</ele>
        <time>2018-08-05T06:32:55Z</time>
      </trkpt>
      <trkpt lat="44.35648" lon="6.48107">
        <ele>1392.6</ele>
        <time>2018-08-05T06:32:58Z</time>
      </trkpt>
      <trkpt lat="44.35645" lon="6.48108">
        <ele>1393.4</ele>
        <time>2018-08-05T06:33:01Z</time>
      </trkpt>
      <trkpt lat="44.35643" lon="6.48113">
        <ele>1394.4</ele>
        <time>2018-08-05T06:33:04Z</time>
      </trkpt>
      <trkpt lat="44.35641" lon="6.48115">
        <ele>1394.8</ele>
        <time>2018-08-05T06:33:06Z</time>
      </trkpt>
      <trkpt lat="44.35639" lon="6.48119">
        <ele>1395.2</ele>
        <time>2018-08-05T06:33:09Z</time>
      </trkpt>
      <trkpt lat="44.35638" lon="6.48122">
        <ele>1395.6</ele>
        <time>2018-08-05T06:33:11Z</time>
      </trkpt>
      <trkpt lat="44.35634" lon="6.48125">
        <ele>1396.1</ele>
        <time>2018-08-05T06:33:14Z</time>
      </trkpt>
      <trkpt lat="44.35632" lon="6.48128">
        <ele>1396.5</ele>
        <time>2018-08-05T06:33:16Z</time>
      </trkpt>
      <trkpt lat="44.3563" lon="6.48131">
        <ele>1397</ele>
        <time>2018-08-05T06:33:19Z</time>
      </trkpt>
      <trkpt lat="44.35628" lon="6.48133">
        <ele>1397.3</ele>
        <time>2018-08-05T06:33:21Z</time>
      </trkpt>
      <trkpt lat="44.35626" lon="6.48137">
        <ele>1397.7</ele>
        <time>2018-08-05T06:33:23Z</time>
      </trkpt>
      <trkpt lat="44.35624" lon="6.48141">
        <ele>1398.2</ele>
        <time>2018-08-05T06:33:26Z</time>
      </trkpt>
      <trkpt lat="44.35622" lon="6.48145">
        <ele>1398.5</ele>
        <time>2018-08-05T06:33:28Z</time>
      </trkpt>
      <trkpt lat="44.35621" lon="6.48149">
        <ele>1398.8</ele>
        <time>2018-08-05T06:33:30Z</time>
      </trkpt>
      <trkpt lat="44.3562" lon="6.48153">
        <ele>1399</ele>
        <time>2018-08-05T06:33:32Z</time>
      </trkpt>
      <trkpt lat="44.35617" lon="6.48156">
        <ele>1399.2</ele>
        <time>2018-08-05T06:33:34Z</time>
      </trkpt>
      <trkpt lat="44.35615" lon="6.4816">
        <ele>1399.4</ele>
        <time>2018-08-05T06:33:36Z</time>
      </trkpt>
      <trkpt lat="44.35613" lon="6.48164">
        <ele>1399.6</ele>
        <time>2018-08-05T06:33:38Z</time>
      </trkpt>
      <trkpt lat="44.35611" lon="6.48168">
        <ele>1400</ele>
        <time>2018-08-05T06:33:40Z</time>
      </trkpt>
      <trkpt lat="44.35609" lon="6.48172">
        <ele>1400.5</ele>
        <time>2018-08-05T06:33:42Z</time>
      </trkpt>
      <trkpt lat="44.35607" lon="6.48176">
        <ele>1400.8</ele>
        <time>2018-08-05T06:33:44Z</time>
      </trkpt>
      <trkpt lat="44.35604" lon="6.48177">
        <ele>1401</ele>
        <time>2018-08-05T06:33:48Z</time>
      </trkpt>
      <trkpt lat="44.35601" lon="6.4818">
        <ele>1401.2</ele>
        <time>2018-08-05T06:33:51Z</time>
      </trkpt>
      <trkpt lat="44.35597" lon="6.48183">
        <ele>1401.7</ele>
        <time>2018-08-05T06:33:54Z</time>
      </trkpt>
      <trkpt lat="44.35595" lon="6.48186">
        <ele>1402.1</ele>
        <time>2018-08-05T06:33:56Z</time>
      </trkpt>
      <trkpt lat="44.35591" lon="6.4819">
        <ele>1402.6</ele>
        <time>2018-08-05T06:33:59Z</time>
      </trkpt>
      <trkpt lat="44.35589" lon="6.48193">
        <ele>1402.8</ele>
        <time>2018-08-05T06:34:02Z</time>
      </trkpt>
      <trkpt lat="44.35587" lon="6.48197">
        <ele>1403.1</ele>
        <time>2018-08-05T06:34:04Z</time>
      </trkpt>
      <trkpt lat="44.35586" lon="6.48201">
        <ele>1403.4</ele>
        <time>2018-08-05T06:34:05Z</time>
      </trkpt>
      <trkpt lat="44.35584" lon="6.48204">
        <ele>1403.7</ele>
        <time>2018-08-05T06:34:07Z</time>
      </trkpt>
      <trkpt lat="44.35582" lon="6.48209">
        <ele>1404.1</ele>
        <time>2018-08-05T06:34:10Z</time>
      </trkpt>
      <trkpt lat="44.3558" lon="6.48213">
        <ele>1404.2</ele>
        <time>2018-08-05T06:34:13Z</time>
      </trkpt>
      <trkpt lat="44.35579" lon="6.48217">
        <ele>1404.4</ele>
        <time>2018-08-05T06:34:15Z</time>
      </trkpt>
      <trkpt lat="44.35577" lon="6.4822">
        <ele>1404.6</ele>
        <time>2018-08-05T06:34:17Z</time>
      </trkpt>
      <trkpt lat="44.35575" lon="6.48224">
        <ele>1405</ele>
        <time>2018-08-05T06:34:19Z</time>
      </trkpt>
      <trkpt lat="44.35573" lon="6.48228">
        <ele>1405.4</ele>
        <time>2018-08-05T06:34:21Z</time>
      </trkpt>
      <trkpt lat="44.35571" lon="6.48231">
        <ele>1405.7</ele>
        <time>2018-08-05T06:34:23Z</time>
      </trkpt>
      <trkpt lat="44.3557" lon="6.48235">
        <ele>1406</ele>
        <time>2018-08-05T06:34:25Z</time>
      </trkpt>
      <trkpt lat="44.3557" lon="6.4824">
        <ele>1406.3</ele>
        <time>2018-08-05T06:34:28Z</time>
      </trkpt>
      <trkpt lat="44.35568" lon="6.48245">
        <ele>1406.6</ele>
        <time>2018-08-05T06:34:30Z</time>
      </trkpt>
      <trkpt lat="44.35567" lon="6.48248">
        <ele>1406.8</ele>
        <time>2018-08-05T06:34:32Z</time>
      </trkpt>
      <trkpt lat="44.35565" lon="6.48252">
        <ele>1407</ele>
        <time>2018-08-05T06:34:34Z</time>
      </trkpt>
      <trkpt lat="44.35563" lon="6.48257">
        <ele>1407.3</ele>
        <time>2018-08-05T06:34:37Z</time>
      </trkpt>
      <trkpt lat="44.35561" lon="6.4826">
        <ele>1407.6</ele>
        <time>2018-08-05T06:34:39Z</time>
      </trkpt>
      <trkpt lat="44.3556" lon="6.48264">
        <ele>1407.8</ele>
        <time>2018-08-05T06:34:41Z</time>
      </trkpt>
      <trkpt lat="44.35557" lon="6.48267">
        <ele>1408</ele>
        <time>2018-08-05T06:34:44Z</time>
      </trkpt>
      <trkpt lat="44.35554" lon="6.48271">
        <ele>1408.3</ele>
        <time>2018-08-05T06:34:47Z</time>
      </trkpt>
      <trkpt lat="44.35552" lon="6.48276">
        <ele>1408.8</ele>
        <time>2018-08-05T06:34:50Z</time>
      </trkpt>
      <trkpt lat="44.3555" lon="6.48278">
        <ele>1409.1</ele>
        <time>2018-08-05T06:34:52Z</time>
      </trkpt>
      <trkpt lat="44.35547" lon="6.4828">
        <ele>1409.6</ele>
        <time>2018-08-05T06:34:53Z</time>
      </trkpt>
      <trkpt lat="44.35545" lon="6.48284">
        <ele>1410.1</ele>
        <time>2018-08-05T06:34:56Z</time>
      </trkpt>
      <trkpt lat="44.35541" lon="6.48288">
        <ele>1410.6</ele>
        <time>2018-08-05T06:35:00Z</time>
      </trkpt>
      <trkpt lat="44.35539" lon="6.48292">
        <ele>1410.8</ele>
        <time>2018-08-05T06:35:03Z</time>
      </trkpt>
      <trkpt lat="44.35536" lon="6.48296">
        <ele>1411.3</ele>
        <time>2018-08-05T06:35:06Z</time>
      </trkpt>
      <trkpt lat="44.35535" lon="6.483">
        <ele>1412</ele>
        <time>2018-08-05T06:35:08Z</time>
      </trkpt>
      <trkpt lat="44.35535" lon="6.48304">
        <ele>1413</ele>
        <time>2018-08-05T06:35:10Z</time>
      </trkpt>
      <trkpt lat="44.35535" lon="6.48309">
        <ele>1413</ele>
        <time>2018-08-05T06:35:12Z</time>
      </trkpt>
      <trkpt lat="44.35536" lon="6.48313">
        <ele>1413</ele>
        <time>2018-08-05T06:35:14Z</time>
      </trkpt>
      <trkpt lat="44.3554" lon="6.48315">
        <ele>1413.2</ele>
        <time>2018-08-05T06:35:16Z</time>
      </trkpt>
      <trkpt lat="44.35544" lon="6.48317">
        <ele>1413.8</ele>
        <time>2018-08-05T06:35:19Z</time>
      </trkpt>
      <trkpt lat="44.35549" lon="6.48316">
        <ele>1413.2</ele>
        <time>2018-08-05T06:35:22Z</time>
      </trkpt>
      <trkpt lat="44.35553" lon="6.48314">
        <ele>1413.1</ele>
        <time>2018-08-05T06:35:24Z</time>
      </trkpt>
      <trkpt lat="44.35557" lon="6.48311">
        <ele>1412.9</ele>
        <time>2018-08-05T06:35:26Z</time>
      </trkpt>
      <trkpt lat="44.35561" lon="6.48309">
        <ele>1412.2</ele>
        <time>2018-08-05T06:35:28Z</time>
      </trkpt>
      <trkpt lat="44.35564" lon="6.48306">
        <ele>1411.7</ele>
        <time>2018-08-05T06:35:30Z</time>
      </trkpt>
      <trkpt lat="44.35568" lon="6.48303">
        <ele>1411.2</ele>
        <time>2018-08-05T06:35:32Z</time>
      </trkpt>
      <trkpt lat="44.35571" lon="6.483">
        <ele>1410.7</ele>
        <time>2018-08-05T06:35:34Z</time>
      </trkpt>
      <trkpt lat="44.35573" lon="6.48298">
        <ele>1410.5</ele>
        <time>2018-08-05T06:35:35Z</time>
      </trkpt>
      <trkpt lat="44.35576" lon="6.48295">
        <ele>1410.1</ele>
        <time>2018-08-05T06:35:37Z</time>
      </trkpt>
      <trkpt lat="44.35578" lon="6.48291">
        <ele>1409.8</ele>
        <time>2018-08-05T06:35:39Z</time>
      </trkpt>
      <trkpt lat="44.3558" lon="6.48289">
        <ele>1409.5</ele>
        <time>2018-08-05T06:35:40Z</time>
      </trkpt>
      <trkpt lat="44.35583" lon="6.48284">
        <ele>1409.4</ele>
        <time>2018-08-05T06:35:42Z</time>
      </trkpt>
      <trkpt lat="44.35587" lon="6.48279">
        <ele>1409.7</ele>
        <time>2018-08-05T06:35:44Z</time>
      </trkpt>
      <trkpt lat="44.35589" lon="6.48276">
        <ele>1409.7</ele>
        <time>2018-08-05T06:35:46Z</time>
      </trkpt>
      <trkpt lat="44.35592" lon="6.48272">
        <ele>1409.5</ele>
        <time>2018-08-05T06:35:48Z</time>
      </trkpt>
      <trkpt lat="44.35594" lon="6.48269">
        <ele>1409.3</ele>
        <time>2018-08-05T06:35:50Z</time>
      </trkpt>
      <trkpt lat="44.35597" lon="6.48265">
        <ele>1409.2</ele>
        <time>2018-08-05T06:35:52Z</time>
      </trkpt>
      <trkpt lat="44.356" lon="6.48262">
        <ele>1409.1</ele>
        <time>2018-08-05T06:35:54Z</time>
      </trkpt>
      <trkpt lat="44.35603" lon="6.48258">
        <ele>1409.3</ele>
        <time>2018-08-05T06:35:57Z</time>
      </trkpt>
      <trkpt lat="44.35606" lon="6.48257">
        <ele>1409.4</ele>
        <time>2018-08-05T06:35:59Z</time>
      </trkpt>
      <trkpt lat="44.35609" lon="6.48254">
        <ele>1410.1</ele>
        <time>2018-08-05T06:36:02Z</time>
      </trkpt>
      <trkpt lat="44.35612" lon="6.48253">
        <ele>1410.8</ele>
        <time>2018-08-05T06:36:04Z</time>
      </trkpt>
      <trkpt lat="44.35615" lon="6.48252">
        <ele>1411.4</ele>
        <time>2018-08-05T06:36:06Z</time>
      </trkpt>
      <trkpt lat="44.35619" lon="6.4825">
        <ele>1411.7</ele>
        <time>2018-08-05T06:36:08Z</time>
      </trkpt>
      <trkpt lat="44.35623" lon="6.48248">
        <ele>1412.3</ele>
        <time>2018-08-05T06:36:10Z</time>
      </trkpt>
      <trkpt lat="44.35627" lon="6.48245">
        <ele>1413.3</ele>
        <time>2018-08-05T06:36:12Z</time>
      </trkpt>
      <trkpt lat="44.3563" lon="6.48245">
        <ele>1413.6</ele>
        <time>2018-08-05T06:36:14Z</time>
      </trkpt>
      <trkpt lat="44.35633" lon="6.48244">
        <ele>1413.8</ele>
        <time>2018-08-05T06:36:16Z</time>
      </trkpt>
      <trkpt lat="44.35636" lon="6.48242">
        <ele>1414.3</ele>
        <time>2018-08-05T06:36:18Z</time>
      </trkpt>
      <trkpt lat="44.35641" lon="6.48242">
        <ele>1415.7</ele>
        <time>2018-08-05T06:36:20Z</time>
      </trkpt>
      <trkpt lat="44.35645" lon="6.48241">
        <ele>1416.8</ele>
        <time>2018-08-05T06:36:22Z</time>
      </trkpt>
      <trkpt lat="44.35648" lon="6.48241">
        <ele>1417.7</ele>
        <time>2018-08-05T06:36:24Z</time>
      </trkpt>
      <trkpt lat="44.35652" lon="6.48241">
        <ele>1418.5</ele>
        <time>2018-08-05T06:36:26Z</time>
      </trkpt>
      <trkpt lat="44.35655" lon="6.48242">
        <ele>1419.4</ele>
        <time>2018-08-05T06:36:28Z</time>
      </trkpt>
      <trkpt lat="44.35658" lon="6.48245">
        <ele>1420.6</ele>
        <time>2018-08-05T06:36:30Z</time>
      </trkpt>
      <trkpt lat="44.35661" lon="6.48247">
        <ele>1422</ele>
        <time>2018-08-05T06:36:32Z</time>
      </trkpt>
      <trkpt lat="44.35665" lon="6.48248">
        <ele>1423.7</ele>
        <time>2018-08-05T06:36:34Z</time>
      </trkpt>
      <trkpt lat="44.35668" lon="6.48249">
        <ele>1425.2</ele>
        <time>2018-08-05T06:36:36Z</time>
      </trkpt>
      <trkpt lat="44.35672" lon="6.48249">
        <ele>1426.3</ele>
        <time>2018-08-05T06:36:38Z</time>
      </trkpt>
      <trkpt lat="44.35675" lon="6.48249">
        <ele>1427.4</ele>
        <time>2018-08-05T06:36:40Z</time>
      </trkpt>
      <trkpt lat="44.35679" lon="6.48249">
        <ele>1428.3</ele>
        <time>2018-08-05T06:36:42Z</time>
      </trkpt>
      <trkpt lat="44.35682" lon="6.48247">
        <ele>1429.1</ele>
        <time>2018-08-05T06:36:44Z</time>
      </trkpt>
      <trkpt lat="44.35686" lon="6.48245">
        <ele>1428.5</ele>
        <time>2018-08-05T06:36:46Z</time>
      </trkpt>
      <trkpt lat="44.3569" lon="6.48244">
        <ele>1427.8</ele>
        <time>2018-08-05T06:36:50Z</time>
      </trkpt>
      <trkpt lat="44.35691" lon="6.4824">
        <ele>1427.2</ele>
        <time>2018-08-05T06:36:52Z</time>
      </trkpt>
      <trkpt lat="44.35694" lon="6.48237">
        <ele>1426.5</ele>
        <time>2018-08-05T06:36:54Z</time>
      </trkpt>
      <trkpt lat="44.35696" lon="6.48233">
        <ele>1426.3</ele>
        <time>2018-08-05T06:36:56Z</time>
      </trkpt>
      <trkpt lat="44.357" lon="6.4823">
        <ele>1432.5</ele>
        <time>2018-08-05T06:36:58Z</time>
      </trkpt>
      <trkpt lat="44.35702" lon="6.48227">
        <ele>1431</ele>
        <time>2018-08-05T06:37:00Z</time>
      </trkpt>
      <trkpt lat="44.35704" lon="6.48223">
        <ele>1429.9</ele>
        <time>2018-08-05T06:37:02Z</time>
      </trkpt>
      <trkpt lat="44.35706" lon="6.48219">
        <ele>1429.3</ele>
        <time>2018-08-05T06:37:04Z</time>
      </trkpt>
      <trkpt lat="44.35708" lon="6.48213">
        <ele>1428.2</ele>
        <time>2018-08-05T06:37:07Z</time>
      </trkpt>
      <trkpt lat="44.3571" lon="6.48207">
        <ele>1426.8</ele>
        <time>2018-08-05T06:37:10Z</time>
      </trkpt>
      <trkpt lat="44.35712" lon="6.48202">
        <ele>1425.1</ele>
        <time>2018-08-05T06:37:12Z</time>
      </trkpt>
      <trkpt lat="44.35714" lon="6.482">
        <ele>1425.5</ele>
        <time>2018-08-05T06:37:14Z</time>
      </trkpt>
      <trkpt lat="44.35716" lon="6.48202">
        <ele>1426.5</ele>
        <time>2018-08-05T06:37:16Z</time>
      </trkpt>
      <trkpt lat="44.35718" lon="6.48206">
        <ele>1427.3</ele>
        <time>2018-08-05T06:37:18Z</time>
      </trkpt>
      <trkpt lat="44.35717" lon="6.4821">
        <ele>1428.3</ele>
        <time>2018-08-05T06:37:21Z</time>
      </trkpt>
      <trkpt lat="44.35716" lon="6.48215">
        <ele>1429.1</ele>
        <time>2018-08-05T06:37:24Z</time>
      </trkpt>
      <trkpt lat="44.35715" lon="6.48221">
        <ele>1429.8</ele>
        <time>2018-08-05T06:37:26Z</time>
      </trkpt>
      <trkpt lat="44.35713" lon="6.48226">
        <ele>1430.9</ele>
        <time>2018-08-05T06:37:28Z</time>
      </trkpt>
      <trkpt lat="44.35712" lon="6.48231">
        <ele>1432.3</ele>
        <time>2018-08-05T06:37:30Z</time>
      </trkpt>
      <trkpt lat="44.3571" lon="6.48235">
        <ele>1433.8</ele>
        <time>2018-08-05T06:37:32Z</time>
      </trkpt>
      <trkpt lat="44.35709" lon="6.4824">
        <ele>1435.2</ele>
        <time>2018-08-05T06:37:34Z</time>
      </trkpt>
      <trkpt lat="44.35708" lon="6.48245">
        <ele>1436.5</ele>
        <time>2018-08-05T06:37:37Z</time>
      </trkpt>
      <trkpt lat="44.35707" lon="6.4825">
        <ele>1437.5</ele>
        <time>2018-08-05T06:37:39Z</time>
      </trkpt>
      <trkpt lat="44.35707" lon="6.48255">
        <ele>1437.9</ele>
        <time>2018-08-05T06:37:41Z</time>
      </trkpt>
      <trkpt lat="44.35706" lon="6.48258">
        <ele>1438.3</ele>
        <time>2018-08-05T06:37:43Z</time>
      </trkpt>
      <trkpt lat="44.35704" lon="6.48264">
        <ele>1439</ele>
        <time>2018-08-05T06:37:45Z</time>
      </trkpt>
      <trkpt lat="44.35703" lon="6.48269">
        <ele>1439.9</ele>
        <time>2018-08-05T06:37:48Z</time>
      </trkpt>
      <trkpt lat="44.35703" lon="6.48274">
        <ele>1440.9</ele>
        <time>2018-08-05T06:37:50Z</time>
      </trkpt>
      <trkpt lat="44.35701" lon="6.4828">
        <ele>1441</ele>
        <time>2018-08-05T06:37:52Z</time>
      </trkpt>
      <trkpt lat="44.35699" lon="6.48283">
        <ele>1441</ele>
        <time>2018-08-05T06:37:55Z</time>
      </trkpt>
      <trkpt lat="44.35696" lon="6.48286">
        <ele>1441.1</ele>
        <time>2018-08-05T06:37:57Z</time>
      </trkpt>
      <trkpt lat="44.35694" lon="6.48289">
        <ele>1441.5</ele>
        <time>2018-08-05T06:37:59Z</time>
      </trkpt>
      <trkpt lat="44.35691" lon="6.48292">
        <ele>1441.9</ele>
        <time>2018-08-05T06:38:01Z</time>
      </trkpt>
      <trkpt lat="44.35688" lon="6.48294">
        <ele>1441.2</ele>
        <time>2018-08-05T06:38:03Z</time>
      </trkpt>
      <trkpt lat="44.35685" lon="6.48297">
        <ele>1440.4</ele>
        <time>2018-08-05T06:38:05Z</time>
      </trkpt>
      <trkpt lat="44.35682" lon="6.483">
        <ele>1440</ele>
        <time>2018-08-05T06:38:07Z</time>
      </trkpt>
      <trkpt lat="44.3568" lon="6.48303">
        <ele>1439.8</ele>
        <time>2018-08-05T06:38:09Z</time>
      </trkpt>
      <trkpt lat="44.35677" lon="6.48307">
        <ele>1439.9</ele>
        <time>2018-08-05T06:38:11Z</time>
      </trkpt>
      <trkpt lat="44.35674" lon="6.48312">
        <ele>1440.2</ele>
        <time>2018-08-05T06:38:13Z</time>
      </trkpt>
      <trkpt lat="44.35673" lon="6.48316">
        <ele>1440.1</ele>
        <time>2018-08-05T06:38:15Z</time>
      </trkpt>
      <trkpt lat="44.35671" lon="6.4832">
        <ele>1439.7</ele>
        <time>2018-08-05T06:38:17Z</time>
      </trkpt>
      <trkpt lat="44.35668" lon="6.48325">
        <ele>1439.7</ele>
        <time>2018-08-05T06:38:19Z</time>
      </trkpt>
      <trkpt lat="44.35665" lon="6.48329">
        <ele>1439.9</ele>
        <time>2018-08-05T06:38:21Z</time>
      </trkpt>
      <trkpt lat="44.35663" lon="6.48334">
        <ele>1440</ele>
        <time>2018-08-05T06:38:23Z</time>
      </trkpt>
      <trkpt lat="44.35662" lon="6.48339">
        <ele>1439.9</ele>
        <time>2018-08-05T06:38:25Z</time>
      </trkpt>
      <trkpt lat="44.35661" lon="6.48345">
        <ele>1440</ele>
        <time>2018-08-05T06:38:27Z</time>
      </trkpt>
      <trkpt lat="44.35658" lon="6.48352">
        <ele>1440.2</ele>
        <time>2018-08-05T06:38:29Z</time>
      </trkpt>
      <trkpt lat="44.35657" lon="6.48356">
        <ele>1440.3</ele>
        <time>2018-08-05T06:38:30Z</time>
      </trkpt>
      <trkpt lat="44.35654" lon="6.48362">
        <ele>1440.7</ele>
        <time>2018-08-05T06:38:32Z</time>
      </trkpt>
      <trkpt lat="44.35653" lon="6.48365">
        <ele>1441</ele>
        <time>2018-08-05T06:38:33Z</time>
      </trkpt>
      <trkpt lat="44.35651" lon="6.48369">
        <ele>1441.7</ele>
        <time>2018-08-05T06:38:34Z</time>
      </trkpt>
      <trkpt lat="44.3565" lon="6.48373">
        <ele>1442.4</ele>
        <time>2018-08-05T06:38:35Z</time>
      </trkpt>
      <trkpt lat="44.35649" lon="6.48379">
        <ele>1442.5</ele>
        <time>2018-08-05T06:38:37Z</time>
      </trkpt>
      <trkpt lat="44.35648" lon="6.48383">
        <ele>1442.3</ele>
        <time>2018-08-05T06:38:38Z</time>
      </trkpt>
      <trkpt lat="44.35645" lon="6.48389">
        <ele>1442.6</ele>
        <time>2018-08-05T06:38:40Z</time>
      </trkpt>
      <trkpt lat="44.35642" lon="6.48395">
        <ele>1443.4</ele>
        <time>2018-08-05T06:38:42Z</time>
      </trkpt>
      <trkpt lat="44.3564" lon="6.48401">
        <ele>1443.8</ele>
        <time>2018-08-05T06:38:44Z</time>
      </trkpt>
      <trkpt lat="44.35637" lon="6.48407">
        <ele>1444.1</ele>
        <time>2018-08-05T06:38:46Z</time>
      </trkpt>
      <trkpt lat="44.35633" lon="6.48413">
        <ele>1444.5</ele>
        <time>2018-08-05T06:38:48Z</time>
      </trkpt>
      <trkpt lat="44.35631" lon="6.48415">
        <ele>1444.7</ele>
        <time>2018-08-05T06:38:49Z</time>
      </trkpt>
      <trkpt lat="44.35628" lon="6.48419">
        <ele>1444.9</ele>
        <time>2018-08-05T06:38:50Z</time>
      </trkpt>
      <trkpt lat="44.35624" lon="6.48421">
        <ele>1445</ele>
        <time>2018-08-05T06:38:51Z</time>
      </trkpt>
      <trkpt lat="44.35621" lon="6.48424">
        <ele>1445.2</ele>
        <time>2018-08-05T06:38:52Z</time>
      </trkpt>
      <trkpt lat="44.35617" lon="6.48427">
        <ele>1445.4</ele>
        <time>2018-08-05T06:38:53Z</time>
      </trkpt>
      <trkpt lat="44.35614" lon="6.48431">
        <ele>1445.6</ele>
        <time>2018-08-05T06:38:54Z</time>
      </trkpt>
      <trkpt lat="44.35612" lon="6.48435">
        <ele>1445.7</ele>
        <time>2018-08-05T06:38:55Z</time>
      </trkpt>
      <trkpt lat="44.3561" lon="6.4844">
        <ele>1445.8</ele>
        <time>2018-08-05T06:38:56Z</time>
      </trkpt>
      <trkpt lat="44.35608" lon="6.48444">
        <ele>1445.9</ele>
        <time>2018-08-05T06:38:57Z</time>
      </trkpt>
      <trkpt lat="44.35607" lon="6.48449">
        <ele>1446.1</ele>
        <time>2018-08-05T06:38:58Z</time>
      </trkpt>
      <trkpt lat="44.35605" lon="6.48454">
        <ele>1446.3</ele>
        <time>2018-08-05T06:38:59Z</time>
      </trkpt>
      <trkpt lat="44.35604" lon="6.48459">
        <ele>1446.6</ele>
        <time>2018-08-05T06:39:00Z</time>
      </trkpt>
      <trkpt lat="44.35602" lon="6.48463">
        <ele>1447</ele>
        <time>2018-08-05T06:39:01Z</time>
      </trkpt>
      <trkpt lat="44.35599" lon="6.48467">
        <ele>1447.4</ele>
        <time>2018-08-05T06:39:02Z</time>
      </trkpt>
      <trkpt lat="44.35598" lon="6.48471">
        <ele>1447.8</ele>
        <time>2018-08-05T06:39:03Z</time>
      </trkpt>
      <trkpt lat="44.35595" lon="6.48473">
        <ele>1448.5</ele>
        <time>2018-08-05T06:39:04Z</time>
      </trkpt>
      <trkpt lat="44.35592" lon="6.48477">
        <ele>1449.6</ele>
        <time>2018-08-05T06:39:05Z</time>
      </trkpt>
      <trkpt lat="44.35589" lon="6.4848">
        <ele>1450.2</ele>
        <time>2018-08-05T06:39:06Z</time>
      </trkpt>
      <trkpt lat="44.35585" lon="6.48483">
        <ele>1450.4</ele>
        <time>2018-08-05T06:39:07Z</time>
      </trkpt>
      <trkpt lat="44.35581" lon="6.48486">
        <ele>1450.8</ele>
        <time>2018-08-05T06:39:08Z</time>
      </trkpt>
      <trkpt lat="44.35578" lon="6.4849">
        <ele>1451.6</ele>
        <time>2018-08-05T06:39:09Z</time>
      </trkpt>
      <trkpt lat="44.35575" lon="6.48494">
        <ele>1452.4</ele>
        <time>2018-08-05T06:39:10Z</time>
      </trkpt>
      <trkpt lat="44.35572" lon="6.48498">
        <ele>1453.4</ele>
        <time>2018-08-05T06:39:11Z</time>
      </trkpt>
      <trkpt lat="44.3557" lon="6.48502">
        <ele>1454.3</ele>
        <time>2018-08-05T06:39:12Z</time>
      </trkpt>
      <trkpt lat="44.35567" lon="6.48504">
        <ele>1455.2</ele>
        <time>2018-08-05T06:39:13Z</time>
      </trkpt>
      <trkpt lat="44.35563" lon="6.4851">
        <ele>1456.5</ele>
        <time>2018-08-05T06:39:15Z</time>
      </trkpt>
      <trkpt lat="44.35561" lon="6.48512">
        <ele>1457.2</ele>
        <time>2018-08-05T06:39:16Z</time>
      </trkpt>
      <trkpt lat="44.35559" lon="6.48515">
        <ele>1458</ele>
        <time>2018-08-05T06:39:17Z</time>
      </trkpt>
      <trkpt lat="44.35557" lon="6.4852">
        <ele>1459</ele>
        <time>2018-08-05T06:39:19Z</time>
      </trkpt>
      <trkpt lat="44.35553" lon="6.48525">
        <ele>1460.2</ele>
        <time>2018-08-05T06:39:21Z</time>
      </trkpt>
      <trkpt lat="44.3555" lon="6.48529">
        <ele>1461</ele>
        <time>2018-08-05T06:39:23Z</time>
      </trkpt>
      <trkpt lat="44.35547" lon="6.48533">
        <ele>1461</ele>
        <time>2018-08-05T06:39:25Z</time>
      </trkpt>
      <trkpt lat="44.35544" lon="6.48535">
        <ele>1461.4</ele>
        <time>2018-08-05T06:39:27Z</time>
      </trkpt>
      <trkpt lat="44.35539" lon="6.48535">
        <ele>1462.4</ele>
        <time>2018-08-05T06:39:29Z</time>
      </trkpt>
      <trkpt lat="44.35536" lon="6.48534">
        <ele>1462.5</ele>
        <time>2018-08-05T06:39:31Z</time>
      </trkpt>
      <trkpt lat="44.35534" lon="6.48531">
        <ele>1462.5</ele>
        <time>2018-08-05T06:39:33Z</time>
      </trkpt>
      <trkpt lat="44.35531" lon="6.48529">
        <ele>1462.1</ele>
        <time>2018-08-05T06:39:35Z</time>
      </trkpt>
      <trkpt lat="44.35529" lon="6.48524">
        <ele>1461.7</ele>
        <time>2018-08-05T06:39:37Z</time>
      </trkpt>
      <trkpt lat="44.35526" lon="6.48521">
        <ele>1460.8</ele>
        <time>2018-08-05T06:39:39Z</time>
      </trkpt>
      <trkpt lat="44.35522" lon="6.48518">
        <ele>1459.7</ele>
        <time>2018-08-05T06:39:42Z</time>
      </trkpt>
      <trkpt lat="44.35519" lon="6.48515">
        <ele>1459</ele>
        <time>2018-08-05T06:39:43Z</time>
      </trkpt>
      <trkpt lat="44.35516" lon="6.48515">
        <ele>1458.5</ele>
        <time>2018-08-05T06:39:45Z</time>
      </trkpt>
      <trkpt lat="44.35512" lon="6.48512">
        <ele>1458</ele>
        <time>2018-08-05T06:39:47Z</time>
      </trkpt>
      <trkpt lat="44.35507" lon="6.48512">
        <ele>1457.7</ele>
        <time>2018-08-05T06:39:49Z</time>
      </trkpt>
      <trkpt lat="44.35504" lon="6.48512">
        <ele>1457</ele>
        <time>2018-08-05T06:39:52Z</time>
      </trkpt>
      <trkpt lat="44.355" lon="6.48512">
        <ele>1455.8</ele>
        <time>2018-08-05T06:39:54Z</time>
      </trkpt>
      <trkpt lat="44.35496" lon="6.48513">
        <ele>1455.3</ele>
        <time>2018-08-05T06:39:56Z</time>
      </trkpt>
      <trkpt lat="44.35492" lon="6.48514">
        <ele>1454.9</ele>
        <time>2018-08-05T06:39:58Z</time>
      </trkpt>
      <trkpt lat="44.35488" lon="6.48515">
        <ele>1454.5</ele>
        <time>2018-08-05T06:40:00Z</time>
      </trkpt>
      <trkpt lat="44.35483" lon="6.48516">
        <ele>1454.1</ele>
        <time>2018-08-05T06:40:02Z</time>
      </trkpt>
      <trkpt lat="44.35479" lon="6.48519">
        <ele>1454</ele>
        <time>2018-08-05T06:40:04Z</time>
      </trkpt>
      <trkpt lat="44.35475" lon="6.48521">
        <ele>1453.9</ele>
        <time>2018-08-05T06:40:06Z</time>
      </trkpt>
      <trkpt lat="44.35473" lon="6.48525">
        <ele>1453.9</ele>
        <time>2018-08-05T06:40:08Z</time>
      </trkpt>
      <trkpt lat="44.35469" lon="6.48527">
        <ele>1453.9</ele>
        <time>2018-08-05T06:40:10Z</time>
      </trkpt>
      <trkpt lat="44.35466" lon="6.48529">
        <ele>1453.8</ele>
        <time>2018-08-05T06:40:12Z</time>
      </trkpt>
      <trkpt lat="44.35462" lon="6.4853">
        <ele>1453.7</ele>
        <time>2018-08-05T06:40:14Z</time>
      </trkpt>
      <trkpt lat="44.3546" lon="6.48533">
        <ele>1453.5</ele>
        <time>2018-08-05T06:40:16Z</time>
      </trkpt>
      <trkpt lat="44.35456" lon="6.48535">
        <ele>1453.3</ele>
        <time>2018-08-05T06:40:18Z</time>
      </trkpt>
      <trkpt lat="44.35453" lon="6.48538">
        <ele>1453.7</ele>
        <time>2018-08-05T06:40:20Z</time>
      </trkpt>
      <trkpt lat="44.3545" lon="6.4854">
        <ele>1454.1</ele>
        <time>2018-08-05T06:40:22Z</time>
      </trkpt>
      <trkpt lat="44.35447" lon="6.48542">
        <ele>1454.1</ele>
        <time>2018-08-05T06:40:24Z</time>
      </trkpt>
      <trkpt lat="44.35444" lon="6.48545">
        <ele>1453.9</ele>
        <time>2018-08-05T06:40:26Z</time>
      </trkpt>
      <trkpt lat="44.35442" lon="6.48549">
        <ele>1453.7</ele>
        <time>2018-08-05T06:40:28Z</time>
      </trkpt>
      <trkpt lat="44.35439" lon="6.4855">
        <ele>1453.3</ele>
        <time>2018-08-05T06:40:30Z</time>
      </trkpt>
      <trkpt lat="44.35436" lon="6.48553">
        <ele>1453</ele>
        <time>2018-08-05T06:40:32Z</time>
      </trkpt>
      <trkpt lat="44.35434" lon="6.48556">
        <ele>1452.9</ele>
        <time>2018-08-05T06:40:34Z</time>
      </trkpt>
      <trkpt lat="44.35431" lon="6.4856">
        <ele>1452.7</ele>
        <time>2018-08-05T06:40:37Z</time>
      </trkpt>
      <trkpt lat="44.35428" lon="6.48562">
        <ele>1452.9</ele>
        <time>2018-08-05T06:40:40Z</time>
      </trkpt>
      <trkpt lat="44.35425" lon="6.48566">
        <ele>1453.2</ele>
        <time>2018-08-05T06:40:42Z</time>
      </trkpt>
      <trkpt lat="44.35422" lon="6.48566">
        <ele>1453.2</ele>
        <time>2018-08-05T06:40:44Z</time>
      </trkpt>
      <trkpt lat="44.35419" lon="6.48569">
        <ele>1452.5</ele>
        <time>2018-08-05T06:40:46Z</time>
      </trkpt>
      <trkpt lat="44.35416" lon="6.4857">
        <ele>1451.9</ele>
        <time>2018-08-05T06:40:49Z</time>
      </trkpt>
      <trkpt lat="44.35412" lon="6.48572">
        <ele>1452.2</ele>
        <time>2018-08-05T06:40:51Z</time>
      </trkpt>
      <trkpt lat="44.35409" lon="6.48575">
        <ele>1452.5</ele>
        <time>2018-08-05T06:40:54Z</time>
      </trkpt>
      <trkpt lat="44.35405" lon="6.48576">
        <ele>1452.5</ele>
        <time>2018-08-05T06:40:57Z</time>
      </trkpt>
      <trkpt lat="44.35403" lon="6.48577">
        <ele>1452.4</ele>
        <time>2018-08-05T06:40:58Z</time>
      </trkpt>
      <trkpt lat="44.354" lon="6.4858">
        <ele>1452.2</ele>
        <time>2018-08-05T06:41:00Z</time>
      </trkpt>
      <trkpt lat="44.35397" lon="6.48584">
        <ele>1452</ele>
        <time>2018-08-05T06:41:03Z</time>
      </trkpt>
      <trkpt lat="44.35393" lon="6.48586">
        <ele>1451.9</ele>
        <time>2018-08-05T06:41:05Z</time>
      </trkpt>
      <trkpt lat="44.3539" lon="6.48588">
        <ele>1451.9</ele>
        <time>2018-08-05T06:41:08Z</time>
      </trkpt>
      <trkpt lat="44.35387" lon="6.4859">
        <ele>1452</ele>
        <time>2018-08-05T06:41:10Z</time>
      </trkpt>
      <trkpt lat="44.35383" lon="6.48594">
        <ele>1452</ele>
        <time>2018-08-05T06:41:13Z</time>
      </trkpt>
      <trkpt lat="44.3538" lon="6.48598">
        <ele>1452</ele>
        <time>2018-08-05T06:41:15Z</time>
      </trkpt>
      <trkpt lat="44.35376" lon="6.48601">
        <ele>1452.6</ele>
        <time>2018-08-05T06:41:17Z</time>
      </trkpt>
      <trkpt lat="44.35375" lon="6.48604">
        <ele>1453</ele>
        <time>2018-08-05T06:41:19Z</time>
      </trkpt>
      <trkpt lat="44.35372" lon="6.48606">
        <ele>1453</ele>
        <time>2018-08-05T06:41:21Z</time>
      </trkpt>
      <trkpt lat="44.3537" lon="6.48608">
        <ele>1452.6</ele>
        <time>2018-08-05T06:41:24Z</time>
      </trkpt>
      <trkpt lat="44.35367" lon="6.48612">
        <ele>1452.2</ele>
        <time>2018-08-05T06:41:26Z</time>
      </trkpt>
      <trkpt lat="44.35364" lon="6.48614">
        <ele>1453.1</ele>
        <time>2018-08-05T06:41:28Z</time>
      </trkpt>
      <trkpt lat="44.35361" lon="6.48616">
        <ele>1453.7</ele>
        <time>2018-08-05T06:41:30Z</time>
      </trkpt>
      <trkpt lat="44.3536" lon="6.48621">
        <ele>1453.7</ele>
        <time>2018-08-05T06:41:32Z</time>
      </trkpt>
      <trkpt lat="44.35358" lon="6.48625">
        <ele>1453.6</ele>
        <time>2018-08-05T06:41:34Z</time>
      </trkpt>
      <trkpt lat="44.35355" lon="6.48628">
        <ele>1454</ele>
        <time>2018-08-05T06:41:37Z</time>
      </trkpt>
      <trkpt lat="44.35353" lon="6.48631">
        <ele>1454.4</ele>
        <time>2018-08-05T06:41:39Z</time>
      </trkpt>
      <trkpt lat="44.3535" lon="6.48634">
        <ele>1455.1</ele>
        <time>2018-08-05T06:41:41Z</time>
      </trkpt>
      <trkpt lat="44.35348" lon="6.48637">
        <ele>1455.8</ele>
        <time>2018-08-05T06:41:43Z</time>
      </trkpt>
      <trkpt lat="44.35347" lon="6.48643">
        <ele>1456.8</ele>
        <time>2018-08-05T06:41:46Z</time>
      </trkpt>
      <trkpt lat="44.35344" lon="6.48648">
        <ele>1457.6</ele>
        <time>2018-08-05T06:41:49Z</time>
      </trkpt>
      <trkpt lat="44.35341" lon="6.48653">
        <ele>1458.4</ele>
        <time>2018-08-05T06:41:51Z</time>
      </trkpt>
      <trkpt lat="44.35339" lon="6.48657">
        <ele>1459.2</ele>
        <time>2018-08-05T06:41:53Z</time>
      </trkpt>
      <trkpt lat="44.35336" lon="6.48661">
        <ele>1460.2</ele>
        <time>2018-08-05T06:41:55Z</time>
      </trkpt>
      <trkpt lat="44.35335" lon="6.48665">
        <ele>1461</ele>
        <time>2018-08-05T06:41:57Z</time>
      </trkpt>
      <trkpt lat="44.35332" lon="6.4867">
        <ele>1462.1</ele>
        <time>2018-08-05T06:41:59Z</time>
      </trkpt>
      <trkpt lat="44.3533" lon="6.48674">
        <ele>1462.9</ele>
        <time>2018-08-05T06:42:01Z</time>
      </trkpt>
      <trkpt lat="44.35328" lon="6.48678">
        <ele>1463.6</ele>
        <time>2018-08-05T06:42:03Z</time>
      </trkpt>
      <trkpt lat="44.35326" lon="6.48681">
        <ele>1464.2</ele>
        <time>2018-08-05T06:42:05Z</time>
      </trkpt>
      <trkpt lat="44.35324" lon="6.48685">
        <ele>1464.7</ele>
        <time>2018-08-05T06:42:07Z</time>
      </trkpt>
      <trkpt lat="44.35323" lon="6.48688">
        <ele>1465.1</ele>
        <time>2018-08-05T06:42:09Z</time>
      </trkpt>
      <trkpt lat="44.3532" lon="6.4869">
        <ele>1465.5</ele>
        <time>2018-08-05T06:42:11Z</time>
      </trkpt>
      <trkpt lat="44.35318" lon="6.48693">
        <ele>1466</ele>
        <time>2018-08-05T06:42:13Z</time>
      </trkpt>
      <trkpt lat="44.35316" lon="6.48697">
        <ele>1466.4</ele>
        <time>2018-08-05T06:42:15Z</time>
      </trkpt>
      <trkpt lat="44.35314" lon="6.487">
        <ele>1466.6</ele>
        <time>2018-08-05T06:42:17Z</time>
      </trkpt>
      <trkpt lat="44.35312" lon="6.48703">
        <ele>1466.8</ele>
        <time>2018-08-05T06:42:19Z</time>
      </trkpt>
      <trkpt lat="44.35308" lon="6.48707">
        <ele>1467.1</ele>
        <time>2018-08-05T06:42:22Z</time>
      </trkpt>
      <trkpt lat="44.35306" lon="6.4871">
        <ele>1467.3</ele>
        <time>2018-08-05T06:42:25Z</time>
      </trkpt>
      <trkpt lat="44.35304" lon="6.48713">
        <ele>1467.5</ele>
        <time>2018-08-05T06:42:27Z</time>
      </trkpt>
      <trkpt lat="44.35302" lon="6.48717">
        <ele>1468</ele>
        <time>2018-08-05T06:42:29Z</time>
      </trkpt>
      <trkpt lat="44.35301" lon="6.48722">
        <ele>1468.6</ele>
        <time>2018-08-05T06:42:31Z</time>
      </trkpt>
      <trkpt lat="44.35299" lon="6.48725">
        <ele>1469.3</ele>
        <time>2018-08-05T06:42:34Z</time>
      </trkpt>
      <trkpt lat="44.35297" lon="6.48729">
        <ele>1470</ele>
        <time>2018-08-05T06:42:36Z</time>
      </trkpt>
      <trkpt lat="44.35295" lon="6.48732">
        <ele>1470.7</ele>
        <time>2018-08-05T06:42:38Z</time>
      </trkpt>
      <trkpt lat="44.35293" lon="6.48736">
        <ele>1471.4</ele>
        <time>2018-08-05T06:42:40Z</time>
      </trkpt>
      <trkpt lat="44.35291" lon="6.4874">
        <ele>1472</ele>
        <time>2018-08-05T06:42:42Z</time>
      </trkpt>
      <trkpt lat="44.35289" lon="6.48743">
        <ele>1472.6</ele>
        <time>2018-08-05T06:42:44Z</time>
      </trkpt>
      <trkpt lat="44.35288" lon="6.48749">
        <ele>1473.5</ele>
        <time>2018-08-05T06:42:47Z</time>
      </trkpt>
      <trkpt lat="44.35285" lon="6.48752">
        <ele>1474.3</ele>
        <time>2018-08-05T06:42:49Z</time>
      </trkpt>
      <trkpt lat="44.35283" lon="6.48756">
        <ele>1474.7</ele>
        <time>2018-08-05T06:42:51Z</time>
      </trkpt>
      <trkpt lat="44.3528" lon="6.48759">
        <ele>1475.1</ele>
        <time>2018-08-05T06:42:53Z</time>
      </trkpt>
      <trkpt lat="44.35279" lon="6.48764">
        <ele>1475.5</ele>
        <time>2018-08-05T06:42:56Z</time>
      </trkpt>
      <trkpt lat="44.35277" lon="6.48768">
        <ele>1476.2</ele>
        <time>2018-08-05T06:42:58Z</time>
      </trkpt>
      <trkpt lat="44.35275" lon="6.48771">
        <ele>1476.8</ele>
        <time>2018-08-05T06:43:00Z</time>
      </trkpt>
      <trkpt lat="44.35273" lon="6.48774">
        <ele>1477.3</ele>
        <time>2018-08-05T06:43:02Z</time>
      </trkpt>
      <trkpt lat="44.35271" lon="6.48778">
        <ele>1477.7</ele>
        <time>2018-08-05T06:43:04Z</time>
      </trkpt>
      <trkpt lat="44.35269" lon="6.48781">
        <ele>1478</ele>
        <time>2018-08-05T06:43:06Z</time>
      </trkpt>
      <trkpt lat="44.35267" lon="6.48784">
        <ele>1478.4</ele>
        <time>2018-08-05T06:43:08Z</time>
      </trkpt>
      <trkpt lat="44.35266" lon="6.48788">
        <ele>1478.9</ele>
        <time>2018-08-05T06:43:10Z</time>
      </trkpt>
      <trkpt lat="44.35263" lon="6.48791">
        <ele>1479.1</ele>
        <time>2018-08-05T06:43:12Z</time>
      </trkpt>
      <trkpt lat="44.35261" lon="6.48796">
        <ele>1479.4</ele>
        <time>2018-08-05T06:43:15Z</time>
      </trkpt>
      <trkpt lat="44.35258" lon="6.48798">
        <ele>1479.6</ele>
        <time>2018-08-05T06:43:17Z</time>
      </trkpt>
      <trkpt lat="44.35257" lon="6.48801">
        <ele>1479.9</ele>
        <time>2018-08-05T06:43:19Z</time>
      </trkpt>
      <trkpt lat="44.35255" lon="6.48804">
        <ele>1480.2</ele>
        <time>2018-08-05T06:43:21Z</time>
      </trkpt>
      <trkpt lat="44.35251" lon="6.48807">
        <ele>1480.6</ele>
        <time>2018-08-05T06:43:23Z</time>
      </trkpt>
      <trkpt lat="44.35249" lon="6.48811">
        <ele>1480.9</ele>
        <time>2018-08-05T06:43:25Z</time>
      </trkpt>
      <trkpt lat="44.35248" lon="6.48815">
        <ele>1481.9</ele>
        <time>2018-08-05T06:43:27Z</time>
      </trkpt>
      <trkpt lat="44.35246" lon="6.48819">
        <ele>1483</ele>
        <time>2018-08-05T06:43:29Z</time>
      </trkpt>
      <trkpt lat="44.35245" lon="6.48823">
        <ele>1483.9</ele>
        <time>2018-08-05T06:43:31Z</time>
      </trkpt>
      <trkpt lat="44.35241" lon="6.48828">
        <ele>1484.7</ele>
        <time>2018-08-05T06:43:34Z</time>
      </trkpt>
      <trkpt lat="44.3524" lon="6.48832">
        <ele>1485.3</ele>
        <time>2018-08-05T06:43:36Z</time>
      </trkpt>
      <trkpt lat="44.35238" lon="6.48838">
        <ele>1486.3</ele>
        <time>2018-08-05T06:43:39Z</time>
      </trkpt>
      <trkpt lat="44.35237" lon="6.48842">
        <ele>1487.1</ele>
        <time>2018-08-05T06:43:41Z</time>
      </trkpt>
      <trkpt lat="44.35235" lon="6.48848">
        <ele>1487.8</ele>
        <time>2018-08-05T06:43:43Z</time>
      </trkpt>
      <trkpt lat="44.35234" lon="6.48852">
        <ele>1488.2</ele>
        <time>2018-08-05T06:43:45Z</time>
      </trkpt>
      <trkpt lat="44.35232" lon="6.48855">
        <ele>1488.7</ele>
        <time>2018-08-05T06:43:47Z</time>
      </trkpt>
      <trkpt lat="44.3523" lon="6.48859">
        <ele>1489.5</ele>
        <time>2018-08-05T06:43:50Z</time>
      </trkpt>
      <trkpt lat="44.35229" lon="6.48864">
        <ele>1490.2</ele>
        <time>2018-08-05T06:43:52Z</time>
      </trkpt>
      <trkpt lat="44.35227" lon="6.48868">
        <ele>1490.7</ele>
        <time>2018-08-05T06:43:54Z</time>
      </trkpt>
      <trkpt lat="44.35226" lon="6.48873">
        <ele>1491.4</ele>
        <time>2018-08-05T06:43:56Z</time>
      </trkpt>
      <trkpt lat="44.35225" lon="6.48877">
        <ele>1492</ele>
        <time>2018-08-05T06:43:58Z</time>
      </trkpt>
      <trkpt lat="44.35224" lon="6.48881">
        <ele>1492.4</ele>
        <time>2018-08-05T06:44:00Z</time>
      </trkpt>
      <trkpt lat="44.35222" lon="6.48884">
        <ele>1493.1</ele>
        <time>2018-08-05T06:44:02Z</time>
      </trkpt>
      <trkpt lat="44.3522" lon="6.48888">
        <ele>1494.1</ele>
        <time>2018-08-05T06:44:04Z</time>
      </trkpt>
      <trkpt lat="44.35217" lon="6.48891">
        <ele>1494.7</ele>
        <time>2018-08-05T06:44:06Z</time>
      </trkpt>
      <trkpt lat="44.35215" lon="6.48895">
        <ele>1495.2</ele>
        <time>2018-08-05T06:44:08Z</time>
      </trkpt>
      <trkpt lat="44.35213" lon="6.48898">
        <ele>1495.4</ele>
        <time>2018-08-05T06:44:10Z</time>
      </trkpt>
      <trkpt lat="44.3521" lon="6.48901">
        <ele>1495.3</ele>
        <time>2018-08-05T06:44:12Z</time>
      </trkpt>
      <trkpt lat="44.35207" lon="6.48903">
        <ele>1495.3</ele>
        <time>2018-08-05T06:44:14Z</time>
      </trkpt>
      <trkpt lat="44.35204" lon="6.48904">
        <ele>1495.5</ele>
        <time>2018-08-05T06:44:16Z</time>
      </trkpt>
      <trkpt lat="44.35202" lon="6.48906">
        <ele>1495.8</ele>
        <time>2018-08-05T06:44:18Z</time>
      </trkpt>
      <trkpt lat="44.35198" lon="6.48908">
        <ele>1495.9</ele>
        <time>2018-08-05T06:44:21Z</time>
      </trkpt>
      <trkpt lat="44.35194" lon="6.4891">
        <ele>1496.1</ele>
        <time>2018-08-05T06:44:24Z</time>
      </trkpt>
      <trkpt lat="44.35191" lon="6.48912">
        <ele>1496.2</ele>
        <time>2018-08-05T06:44:26Z</time>
      </trkpt>
      <trkpt lat="44.35189" lon="6.48915">
        <ele>1496.3</ele>
        <time>2018-08-05T06:44:28Z</time>
      </trkpt>
      <trkpt lat="44.35185" lon="6.48917">
        <ele>1495.9</ele>
        <time>2018-08-05T06:44:30Z</time>
      </trkpt>
      <trkpt lat="44.35183" lon="6.4892">
        <ele>1495.7</ele>
        <time>2018-08-05T06:44:32Z</time>
      </trkpt>
      <trkpt lat="44.3518" lon="6.48924">
        <ele>1495.3</ele>
        <time>2018-08-05T06:44:35Z</time>
      </trkpt>
      <trkpt lat="44.35178" lon="6.48928">
        <ele>1494.9</ele>
        <time>2018-08-05T06:44:37Z</time>
      </trkpt>
      <trkpt lat="44.35175" lon="6.48932">
        <ele>1494.4</ele>
        <time>2018-08-05T06:44:40Z</time>
      </trkpt>
      <trkpt lat="44.35172" lon="6.48937">
        <ele>1494.1</ele>
        <time>2018-08-05T06:44:43Z</time>
      </trkpt>
      <trkpt lat="44.35171" lon="6.48941">
        <ele>1494.1</ele>
        <time>2018-08-05T06:44:45Z</time>
      </trkpt>
      <trkpt lat="44.3517" lon="6.48946">
        <ele>1494.1</ele>
        <time>2018-08-05T06:44:47Z</time>
      </trkpt>
      <trkpt lat="44.35169" lon="6.48949">
        <ele>1494.8</ele>
        <time>2018-08-05T06:44:49Z</time>
      </trkpt>
      <trkpt lat="44.35167" lon="6.48954">
        <ele>1495.7</ele>
        <time>2018-08-05T06:44:51Z</time>
      </trkpt>
      <trkpt lat="44.35165" lon="6.48959">
        <ele>1496.3</ele>
        <time>2018-08-05T06:44:53Z</time>
      </trkpt>
      <trkpt lat="44.35164" lon="6.48964">
        <ele>1496.7</ele>
        <time>2018-08-05T06:44:55Z</time>
      </trkpt>
      <trkpt lat="44.35163" lon="6.48969">
        <ele>1497.1</ele>
        <time>2018-08-05T06:44:57Z</time>
      </trkpt>
      <trkpt lat="44.35163" lon="6.48972">
        <ele>1497.3</ele>
        <time>2018-08-05T06:44:59Z</time>
      </trkpt>
      <trkpt lat="44.35161" lon="6.48977">
        <ele>1497.6</ele>
        <time>2018-08-05T06:45:01Z</time>
      </trkpt>
      <trkpt lat="44.35159" lon="6.48981">
        <ele>1498</ele>
        <time>2018-08-05T06:45:03Z</time>
      </trkpt>
      <trkpt lat="44.35157" lon="6.48986">
        <ele>1498.4</ele>
        <time>2018-08-05T06:45:05Z</time>
      </trkpt>
      <trkpt lat="44.35154" lon="6.4899">
        <ele>1498.7</ele>
        <time>2018-08-05T06:45:07Z</time>
      </trkpt>
      <trkpt lat="44.35152" lon="6.48994">
        <ele>1499.1</ele>
        <time>2018-08-05T06:45:09Z</time>
      </trkpt>
      <trkpt lat="44.35151" lon="6.48998">
        <ele>1499.5</ele>
        <time>2018-08-05T06:45:11Z</time>
      </trkpt>
      <trkpt lat="44.3515" lon="6.49003">
        <ele>1500</ele>
        <time>2018-08-05T06:45:13Z</time>
      </trkpt>
      <trkpt lat="44.35148" lon="6.49007">
        <ele>1500.4</ele>
        <time>2018-08-05T06:45:15Z</time>
      </trkpt>
      <trkpt lat="44.35147" lon="6.49012">
        <ele>1500.8</ele>
        <time>2018-08-05T06:45:17Z</time>
      </trkpt>
      <trkpt lat="44.35145" lon="6.49016">
        <ele>1501</ele>
        <time>2018-08-05T06:45:19Z</time>
      </trkpt>
      <trkpt lat="44.35143" lon="6.49021">
        <ele>1501.5</ele>
        <time>2018-08-05T06:45:21Z</time>
      </trkpt>
      <trkpt lat="44.35141" lon="6.49025">
        <ele>1502</ele>
        <time>2018-08-05T06:45:23Z</time>
      </trkpt>
      <trkpt lat="44.35139" lon="6.4903">
        <ele>1502.6</ele>
        <time>2018-08-05T06:45:25Z</time>
      </trkpt>
      <trkpt lat="44.35137" lon="6.49034">
        <ele>1502.8</ele>
        <time>2018-08-05T06:45:27Z</time>
      </trkpt>
      <trkpt lat="44.35136" lon="6.49039">
        <ele>1503.1</ele>
        <time>2018-08-05T06:45:29Z</time>
      </trkpt>
      <trkpt lat="44.35135" lon="6.49044">
        <ele>1503.4</ele>
        <time>2018-08-05T06:45:31Z</time>
      </trkpt>
      <trkpt lat="44.35134" lon="6.49049">
        <ele>1503.8</ele>
        <time>2018-08-05T06:45:33Z</time>
      </trkpt>
      <trkpt lat="44.35133" lon="6.49053">
        <ele>1504.3</ele>
        <time>2018-08-05T06:45:35Z</time>
      </trkpt>
      <trkpt lat="44.35131" lon="6.49058">
        <ele>1504.9</ele>
        <time>2018-08-05T06:45:37Z</time>
      </trkpt>
      <trkpt lat="44.3513" lon="6.49061">
        <ele>1505.2</ele>
        <time>2018-08-05T06:45:38Z</time>
      </trkpt>
      <trkpt lat="44.35129" lon="6.49066">
        <ele>1505.4</ele>
        <time>2018-08-05T06:45:40Z</time>
      </trkpt>
      <trkpt lat="44.35127" lon="6.49071">
        <ele>1505.7</ele>
        <time>2018-08-05T06:45:42Z</time>
      </trkpt>
      <trkpt lat="44.35126" lon="6.49076">
        <ele>1505.9</ele>
        <time>2018-08-05T06:45:44Z</time>
      </trkpt>
      <trkpt lat="44.35125" lon="6.49083">
        <ele>1506.2</ele>
        <time>2018-08-05T06:45:46Z</time>
      </trkpt>
      <trkpt lat="44.35124" lon="6.49089">
        <ele>1506.6</ele>
        <time>2018-08-05T06:45:48Z</time>
      </trkpt>
      <trkpt lat="44.35126" lon="6.49093">
        <ele>1507.3</ele>
        <time>2018-08-05T06:45:50Z</time>
      </trkpt>
      <trkpt lat="44.3513" lon="6.49094">
        <ele>1508.1</ele>
        <time>2018-08-05T06:45:52Z</time>
      </trkpt>
      <trkpt lat="44.35133" lon="6.49095">
        <ele>1508.5</ele>
        <time>2018-08-05T06:45:54Z</time>
      </trkpt>
      <trkpt lat="44.35136" lon="6.49094">
        <ele>1509</ele>
        <time>2018-08-05T06:45:56Z</time>
      </trkpt>
      <trkpt lat="44.35138" lon="6.49089">
        <ele>1510.5</ele>
        <time>2018-08-05T06:45:58Z</time>
      </trkpt>
      <trkpt lat="44.35141" lon="6.49084">
        <ele>1512.7</ele>
        <time>2018-08-05T06:46:00Z</time>
      </trkpt>
      <trkpt lat="44.35142" lon="6.49079">
        <ele>1513.6</ele>
        <time>2018-08-05T06:46:02Z</time>
      </trkpt>
      <trkpt lat="44.35143" lon="6.49075">
        <ele>1513.6</ele>
        <time>2018-08-05T06:46:04Z</time>
      </trkpt>
      <trkpt lat="44.35144" lon="6.49071">
        <ele>1513.2</ele>
        <time>2018-08-05T06:46:06Z</time>
      </trkpt>
      <trkpt lat="44.35144" lon="6.49066">
        <ele>1512.9</ele>
        <time>2018-08-05T06:46:08Z</time>
      </trkpt>
      <trkpt lat="44.35147" lon="6.49062">
        <ele>1512.7</ele>
        <time>2018-08-05T06:46:10Z</time>
      </trkpt>
      <trkpt lat="44.3515" lon="6.49057">
        <ele>1512.1</ele>
        <time>2018-08-05T06:46:12Z</time>
      </trkpt>
      <trkpt lat="44.35152" lon="6.49053">
        <ele>1511.3</ele>
        <time>2018-08-05T06:46:14Z</time>
      </trkpt>
      <trkpt lat="44.35155" lon="6.49049">
        <ele>1511.6</ele>
        <time>2018-08-05T06:46:16Z</time>
      </trkpt>
      <trkpt lat="44.35157" lon="6.49046">
        <ele>1512</ele>
        <time>2018-08-05T06:46:18Z</time>
      </trkpt>
      <trkpt lat="44.3516" lon="6.49042">
        <ele>1512.6</ele>
        <time>2018-08-05T06:46:20Z</time>
      </trkpt>
      <trkpt lat="44.35163" lon="6.49038">
        <ele>1513.4</ele>
        <time>2018-08-05T06:46:22Z</time>
      </trkpt>
      <trkpt lat="44.35165" lon="6.49035">
        <ele>1513.7</ele>
        <time>2018-08-05T06:46:24Z</time>
      </trkpt>
      <trkpt lat="44.35168" lon="6.49031">
        <ele>1513.9</ele>
        <time>2018-08-05T06:46:26Z</time>
      </trkpt>
      <trkpt lat="44.35171" lon="6.49028">
        <ele>1514.4</ele>
        <time>2018-08-05T06:46:29Z</time>
      </trkpt>
      <trkpt lat="44.35176" lon="6.49025">
        <ele>1515.1</ele>
        <time>2018-08-05T06:46:31Z</time>
      </trkpt>
      <trkpt lat="44.35179" lon="6.49023">
        <ele>1515.2</ele>
        <time>2018-08-05T06:46:33Z</time>
      </trkpt>
      <trkpt lat="44.35182" lon="6.49022">
        <ele>1515.3</ele>
        <time>2018-08-05T06:46:35Z</time>
      </trkpt>
      <trkpt lat="44.35185" lon="6.49019">
        <ele>1515.7</ele>
        <time>2018-08-05T06:46:38Z</time>
      </trkpt>
      <trkpt lat="44.35188" lon="6.49018">
        <ele>1516.3</ele>
        <time>2018-08-05T06:46:40Z</time>
      </trkpt>
      <trkpt lat="44.35192" lon="6.49018">
        <ele>1516.7</ele>
        <time>2018-08-05T06:46:42Z</time>
      </trkpt>
      <trkpt lat="44.35195" lon="6.49018">
        <ele>1517.1</ele>
        <time>2018-08-05T06:46:44Z</time>
      </trkpt>
      <trkpt lat="44.35198" lon="6.49016">
        <ele>1517.5</ele>
        <time>2018-08-05T06:46:46Z</time>
      </trkpt>
      <trkpt lat="44.35202" lon="6.49014">
        <ele>1518.2</ele>
        <time>2018-08-05T06:46:48Z</time>
      </trkpt>
      <trkpt lat="44.35204" lon="6.49014">
        <ele>1518.7</ele>
        <time>2018-08-05T06:46:50Z</time>
      </trkpt>
      <trkpt lat="44.35207" lon="6.49013">
        <ele>1519.1</ele>
        <time>2018-08-05T06:46:53Z</time>
      </trkpt>
      <trkpt lat="44.3521" lon="6.49011">
        <ele>1519.4</ele>
        <time>2018-08-05T06:46:55Z</time>
      </trkpt>
      <trkpt lat="44.35213" lon="6.49008">
        <ele>1519.7</ele>
        <time>2018-08-05T06:46:58Z</time>
      </trkpt>
      <trkpt lat="44.35217" lon="6.49008">
        <ele>1520.6</ele>
        <time>2018-08-05T06:47:01Z</time>
      </trkpt>
      <trkpt lat="44.3522" lon="6.49005">
        <ele>1521.5</ele>
        <time>2018-08-05T06:47:04Z</time>
      </trkpt>
      <trkpt lat="44.35224" lon="6.49003">
        <ele>1521.8</ele>
        <time>2018-08-05T06:47:06Z</time>
      </trkpt>
      <trkpt lat="44.35228" lon="6.49005">
        <ele>1522.2</ele>
        <time>2018-08-05T06:47:09Z</time>
      </trkpt>
      <trkpt lat="44.35232" lon="6.49009">
        <ele>1522.8</ele>
        <time>2018-08-05T06:47:12Z</time>
      </trkpt>
      <trkpt lat="44.35233" lon="6.49012">
        <ele>1523.2</ele>
        <time>2018-08-05T06:47:14Z</time>
      </trkpt>
      <trkpt lat="44.35232" lon="6.49017">
        <ele>1524</ele>
        <time>2018-08-05T06:47:17Z</time>
      </trkpt>
      <trkpt lat="44.3523" lon="6.49021">
        <ele>1524.7</ele>
        <time>2018-08-05T06:47:20Z</time>
      </trkpt>
      <trkpt lat="44.35228" lon="6.49024">
        <ele>1526</ele>
        <time>2018-08-05T06:47:22Z</time>
      </trkpt>
      <trkpt lat="44.35227" lon="6.49027">
        <ele>1527.2</ele>
        <time>2018-08-05T06:47:24Z</time>
      </trkpt>
      <trkpt lat="44.35224" lon="6.49031">
        <ele>1527.9</ele>
        <time>2018-08-05T06:47:27Z</time>
      </trkpt>
      <trkpt lat="44.35221" lon="6.49033">
        <ele>1528.3</ele>
        <time>2018-08-05T06:47:29Z</time>
      </trkpt>
      <trkpt lat="44.35219" lon="6.49037">
        <ele>1528.6</ele>
        <time>2018-08-05T06:47:32Z</time>
      </trkpt>
      <trkpt lat="44.35217" lon="6.49041">
        <ele>1528.8</ele>
        <time>2018-08-05T06:47:34Z</time>
      </trkpt>
      <trkpt lat="44.35215" lon="6.49044">
        <ele>1528.9</ele>
        <time>2018-08-05T06:47:36Z</time>
      </trkpt>
      <trkpt lat="44.35213" lon="6.49047">
        <ele>1529.1</ele>
        <time>2018-08-05T06:47:38Z</time>
      </trkpt>
      <trkpt lat="44.35211" lon="6.49052">
        <ele>1529.4</ele>
        <time>2018-08-05T06:47:41Z</time>
      </trkpt>
      <trkpt lat="44.35208" lon="6.49057">
        <ele>1529.7</ele>
        <time>2018-08-05T06:47:44Z</time>
      </trkpt>
      <trkpt lat="44.35207" lon="6.4906">
        <ele>1529.9</ele>
        <time>2018-08-05T06:47:46Z</time>
      </trkpt>
      <trkpt lat="44.35204" lon="6.49063">
        <ele>1530</ele>
        <time>2018-08-05T06:47:48Z</time>
      </trkpt>
      <trkpt lat="44.35203" lon="6.49068">
        <ele>1530.6</ele>
        <time>2018-08-05T06:47:51Z</time>
      </trkpt>
      <trkpt lat="44.35201" lon="6.49074">
        <ele>1530.9</ele>
        <time>2018-08-05T06:47:54Z</time>
      </trkpt>
      <trkpt lat="44.352" lon="6.49078">
        <ele>1530.8</ele>
        <time>2018-08-05T06:47:56Z</time>
      </trkpt>
      <trkpt lat="44.35199" lon="6.49082">
        <ele>1530.6</ele>
        <time>2018-08-05T06:47:58Z</time>
      </trkpt>
      <trkpt lat="44.35198" lon="6.49088">
        <ele>1531</ele>
        <time>2018-08-05T06:48:01Z</time>
      </trkpt>
      <trkpt lat="44.35198" lon="6.49092">
        <ele>1531.3</ele>
        <time>2018-08-05T06:48:03Z</time>
      </trkpt>
      <trkpt lat="44.35197" lon="6.49096">
        <ele>1531.7</ele>
        <time>2018-08-05T06:48:05Z</time>
      </trkpt>
      <trkpt lat="44.35197" lon="6.49102">
        <ele>1532.5</ele>
        <time>2018-08-05T06:48:08Z</time>
      </trkpt>
      <trkpt lat="44.35196" lon="6.49107">
        <ele>1533.1</ele>
        <time>2018-08-05T06:48:11Z</time>
      </trkpt>
      <trkpt lat="44.35197" lon="6.49111">
        <ele>1533.7</ele>
        <time>2018-08-05T06:48:14Z</time>
      </trkpt>
      <trkpt lat="44.35196" lon="6.49116">
        <ele>1534.3</ele>
        <time>2018-08-05T06:48:16Z</time>
      </trkpt>
      <trkpt lat="44.35196" lon="6.49121">
        <ele>1535</ele>
        <time>2018-08-05T06:48:18Z</time>
      </trkpt>
      <trkpt lat="44.35196" lon="6.49125">
        <ele>1535.5</ele>
        <time>2018-08-05T06:48:20Z</time>
      </trkpt>
      <trkpt lat="44.35196" lon="6.4913">
        <ele>1536.3</ele>
        <time>2018-08-05T06:48:22Z</time>
      </trkpt>
      <trkpt lat="44.35196" lon="6.49133">
        <ele>1537</ele>
        <time>2018-08-05T06:48:24Z</time>
      </trkpt>
      <trkpt lat="44.35196" lon="6.49138">
        <ele>1537.7</ele>
        <time>2018-08-05T06:48:26Z</time>
      </trkpt>
      <trkpt lat="44.35196" lon="6.49142">
        <ele>1538.2</ele>
        <time>2018-08-05T06:48:28Z</time>
      </trkpt>
      <trkpt lat="44.35197" lon="6.49146">
        <ele>1538.8</ele>
        <time>2018-08-05T06:48:30Z</time>
      </trkpt>
      <trkpt lat="44.35198" lon="6.49152">
        <ele>1539.5</ele>
        <time>2018-08-05T06:48:33Z</time>
      </trkpt>
      <trkpt lat="44.35198" lon="6.49157">
        <ele>1540.1</ele>
        <time>2018-08-05T06:48:35Z</time>
      </trkpt>
      <trkpt lat="44.35198" lon="6.49162">
        <ele>1540.8</ele>
        <time>2018-08-05T06:48:38Z</time>
      </trkpt>
      <trkpt lat="44.35199" lon="6.49166">
        <ele>1541.3</ele>
        <time>2018-08-05T06:48:40Z</time>
      </trkpt>
      <trkpt lat="44.35199" lon="6.4917">
        <ele>1541.9</ele>
        <time>2018-08-05T06:48:42Z</time>
      </trkpt>
      <trkpt lat="44.35199" lon="6.49175">
        <ele>1542.6</ele>
        <time>2018-08-05T06:48:44Z</time>
      </trkpt>
      <trkpt lat="44.35199" lon="6.49179">
        <ele>1543.2</ele>
        <time>2018-08-05T06:48:46Z</time>
      </trkpt>
      <trkpt lat="44.35199" lon="6.49183">
        <ele>1543.8</ele>
        <time>2018-08-05T06:48:48Z</time>
      </trkpt>
      <trkpt lat="44.35198" lon="6.49187">
        <ele>1544.3</ele>
        <time>2018-08-05T06:48:50Z</time>
      </trkpt>
      <trkpt lat="44.35198" lon="6.49191">
        <ele>1544.8</ele>
        <time>2018-08-05T06:48:52Z</time>
      </trkpt>
      <trkpt lat="44.35197" lon="6.49195">
        <ele>1545.2</ele>
        <time>2018-08-05T06:48:54Z</time>
      </trkpt>
      <trkpt lat="44.35198" lon="6.49199">
        <ele>1545.7</ele>
        <time>2018-08-05T06:48:56Z</time>
      </trkpt>
      <trkpt lat="44.35198" lon="6.49204">
        <ele>1546.2</ele>
        <time>2018-08-05T06:48:59Z</time>
      </trkpt>
      <trkpt lat="44.35198" lon="6.49209">
        <ele>1546.7</ele>
        <time>2018-08-05T06:49:01Z</time>
      </trkpt>
      <trkpt lat="44.35199" lon="6.49214">
        <ele>1547.2</ele>
        <time>2018-08-05T06:49:03Z</time>
      </trkpt>
      <trkpt lat="44.35199" lon="6.49219">
        <ele>1547.7</ele>
        <time>2018-08-05T06:49:05Z</time>
      </trkpt>
      <trkpt lat="44.35199" lon="6.49223">
        <ele>1548</ele>
        <time>2018-08-05T06:49:07Z</time>
      </trkpt>
      <trkpt lat="44.35198" lon="6.49228">
        <ele>1548.4</ele>
        <time>2018-08-05T06:49:09Z</time>
      </trkpt>
      <trkpt lat="44.35198" lon="6.49233">
        <ele>1548.9</ele>
        <time>2018-08-05T06:49:11Z</time>
      </trkpt>
      <trkpt lat="44.35198" lon="6.49238">
        <ele>1549.5</ele>
        <time>2018-08-05T06:49:13Z</time>
      </trkpt>
      <trkpt lat="44.35197" lon="6.49243">
        <ele>1549.9</ele>
        <time>2018-08-05T06:49:15Z</time>
      </trkpt>
      <trkpt lat="44.35196" lon="6.49248">
        <ele>1550</ele>
        <time>2018-08-05T06:49:17Z</time>
      </trkpt>
      <trkpt lat="44.35196" lon="6.49252">
        <ele>1550.1</ele>
        <time>2018-08-05T06:49:19Z</time>
      </trkpt>
      <trkpt lat="44.35195" lon="6.49257">
        <ele>1550.6</ele>
        <time>2018-08-05T06:49:21Z</time>
      </trkpt>
      <trkpt lat="44.35193" lon="6.49261">
        <ele>1551.1</ele>
        <time>2018-08-05T06:49:23Z</time>
      </trkpt>
      <trkpt lat="44.35193" lon="6.49266">
        <ele>1551.3</ele>
        <time>2018-08-05T06:49:25Z</time>
      </trkpt>
      <trkpt lat="44.3519" lon="6.49269">
        <ele>1551.2</ele>
        <time>2018-08-05T06:49:27Z</time>
      </trkpt>
      <trkpt lat="44.35189" lon="6.49274">
        <ele>1551.1</ele>
        <time>2018-08-05T06:49:30Z</time>
      </trkpt>
      <trkpt lat="44.35187" lon="6.49277">
        <ele>1551</ele>
        <time>2018-08-05T06:49:32Z</time>
      </trkpt>
      <trkpt lat="44.35185" lon="6.4928">
        <ele>1550.9</ele>
        <time>2018-08-05T06:49:34Z</time>
      </trkpt>
      <trkpt lat="44.35184" lon="6.49283">
        <ele>1550.8</ele>
        <time>2018-08-05T06:49:36Z</time>
      </trkpt>
      <trkpt lat="44.35181" lon="6.49288">
        <ele>1550.8</ele>
        <time>2018-08-05T06:49:39Z</time>
      </trkpt>
      <trkpt lat="44.3518" lon="6.49292">
        <ele>1550.7</ele>
        <time>2018-08-05T06:49:41Z</time>
      </trkpt>
      <trkpt lat="44.35178" lon="6.49296">
        <ele>1550.5</ele>
        <time>2018-08-05T06:49:43Z</time>
      </trkpt>
      <trkpt lat="44.35177" lon="6.493">
        <ele>1550.3</ele>
        <time>2018-08-05T06:49:45Z</time>
      </trkpt>
      <trkpt lat="44.35176" lon="6.49303">
        <ele>1550.1</ele>
        <time>2018-08-05T06:49:47Z</time>
      </trkpt>
      <trkpt lat="44.35175" lon="6.49308">
        <ele>1549.8</ele>
        <time>2018-08-05T06:49:49Z</time>
      </trkpt>
      <trkpt lat="44.35175" lon="6.49313">
        <ele>1549.5</ele>
        <time>2018-08-05T06:49:51Z</time>
      </trkpt>
      <trkpt lat="44.35176" lon="6.49318">
        <ele>1549.3</ele>
        <time>2018-08-05T06:49:53Z</time>
      </trkpt>
      <trkpt lat="44.35178" lon="6.49324">
        <ele>1549.5</ele>
        <time>2018-08-05T06:49:55Z</time>
      </trkpt>
      <trkpt lat="44.35177" lon="6.49331">
        <ele>1550</ele>
        <time>2018-08-05T06:49:57Z</time>
      </trkpt>
      <trkpt lat="44.35178" lon="6.49335">
        <ele>1550</ele>
        <time>2018-08-05T06:49:58Z</time>
      </trkpt>
      <trkpt lat="44.35178" lon="6.49339">
        <ele>1550.3</ele>
        <time>2018-08-05T06:49:59Z</time>
      </trkpt>
      <trkpt lat="44.35179" lon="6.49343">
        <ele>1550.6</ele>
        <time>2018-08-05T06:50:00Z</time>
      </trkpt>
      <trkpt lat="44.3518" lon="6.49347">
        <ele>1551</ele>
        <time>2018-08-05T06:50:02Z</time>
      </trkpt>
      <trkpt lat="44.3518" lon="6.49353">
        <ele>1551.7</ele>
        <time>2018-08-05T06:50:04Z</time>
      </trkpt>
      <trkpt lat="44.3518" lon="6.49357">
        <ele>1552.5</ele>
        <time>2018-08-05T06:50:05Z</time>
      </trkpt>
      <trkpt lat="44.35181" lon="6.49361">
        <ele>1553.5</ele>
        <time>2018-08-05T06:50:06Z</time>
      </trkpt>
      <trkpt lat="44.3518" lon="6.49368">
        <ele>1555.1</ele>
        <time>2018-08-05T06:50:08Z</time>
      </trkpt>
      <trkpt lat="44.35181" lon="6.49375">
        <ele>1555.7</ele>
        <time>2018-08-05T06:50:10Z</time>
      </trkpt>
      <trkpt lat="44.35181" lon="6.49381">
        <ele>1556.9</ele>
        <time>2018-08-05T06:50:12Z</time>
      </trkpt>
      <trkpt lat="44.35182" lon="6.49388">
        <ele>1558.9</ele>
        <time>2018-08-05T06:50:14Z</time>
      </trkpt>
      <trkpt lat="44.35182" lon="6.49392">
        <ele>1559.9</ele>
        <time>2018-08-05T06:50:15Z</time>
      </trkpt>
      <trkpt lat="44.35182" lon="6.49396">
        <ele>1560.6</ele>
        <time>2018-08-05T06:50:16Z</time>
      </trkpt>
      <trkpt lat="44.35184" lon="6.49403">
        <ele>1561.9</ele>
        <time>2018-08-05T06:50:18Z</time>
      </trkpt>
      <trkpt lat="44.35184" lon="6.49407">
        <ele>1562.9</ele>
        <time>2018-08-05T06:50:19Z</time>
      </trkpt>
      <trkpt lat="44.35184" lon="6.49414">
        <ele>1564.7</ele>
        <time>2018-08-05T06:50:21Z</time>
      </trkpt>
      <trkpt lat="44.35184" lon="6.49421">
        <ele>1565.8</ele>
        <time>2018-08-05T06:50:23Z</time>
      </trkpt>
      <trkpt lat="44.35183" lon="6.49427">
        <ele>1566.9</ele>
        <time>2018-08-05T06:50:25Z</time>
      </trkpt>
      <trkpt lat="44.35183" lon="6.49433">
        <ele>1567.6</ele>
        <time>2018-08-05T06:50:27Z</time>
      </trkpt>
      <trkpt lat="44.35181" lon="6.49439">
        <ele>1567.9</ele>
        <time>2018-08-05T06:50:29Z</time>
      </trkpt>
      <trkpt lat="44.35178" lon="6.49444">
        <ele>1567.8</ele>
        <time>2018-08-05T06:50:31Z</time>
      </trkpt>
      <trkpt lat="44.35177" lon="6.49449">
        <ele>1568.1</ele>
        <time>2018-08-05T06:50:33Z</time>
      </trkpt>
      <trkpt lat="44.35174" lon="6.49454">
        <ele>1568.5</ele>
        <time>2018-08-05T06:50:35Z</time>
      </trkpt>
      <trkpt lat="44.35171" lon="6.49459">
        <ele>1568.1</ele>
        <time>2018-08-05T06:50:37Z</time>
      </trkpt>
      <trkpt lat="44.35169" lon="6.49464">
        <ele>1567.4</ele>
        <time>2018-08-05T06:50:39Z</time>
      </trkpt>
      <trkpt lat="44.35166" lon="6.49469">
        <ele>1567</ele>
        <time>2018-08-05T06:50:41Z</time>
      </trkpt>
      <trkpt lat="44.35164" lon="6.49473">
        <ele>1566.8</ele>
        <time>2018-08-05T06:50:43Z</time>
      </trkpt>
      <trkpt lat="44.3516" lon="6.49477">
        <ele>1566.8</ele>
        <time>2018-08-05T06:50:45Z</time>
      </trkpt>
      <trkpt lat="44.35158" lon="6.49482">
        <ele>1567</ele>
        <time>2018-08-05T06:50:47Z</time>
      </trkpt>
      <trkpt lat="44.35155" lon="6.49487">
        <ele>1567</ele>
        <time>2018-08-05T06:50:49Z</time>
      </trkpt>
      <trkpt lat="44.35153" lon="6.4949">
        <ele>1566.8</ele>
        <time>2018-08-05T06:50:51Z</time>
      </trkpt>
      <trkpt lat="44.35151" lon="6.49495">
        <ele>1566.7</ele>
        <time>2018-08-05T06:50:53Z</time>
      </trkpt>
      <trkpt lat="44.35149" lon="6.49498">
        <ele>1566.7</ele>
        <time>2018-08-05T06:50:55Z</time>
      </trkpt>
      <trkpt lat="44.35146" lon="6.49502">
        <ele>1566.7</ele>
        <time>2018-08-05T06:50:57Z</time>
      </trkpt>
      <trkpt lat="44.35143" lon="6.49505">
        <ele>1566.6</ele>
        <time>2018-08-05T06:50:59Z</time>
      </trkpt>
      <trkpt lat="44.35139" lon="6.49509">
        <ele>1566.6</ele>
        <time>2018-08-05T06:51:01Z</time>
      </trkpt>
      <trkpt lat="44.35137" lon="6.49515">
        <ele>1567</ele>
        <time>2018-08-05T06:51:03Z</time>
      </trkpt>
      <trkpt lat="44.35134" lon="6.49519">
        <ele>1567.4</ele>
        <time>2018-08-05T06:51:05Z</time>
      </trkpt>
      <trkpt lat="44.35132" lon="6.49523">
        <ele>1567.3</ele>
        <time>2018-08-05T06:51:07Z</time>
      </trkpt>
      <trkpt lat="44.35129" lon="6.49528">
        <ele>1567.3</ele>
        <time>2018-08-05T06:51:09Z</time>
      </trkpt>
      <trkpt lat="44.35127" lon="6.49533">
        <ele>1567.5</ele>
        <time>2018-08-05T06:51:11Z</time>
      </trkpt>
      <trkpt lat="44.35125" lon="6.49536">
        <ele>1567.6</ele>
        <time>2018-08-05T06:51:12Z</time>
      </trkpt>
      <trkpt lat="44.35123" lon="6.4954">
        <ele>1568</ele>
        <time>2018-08-05T06:51:14Z</time>
      </trkpt>
      <trkpt lat="44.35121" lon="6.49546">
        <ele>1568.8</ele>
        <time>2018-08-05T06:51:16Z</time>
      </trkpt>
      <trkpt lat="44.35119" lon="6.49549">
        <ele>1569.3</ele>
        <time>2018-08-05T06:51:18Z</time>
      </trkpt>
      <trkpt lat="44.35116" lon="6.49553">
        <ele>1569.6</ele>
        <time>2018-08-05T06:51:20Z</time>
      </trkpt>
      <trkpt lat="44.35114" lon="6.49558">
        <ele>1569.9</ele>
        <time>2018-08-05T06:51:22Z</time>
      </trkpt>
      <trkpt lat="44.35111" lon="6.49562">
        <ele>1570.5</ele>
        <time>2018-08-05T06:51:24Z</time>
      </trkpt>
      <trkpt lat="44.35109" lon="6.49566">
        <ele>1571</ele>
        <time>2018-08-05T06:51:26Z</time>
      </trkpt>
      <trkpt lat="44.35107" lon="6.49569">
        <ele>1571</ele>
        <time>2018-08-05T06:51:28Z</time>
      </trkpt>
      <trkpt lat="44.35104" lon="6.49573">
        <ele>1571.1</ele>
        <time>2018-08-05T06:51:30Z</time>
      </trkpt>
      <trkpt lat="44.35101" lon="6.49576">
        <ele>1571.3</ele>
        <time>2018-08-05T06:51:32Z</time>
      </trkpt>
      <trkpt lat="44.351" lon="6.49581">
        <ele>1571.5</ele>
        <time>2018-08-05T06:51:34Z</time>
      </trkpt>
      <trkpt lat="44.35096" lon="6.49582">
        <ele>1571.7</ele>
        <time>2018-08-05T06:51:36Z</time>
      </trkpt>
      <trkpt lat="44.35094" lon="6.49585">
        <ele>1572</ele>
        <time>2018-08-05T06:51:38Z</time>
      </trkpt>
      <trkpt lat="44.35092" lon="6.49587">
        <ele>1572.4</ele>
        <time>2018-08-05T06:51:40Z</time>
      </trkpt>
      <trkpt lat="44.35091" lon="6.49592">
        <ele>1573</ele>
        <time>2018-08-05T06:51:42Z</time>
      </trkpt>
      <trkpt lat="44.3509" lon="6.49596">
        <ele>1573.5</ele>
        <time>2018-08-05T06:51:43Z</time>
      </trkpt>
      <trkpt lat="44.35088" lon="6.49599">
        <ele>1573.9</ele>
        <time>2018-08-05T06:51:44Z</time>
      </trkpt>
      <trkpt lat="44.35087" lon="6.49605">
        <ele>1574.4</ele>
        <time>2018-08-05T06:51:46Z</time>
      </trkpt>
      <trkpt lat="44.35086" lon="6.49611">
        <ele>1574.8</ele>
        <time>2018-08-05T06:51:48Z</time>
      </trkpt>
      <trkpt lat="44.35085" lon="6.49617">
        <ele>1575</ele>
        <time>2018-08-05T06:51:51Z</time>
      </trkpt>
      <trkpt lat="44.35083" lon="6.49624">
        <ele>1575.4</ele>
        <time>2018-08-05T06:51:53Z</time>
      </trkpt>
      <trkpt lat="44.35081" lon="6.4963">
        <ele>1576.1</ele>
        <time>2018-08-05T06:51:55Z</time>
      </trkpt>
      <trkpt lat="44.3508" lon="6.49636">
        <ele>1576.7</ele>
        <time>2018-08-05T06:51:57Z</time>
      </trkpt>
      <trkpt lat="44.35078" lon="6.4964">
        <ele>1577.3</ele>
        <time>2018-08-05T06:51:59Z</time>
      </trkpt>
      <trkpt lat="44.3508" lon="6.49637">
        <ele>1577.9</ele>
        <time>2018-08-05T06:53:48Z</time>
      </trkpt>
      <trkpt lat="44.35077" lon="6.49637">
        <ele>1578.5</ele>
        <time>2018-08-05T06:53:56Z</time>
      </trkpt>
      <trkpt lat="44.35081" lon="6.4964">
        <ele>1579</ele>
        <time>2018-08-05T06:58:37Z</time>
      </trkpt>
      <trkpt lat="44.35079" lon="6.49641">
        <ele>1579.2</ele>
        <time>2018-08-05T06:58:40Z</time>
      </trkpt>
      <trkpt lat="44.35076" lon="6.49643">
        <ele>1579.4</ele>
        <time>2018-08-05T06:58:44Z</time>
      </trkpt>
      <trkpt lat="44.35073" lon="6.49646">
        <ele>1579.2</ele>
        <time>2018-08-05T06:58:47Z</time>
      </trkpt>
      <trkpt lat="44.3507" lon="6.49645">
        <ele>1579</ele>
        <time>2018-08-05T06:59:11Z</time>
      </trkpt>
      <trkpt lat="44.35067" lon="6.49646">
        <ele>1578.8</ele>
        <time>2018-08-05T06:59:31Z</time>
      </trkpt>
      <trkpt lat="44.35065" lon="6.49649">
        <ele>1578.6</ele>
        <time>2018-08-05T06:59:33Z</time>
      </trkpt>
      <trkpt lat="44.35063" lon="6.49651">
        <ele>1578.4</ele>
        <time>2018-08-05T06:59:34Z</time>
      </trkpt>
      <trkpt lat="44.35059" lon="6.49656">
        <ele>1577.7</ele>
        <time>2018-08-05T06:59:36Z</time>
      </trkpt>
      <trkpt lat="44.35056" lon="6.49661">
        <ele>1577.2</ele>
        <time>2018-08-05T06:59:38Z</time>
      </trkpt>
      <trkpt lat="44.35054" lon="6.49664">
        <ele>1577.1</ele>
        <time>2018-08-05T06:59:39Z</time>
      </trkpt>
      <trkpt lat="44.35052" lon="6.49666">
        <ele>1577</ele>
        <time>2018-08-05T06:59:40Z</time>
      </trkpt>
      <trkpt lat="44.3505" lon="6.49669">
        <ele>1576.9</ele>
        <time>2018-08-05T06:59:41Z</time>
      </trkpt>
      <trkpt lat="44.35047" lon="6.49672">
        <ele>1576.8</ele>
        <time>2018-08-05T06:59:42Z</time>
      </trkpt>
      <trkpt lat="44.35045" lon="6.49675">
        <ele>1576.7</ele>
        <time>2018-08-05T06:59:43Z</time>
      </trkpt>
      <trkpt lat="44.35043" lon="6.49678">
        <ele>1576.7</ele>
        <time>2018-08-05T06:59:44Z</time>
      </trkpt>
      <trkpt lat="44.35041" lon="6.4968">
        <ele>1576.8</ele>
        <time>2018-08-05T06:59:45Z</time>
      </trkpt>
      <trkpt lat="44.35039" lon="6.49684">
        <ele>1576.9</ele>
        <time>2018-08-05T06:59:46Z</time>
      </trkpt>
      <trkpt lat="44.35037" lon="6.49687">
        <ele>1576.7</ele>
        <time>2018-08-05T06:59:47Z</time>
      </trkpt>
      <trkpt lat="44.35034" lon="6.49693">
        <ele>1576.3</ele>
        <time>2018-08-05T06:59:49Z</time>
      </trkpt>
      <trkpt lat="44.35032" lon="6.49696">
        <ele>1576.4</ele>
        <time>2018-08-05T06:59:50Z</time>
      </trkpt>
      <trkpt lat="44.3503" lon="6.49699">
        <ele>1576.5</ele>
        <time>2018-08-05T06:59:51Z</time>
      </trkpt>
      <trkpt lat="44.35028" lon="6.49703">
        <ele>1576.4</ele>
        <time>2018-08-05T06:59:52Z</time>
      </trkpt>
      <trkpt lat="44.35026" lon="6.49706">
        <ele>1576.2</ele>
        <time>2018-08-05T06:59:53Z</time>
      </trkpt>
      <trkpt lat="44.35024" lon="6.49709">
        <ele>1576</ele>
        <time>2018-08-05T06:59:54Z</time>
      </trkpt>
      <trkpt lat="44.35022" lon="6.49713">
        <ele>1576.1</ele>
        <time>2018-08-05T06:59:55Z</time>
      </trkpt>
      <trkpt lat="44.3502" lon="6.49715">
        <ele>1576.2</ele>
        <time>2018-08-05T06:59:56Z</time>
      </trkpt>
      <trkpt lat="44.35018" lon="6.49719">
        <ele>1576.3</ele>
        <time>2018-08-05T06:59:57Z</time>
      </trkpt>
      <trkpt lat="44.35016" lon="6.49722">
        <ele>1576.2</ele>
        <time>2018-08-05T06:59:58Z</time>
      </trkpt>
      <trkpt lat="44.35014" lon="6.49726">
        <ele>1576.2</ele>
        <time>2018-08-05T06:59:59Z</time>
      </trkpt>
      <trkpt lat="44.35012" lon="6.4973">
        <ele>1576.1</ele>
        <time>2018-08-05T07:00:00Z</time>
      </trkpt>
      <trkpt lat="44.3501" lon="6.49733">
        <ele>1576</ele>
        <time>2018-08-05T07:00:01Z</time>
      </trkpt>
      <trkpt lat="44.35008" lon="6.49737">
        <ele>1575.9</ele>
        <time>2018-08-05T07:00:02Z</time>
      </trkpt>
      <trkpt lat="44.35006" lon="6.49741">
        <ele>1576</ele>
        <time>2018-08-05T07:00:03Z</time>
      </trkpt>
      <trkpt lat="44.35004" lon="6.49744">
        <ele>1576.1</ele>
        <time>2018-08-05T07:00:04Z</time>
      </trkpt>
      <trkpt lat="44.35001" lon="6.49748">
        <ele>1576.2</ele>
        <time>2018-08-05T07:00:05Z</time>
      </trkpt>
      <trkpt lat="44.35" lon="6.49752">
        <ele>1576.1</ele>
        <time>2018-08-05T07:00:06Z</time>
      </trkpt>
      <trkpt lat="44.34998" lon="6.49755">
        <ele>1576.1</ele>
        <time>2018-08-05T07:00:07Z</time>
      </trkpt>
      <trkpt lat="44.34996" lon="6.49759">
        <ele>1576</ele>
        <time>2018-08-05T07:00:08Z</time>
      </trkpt>
      <trkpt lat="44.34994" lon="6.49764">
        <ele>1575.9</ele>
        <time>2018-08-05T07:00:09Z</time>
      </trkpt>
      <trkpt lat="44.34993" lon="6.49768">
        <ele>1575.8</ele>
        <time>2018-08-05T07:00:10Z</time>
      </trkpt>
      <trkpt lat="44.34991" lon="6.49772">
        <ele>1575.7</ele>
        <time>2018-08-05T07:00:11Z</time>
      </trkpt>
      <trkpt lat="44.34989" lon="6.49776">
        <ele>1575.7</ele>
        <time>2018-08-05T07:00:12Z</time>
      </trkpt>
      <trkpt lat="44.34987" lon="6.4978">
        <ele>1575.7</ele>
        <time>2018-08-05T07:00:13Z</time>
      </trkpt>
      <trkpt lat="44.34985" lon="6.49783">
        <ele>1575.8</ele>
        <time>2018-08-05T07:00:14Z</time>
      </trkpt>
      <trkpt lat="44.34982" lon="6.49788">
        <ele>1575.9</ele>
        <time>2018-08-05T07:00:15Z</time>
      </trkpt>
      <trkpt lat="44.3498" lon="6.49793">
        <ele>1575.9</ele>
        <time>2018-08-05T07:00:16Z</time>
      </trkpt>
      <trkpt lat="44.34979" lon="6.49798">
        <ele>1576</ele>
        <time>2018-08-05T07:00:17Z</time>
      </trkpt>
      <trkpt lat="44.34977" lon="6.49803">
        <ele>1576</ele>
        <time>2018-08-05T07:00:18Z</time>
      </trkpt>
      <trkpt lat="44.34976" lon="6.49806">
        <ele>1576</ele>
        <time>2018-08-05T07:00:19Z</time>
      </trkpt>
      <trkpt lat="44.34974" lon="6.4981">
        <ele>1576</ele>
        <time>2018-08-05T07:00:21Z</time>
      </trkpt>
      <trkpt lat="44.34972" lon="6.49815">
        <ele>1576.1</ele>
        <time>2018-08-05T07:00:23Z</time>
      </trkpt>
      <trkpt lat="44.34971" lon="6.49819">
        <ele>1576.1</ele>
        <time>2018-08-05T07:00:24Z</time>
      </trkpt>
      <trkpt lat="44.3497" lon="6.49823">
        <ele>1576.1</ele>
        <time>2018-08-05T07:00:25Z</time>
      </trkpt>
      <trkpt lat="44.34969" lon="6.49827">
        <ele>1576</ele>
        <time>2018-08-05T07:00:26Z</time>
      </trkpt>
      <trkpt lat="44.34967" lon="6.49835">
        <ele>1575.9</ele>
        <time>2018-08-05T07:00:28Z</time>
      </trkpt>
      <trkpt lat="44.34966" lon="6.49839">
        <ele>1575.8</ele>
        <time>2018-08-05T07:00:29Z</time>
      </trkpt>
      <trkpt lat="44.34964" lon="6.49844">
        <ele>1575.8</ele>
        <time>2018-08-05T07:00:31Z</time>
      </trkpt>
      <trkpt lat="44.34963" lon="6.49849">
        <ele>1575.7</ele>
        <time>2018-08-05T07:00:33Z</time>
      </trkpt>
      <trkpt lat="44.34961" lon="6.49855">
        <ele>1575.6</ele>
        <time>2018-08-05T07:00:35Z</time>
      </trkpt>
      <trkpt lat="44.34959" lon="6.4986">
        <ele>1575.5</ele>
        <time>2018-08-05T07:00:37Z</time>
      </trkpt>
      <trkpt lat="44.34959" lon="6.49866">
        <ele>1575.4</ele>
        <time>2018-08-05T07:00:39Z</time>
      </trkpt>
      <trkpt lat="44.34958" lon="6.49871">
        <ele>1575.3</ele>
        <time>2018-08-05T07:00:41Z</time>
      </trkpt>
      <trkpt lat="44.34956" lon="6.49877">
        <ele>1575.2</ele>
        <time>2018-08-05T07:00:43Z</time>
      </trkpt>
      <trkpt lat="44.34955" lon="6.49882">
        <ele>1575.1</ele>
        <time>2018-08-05T07:00:45Z</time>
      </trkpt>
      <trkpt lat="44.34954" lon="6.49887">
        <ele>1575.1</ele>
        <time>2018-08-05T07:00:47Z</time>
      </trkpt>
      <trkpt lat="44.34952" lon="6.49892">
        <ele>1575</ele>
        <time>2018-08-05T07:00:49Z</time>
      </trkpt>
      <trkpt lat="44.34951" lon="6.49896">
        <ele>1574.9</ele>
        <time>2018-08-05T07:00:50Z</time>
      </trkpt>
      <trkpt lat="44.3495" lon="6.49902">
        <ele>1574.8</ele>
        <time>2018-08-05T07:00:52Z</time>
      </trkpt>
      <trkpt lat="44.34949" lon="6.49906">
        <ele>1574.6</ele>
        <time>2018-08-05T07:00:53Z</time>
      </trkpt>
      <trkpt lat="44.34948" lon="6.4991">
        <ele>1574.6</ele>
        <time>2018-08-05T07:00:54Z</time>
      </trkpt>
      <trkpt lat="44.34946" lon="6.49917">
        <ele>1574.4</ele>
        <time>2018-08-05T07:00:56Z</time>
      </trkpt>
      <trkpt lat="44.34945" lon="6.49922">
        <ele>1574.2</ele>
        <time>2018-08-05T07:00:57Z</time>
      </trkpt>
      <trkpt lat="44.34944" lon="6.49927">
        <ele>1574</ele>
        <time>2018-08-05T07:00:58Z</time>
      </trkpt>
      <trkpt lat="44.34943" lon="6.49931">
        <ele>1573.9</ele>
        <time>2018-08-05T07:00:59Z</time>
      </trkpt>
      <trkpt lat="44.34942" lon="6.49935">
        <ele>1573.8</ele>
        <time>2018-08-05T07:01:00Z</time>
      </trkpt>
      <trkpt lat="44.34941" lon="6.49939">
        <ele>1573.7</ele>
        <time>2018-08-05T07:01:01Z</time>
      </trkpt>
      <trkpt lat="44.3494" lon="6.49944">
        <ele>1573.7</ele>
        <time>2018-08-05T07:01:02Z</time>
      </trkpt>
      <trkpt lat="44.3494" lon="6.49948">
        <ele>1573.6</ele>
        <time>2018-08-05T07:01:03Z</time>
      </trkpt>
      <trkpt lat="44.34939" lon="6.49952">
        <ele>1573.6</ele>
        <time>2018-08-05T07:01:04Z</time>
      </trkpt>
      <trkpt lat="44.34938" lon="6.49956">
        <ele>1573.6</ele>
        <time>2018-08-05T07:01:05Z</time>
      </trkpt>
      <trkpt lat="44.34937" lon="6.4996">
        <ele>1573.5</ele>
        <time>2018-08-05T07:01:06Z</time>
      </trkpt>
      <trkpt lat="44.34937" lon="6.49964">
        <ele>1573.4</ele>
        <time>2018-08-05T07:01:07Z</time>
      </trkpt>
      <trkpt lat="44.34935" lon="6.49969">
        <ele>1573.4</ele>
        <time>2018-08-05T07:01:08Z</time>
      </trkpt>
      <trkpt lat="44.34934" lon="6.49973">
        <ele>1573.5</ele>
        <time>2018-08-05T07:01:09Z</time>
      </trkpt>
      <trkpt lat="44.34933" lon="6.49977">
        <ele>1573.5</ele>
        <time>2018-08-05T07:01:10Z</time>
      </trkpt>
      <trkpt lat="44.34933" lon="6.49984">
        <ele>1573.4</ele>
        <time>2018-08-05T07:01:12Z</time>
      </trkpt>
      <trkpt lat="44.34932" lon="6.49988">
        <ele>1573.4</ele>
        <time>2018-08-05T07:01:13Z</time>
      </trkpt>
      <trkpt lat="44.34931" lon="6.49992">
        <ele>1573.5</ele>
        <time>2018-08-05T07:01:14Z</time>
      </trkpt>
      <trkpt lat="44.3493" lon="6.49998">
        <ele>1573.6</ele>
        <time>2018-08-05T07:01:15Z</time>
      </trkpt>
      <trkpt lat="44.34928" lon="6.50003">
        <ele>1573.7</ele>
        <time>2018-08-05T07:01:16Z</time>
      </trkpt>
      <trkpt lat="44.34926" lon="6.50008">
        <ele>1573.8</ele>
        <time>2018-08-05T07:01:17Z</time>
      </trkpt>
      <trkpt lat="44.34925" lon="6.50014">
        <ele>1574</ele>
        <time>2018-08-05T07:01:18Z</time>
      </trkpt>
      <trkpt lat="44.34923" lon="6.50021">
        <ele>1574.5</ele>
        <time>2018-08-05T07:01:19Z</time>
      </trkpt>
      <trkpt lat="44.34921" lon="6.50027">
        <ele>1574.7</ele>
        <time>2018-08-05T07:01:20Z</time>
      </trkpt>
      <trkpt lat="44.3492" lon="6.50033">
        <ele>1574.9</ele>
        <time>2018-08-05T07:01:21Z</time>
      </trkpt>
      <trkpt lat="44.34918" lon="6.50037">
        <ele>1575</ele>
        <time>2018-08-05T07:01:22Z</time>
      </trkpt>
      <trkpt lat="44.34916" lon="6.50043">
        <ele>1575</ele>
        <time>2018-08-05T07:01:23Z</time>
      </trkpt>
      <trkpt lat="44.34914" lon="6.50047">
        <ele>1575</ele>
        <time>2018-08-05T07:01:24Z</time>
      </trkpt>
      <trkpt lat="44.34913" lon="6.50052">
        <ele>1575</ele>
        <time>2018-08-05T07:01:25Z</time>
      </trkpt>
      <trkpt lat="44.34911" lon="6.50056">
        <ele>1575</ele>
        <time>2018-08-05T07:01:26Z</time>
      </trkpt>
      <trkpt lat="44.3491" lon="6.5006">
        <ele>1574.7</ele>
        <time>2018-08-05T07:01:27Z</time>
      </trkpt>
      <trkpt lat="44.34907" lon="6.50065">
        <ele>1574.3</ele>
        <time>2018-08-05T07:01:28Z</time>
      </trkpt>
      <trkpt lat="44.34904" lon="6.50068">
        <ele>1574.2</ele>
        <time>2018-08-05T07:01:29Z</time>
      </trkpt>
      <trkpt lat="44.34901" lon="6.50069">
        <ele>1574.3</ele>
        <time>2018-08-05T07:01:30Z</time>
      </trkpt>
      <trkpt lat="44.34898" lon="6.50072">
        <ele>1574</ele>
        <time>2018-08-05T07:01:31Z</time>
      </trkpt>
      <trkpt lat="44.34896" lon="6.50075">
        <ele>1573.7</ele>
        <time>2018-08-05T07:01:32Z</time>
      </trkpt>
      <trkpt lat="44.34893" lon="6.50078">
        <ele>1573.3</ele>
        <time>2018-08-05T07:01:33Z</time>
      </trkpt>
      <trkpt lat="44.34889" lon="6.50081">
        <ele>1572.7</ele>
        <time>2018-08-05T07:01:34Z</time>
      </trkpt>
      <trkpt lat="44.34887" lon="6.50085">
        <ele>1572.4</ele>
        <time>2018-08-05T07:01:35Z</time>
      </trkpt>
      <trkpt lat="44.34885" lon="6.50088">
        <ele>1572.1</ele>
        <time>2018-08-05T07:01:36Z</time>
      </trkpt>
      <trkpt lat="44.34883" lon="6.50091">
        <ele>1571.9</ele>
        <time>2018-08-05T07:01:37Z</time>
      </trkpt>
      <trkpt lat="44.34881" lon="6.50095">
        <ele>1571.5</ele>
        <time>2018-08-05T07:01:38Z</time>
      </trkpt>
      <trkpt lat="44.34879" lon="6.50098">
        <ele>1571.2</ele>
        <time>2018-08-05T07:01:39Z</time>
      </trkpt>
      <trkpt lat="44.34877" lon="6.50102">
        <ele>1570.9</ele>
        <time>2018-08-05T07:01:40Z</time>
      </trkpt>
      <trkpt lat="44.34875" lon="6.50107">
        <ele>1570.9</ele>
        <time>2018-08-05T07:01:41Z</time>
      </trkpt>
      <trkpt lat="44.34874" lon="6.50114">
        <ele>1570.9</ele>
        <time>2018-08-05T07:01:43Z</time>
      </trkpt>
      <trkpt lat="44.34873" lon="6.50119">
        <ele>1570.8</ele>
        <time>2018-08-05T07:01:44Z</time>
      </trkpt>
      <trkpt lat="44.34871" lon="6.50124">
        <ele>1570.7</ele>
        <time>2018-08-05T07:01:45Z</time>
      </trkpt>
      <trkpt lat="44.3487" lon="6.50129">
        <ele>1570.5</ele>
        <time>2018-08-05T07:01:46Z</time>
      </trkpt>
      <trkpt lat="44.3487" lon="6.50134">
        <ele>1570.3</ele>
        <time>2018-08-05T07:01:47Z</time>
      </trkpt>
      <trkpt lat="44.34871" lon="6.50138">
        <ele>1570.2</ele>
        <time>2018-08-05T07:01:48Z</time>
      </trkpt>
      <trkpt lat="44.34871" lon="6.50143">
        <ele>1570.2</ele>
        <time>2018-08-05T07:01:49Z</time>
      </trkpt>
      <trkpt lat="44.34867" lon="6.50151">
        <ele>1570.3</ele>
        <time>2018-08-05T07:01:50Z</time>
      </trkpt>
      <trkpt lat="44.34867" lon="6.50157">
        <ele>1570.1</ele>
        <time>2018-08-05T07:01:51Z</time>
      </trkpt>
      <trkpt lat="44.34866" lon="6.50162">
        <ele>1570</ele>
        <time>2018-08-05T07:01:52Z</time>
      </trkpt>
      <trkpt lat="44.34863" lon="6.5017">
        <ele>1570.3</ele>
        <time>2018-08-05T07:01:53Z</time>
      </trkpt>
      <trkpt lat="44.34864" lon="6.50175">
        <ele>1570.5</ele>
        <time>2018-08-05T07:01:54Z</time>
      </trkpt>
      <trkpt lat="44.34863" lon="6.5018">
        <ele>1570.6</ele>
        <time>2018-08-05T07:01:55Z</time>
      </trkpt>
      <trkpt lat="44.34863" lon="6.50185">
        <ele>1570.8</ele>
        <time>2018-08-05T07:01:56Z</time>
      </trkpt>
      <trkpt lat="44.3486" lon="6.50192">
        <ele>1570.9</ele>
        <time>2018-08-05T07:01:57Z</time>
      </trkpt>
      <trkpt lat="44.34861" lon="6.50198">
        <ele>1570.8</ele>
        <time>2018-08-05T07:01:58Z</time>
      </trkpt>
      <trkpt lat="44.34861" lon="6.50205">
        <ele>1570.5</ele>
        <time>2018-08-05T07:01:59Z</time>
      </trkpt>
      <trkpt lat="44.34862" lon="6.5021">
        <ele>1570.3</ele>
        <time>2018-08-05T07:02:00Z</time>
      </trkpt>
      <trkpt lat="44.34862" lon="6.50216">
        <ele>1570.3</ele>
        <time>2018-08-05T07:02:01Z</time>
      </trkpt>
      <trkpt lat="44.34862" lon="6.50221">
        <ele>1570.3</ele>
        <time>2018-08-05T07:02:02Z</time>
      </trkpt>
      <trkpt lat="44.34863" lon="6.50226">
        <ele>1570.6</ele>
        <time>2018-08-05T07:02:03Z</time>
      </trkpt>
      <trkpt lat="44.34864" lon="6.50231">
        <ele>1570.8</ele>
        <time>2018-08-05T07:02:04Z</time>
      </trkpt>
      <trkpt lat="44.34864" lon="6.50236">
        <ele>1571</ele>
        <time>2018-08-05T07:02:05Z</time>
      </trkpt>
      <trkpt lat="44.34865" lon="6.50241">
        <ele>1571.2</ele>
        <time>2018-08-05T07:02:06Z</time>
      </trkpt>
      <trkpt lat="44.34866" lon="6.50245">
        <ele>1571.3</ele>
        <time>2018-08-05T07:02:07Z</time>
      </trkpt>
      <trkpt lat="44.34867" lon="6.50249">
        <ele>1571.1</ele>
        <time>2018-08-05T07:02:08Z</time>
      </trkpt>
      <trkpt lat="44.34867" lon="6.50254">
        <ele>1570.9</ele>
        <time>2018-08-05T07:02:09Z</time>
      </trkpt>
      <trkpt lat="44.34868" lon="6.50258">
        <ele>1570.8</ele>
        <time>2018-08-05T07:02:10Z</time>
      </trkpt>
      <trkpt lat="44.34868" lon="6.50263">
        <ele>1570.8</ele>
        <time>2018-08-05T07:02:11Z</time>
      </trkpt>
      <trkpt lat="44.34869" lon="6.50268">
        <ele>1570.9</ele>
        <time>2018-08-05T07:02:12Z</time>
      </trkpt>
      <trkpt lat="44.34869" lon="6.50274">
        <ele>1570.7</ele>
        <time>2018-08-05T07:02:13Z</time>
      </trkpt>
      <trkpt lat="44.3487" lon="6.50278">
        <ele>1570.5</ele>
        <time>2018-08-05T07:02:14Z</time>
      </trkpt>
      <trkpt lat="44.34871" lon="6.50283">
        <ele>1570.5</ele>
        <time>2018-08-05T07:02:15Z</time>
      </trkpt>
      <trkpt lat="44.34871" lon="6.50288">
        <ele>1570.6</ele>
        <time>2018-08-05T07:02:16Z</time>
      </trkpt>
      <trkpt lat="44.34872" lon="6.50292">
        <ele>1570.7</ele>
        <time>2018-08-05T07:02:17Z</time>
      </trkpt>
      <trkpt lat="44.34872" lon="6.50296">
        <ele>1570.8</ele>
        <time>2018-08-05T07:02:18Z</time>
      </trkpt>
      <trkpt lat="44.34873" lon="6.50305">
        <ele>1571</ele>
        <time>2018-08-05T07:02:20Z</time>
      </trkpt>
      <trkpt lat="44.34874" lon="6.50309">
        <ele>1570.9</ele>
        <time>2018-08-05T07:02:21Z</time>
      </trkpt>
      <trkpt lat="44.34876" lon="6.50313">
        <ele>1570.7</ele>
        <time>2018-08-05T07:02:22Z</time>
      </trkpt>
      <trkpt lat="44.34877" lon="6.50318">
        <ele>1570.6</ele>
        <time>2018-08-05T07:02:23Z</time>
      </trkpt>
      <trkpt lat="44.34879" lon="6.50322">
        <ele>1570.6</ele>
        <time>2018-08-05T07:02:24Z</time>
      </trkpt>
      <trkpt lat="44.3488" lon="6.50327">
        <ele>1570.6</ele>
        <time>2018-08-05T07:02:25Z</time>
      </trkpt>
      <trkpt lat="44.34881" lon="6.50331">
        <ele>1570.7</ele>
        <time>2018-08-05T07:02:26Z</time>
      </trkpt>
      <trkpt lat="44.34882" lon="6.50335">
        <ele>1570.7</ele>
        <time>2018-08-05T07:02:27Z</time>
      </trkpt>
      <trkpt lat="44.34884" lon="6.50339">
        <ele>1570.7</ele>
        <time>2018-08-05T07:02:28Z</time>
      </trkpt>
      <trkpt lat="44.34885" lon="6.50343">
        <ele>1570.7</ele>
        <time>2018-08-05T07:02:29Z</time>
      </trkpt>
      <trkpt lat="44.34887" lon="6.50348">
        <ele>1570.6</ele>
        <time>2018-08-05T07:02:30Z</time>
      </trkpt>
      <trkpt lat="44.34888" lon="6.50352">
        <ele>1570.7</ele>
        <time>2018-08-05T07:02:31Z</time>
      </trkpt>
      <trkpt lat="44.34889" lon="6.50356">
        <ele>1570.8</ele>
        <time>2018-08-05T07:02:32Z</time>
      </trkpt>
      <trkpt lat="44.34891" lon="6.50363">
        <ele>1571</ele>
        <time>2018-08-05T07:02:34Z</time>
      </trkpt>
      <trkpt lat="44.34891" lon="6.50367">
        <ele>1571.1</ele>
        <time>2018-08-05T07:02:35Z</time>
      </trkpt>
      <trkpt lat="44.34893" lon="6.50371">
        <ele>1571.2</ele>
        <time>2018-08-05T07:02:36Z</time>
      </trkpt>
      <trkpt lat="44.34894" lon="6.50374">
        <ele>1571.4</ele>
        <time>2018-08-05T07:02:37Z</time>
      </trkpt>
      <trkpt lat="44.34896" lon="6.50379">
        <ele>1571.6</ele>
        <time>2018-08-05T07:02:38Z</time>
      </trkpt>
      <trkpt lat="44.34897" lon="6.50383">
        <ele>1571.7</ele>
        <time>2018-08-05T07:02:39Z</time>
      </trkpt>
      <trkpt lat="44.34898" lon="6.50387">
        <ele>1571.8</ele>
        <time>2018-08-05T07:02:40Z</time>
      </trkpt>
      <trkpt lat="44.349" lon="6.50392">
        <ele>1571.9</ele>
        <time>2018-08-05T07:02:41Z</time>
      </trkpt>
      <trkpt lat="44.34901" lon="6.50395">
        <ele>1572</ele>
        <time>2018-08-05T07:02:42Z</time>
      </trkpt>
      <trkpt lat="44.34903" lon="6.504">
        <ele>1572.1</ele>
        <time>2018-08-05T07:02:43Z</time>
      </trkpt>
      <trkpt lat="44.34904" lon="6.50404">
        <ele>1572.2</ele>
        <time>2018-08-05T07:02:44Z</time>
      </trkpt>
      <trkpt lat="44.34906" lon="6.50409">
        <ele>1572.3</ele>
        <time>2018-08-05T07:02:45Z</time>
      </trkpt>
      <trkpt lat="44.34906" lon="6.50414">
        <ele>1572.4</ele>
        <time>2018-08-05T07:02:46Z</time>
      </trkpt>
      <trkpt lat="44.34907" lon="6.50418">
        <ele>1572.6</ele>
        <time>2018-08-05T07:02:47Z</time>
      </trkpt>
      <trkpt lat="44.34909" lon="6.50423">
        <ele>1572.8</ele>
        <time>2018-08-05T07:02:48Z</time>
      </trkpt>
      <trkpt lat="44.34909" lon="6.50427">
        <ele>1572.8</ele>
        <time>2018-08-05T07:02:49Z</time>
      </trkpt>
      <trkpt lat="44.34909" lon="6.50432">
        <ele>1572.7</ele>
        <time>2018-08-05T07:02:50Z</time>
      </trkpt>
      <trkpt lat="44.34909" lon="6.50435">
        <ele>1572.6</ele>
        <time>2018-08-05T07:02:51Z</time>
      </trkpt>
      <trkpt lat="44.34909" lon="6.5044">
        <ele>1572.8</ele>
        <time>2018-08-05T07:02:52Z</time>
      </trkpt>
      <trkpt lat="44.3491" lon="6.50443">
        <ele>1573.1</ele>
        <time>2018-08-05T07:02:53Z</time>
      </trkpt>
      <trkpt lat="44.34912" lon="6.50449">
        <ele>1573.5</ele>
        <time>2018-08-05T07:02:55Z</time>
      </trkpt>
      <trkpt lat="44.34915" lon="6.50452">
        <ele>1573.9</ele>
        <time>2018-08-05T07:02:57Z</time>
      </trkpt>
      <trkpt lat="44.34916" lon="6.50456">
        <ele>1574.2</ele>
        <time>2018-08-05T07:02:58Z</time>
      </trkpt>
      <trkpt lat="44.34917" lon="6.5046">
        <ele>1574.6</ele>
        <time>2018-08-05T07:02:59Z</time>
      </trkpt>
      <trkpt lat="44.34917" lon="6.50465">
        <ele>1575</ele>
        <time>2018-08-05T07:03:00Z</time>
      </trkpt>
      <trkpt lat="44.34918" lon="6.5047">
        <ele>1575.4</ele>
        <time>2018-08-05T07:03:01Z</time>
      </trkpt>
      <trkpt lat="44.34919" lon="6.50474">
        <ele>1575.5</ele>
        <time>2018-08-05T07:03:02Z</time>
      </trkpt>
      <trkpt lat="44.34919" lon="6.50478">
        <ele>1575.5</ele>
        <time>2018-08-05T07:03:03Z</time>
      </trkpt>
      <trkpt lat="44.34919" lon="6.50481">
        <ele>1575.6</ele>
        <time>2018-08-05T07:03:04Z</time>
      </trkpt>
      <trkpt lat="44.3492" lon="6.50485">
        <ele>1575.6</ele>
        <time>2018-08-05T07:03:06Z</time>
      </trkpt>
      <trkpt lat="44.34918" lon="6.50487">
        <ele>1575.7</ele>
        <time>2018-08-05T07:03:09Z</time>
      </trkpt>
      <trkpt lat="44.34915" lon="6.50488">
        <ele>1575.7</ele>
        <time>2018-08-05T07:03:11Z</time>
      </trkpt>
      <trkpt lat="44.34913" lon="6.5049">
        <ele>1575.8</ele>
        <time>2018-08-05T07:03:22Z</time>
      </trkpt>
      <trkpt lat="44.34914" lon="6.50494">
        <ele>1575.8</ele>
        <time>2018-08-05T07:03:36Z</time>
      </trkpt>
      <trkpt lat="44.34914" lon="6.50489">
        <ele>1576</ele>
        <time>2018-08-05T07:04:03Z</time>
      </trkpt>
      <trkpt lat="44.34917" lon="6.50487">
        <ele>1576</ele>
        <time>2018-08-05T07:04:13Z</time>
      </trkpt>
      <trkpt lat="44.34917" lon="6.50492">
        <ele>1576</ele>
        <time>2018-08-05T07:04:20Z</time>
      </trkpt>
      <trkpt lat="44.34918" lon="6.50498">
        <ele>1576</ele>
        <time>2018-08-05T07:04:23Z</time>
      </trkpt>
      <trkpt lat="44.34917" lon="6.50504">
        <ele>1576</ele>
        <time>2018-08-05T07:04:25Z</time>
      </trkpt>
      <trkpt lat="44.34917" lon="6.5051">
        <ele>1576.1</ele>
        <time>2018-08-05T07:04:27Z</time>
      </trkpt>
      <trkpt lat="44.34915" lon="6.50517">
        <ele>1576.2</ele>
        <time>2018-08-05T07:04:29Z</time>
      </trkpt>
      <trkpt lat="44.34913" lon="6.50524">
        <ele>1576.4</ele>
        <time>2018-08-05T07:04:31Z</time>
      </trkpt>
      <trkpt lat="44.34912" lon="6.50528">
        <ele>1576.6</ele>
        <time>2018-08-05T07:04:32Z</time>
      </trkpt>
      <trkpt lat="44.34911" lon="6.50533">
        <ele>1576.9</ele>
        <time>2018-08-05T07:04:33Z</time>
      </trkpt>
      <trkpt lat="44.34909" lon="6.50539">
        <ele>1577.5</ele>
        <time>2018-08-05T07:04:35Z</time>
      </trkpt>
      <trkpt lat="44.34909" lon="6.50544">
        <ele>1577.8</ele>
        <time>2018-08-05T07:04:36Z</time>
      </trkpt>
      <trkpt lat="44.34909" lon="6.5055">
        <ele>1578.5</ele>
        <time>2018-08-05T07:04:38Z</time>
      </trkpt>
      <trkpt lat="44.34907" lon="6.50554">
        <ele>1579</ele>
        <time>2018-08-05T07:04:39Z</time>
      </trkpt>
      <trkpt lat="44.34905" lon="6.50561">
        <ele>1579.3</ele>
        <time>2018-08-05T07:04:41Z</time>
      </trkpt>
      <trkpt lat="44.34903" lon="6.50565">
        <ele>1579.4</ele>
        <time>2018-08-05T07:04:43Z</time>
      </trkpt>
      <trkpt lat="44.34901" lon="6.50569">
        <ele>1579.4</ele>
        <time>2018-08-05T07:04:44Z</time>
      </trkpt>
      <trkpt lat="44.34898" lon="6.50575">
        <ele>1579.7</ele>
        <time>2018-08-05T07:04:46Z</time>
      </trkpt>
      <trkpt lat="44.34896" lon="6.50581">
        <ele>1580.1</ele>
        <time>2018-08-05T07:04:48Z</time>
      </trkpt>
      <trkpt lat="44.34893" lon="6.50584">
        <ele>1580.5</ele>
        <time>2018-08-05T07:04:49Z</time>
      </trkpt>
      <trkpt lat="44.34891" lon="6.50587">
        <ele>1580.8</ele>
        <time>2018-08-05T07:04:50Z</time>
      </trkpt>
      <trkpt lat="44.34888" lon="6.50589">
        <ele>1581</ele>
        <time>2018-08-05T07:04:51Z</time>
      </trkpt>
      <trkpt lat="44.34885" lon="6.50592">
        <ele>1581</ele>
        <time>2018-08-05T07:04:52Z</time>
      </trkpt>
      <trkpt lat="44.34881" lon="6.50596">
        <ele>1581</ele>
        <time>2018-08-05T07:04:55Z</time>
      </trkpt>
      <trkpt lat="44.34878" lon="6.50597">
        <ele>1581</ele>
        <time>2018-08-05T07:04:56Z</time>
      </trkpt>
      <trkpt lat="44.34875" lon="6.50599">
        <ele>1581</ele>
        <time>2018-08-05T07:04:57Z</time>
      </trkpt>
      <trkpt lat="44.34873" lon="6.50601">
        <ele>1581</ele>
        <time>2018-08-05T07:04:58Z</time>
      </trkpt>
      <trkpt lat="44.34871" lon="6.50604">
        <ele>1581</ele>
        <time>2018-08-05T07:04:59Z</time>
      </trkpt>
      <trkpt lat="44.34869" lon="6.50607">
        <ele>1581</ele>
        <time>2018-08-05T07:05:00Z</time>
      </trkpt>
      <trkpt lat="44.34867" lon="6.5061">
        <ele>1581.2</ele>
        <time>2018-08-05T07:05:01Z</time>
      </trkpt>
      <trkpt lat="44.34862" lon="6.50615">
        <ele>1581.6</ele>
        <time>2018-08-05T07:05:03Z</time>
      </trkpt>
      <trkpt lat="44.34859" lon="6.5062">
        <ele>1581.6</ele>
        <time>2018-08-05T07:05:05Z</time>
      </trkpt>
      <trkpt lat="44.34855" lon="6.50626">
        <ele>1582</ele>
        <time>2018-08-05T07:05:07Z</time>
      </trkpt>
      <trkpt lat="44.34852" lon="6.50629">
        <ele>1582.2</ele>
        <time>2018-08-05T07:05:08Z</time>
      </trkpt>
      <trkpt lat="44.34848" lon="6.5063">
        <ele>1582.3</ele>
        <time>2018-08-05T07:05:09Z</time>
      </trkpt>
      <trkpt lat="44.34845" lon="6.50633">
        <ele>1582.3</ele>
        <time>2018-08-05T07:05:10Z</time>
      </trkpt>
      <trkpt lat="44.34843" lon="6.50635">
        <ele>1582.5</ele>
        <time>2018-08-05T07:05:11Z</time>
      </trkpt>
      <trkpt lat="44.34841" lon="6.50643">
        <ele>1583</ele>
        <time>2018-08-05T07:05:13Z</time>
      </trkpt>
      <trkpt lat="44.34839" lon="6.50647">
        <ele>1583.1</ele>
        <time>2018-08-05T07:05:15Z</time>
      </trkpt>
      <trkpt lat="44.34835" lon="6.5065">
        <ele>1583.1</ele>
        <time>2018-08-05T07:05:17Z</time>
      </trkpt>
      <trkpt lat="44.34832" lon="6.50653">
        <ele>1583</ele>
        <time>2018-08-05T07:05:18Z</time>
      </trkpt>
      <trkpt lat="44.34829" lon="6.50655">
        <ele>1583</ele>
        <time>2018-08-05T07:05:20Z</time>
      </trkpt>
      <trkpt lat="44.34826" lon="6.50657">
        <ele>1583.1</ele>
        <time>2018-08-05T07:05:21Z</time>
      </trkpt>
      <trkpt lat="44.34822" lon="6.50662">
        <ele>1583.2</ele>
        <time>2018-08-05T07:05:23Z</time>
      </trkpt>
      <trkpt lat="44.34819" lon="6.50664">
        <ele>1582.9</ele>
        <time>2018-08-05T07:05:24Z</time>
      </trkpt>
      <trkpt lat="44.34818" lon="6.50668">
        <ele>1582.6</ele>
        <time>2018-08-05T07:05:25Z</time>
      </trkpt>
      <trkpt lat="44.34815" lon="6.50671">
        <ele>1582.4</ele>
        <time>2018-08-05T07:05:26Z</time>
      </trkpt>
      <trkpt lat="44.34813" lon="6.50675">
        <ele>1582.1</ele>
        <time>2018-08-05T07:05:27Z</time>
      </trkpt>
      <trkpt lat="44.3481" lon="6.50679">
        <ele>1582.3</ele>
        <time>2018-08-05T07:05:28Z</time>
      </trkpt>
      <trkpt lat="44.34809" lon="6.50683">
        <ele>1582.5</ele>
        <time>2018-08-05T07:05:29Z</time>
      </trkpt>
      <trkpt lat="44.34808" lon="6.50688">
        <ele>1582.3</ele>
        <time>2018-08-05T07:05:30Z</time>
      </trkpt>
      <trkpt lat="44.34805" lon="6.5069">
        <ele>1582.2</ele>
        <time>2018-08-05T07:05:31Z</time>
      </trkpt>
      <trkpt lat="44.34803" lon="6.50694">
        <ele>1582.3</ele>
        <time>2018-08-05T07:05:32Z</time>
      </trkpt>
      <trkpt lat="44.34803" lon="6.50699">
        <ele>1582.5</ele>
        <time>2018-08-05T07:05:33Z</time>
      </trkpt>
      <trkpt lat="44.34801" lon="6.50706">
        <ele>1582.9</ele>
        <time>2018-08-05T07:05:35Z</time>
      </trkpt>
      <trkpt lat="44.34798" lon="6.50713">
        <ele>1583.4</ele>
        <time>2018-08-05T07:05:37Z</time>
      </trkpt>
      <trkpt lat="44.34794" lon="6.5072">
        <ele>1584.6</ele>
        <time>2018-08-05T07:05:38Z</time>
      </trkpt>
      <trkpt lat="44.34792" lon="6.50726">
        <ele>1585.2</ele>
        <time>2018-08-05T07:05:39Z</time>
      </trkpt>
      <trkpt lat="44.34791" lon="6.50731">
        <ele>1585.5</ele>
        <time>2018-08-05T07:05:40Z</time>
      </trkpt>
      <trkpt lat="44.34788" lon="6.50737">
        <ele>1586.6</ele>
        <time>2018-08-05T07:05:42Z</time>
      </trkpt>
      <trkpt lat="44.34786" lon="6.5074">
        <ele>1587.2</ele>
        <time>2018-08-05T07:05:43Z</time>
      </trkpt>
      <trkpt lat="44.34783" lon="6.50743">
        <ele>1587.2</ele>
        <time>2018-08-05T07:05:44Z</time>
      </trkpt>
      <trkpt lat="44.34781" lon="6.50745">
        <ele>1587.1</ele>
        <time>2018-08-05T07:05:45Z</time>
      </trkpt>
      <trkpt lat="44.34778" lon="6.50749">
        <ele>1587.3</ele>
        <time>2018-08-05T07:05:46Z</time>
      </trkpt>
      <trkpt lat="44.34775" lon="6.50754">
        <ele>1587.7</ele>
        <time>2018-08-05T07:05:48Z</time>
      </trkpt>
      <trkpt lat="44.34771" lon="6.50758">
        <ele>1587.6</ele>
        <time>2018-08-05T07:05:50Z</time>
      </trkpt>
      <trkpt lat="44.34766" lon="6.5076">
        <ele>1587.4</ele>
        <time>2018-08-05T07:05:52Z</time>
      </trkpt>
      <trkpt lat="44.34763" lon="6.50762">
        <ele>1587.4</ele>
        <time>2018-08-05T07:05:53Z</time>
      </trkpt>
      <trkpt lat="44.34758" lon="6.50765">
        <ele>1587</ele>
        <time>2018-08-05T07:05:55Z</time>
      </trkpt>
      <trkpt lat="44.34753" lon="6.50767">
        <ele>1586.4</ele>
        <time>2018-08-05T07:05:57Z</time>
      </trkpt>
      <trkpt lat="44.3475" lon="6.50769">
        <ele>1586.3</ele>
        <time>2018-08-05T07:05:58Z</time>
      </trkpt>
      <trkpt lat="44.34747" lon="6.50771">
        <ele>1586.1</ele>
        <time>2018-08-05T07:05:59Z</time>
      </trkpt>
      <trkpt lat="44.34744" lon="6.50773">
        <ele>1585.9</ele>
        <time>2018-08-05T07:06:00Z</time>
      </trkpt>
      <trkpt lat="44.34739" lon="6.50776">
        <ele>1585.3</ele>
        <time>2018-08-05T07:06:02Z</time>
      </trkpt>
      <trkpt lat="44.34736" lon="6.50778">
        <ele>1585.3</ele>
        <time>2018-08-05T07:06:03Z</time>
      </trkpt>
      <trkpt lat="44.34734" lon="6.5078">
        <ele>1585.3</ele>
        <time>2018-08-05T07:06:04Z</time>
      </trkpt>
      <trkpt lat="44.34731" lon="6.50781">
        <ele>1585.4</ele>
        <time>2018-08-05T07:06:05Z</time>
      </trkpt>
      <trkpt lat="44.34728" lon="6.50781">
        <ele>1585.5</ele>
        <time>2018-08-05T07:06:06Z</time>
      </trkpt>
      <trkpt lat="44.34724" lon="6.50781">
        <ele>1585.6</ele>
        <time>2018-08-05T07:06:07Z</time>
      </trkpt>
      <trkpt lat="44.34721" lon="6.50782">
        <ele>1585.3</ele>
        <time>2018-08-05T07:06:08Z</time>
      </trkpt>
      <trkpt lat="44.34718" lon="6.50781">
        <ele>1584.8</ele>
        <time>2018-08-05T07:06:09Z</time>
      </trkpt>
      <trkpt lat="44.34713" lon="6.50783">
        <ele>1584.4</ele>
        <time>2018-08-05T07:06:11Z</time>
      </trkpt>
      <trkpt lat="44.3471" lon="6.50784">
        <ele>1584.5</ele>
        <time>2018-08-05T07:06:12Z</time>
      </trkpt>
      <trkpt lat="44.34708" lon="6.50786">
        <ele>1584.2</ele>
        <time>2018-08-05T07:06:13Z</time>
      </trkpt>
      <trkpt lat="44.34706" lon="6.5079">
        <ele>1583.8</ele>
        <time>2018-08-05T07:06:14Z</time>
      </trkpt>
      <trkpt lat="44.34704" lon="6.50794">
        <ele>1583.7</ele>
        <time>2018-08-05T07:06:15Z</time>
      </trkpt>
      <trkpt lat="44.34703" lon="6.50798">
        <ele>1583.7</ele>
        <time>2018-08-05T07:06:16Z</time>
      </trkpt>
      <trkpt lat="44.34702" lon="6.50801">
        <ele>1583.8</ele>
        <time>2018-08-05T07:06:17Z</time>
      </trkpt>
      <trkpt lat="44.34699" lon="6.50809">
        <ele>1585</ele>
        <time>2018-08-05T07:06:19Z</time>
      </trkpt>
      <trkpt lat="44.34697" lon="6.50813">
        <ele>1585.7</ele>
        <time>2018-08-05T07:06:20Z</time>
      </trkpt>
      <trkpt lat="44.34695" lon="6.50817">
        <ele>1586.4</ele>
        <time>2018-08-05T07:06:21Z</time>
      </trkpt>
      <trkpt lat="44.34694" lon="6.5082">
        <ele>1586.8</ele>
        <time>2018-08-05T07:06:22Z</time>
      </trkpt>
      <trkpt lat="44.34692" lon="6.50824">
        <ele>1587.4</ele>
        <time>2018-08-05T07:06:23Z</time>
      </trkpt>
      <trkpt lat="44.3469" lon="6.50827">
        <ele>1587.8</ele>
        <time>2018-08-05T07:06:24Z</time>
      </trkpt>
      <trkpt lat="44.34688" lon="6.5083">
        <ele>1588</ele>
        <time>2018-08-05T07:06:25Z</time>
      </trkpt>
      <trkpt lat="44.34686" lon="6.50833">
        <ele>1588.2</ele>
        <time>2018-08-05T07:06:26Z</time>
      </trkpt>
      <trkpt lat="44.34684" lon="6.50836">
        <ele>1588.7</ele>
        <time>2018-08-05T07:06:27Z</time>
      </trkpt>
      <trkpt lat="44.34682" lon="6.5084">
        <ele>1589.3</ele>
        <time>2018-08-05T07:06:28Z</time>
      </trkpt>
      <trkpt lat="44.3468" lon="6.50843">
        <ele>1589.9</ele>
        <time>2018-08-05T07:06:29Z</time>
      </trkpt>
      <trkpt lat="44.34678" lon="6.50846">
        <ele>1590.3</ele>
        <time>2018-08-05T07:06:30Z</time>
      </trkpt>
      <trkpt lat="44.34675" lon="6.5085">
        <ele>1590.8</ele>
        <time>2018-08-05T07:06:31Z</time>
      </trkpt>
      <trkpt lat="44.34673" lon="6.50853">
        <ele>1591.5</ele>
        <time>2018-08-05T07:06:32Z</time>
      </trkpt>
      <trkpt lat="44.34671" lon="6.50857">
        <ele>1592.2</ele>
        <time>2018-08-05T07:06:33Z</time>
      </trkpt>
      <trkpt lat="44.3467" lon="6.5086">
        <ele>1592.8</ele>
        <time>2018-08-05T07:06:34Z</time>
      </trkpt>
      <trkpt lat="44.34667" lon="6.50861">
        <ele>1593.2</ele>
        <time>2018-08-05T07:06:35Z</time>
      </trkpt>
      <trkpt lat="44.34665" lon="6.50865">
        <ele>1593.7</ele>
        <time>2018-08-05T07:06:36Z</time>
      </trkpt>
      <trkpt lat="44.34661" lon="6.50868">
        <ele>1594.3</ele>
        <time>2018-08-05T07:06:37Z</time>
      </trkpt>
      <trkpt lat="44.34659" lon="6.50871">
        <ele>1594.7</ele>
        <time>2018-08-05T07:06:38Z</time>
      </trkpt>
      <trkpt lat="44.34656" lon="6.50874">
        <ele>1594.8</ele>
        <time>2018-08-05T07:06:39Z</time>
      </trkpt>
      <trkpt lat="44.34653" lon="6.50875">
        <ele>1594.7</ele>
        <time>2018-08-05T07:06:40Z</time>
      </trkpt>
      <trkpt lat="44.34653" lon="6.50879">
        <ele>1594.8</ele>
        <time>2018-08-05T07:06:41Z</time>
      </trkpt>
      <trkpt lat="44.34651" lon="6.50883">
        <ele>1595.2</ele>
        <time>2018-08-05T07:06:42Z</time>
      </trkpt>
      <trkpt lat="44.34648" lon="6.50886">
        <ele>1595.6</ele>
        <time>2018-08-05T07:06:43Z</time>
      </trkpt>
      <trkpt lat="44.34646" lon="6.50892">
        <ele>1597</ele>
        <time>2018-08-05T07:06:45Z</time>
      </trkpt>
      <trkpt lat="44.34644" lon="6.50896">
        <ele>1597.8</ele>
        <time>2018-08-05T07:06:46Z</time>
      </trkpt>
      <trkpt lat="44.34643" lon="6.50899">
        <ele>1598.6</ele>
        <time>2018-08-05T07:06:47Z</time>
      </trkpt>
      <trkpt lat="44.34641" lon="6.50902">
        <ele>1599.4</ele>
        <time>2018-08-05T07:06:48Z</time>
      </trkpt>
      <trkpt lat="44.34637" lon="6.50906">
        <ele>1600.5</ele>
        <time>2018-08-05T07:06:50Z</time>
      </trkpt>
      <trkpt lat="44.34635" lon="6.50909">
        <ele>1601.2</ele>
        <time>2018-08-05T07:06:51Z</time>
      </trkpt>
      <trkpt lat="44.34633" lon="6.50913">
        <ele>1602</ele>
        <time>2018-08-05T07:06:52Z</time>
      </trkpt>
      <trkpt lat="44.3463" lon="6.50916">
        <ele>1602.6</ele>
        <time>2018-08-05T07:06:53Z</time>
      </trkpt>
      <trkpt lat="44.34627" lon="6.50918">
        <ele>1603.1</ele>
        <time>2018-08-05T07:06:54Z</time>
      </trkpt>
      <trkpt lat="44.34624" lon="6.5092">
        <ele>1603.5</ele>
        <time>2018-08-05T07:06:55Z</time>
      </trkpt>
      <trkpt lat="44.34622" lon="6.50922">
        <ele>1603.7</ele>
        <time>2018-08-05T07:06:56Z</time>
      </trkpt>
      <trkpt lat="44.34619" lon="6.50922">
        <ele>1603.7</ele>
        <time>2018-08-05T07:06:57Z</time>
      </trkpt>
      <trkpt lat="44.34616" lon="6.50925">
        <ele>1603.7</ele>
        <time>2018-08-05T07:06:59Z</time>
      </trkpt>
      <trkpt lat="44.34612" lon="6.50927">
        <ele>1603.8</ele>
        <time>2018-08-05T07:07:00Z</time>
      </trkpt>
      <trkpt lat="44.34606" lon="6.50933">
        <ele>1603.5</ele>
        <time>2018-08-05T07:07:03Z</time>
      </trkpt>
      <trkpt lat="44.34602" lon="6.50938">
        <ele>1603.3</ele>
        <time>2018-08-05T07:07:05Z</time>
      </trkpt>
      <trkpt lat="44.34599" lon="6.5094">
        <ele>1603.7</ele>
        <time>2018-08-05T07:07:07Z</time>
      </trkpt>
      <trkpt lat="44.34598" lon="6.50945">
        <ele>1604.1</ele>
        <time>2018-08-05T07:07:08Z</time>
      </trkpt>
      <trkpt lat="44.34596" lon="6.50948">
        <ele>1604.7</ele>
        <time>2018-08-05T07:07:09Z</time>
      </trkpt>
      <trkpt lat="44.34594" lon="6.50952">
        <ele>1605.3</ele>
        <time>2018-08-05T07:07:10Z</time>
      </trkpt>
      <trkpt lat="44.34593" lon="6.50958">
        <ele>1605.8</ele>
        <time>2018-08-05T07:07:12Z</time>
      </trkpt>
      <trkpt lat="44.3459" lon="6.50963">
        <ele>1606.1</ele>
        <time>2018-08-05T07:07:14Z</time>
      </trkpt>
      <trkpt lat="44.34587" lon="6.50966">
        <ele>1605.9</ele>
        <time>2018-08-05T07:07:15Z</time>
      </trkpt>
      <trkpt lat="44.34583" lon="6.5097">
        <ele>1605.9</ele>
        <time>2018-08-05T07:07:17Z</time>
      </trkpt>
      <trkpt lat="44.3458" lon="6.50975">
        <ele>1606.8</ele>
        <time>2018-08-05T07:07:19Z</time>
      </trkpt>
      <trkpt lat="44.34576" lon="6.50983">
        <ele>1607.5</ele>
        <time>2018-08-05T07:07:21Z</time>
      </trkpt>
      <trkpt lat="44.34574" lon="6.50986">
        <ele>1607.8</ele>
        <time>2018-08-05T07:07:22Z</time>
      </trkpt>
      <trkpt lat="44.34572" lon="6.50989">
        <ele>1607.9</ele>
        <time>2018-08-05T07:07:23Z</time>
      </trkpt>
      <trkpt lat="44.34572" lon="6.50993">
        <ele>1608.1</ele>
        <time>2018-08-05T07:07:24Z</time>
      </trkpt>
      <trkpt lat="44.34569" lon="6.50996">
        <ele>1608.1</ele>
        <time>2018-08-05T07:07:25Z</time>
      </trkpt>
      <trkpt lat="44.34566" lon="6.50997">
        <ele>1607.9</ele>
        <time>2018-08-05T07:07:26Z</time>
      </trkpt>
      <trkpt lat="44.34561" lon="6.51002">
        <ele>1607.1</ele>
        <time>2018-08-05T07:07:28Z</time>
      </trkpt>
      <trkpt lat="44.34557" lon="6.51005">
        <ele>1606.4</ele>
        <time>2018-08-05T07:07:30Z</time>
      </trkpt>
      <trkpt lat="44.34554" lon="6.51008">
        <ele>1606</ele>
        <time>2018-08-05T07:07:31Z</time>
      </trkpt>
      <trkpt lat="44.34551" lon="6.51012">
        <ele>1605.6</ele>
        <time>2018-08-05T07:07:33Z</time>
      </trkpt>
      <trkpt lat="44.34548" lon="6.51015">
        <ele>1605.3</ele>
        <time>2018-08-05T07:07:34Z</time>
      </trkpt>
      <trkpt lat="44.34544" lon="6.51017">
        <ele>1605.3</ele>
        <time>2018-08-05T07:07:36Z</time>
      </trkpt>
      <trkpt lat="44.34541" lon="6.5102">
        <ele>1605.3</ele>
        <time>2018-08-05T07:07:37Z</time>
      </trkpt>
      <trkpt lat="44.34536" lon="6.51021">
        <ele>1605.3</ele>
        <time>2018-08-05T07:07:39Z</time>
      </trkpt>
      <trkpt lat="44.34533" lon="6.51023">
        <ele>1605.1</ele>
        <time>2018-08-05T07:07:41Z</time>
      </trkpt>
      <trkpt lat="44.34527" lon="6.51025">
        <ele>1604.4</ele>
        <time>2018-08-05T07:07:43Z</time>
      </trkpt>
      <trkpt lat="44.34523" lon="6.51028">
        <ele>1603.2</ele>
        <time>2018-08-05T07:07:45Z</time>
      </trkpt>
      <trkpt lat="44.34519" lon="6.51031">
        <ele>1602.3</ele>
        <time>2018-08-05T07:07:47Z</time>
      </trkpt>
      <trkpt lat="44.34516" lon="6.51032">
        <ele>1601.7</ele>
        <time>2018-08-05T07:07:48Z</time>
      </trkpt>
      <trkpt lat="44.34512" lon="6.51035">
        <ele>1600.8</ele>
        <time>2018-08-05T07:07:50Z</time>
      </trkpt>
      <trkpt lat="44.34507" lon="6.51035">
        <ele>1600.5</ele>
        <time>2018-08-05T07:07:51Z</time>
      </trkpt>
      <trkpt lat="44.34506" lon="6.51039">
        <ele>1600.5</ele>
        <time>2018-08-05T07:07:53Z</time>
      </trkpt>
      <trkpt lat="44.34503" lon="6.51042">
        <ele>1600.5</ele>
        <time>2018-08-05T07:07:55Z</time>
      </trkpt>
      <trkpt lat="44.34502" lon="6.51045">
        <ele>1600.7</ele>
        <time>2018-08-05T07:07:58Z</time>
      </trkpt>
      <trkpt lat="44.345" lon="6.51051">
        <ele>1601</ele>
        <time>2018-08-05T07:08:01Z</time>
      </trkpt>
      <trkpt lat="44.34499" lon="6.51054">
        <ele>1601.3</ele>
        <time>2018-08-05T07:08:03Z</time>
      </trkpt>
      <trkpt lat="44.34498" lon="6.5106">
        <ele>1601.7</ele>
        <time>2018-08-05T07:08:05Z</time>
      </trkpt>
      <trkpt lat="44.34492" lon="6.51063">
        <ele>1602.1</ele>
        <time>2018-08-05T07:08:07Z</time>
      </trkpt>
      <trkpt lat="44.34489" lon="6.51069">
        <ele>1602.4</ele>
        <time>2018-08-05T07:08:09Z</time>
      </trkpt>
      <trkpt lat="44.34486" lon="6.51073">
        <ele>1602.6</ele>
        <time>2018-08-05T07:08:11Z</time>
      </trkpt>
      <trkpt lat="44.34484" lon="6.51076">
        <ele>1602.8</ele>
        <time>2018-08-05T07:08:12Z</time>
      </trkpt>
      <trkpt lat="44.34482" lon="6.51079">
        <ele>1603.2</ele>
        <time>2018-08-05T07:08:14Z</time>
      </trkpt>
      <trkpt lat="44.34479" lon="6.51082">
        <ele>1603.6</ele>
        <time>2018-08-05T07:08:16Z</time>
      </trkpt>
      <trkpt lat="44.34477" lon="6.51085">
        <ele>1603.8</ele>
        <time>2018-08-05T07:08:19Z</time>
      </trkpt>
      <trkpt lat="44.34473" lon="6.51088">
        <ele>1603.7</ele>
        <time>2018-08-05T07:08:21Z</time>
      </trkpt>
      <trkpt lat="44.34471" lon="6.51093">
        <ele>1603.6</ele>
        <time>2018-08-05T07:08:24Z</time>
      </trkpt>
      <trkpt lat="44.3447" lon="6.51097">
        <ele>1603.8</ele>
        <time>2018-08-05T07:08:26Z</time>
      </trkpt>
      <trkpt lat="44.34468" lon="6.51102">
        <ele>1603.8</ele>
        <time>2018-08-05T07:08:28Z</time>
      </trkpt>
      <trkpt lat="44.34464" lon="6.51106">
        <ele>1603.8</ele>
        <time>2018-08-05T07:08:30Z</time>
      </trkpt>
      <trkpt lat="44.3446" lon="6.5111">
        <ele>1604.2</ele>
        <time>2018-08-05T07:08:32Z</time>
      </trkpt>
      <trkpt lat="44.34458" lon="6.51115">
        <ele>1604.8</ele>
        <time>2018-08-05T07:08:34Z</time>
      </trkpt>
      <trkpt lat="44.34454" lon="6.51119">
        <ele>1604.7</ele>
        <time>2018-08-05T07:08:36Z</time>
      </trkpt>
      <trkpt lat="44.3445" lon="6.51124">
        <ele>1604.5</ele>
        <time>2018-08-05T07:08:38Z</time>
      </trkpt>
      <trkpt lat="44.34448" lon="6.51126">
        <ele>1604.4</ele>
        <time>2018-08-05T07:08:39Z</time>
      </trkpt>
      <trkpt lat="44.34445" lon="6.5113">
        <ele>1604.1</ele>
        <time>2018-08-05T07:08:41Z</time>
      </trkpt>
      <trkpt lat="44.34442" lon="6.51134">
        <ele>1604.2</ele>
        <time>2018-08-05T07:08:43Z</time>
      </trkpt>
      <trkpt lat="44.34438" lon="6.51139">
        <ele>1604.3</ele>
        <time>2018-08-05T07:08:45Z</time>
      </trkpt>
      <trkpt lat="44.34433" lon="6.51142">
        <ele>1604.5</ele>
        <time>2018-08-05T07:08:47Z</time>
      </trkpt>
      <trkpt lat="44.34431" lon="6.51147">
        <ele>1604.5</ele>
        <time>2018-08-05T07:08:49Z</time>
      </trkpt>
      <trkpt lat="44.34427" lon="6.5115">
        <ele>1604.3</ele>
        <time>2018-08-05T07:08:51Z</time>
      </trkpt>
      <trkpt lat="44.34424" lon="6.51151">
        <ele>1604.2</ele>
        <time>2018-08-05T07:08:52Z</time>
      </trkpt>
      <trkpt lat="44.34421" lon="6.51154">
        <ele>1604.2</ele>
        <time>2018-08-05T07:08:54Z</time>
      </trkpt>
      <trkpt lat="44.34416" lon="6.51158">
        <ele>1604.4</ele>
        <time>2018-08-05T07:08:56Z</time>
      </trkpt>
      <trkpt lat="44.34413" lon="6.5116">
        <ele>1604.7</ele>
        <time>2018-08-05T07:08:57Z</time>
      </trkpt>
      <trkpt lat="44.34411" lon="6.51161">
        <ele>1604.9</ele>
        <time>2018-08-05T07:08:58Z</time>
      </trkpt>
      <trkpt lat="44.34406" lon="6.51164">
        <ele>1605.5</ele>
        <time>2018-08-05T07:09:00Z</time>
      </trkpt>
      <trkpt lat="44.34403" lon="6.51168">
        <ele>1606</ele>
        <time>2018-08-05T07:09:02Z</time>
      </trkpt>
      <trkpt lat="44.34399" lon="6.51173">
        <ele>1606.2</ele>
        <time>2018-08-05T07:09:04Z</time>
      </trkpt>
      <trkpt lat="44.34396" lon="6.51175">
        <ele>1606.3</ele>
        <time>2018-08-05T07:09:05Z</time>
      </trkpt>
      <trkpt lat="44.34392" lon="6.51179">
        <ele>1606.2</ele>
        <time>2018-08-05T07:09:07Z</time>
      </trkpt>
      <trkpt lat="44.34388" lon="6.51182">
        <ele>1606.1</ele>
        <time>2018-08-05T07:09:09Z</time>
      </trkpt>
      <trkpt lat="44.34385" lon="6.51186">
        <ele>1606.2</ele>
        <time>2018-08-05T07:09:11Z</time>
      </trkpt>
      <trkpt lat="44.34382" lon="6.51185">
        <ele>1606.3</ele>
        <time>2018-08-05T07:09:13Z</time>
      </trkpt>
      <trkpt lat="44.34378" lon="6.51189">
        <ele>1606.5</ele>
        <time>2018-08-05T07:09:15Z</time>
      </trkpt>
      <trkpt lat="44.34374" lon="6.51193">
        <ele>1606.9</ele>
        <time>2018-08-05T07:09:17Z</time>
      </trkpt>
      <trkpt lat="44.34371" lon="6.51195">
        <ele>1607.1</ele>
        <time>2018-08-05T07:09:18Z</time>
      </trkpt>
      <trkpt lat="44.34369" lon="6.51198">
        <ele>1607.6</ele>
        <time>2018-08-05T07:09:20Z</time>
      </trkpt>
      <trkpt lat="44.34366" lon="6.512">
        <ele>1608.2</ele>
        <time>2018-08-05T07:09:21Z</time>
      </trkpt>
      <trkpt lat="44.34363" lon="6.51201">
        <ele>1608.8</ele>
        <time>2018-08-05T07:09:22Z</time>
      </trkpt>
      <trkpt lat="44.3436" lon="6.51205">
        <ele>1609</ele>
        <time>2018-08-05T07:09:24Z</time>
      </trkpt>
      <trkpt lat="44.34356" lon="6.51209">
        <ele>1609.4</ele>
        <time>2018-08-05T07:09:26Z</time>
      </trkpt>
      <trkpt lat="44.34352" lon="6.51212">
        <ele>1610</ele>
        <time>2018-08-05T07:09:28Z</time>
      </trkpt>
      <trkpt lat="44.34349" lon="6.51215">
        <ele>1610.7</ele>
        <time>2018-08-05T07:09:31Z</time>
      </trkpt>
      <trkpt lat="44.34345" lon="6.51219">
        <ele>1611.7</ele>
        <time>2018-08-05T07:09:33Z</time>
      </trkpt>
      <trkpt lat="44.3434" lon="6.51223">
        <ele>1612.3</ele>
        <time>2018-08-05T07:09:35Z</time>
      </trkpt>
      <trkpt lat="44.34335" lon="6.51225">
        <ele>1612.8</ele>
        <time>2018-08-05T07:09:37Z</time>
      </trkpt>
      <trkpt lat="44.34332" lon="6.51226">
        <ele>1613.1</ele>
        <time>2018-08-05T07:09:38Z</time>
      </trkpt>
      <trkpt lat="44.34326" lon="6.51226">
        <ele>1613.6</ele>
        <time>2018-08-05T07:09:40Z</time>
      </trkpt>
      <trkpt lat="44.34322" lon="6.51228">
        <ele>1613.7</ele>
        <time>2018-08-05T07:09:43Z</time>
      </trkpt>
      <trkpt lat="44.34317" lon="6.51229">
        <ele>1613.8</ele>
        <time>2018-08-05T07:09:45Z</time>
      </trkpt>
      <trkpt lat="44.34314" lon="6.51228">
        <ele>1613.9</ele>
        <time>2018-08-05T07:09:46Z</time>
      </trkpt>
      <trkpt lat="44.3431" lon="6.51229">
        <ele>1614.1</ele>
        <time>2018-08-05T07:09:48Z</time>
      </trkpt>
      <trkpt lat="44.34307" lon="6.51227">
        <ele>1614.4</ele>
        <time>2018-08-05T07:09:50Z</time>
      </trkpt>
      <trkpt lat="44.34302" lon="6.51228">
        <ele>1614.7</ele>
        <time>2018-08-05T07:09:52Z</time>
      </trkpt>
      <trkpt lat="44.34298" lon="6.51229">
        <ele>1614.9</ele>
        <time>2018-08-05T07:09:54Z</time>
      </trkpt>
      <trkpt lat="44.34295" lon="6.51229">
        <ele>1615.3</ele>
        <time>2018-08-05T07:09:55Z</time>
      </trkpt>
      <trkpt lat="44.34293" lon="6.51234">
        <ele>1615.8</ele>
        <time>2018-08-05T07:09:58Z</time>
      </trkpt>
      <trkpt lat="44.3429" lon="6.51237">
        <ele>1616.3</ele>
        <time>2018-08-05T07:10:01Z</time>
      </trkpt>
      <trkpt lat="44.34287" lon="6.5124">
        <ele>1617</ele>
        <time>2018-08-05T07:10:03Z</time>
      </trkpt>
      <trkpt lat="44.34283" lon="6.51241">
        <ele>1617.8</ele>
        <time>2018-08-05T07:10:04Z</time>
      </trkpt>
      <trkpt lat="44.34281" lon="6.51243">
        <ele>1618.5</ele>
        <time>2018-08-05T07:10:06Z</time>
      </trkpt>
      <trkpt lat="44.34278" lon="6.51245">
        <ele>1619.3</ele>
        <time>2018-08-05T07:10:08Z</time>
      </trkpt>
      <trkpt lat="44.34272" lon="6.51248">
        <ele>1620.4</ele>
        <time>2018-08-05T07:10:10Z</time>
      </trkpt>
      <trkpt lat="44.34269" lon="6.51251">
        <ele>1621</ele>
        <time>2018-08-05T07:10:14Z</time>
      </trkpt>
      <trkpt lat="44.34266" lon="6.51254">
        <ele>1621.6</ele>
        <time>2018-08-05T07:10:17Z</time>
      </trkpt>
      <trkpt lat="44.34262" lon="6.51256">
        <ele>1622</ele>
        <time>2018-08-05T07:10:19Z</time>
      </trkpt>
      <trkpt lat="44.34258" lon="6.51259">
        <ele>1622</ele>
        <time>2018-08-05T07:10:21Z</time>
      </trkpt>
      <trkpt lat="44.34255" lon="6.51262">
        <ele>1622.3</ele>
        <time>2018-08-05T07:10:23Z</time>
      </trkpt>
      <trkpt lat="44.34252" lon="6.51263">
        <ele>1622.8</ele>
        <time>2018-08-05T07:10:25Z</time>
      </trkpt>
      <trkpt lat="44.34248" lon="6.51263">
        <ele>1623.4</ele>
        <time>2018-08-05T07:10:27Z</time>
      </trkpt>
      <trkpt lat="44.34245" lon="6.51265">
        <ele>1623.8</ele>
        <time>2018-08-05T07:10:28Z</time>
      </trkpt>
      <trkpt lat="44.34241" lon="6.51268">
        <ele>1624.4</ele>
        <time>2018-08-05T07:10:30Z</time>
      </trkpt>
      <trkpt lat="44.34237" lon="6.5127">
        <ele>1624.9</ele>
        <time>2018-08-05T07:10:32Z</time>
      </trkpt>
      <trkpt lat="44.34233" lon="6.51273">
        <ele>1625.3</ele>
        <time>2018-08-05T07:10:34Z</time>
      </trkpt>
      <trkpt lat="44.34229" lon="6.51277">
        <ele>1625.8</ele>
        <time>2018-08-05T07:10:36Z</time>
      </trkpt>
      <trkpt lat="44.34227" lon="6.51279">
        <ele>1626.2</ele>
        <time>2018-08-05T07:10:38Z</time>
      </trkpt>
      <trkpt lat="44.34224" lon="6.51281">
        <ele>1626.5</ele>
        <time>2018-08-05T07:10:39Z</time>
      </trkpt>
      <trkpt lat="44.3422" lon="6.51284">
        <ele>1627</ele>
        <time>2018-08-05T07:10:41Z</time>
      </trkpt>
      <trkpt lat="44.34217" lon="6.51286">
        <ele>1627.4</ele>
        <time>2018-08-05T07:10:43Z</time>
      </trkpt>
      <trkpt lat="44.34212" lon="6.51287">
        <ele>1627.8</ele>
        <time>2018-08-05T07:10:45Z</time>
      </trkpt>
      <trkpt lat="44.34209" lon="6.51289">
        <ele>1628.1</ele>
        <time>2018-08-05T07:10:48Z</time>
      </trkpt>
      <trkpt lat="44.34204" lon="6.51291">
        <ele>1628.6</ele>
        <time>2018-08-05T07:10:50Z</time>
      </trkpt>
      <trkpt lat="44.34201" lon="6.51291">
        <ele>1629</ele>
        <time>2018-08-05T07:10:54Z</time>
      </trkpt>
      <trkpt lat="44.34197" lon="6.51291">
        <ele>1629.4</ele>
        <time>2018-08-05T07:10:59Z</time>
      </trkpt>
      <trkpt lat="44.34194" lon="6.51292">
        <ele>1629.7</ele>
        <time>2018-08-05T07:11:01Z</time>
      </trkpt>
      <trkpt lat="44.34191" lon="6.51292">
        <ele>1630.1</ele>
        <time>2018-08-05T07:11:03Z</time>
      </trkpt>
      <trkpt lat="44.34189" lon="6.51294">
        <ele>1630.5</ele>
        <time>2018-08-05T07:11:06Z</time>
      </trkpt>
      <trkpt lat="44.34185" lon="6.51296">
        <ele>1631.1</ele>
        <time>2018-08-05T07:11:09Z</time>
      </trkpt>
      <trkpt lat="44.34183" lon="6.51297">
        <ele>1631.3</ele>
        <time>2018-08-05T07:11:11Z</time>
      </trkpt>
      <trkpt lat="44.3418" lon="6.51299">
        <ele>1631.5</ele>
        <time>2018-08-05T07:11:13Z</time>
      </trkpt>
      <trkpt lat="44.34176" lon="6.51301">
        <ele>1631.8</ele>
        <time>2018-08-05T07:11:15Z</time>
      </trkpt>
      <trkpt lat="44.34174" lon="6.51303">
        <ele>1632.2</ele>
        <time>2018-08-05T07:11:17Z</time>
      </trkpt>
      <trkpt lat="44.34171" lon="6.51307">
        <ele>1632.6</ele>
        <time>2018-08-05T07:11:19Z</time>
      </trkpt>
      <trkpt lat="44.34168" lon="6.51311">
        <ele>1632.9</ele>
        <time>2018-08-05T07:11:21Z</time>
      </trkpt>
      <trkpt lat="44.34165" lon="6.51314">
        <ele>1633.3</ele>
        <time>2018-08-05T07:11:23Z</time>
      </trkpt>
      <trkpt lat="44.34163" lon="6.51318">
        <ele>1633.7</ele>
        <time>2018-08-05T07:11:25Z</time>
      </trkpt>
      <trkpt lat="44.3416" lon="6.51322">
        <ele>1634.2</ele>
        <time>2018-08-05T07:11:27Z</time>
      </trkpt>
      <trkpt lat="44.34157" lon="6.51325">
        <ele>1634.5</ele>
        <time>2018-08-05T07:11:29Z</time>
      </trkpt>
      <trkpt lat="44.34154" lon="6.51327">
        <ele>1634.7</ele>
        <time>2018-08-05T07:11:31Z</time>
      </trkpt>
      <trkpt lat="44.34152" lon="6.5133">
        <ele>1634.9</ele>
        <time>2018-08-05T07:11:33Z</time>
      </trkpt>
      <trkpt lat="44.34146" lon="6.51329">
        <ele>1635.7</ele>
        <time>2018-08-05T07:11:36Z</time>
      </trkpt>
      <trkpt lat="44.34144" lon="6.51329">
        <ele>1635.9</ele>
        <time>2018-08-05T07:11:37Z</time>
      </trkpt>
      <trkpt lat="44.34139" lon="6.51331">
        <ele>1636.3</ele>
        <time>2018-08-05T07:11:41Z</time>
      </trkpt>
      <trkpt lat="44.34136" lon="6.51337">
        <ele>1636.7</ele>
        <time>2018-08-05T07:11:43Z</time>
      </trkpt>
      <trkpt lat="44.34134" lon="6.5134">
        <ele>1637</ele>
        <time>2018-08-05T07:11:45Z</time>
      </trkpt>
      <trkpt lat="44.3413" lon="6.51342">
        <ele>1637.4</ele>
        <time>2018-08-05T07:11:47Z</time>
      </trkpt>
      <trkpt lat="44.34125" lon="6.51345">
        <ele>1637.6</ele>
        <time>2018-08-05T07:11:49Z</time>
      </trkpt>
      <trkpt lat="44.34123" lon="6.51347">
        <ele>1637.7</ele>
        <time>2018-08-05T07:11:50Z</time>
      </trkpt>
      <trkpt lat="44.3412" lon="6.51351">
        <ele>1637.9</ele>
        <time>2018-08-05T07:11:52Z</time>
      </trkpt>
      <trkpt lat="44.34116" lon="6.51354">
        <ele>1638.1</ele>
        <time>2018-08-05T07:11:54Z</time>
      </trkpt>
      <trkpt lat="44.34113" lon="6.51358">
        <ele>1638.2</ele>
        <time>2018-08-05T07:11:56Z</time>
      </trkpt>
      <trkpt lat="44.3411" lon="6.51361">
        <ele>1638.3</ele>
        <time>2018-08-05T07:11:58Z</time>
      </trkpt>
      <trkpt lat="44.34108" lon="6.51366">
        <ele>1638.4</ele>
        <time>2018-08-05T07:12:00Z</time>
      </trkpt>
      <trkpt lat="44.34109" lon="6.51373">
        <ele>1638.4</ele>
        <time>2018-08-05T07:12:02Z</time>
      </trkpt>
      <trkpt lat="44.34108" lon="6.5138">
        <ele>1638.2</ele>
        <time>2018-08-05T07:12:04Z</time>
      </trkpt>
      <trkpt lat="44.34107" lon="6.51387">
        <ele>1637.9</ele>
        <time>2018-08-05T07:12:06Z</time>
      </trkpt>
      <trkpt lat="44.34107" lon="6.51394">
        <ele>1637.7</ele>
        <time>2018-08-05T07:12:08Z</time>
      </trkpt>
      <trkpt lat="44.34106" lon="6.514">
        <ele>1637.6</ele>
        <time>2018-08-05T07:12:10Z</time>
      </trkpt>
      <trkpt lat="44.34105" lon="6.51406">
        <ele>1637.8</ele>
        <time>2018-08-05T07:12:12Z</time>
      </trkpt>
      <trkpt lat="44.34103" lon="6.51412">
        <ele>1638</ele>
        <time>2018-08-05T07:12:14Z</time>
      </trkpt>
      <trkpt lat="44.34102" lon="6.51419">
        <ele>1638.5</ele>
        <time>2018-08-05T07:12:16Z</time>
      </trkpt>
      <trkpt lat="44.34102" lon="6.51422">
        <ele>1638.9</ele>
        <time>2018-08-05T07:12:17Z</time>
      </trkpt>
      <trkpt lat="44.341" lon="6.5143">
        <ele>1639.9</ele>
        <time>2018-08-05T07:12:19Z</time>
      </trkpt>
      <trkpt lat="44.34099" lon="6.51435">
        <ele>1640.5</ele>
        <time>2018-08-05T07:12:20Z</time>
      </trkpt>
      <trkpt lat="44.34098" lon="6.51442">
        <ele>1641.6</ele>
        <time>2018-08-05T07:12:22Z</time>
      </trkpt>
      <trkpt lat="44.34099" lon="6.51447">
        <ele>1642.1</ele>
        <time>2018-08-05T07:12:23Z</time>
      </trkpt>
      <trkpt lat="44.34098" lon="6.51451">
        <ele>1642.7</ele>
        <time>2018-08-05T07:12:24Z</time>
      </trkpt>
      <trkpt lat="44.34098" lon="6.51456">
        <ele>1643</ele>
        <time>2018-08-05T07:12:25Z</time>
      </trkpt>
      <trkpt lat="44.34098" lon="6.5146">
        <ele>1643.2</ele>
        <time>2018-08-05T07:12:26Z</time>
      </trkpt>
      <trkpt lat="44.34098" lon="6.51465">
        <ele>1643.5</ele>
        <time>2018-08-05T07:12:27Z</time>
      </trkpt>
      <trkpt lat="44.34097" lon="6.5147">
        <ele>1643.8</ele>
        <time>2018-08-05T07:12:28Z</time>
      </trkpt>
      <trkpt lat="44.34096" lon="6.51474">
        <ele>1644.1</ele>
        <time>2018-08-05T07:12:29Z</time>
      </trkpt>
      <trkpt lat="44.34095" lon="6.51478">
        <ele>1644</ele>
        <time>2018-08-05T07:12:30Z</time>
      </trkpt>
      <trkpt lat="44.34093" lon="6.51483">
        <ele>1643.7</ele>
        <time>2018-08-05T07:12:31Z</time>
      </trkpt>
      <trkpt lat="44.34091" lon="6.51488">
        <ele>1643.5</ele>
        <time>2018-08-05T07:12:33Z</time>
      </trkpt>
      <trkpt lat="44.34088" lon="6.51492">
        <ele>1643.5</ele>
        <time>2018-08-05T07:12:35Z</time>
      </trkpt>
      <trkpt lat="44.34086" lon="6.51495">
        <ele>1643.4</ele>
        <time>2018-08-05T07:12:37Z</time>
      </trkpt>
      <trkpt lat="44.34082" lon="6.51496">
        <ele>1643</ele>
        <time>2018-08-05T07:12:39Z</time>
      </trkpt>
      <trkpt lat="44.34079" lon="6.51497">
        <ele>1642.7</ele>
        <time>2018-08-05T07:12:41Z</time>
      </trkpt>
      <trkpt lat="44.34076" lon="6.51501">
        <ele>1641.8</ele>
        <time>2018-08-05T07:12:43Z</time>
      </trkpt>
      <trkpt lat="44.34073" lon="6.51503">
        <ele>1641.1</ele>
        <time>2018-08-05T07:12:44Z</time>
      </trkpt>
      <trkpt lat="44.3407" lon="6.51504">
        <ele>1640.5</ele>
        <time>2018-08-05T07:12:45Z</time>
      </trkpt>
      <trkpt lat="44.34067" lon="6.51505">
        <ele>1640.2</ele>
        <time>2018-08-05T07:12:46Z</time>
      </trkpt>
      <trkpt lat="44.34061" lon="6.51507">
        <ele>1639.4</ele>
        <time>2018-08-05T07:12:48Z</time>
      </trkpt>
      <trkpt lat="44.34058" lon="6.51509">
        <ele>1639.1</ele>
        <time>2018-08-05T07:12:49Z</time>
      </trkpt>
      <trkpt lat="44.34055" lon="6.51511">
        <ele>1638.8</ele>
        <time>2018-08-05T07:12:50Z</time>
      </trkpt>
      <trkpt lat="44.34051" lon="6.51517">
        <ele>1638.2</ele>
        <time>2018-08-05T07:12:52Z</time>
      </trkpt>
      <trkpt lat="44.34048" lon="6.51521">
        <ele>1637.7</ele>
        <time>2018-08-05T07:12:54Z</time>
      </trkpt>
      <trkpt lat="44.34045" lon="6.51525">
        <ele>1637.4</ele>
        <time>2018-08-05T07:12:56Z</time>
      </trkpt>
      <trkpt lat="44.34043" lon="6.51528">
        <ele>1637.1</ele>
        <time>2018-08-05T07:12:57Z</time>
      </trkpt>
      <trkpt lat="44.34041" lon="6.5153">
        <ele>1636.9</ele>
        <time>2018-08-05T07:12:58Z</time>
      </trkpt>
      <trkpt lat="44.34037" lon="6.51535">
        <ele>1636.5</ele>
        <time>2018-08-05T07:13:00Z</time>
      </trkpt>
      <trkpt lat="44.34035" lon="6.51536">
        <ele>1636.2</ele>
        <time>2018-08-05T07:13:01Z</time>
      </trkpt>
      <trkpt lat="44.34031" lon="6.51541">
        <ele>1635.9</ele>
        <time>2018-08-05T07:13:03Z</time>
      </trkpt>
      <trkpt lat="44.34027" lon="6.51545">
        <ele>1635.3</ele>
        <time>2018-08-05T07:13:05Z</time>
      </trkpt>
      <trkpt lat="44.34023" lon="6.51549">
        <ele>1634.7</ele>
        <time>2018-08-05T07:13:07Z</time>
      </trkpt>
      <trkpt lat="44.34019" lon="6.51553">
        <ele>1634.2</ele>
        <time>2018-08-05T07:13:09Z</time>
      </trkpt>
      <trkpt lat="44.34017" lon="6.51559">
        <ele>1634</ele>
        <time>2018-08-05T07:13:11Z</time>
      </trkpt>
      <trkpt lat="44.34016" lon="6.51565">
        <ele>1634</ele>
        <time>2018-08-05T07:13:13Z</time>
      </trkpt>
      <trkpt lat="44.34014" lon="6.51568">
        <ele>1634</ele>
        <time>2018-08-05T07:13:14Z</time>
      </trkpt>
      <trkpt lat="44.34013" lon="6.51572">
        <ele>1634.1</ele>
        <time>2018-08-05T07:13:15Z</time>
      </trkpt>
      <trkpt lat="44.34012" lon="6.51576">
        <ele>1634.2</ele>
        <time>2018-08-05T07:13:16Z</time>
      </trkpt>
      <trkpt lat="44.34009" lon="6.51579">
        <ele>1634.4</ele>
        <time>2018-08-05T07:13:17Z</time>
      </trkpt>
      <trkpt lat="44.34009" lon="6.51584">
        <ele>1634.6</ele>
        <time>2018-08-05T07:13:18Z</time>
      </trkpt>
      <trkpt lat="44.34008" lon="6.51588">
        <ele>1634.7</ele>
        <time>2018-08-05T07:13:19Z</time>
      </trkpt>
      <trkpt lat="44.34008" lon="6.51592">
        <ele>1634.9</ele>
        <time>2018-08-05T07:13:20Z</time>
      </trkpt>
      <trkpt lat="44.34007" lon="6.51595">
        <ele>1635.1</ele>
        <time>2018-08-05T07:13:21Z</time>
      </trkpt>
      <trkpt lat="44.34006" lon="6.51603">
        <ele>1635.5</ele>
        <time>2018-08-05T07:13:23Z</time>
      </trkpt>
      <trkpt lat="44.34005" lon="6.51609">
        <ele>1635.8</ele>
        <time>2018-08-05T07:13:25Z</time>
      </trkpt>
      <trkpt lat="44.34004" lon="6.51616">
        <ele>1636.2</ele>
        <time>2018-08-05T07:13:27Z</time>
      </trkpt>
      <trkpt lat="44.34007" lon="6.51614">
        <ele>1636.5</ele>
        <time>2018-08-05T07:13:31Z</time>
      </trkpt>
      <trkpt lat="44.34004" lon="6.51617">
        <ele>1636.7</ele>
        <time>2018-08-05T07:13:39Z</time>
      </trkpt>
      <trkpt lat="44.34001" lon="6.51619">
        <ele>1637</ele>
        <time>2018-08-05T07:13:42Z</time>
      </trkpt>
      <trkpt lat="44.34" lon="6.51626">
        <ele>1637.4</ele>
        <time>2018-08-05T07:14:16Z</time>
      </trkpt>
      <trkpt lat="44.33996" lon="6.5163">
        <ele>1637.7</ele>
        <time>2018-08-05T07:14:18Z</time>
      </trkpt>
      <trkpt lat="44.33993" lon="6.51636">
        <ele>1638</ele>
        <time>2018-08-05T07:14:20Z</time>
      </trkpt>
      <trkpt lat="44.3399" lon="6.51638">
        <ele>1638</ele>
        <time>2018-08-05T07:14:21Z</time>
      </trkpt>
      <trkpt lat="44.33988" lon="6.51641">
        <ele>1638.1</ele>
        <time>2018-08-05T07:14:22Z</time>
      </trkpt>
      <trkpt lat="44.33984" lon="6.51644">
        <ele>1638.2</ele>
        <time>2018-08-05T07:14:23Z</time>
      </trkpt>
      <trkpt lat="44.33981" lon="6.51647">
        <ele>1638.4</ele>
        <time>2018-08-05T07:14:24Z</time>
      </trkpt>
      <trkpt lat="44.33976" lon="6.51649">
        <ele>1638.6</ele>
        <time>2018-08-05T07:14:26Z</time>
      </trkpt>
      <trkpt lat="44.33973" lon="6.51649">
        <ele>1638.8</ele>
        <time>2018-08-05T07:14:27Z</time>
      </trkpt>
      <trkpt lat="44.33968" lon="6.51653">
        <ele>1639</ele>
        <time>2018-08-05T07:14:29Z</time>
      </trkpt>
      <trkpt lat="44.33965" lon="6.51655">
        <ele>1639.1</ele>
        <time>2018-08-05T07:14:30Z</time>
      </trkpt>
      <trkpt lat="44.33963" lon="6.51657">
        <ele>1639.3</ele>
        <time>2018-08-05T07:14:31Z</time>
      </trkpt>
      <trkpt lat="44.3396" lon="6.5166">
        <ele>1639.4</ele>
        <time>2018-08-05T07:14:33Z</time>
      </trkpt>
      <trkpt lat="44.33957" lon="6.51665">
        <ele>1639.6</ele>
        <time>2018-08-05T07:14:35Z</time>
      </trkpt>
      <trkpt lat="44.33954" lon="6.51672">
        <ele>1639.9</ele>
        <time>2018-08-05T07:14:37Z</time>
      </trkpt>
      <trkpt lat="44.33951" lon="6.51676">
        <ele>1640.2</ele>
        <time>2018-08-05T07:14:39Z</time>
      </trkpt>
      <trkpt lat="44.33948" lon="6.5168">
        <ele>1640.4</ele>
        <time>2018-08-05T07:14:42Z</time>
      </trkpt>
      <trkpt lat="44.33947" lon="6.51684">
        <ele>1640.6</ele>
        <time>2018-08-05T07:14:44Z</time>
      </trkpt>
      <trkpt lat="44.33945" lon="6.51688">
        <ele>1640.8</ele>
        <time>2018-08-05T07:14:46Z</time>
      </trkpt>
      <trkpt lat="44.33942" lon="6.51695">
        <ele>1641</ele>
        <time>2018-08-05T07:14:48Z</time>
      </trkpt>
      <trkpt lat="44.33939" lon="6.51698">
        <ele>1641.3</ele>
        <time>2018-08-05T07:14:50Z</time>
      </trkpt>
      <trkpt lat="44.33935" lon="6.51701">
        <ele>1641.5</ele>
        <time>2018-08-05T07:14:52Z</time>
      </trkpt>
      <trkpt lat="44.33932" lon="6.51702">
        <ele>1641.7</ele>
        <time>2018-08-05T07:14:54Z</time>
      </trkpt>
      <trkpt lat="44.33928" lon="6.51705">
        <ele>1641.9</ele>
        <time>2018-08-05T07:14:57Z</time>
      </trkpt>
      <trkpt lat="44.33925" lon="6.51707">
        <ele>1642</ele>
        <time>2018-08-05T07:14:59Z</time>
      </trkpt>
      <trkpt lat="44.3392" lon="6.5171">
        <ele>1642.2</ele>
        <time>2018-08-05T07:15:01Z</time>
      </trkpt>
      <trkpt lat="44.33917" lon="6.51713">
        <ele>1642.3</ele>
        <time>2018-08-05T07:15:03Z</time>
      </trkpt>
      <trkpt lat="44.33914" lon="6.51714">
        <ele>1642.4</ele>
        <time>2018-08-05T07:15:05Z</time>
      </trkpt>
      <trkpt lat="44.33915" lon="6.51718">
        <ele>1642.6</ele>
        <time>2018-08-05T07:15:08Z</time>
      </trkpt>
      <trkpt lat="44.33912" lon="6.51718">
        <ele>1642.7</ele>
        <time>2018-08-05T07:15:18Z</time>
      </trkpt>
      <trkpt lat="44.33909" lon="6.51721">
        <ele>1642.8</ele>
        <time>2018-08-05T07:15:23Z</time>
      </trkpt>
      <trkpt lat="44.33905" lon="6.51722">
        <ele>1642.9</ele>
        <time>2018-08-05T07:15:25Z</time>
      </trkpt>
      <trkpt lat="44.33901" lon="6.51722">
        <ele>1643</ele>
        <time>2018-08-05T07:15:27Z</time>
      </trkpt>
      <trkpt lat="44.33898" lon="6.51722">
        <ele>1643.1</ele>
        <time>2018-08-05T07:15:28Z</time>
      </trkpt>
      <trkpt lat="44.33895" lon="6.51723">
        <ele>1643.1</ele>
        <time>2018-08-05T07:15:29Z</time>
      </trkpt>
      <trkpt lat="44.33892" lon="6.51724">
        <ele>1643.2</ele>
        <time>2018-08-05T07:15:31Z</time>
      </trkpt>
      <trkpt lat="44.33888" lon="6.51725">
        <ele>1643.2</ele>
        <time>2018-08-05T07:15:33Z</time>
      </trkpt>
      <trkpt lat="44.33885" lon="6.51726">
        <ele>1643.3</ele>
        <time>2018-08-05T07:15:34Z</time>
      </trkpt>
      <trkpt lat="44.33882" lon="6.51726">
        <ele>1643.3</ele>
        <time>2018-08-05T07:15:37Z</time>
      </trkpt>
      <trkpt lat="44.33879" lon="6.51727">
        <ele>1643.3</ele>
        <time>2018-08-05T07:15:39Z</time>
      </trkpt>
      <trkpt lat="44.33877" lon="6.5173">
        <ele>1643.4</ele>
        <time>2018-08-05T07:15:41Z</time>
      </trkpt>
      <trkpt lat="44.33874" lon="6.51732">
        <ele>1643.5</ele>
        <time>2018-08-05T07:15:43Z</time>
      </trkpt>
      <trkpt lat="44.33872" lon="6.51736">
        <ele>1643.5</ele>
        <time>2018-08-05T07:15:45Z</time>
      </trkpt>
      <trkpt lat="44.33868" lon="6.51739">
        <ele>1643.5</ele>
        <time>2018-08-05T07:15:47Z</time>
      </trkpt>
      <trkpt lat="44.33863" lon="6.51744">
        <ele>1643.6</ele>
        <time>2018-08-05T07:15:49Z</time>
      </trkpt>
      <trkpt lat="44.33861" lon="6.51746">
        <ele>1643.7</ele>
        <time>2018-08-05T07:15:50Z</time>
      </trkpt>
      <trkpt lat="44.33857" lon="6.51747">
        <ele>1643.7</ele>
        <time>2018-08-05T07:15:51Z</time>
      </trkpt>
      <trkpt lat="44.33852" lon="6.51747">
        <ele>1643.7</ele>
        <time>2018-08-05T07:15:53Z</time>
      </trkpt>
      <trkpt lat="44.33847" lon="6.51748">
        <ele>1643.8</ele>
        <time>2018-08-05T07:15:55Z</time>
      </trkpt>
      <trkpt lat="44.33842" lon="6.51749">
        <ele>1643.8</ele>
        <time>2018-08-05T07:15:57Z</time>
      </trkpt>
      <trkpt lat="44.33839" lon="6.5175">
        <ele>1643.9</ele>
        <time>2018-08-05T07:15:58Z</time>
      </trkpt>
      <trkpt lat="44.33837" lon="6.51752">
        <ele>1644.1</ele>
        <time>2018-08-05T07:15:59Z</time>
      </trkpt>
      <trkpt lat="44.33833" lon="6.51754">
        <ele>1644.3</ele>
        <time>2018-08-05T07:16:01Z</time>
      </trkpt>
      <trkpt lat="44.33829" lon="6.51756">
        <ele>1644.2</ele>
        <time>2018-08-05T07:16:03Z</time>
      </trkpt>
      <trkpt lat="44.33824" lon="6.51758">
        <ele>1644.1</ele>
        <time>2018-08-05T07:16:05Z</time>
      </trkpt>
      <trkpt lat="44.3382" lon="6.51759">
        <ele>1644.2</ele>
        <time>2018-08-05T07:16:07Z</time>
      </trkpt>
      <trkpt lat="44.33816" lon="6.51761">
        <ele>1644.3</ele>
        <time>2018-08-05T07:16:09Z</time>
      </trkpt>
      <trkpt lat="44.33813" lon="6.51759">
        <ele>1644.4</ele>
        <time>2018-08-05T07:16:10Z</time>
      </trkpt>
      <trkpt lat="44.33809" lon="6.5176">
        <ele>1644.5</ele>
        <time>2018-08-05T07:16:12Z</time>
      </trkpt>
      <trkpt lat="44.33806" lon="6.51761">
        <ele>1644.6</ele>
        <time>2018-08-05T07:16:14Z</time>
      </trkpt>
      <trkpt lat="44.33801" lon="6.5176">
        <ele>1644.7</ele>
        <time>2018-08-05T07:16:16Z</time>
      </trkpt>
      <trkpt lat="44.33794" lon="6.51757">
        <ele>1645</ele>
        <time>2018-08-05T07:16:18Z</time>
      </trkpt>
      <trkpt lat="44.3379" lon="6.51756">
        <ele>1644.9</ele>
        <time>2018-08-05T07:16:20Z</time>
      </trkpt>
      <trkpt lat="44.33785" lon="6.51756">
        <ele>1644.9</ele>
        <time>2018-08-05T07:16:22Z</time>
      </trkpt>
      <trkpt lat="44.33782" lon="6.51755">
        <ele>1644.9</ele>
        <time>2018-08-05T07:16:23Z</time>
      </trkpt>
      <trkpt lat="44.33777" lon="6.51753">
        <ele>1644.9</ele>
        <time>2018-08-05T07:16:25Z</time>
      </trkpt>
      <trkpt lat="44.33772" lon="6.51752">
        <ele>1645</ele>
        <time>2018-08-05T07:16:27Z</time>
      </trkpt>
      <trkpt lat="44.33767" lon="6.5175">
        <ele>1645.2</ele>
        <time>2018-08-05T07:16:29Z</time>
      </trkpt>
      <trkpt lat="44.33763" lon="6.51747">
        <ele>1645.3</ele>
        <time>2018-08-05T07:16:31Z</time>
      </trkpt>
      <trkpt lat="44.33758" lon="6.51744">
        <ele>1645.4</ele>
        <time>2018-08-05T07:16:33Z</time>
      </trkpt>
      <trkpt lat="44.33755" lon="6.51741">
        <ele>1645.5</ele>
        <time>2018-08-05T07:16:35Z</time>
      </trkpt>
      <trkpt lat="44.33751" lon="6.5174">
        <ele>1645.7</ele>
        <time>2018-08-05T07:16:38Z</time>
      </trkpt>
      <trkpt lat="44.33748" lon="6.51738">
        <ele>1645.9</ele>
        <time>2018-08-05T07:16:40Z</time>
      </trkpt>
      <trkpt lat="44.33743" lon="6.51734">
        <ele>1646.3</ele>
        <time>2018-08-05T07:16:42Z</time>
      </trkpt>
      <trkpt lat="44.33741" lon="6.51736">
        <ele>1646.5</ele>
        <time>2018-08-05T07:16:44Z</time>
      </trkpt>
      <trkpt lat="44.3374" lon="6.5174">
        <ele>1646.5</ele>
        <time>2018-08-05T07:16:56Z</time>
      </trkpt>
      <trkpt lat="44.33736" lon="6.51738">
        <ele>1646.6</ele>
        <time>2018-08-05T07:17:05Z</time>
      </trkpt>
      <trkpt lat="44.33732" lon="6.51738">
        <ele>1646.8</ele>
        <time>2018-08-05T07:17:10Z</time>
      </trkpt>
      <trkpt lat="44.33728" lon="6.51738">
        <ele>1647.1</ele>
        <time>2018-08-05T07:17:17Z</time>
      </trkpt>
      <trkpt lat="44.33725" lon="6.51738">
        <ele>1647.5</ele>
        <time>2018-08-05T07:17:19Z</time>
      </trkpt>
      <trkpt lat="44.33721" lon="6.51739">
        <ele>1647.7</ele>
        <time>2018-08-05T07:17:21Z</time>
      </trkpt>
      <trkpt lat="44.33717" lon="6.51739">
        <ele>1648</ele>
        <time>2018-08-05T07:17:23Z</time>
      </trkpt>
      <trkpt lat="44.33713" lon="6.51739">
        <ele>1648.2</ele>
        <time>2018-08-05T07:17:25Z</time>
      </trkpt>
      <trkpt lat="44.33709" lon="6.5174">
        <ele>1648.5</ele>
        <time>2018-08-05T07:17:27Z</time>
      </trkpt>
      <trkpt lat="44.33705" lon="6.51742">
        <ele>1648.9</ele>
        <time>2018-08-05T07:17:29Z</time>
      </trkpt>
      <trkpt lat="44.337" lon="6.51744">
        <ele>1649.4</ele>
        <time>2018-08-05T07:17:31Z</time>
      </trkpt>
      <trkpt lat="44.33697" lon="6.51742">
        <ele>1649.8</ele>
        <time>2018-08-05T07:17:33Z</time>
      </trkpt>
      <trkpt lat="44.33692" lon="6.51741">
        <ele>1650.2</ele>
        <time>2018-08-05T07:17:35Z</time>
      </trkpt>
      <trkpt lat="44.33688" lon="6.51741">
        <ele>1650.6</ele>
        <time>2018-08-05T07:17:37Z</time>
      </trkpt>
      <trkpt lat="44.33683" lon="6.51739">
        <ele>1651.2</ele>
        <time>2018-08-05T07:17:39Z</time>
      </trkpt>
      <trkpt lat="44.33678" lon="6.51738">
        <ele>1651.6</ele>
        <time>2018-08-05T07:17:41Z</time>
      </trkpt>
      <trkpt lat="44.33675" lon="6.51738">
        <ele>1651.9</ele>
        <time>2018-08-05T07:17:42Z</time>
      </trkpt>
      <trkpt lat="44.3367" lon="6.51739">
        <ele>1652.2</ele>
        <time>2018-08-05T07:17:44Z</time>
      </trkpt>
      <trkpt lat="44.33666" lon="6.51741">
        <ele>1652.4</ele>
        <time>2018-08-05T07:17:46Z</time>
      </trkpt>
      <trkpt lat="44.33662" lon="6.51744">
        <ele>1652.7</ele>
        <time>2018-08-05T07:17:48Z</time>
      </trkpt>
      <trkpt lat="44.33658" lon="6.51745">
        <ele>1652.9</ele>
        <time>2018-08-05T07:17:50Z</time>
      </trkpt>
      <trkpt lat="44.33653" lon="6.51747">
        <ele>1652.9</ele>
        <time>2018-08-05T07:17:52Z</time>
      </trkpt>
      <trkpt lat="44.33649" lon="6.51749">
        <ele>1652.8</ele>
        <time>2018-08-05T07:17:54Z</time>
      </trkpt>
      <trkpt lat="44.33646" lon="6.5175">
        <ele>1652.9</ele>
        <time>2018-08-05T07:17:56Z</time>
      </trkpt>
      <trkpt lat="44.33642" lon="6.51752">
        <ele>1653</ele>
        <time>2018-08-05T07:17:58Z</time>
      </trkpt>
      <trkpt lat="44.33639" lon="6.51752">
        <ele>1653.1</ele>
        <time>2018-08-05T07:18:00Z</time>
      </trkpt>
      <trkpt lat="44.33635" lon="6.51752">
        <ele>1653.1</ele>
        <time>2018-08-05T07:18:03Z</time>
      </trkpt>
      <trkpt lat="44.33632" lon="6.51755">
        <ele>1653</ele>
        <time>2018-08-05T07:18:06Z</time>
      </trkpt>
      <trkpt lat="44.3363" lon="6.51759">
        <ele>1653.2</ele>
        <time>2018-08-05T07:18:08Z</time>
      </trkpt>
      <trkpt lat="44.33627" lon="6.5176">
        <ele>1653.4</ele>
        <time>2018-08-05T07:18:10Z</time>
      </trkpt>
      <trkpt lat="44.33624" lon="6.51763">
        <ele>1653.5</ele>
        <time>2018-08-05T07:18:42Z</time>
      </trkpt>
      <trkpt lat="44.33621" lon="6.51763">
        <ele>1653.6</ele>
        <time>2018-08-05T07:18:49Z</time>
      </trkpt>
      <trkpt lat="44.33617" lon="6.51766">
        <ele>1653.7</ele>
        <time>2018-08-05T07:18:55Z</time>
      </trkpt>
      <trkpt lat="44.33613" lon="6.51768">
        <ele>1653.8</ele>
        <time>2018-08-05T07:18:58Z</time>
      </trkpt>
      <trkpt lat="44.3361" lon="6.51771">
        <ele>1653.9</ele>
        <time>2018-08-05T07:19:00Z</time>
      </trkpt>
      <trkpt lat="44.33607" lon="6.51775">
        <ele>1654.1</ele>
        <time>2018-08-05T07:19:03Z</time>
      </trkpt>
      <trkpt lat="44.33606" lon="6.51779">
        <ele>1654.2</ele>
        <time>2018-08-05T07:19:05Z</time>
      </trkpt>
      <trkpt lat="44.33603" lon="6.51781">
        <ele>1654.3</ele>
        <time>2018-08-05T07:19:07Z</time>
      </trkpt>
      <trkpt lat="44.336" lon="6.51784">
        <ele>1654.5</ele>
        <time>2018-08-05T07:19:10Z</time>
      </trkpt>
      <trkpt lat="44.33597" lon="6.51787">
        <ele>1654.6</ele>
        <time>2018-08-05T07:19:12Z</time>
      </trkpt>
      <trkpt lat="44.33594" lon="6.51791">
        <ele>1654.8</ele>
        <time>2018-08-05T07:19:14Z</time>
      </trkpt>
      <trkpt lat="44.33591" lon="6.51794">
        <ele>1654.9</ele>
        <time>2018-08-05T07:19:16Z</time>
      </trkpt>
      <trkpt lat="44.33589" lon="6.51796">
        <ele>1655</ele>
        <time>2018-08-05T07:19:18Z</time>
      </trkpt>
      <trkpt lat="44.33587" lon="6.51799">
        <ele>1655.2</ele>
        <time>2018-08-05T07:19:20Z</time>
      </trkpt>
      <trkpt lat="44.33584" lon="6.51803">
        <ele>1655.5</ele>
        <time>2018-08-05T07:19:23Z</time>
      </trkpt>
      <trkpt lat="44.33582" lon="6.51807">
        <ele>1655.7</ele>
        <time>2018-08-05T07:19:25Z</time>
      </trkpt>
      <trkpt lat="44.3358" lon="6.5181">
        <ele>1655.8</ele>
        <time>2018-08-05T07:19:27Z</time>
      </trkpt>
      <trkpt lat="44.33573" lon="6.51821">
        <ele>1656.1</ele>
        <time>2018-08-05T07:21:22Z</time>
      </trkpt>
      <trkpt lat="44.3357" lon="6.51822">
        <ele>1656.2</ele>
        <time>2018-08-05T07:21:25Z</time>
      </trkpt>
      <trkpt lat="44.33568" lon="6.51826">
        <ele>1656.4</ele>
        <time>2018-08-05T07:21:28Z</time>
      </trkpt>
      <trkpt lat="44.33566" lon="6.51829">
        <ele>1656.7</ele>
        <time>2018-08-05T07:21:31Z</time>
      </trkpt>
      <trkpt lat="44.33563" lon="6.51831">
        <ele>1657</ele>
        <time>2018-08-05T07:21:34Z</time>
      </trkpt>
      <trkpt lat="44.3356" lon="6.51834">
        <ele>1657.2</ele>
        <time>2018-08-05T07:21:37Z</time>
      </trkpt>
      <trkpt lat="44.33558" lon="6.51837">
        <ele>1657.4</ele>
        <time>2018-08-05T07:21:39Z</time>
      </trkpt>
      <trkpt lat="44.33555" lon="6.51839">
        <ele>1657.6</ele>
        <time>2018-08-05T07:21:42Z</time>
      </trkpt>
      <trkpt lat="44.33551" lon="6.51839">
        <ele>1658</ele>
        <time>2018-08-05T07:21:44Z</time>
      </trkpt>
      <trkpt lat="44.33549" lon="6.51841">
        <ele>1658.2</ele>
        <time>2018-08-05T07:21:46Z</time>
      </trkpt>
      <trkpt lat="44.33546" lon="6.51842">
        <ele>1658.6</ele>
        <time>2018-08-05T07:21:48Z</time>
      </trkpt>
      <trkpt lat="44.33545" lon="6.51847">
        <ele>1659</ele>
        <time>2018-08-05T07:21:51Z</time>
      </trkpt>
      <trkpt lat="44.33542" lon="6.51849">
        <ele>1659.3</ele>
        <time>2018-08-05T07:21:53Z</time>
      </trkpt>
      <trkpt lat="44.33539" lon="6.51852">
        <ele>1659.5</ele>
        <time>2018-08-05T07:21:56Z</time>
      </trkpt>
      <trkpt lat="44.33535" lon="6.51852">
        <ele>1659.7</ele>
        <time>2018-08-05T07:22:01Z</time>
      </trkpt>
      <trkpt lat="44.33532" lon="6.51854">
        <ele>1660</ele>
        <time>2018-08-05T07:22:08Z</time>
      </trkpt>
      <trkpt lat="44.3353" lon="6.51857">
        <ele>1660.2</ele>
        <time>2018-08-05T07:22:11Z</time>
      </trkpt>
      <trkpt lat="44.33529" lon="6.51862">
        <ele>1660.6</ele>
        <time>2018-08-05T07:22:17Z</time>
      </trkpt>
      <trkpt lat="44.33527" lon="6.51865">
        <ele>1660.9</ele>
        <time>2018-08-05T07:22:20Z</time>
      </trkpt>
      <trkpt lat="44.33523" lon="6.51867">
        <ele>1661.4</ele>
        <time>2018-08-05T07:22:23Z</time>
      </trkpt>
      <trkpt lat="44.33521" lon="6.5187">
        <ele>1661.7</ele>
        <time>2018-08-05T07:22:27Z</time>
      </trkpt>
      <trkpt lat="44.33518" lon="6.51871">
        <ele>1662</ele>
        <time>2018-08-05T07:22:30Z</time>
      </trkpt>
      <trkpt lat="44.33516" lon="6.51874">
        <ele>1662.5</ele>
        <time>2018-08-05T07:22:32Z</time>
      </trkpt>
      <trkpt lat="44.33514" lon="6.51879">
        <ele>1662.9</ele>
        <time>2018-08-05T07:22:35Z</time>
      </trkpt>
      <trkpt lat="44.3351" lon="6.5188">
        <ele>1663.2</ele>
        <time>2018-08-05T07:22:38Z</time>
      </trkpt>
      <trkpt lat="44.33509" lon="6.51885">
        <ele>1663.5</ele>
        <time>2018-08-05T07:22:41Z</time>
      </trkpt>
      <trkpt lat="44.33507" lon="6.5189">
        <ele>1664</ele>
        <time>2018-08-05T07:22:45Z</time>
      </trkpt>
      <trkpt lat="44.33503" lon="6.51891">
        <ele>1664.5</ele>
        <time>2018-08-05T07:22:47Z</time>
      </trkpt>
      <trkpt lat="44.33501" lon="6.51893">
        <ele>1664.9</ele>
        <time>2018-08-05T07:22:51Z</time>
      </trkpt>
      <trkpt lat="44.33499" lon="6.51898">
        <ele>1665.3</ele>
        <time>2018-08-05T07:22:55Z</time>
      </trkpt>
      <trkpt lat="44.33496" lon="6.519">
        <ele>1665.7</ele>
        <time>2018-08-05T07:22:58Z</time>
      </trkpt>
      <trkpt lat="44.33494" lon="6.51902">
        <ele>1666</ele>
        <time>2018-08-05T07:23:02Z</time>
      </trkpt>
      <trkpt lat="44.33491" lon="6.51902">
        <ele>1666.4</ele>
        <time>2018-08-05T07:23:06Z</time>
      </trkpt>
      <trkpt lat="44.33489" lon="6.51905">
        <ele>1666.7</ele>
        <time>2018-08-05T07:23:08Z</time>
      </trkpt>
      <trkpt lat="44.33486" lon="6.51908">
        <ele>1667.1</ele>
        <time>2018-08-05T07:23:11Z</time>
      </trkpt>
      <trkpt lat="44.33483" lon="6.5191">
        <ele>1667.5</ele>
        <time>2018-08-05T07:23:13Z</time>
      </trkpt>
      <trkpt lat="44.3348" lon="6.51912">
        <ele>1667.9</ele>
        <time>2018-08-05T07:23:17Z</time>
      </trkpt>
      <trkpt lat="44.33477" lon="6.51914">
        <ele>1668.2</ele>
        <time>2018-08-05T07:23:20Z</time>
      </trkpt>
      <trkpt lat="44.33475" lon="6.51918">
        <ele>1668.5</ele>
        <time>2018-08-05T07:23:23Z</time>
      </trkpt>
      <trkpt lat="44.3347" lon="6.51919">
        <ele>1668.8</ele>
        <time>2018-08-05T07:23:26Z</time>
      </trkpt>
      <trkpt lat="44.33468" lon="6.51921">
        <ele>1669.2</ele>
        <time>2018-08-05T07:23:29Z</time>
      </trkpt>
      <trkpt lat="44.33465" lon="6.51923">
        <ele>1669.6</ele>
        <time>2018-08-05T07:23:31Z</time>
      </trkpt>
      <trkpt lat="44.33463" lon="6.51926">
        <ele>1670</ele>
        <time>2018-08-05T07:23:35Z</time>
      </trkpt>
      <trkpt lat="44.3346" lon="6.51928">
        <ele>1670.4</ele>
        <time>2018-08-05T07:23:39Z</time>
      </trkpt>
      <trkpt lat="44.33458" lon="6.51931">
        <ele>1670.9</ele>
        <time>2018-08-05T07:23:45Z</time>
      </trkpt>
      <trkpt lat="44.33456" lon="6.51933">
        <ele>1671.3</ele>
        <time>2018-08-05T07:23:48Z</time>
      </trkpt>
      <trkpt lat="44.33455" lon="6.51937">
        <ele>1671.7</ele>
        <time>2018-08-05T07:23:51Z</time>
      </trkpt>
      <trkpt lat="44.33454" lon="6.51942">
        <ele>1672.2</ele>
        <time>2018-08-05T07:23:56Z</time>
      </trkpt>
      <trkpt lat="44.33451" lon="6.51944">
        <ele>1672.7</ele>
        <time>2018-08-05T07:23:58Z</time>
      </trkpt>
      <trkpt lat="44.33448" lon="6.51943">
        <ele>1673.1</ele>
        <time>2018-08-05T07:24:04Z</time>
      </trkpt>
      <trkpt lat="44.33447" lon="6.51948">
        <ele>1673.6</ele>
        <time>2018-08-05T07:24:11Z</time>
      </trkpt>
      <trkpt lat="44.33444" lon="6.51951">
        <ele>1674.1</ele>
        <time>2018-08-05T07:24:13Z</time>
      </trkpt>
      <trkpt lat="44.33443" lon="6.51955">
        <ele>1674.5</ele>
        <time>2018-08-05T07:24:15Z</time>
      </trkpt>
      <trkpt lat="44.33441" lon="6.5196">
        <ele>1675</ele>
        <time>2018-08-05T07:24:17Z</time>
      </trkpt>
      <trkpt lat="44.33438" lon="6.51963">
        <ele>1675.4</ele>
        <time>2018-08-05T07:24:19Z</time>
      </trkpt>
      <trkpt lat="44.33436" lon="6.51966">
        <ele>1675.8</ele>
        <time>2018-08-05T07:24:22Z</time>
      </trkpt>
      <trkpt lat="44.33434" lon="6.51969">
        <ele>1676.2</ele>
        <time>2018-08-05T07:24:24Z</time>
      </trkpt>
      <trkpt lat="44.33431" lon="6.51969">
        <ele>1676.5</ele>
        <time>2018-08-05T07:24:27Z</time>
      </trkpt>
      <trkpt lat="44.33428" lon="6.51968">
        <ele>1676.9</ele>
        <time>2018-08-05T07:24:29Z</time>
      </trkpt>
      <trkpt lat="44.33424" lon="6.5197">
        <ele>1677.4</ele>
        <time>2018-08-05T07:24:32Z</time>
      </trkpt>
      <trkpt lat="44.3342" lon="6.51973">
        <ele>1677.9</ele>
        <time>2018-08-05T07:24:35Z</time>
      </trkpt>
      <trkpt lat="44.33417" lon="6.51974">
        <ele>1678.4</ele>
        <time>2018-08-05T07:24:37Z</time>
      </trkpt>
      <trkpt lat="44.33414" lon="6.51976">
        <ele>1678.8</ele>
        <time>2018-08-05T07:24:40Z</time>
      </trkpt>
      <trkpt lat="44.3341" lon="6.51978">
        <ele>1679.4</ele>
        <time>2018-08-05T07:24:43Z</time>
      </trkpt>
      <trkpt lat="44.33406" lon="6.51978">
        <ele>1679.8</ele>
        <time>2018-08-05T07:24:45Z</time>
      </trkpt>
      <trkpt lat="44.33403" lon="6.5198">
        <ele>1680.2</ele>
        <time>2018-08-05T07:24:48Z</time>
      </trkpt>
      <trkpt lat="44.33399" lon="6.5198">
        <ele>1680.7</ele>
        <time>2018-08-05T07:24:50Z</time>
      </trkpt>
      <trkpt lat="44.33395" lon="6.51978">
        <ele>1681.1</ele>
        <time>2018-08-05T07:24:52Z</time>
      </trkpt>
      <trkpt lat="44.33391" lon="6.51976">
        <ele>1681.7</ele>
        <time>2018-08-05T07:24:55Z</time>
      </trkpt>
      <trkpt lat="44.33388" lon="6.51976">
        <ele>1682.1</ele>
        <time>2018-08-05T07:24:58Z</time>
      </trkpt>
      <trkpt lat="44.33385" lon="6.51978">
        <ele>1682.5</ele>
        <time>2018-08-05T07:25:01Z</time>
      </trkpt>
      <trkpt lat="44.33385" lon="6.51982">
        <ele>1683</ele>
        <time>2018-08-05T07:25:10Z</time>
      </trkpt>
      <trkpt lat="44.33382" lon="6.51983">
        <ele>1683.4</ele>
        <time>2018-08-05T07:25:20Z</time>
      </trkpt>
      <trkpt lat="44.33379" lon="6.51985">
        <ele>1683.8</ele>
        <time>2018-08-05T07:25:22Z</time>
      </trkpt>
      <trkpt lat="44.33376" lon="6.51985">
        <ele>1684.1</ele>
        <time>2018-08-05T07:25:25Z</time>
      </trkpt>
      <trkpt lat="44.33373" lon="6.51988">
        <ele>1684.4</ele>
        <time>2018-08-05T07:25:53Z</time>
      </trkpt>
      <trkpt lat="44.33372" lon="6.51991">
        <ele>1684.7</ele>
        <time>2018-08-05T07:26:00Z</time>
      </trkpt>
      <trkpt lat="44.33372" lon="6.51995">
        <ele>1685</ele>
        <time>2018-08-05T07:26:20Z</time>
      </trkpt>
      <trkpt lat="44.3337" lon="6.51989">
        <ele>1685.4</ele>
        <time>2018-08-05T07:27:15Z</time>
      </trkpt>
      <trkpt lat="44.33368" lon="6.51991">
        <ele>1685.7</ele>
        <time>2018-08-05T07:27:20Z</time>
      </trkpt>
      <trkpt lat="44.33371" lon="6.51989">
        <ele>1686</ele>
        <time>2018-08-05T07:27:43Z</time>
      </trkpt>
      <trkpt lat="44.33369" lon="6.51985">
        <ele>1686.2</ele>
        <time>2018-08-05T07:27:49Z</time>
      </trkpt>
      <trkpt lat="44.33368" lon="6.51981">
        <ele>1686.4</ele>
        <time>2018-08-05T07:27:51Z</time>
      </trkpt>
      <trkpt lat="44.33366" lon="6.51977">
        <ele>1686.6</ele>
        <time>2018-08-05T07:27:54Z</time>
      </trkpt>
      <trkpt lat="44.33363" lon="6.51978">
        <ele>1686.8</ele>
        <time>2018-08-05T07:28:02Z</time>
      </trkpt>
      <trkpt lat="44.33366" lon="6.5198">
        <ele>1687.1</ele>
        <time>2018-08-05T07:28:05Z</time>
      </trkpt>
      <trkpt lat="44.33364" lon="6.51984">
        <ele>1687.4</ele>
        <time>2018-08-05T07:28:12Z</time>
      </trkpt>
      <trkpt lat="44.33366" lon="6.51988">
        <ele>1687.9</ele>
        <time>2018-08-05T07:28:18Z</time>
      </trkpt>
      <trkpt lat="44.33366" lon="6.51983">
        <ele>1688.3</ele>
        <time>2018-08-05T07:28:38Z</time>
      </trkpt>
      <trkpt lat="44.33364" lon="6.51979">
        <ele>1688.7</ele>
        <time>2018-08-05T07:28:41Z</time>
      </trkpt>
      <trkpt lat="44.33362" lon="6.51977">
        <ele>1688.9</ele>
        <time>2018-08-05T07:28:53Z</time>
      </trkpt>
      <trkpt lat="44.33362" lon="6.51981">
        <ele>1689.2</ele>
        <time>2018-08-05T07:29:00Z</time>
      </trkpt>
      <trkpt lat="44.33363" lon="6.51987">
        <ele>1689.3</ele>
        <time>2018-08-05T07:29:04Z</time>
      </trkpt>
      <trkpt lat="44.33362" lon="6.5199">
        <ele>1689</ele>
        <time>2018-08-05T07:29:11Z</time>
      </trkpt>
      <trkpt lat="44.33361" lon="6.51994">
        <ele>1689</ele>
        <time>2018-08-05T07:29:24Z</time>
      </trkpt>
      <trkpt lat="44.33361" lon="6.51999">
        <ele>1689</ele>
        <time>2018-08-05T07:29:28Z</time>
      </trkpt>
      <trkpt lat="44.33361" lon="6.52004">
        <ele>1689</ele>
        <time>2018-08-05T07:29:32Z</time>
      </trkpt>
      <trkpt lat="44.33362" lon="6.5201">
        <ele>1688.9</ele>
        <time>2018-08-05T07:29:34Z</time>
      </trkpt>
      <trkpt lat="44.33359" lon="6.52009">
        <ele>1688.7</ele>
        <time>2018-08-05T07:29:38Z</time>
      </trkpt>
      <trkpt lat="44.3336" lon="6.52004">
        <ele>1688.5</ele>
        <time>2018-08-05T07:29:52Z</time>
      </trkpt>
      <trkpt lat="44.33361" lon="6.52001">
        <ele>1688.5</ele>
        <time>2018-08-05T07:29:56Z</time>
      </trkpt>
      <trkpt lat="44.33363" lon="6.51999">
        <ele>1688.7</ele>
        <time>2018-08-05T07:30:02Z</time>
      </trkpt>
      <trkpt lat="44.33361" lon="6.51996">
        <ele>1688.8</ele>
        <time>2018-08-05T07:30:07Z</time>
      </trkpt>
      <trkpt lat="44.3336" lon="6.51993">
        <ele>1688.9</ele>
        <time>2018-08-05T07:30:14Z</time>
      </trkpt>
      <trkpt lat="44.33362" lon="6.5199">
        <ele>1689</ele>
        <time>2018-08-05T07:30:21Z</time>
      </trkpt>
      <trkpt lat="44.33361" lon="6.51986">
        <ele>1689.1</ele>
        <time>2018-08-05T07:30:23Z</time>
      </trkpt>
      <trkpt lat="44.33362" lon="6.51982">
        <ele>1689.3</ele>
        <time>2018-08-05T07:30:27Z</time>
      </trkpt>
      <trkpt lat="44.3336" lon="6.51979">
        <ele>1689.5</ele>
        <time>2018-08-05T07:30:30Z</time>
      </trkpt>
      <trkpt lat="44.33363" lon="6.51977">
        <ele>1689.5</ele>
        <time>2018-08-05T07:30:33Z</time>
      </trkpt>
      <trkpt lat="44.33364" lon="6.51974">
        <ele>1689.5</ele>
        <time>2018-08-05T07:30:37Z</time>
      </trkpt>
      <trkpt lat="44.33366" lon="6.51971">
        <ele>1689.5</ele>
        <time>2018-08-05T07:30:40Z</time>
      </trkpt>
      <trkpt lat="44.33363" lon="6.51967">
        <ele>1689.7</ele>
        <time>2018-08-05T07:30:46Z</time>
      </trkpt>
      <trkpt lat="44.33361" lon="6.51963">
        <ele>1689.8</ele>
        <time>2018-08-05T07:30:49Z</time>
      </trkpt>
      <trkpt lat="44.33358" lon="6.51961">
        <ele>1689.8</ele>
        <time>2018-08-05T07:30:52Z</time>
      </trkpt>
      <trkpt lat="44.33355" lon="6.5196">
        <ele>1689.9</ele>
        <time>2018-08-05T07:30:54Z</time>
      </trkpt>
      <trkpt lat="44.33352" lon="6.5196">
        <ele>1689.9</ele>
        <time>2018-08-05T07:30:56Z</time>
      </trkpt>
      <trkpt lat="44.33349" lon="6.51957">
        <ele>1690</ele>
        <time>2018-08-05T07:30:58Z</time>
      </trkpt>
      <trkpt lat="44.33346" lon="6.51956">
        <ele>1690</ele>
        <time>2018-08-05T07:31:00Z</time>
      </trkpt>
      <trkpt lat="44.33342" lon="6.51956">
        <ele>1690.1</ele>
        <time>2018-08-05T07:31:02Z</time>
      </trkpt>
      <trkpt lat="44.33339" lon="6.51955">
        <ele>1690.1</ele>
        <time>2018-08-05T07:31:04Z</time>
      </trkpt>
      <trkpt lat="44.33334" lon="6.51954">
        <ele>1690.2</ele>
        <time>2018-08-05T07:31:06Z</time>
      </trkpt>
      <trkpt lat="44.3333" lon="6.51952">
        <ele>1690.4</ele>
        <time>2018-08-05T07:31:08Z</time>
      </trkpt>
      <trkpt lat="44.33327" lon="6.5195">
        <ele>1690.4</ele>
        <time>2018-08-05T07:31:09Z</time>
      </trkpt>
      <trkpt lat="44.33322" lon="6.51948">
        <ele>1690.3</ele>
        <time>2018-08-05T07:31:11Z</time>
      </trkpt>
      <trkpt lat="44.33318" lon="6.51946">
        <ele>1690.3</ele>
        <time>2018-08-05T07:31:13Z</time>
      </trkpt>
      <trkpt lat="44.33315" lon="6.51945">
        <ele>1690.3</ele>
        <time>2018-08-05T07:31:14Z</time>
      </trkpt>
      <trkpt lat="44.33311" lon="6.51945">
        <ele>1690.4</ele>
        <time>2018-08-05T07:31:15Z</time>
      </trkpt>
      <trkpt lat="44.33309" lon="6.51944">
        <ele>1690.4</ele>
        <time>2018-08-05T07:31:16Z</time>
      </trkpt>
      <trkpt lat="44.33305" lon="6.51942">
        <ele>1690.4</ele>
        <time>2018-08-05T07:31:17Z</time>
      </trkpt>
      <trkpt lat="44.33302" lon="6.51941">
        <ele>1690.2</ele>
        <time>2018-08-05T07:31:18Z</time>
      </trkpt>
      <trkpt lat="44.33297" lon="6.51939">
        <ele>1689.7</ele>
        <time>2018-08-05T07:31:20Z</time>
      </trkpt>
      <trkpt lat="44.33293" lon="6.51938">
        <ele>1689.5</ele>
        <time>2018-08-05T07:31:21Z</time>
      </trkpt>
      <trkpt lat="44.33288" lon="6.51937">
        <ele>1689.2</ele>
        <time>2018-08-05T07:31:23Z</time>
      </trkpt>
      <trkpt lat="44.33284" lon="6.51937">
        <ele>1689</ele>
        <time>2018-08-05T07:31:24Z</time>
      </trkpt>
      <trkpt lat="44.33279" lon="6.51936">
        <ele>1688.6</ele>
        <time>2018-08-05T07:31:26Z</time>
      </trkpt>
      <trkpt lat="44.33275" lon="6.51935">
        <ele>1688.2</ele>
        <time>2018-08-05T07:31:27Z</time>
      </trkpt>
      <trkpt lat="44.33272" lon="6.51932">
        <ele>1687.9</ele>
        <time>2018-08-05T07:31:29Z</time>
      </trkpt>
      <trkpt lat="44.33269" lon="6.5193">
        <ele>1687.5</ele>
        <time>2018-08-05T07:31:31Z</time>
      </trkpt>
      <trkpt lat="44.33266" lon="6.51928">
        <ele>1687.1</ele>
        <time>2018-08-05T07:31:32Z</time>
      </trkpt>
      <trkpt lat="44.3326" lon="6.51924">
        <ele>1687.1</ele>
        <time>2018-08-05T07:31:34Z</time>
      </trkpt>
      <trkpt lat="44.33255" lon="6.51921">
        <ele>1687.3</ele>
        <time>2018-08-05T07:31:35Z</time>
      </trkpt>
      <trkpt lat="44.33252" lon="6.51919">
        <ele>1687.4</ele>
        <time>2018-08-05T07:31:36Z</time>
      </trkpt>
      <trkpt lat="44.33248" lon="6.51917">
        <ele>1687.4</ele>
        <time>2018-08-05T07:31:37Z</time>
      </trkpt>
      <trkpt lat="44.33243" lon="6.51914">
        <ele>1687.3</ele>
        <time>2018-08-05T07:31:38Z</time>
      </trkpt>
      <trkpt lat="44.3324" lon="6.51911">
        <ele>1687.3</ele>
        <time>2018-08-05T07:31:39Z</time>
      </trkpt>
      <trkpt lat="44.33235" lon="6.5191">
        <ele>1687.4</ele>
        <time>2018-08-05T07:31:41Z</time>
      </trkpt>
      <trkpt lat="44.33233" lon="6.51911">
        <ele>1687.3</ele>
        <time>2018-08-05T07:31:42Z</time>
      </trkpt>
      <trkpt lat="44.33229" lon="6.5191">
        <ele>1687.1</ele>
        <time>2018-08-05T07:31:43Z</time>
      </trkpt>
      <trkpt lat="44.33225" lon="6.51912">
        <ele>1687</ele>
        <time>2018-08-05T07:31:45Z</time>
      </trkpt>
      <trkpt lat="44.33222" lon="6.51909">
        <ele>1686.9</ele>
        <time>2018-08-05T07:31:46Z</time>
      </trkpt>
      <trkpt lat="44.33219" lon="6.51907">
        <ele>1686.9</ele>
        <time>2018-08-05T07:31:47Z</time>
      </trkpt>
      <trkpt lat="44.33219" lon="6.51912">
        <ele>1686.9</ele>
        <time>2018-08-05T07:31:48Z</time>
      </trkpt>
      <trkpt lat="44.33216" lon="6.51914">
        <ele>1686.9</ele>
        <time>2018-08-05T07:31:49Z</time>
      </trkpt>
      <trkpt lat="44.33211" lon="6.51918">
        <ele>1686.8</ele>
        <time>2018-08-05T07:31:51Z</time>
      </trkpt>
      <trkpt lat="44.33207" lon="6.51922">
        <ele>1686.5</ele>
        <time>2018-08-05T07:31:53Z</time>
      </trkpt>
      <trkpt lat="44.33205" lon="6.51925">
        <ele>1686.4</ele>
        <time>2018-08-05T07:31:54Z</time>
      </trkpt>
      <trkpt lat="44.332" lon="6.51927">
        <ele>1686.1</ele>
        <time>2018-08-05T07:31:56Z</time>
      </trkpt>
      <trkpt lat="44.33198" lon="6.51928">
        <ele>1685.8</ele>
        <time>2018-08-05T07:31:57Z</time>
      </trkpt>
      <trkpt lat="44.33195" lon="6.51929">
        <ele>1685.5</ele>
        <time>2018-08-05T07:31:58Z</time>
      </trkpt>
      <trkpt lat="44.3319" lon="6.51931">
        <ele>1685</ele>
        <time>2018-08-05T07:32:00Z</time>
      </trkpt>
      <trkpt lat="44.33186" lon="6.51935">
        <ele>1684.4</ele>
        <time>2018-08-05T07:32:02Z</time>
      </trkpt>
      <trkpt lat="44.33182" lon="6.51936">
        <ele>1684.3</ele>
        <time>2018-08-05T07:32:03Z</time>
      </trkpt>
      <trkpt lat="44.33177" lon="6.51938">
        <ele>1684.2</ele>
        <time>2018-08-05T07:32:04Z</time>
      </trkpt>
      <trkpt lat="44.33172" lon="6.51939">
        <ele>1683.6</ele>
        <time>2018-08-05T07:32:05Z</time>
      </trkpt>
      <trkpt lat="44.33167" lon="6.5194">
        <ele>1683.2</ele>
        <time>2018-08-05T07:32:06Z</time>
      </trkpt>
      <trkpt lat="44.33162" lon="6.51941">
        <ele>1683</ele>
        <time>2018-08-05T07:32:07Z</time>
      </trkpt>
      <trkpt lat="44.33159" lon="6.51943">
        <ele>1683.1</ele>
        <time>2018-08-05T07:32:08Z</time>
      </trkpt>
      <trkpt lat="44.33154" lon="6.51943">
        <ele>1683</ele>
        <time>2018-08-05T07:32:10Z</time>
      </trkpt>
      <trkpt lat="44.3315" lon="6.51941">
        <ele>1683</ele>
        <time>2018-08-05T07:32:11Z</time>
      </trkpt>
      <trkpt lat="44.33146" lon="6.51939">
        <ele>1683.2</ele>
        <time>2018-08-05T07:32:12Z</time>
      </trkpt>
      <trkpt lat="44.33142" lon="6.51939">
        <ele>1683.5</ele>
        <time>2018-08-05T07:32:13Z</time>
      </trkpt>
      <trkpt lat="44.33139" lon="6.5194">
        <ele>1683.7</ele>
        <time>2018-08-05T07:32:14Z</time>
      </trkpt>
      <trkpt lat="44.33135" lon="6.51942">
        <ele>1683.9</ele>
        <time>2018-08-05T07:32:15Z</time>
      </trkpt>
      <trkpt lat="44.3313" lon="6.51942">
        <ele>1684.1</ele>
        <time>2018-08-05T07:32:16Z</time>
      </trkpt>
      <trkpt lat="44.33127" lon="6.51943">
        <ele>1684.1</ele>
        <time>2018-08-05T07:32:17Z</time>
      </trkpt>
      <trkpt lat="44.33125" lon="6.51945">
        <ele>1684.1</ele>
        <time>2018-08-05T07:32:18Z</time>
      </trkpt>
      <trkpt lat="44.33121" lon="6.51947">
        <ele>1684.1</ele>
        <time>2018-08-05T07:32:19Z</time>
      </trkpt>
      <trkpt lat="44.33119" lon="6.51948">
        <ele>1684.1</ele>
        <time>2018-08-05T07:32:20Z</time>
      </trkpt>
      <trkpt lat="44.33114" lon="6.51951">
        <ele>1684.2</ele>
        <time>2018-08-05T07:32:22Z</time>
      </trkpt>
      <trkpt lat="44.33111" lon="6.51954">
        <ele>1684.3</ele>
        <time>2018-08-05T07:32:23Z</time>
      </trkpt>
      <trkpt lat="44.33108" lon="6.51958">
        <ele>1684.4</ele>
        <time>2018-08-05T07:32:24Z</time>
      </trkpt>
      <trkpt lat="44.33105" lon="6.51961">
        <ele>1684.5</ele>
        <time>2018-08-05T07:32:25Z</time>
      </trkpt>
      <trkpt lat="44.33101" lon="6.51964">
        <ele>1684.6</ele>
        <time>2018-08-05T07:32:26Z</time>
      </trkpt>
      <trkpt lat="44.33097" lon="6.51967">
        <ele>1684.7</ele>
        <time>2018-08-05T07:32:27Z</time>
      </trkpt>
      <trkpt lat="44.33094" lon="6.51969">
        <ele>1684.8</ele>
        <time>2018-08-05T07:32:28Z</time>
      </trkpt>
      <trkpt lat="44.33091" lon="6.51971">
        <ele>1684.9</ele>
        <time>2018-08-05T07:32:29Z</time>
      </trkpt>
      <trkpt lat="44.33089" lon="6.51973">
        <ele>1685</ele>
        <time>2018-08-05T07:32:30Z</time>
      </trkpt>
      <trkpt lat="44.33086" lon="6.51974">
        <ele>1685.1</ele>
        <time>2018-08-05T07:32:31Z</time>
      </trkpt>
      <trkpt lat="44.33084" lon="6.51977">
        <ele>1685.2</ele>
        <time>2018-08-05T07:32:32Z</time>
      </trkpt>
      <trkpt lat="44.33081" lon="6.51982">
        <ele>1685.4</ele>
        <time>2018-08-05T07:32:34Z</time>
      </trkpt>
      <trkpt lat="44.33078" lon="6.51988">
        <ele>1685.5</ele>
        <time>2018-08-05T07:32:36Z</time>
      </trkpt>
      <trkpt lat="44.33073" lon="6.51992">
        <ele>1685.7</ele>
        <time>2018-08-05T07:32:38Z</time>
      </trkpt>
      <trkpt lat="44.33071" lon="6.51994">
        <ele>1685.9</ele>
        <time>2018-08-05T07:32:39Z</time>
      </trkpt>
      <trkpt lat="44.33067" lon="6.51997">
        <ele>1686.1</ele>
        <time>2018-08-05T07:32:41Z</time>
      </trkpt>
      <trkpt lat="44.33061" lon="6.51999">
        <ele>1686.4</ele>
        <time>2018-08-05T07:32:43Z</time>
      </trkpt>
      <trkpt lat="44.33056" lon="6.52003">
        <ele>1686.6</ele>
        <time>2018-08-05T07:32:45Z</time>
      </trkpt>
      <trkpt lat="44.33054" lon="6.52005">
        <ele>1686.8</ele>
        <time>2018-08-05T07:32:46Z</time>
      </trkpt>
      <trkpt lat="44.33051" lon="6.52007">
        <ele>1687.1</ele>
        <time>2018-08-05T07:32:47Z</time>
      </trkpt>
      <trkpt lat="44.33046" lon="6.52011">
        <ele>1687.6</ele>
        <time>2018-08-05T07:32:49Z</time>
      </trkpt>
      <trkpt lat="44.33041" lon="6.52016">
        <ele>1688</ele>
        <time>2018-08-05T07:32:51Z</time>
      </trkpt>
      <trkpt lat="44.33038" lon="6.52018">
        <ele>1688.3</ele>
        <time>2018-08-05T07:32:52Z</time>
      </trkpt>
      <trkpt lat="44.33034" lon="6.52019">
        <ele>1688.8</ele>
        <time>2018-08-05T07:32:53Z</time>
      </trkpt>
      <trkpt lat="44.33031" lon="6.5202">
        <ele>1689.1</ele>
        <time>2018-08-05T07:32:54Z</time>
      </trkpt>
      <trkpt lat="44.33028" lon="6.52023">
        <ele>1689.3</ele>
        <time>2018-08-05T07:32:55Z</time>
      </trkpt>
      <trkpt lat="44.33026" lon="6.52025">
        <ele>1689.5</ele>
        <time>2018-08-05T07:32:56Z</time>
      </trkpt>
      <trkpt lat="44.33021" lon="6.5203">
        <ele>1690.1</ele>
        <time>2018-08-05T07:32:58Z</time>
      </trkpt>
      <trkpt lat="44.33019" lon="6.52033">
        <ele>1690.4</ele>
        <time>2018-08-05T07:32:59Z</time>
      </trkpt>
      <trkpt lat="44.33016" lon="6.52035">
        <ele>1690.6</ele>
        <time>2018-08-05T07:33:00Z</time>
      </trkpt>
      <trkpt lat="44.33012" lon="6.52036">
        <ele>1690.7</ele>
        <time>2018-08-05T07:33:01Z</time>
      </trkpt>
      <trkpt lat="44.33009" lon="6.52038">
        <ele>1691.1</ele>
        <time>2018-08-05T07:33:02Z</time>
      </trkpt>
      <trkpt lat="44.33006" lon="6.5204">
        <ele>1691.5</ele>
        <time>2018-08-05T07:33:03Z</time>
      </trkpt>
      <trkpt lat="44.33003" lon="6.52043">
        <ele>1691.7</ele>
        <time>2018-08-05T07:33:04Z</time>
      </trkpt>
      <trkpt lat="44.33001" lon="6.52045">
        <ele>1691.9</ele>
        <time>2018-08-05T07:33:05Z</time>
      </trkpt>
      <trkpt lat="44.32998" lon="6.52049">
        <ele>1692</ele>
        <time>2018-08-05T07:33:06Z</time>
      </trkpt>
      <trkpt lat="44.32995" lon="6.52052">
        <ele>1692.2</ele>
        <time>2018-08-05T07:33:07Z</time>
      </trkpt>
      <trkpt lat="44.32993" lon="6.52055">
        <ele>1692.4</ele>
        <time>2018-08-05T07:33:08Z</time>
      </trkpt>
      <trkpt lat="44.3299" lon="6.52058">
        <ele>1692.5</ele>
        <time>2018-08-05T07:33:09Z</time>
      </trkpt>
      <trkpt lat="44.32988" lon="6.52061">
        <ele>1692.6</ele>
        <time>2018-08-05T07:33:10Z</time>
      </trkpt>
      <trkpt lat="44.32986" lon="6.52065">
        <ele>1692.7</ele>
        <time>2018-08-05T07:33:11Z</time>
      </trkpt>
      <trkpt lat="44.32983" lon="6.52068">
        <ele>1692.7</ele>
        <time>2018-08-05T07:33:12Z</time>
      </trkpt>
      <trkpt lat="44.32981" lon="6.5207">
        <ele>1692.7</ele>
        <time>2018-08-05T07:33:13Z</time>
      </trkpt>
      <trkpt lat="44.32978" lon="6.52072">
        <ele>1692.6</ele>
        <time>2018-08-05T07:33:14Z</time>
      </trkpt>
      <trkpt lat="44.32976" lon="6.52074">
        <ele>1692.8</ele>
        <time>2018-08-05T07:33:15Z</time>
      </trkpt>
      <trkpt lat="44.32972" lon="6.52076">
        <ele>1693.2</ele>
        <time>2018-08-05T07:33:16Z</time>
      </trkpt>
      <trkpt lat="44.32968" lon="6.52078">
        <ele>1693.5</ele>
        <time>2018-08-05T07:33:17Z</time>
      </trkpt>
      <trkpt lat="44.32965" lon="6.52078">
        <ele>1693.7</ele>
        <time>2018-08-05T07:33:18Z</time>
      </trkpt>
      <trkpt lat="44.32959" lon="6.52078">
        <ele>1694.3</ele>
        <time>2018-08-05T07:33:20Z</time>
      </trkpt>
      <trkpt lat="44.32956" lon="6.52082">
        <ele>1694.7</ele>
        <time>2018-08-05T07:33:22Z</time>
      </trkpt>
      <trkpt lat="44.32954" lon="6.52085">
        <ele>1694.9</ele>
        <time>2018-08-05T07:33:23Z</time>
      </trkpt>
      <trkpt lat="44.32952" lon="6.52089">
        <ele>1695</ele>
        <time>2018-08-05T07:33:24Z</time>
      </trkpt>
      <trkpt lat="44.3295" lon="6.52094">
        <ele>1694.8</ele>
        <time>2018-08-05T07:33:26Z</time>
      </trkpt>
      <trkpt lat="44.32947" lon="6.52099">
        <ele>1694.6</ele>
        <time>2018-08-05T07:33:28Z</time>
      </trkpt>
      <trkpt lat="44.32945" lon="6.52103">
        <ele>1694.6</ele>
        <time>2018-08-05T07:33:29Z</time>
      </trkpt>
      <trkpt lat="44.32943" lon="6.52106">
        <ele>1694.5</ele>
        <time>2018-08-05T07:33:30Z</time>
      </trkpt>
      <trkpt lat="44.3294" lon="6.52108">
        <ele>1694.4</ele>
        <time>2018-08-05T07:33:32Z</time>
      </trkpt>
      <trkpt lat="44.32937" lon="6.52108">
        <ele>1694.3</ele>
        <time>2018-08-05T07:33:33Z</time>
      </trkpt>
      <trkpt lat="44.32934" lon="6.52106">
        <ele>1694.1</ele>
        <time>2018-08-05T07:33:35Z</time>
      </trkpt>
      <trkpt lat="44.32931" lon="6.52106">
        <ele>1693.7</ele>
        <time>2018-08-05T07:33:36Z</time>
      </trkpt>
      <trkpt lat="44.32924" lon="6.52104">
        <ele>1693.2</ele>
        <time>2018-08-05T07:33:38Z</time>
      </trkpt>
      <trkpt lat="44.3292" lon="6.52103">
        <ele>1693.1</ele>
        <time>2018-08-05T07:33:39Z</time>
      </trkpt>
      <trkpt lat="44.32918" lon="6.52103">
        <ele>1693</ele>
        <time>2018-08-05T07:33:40Z</time>
      </trkpt>
      <trkpt lat="44.32914" lon="6.52099">
        <ele>1692.7</ele>
        <time>2018-08-05T07:33:43Z</time>
      </trkpt>
      <trkpt lat="44.32911" lon="6.52097">
        <ele>1692.5</ele>
        <time>2018-08-05T07:33:44Z</time>
      </trkpt>
      <trkpt lat="44.32908" lon="6.52095">
        <ele>1692.4</ele>
        <time>2018-08-05T07:33:45Z</time>
      </trkpt>
      <trkpt lat="44.32899" lon="6.52095">
        <ele>1692</ele>
        <time>2018-08-05T07:33:47Z</time>
      </trkpt>
      <trkpt lat="44.32896" lon="6.52094">
        <ele>1691.8</ele>
        <time>2018-08-05T07:33:48Z</time>
      </trkpt>
      <trkpt lat="44.32891" lon="6.52092">
        <ele>1691.7</ele>
        <time>2018-08-05T07:33:50Z</time>
      </trkpt>
      <trkpt lat="44.32886" lon="6.52092">
        <ele>1691.6</ele>
        <time>2018-08-05T07:33:51Z</time>
      </trkpt>
      <trkpt lat="44.32884" lon="6.52092">
        <ele>1691.5</ele>
        <time>2018-08-05T07:33:52Z</time>
      </trkpt>
      <trkpt lat="44.32881" lon="6.52093">
        <ele>1691.3</ele>
        <time>2018-08-05T07:33:53Z</time>
      </trkpt>
      <trkpt lat="44.32876" lon="6.52095">
        <ele>1691.1</ele>
        <time>2018-08-05T07:33:54Z</time>
      </trkpt>
      <trkpt lat="44.32874" lon="6.52097">
        <ele>1691</ele>
        <time>2018-08-05T07:33:55Z</time>
      </trkpt>
      <trkpt lat="44.32871" lon="6.521">
        <ele>1690.9</ele>
        <time>2018-08-05T07:33:56Z</time>
      </trkpt>
      <trkpt lat="44.32868" lon="6.52104">
        <ele>1690.7</ele>
        <time>2018-08-05T07:33:58Z</time>
      </trkpt>
      <trkpt lat="44.32863" lon="6.52103">
        <ele>1690.3</ele>
        <time>2018-08-05T07:33:59Z</time>
      </trkpt>
      <trkpt lat="44.3286" lon="6.52105">
        <ele>1690.4</ele>
        <time>2018-08-05T07:34:00Z</time>
      </trkpt>
      <trkpt lat="44.32855" lon="6.52104">
        <ele>1690.6</ele>
        <time>2018-08-05T07:34:02Z</time>
      </trkpt>
      <trkpt lat="44.32852" lon="6.52104">
        <ele>1690.8</ele>
        <time>2018-08-05T07:34:03Z</time>
      </trkpt>
      <trkpt lat="44.32848" lon="6.52104">
        <ele>1691</ele>
        <time>2018-08-05T07:34:04Z</time>
      </trkpt>
      <trkpt lat="44.32846" lon="6.52104">
        <ele>1691.2</ele>
        <time>2018-08-05T07:34:05Z</time>
      </trkpt>
      <trkpt lat="44.3284" lon="6.52106">
        <ele>1691.3</ele>
        <time>2018-08-05T07:34:07Z</time>
      </trkpt>
      <trkpt lat="44.32837" lon="6.52106">
        <ele>1691.3</ele>
        <time>2018-08-05T07:34:08Z</time>
      </trkpt>
      <trkpt lat="44.32832" lon="6.52105">
        <ele>1691.4</ele>
        <time>2018-08-05T07:34:09Z</time>
      </trkpt>
      <trkpt lat="44.32828" lon="6.52105">
        <ele>1691.5</ele>
        <time>2018-08-05T07:34:10Z</time>
      </trkpt>
      <trkpt lat="44.32823" lon="6.52105">
        <ele>1691.7</ele>
        <time>2018-08-05T07:34:12Z</time>
      </trkpt>
      <trkpt lat="44.3282" lon="6.52105">
        <ele>1691.7</ele>
        <time>2018-08-05T07:34:13Z</time>
      </trkpt>
      <trkpt lat="44.32817" lon="6.52105">
        <ele>1691.9</ele>
        <time>2018-08-05T07:34:14Z</time>
      </trkpt>
      <trkpt lat="44.3281" lon="6.52103">
        <ele>1692.2</ele>
        <time>2018-08-05T07:34:16Z</time>
      </trkpt>
      <trkpt lat="44.32805" lon="6.52101">
        <ele>1692.4</ele>
        <time>2018-08-05T07:34:18Z</time>
      </trkpt>
      <trkpt lat="44.328" lon="6.52101">
        <ele>1692.6</ele>
        <time>2018-08-05T07:34:20Z</time>
      </trkpt>
      <trkpt lat="44.32794" lon="6.521">
        <ele>1692.9</ele>
        <time>2018-08-05T07:34:22Z</time>
      </trkpt>
      <trkpt lat="44.32787" lon="6.52099">
        <ele>1693.1</ele>
        <time>2018-08-05T07:34:24Z</time>
      </trkpt>
      <trkpt lat="44.32782" lon="6.52099">
        <ele>1693.3</ele>
        <time>2018-08-05T07:34:26Z</time>
      </trkpt>
      <trkpt lat="44.32777" lon="6.52101">
        <ele>1693.5</ele>
        <time>2018-08-05T07:34:28Z</time>
      </trkpt>
      <trkpt lat="44.32775" lon="6.52103">
        <ele>1693.6</ele>
        <time>2018-08-05T07:34:29Z</time>
      </trkpt>
      <trkpt lat="44.32771" lon="6.52101">
        <ele>1693.8</ele>
        <time>2018-08-05T07:34:30Z</time>
      </trkpt>
      <trkpt lat="44.32765" lon="6.521">
        <ele>1694</ele>
        <time>2018-08-05T07:34:32Z</time>
      </trkpt>
      <trkpt lat="44.32761" lon="6.521">
        <ele>1694.1</ele>
        <time>2018-08-05T07:34:33Z</time>
      </trkpt>
      <trkpt lat="44.32755" lon="6.52099">
        <ele>1694.2</ele>
        <time>2018-08-05T07:34:35Z</time>
      </trkpt>
      <trkpt lat="44.32751" lon="6.521">
        <ele>1694.4</ele>
        <time>2018-08-05T07:34:37Z</time>
      </trkpt>
      <trkpt lat="44.32747" lon="6.52102">
        <ele>1694.5</ele>
        <time>2018-08-05T07:34:39Z</time>
      </trkpt>
      <trkpt lat="44.32741" lon="6.52102">
        <ele>1694.7</ele>
        <time>2018-08-05T07:34:41Z</time>
      </trkpt>
      <trkpt lat="44.32738" lon="6.52103">
        <ele>1694.7</ele>
        <time>2018-08-05T07:34:42Z</time>
      </trkpt>
      <trkpt lat="44.32735" lon="6.52104">
        <ele>1694.8</ele>
        <time>2018-08-05T07:34:43Z</time>
      </trkpt>
      <trkpt lat="44.32732" lon="6.52105">
        <ele>1694.9</ele>
        <time>2018-08-05T07:34:44Z</time>
      </trkpt>
      <trkpt lat="44.32726" lon="6.52105">
        <ele>1695</ele>
        <time>2018-08-05T07:34:46Z</time>
      </trkpt>
      <trkpt lat="44.32721" lon="6.52104">
        <ele>1695.2</ele>
        <time>2018-08-05T07:34:48Z</time>
      </trkpt>
      <trkpt lat="44.32718" lon="6.52105">
        <ele>1695</ele>
        <time>2018-08-05T07:34:49Z</time>
      </trkpt>
      <trkpt lat="44.32715" lon="6.52105">
        <ele>1694.8</ele>
        <time>2018-08-05T07:34:50Z</time>
      </trkpt>
      <trkpt lat="44.32713" lon="6.52106">
        <ele>1694.9</ele>
        <time>2018-08-05T07:34:51Z</time>
      </trkpt>
      <trkpt lat="44.32708" lon="6.52107">
        <ele>1695.1</ele>
        <time>2018-08-05T07:34:53Z</time>
      </trkpt>
      <trkpt lat="44.32704" lon="6.52106">
        <ele>1695.3</ele>
        <time>2018-08-05T07:34:55Z</time>
      </trkpt>
      <trkpt lat="44.32701" lon="6.52105">
        <ele>1695.4</ele>
        <time>2018-08-05T07:34:56Z</time>
      </trkpt>
      <trkpt lat="44.32697" lon="6.52102">
        <ele>1695.5</ele>
        <time>2018-08-05T07:34:57Z</time>
      </trkpt>
      <trkpt lat="44.32694" lon="6.52101">
        <ele>1695.6</ele>
        <time>2018-08-05T07:34:58Z</time>
      </trkpt>
      <trkpt lat="44.32691" lon="6.521">
        <ele>1695.8</ele>
        <time>2018-08-05T07:34:59Z</time>
      </trkpt>
      <trkpt lat="44.32685" lon="6.52102">
        <ele>1696.2</ele>
        <time>2018-08-05T07:35:01Z</time>
      </trkpt>
      <trkpt lat="44.32682" lon="6.52102">
        <ele>1696.3</ele>
        <time>2018-08-05T07:35:02Z</time>
      </trkpt>
      <trkpt lat="44.32676" lon="6.52101">
        <ele>1696.3</ele>
        <time>2018-08-05T07:35:04Z</time>
      </trkpt>
      <trkpt lat="44.32671" lon="6.521">
        <ele>1696.4</ele>
        <time>2018-08-05T07:35:05Z</time>
      </trkpt>
      <trkpt lat="44.32666" lon="6.521">
        <ele>1696.4</ele>
        <time>2018-08-05T07:35:07Z</time>
      </trkpt>
      <trkpt lat="44.32663" lon="6.52098">
        <ele>1696.4</ele>
        <time>2018-08-05T07:35:09Z</time>
      </trkpt>
      <trkpt lat="44.3266" lon="6.52095">
        <ele>1696.5</ele>
        <time>2018-08-05T07:35:11Z</time>
      </trkpt>
      <trkpt lat="44.32658" lon="6.5209">
        <ele>1696.7</ele>
        <time>2018-08-05T07:35:14Z</time>
      </trkpt>
      <trkpt lat="44.32655" lon="6.52088">
        <ele>1696.8</ele>
        <time>2018-08-05T07:35:15Z</time>
      </trkpt>
      <trkpt lat="44.32653" lon="6.52085">
        <ele>1697</ele>
        <time>2018-08-05T07:35:17Z</time>
      </trkpt>
      <trkpt lat="44.3265" lon="6.52083">
        <ele>1697.1</ele>
        <time>2018-08-05T07:35:18Z</time>
      </trkpt>
      <trkpt lat="44.3265" lon="6.52078">
        <ele>1697.3</ele>
        <time>2018-08-05T07:35:19Z</time>
      </trkpt>
      <trkpt lat="44.32646" lon="6.52074">
        <ele>1697.5</ele>
        <time>2018-08-05T07:35:21Z</time>
      </trkpt>
      <trkpt lat="44.32645" lon="6.5207">
        <ele>1697.6</ele>
        <time>2018-08-05T07:35:23Z</time>
      </trkpt>
      <trkpt lat="44.32641" lon="6.52064">
        <ele>1697.6</ele>
        <time>2018-08-05T07:35:24Z</time>
      </trkpt>
      <trkpt lat="44.32634" lon="6.5206">
        <ele>1698.1</ele>
        <time>2018-08-05T07:35:26Z</time>
      </trkpt>
      <trkpt lat="44.32631" lon="6.52058">
        <ele>1698.2</ele>
        <time>2018-08-05T07:35:27Z</time>
      </trkpt>
      <trkpt lat="44.32629" lon="6.52056">
        <ele>1698.3</ele>
        <time>2018-08-05T07:35:28Z</time>
      </trkpt>
      <trkpt lat="44.32625" lon="6.52054">
        <ele>1698.5</ele>
        <time>2018-08-05T07:35:30Z</time>
      </trkpt>
      <trkpt lat="44.32621" lon="6.52053">
        <ele>1698.7</ele>
        <time>2018-08-05T07:35:32Z</time>
      </trkpt>
      <trkpt lat="44.32616" lon="6.52052">
        <ele>1699.1</ele>
        <time>2018-08-05T07:35:34Z</time>
      </trkpt>
      <trkpt lat="44.32613" lon="6.52052">
        <ele>1699.3</ele>
        <time>2018-08-05T07:35:35Z</time>
      </trkpt>
      <trkpt lat="44.32608" lon="6.5205">
        <ele>1699.6</ele>
        <time>2018-08-05T07:35:37Z</time>
      </trkpt>
      <trkpt lat="44.32606" lon="6.52049">
        <ele>1699.8</ele>
        <time>2018-08-05T07:35:38Z</time>
      </trkpt>
      <trkpt lat="44.32603" lon="6.52048">
        <ele>1700.1</ele>
        <time>2018-08-05T07:35:39Z</time>
      </trkpt>
      <trkpt lat="44.32599" lon="6.52047">
        <ele>1700.3</ele>
        <time>2018-08-05T07:35:40Z</time>
      </trkpt>
      <trkpt lat="44.32597" lon="6.52045">
        <ele>1700.5</ele>
        <time>2018-08-05T07:35:41Z</time>
      </trkpt>
      <trkpt lat="44.32593" lon="6.52042">
        <ele>1700.9</ele>
        <time>2018-08-05T07:35:43Z</time>
      </trkpt>
      <trkpt lat="44.3259" lon="6.52039">
        <ele>1701.2</ele>
        <time>2018-08-05T07:35:45Z</time>
      </trkpt>
      <trkpt lat="44.32585" lon="6.52036">
        <ele>1701.7</ele>
        <time>2018-08-05T07:35:47Z</time>
      </trkpt>
      <trkpt lat="44.32583" lon="6.52034">
        <ele>1702</ele>
        <time>2018-08-05T07:35:49Z</time>
      </trkpt>
      <trkpt lat="44.32579" lon="6.52033">
        <ele>1702.2</ele>
        <time>2018-08-05T07:35:51Z</time>
      </trkpt>
      <trkpt lat="44.32575" lon="6.52034">
        <ele>1702.4</ele>
        <time>2018-08-05T07:35:53Z</time>
      </trkpt>
      <trkpt lat="44.32572" lon="6.52035">
        <ele>1702.8</ele>
        <time>2018-08-05T07:35:55Z</time>
      </trkpt>
      <trkpt lat="44.32569" lon="6.52036">
        <ele>1703.1</ele>
        <time>2018-08-05T07:35:59Z</time>
      </trkpt>
      <trkpt lat="44.32566" lon="6.52039">
        <ele>1703.4</ele>
        <time>2018-08-05T07:36:08Z</time>
      </trkpt>
      <trkpt lat="44.32563" lon="6.52039">
        <ele>1703.6</ele>
        <time>2018-08-05T07:36:11Z</time>
      </trkpt>
      <trkpt lat="44.3256" lon="6.52039">
        <ele>1703.8</ele>
        <time>2018-08-05T07:36:14Z</time>
      </trkpt>
      <trkpt lat="44.32558" lon="6.52041">
        <ele>1703.9</ele>
        <time>2018-08-05T07:36:18Z</time>
      </trkpt>
      <trkpt lat="44.32555" lon="6.52039">
        <ele>1703.9</ele>
        <time>2018-08-05T07:36:22Z</time>
      </trkpt>
      <trkpt lat="44.32551" lon="6.52037">
        <ele>1704</ele>
        <time>2018-08-05T07:36:26Z</time>
      </trkpt>
      <trkpt lat="44.32548" lon="6.52039">
        <ele>1704.1</ele>
        <time>2018-08-05T07:36:30Z</time>
      </trkpt>
      <trkpt lat="44.32546" lon="6.52043">
        <ele>1704.1</ele>
        <time>2018-08-05T07:36:33Z</time>
      </trkpt>
      <trkpt lat="44.32544" lon="6.52045">
        <ele>1704.3</ele>
        <time>2018-08-05T07:36:37Z</time>
      </trkpt>
      <trkpt lat="44.32542" lon="6.52047">
        <ele>1704.4</ele>
        <time>2018-08-05T07:36:39Z</time>
      </trkpt>
      <trkpt lat="44.32539" lon="6.5205">
        <ele>1704.6</ele>
        <time>2018-08-05T07:36:44Z</time>
      </trkpt>
      <trkpt lat="44.32537" lon="6.52052">
        <ele>1704.7</ele>
        <time>2018-08-05T07:36:48Z</time>
      </trkpt>
      <trkpt lat="44.32534" lon="6.52053">
        <ele>1704.9</ele>
        <time>2018-08-05T07:36:51Z</time>
      </trkpt>
      <trkpt lat="44.32531" lon="6.52056">
        <ele>1705.1</ele>
        <time>2018-08-05T07:36:54Z</time>
      </trkpt>
      <trkpt lat="44.32528" lon="6.52057">
        <ele>1705.3</ele>
        <time>2018-08-05T07:36:57Z</time>
      </trkpt>
      <trkpt lat="44.32526" lon="6.5206">
        <ele>1705.5</ele>
        <time>2018-08-05T07:37:00Z</time>
      </trkpt>
      <trkpt lat="44.32523" lon="6.52062">
        <ele>1705.7</ele>
        <time>2018-08-05T07:37:03Z</time>
      </trkpt>
      <trkpt lat="44.3252" lon="6.52062">
        <ele>1705.8</ele>
        <time>2018-08-05T07:37:07Z</time>
      </trkpt>
      <trkpt lat="44.32517" lon="6.52061">
        <ele>1706</ele>
        <time>2018-08-05T07:37:11Z</time>
      </trkpt>
      <trkpt lat="44.32514" lon="6.52062">
        <ele>1706.2</ele>
        <time>2018-08-05T07:37:13Z</time>
      </trkpt>
      <trkpt lat="44.32512" lon="6.52064">
        <ele>1706.5</ele>
        <time>2018-08-05T07:37:17Z</time>
      </trkpt>
      <trkpt lat="44.32509" lon="6.52065">
        <ele>1706.8</ele>
        <time>2018-08-05T07:37:21Z</time>
      </trkpt>
      <trkpt lat="44.32506" lon="6.52066">
        <ele>1707</ele>
        <time>2018-08-05T07:37:24Z</time>
      </trkpt>
      <trkpt lat="44.32503" lon="6.52067">
        <ele>1707.4</ele>
        <time>2018-08-05T07:37:27Z</time>
      </trkpt>
      <trkpt lat="44.325" lon="6.52068">
        <ele>1707.7</ele>
        <time>2018-08-05T07:37:30Z</time>
      </trkpt>
      <trkpt lat="44.32497" lon="6.52069">
        <ele>1708</ele>
        <time>2018-08-05T07:37:33Z</time>
      </trkpt>
      <trkpt lat="44.32493" lon="6.52071">
        <ele>1708.3</ele>
        <time>2018-08-05T07:37:36Z</time>
      </trkpt>
      <trkpt lat="44.3249" lon="6.52074">
        <ele>1708.5</ele>
        <time>2018-08-05T07:37:39Z</time>
      </trkpt>
      <trkpt lat="44.32487" lon="6.52076">
        <ele>1708.8</ele>
        <time>2018-08-05T07:37:42Z</time>
      </trkpt>
      <trkpt lat="44.32485" lon="6.52078">
        <ele>1709.1</ele>
        <time>2018-08-05T07:37:46Z</time>
      </trkpt>
      <trkpt lat="44.32483" lon="6.5208">
        <ele>1709.3</ele>
        <time>2018-08-05T07:37:50Z</time>
      </trkpt>
      <trkpt lat="44.3248" lon="6.52083">
        <ele>1709.6</ele>
        <time>2018-08-05T07:37:52Z</time>
      </trkpt>
      <trkpt lat="44.32477" lon="6.52084">
        <ele>1710</ele>
        <time>2018-08-05T07:37:56Z</time>
      </trkpt>
      <trkpt lat="44.32474" lon="6.52085">
        <ele>1710.2</ele>
        <time>2018-08-05T07:38:00Z</time>
      </trkpt>
      <trkpt lat="44.32472" lon="6.52087">
        <ele>1710.4</ele>
        <time>2018-08-05T07:38:08Z</time>
      </trkpt>
      <trkpt lat="44.32468" lon="6.52089">
        <ele>1710.6</ele>
        <time>2018-08-05T07:38:10Z</time>
      </trkpt>
      <trkpt lat="44.32465" lon="6.52091">
        <ele>1710.8</ele>
        <time>2018-08-05T07:38:12Z</time>
      </trkpt>
      <trkpt lat="44.32462" lon="6.52093">
        <ele>1711</ele>
        <time>2018-08-05T07:38:14Z</time>
      </trkpt>
      <trkpt lat="44.32459" lon="6.52095">
        <ele>1711.3</ele>
        <time>2018-08-05T07:38:16Z</time>
      </trkpt>
      <trkpt lat="44.32454" lon="6.52097">
        <ele>1711.7</ele>
        <time>2018-08-05T07:38:18Z</time>
      </trkpt>
      <trkpt lat="44.32451" lon="6.52097">
        <ele>1712</ele>
        <time>2018-08-05T07:38:20Z</time>
      </trkpt>
      <trkpt lat="44.32448" lon="6.52098">
        <ele>1712.3</ele>
        <time>2018-08-05T07:38:22Z</time>
      </trkpt>
      <trkpt lat="44.32444" lon="6.521">
        <ele>1712.6</ele>
        <time>2018-08-05T07:38:24Z</time>
      </trkpt>
      <trkpt lat="44.32442" lon="6.52103">
        <ele>1712.8</ele>
        <time>2018-08-05T07:38:27Z</time>
      </trkpt>
      <trkpt lat="44.32438" lon="6.52104">
        <ele>1713.1</ele>
        <time>2018-08-05T07:38:29Z</time>
      </trkpt>
      <trkpt lat="44.32433" lon="6.52105">
        <ele>1713.4</ele>
        <time>2018-08-05T07:38:32Z</time>
      </trkpt>
      <trkpt lat="44.32427" lon="6.52105">
        <ele>1713.9</ele>
        <time>2018-08-05T07:38:34Z</time>
      </trkpt>
      <trkpt lat="44.32422" lon="6.52105">
        <ele>1714.2</ele>
        <time>2018-08-05T07:38:36Z</time>
      </trkpt>
      <trkpt lat="44.32418" lon="6.52104">
        <ele>1714.5</ele>
        <time>2018-08-05T07:38:38Z</time>
      </trkpt>
      <trkpt lat="44.32415" lon="6.52103">
        <ele>1714.7</ele>
        <time>2018-08-05T07:38:40Z</time>
      </trkpt>
      <trkpt lat="44.32412" lon="6.52103">
        <ele>1715</ele>
        <time>2018-08-05T07:38:43Z</time>
      </trkpt>
      <trkpt lat="44.32407" lon="6.52104">
        <ele>1715.3</ele>
        <time>2018-08-05T07:38:45Z</time>
      </trkpt>
      <trkpt lat="44.32405" lon="6.52106">
        <ele>1715.5</ele>
        <time>2018-08-05T07:38:47Z</time>
      </trkpt>
      <trkpt lat="44.32402" lon="6.52107">
        <ele>1715.8</ele>
        <time>2018-08-05T07:38:49Z</time>
      </trkpt>
      <trkpt lat="44.32399" lon="6.52108">
        <ele>1715.9</ele>
        <time>2018-08-05T07:38:50Z</time>
      </trkpt>
      <trkpt lat="44.32396" lon="6.52107">
        <ele>1716.1</ele>
        <time>2018-08-05T07:38:52Z</time>
      </trkpt>
      <trkpt lat="44.32392" lon="6.52107">
        <ele>1716.3</ele>
        <time>2018-08-05T07:38:54Z</time>
      </trkpt>
      <trkpt lat="44.32387" lon="6.52107">
        <ele>1716.7</ele>
        <time>2018-08-05T07:38:56Z</time>
      </trkpt>
      <trkpt lat="44.32383" lon="6.52109">
        <ele>1717</ele>
        <time>2018-08-05T07:38:58Z</time>
      </trkpt>
      <trkpt lat="44.32379" lon="6.52108">
        <ele>1717.2</ele>
        <time>2018-08-05T07:39:00Z</time>
      </trkpt>
      <trkpt lat="44.32376" lon="6.52109">
        <ele>1717.2</ele>
        <time>2018-08-05T07:39:02Z</time>
      </trkpt>
      <trkpt lat="44.32373" lon="6.5211">
        <ele>1717.1</ele>
        <time>2018-08-05T07:39:04Z</time>
      </trkpt>
      <trkpt lat="44.32369" lon="6.52109">
        <ele>1717.2</ele>
        <time>2018-08-05T07:39:09Z</time>
      </trkpt>
      <trkpt lat="44.32367" lon="6.52107">
        <ele>1717.3</ele>
        <time>2018-08-05T07:39:18Z</time>
      </trkpt>
      <trkpt lat="44.32365" lon="6.52105">
        <ele>1717.4</ele>
        <time>2018-08-05T07:39:33Z</time>
      </trkpt>
      <trkpt lat="44.32362" lon="6.52104">
        <ele>1717.4</ele>
        <time>2018-08-05T07:39:37Z</time>
      </trkpt>
      <trkpt lat="44.32359" lon="6.52104">
        <ele>1717.5</ele>
        <time>2018-08-05T07:39:42Z</time>
      </trkpt>
      <trkpt lat="44.32356" lon="6.52105">
        <ele>1717.5</ele>
        <time>2018-08-05T07:39:47Z</time>
      </trkpt>
      <trkpt lat="44.32353" lon="6.52107">
        <ele>1717.5</ele>
        <time>2018-08-05T07:39:51Z</time>
      </trkpt>
      <trkpt lat="44.32351" lon="6.52108">
        <ele>1717.5</ele>
        <time>2018-08-05T07:39:54Z</time>
      </trkpt>
      <trkpt lat="44.32348" lon="6.52109">
        <ele>1717.5</ele>
        <time>2018-08-05T07:39:59Z</time>
      </trkpt>
      <trkpt lat="44.32345" lon="6.5211">
        <ele>1717.3</ele>
        <time>2018-08-05T07:40:02Z</time>
      </trkpt>
      <trkpt lat="44.32343" lon="6.52107">
        <ele>1717.2</ele>
        <time>2018-08-05T07:40:06Z</time>
      </trkpt>
      <trkpt lat="44.3234" lon="6.52108">
        <ele>1717</ele>
        <time>2018-08-05T07:40:13Z</time>
      </trkpt>
      <trkpt lat="44.32337" lon="6.52106">
        <ele>1717</ele>
        <time>2018-08-05T07:40:19Z</time>
      </trkpt>
      <trkpt lat="44.32334" lon="6.52103">
        <ele>1717</ele>
        <time>2018-08-05T07:40:24Z</time>
      </trkpt>
      <trkpt lat="44.32332" lon="6.52105">
        <ele>1717</ele>
        <time>2018-08-05T07:40:27Z</time>
      </trkpt>
      <trkpt lat="44.32329" lon="6.52106">
        <ele>1716.9</ele>
        <time>2018-08-05T07:40:29Z</time>
      </trkpt>
      <trkpt lat="44.32326" lon="6.52107">
        <ele>1716.9</ele>
        <time>2018-08-05T07:40:33Z</time>
      </trkpt>
      <trkpt lat="44.32322" lon="6.52106">
        <ele>1716.9</ele>
        <time>2018-08-05T07:40:37Z</time>
      </trkpt>
      <trkpt lat="44.32319" lon="6.52103">
        <ele>1716.9</ele>
        <time>2018-08-05T07:40:40Z</time>
      </trkpt>
      <trkpt lat="44.32316" lon="6.52104">
        <ele>1716.9</ele>
        <time>2018-08-05T07:40:43Z</time>
      </trkpt>
      <trkpt lat="44.32313" lon="6.52104">
        <ele>1716.9</ele>
        <time>2018-08-05T07:40:46Z</time>
      </trkpt>
      <trkpt lat="44.32309" lon="6.52105">
        <ele>1716.9</ele>
        <time>2018-08-05T07:40:48Z</time>
      </trkpt>
      <trkpt lat="44.32307" lon="6.52105">
        <ele>1716.9</ele>
        <time>2018-08-05T07:40:53Z</time>
      </trkpt>
      <trkpt lat="44.32304" lon="6.52106">
        <ele>1716.9</ele>
        <time>2018-08-05T07:40:56Z</time>
      </trkpt>
      <trkpt lat="44.32301" lon="6.52106">
        <ele>1716.9</ele>
        <time>2018-08-05T07:41:08Z</time>
      </trkpt>
      <trkpt lat="44.32299" lon="6.52104">
        <ele>1717</ele>
        <time>2018-08-05T07:41:13Z</time>
      </trkpt>
      <trkpt lat="44.32296" lon="6.52101">
        <ele>1717</ele>
        <time>2018-08-05T07:41:16Z</time>
      </trkpt>
      <trkpt lat="44.32294" lon="6.52104">
        <ele>1717</ele>
        <time>2018-08-05T07:41:22Z</time>
      </trkpt>
      <trkpt lat="44.32291" lon="6.52104">
        <ele>1717</ele>
        <time>2018-08-05T07:41:26Z</time>
      </trkpt>
      <trkpt lat="44.32287" lon="6.52105">
        <ele>1717</ele>
        <time>2018-08-05T07:41:30Z</time>
      </trkpt>
      <trkpt lat="44.32284" lon="6.52105">
        <ele>1717</ele>
        <time>2018-08-05T07:41:34Z</time>
      </trkpt>
      <trkpt lat="44.32281" lon="6.52105">
        <ele>1717</ele>
        <time>2018-08-05T07:41:37Z</time>
      </trkpt>
      <trkpt lat="44.32278" lon="6.52103">
        <ele>1717</ele>
        <time>2018-08-05T07:41:41Z</time>
      </trkpt>
      <trkpt lat="44.32275" lon="6.52103">
        <ele>1717</ele>
        <time>2018-08-05T07:41:44Z</time>
      </trkpt>
      <trkpt lat="44.32272" lon="6.52103">
        <ele>1717</ele>
        <time>2018-08-05T07:41:46Z</time>
      </trkpt>
      <trkpt lat="44.32269" lon="6.52104">
        <ele>1717.2</ele>
        <time>2018-08-05T07:41:49Z</time>
      </trkpt>
      <trkpt lat="44.32268" lon="6.52107">
        <ele>1717.5</ele>
        <time>2018-08-05T07:41:53Z</time>
      </trkpt>
      <trkpt lat="44.32266" lon="6.5211">
        <ele>1717.6</ele>
        <time>2018-08-05T07:41:57Z</time>
      </trkpt>
      <trkpt lat="44.32263" lon="6.52113">
        <ele>1717.5</ele>
        <time>2018-08-05T07:42:00Z</time>
      </trkpt>
      <trkpt lat="44.32259" lon="6.52114">
        <ele>1717.5</ele>
        <time>2018-08-05T07:42:02Z</time>
      </trkpt>
      <trkpt lat="44.32257" lon="6.52115">
        <ele>1717.7</ele>
        <time>2018-08-05T07:42:04Z</time>
      </trkpt>
      <trkpt lat="44.32254" lon="6.52114">
        <ele>1717.8</ele>
        <time>2018-08-05T07:42:13Z</time>
      </trkpt>
      <trkpt lat="44.3225" lon="6.52114">
        <ele>1717.7</ele>
        <time>2018-08-05T07:42:19Z</time>
      </trkpt>
      <trkpt lat="44.32245" lon="6.52114">
        <ele>1717.6</ele>
        <time>2018-08-05T07:42:21Z</time>
      </trkpt>
      <trkpt lat="44.32239" lon="6.52115">
        <ele>1717.5</ele>
        <time>2018-08-05T07:42:23Z</time>
      </trkpt>
      <trkpt lat="44.32236" lon="6.52114">
        <ele>1717.4</ele>
        <time>2018-08-05T07:42:24Z</time>
      </trkpt>
      <trkpt lat="44.32232" lon="6.52114">
        <ele>1717.3</ele>
        <time>2018-08-05T07:42:25Z</time>
      </trkpt>
      <trkpt lat="44.32228" lon="6.52114">
        <ele>1717.3</ele>
        <time>2018-08-05T07:42:26Z</time>
      </trkpt>
      <trkpt lat="44.32225" lon="6.52115">
        <ele>1717.2</ele>
        <time>2018-08-05T07:42:27Z</time>
      </trkpt>
      <trkpt lat="44.32221" lon="6.52114">
        <ele>1717.2</ele>
        <time>2018-08-05T07:42:28Z</time>
      </trkpt>
      <trkpt lat="44.32216" lon="6.52114">
        <ele>1717.2</ele>
        <time>2018-08-05T07:42:30Z</time>
      </trkpt>
      <trkpt lat="44.32211" lon="6.52116">
        <ele>1717.2</ele>
        <time>2018-08-05T07:42:32Z</time>
      </trkpt>
      <trkpt lat="44.32207" lon="6.52117">
        <ele>1717.2</ele>
        <time>2018-08-05T07:42:34Z</time>
      </trkpt>
      <trkpt lat="44.32204" lon="6.52116">
        <ele>1717.2</ele>
        <time>2018-08-05T07:42:35Z</time>
      </trkpt>
      <trkpt lat="44.32201" lon="6.52115">
        <ele>1717.2</ele>
        <time>2018-08-05T07:42:36Z</time>
      </trkpt>
      <trkpt lat="44.32195" lon="6.52113">
        <ele>1717.1</ele>
        <time>2018-08-05T07:42:38Z</time>
      </trkpt>
      <trkpt lat="44.3219" lon="6.52112">
        <ele>1717</ele>
        <time>2018-08-05T07:42:39Z</time>
      </trkpt>
      <trkpt lat="44.32187" lon="6.52111">
        <ele>1717</ele>
        <time>2018-08-05T07:42:40Z</time>
      </trkpt>
      <trkpt lat="44.32183" lon="6.5211">
        <ele>1716.8</ele>
        <time>2018-08-05T07:42:41Z</time>
      </trkpt>
      <trkpt lat="44.32179" lon="6.52111">
        <ele>1716.6</ele>
        <time>2018-08-05T07:42:42Z</time>
      </trkpt>
      <trkpt lat="44.32175" lon="6.52109">
        <ele>1716.4</ele>
        <time>2018-08-05T07:42:43Z</time>
      </trkpt>
      <trkpt lat="44.32171" lon="6.52108">
        <ele>1716.3</ele>
        <time>2018-08-05T07:42:44Z</time>
      </trkpt>
      <trkpt lat="44.32167" lon="6.52109">
        <ele>1716.2</ele>
        <time>2018-08-05T07:42:45Z</time>
      </trkpt>
      <trkpt lat="44.32164" lon="6.5211">
        <ele>1716.1</ele>
        <time>2018-08-05T07:42:46Z</time>
      </trkpt>
      <trkpt lat="44.32159" lon="6.5211">
        <ele>1716.1</ele>
        <time>2018-08-05T07:42:47Z</time>
      </trkpt>
      <trkpt lat="44.32154" lon="6.5211">
        <ele>1716.1</ele>
        <time>2018-08-05T07:42:48Z</time>
      </trkpt>
      <trkpt lat="44.3215" lon="6.52112">
        <ele>1716.2</ele>
        <time>2018-08-05T07:42:49Z</time>
      </trkpt>
      <trkpt lat="44.32146" lon="6.52113">
        <ele>1716.3</ele>
        <time>2018-08-05T07:42:50Z</time>
      </trkpt>
      <trkpt lat="44.32141" lon="6.52114">
        <ele>1716.6</ele>
        <time>2018-08-05T07:42:51Z</time>
      </trkpt>
      <trkpt lat="44.32138" lon="6.52116">
        <ele>1716.8</ele>
        <time>2018-08-05T07:42:52Z</time>
      </trkpt>
      <trkpt lat="44.32135" lon="6.52117">
        <ele>1717</ele>
        <time>2018-08-05T07:42:53Z</time>
      </trkpt>
      <trkpt lat="44.32132" lon="6.52119">
        <ele>1717.3</ele>
        <time>2018-08-05T07:42:54Z</time>
      </trkpt>
      <trkpt lat="44.32128" lon="6.5212">
        <ele>1717.7</ele>
        <time>2018-08-05T07:42:55Z</time>
      </trkpt>
      <trkpt lat="44.32126" lon="6.52122">
        <ele>1717.8</ele>
        <time>2018-08-05T07:42:56Z</time>
      </trkpt>
      <trkpt lat="44.32122" lon="6.52123">
        <ele>1717.9</ele>
        <time>2018-08-05T07:42:57Z</time>
      </trkpt>
      <trkpt lat="44.32118" lon="6.52123">
        <ele>1718</ele>
        <time>2018-08-05T07:42:58Z</time>
      </trkpt>
      <trkpt lat="44.32115" lon="6.52121">
        <ele>1718.1</ele>
        <time>2018-08-05T07:42:59Z</time>
      </trkpt>
      <trkpt lat="44.32112" lon="6.52119">
        <ele>1718.2</ele>
        <time>2018-08-05T07:43:00Z</time>
      </trkpt>
      <trkpt lat="44.32108" lon="6.52118">
        <ele>1718.3</ele>
        <time>2018-08-05T07:43:01Z</time>
      </trkpt>
      <trkpt lat="44.32105" lon="6.52117">
        <ele>1718.4</ele>
        <time>2018-08-05T07:43:02Z</time>
      </trkpt>
      <trkpt lat="44.32102" lon="6.52116">
        <ele>1718.5</ele>
        <time>2018-08-05T07:43:03Z</time>
      </trkpt>
      <trkpt lat="44.32099" lon="6.52116">
        <ele>1718.7</ele>
        <time>2018-08-05T07:43:04Z</time>
      </trkpt>
      <trkpt lat="44.32094" lon="6.52114">
        <ele>1719.1</ele>
        <time>2018-08-05T07:43:06Z</time>
      </trkpt>
      <trkpt lat="44.32091" lon="6.52112">
        <ele>1719.3</ele>
        <time>2018-08-05T07:43:07Z</time>
      </trkpt>
      <trkpt lat="44.32088" lon="6.52111">
        <ele>1719.5</ele>
        <time>2018-08-05T07:43:08Z</time>
      </trkpt>
      <trkpt lat="44.32085" lon="6.5211">
        <ele>1719.8</ele>
        <time>2018-08-05T07:43:09Z</time>
      </trkpt>
      <trkpt lat="44.32082" lon="6.52108">
        <ele>1720.2</ele>
        <time>2018-08-05T07:43:10Z</time>
      </trkpt>
      <trkpt lat="44.32079" lon="6.52106">
        <ele>1720.6</ele>
        <time>2018-08-05T07:43:11Z</time>
      </trkpt>
      <trkpt lat="44.32076" lon="6.52105">
        <ele>1720.7</ele>
        <time>2018-08-05T07:43:12Z</time>
      </trkpt>
      <trkpt lat="44.32071" lon="6.52104">
        <ele>1721</ele>
        <time>2018-08-05T07:43:14Z</time>
      </trkpt>
      <trkpt lat="44.32068" lon="6.52102">
        <ele>1721.2</ele>
        <time>2018-08-05T07:43:15Z</time>
      </trkpt>
      <trkpt lat="44.32064" lon="6.52102">
        <ele>1721.5</ele>
        <time>2018-08-05T07:43:16Z</time>
      </trkpt>
      <trkpt lat="44.32061" lon="6.52102">
        <ele>1721.8</ele>
        <time>2018-08-05T07:43:17Z</time>
      </trkpt>
      <trkpt lat="44.32055" lon="6.52102">
        <ele>1722.5</ele>
        <time>2018-08-05T07:43:19Z</time>
      </trkpt>
      <trkpt lat="44.32052" lon="6.52103">
        <ele>1723.1</ele>
        <time>2018-08-05T07:43:21Z</time>
      </trkpt>
      <trkpt lat="44.32048" lon="6.52103">
        <ele>1723.6</ele>
        <time>2018-08-05T07:43:23Z</time>
      </trkpt>
      <trkpt lat="44.32044" lon="6.52102">
        <ele>1724.2</ele>
        <time>2018-08-05T07:43:25Z</time>
      </trkpt>
      <trkpt lat="44.3204" lon="6.52102">
        <ele>1724.8</ele>
        <time>2018-08-05T07:43:27Z</time>
      </trkpt>
      <trkpt lat="44.32037" lon="6.52101">
        <ele>1725.5</ele>
        <time>2018-08-05T07:43:29Z</time>
      </trkpt>
      <trkpt lat="44.32033" lon="6.52101">
        <ele>1726</ele>
        <time>2018-08-05T07:43:31Z</time>
      </trkpt>
      <trkpt lat="44.32029" lon="6.52101">
        <ele>1726.6</ele>
        <time>2018-08-05T07:43:33Z</time>
      </trkpt>
      <trkpt lat="44.32026" lon="6.52101">
        <ele>1727</ele>
        <time>2018-08-05T07:43:35Z</time>
      </trkpt>
      <trkpt lat="44.32024" lon="6.52099">
        <ele>1727.4</ele>
        <time>2018-08-05T07:43:37Z</time>
      </trkpt>
      <trkpt lat="44.3202" lon="6.52098">
        <ele>1727.7</ele>
        <time>2018-08-05T07:43:39Z</time>
      </trkpt>
      <trkpt lat="44.32017" lon="6.52099">
        <ele>1728.1</ele>
        <time>2018-08-05T07:43:42Z</time>
      </trkpt>
      <trkpt lat="44.32013" lon="6.52098">
        <ele>1728.5</ele>
        <time>2018-08-05T07:43:45Z</time>
      </trkpt>
      <trkpt lat="44.3201" lon="6.52096">
        <ele>1728.8</ele>
        <time>2018-08-05T07:43:47Z</time>
      </trkpt>
      <trkpt lat="44.32007" lon="6.52095">
        <ele>1729</ele>
        <time>2018-08-05T07:43:50Z</time>
      </trkpt>
      <trkpt lat="44.32004" lon="6.52094">
        <ele>1729.2</ele>
        <time>2018-08-05T07:43:53Z</time>
      </trkpt>
      <trkpt lat="44.32001" lon="6.52092">
        <ele>1729.4</ele>
        <time>2018-08-05T07:43:55Z</time>
      </trkpt>
      <trkpt lat="44.31998" lon="6.5209">
        <ele>1729.6</ele>
        <time>2018-08-05T07:43:57Z</time>
      </trkpt>
      <trkpt lat="44.31996" lon="6.52088">
        <ele>1729.8</ele>
        <time>2018-08-05T07:44:00Z</time>
      </trkpt>
      <trkpt lat="44.31994" lon="6.52084">
        <ele>1730.3</ele>
        <time>2018-08-05T07:44:03Z</time>
      </trkpt>
      <trkpt lat="44.3199" lon="6.52082">
        <ele>1731</ele>
        <time>2018-08-05T07:44:06Z</time>
      </trkpt>
      <trkpt lat="44.31987" lon="6.52078">
        <ele>1731.6</ele>
        <time>2018-08-05T07:44:08Z</time>
      </trkpt>
      <trkpt lat="44.31984" lon="6.52076">
        <ele>1732</ele>
        <time>2018-08-05T07:44:13Z</time>
      </trkpt>
      <trkpt lat="44.31981" lon="6.52075">
        <ele>1732.2</ele>
        <time>2018-08-05T07:44:15Z</time>
      </trkpt>
      <trkpt lat="44.31979" lon="6.52071">
        <ele>1732.6</ele>
        <time>2018-08-05T07:44:19Z</time>
      </trkpt>
      <trkpt lat="44.31976" lon="6.52068">
        <ele>1733.4</ele>
        <time>2018-08-05T07:44:22Z</time>
      </trkpt>
      <trkpt lat="44.31973" lon="6.52067">
        <ele>1733.9</ele>
        <time>2018-08-05T07:44:24Z</time>
      </trkpt>
      <trkpt lat="44.3197" lon="6.52065">
        <ele>1734.4</ele>
        <time>2018-08-05T07:44:26Z</time>
      </trkpt>
      <trkpt lat="44.31967" lon="6.52064">
        <ele>1734.8</ele>
        <time>2018-08-05T07:44:28Z</time>
      </trkpt>
      <trkpt lat="44.31963" lon="6.52062">
        <ele>1735.3</ele>
        <time>2018-08-05T07:44:31Z</time>
      </trkpt>
      <trkpt lat="44.3196" lon="6.52061">
        <ele>1735.4</ele>
        <time>2018-08-05T07:44:35Z</time>
      </trkpt>
      <trkpt lat="44.31955" lon="6.52059">
        <ele>1735.5</ele>
        <time>2018-08-05T07:44:39Z</time>
      </trkpt>
      <trkpt lat="44.3195" lon="6.52058">
        <ele>1735.9</ele>
        <time>2018-08-05T07:44:41Z</time>
      </trkpt>
      <trkpt lat="44.31947" lon="6.52057">
        <ele>1736.1</ele>
        <time>2018-08-05T07:44:44Z</time>
      </trkpt>
      <trkpt lat="44.31944" lon="6.52056">
        <ele>1736.4</ele>
        <time>2018-08-05T07:44:46Z</time>
      </trkpt>
      <trkpt lat="44.3194" lon="6.52055">
        <ele>1736.7</ele>
        <time>2018-08-05T07:44:50Z</time>
      </trkpt>
      <trkpt lat="44.31935" lon="6.52054">
        <ele>1736.9</ele>
        <time>2018-08-05T07:44:52Z</time>
      </trkpt>
      <trkpt lat="44.31932" lon="6.52053">
        <ele>1737</ele>
        <time>2018-08-05T07:44:54Z</time>
      </trkpt>
      <trkpt lat="44.31929" lon="6.52052">
        <ele>1737.1</ele>
        <time>2018-08-05T07:44:56Z</time>
      </trkpt>
      <trkpt lat="44.31926" lon="6.52051">
        <ele>1737.1</ele>
        <time>2018-08-05T07:44:58Z</time>
      </trkpt>
      <trkpt lat="44.31922" lon="6.52051">
        <ele>1737.1</ele>
        <time>2018-08-05T07:45:00Z</time>
      </trkpt>
      <trkpt lat="44.31919" lon="6.52053">
        <ele>1737.2</ele>
        <time>2018-08-05T07:45:02Z</time>
      </trkpt>
      <trkpt lat="44.31915" lon="6.52053">
        <ele>1737.8</ele>
        <time>2018-08-05T07:45:04Z</time>
      </trkpt>
      <trkpt lat="44.31912" lon="6.52054">
        <ele>1738.4</ele>
        <time>2018-08-05T07:45:06Z</time>
      </trkpt>
      <trkpt lat="44.31908" lon="6.52054">
        <ele>1738.7</ele>
        <time>2018-08-05T07:45:08Z</time>
      </trkpt>
      <trkpt lat="44.31905" lon="6.52054">
        <ele>1739</ele>
        <time>2018-08-05T07:45:10Z</time>
      </trkpt>
      <trkpt lat="44.31902" lon="6.52053">
        <ele>1739.4</ele>
        <time>2018-08-05T07:45:12Z</time>
      </trkpt>
      <trkpt lat="44.319" lon="6.52051">
        <ele>1739.8</ele>
        <time>2018-08-05T07:45:14Z</time>
      </trkpt>
      <trkpt lat="44.31897" lon="6.52051">
        <ele>1740.2</ele>
        <time>2018-08-05T07:45:16Z</time>
      </trkpt>
      <trkpt lat="44.31894" lon="6.52049">
        <ele>1740.7</ele>
        <time>2018-08-05T07:45:18Z</time>
      </trkpt>
      <trkpt lat="44.31891" lon="6.52049">
        <ele>1741.2</ele>
        <time>2018-08-05T07:45:20Z</time>
      </trkpt>
      <trkpt lat="44.31888" lon="6.52047">
        <ele>1741.8</ele>
        <time>2018-08-05T07:45:22Z</time>
      </trkpt>
      <trkpt lat="44.31884" lon="6.52047">
        <ele>1742.3</ele>
        <time>2018-08-05T07:45:25Z</time>
      </trkpt>
      <trkpt lat="44.3188" lon="6.52045">
        <ele>1742.7</ele>
        <time>2018-08-05T07:45:28Z</time>
      </trkpt>
      <trkpt lat="44.31878" lon="6.52041">
        <ele>1742.4</ele>
        <time>2018-08-05T07:45:32Z</time>
      </trkpt>
      <trkpt lat="44.31876" lon="6.52037">
        <ele>1742.1</ele>
        <time>2018-08-05T07:45:37Z</time>
      </trkpt>
      <trkpt lat="44.31874" lon="6.52036">
        <ele>1741.9</ele>
        <time>2018-08-05T07:45:39Z</time>
      </trkpt>
      <trkpt lat="44.31871" lon="6.52034">
        <ele>1741.8</ele>
        <time>2018-08-05T07:45:43Z</time>
      </trkpt>
      <trkpt lat="44.31868" lon="6.52033">
        <ele>1741.7</ele>
        <time>2018-08-05T07:45:45Z</time>
      </trkpt>
      <trkpt lat="44.31865" lon="6.52031">
        <ele>1741.6</ele>
        <time>2018-08-05T07:45:48Z</time>
      </trkpt>
      <trkpt lat="44.31863" lon="6.52028">
        <ele>1741.4</ele>
        <time>2018-08-05T07:45:52Z</time>
      </trkpt>
      <trkpt lat="44.3186" lon="6.52026">
        <ele>1741.2</ele>
        <time>2018-08-05T07:45:55Z</time>
      </trkpt>
      <trkpt lat="44.31857" lon="6.52024">
        <ele>1741.4</ele>
        <time>2018-08-05T07:46:00Z</time>
      </trkpt>
      <trkpt lat="44.31854" lon="6.52023">
        <ele>1741.6</ele>
        <time>2018-08-05T07:46:03Z</time>
      </trkpt>
      <trkpt lat="44.31851" lon="6.5202">
        <ele>1742.1</ele>
        <time>2018-08-05T07:46:05Z</time>
      </trkpt>
      <trkpt lat="44.31848" lon="6.52018">
        <ele>1742.9</ele>
        <time>2018-08-05T07:46:07Z</time>
      </trkpt>
      <trkpt lat="44.31845" lon="6.52016">
        <ele>1743.7</ele>
        <time>2018-08-05T07:46:09Z</time>
      </trkpt>
      <trkpt lat="44.31842" lon="6.52014">
        <ele>1744.2</ele>
        <time>2018-08-05T07:46:11Z</time>
      </trkpt>
      <trkpt lat="44.31839" lon="6.52012">
        <ele>1744.8</ele>
        <time>2018-08-05T07:46:14Z</time>
      </trkpt>
      <trkpt lat="44.31836" lon="6.5201">
        <ele>1745.6</ele>
        <time>2018-08-05T07:46:17Z</time>
      </trkpt>
      <trkpt lat="44.31833" lon="6.52008">
        <ele>1746.4</ele>
        <time>2018-08-05T07:46:25Z</time>
      </trkpt>
      <trkpt lat="44.31831" lon="6.52005">
        <ele>1747.2</ele>
        <time>2018-08-05T07:46:29Z</time>
      </trkpt>
      <trkpt lat="44.31829" lon="6.52004">
        <ele>1748.3</ele>
        <time>2018-08-05T07:46:31Z</time>
      </trkpt>
      <trkpt lat="44.31824" lon="6.52001">
        <ele>1750</ele>
        <time>2018-08-05T07:46:35Z</time>
      </trkpt>
      <trkpt lat="44.31821" lon="6.52">
        <ele>1750.7</ele>
        <time>2018-08-05T07:46:38Z</time>
      </trkpt>
      <trkpt lat="44.31818" lon="6.51997">
        <ele>1751.3</ele>
        <time>2018-08-05T07:46:40Z</time>
      </trkpt>
      <trkpt lat="44.31815" lon="6.51996">
        <ele>1752</ele>
        <time>2018-08-05T07:46:42Z</time>
      </trkpt>
      <trkpt lat="44.31813" lon="6.51994">
        <ele>1753</ele>
        <time>2018-08-05T07:46:45Z</time>
      </trkpt>
      <trkpt lat="44.31811" lon="6.51991">
        <ele>1754.3</ele>
        <time>2018-08-05T07:46:50Z</time>
      </trkpt>
      <trkpt lat="44.31809" lon="6.51988">
        <ele>1755.4</ele>
        <time>2018-08-05T07:46:53Z</time>
      </trkpt>
      <trkpt lat="44.31808" lon="6.51984">
        <ele>1756.3</ele>
        <time>2018-08-05T07:46:55Z</time>
      </trkpt>
      <trkpt lat="44.31807" lon="6.5198">
        <ele>1757.4</ele>
        <time>2018-08-05T07:46:58Z</time>
      </trkpt>
      <trkpt lat="44.31805" lon="6.51976">
        <ele>1758.4</ele>
        <time>2018-08-05T07:47:00Z</time>
      </trkpt>
      <trkpt lat="44.31802" lon="6.51973">
        <ele>1759.3</ele>
        <time>2018-08-05T07:47:02Z</time>
      </trkpt>
      <trkpt lat="44.318" lon="6.51969">
        <ele>1760.1</ele>
        <time>2018-08-05T07:47:05Z</time>
      </trkpt>
      <trkpt lat="44.31797" lon="6.51968">
        <ele>1761.1</ele>
        <time>2018-08-05T07:47:07Z</time>
      </trkpt>
      <trkpt lat="44.31794" lon="6.51966">
        <ele>1761.8</ele>
        <time>2018-08-05T07:47:09Z</time>
      </trkpt>
      <trkpt lat="44.31791" lon="6.51964">
        <ele>1762.7</ele>
        <time>2018-08-05T07:47:12Z</time>
      </trkpt>
      <trkpt lat="44.31788" lon="6.51961">
        <ele>1763.8</ele>
        <time>2018-08-05T07:47:14Z</time>
      </trkpt>
      <trkpt lat="44.31785" lon="6.51959">
        <ele>1764.7</ele>
        <time>2018-08-05T07:47:16Z</time>
      </trkpt>
      <trkpt lat="44.31783" lon="6.51956">
        <ele>1765.7</ele>
        <time>2018-08-05T07:47:18Z</time>
      </trkpt>
      <trkpt lat="44.3178" lon="6.51953">
        <ele>1766.8</ele>
        <time>2018-08-05T07:47:20Z</time>
      </trkpt>
      <trkpt lat="44.31777" lon="6.51949">
        <ele>1768.2</ele>
        <time>2018-08-05T07:47:22Z</time>
      </trkpt>
      <trkpt lat="44.31774" lon="6.51947">
        <ele>1769.5</ele>
        <time>2018-08-05T07:47:24Z</time>
      </trkpt>
      <trkpt lat="44.31771" lon="6.51944">
        <ele>1770.5</ele>
        <time>2018-08-05T07:47:26Z</time>
      </trkpt>
      <trkpt lat="44.31769" lon="6.51941">
        <ele>1771.4</ele>
        <time>2018-08-05T07:47:28Z</time>
      </trkpt>
      <trkpt lat="44.31767" lon="6.51938">
        <ele>1772.4</ele>
        <time>2018-08-05T07:47:30Z</time>
      </trkpt>
      <trkpt lat="44.31765" lon="6.51935">
        <ele>1773.8</ele>
        <time>2018-08-05T07:47:33Z</time>
      </trkpt>
      <trkpt lat="44.31763" lon="6.51931">
        <ele>1775.6</ele>
        <time>2018-08-05T07:47:36Z</time>
      </trkpt>
      <trkpt lat="44.3176" lon="6.51928">
        <ele>1777</ele>
        <time>2018-08-05T07:47:38Z</time>
      </trkpt>
      <trkpt lat="44.31757" lon="6.51926">
        <ele>1778</ele>
        <time>2018-08-05T07:47:41Z</time>
      </trkpt>
      <trkpt lat="44.31754" lon="6.51922">
        <ele>1779.5</ele>
        <time>2018-08-05T07:47:44Z</time>
      </trkpt>
      <trkpt lat="44.31752" lon="6.51918">
        <ele>1780.8</ele>
        <time>2018-08-05T07:47:47Z</time>
      </trkpt>
      <trkpt lat="44.31748" lon="6.51916">
        <ele>1782.3</ele>
        <time>2018-08-05T07:47:51Z</time>
      </trkpt>
      <trkpt lat="44.31746" lon="6.51913">
        <ele>1783.2</ele>
        <time>2018-08-05T07:47:56Z</time>
      </trkpt>
      <trkpt lat="44.31744" lon="6.51911">
        <ele>1784.3</ele>
        <time>2018-08-05T07:47:58Z</time>
      </trkpt>
      <trkpt lat="44.31741" lon="6.51908">
        <ele>1785.4</ele>
        <time>2018-08-05T07:48:00Z</time>
      </trkpt>
      <trkpt lat="44.31739" lon="6.51907">
        <ele>1786.3</ele>
        <time>2018-08-05T07:48:02Z</time>
      </trkpt>
      <trkpt lat="44.31738" lon="6.51903">
        <ele>1787.3</ele>
        <time>2018-08-05T07:48:06Z</time>
      </trkpt>
      <trkpt lat="44.31736" lon="6.51899">
        <ele>1788.3</ele>
        <time>2018-08-05T07:48:08Z</time>
      </trkpt>
      <trkpt lat="44.31733" lon="6.51896">
        <ele>1789.4</ele>
        <time>2018-08-05T07:48:11Z</time>
      </trkpt>
      <trkpt lat="44.31731" lon="6.51893">
        <ele>1790.3</ele>
        <time>2018-08-05T07:48:16Z</time>
      </trkpt>
      <trkpt lat="44.31728" lon="6.5189">
        <ele>1791.8</ele>
        <time>2018-08-05T07:48:19Z</time>
      </trkpt>
      <trkpt lat="44.31725" lon="6.51889">
        <ele>1793</ele>
        <time>2018-08-05T07:48:21Z</time>
      </trkpt>
      <trkpt lat="44.31722" lon="6.51887">
        <ele>1794</ele>
        <time>2018-08-05T07:48:25Z</time>
      </trkpt>
      <trkpt lat="44.3172" lon="6.51884">
        <ele>1795</ele>
        <time>2018-08-05T07:48:29Z</time>
      </trkpt>
      <trkpt lat="44.31717" lon="6.51882">
        <ele>1796.3</ele>
        <time>2018-08-05T07:48:32Z</time>
      </trkpt>
      <trkpt lat="44.31715" lon="6.51879">
        <ele>1797.1</ele>
        <time>2018-08-05T07:48:35Z</time>
      </trkpt>
      <trkpt lat="44.31716" lon="6.51874">
        <ele>1798</ele>
        <time>2018-08-05T07:48:39Z</time>
      </trkpt>
      <trkpt lat="44.31714" lon="6.51871">
        <ele>1798.9</ele>
        <time>2018-08-05T07:48:42Z</time>
      </trkpt>
      <trkpt lat="44.31713" lon="6.51868">
        <ele>1799.7</ele>
        <time>2018-08-05T07:48:45Z</time>
      </trkpt>
      <trkpt lat="44.3171" lon="6.51865">
        <ele>1800.5</ele>
        <time>2018-08-05T07:48:47Z</time>
      </trkpt>
      <trkpt lat="44.31708" lon="6.51863">
        <ele>1801.3</ele>
        <time>2018-08-05T07:48:51Z</time>
      </trkpt>
      <trkpt lat="44.31707" lon="6.51859">
        <ele>1802.1</ele>
        <time>2018-08-05T07:48:53Z</time>
      </trkpt>
      <trkpt lat="44.31707" lon="6.51855">
        <ele>1803</ele>
        <time>2018-08-05T07:48:57Z</time>
      </trkpt>
      <trkpt lat="44.31705" lon="6.51852">
        <ele>1803.8</ele>
        <time>2018-08-05T07:49:00Z</time>
      </trkpt>
      <trkpt lat="44.31702" lon="6.51851">
        <ele>1804.7</ele>
        <time>2018-08-05T07:49:30Z</time>
      </trkpt>
      <trkpt lat="44.317" lon="6.51847">
        <ele>1805.7</ele>
        <time>2018-08-05T07:49:35Z</time>
      </trkpt>
      <trkpt lat="44.31699" lon="6.51843">
        <ele>1806.2</ele>
        <time>2018-08-05T07:49:39Z</time>
      </trkpt>
      <trkpt lat="44.31697" lon="6.51842">
        <ele>1806.7</ele>
        <time>2018-08-05T07:49:42Z</time>
      </trkpt>
      <trkpt lat="44.31694" lon="6.51839">
        <ele>1807.3</ele>
        <time>2018-08-05T07:49:45Z</time>
      </trkpt>
      <trkpt lat="44.31691" lon="6.51836">
        <ele>1807.6</ele>
        <time>2018-08-05T07:49:49Z</time>
      </trkpt>
      <trkpt lat="44.31693" lon="6.51832">
        <ele>1807.8</ele>
        <time>2018-08-05T07:49:52Z</time>
      </trkpt>
      <trkpt lat="44.31693" lon="6.51827">
        <ele>1808.1</ele>
        <time>2018-08-05T07:49:56Z</time>
      </trkpt>
      <trkpt lat="44.31691" lon="6.51822">
        <ele>1808.7</ele>
        <time>2018-08-05T07:49:59Z</time>
      </trkpt>
      <trkpt lat="44.3169" lon="6.51817">
        <ele>1809.3</ele>
        <time>2018-08-05T07:50:02Z</time>
      </trkpt>
      <trkpt lat="44.3169" lon="6.51812">
        <ele>1809.5</ele>
        <time>2018-08-05T07:50:06Z</time>
      </trkpt>
      <trkpt lat="44.3169" lon="6.51808">
        <ele>1809.8</ele>
        <time>2018-08-05T07:50:09Z</time>
      </trkpt>
      <trkpt lat="44.31688" lon="6.51805">
        <ele>1810</ele>
        <time>2018-08-05T07:50:13Z</time>
      </trkpt>
      <trkpt lat="44.31685" lon="6.51806">
        <ele>1810.5</ele>
        <time>2018-08-05T07:50:18Z</time>
      </trkpt>
      <trkpt lat="44.31682" lon="6.51809">
        <ele>1810.5</ele>
        <time>2018-08-05T07:50:34Z</time>
      </trkpt>
      <trkpt lat="44.31681" lon="6.51812">
        <ele>1810.3</ele>
        <time>2018-08-05T07:50:37Z</time>
      </trkpt>
      <trkpt lat="44.31678" lon="6.51814">
        <ele>1810.1</ele>
        <time>2018-08-05T07:50:39Z</time>
      </trkpt>
      <trkpt lat="44.31676" lon="6.5182">
        <ele>1809.9</ele>
        <time>2018-08-05T07:50:43Z</time>
      </trkpt>
      <trkpt lat="44.31676" lon="6.51824">
        <ele>1809.8</ele>
        <time>2018-08-05T07:50:45Z</time>
      </trkpt>
      <trkpt lat="44.31674" lon="6.51828">
        <ele>1809.7</ele>
        <time>2018-08-05T07:50:49Z</time>
      </trkpt>
      <trkpt lat="44.31672" lon="6.51831">
        <ele>1809.6</ele>
        <time>2018-08-05T07:50:52Z</time>
      </trkpt>
      <trkpt lat="44.31669" lon="6.51833">
        <ele>1809.7</ele>
        <time>2018-08-05T07:50:59Z</time>
      </trkpt>
      <trkpt lat="44.31668" lon="6.5183">
        <ele>1809.8</ele>
        <time>2018-08-05T07:51:03Z</time>
      </trkpt>
      <trkpt lat="44.31668" lon="6.51826">
        <ele>1809.9</ele>
        <time>2018-08-05T07:51:08Z</time>
      </trkpt>
      <trkpt lat="44.31667" lon="6.51821">
        <ele>1810.3</ele>
        <time>2018-08-05T07:51:12Z</time>
      </trkpt>
      <trkpt lat="44.31666" lon="6.51817">
        <ele>1810.6</ele>
        <time>2018-08-05T07:51:16Z</time>
      </trkpt>
      <trkpt lat="44.31667" lon="6.51813">
        <ele>1810.9</ele>
        <time>2018-08-05T07:51:19Z</time>
      </trkpt>
      <trkpt lat="44.31666" lon="6.51809">
        <ele>1811.3</ele>
        <time>2018-08-05T07:51:23Z</time>
      </trkpt>
      <trkpt lat="44.31664" lon="6.51806">
        <ele>1811.4</ele>
        <time>2018-08-05T07:51:25Z</time>
      </trkpt>
      <trkpt lat="44.31664" lon="6.51802">
        <ele>1811.6</ele>
        <time>2018-08-05T07:51:28Z</time>
      </trkpt>
      <trkpt lat="44.31663" lon="6.51798">
        <ele>1811.8</ele>
        <time>2018-08-05T07:51:31Z</time>
      </trkpt>
      <trkpt lat="44.31664" lon="6.51794">
        <ele>1811.9</ele>
        <time>2018-08-05T07:51:34Z</time>
      </trkpt>
      <trkpt lat="44.31665" lon="6.51789">
        <ele>1812.2</ele>
        <time>2018-08-05T07:51:38Z</time>
      </trkpt>
      <trkpt lat="44.31666" lon="6.51785">
        <ele>1812.5</ele>
        <time>2018-08-05T07:51:41Z</time>
      </trkpt>
      <trkpt lat="44.31668" lon="6.51781">
        <ele>1812.9</ele>
        <time>2018-08-05T07:51:45Z</time>
      </trkpt>
      <trkpt lat="44.31668" lon="6.51777">
        <ele>1813.2</ele>
        <time>2018-08-05T07:51:48Z</time>
      </trkpt>
      <trkpt lat="44.31665" lon="6.51774">
        <ele>1813.4</ele>
        <time>2018-08-05T07:51:52Z</time>
      </trkpt>
      <trkpt lat="44.31662" lon="6.51775">
        <ele>1813.6</ele>
        <time>2018-08-05T07:51:55Z</time>
      </trkpt>
      <trkpt lat="44.31661" lon="6.51779">
        <ele>1813.7</ele>
        <time>2018-08-05T07:52:01Z</time>
      </trkpt>
      <trkpt lat="44.31658" lon="6.5178">
        <ele>1813.9</ele>
        <time>2018-08-05T07:52:04Z</time>
      </trkpt>
      <trkpt lat="44.31655" lon="6.51782">
        <ele>1814.1</ele>
        <time>2018-08-05T07:52:07Z</time>
      </trkpt>
      <trkpt lat="44.31653" lon="6.51785">
        <ele>1814.4</ele>
        <time>2018-08-05T07:52:12Z</time>
      </trkpt>
      <trkpt lat="44.31653" lon="6.51789">
        <ele>1814.7</ele>
        <time>2018-08-05T07:52:17Z</time>
      </trkpt>
      <trkpt lat="44.31652" lon="6.51793">
        <ele>1815</ele>
        <time>2018-08-05T07:52:23Z</time>
      </trkpt>
      <trkpt lat="44.31649" lon="6.51793">
        <ele>1815.4</ele>
        <time>2018-08-05T07:52:28Z</time>
      </trkpt>
      <trkpt lat="44.31646" lon="6.51791">
        <ele>1815.7</ele>
        <time>2018-08-05T07:52:30Z</time>
      </trkpt>
      <trkpt lat="44.31646" lon="6.51787">
        <ele>1816</ele>
        <time>2018-08-05T07:52:34Z</time>
      </trkpt>
      <trkpt lat="44.31646" lon="6.51783">
        <ele>1816.3</ele>
        <time>2018-08-05T07:52:40Z</time>
      </trkpt>
      <trkpt lat="44.31647" lon="6.51779">
        <ele>1816.5</ele>
        <time>2018-08-05T07:52:44Z</time>
      </trkpt>
      <trkpt lat="44.31647" lon="6.51775">
        <ele>1816.8</ele>
        <time>2018-08-05T07:52:48Z</time>
      </trkpt>
      <trkpt lat="44.31647" lon="6.51771">
        <ele>1817</ele>
        <time>2018-08-05T07:52:52Z</time>
      </trkpt>
      <trkpt lat="44.31646" lon="6.51767">
        <ele>1817.2</ele>
        <time>2018-08-05T07:52:58Z</time>
      </trkpt>
      <trkpt lat="44.31648" lon="6.51763">
        <ele>1817.4</ele>
        <time>2018-08-05T07:53:02Z</time>
      </trkpt>
      <trkpt lat="44.31646" lon="6.51759">
        <ele>1818</ele>
        <time>2018-08-05T07:53:10Z</time>
      </trkpt>
      <trkpt lat="44.31643" lon="6.51756">
        <ele>1818.5</ele>
        <time>2018-08-05T07:53:12Z</time>
      </trkpt>
      <trkpt lat="44.3164" lon="6.51753">
        <ele>1819.2</ele>
        <time>2018-08-05T07:53:15Z</time>
      </trkpt>
      <trkpt lat="44.31636" lon="6.51751">
        <ele>1819.9</ele>
        <time>2018-08-05T07:53:18Z</time>
      </trkpt>
      <trkpt lat="44.31633" lon="6.51749">
        <ele>1820.3</ele>
        <time>2018-08-05T07:53:20Z</time>
      </trkpt>
      <trkpt lat="44.3163" lon="6.51747">
        <ele>1820.8</ele>
        <time>2018-08-05T07:53:23Z</time>
      </trkpt>
      <trkpt lat="44.31628" lon="6.51744">
        <ele>1821.2</ele>
        <time>2018-08-05T07:53:26Z</time>
      </trkpt>
      <trkpt lat="44.31625" lon="6.51743">
        <ele>1821.6</ele>
        <time>2018-08-05T07:53:28Z</time>
      </trkpt>
      <trkpt lat="44.31621" lon="6.51742">
        <ele>1822.1</ele>
        <time>2018-08-05T07:53:30Z</time>
      </trkpt>
      <trkpt lat="44.31618" lon="6.51739">
        <ele>1822.6</ele>
        <time>2018-08-05T07:53:34Z</time>
      </trkpt>
      <trkpt lat="44.31615" lon="6.51737">
        <ele>1823.2</ele>
        <time>2018-08-05T07:53:40Z</time>
      </trkpt>
      <trkpt lat="44.31611" lon="6.51735">
        <ele>1823.8</ele>
        <time>2018-08-05T07:53:43Z</time>
      </trkpt>
      <trkpt lat="44.31609" lon="6.51731">
        <ele>1824.3</ele>
        <time>2018-08-05T07:53:45Z</time>
      </trkpt>
      <trkpt lat="44.31606" lon="6.51728">
        <ele>1824.8</ele>
        <time>2018-08-05T07:53:49Z</time>
      </trkpt>
      <trkpt lat="44.31603" lon="6.51726">
        <ele>1825.1</ele>
        <time>2018-08-05T07:53:54Z</time>
      </trkpt>
      <trkpt lat="44.31604" lon="6.51721">
        <ele>1825.6</ele>
        <time>2018-08-05T07:53:58Z</time>
      </trkpt>
      <trkpt lat="44.31605" lon="6.51716">
        <ele>1826.1</ele>
        <time>2018-08-05T07:54:01Z</time>
      </trkpt>
      <trkpt lat="44.31608" lon="6.51711">
        <ele>1826.7</ele>
        <time>2018-08-05T07:54:04Z</time>
      </trkpt>
      <trkpt lat="44.31608" lon="6.51706">
        <ele>1827.1</ele>
        <time>2018-08-05T07:54:06Z</time>
      </trkpt>
      <trkpt lat="44.31609" lon="6.51703">
        <ele>1827.5</ele>
        <time>2018-08-05T07:54:08Z</time>
      </trkpt>
      <trkpt lat="44.3161" lon="6.51699">
        <ele>1827.8</ele>
        <time>2018-08-05T07:54:11Z</time>
      </trkpt>
      <trkpt lat="44.31608" lon="6.51692">
        <ele>1828.5</ele>
        <time>2018-08-05T07:54:16Z</time>
      </trkpt>
      <trkpt lat="44.31605" lon="6.51689">
        <ele>1828.9</ele>
        <time>2018-08-05T07:54:19Z</time>
      </trkpt>
      <trkpt lat="44.316" lon="6.51689">
        <ele>1829.3</ele>
        <time>2018-08-05T07:54:22Z</time>
      </trkpt>
      <trkpt lat="44.31598" lon="6.51687">
        <ele>1829.5</ele>
        <time>2018-08-05T07:54:25Z</time>
      </trkpt>
      <trkpt lat="44.31594" lon="6.51687">
        <ele>1829.9</ele>
        <time>2018-08-05T07:54:28Z</time>
      </trkpt>
      <trkpt lat="44.3159" lon="6.51687">
        <ele>1830.4</ele>
        <time>2018-08-05T07:54:31Z</time>
      </trkpt>
      <trkpt lat="44.31587" lon="6.51687">
        <ele>1830.8</ele>
        <time>2018-08-05T07:54:37Z</time>
      </trkpt>
      <trkpt lat="44.31583" lon="6.51686">
        <ele>1831.2</ele>
        <time>2018-08-05T07:54:41Z</time>
      </trkpt>
      <trkpt lat="44.3158" lon="6.51686">
        <ele>1831.4</ele>
        <time>2018-08-05T07:54:43Z</time>
      </trkpt>
      <trkpt lat="44.31577" lon="6.51689">
        <ele>1831.6</ele>
        <time>2018-08-05T07:54:46Z</time>
      </trkpt>
      <trkpt lat="44.31574" lon="6.51691">
        <ele>1831.9</ele>
        <time>2018-08-05T07:54:49Z</time>
      </trkpt>
      <trkpt lat="44.3157" lon="6.51693">
        <ele>1832.3</ele>
        <time>2018-08-05T07:54:52Z</time>
      </trkpt>
      <trkpt lat="44.31565" lon="6.51695">
        <ele>1832.7</ele>
        <time>2018-08-05T07:54:56Z</time>
      </trkpt>
      <trkpt lat="44.31563" lon="6.51699">
        <ele>1833</ele>
        <time>2018-08-05T07:55:02Z</time>
      </trkpt>
      <trkpt lat="44.31559" lon="6.51698">
        <ele>1833.2</ele>
        <time>2018-08-05T07:55:05Z</time>
      </trkpt>
      <trkpt lat="44.31556" lon="6.51698">
        <ele>1833.4</ele>
        <time>2018-08-05T07:55:06Z</time>
      </trkpt>
      <trkpt lat="44.31545" lon="6.51695">
        <ele>1833.9</ele>
        <time>2018-08-05T07:55:08Z</time>
      </trkpt>
      <trkpt lat="44.31542" lon="6.51693">
        <ele>1834.1</ele>
        <time>2018-08-05T07:55:11Z</time>
      </trkpt>
      <trkpt lat="44.31538" lon="6.51697">
        <ele>1834.4</ele>
        <time>2018-08-05T07:55:15Z</time>
      </trkpt>
      <trkpt lat="44.31532" lon="6.51696">
        <ele>1834.8</ele>
        <time>2018-08-05T07:55:23Z</time>
      </trkpt>
      <trkpt lat="44.3153" lon="6.51697">
        <ele>1835</ele>
        <time>2018-08-05T07:55:26Z</time>
      </trkpt>
      <trkpt lat="44.31527" lon="6.51697">
        <ele>1835.1</ele>
        <time>2018-08-05T07:55:29Z</time>
      </trkpt>
      <trkpt lat="44.31523" lon="6.51698">
        <ele>1835.2</ele>
        <time>2018-08-05T07:55:32Z</time>
      </trkpt>
      <trkpt lat="44.31521" lon="6.51702">
        <ele>1835.3</ele>
        <time>2018-08-05T07:55:36Z</time>
      </trkpt>
      <trkpt lat="44.3152" lon="6.51706">
        <ele>1835.4</ele>
        <time>2018-08-05T07:55:38Z</time>
      </trkpt>
      <trkpt lat="44.31518" lon="6.5171">
        <ele>1835.3</ele>
        <time>2018-08-05T07:55:40Z</time>
      </trkpt>
      <trkpt lat="44.31516" lon="6.51714">
        <ele>1835.3</ele>
        <time>2018-08-05T07:55:42Z</time>
      </trkpt>
      <trkpt lat="44.31513" lon="6.51716">
        <ele>1835.3</ele>
        <time>2018-08-05T07:55:44Z</time>
      </trkpt>
      <trkpt lat="44.3151" lon="6.51721">
        <ele>1835.3</ele>
        <time>2018-08-05T07:55:47Z</time>
      </trkpt>
      <trkpt lat="44.31507" lon="6.51724">
        <ele>1835.4</ele>
        <time>2018-08-05T07:55:49Z</time>
      </trkpt>
      <trkpt lat="44.31504" lon="6.51727">
        <ele>1835.5</ele>
        <time>2018-08-05T07:55:51Z</time>
      </trkpt>
      <trkpt lat="44.31501" lon="6.51729">
        <ele>1835.6</ele>
        <time>2018-08-05T07:55:53Z</time>
      </trkpt>
      <trkpt lat="44.31499" lon="6.51731">
        <ele>1835.7</ele>
        <time>2018-08-05T07:55:55Z</time>
      </trkpt>
      <trkpt lat="44.31496" lon="6.51734">
        <ele>1835.9</ele>
        <time>2018-08-05T07:55:57Z</time>
      </trkpt>
      <trkpt lat="44.31495" lon="6.51738">
        <ele>1836.2</ele>
        <time>2018-08-05T07:56:00Z</time>
      </trkpt>
      <trkpt lat="44.31494" lon="6.51743">
        <ele>1836.5</ele>
        <time>2018-08-05T07:56:02Z</time>
      </trkpt>
      <trkpt lat="44.31493" lon="6.51748">
        <ele>1836.9</ele>
        <time>2018-08-05T07:56:04Z</time>
      </trkpt>
      <trkpt lat="44.31491" lon="6.51752">
        <ele>1837.2</ele>
        <time>2018-08-05T07:56:06Z</time>
      </trkpt>
      <trkpt lat="44.3149" lon="6.51756">
        <ele>1837.6</ele>
        <time>2018-08-05T07:56:08Z</time>
      </trkpt>
      <trkpt lat="44.31487" lon="6.51758">
        <ele>1837.9</ele>
        <time>2018-08-05T07:56:10Z</time>
      </trkpt>
      <trkpt lat="44.31485" lon="6.51763">
        <ele>1838.6</ele>
        <time>2018-08-05T07:56:12Z</time>
      </trkpt>
      <trkpt lat="44.31483" lon="6.51769">
        <ele>1839.1</ele>
        <time>2018-08-05T07:56:14Z</time>
      </trkpt>
      <trkpt lat="44.31479" lon="6.51772">
        <ele>1839.6</ele>
        <time>2018-08-05T07:56:16Z</time>
      </trkpt>
      <trkpt lat="44.31476" lon="6.51776">
        <ele>1840</ele>
        <time>2018-08-05T07:56:18Z</time>
      </trkpt>
      <trkpt lat="44.31474" lon="6.51779">
        <ele>1840.3</ele>
        <time>2018-08-05T07:56:20Z</time>
      </trkpt>
      <trkpt lat="44.31471" lon="6.51782">
        <ele>1840.6</ele>
        <time>2018-08-05T07:56:22Z</time>
      </trkpt>
      <trkpt lat="44.31468" lon="6.51785">
        <ele>1840.8</ele>
        <time>2018-08-05T07:56:24Z</time>
      </trkpt>
      <trkpt lat="44.31465" lon="6.51788">
        <ele>1840.9</ele>
        <time>2018-08-05T07:56:26Z</time>
      </trkpt>
      <trkpt lat="44.31463" lon="6.5179">
        <ele>1841.2</ele>
        <time>2018-08-05T07:56:28Z</time>
      </trkpt>
      <trkpt lat="44.3146" lon="6.51791">
        <ele>1841.6</ele>
        <time>2018-08-05T07:56:31Z</time>
      </trkpt>
      <trkpt lat="44.31457" lon="6.51792">
        <ele>1842.1</ele>
        <time>2018-08-05T07:56:34Z</time>
      </trkpt>
      <trkpt lat="44.31454" lon="6.51793">
        <ele>1842.8</ele>
        <time>2018-08-05T07:56:36Z</time>
      </trkpt>
      <trkpt lat="44.31452" lon="6.51794">
        <ele>1843.5</ele>
        <time>2018-08-05T07:56:38Z</time>
      </trkpt>
      <trkpt lat="44.31447" lon="6.51792">
        <ele>1844.6</ele>
        <time>2018-08-05T07:56:40Z</time>
      </trkpt>
      <trkpt lat="44.31444" lon="6.51789">
        <ele>1845.2</ele>
        <time>2018-08-05T07:56:42Z</time>
      </trkpt>
      <trkpt lat="44.31441" lon="6.5179">
        <ele>1845.6</ele>
        <time>2018-08-05T07:56:45Z</time>
      </trkpt>
      <trkpt lat="44.31437" lon="6.51791">
        <ele>1846</ele>
        <time>2018-08-05T07:56:47Z</time>
      </trkpt>
      <trkpt lat="44.31434" lon="6.51792">
        <ele>1846.7</ele>
        <time>2018-08-05T07:56:49Z</time>
      </trkpt>
      <trkpt lat="44.31431" lon="6.51793">
        <ele>1847.4</ele>
        <time>2018-08-05T07:56:51Z</time>
      </trkpt>
      <trkpt lat="44.31428" lon="6.51796">
        <ele>1848.1</ele>
        <time>2018-08-05T07:56:53Z</time>
      </trkpt>
      <trkpt lat="44.31425" lon="6.51799">
        <ele>1848.8</ele>
        <time>2018-08-05T07:56:55Z</time>
      </trkpt>
      <trkpt lat="44.31423" lon="6.51801">
        <ele>1849.3</ele>
        <time>2018-08-05T07:56:57Z</time>
      </trkpt>
      <trkpt lat="44.3142" lon="6.51804">
        <ele>1850.1</ele>
        <time>2018-08-05T07:56:59Z</time>
      </trkpt>
      <trkpt lat="44.31419" lon="6.51808">
        <ele>1851</ele>
        <time>2018-08-05T07:57:01Z</time>
      </trkpt>
      <trkpt lat="44.31417" lon="6.51811">
        <ele>1851.7</ele>
        <time>2018-08-05T07:57:03Z</time>
      </trkpt>
      <trkpt lat="44.31414" lon="6.51814">
        <ele>1852.6</ele>
        <time>2018-08-05T07:57:06Z</time>
      </trkpt>
      <trkpt lat="44.31412" lon="6.51818">
        <ele>1853.6</ele>
        <time>2018-08-05T07:57:09Z</time>
      </trkpt>
      <trkpt lat="44.3141" lon="6.51822">
        <ele>1854.3</ele>
        <time>2018-08-05T07:57:12Z</time>
      </trkpt>
      <trkpt lat="44.3141" lon="6.51826">
        <ele>1854.7</ele>
        <time>2018-08-05T07:57:14Z</time>
      </trkpt>
      <trkpt lat="44.31407" lon="6.51831">
        <ele>1855.3</ele>
        <time>2018-08-05T07:57:18Z</time>
      </trkpt>
      <trkpt lat="44.31404" lon="6.51834">
        <ele>1856.1</ele>
        <time>2018-08-05T07:57:21Z</time>
      </trkpt>
      <trkpt lat="44.31402" lon="6.51838">
        <ele>1856.8</ele>
        <time>2018-08-05T07:57:24Z</time>
      </trkpt>
      <trkpt lat="44.314" lon="6.51842">
        <ele>1857.4</ele>
        <time>2018-08-05T07:57:26Z</time>
      </trkpt>
      <trkpt lat="44.31398" lon="6.51845">
        <ele>1857.8</ele>
        <time>2018-08-05T07:57:28Z</time>
      </trkpt>
      <trkpt lat="44.31397" lon="6.5185">
        <ele>1858.3</ele>
        <time>2018-08-05T07:57:31Z</time>
      </trkpt>
      <trkpt lat="44.31394" lon="6.51853">
        <ele>1859</ele>
        <time>2018-08-05T07:57:34Z</time>
      </trkpt>
      <trkpt lat="44.31392" lon="6.51857">
        <ele>1859.9</ele>
        <time>2018-08-05T07:57:37Z</time>
      </trkpt>
      <trkpt lat="44.3139" lon="6.51861">
        <ele>1860.5</ele>
        <time>2018-08-05T07:57:39Z</time>
      </trkpt>
      <trkpt lat="44.31389" lon="6.51865">
        <ele>1860.9</ele>
        <time>2018-08-05T07:57:42Z</time>
      </trkpt>
      <trkpt lat="44.31386" lon="6.51868">
        <ele>1861.4</ele>
        <time>2018-08-05T07:57:45Z</time>
      </trkpt>
      <trkpt lat="44.31385" lon="6.51872">
        <ele>1862</ele>
        <time>2018-08-05T07:57:48Z</time>
      </trkpt>
      <trkpt lat="44.31383" lon="6.51876">
        <ele>1862.9</ele>
        <time>2018-08-05T07:57:51Z</time>
      </trkpt>
      <trkpt lat="44.31381" lon="6.5188">
        <ele>1863.6</ele>
        <time>2018-08-05T07:57:54Z</time>
      </trkpt>
      <trkpt lat="44.31378" lon="6.51885">
        <ele>1864.2</ele>
        <time>2018-08-05T07:57:57Z</time>
      </trkpt>
      <trkpt lat="44.31376" lon="6.51887">
        <ele>1864.6</ele>
        <time>2018-08-05T07:57:59Z</time>
      </trkpt>
      <trkpt lat="44.31373" lon="6.51891">
        <ele>1865.3</ele>
        <time>2018-08-05T07:58:02Z</time>
      </trkpt>
      <trkpt lat="44.3137" lon="6.51894">
        <ele>1865.9</ele>
        <time>2018-08-05T07:58:05Z</time>
      </trkpt>
      <trkpt lat="44.31368" lon="6.51898">
        <ele>1866.4</ele>
        <time>2018-08-05T07:58:08Z</time>
      </trkpt>
      <trkpt lat="44.31365" lon="6.51901">
        <ele>1866.1</ele>
        <time>2018-08-05T07:58:11Z</time>
      </trkpt>
      <trkpt lat="44.31362" lon="6.51903">
        <ele>1866.5</ele>
        <time>2018-08-05T07:58:17Z</time>
      </trkpt>
      <trkpt lat="44.31359" lon="6.51905">
        <ele>1866.2</ele>
        <time>2018-08-05T07:58:21Z</time>
      </trkpt>
      <trkpt lat="44.31358" lon="6.51908">
        <ele>1866.6</ele>
        <time>2018-08-05T07:58:25Z</time>
      </trkpt>
      <trkpt lat="44.31357" lon="6.51912">
        <ele>1867.1</ele>
        <time>2018-08-05T07:58:28Z</time>
      </trkpt>
      <trkpt lat="44.31356" lon="6.51916">
        <ele>1867.6</ele>
        <time>2018-08-05T07:58:31Z</time>
      </trkpt>
      <trkpt lat="44.31358" lon="6.51919">
        <ele>1868.2</ele>
        <time>2018-08-05T07:58:36Z</time>
      </trkpt>
      <trkpt lat="44.31361" lon="6.51921">
        <ele>1868.2</ele>
        <time>2018-08-05T07:58:40Z</time>
      </trkpt>
      <trkpt lat="44.31363" lon="6.51924">
        <ele>1869</ele>
        <time>2018-08-05T07:58:55Z</time>
      </trkpt>
      <trkpt lat="44.31367" lon="6.51923">
        <ele>1868.2</ele>
        <time>2018-08-05T07:58:59Z</time>
      </trkpt>
      <trkpt lat="44.3137" lon="6.51924">
        <ele>1869</ele>
        <time>2018-08-05T07:59:04Z</time>
      </trkpt>
      <trkpt lat="44.31372" lon="6.51923">
        <ele>1868</ele>
        <time>2018-08-05T07:59:16Z</time>
      </trkpt>
      <trkpt lat="44.31376" lon="6.51923">
        <ele>1868.9</ele>
        <time>2018-08-05T07:59:20Z</time>
      </trkpt>
      <trkpt lat="44.31379" lon="6.51923">
        <ele>1869.3</ele>
        <time>2018-08-05T07:59:23Z</time>
      </trkpt>
      <trkpt lat="44.31383" lon="6.51925">
        <ele>1869.8</ele>
        <time>2018-08-05T07:59:26Z</time>
      </trkpt>
      <trkpt lat="44.31386" lon="6.51925">
        <ele>1870.6</ele>
        <time>2018-08-05T07:59:29Z</time>
      </trkpt>
      <trkpt lat="44.31389" lon="6.51925">
        <ele>1871.2</ele>
        <time>2018-08-05T07:59:32Z</time>
      </trkpt>
      <trkpt lat="44.31392" lon="6.51926">
        <ele>1871.9</ele>
        <time>2018-08-05T07:59:35Z</time>
      </trkpt>
      <trkpt lat="44.31395" lon="6.51929">
        <ele>1872.4</ele>
        <time>2018-08-05T07:59:38Z</time>
      </trkpt>
      <trkpt lat="44.31398" lon="6.5193">
        <ele>1872.8</ele>
        <time>2018-08-05T07:59:42Z</time>
      </trkpt>
      <trkpt lat="44.314" lon="6.51931">
        <ele>1873.2</ele>
        <time>2018-08-05T07:59:45Z</time>
      </trkpt>
      <trkpt lat="44.31403" lon="6.51932">
        <ele>1873.8</ele>
        <time>2018-08-05T07:59:49Z</time>
      </trkpt>
      <trkpt lat="44.31407" lon="6.51933">
        <ele>1874.6</ele>
        <time>2018-08-05T07:59:55Z</time>
      </trkpt>
      <trkpt lat="44.31409" lon="6.51935">
        <ele>1875.3</ele>
        <time>2018-08-05T07:59:57Z</time>
      </trkpt>
      <trkpt lat="44.31412" lon="6.51936">
        <ele>1875.6</ele>
        <time>2018-08-05T07:59:59Z</time>
      </trkpt>
      <trkpt lat="44.31415" lon="6.51936">
        <ele>1876</ele>
        <time>2018-08-05T08:00:01Z</time>
      </trkpt>
      <trkpt lat="44.31418" lon="6.51937">
        <ele>1876.4</ele>
        <time>2018-08-05T08:00:03Z</time>
      </trkpt>
      <trkpt lat="44.31421" lon="6.51939">
        <ele>1877</ele>
        <time>2018-08-05T08:00:06Z</time>
      </trkpt>
      <trkpt lat="44.31424" lon="6.51941">
        <ele>1877.7</ele>
        <time>2018-08-05T08:00:09Z</time>
      </trkpt>
      <trkpt lat="44.31426" lon="6.51944">
        <ele>1878.2</ele>
        <time>2018-08-05T08:00:11Z</time>
      </trkpt>
      <trkpt lat="44.31428" lon="6.51946">
        <ele>1878.8</ele>
        <time>2018-08-05T08:00:13Z</time>
      </trkpt>
      <trkpt lat="44.3143" lon="6.5195">
        <ele>1879.4</ele>
        <time>2018-08-05T08:00:15Z</time>
      </trkpt>
      <trkpt lat="44.31432" lon="6.51953">
        <ele>1880</ele>
        <time>2018-08-05T08:00:18Z</time>
      </trkpt>
      <trkpt lat="44.31434" lon="6.51955">
        <ele>1880.3</ele>
        <time>2018-08-05T08:00:20Z</time>
      </trkpt>
      <trkpt lat="44.31436" lon="6.51959">
        <ele>1880.5</ele>
        <time>2018-08-05T08:00:23Z</time>
      </trkpt>
      <trkpt lat="44.3144" lon="6.5196">
        <ele>1880.9</ele>
        <time>2018-08-05T08:00:28Z</time>
      </trkpt>
      <trkpt lat="44.31442" lon="6.51964">
        <ele>1881.6</ele>
        <time>2018-08-05T08:00:31Z</time>
      </trkpt>
      <trkpt lat="44.31445" lon="6.51967">
        <ele>1882.2</ele>
        <time>2018-08-05T08:00:33Z</time>
      </trkpt>
      <trkpt lat="44.31448" lon="6.51969">
        <ele>1882.7</ele>
        <time>2018-08-05T08:00:36Z</time>
      </trkpt>
      <trkpt lat="44.31451" lon="6.51971">
        <ele>1882.9</ele>
        <time>2018-08-05T08:00:38Z</time>
      </trkpt>
      <trkpt lat="44.31453" lon="6.51975">
        <ele>1883.1</ele>
        <time>2018-08-05T08:00:41Z</time>
      </trkpt>
      <trkpt lat="44.31456" lon="6.51979">
        <ele>1883.7</ele>
        <time>2018-08-05T08:00:44Z</time>
      </trkpt>
      <trkpt lat="44.31458" lon="6.51982">
        <ele>1884.3</ele>
        <time>2018-08-05T08:00:47Z</time>
      </trkpt>
      <trkpt lat="44.31462" lon="6.51983">
        <ele>1884.9</ele>
        <time>2018-08-05T08:00:50Z</time>
      </trkpt>
      <trkpt lat="44.31465" lon="6.51982">
        <ele>1885.4</ele>
        <time>2018-08-05T08:00:52Z</time>
      </trkpt>
      <trkpt lat="44.31469" lon="6.51983">
        <ele>1886.1</ele>
        <time>2018-08-05T08:00:55Z</time>
      </trkpt>
      <trkpt lat="44.31471" lon="6.51986">
        <ele>1886.3</ele>
        <time>2018-08-05T08:00:59Z</time>
      </trkpt>
      <trkpt lat="44.31474" lon="6.51987">
        <ele>1886.4</ele>
        <time>2018-08-05T08:01:01Z</time>
      </trkpt>
      <trkpt lat="44.31476" lon="6.5199">
        <ele>1886.5</ele>
        <time>2018-08-05T08:01:03Z</time>
      </trkpt>
      <trkpt lat="44.31479" lon="6.51993">
        <ele>1886.8</ele>
        <time>2018-08-05T08:01:05Z</time>
      </trkpt>
      <trkpt lat="44.31481" lon="6.51997">
        <ele>1887.4</ele>
        <time>2018-08-05T08:01:08Z</time>
      </trkpt>
      <trkpt lat="44.31481" lon="6.52001">
        <ele>1888</ele>
        <time>2018-08-05T08:01:10Z</time>
      </trkpt>
      <trkpt lat="44.31482" lon="6.52006">
        <ele>1888</ele>
        <time>2018-08-05T08:01:13Z</time>
      </trkpt>
      <trkpt lat="44.31485" lon="6.52011">
        <ele>1888</ele>
        <time>2018-08-05T08:01:16Z</time>
      </trkpt>
      <trkpt lat="44.31488" lon="6.52013">
        <ele>1888.4</ele>
        <time>2018-08-05T08:01:18Z</time>
      </trkpt>
      <trkpt lat="44.31492" lon="6.52015">
        <ele>1889</ele>
        <time>2018-08-05T08:01:21Z</time>
      </trkpt>
      <trkpt lat="44.31494" lon="6.52017">
        <ele>1889.4</ele>
        <time>2018-08-05T08:01:23Z</time>
      </trkpt>
      <trkpt lat="44.31498" lon="6.5202">
        <ele>1889.9</ele>
        <time>2018-08-05T08:01:26Z</time>
      </trkpt>
      <trkpt lat="44.31501" lon="6.52021">
        <ele>1890.3</ele>
        <time>2018-08-05T08:01:28Z</time>
      </trkpt>
      <trkpt lat="44.31504" lon="6.52025">
        <ele>1890.7</ele>
        <time>2018-08-05T08:01:30Z</time>
      </trkpt>
      <trkpt lat="44.31507" lon="6.52027">
        <ele>1891.2</ele>
        <time>2018-08-05T08:01:33Z</time>
      </trkpt>
      <trkpt lat="44.31508" lon="6.52031">
        <ele>1891.6</ele>
        <time>2018-08-05T08:01:36Z</time>
      </trkpt>
      <trkpt lat="44.3151" lon="6.52034">
        <ele>1892</ele>
        <time>2018-08-05T08:01:39Z</time>
      </trkpt>
      <trkpt lat="44.31512" lon="6.52037">
        <ele>1892.5</ele>
        <time>2018-08-05T08:01:43Z</time>
      </trkpt>
      <trkpt lat="44.31515" lon="6.52042">
        <ele>1893.3</ele>
        <time>2018-08-05T08:01:46Z</time>
      </trkpt>
      <trkpt lat="44.31517" lon="6.52046">
        <ele>1894.4</ele>
        <time>2018-08-05T08:01:50Z</time>
      </trkpt>
      <trkpt lat="44.3152" lon="6.5205">
        <ele>1895.5</ele>
        <time>2018-08-05T08:01:53Z</time>
      </trkpt>
      <trkpt lat="44.31522" lon="6.52054">
        <ele>1896.2</ele>
        <time>2018-08-05T08:01:56Z</time>
      </trkpt>
      <trkpt lat="44.31525" lon="6.52057">
        <ele>1896.9</ele>
        <time>2018-08-05T08:01:58Z</time>
      </trkpt>
      <trkpt lat="44.31527" lon="6.5206">
        <ele>1897.5</ele>
        <time>2018-08-05T08:02:00Z</time>
      </trkpt>
      <trkpt lat="44.3153" lon="6.52062">
        <ele>1897.8</ele>
        <time>2018-08-05T08:02:02Z</time>
      </trkpt>
      <trkpt lat="44.31533" lon="6.52067">
        <ele>1898.3</ele>
        <time>2018-08-05T08:02:05Z</time>
      </trkpt>
      <trkpt lat="44.31535" lon="6.5207">
        <ele>1898.7</ele>
        <time>2018-08-05T08:02:08Z</time>
      </trkpt>
      <trkpt lat="44.31537" lon="6.52073">
        <ele>1899.1</ele>
        <time>2018-08-05T08:02:10Z</time>
      </trkpt>
      <trkpt lat="44.3154" lon="6.52075">
        <ele>1899.6</ele>
        <time>2018-08-05T08:02:14Z</time>
      </trkpt>
      <trkpt lat="44.31543" lon="6.52078">
        <ele>1900</ele>
        <time>2018-08-05T08:02:16Z</time>
      </trkpt>
      <trkpt lat="44.31545" lon="6.5208">
        <ele>1900.5</ele>
        <time>2018-08-05T08:02:18Z</time>
      </trkpt>
      <trkpt lat="44.31549" lon="6.52082">
        <ele>1900.9</ele>
        <time>2018-08-05T08:02:20Z</time>
      </trkpt>
      <trkpt lat="44.31552" lon="6.52086">
        <ele>1901.4</ele>
        <time>2018-08-05T08:02:22Z</time>
      </trkpt>
      <trkpt lat="44.31554" lon="6.5209">
        <ele>1901.8</ele>
        <time>2018-08-05T08:02:24Z</time>
      </trkpt>
      <trkpt lat="44.31557" lon="6.52093">
        <ele>1902.3</ele>
        <time>2018-08-05T08:02:28Z</time>
      </trkpt>
      <trkpt lat="44.31561" lon="6.52094">
        <ele>1902.7</ele>
        <time>2018-08-05T08:02:31Z</time>
      </trkpt>
      <trkpt lat="44.31564" lon="6.52097">
        <ele>1903.2</ele>
        <time>2018-08-05T08:02:33Z</time>
      </trkpt>
      <trkpt lat="44.31566" lon="6.521">
        <ele>1903.7</ele>
        <time>2018-08-05T08:02:35Z</time>
      </trkpt>
      <trkpt lat="44.31569" lon="6.52103">
        <ele>1904.1</ele>
        <time>2018-08-05T08:02:38Z</time>
      </trkpt>
      <trkpt lat="44.3157" lon="6.52107">
        <ele>1904.6</ele>
        <time>2018-08-05T08:02:40Z</time>
      </trkpt>
      <trkpt lat="44.31573" lon="6.5211">
        <ele>1905.2</ele>
        <time>2018-08-05T08:02:43Z</time>
      </trkpt>
      <trkpt lat="44.31575" lon="6.52113">
        <ele>1905.6</ele>
        <time>2018-08-05T08:02:50Z</time>
      </trkpt>
      <trkpt lat="44.31578" lon="6.52113">
        <ele>1906</ele>
        <time>2018-08-05T08:03:02Z</time>
      </trkpt>
      <trkpt lat="44.31582" lon="6.52116">
        <ele>1906.5</ele>
        <time>2018-08-05T08:03:04Z</time>
      </trkpt>
      <trkpt lat="44.31585" lon="6.52118">
        <ele>1907</ele>
        <time>2018-08-05T08:03:08Z</time>
      </trkpt>
      <trkpt lat="44.31587" lon="6.52122">
        <ele>1907.3</ele>
        <time>2018-08-05T08:03:11Z</time>
      </trkpt>
      <trkpt lat="44.3159" lon="6.52124">
        <ele>1907.5</ele>
        <time>2018-08-05T08:03:14Z</time>
      </trkpt>
      <trkpt lat="44.3159" lon="6.52128">
        <ele>1907.8</ele>
        <time>2018-08-05T08:03:16Z</time>
      </trkpt>
      <trkpt lat="44.31594" lon="6.5213">
        <ele>1908.1</ele>
        <time>2018-08-05T08:03:23Z</time>
      </trkpt>
      <trkpt lat="44.31597" lon="6.52129">
        <ele>1908.5</ele>
        <time>2018-08-05T08:03:25Z</time>
      </trkpt>
      <trkpt lat="44.31599" lon="6.52133">
        <ele>1908.8</ele>
        <time>2018-08-05T08:03:28Z</time>
      </trkpt>
      <trkpt lat="44.31602" lon="6.52135">
        <ele>1909.2</ele>
        <time>2018-08-05T08:03:32Z</time>
      </trkpt>
      <trkpt lat="44.31605" lon="6.52138">
        <ele>1909.6</ele>
        <time>2018-08-05T08:03:34Z</time>
      </trkpt>
      <trkpt lat="44.31607" lon="6.5214">
        <ele>1910</ele>
        <time>2018-08-05T08:03:37Z</time>
      </trkpt>
      <trkpt lat="44.31611" lon="6.52141">
        <ele>1910.1</ele>
        <time>2018-08-05T08:03:42Z</time>
      </trkpt>
      <trkpt lat="44.31614" lon="6.52143">
        <ele>1910.2</ele>
        <time>2018-08-05T08:03:45Z</time>
      </trkpt>
      <trkpt lat="44.31616" lon="6.52145">
        <ele>1910.3</ele>
        <time>2018-08-05T08:03:48Z</time>
      </trkpt>
      <trkpt lat="44.31618" lon="6.52148">
        <ele>1910.4</ele>
        <time>2018-08-05T08:03:53Z</time>
      </trkpt>
      <trkpt lat="44.31621" lon="6.52151">
        <ele>1910.5</ele>
        <time>2018-08-05T08:04:01Z</time>
      </trkpt>
      <trkpt lat="44.31625" lon="6.52151">
        <ele>1909.4</ele>
        <time>2018-08-05T08:04:03Z</time>
      </trkpt>
      <trkpt lat="44.31627" lon="6.52152">
        <ele>1908.2</ele>
        <time>2018-08-05T08:04:04Z</time>
      </trkpt>
      <trkpt lat="44.31631" lon="6.52151">
        <ele>1906.9</ele>
        <time>2018-08-05T08:04:07Z</time>
      </trkpt>
      <trkpt lat="44.31634" lon="6.52152">
        <ele>1905.4</ele>
        <time>2018-08-05T08:04:09Z</time>
      </trkpt>
      <trkpt lat="44.31636" lon="6.52154">
        <ele>1903.8</ele>
        <time>2018-08-05T08:04:11Z</time>
      </trkpt>
      <trkpt lat="44.31639" lon="6.52155">
        <ele>1903.7</ele>
        <time>2018-08-05T08:04:13Z</time>
      </trkpt>
      <trkpt lat="44.31643" lon="6.52157">
        <ele>1902.3</ele>
        <time>2018-08-05T08:04:15Z</time>
      </trkpt>
      <trkpt lat="44.31647" lon="6.5216">
        <ele>1902.2</ele>
        <time>2018-08-05T08:04:17Z</time>
      </trkpt>
      <trkpt lat="44.31649" lon="6.52162">
        <ele>1900.8</ele>
        <time>2018-08-05T08:04:19Z</time>
      </trkpt>
      <trkpt lat="44.31653" lon="6.52172">
        <ele>1903.7</ele>
        <time>2018-08-05T08:04:24Z</time>
      </trkpt>
      <trkpt lat="44.31652" lon="6.52177">
        <ele>1905.2</ele>
        <time>2018-08-05T08:04:26Z</time>
      </trkpt>
      <trkpt lat="44.31652" lon="6.52183">
        <ele>1906.9</ele>
        <time>2018-08-05T08:04:28Z</time>
      </trkpt>
      <trkpt lat="44.31653" lon="6.52187">
        <ele>1908.6</ele>
        <time>2018-08-05T08:04:31Z</time>
      </trkpt>
      <trkpt lat="44.31655" lon="6.52191">
        <ele>1908.9</ele>
        <time>2018-08-05T08:04:43Z</time>
      </trkpt>
      <trkpt lat="44.31659" lon="6.52191">
        <ele>1907.5</ele>
        <time>2018-08-05T08:04:46Z</time>
      </trkpt>
      <trkpt lat="44.31661" lon="6.52193">
        <ele>1907.8</ele>
        <time>2018-08-05T08:04:48Z</time>
      </trkpt>
      <trkpt lat="44.31665" lon="6.52196">
        <ele>1906.3</ele>
        <time>2018-08-05T08:04:50Z</time>
      </trkpt>
      <trkpt lat="44.31667" lon="6.52201">
        <ele>1906.6</ele>
        <time>2018-08-05T08:04:52Z</time>
      </trkpt>
      <trkpt lat="44.3167" lon="6.52205">
        <ele>1906.8</ele>
        <time>2018-08-05T08:04:54Z</time>
      </trkpt>
      <trkpt lat="44.31671" lon="6.5221">
        <ele>1910.2</ele>
        <time>2018-08-05T08:04:56Z</time>
      </trkpt>
      <trkpt lat="44.31673" lon="6.52214">
        <ele>1908.7</ele>
        <time>2018-08-05T08:05:02Z</time>
      </trkpt>
      <trkpt lat="44.31676" lon="6.52215">
        <ele>1909</ele>
        <time>2018-08-05T08:05:04Z</time>
      </trkpt>
      <trkpt lat="44.31679" lon="6.52216">
        <ele>1907.6</ele>
        <time>2018-08-05T08:05:06Z</time>
      </trkpt>
      <trkpt lat="44.31681" lon="6.52221">
        <ele>1909.4</ele>
        <time>2018-08-05T08:05:11Z</time>
      </trkpt>
      <trkpt lat="44.31682" lon="6.52226">
        <ele>1909.9</ele>
        <time>2018-08-05T08:05:15Z</time>
      </trkpt>
      <trkpt lat="44.31683" lon="6.52231">
        <ele>1911.9</ele>
        <time>2018-08-05T08:05:17Z</time>
      </trkpt>
      <trkpt lat="44.31685" lon="6.52236">
        <ele>1912.4</ele>
        <time>2018-08-05T08:05:19Z</time>
      </trkpt>
      <trkpt lat="44.31688" lon="6.52241">
        <ele>1916.6</ele>
        <time>2018-08-05T08:05:22Z</time>
      </trkpt>
      <trkpt lat="44.3169" lon="6.52245">
        <ele>1917.1</ele>
        <time>2018-08-05T08:05:24Z</time>
      </trkpt>
      <trkpt lat="44.31692" lon="6.5225">
        <ele>1917.6</ele>
        <time>2018-08-05T08:05:26Z</time>
      </trkpt>
      <trkpt lat="44.31694" lon="6.52253">
        <ele>1917.9</ele>
        <time>2018-08-05T08:05:28Z</time>
      </trkpt>
      <trkpt lat="44.31695" lon="6.52257">
        <ele>1918</ele>
        <time>2018-08-05T08:05:41Z</time>
      </trkpt>
      <trkpt lat="44.31699" lon="6.52257">
        <ele>1916.4</ele>
        <time>2018-08-05T08:05:48Z</time>
      </trkpt>
      <trkpt lat="44.31702" lon="6.52258">
        <ele>1916.8</ele>
        <time>2018-08-05T08:05:51Z</time>
      </trkpt>
      <trkpt lat="44.31701" lon="6.52263">
        <ele>1918.9</ele>
        <time>2018-08-05T08:05:57Z</time>
      </trkpt>
      <trkpt lat="44.31704" lon="6.52268">
        <ele>1919.6</ele>
        <time>2018-08-05T08:06:12Z</time>
      </trkpt>
      <trkpt lat="44.31707" lon="6.5227">
        <ele>1918.3</ele>
        <time>2018-08-05T08:06:14Z</time>
      </trkpt>
      <trkpt lat="44.3171" lon="6.52273">
        <ele>1919.4</ele>
        <time>2018-08-05T08:06:16Z</time>
      </trkpt>
      <trkpt lat="44.31713" lon="6.52277">
        <ele>1918.5</ele>
        <time>2018-08-05T08:06:18Z</time>
      </trkpt>
      <trkpt lat="44.31717" lon="6.52281">
        <ele>1917.7</ele>
        <time>2018-08-05T08:06:20Z</time>
      </trkpt>
      <trkpt lat="44.3172" lon="6.52283">
        <ele>1916.9</ele>
        <time>2018-08-05T08:06:22Z</time>
      </trkpt>
      <trkpt lat="44.31724" lon="6.52284">
        <ele>1916.3</ele>
        <time>2018-08-05T08:06:24Z</time>
      </trkpt>
      <trkpt lat="44.31726" lon="6.52286">
        <ele>1915.9</ele>
        <time>2018-08-05T08:06:26Z</time>
      </trkpt>
      <trkpt lat="44.3173" lon="6.52288">
        <ele>1915.3</ele>
        <time>2018-08-05T08:06:28Z</time>
      </trkpt>
      <trkpt lat="44.31733" lon="6.52291">
        <ele>1914.5</ele>
        <time>2018-08-05T08:06:30Z</time>
      </trkpt>
      <trkpt lat="44.31736" lon="6.52293">
        <ele>1913.6</ele>
        <time>2018-08-05T08:06:32Z</time>
      </trkpt>
      <trkpt lat="44.31738" lon="6.5229">
        <ele>1912.6</ele>
        <time>2018-08-05T08:08:35Z</time>
      </trkpt>
      <trkpt lat="44.31739" lon="6.52294">
        <ele>1911.8</ele>
        <time>2018-08-05T08:08:41Z</time>
      </trkpt>
      <trkpt lat="44.31741" lon="6.52298">
        <ele>1911</ele>
        <time>2018-08-05T08:08:46Z</time>
      </trkpt>
      <trkpt lat="44.31743" lon="6.52301">
        <ele>1910.6</ele>
        <time>2018-08-05T08:08:50Z</time>
      </trkpt>
      <trkpt lat="44.31743" lon="6.52306">
        <ele>1910.2</ele>
        <time>2018-08-05T08:08:53Z</time>
      </trkpt>
      <trkpt lat="44.31746" lon="6.52308">
        <ele>1910</ele>
        <time>2018-08-05T08:08:56Z</time>
      </trkpt>
      <trkpt lat="44.31749" lon="6.52309">
        <ele>1909.4</ele>
        <time>2018-08-05T08:08:59Z</time>
      </trkpt>
      <trkpt lat="44.31752" lon="6.5231">
        <ele>1908.4</ele>
        <time>2018-08-05T08:09:02Z</time>
      </trkpt>
      <trkpt lat="44.31755" lon="6.52312">
        <ele>1907.4</ele>
        <time>2018-08-05T08:09:06Z</time>
      </trkpt>
      <trkpt lat="44.31757" lon="6.52314">
        <ele>1906.4</ele>
        <time>2018-08-05T08:09:09Z</time>
      </trkpt>
      <trkpt lat="44.31761" lon="6.52313">
        <ele>1905.4</ele>
        <time>2018-08-05T08:09:13Z</time>
      </trkpt>
      <trkpt lat="44.31764" lon="6.52313">
        <ele>1905.1</ele>
        <time>2018-08-05T08:09:16Z</time>
      </trkpt>
      <trkpt lat="44.31767" lon="6.52313">
        <ele>1904.8</ele>
        <time>2018-08-05T08:09:19Z</time>
      </trkpt>
      <trkpt lat="44.3177" lon="6.52314">
        <ele>1904.4</ele>
        <time>2018-08-05T08:09:24Z</time>
      </trkpt>
      <trkpt lat="44.31772" lon="6.52311">
        <ele>1904.1</ele>
        <time>2018-08-05T08:09:28Z</time>
      </trkpt>
      <trkpt lat="44.31775" lon="6.52313">
        <ele>1903.5</ele>
        <time>2018-08-05T08:09:32Z</time>
      </trkpt>
      <trkpt lat="44.31778" lon="6.52316">
        <ele>1902.8</ele>
        <time>2018-08-05T08:09:35Z</time>
      </trkpt>
      <trkpt lat="44.3178" lon="6.52311">
        <ele>1902.1</ele>
        <time>2018-08-05T08:09:39Z</time>
      </trkpt>
      <trkpt lat="44.31782" lon="6.52313">
        <ele>1901.6</ele>
        <time>2018-08-05T08:09:42Z</time>
      </trkpt>
      <trkpt lat="44.31783" lon="6.52309">
        <ele>1901.4</ele>
        <time>2018-08-05T08:09:46Z</time>
      </trkpt>
      <trkpt lat="44.31785" lon="6.52312">
        <ele>1901.1</ele>
        <time>2018-08-05T08:09:48Z</time>
      </trkpt>
      <trkpt lat="44.31788" lon="6.52313">
        <ele>1900.9</ele>
        <time>2018-08-05T08:09:53Z</time>
      </trkpt>
      <trkpt lat="44.3179" lon="6.52315">
        <ele>1900.6</ele>
        <time>2018-08-05T08:10:05Z</time>
      </trkpt>
      <trkpt lat="44.31793" lon="6.52313">
        <ele>1899.8</ele>
        <time>2018-08-05T08:10:16Z</time>
      </trkpt>
      <trkpt lat="44.31797" lon="6.52315">
        <ele>1898.7</ele>
        <time>2018-08-05T08:10:21Z</time>
      </trkpt>
      <trkpt lat="44.31799" lon="6.52318">
        <ele>1897.8</ele>
        <time>2018-08-05T08:10:25Z</time>
      </trkpt>
      <trkpt lat="44.31802" lon="6.52319">
        <ele>1897.1</ele>
        <time>2018-08-05T08:10:32Z</time>
      </trkpt>
      <trkpt lat="44.31805" lon="6.52319">
        <ele>1895.9</ele>
        <time>2018-08-05T08:10:35Z</time>
      </trkpt>
      <trkpt lat="44.31808" lon="6.52322">
        <ele>1894.7</ele>
        <time>2018-08-05T08:10:37Z</time>
      </trkpt>
      <trkpt lat="44.31812" lon="6.52324">
        <ele>1896.1</ele>
        <time>2018-08-05T08:10:39Z</time>
      </trkpt>
      <trkpt lat="44.31814" lon="6.52327">
        <ele>1897.8</ele>
        <time>2018-08-05T08:10:41Z</time>
      </trkpt>
      <trkpt lat="44.31817" lon="6.52331">
        <ele>1899.6</ele>
        <time>2018-08-05T08:10:43Z</time>
      </trkpt>
      <trkpt lat="44.31815" lon="6.52334">
        <ele>1900.6</ele>
        <time>2018-08-05T08:10:53Z</time>
      </trkpt>
      <trkpt lat="44.31816" lon="6.52329">
        <ele>1898</ele>
        <time>2018-08-05T08:10:57Z</time>
      </trkpt>
      <trkpt lat="44.31813" lon="6.52328">
        <ele>1899.1</ele>
        <time>2018-08-05T08:11:05Z</time>
      </trkpt>
      <trkpt lat="44.3181" lon="6.52327">
        <ele>1900.3</ele>
        <time>2018-08-05T08:11:08Z</time>
      </trkpt>
      <trkpt lat="44.31807" lon="6.52327">
        <ele>1901.6</ele>
        <time>2018-08-05T08:11:11Z</time>
      </trkpt>
      <trkpt lat="44.31806" lon="6.52331">
        <ele>1904.3</ele>
        <time>2018-08-05T08:11:25Z</time>
      </trkpt>
      <trkpt lat="44.31808" lon="6.52334">
        <ele>1903.2</ele>
        <time>2018-08-05T08:11:27Z</time>
      </trkpt>
      <trkpt lat="44.31811" lon="6.52336">
        <ele>1904.7</ele>
        <time>2018-08-05T08:11:31Z</time>
      </trkpt>
      <trkpt lat="44.31813" lon="6.52338">
        <ele>1904.8</ele>
        <time>2018-08-05T08:11:35Z</time>
      </trkpt>
      <trkpt lat="44.31815" lon="6.52342">
        <ele>1906.4</ele>
        <time>2018-08-05T08:11:39Z</time>
      </trkpt>
      <trkpt lat="44.31817" lon="6.52345">
        <ele>1907.9</ele>
        <time>2018-08-05T08:11:42Z</time>
      </trkpt>
      <trkpt lat="44.31819" lon="6.52349">
        <ele>1910.4</ele>
        <time>2018-08-05T08:11:46Z</time>
      </trkpt>
      <trkpt lat="44.31822" lon="6.52351">
        <ele>1909.5</ele>
        <time>2018-08-05T08:11:51Z</time>
      </trkpt>
      <trkpt lat="44.31819" lon="6.52351">
        <ele>1910.5</ele>
        <time>2018-08-05T08:11:57Z</time>
      </trkpt>
      <trkpt lat="44.31816" lon="6.5235">
        <ele>1911.6</ele>
        <time>2018-08-05T08:12:00Z</time>
      </trkpt>
      <trkpt lat="44.31813" lon="6.52348">
        <ele>1910.3</ele>
        <time>2018-08-05T08:12:03Z</time>
      </trkpt>
      <trkpt lat="44.31811" lon="6.52348">
        <ele>1911.5</ele>
        <time>2018-08-05T08:12:07Z</time>
      </trkpt>
      <trkpt lat="44.31808" lon="6.52346">
        <ele>1911.5</ele>
        <time>2018-08-05T08:12:10Z</time>
      </trkpt>
      <trkpt lat="44.31804" lon="6.52345">
        <ele>1914</ele>
        <time>2018-08-05T08:12:15Z</time>
      </trkpt>
      <trkpt lat="44.31802" lon="6.52343">
        <ele>1914</ele>
        <time>2018-08-05T08:12:18Z</time>
      </trkpt>
      <trkpt lat="44.31799" lon="6.52342">
        <ele>1912.7</ele>
        <time>2018-08-05T08:12:23Z</time>
      </trkpt>
      <trkpt lat="44.31796" lon="6.52341">
        <ele>1913.8</ele>
        <time>2018-08-05T08:12:27Z</time>
      </trkpt>
      <trkpt lat="44.31793" lon="6.52341">
        <ele>1914.9</ele>
        <time>2018-08-05T08:12:31Z</time>
      </trkpt>
      <trkpt lat="44.3179" lon="6.5234">
        <ele>1915.9</ele>
        <time>2018-08-05T08:12:35Z</time>
      </trkpt>
      <trkpt lat="44.31787" lon="6.52339">
        <ele>1917.1</ele>
        <time>2018-08-05T08:12:38Z</time>
      </trkpt>
      <trkpt lat="44.31783" lon="6.52337">
        <ele>1915.8</ele>
        <time>2018-08-05T08:12:43Z</time>
      </trkpt>
      <trkpt lat="44.31781" lon="6.52335">
        <ele>1914.4</ele>
        <time>2018-08-05T08:12:47Z</time>
      </trkpt>
      <trkpt lat="44.31778" lon="6.52332">
        <ele>1915.7</ele>
        <time>2018-08-05T08:12:50Z</time>
      </trkpt>
      <trkpt lat="44.31775" lon="6.52334">
        <ele>1917</ele>
        <time>2018-08-05T08:12:55Z</time>
      </trkpt>
      <trkpt lat="44.31778" lon="6.52337">
        <ele>1918.5</ele>
        <time>2018-08-05T08:13:17Z</time>
      </trkpt>
      <trkpt lat="44.31779" lon="6.5234">
        <ele>1921.1</ele>
        <time>2018-08-05T08:13:20Z</time>
      </trkpt>
      <trkpt lat="44.31782" lon="6.52344">
        <ele>1922.4</ele>
        <time>2018-08-05T08:13:25Z</time>
      </trkpt>
      <trkpt lat="44.31784" lon="6.52347">
        <ele>1921.2</ele>
        <time>2018-08-05T08:13:28Z</time>
      </trkpt>
      <trkpt lat="44.31787" lon="6.52349">
        <ele>1922.6</ele>
        <time>2018-08-05T08:13:32Z</time>
      </trkpt>
      <trkpt lat="44.31789" lon="6.52352">
        <ele>1925.1</ele>
        <time>2018-08-05T08:13:37Z</time>
      </trkpt>
      <trkpt lat="44.31791" lon="6.52355">
        <ele>1924.1</ele>
        <time>2018-08-05T08:13:40Z</time>
      </trkpt>
      <trkpt lat="44.31794" lon="6.52359">
        <ele>1925.8</ele>
        <time>2018-08-05T08:13:44Z</time>
      </trkpt>
      <trkpt lat="44.31795" lon="6.52362">
        <ele>1928.7</ele>
        <time>2018-08-05T08:13:48Z</time>
      </trkpt>
      <trkpt lat="44.31799" lon="6.52365">
        <ele>1929.6</ele>
        <time>2018-08-05T08:13:54Z</time>
      </trkpt>
      <trkpt lat="44.31802" lon="6.52367">
        <ele>1928.5</ele>
        <time>2018-08-05T08:13:58Z</time>
      </trkpt>
      <trkpt lat="44.31804" lon="6.52369">
        <ele>1931.4</ele>
        <time>2018-08-05T08:14:02Z</time>
      </trkpt>
      <trkpt lat="44.31807" lon="6.52372">
        <ele>1930.3</ele>
        <time>2018-08-05T08:14:06Z</time>
      </trkpt>
      <trkpt lat="44.31809" lon="6.52376">
        <ele>1931.9</ele>
        <time>2018-08-05T08:14:10Z</time>
      </trkpt>
      <trkpt lat="44.31812" lon="6.52378">
        <ele>1933.4</ele>
        <time>2018-08-05T08:14:13Z</time>
      </trkpt>
      <trkpt lat="44.31814" lon="6.52382">
        <ele>1932.4</ele>
        <time>2018-08-05T08:14:18Z</time>
      </trkpt>
      <trkpt lat="44.31816" lon="6.52385">
        <ele>1935.1</ele>
        <time>2018-08-05T08:14:28Z</time>
      </trkpt>
      <trkpt lat="44.31818" lon="6.52388">
        <ele>1936.7</ele>
        <time>2018-08-05T08:14:32Z</time>
      </trkpt>
      <trkpt lat="44.3182" lon="6.52391">
        <ele>1938.3</ele>
        <time>2018-08-05T08:14:36Z</time>
      </trkpt>
      <trkpt lat="44.31823" lon="6.52394">
        <ele>1937.2</ele>
        <time>2018-08-05T08:14:41Z</time>
      </trkpt>
      <trkpt lat="44.31826" lon="6.52398">
        <ele>1938.6</ele>
        <time>2018-08-05T08:14:45Z</time>
      </trkpt>
      <trkpt lat="44.31829" lon="6.52401">
        <ele>1941.2</ele>
        <time>2018-08-05T08:14:48Z</time>
      </trkpt>
      <trkpt lat="44.3183" lon="6.52404">
        <ele>1942.5</ele>
        <time>2018-08-05T08:14:51Z</time>
      </trkpt>
      <trkpt lat="44.31833" lon="6.52406">
        <ele>1941.2</ele>
        <time>2018-08-05T08:14:56Z</time>
      </trkpt>
      <trkpt lat="44.31836" lon="6.52409">
        <ele>1942.6</ele>
        <time>2018-08-05T08:15:03Z</time>
      </trkpt>
      <trkpt lat="44.31839" lon="6.5241">
        <ele>1941.4</ele>
        <time>2018-08-05T08:15:11Z</time>
      </trkpt>
      <trkpt lat="44.31841" lon="6.52412">
        <ele>1944.3</ele>
        <time>2018-08-05T08:15:14Z</time>
      </trkpt>
      <trkpt lat="44.31843" lon="6.52415">
        <ele>1943.2</ele>
        <time>2018-08-05T08:15:18Z</time>
      </trkpt>
      <trkpt lat="44.31844" lon="6.52419">
        <ele>1946.1</ele>
        <time>2018-08-05T08:15:22Z</time>
      </trkpt>
      <trkpt lat="44.31845" lon="6.52422">
        <ele>1947.8</ele>
        <time>2018-08-05T08:15:25Z</time>
      </trkpt>
      <trkpt lat="44.31843" lon="6.52419">
        <ele>1946.2</ele>
        <time>2018-08-05T08:15:40Z</time>
      </trkpt>
      <trkpt lat="44.31841" lon="6.52417">
        <ele>1947.4</ele>
        <time>2018-08-05T08:15:47Z</time>
      </trkpt>
      <trkpt lat="44.31838" lon="6.52415">
        <ele>1945.9</ele>
        <time>2018-08-05T08:15:52Z</time>
      </trkpt>
      <trkpt lat="44.31835" lon="6.52415">
        <ele>1947.3</ele>
        <time>2018-08-05T08:15:55Z</time>
      </trkpt>
      <trkpt lat="44.31832" lon="6.52416">
        <ele>1948.7</ele>
        <time>2018-08-05T08:16:00Z</time>
      </trkpt>
      <trkpt lat="44.31829" lon="6.52414">
        <ele>1950.1</ele>
        <time>2018-08-05T08:16:06Z</time>
      </trkpt>
      <trkpt lat="44.31826" lon="6.52415">
        <ele>1950.2</ele>
        <time>2018-08-05T08:16:12Z</time>
      </trkpt>
      <trkpt lat="44.31823" lon="6.52415">
        <ele>1951.5</ele>
        <time>2018-08-05T08:16:16Z</time>
      </trkpt>
      <trkpt lat="44.3182" lon="6.52413">
        <ele>1952.6</ele>
        <time>2018-08-05T08:16:19Z</time>
      </trkpt>
      <trkpt lat="44.31822" lon="6.52417">
        <ele>1955.6</ele>
        <time>2018-08-05T08:16:26Z</time>
      </trkpt>
      <trkpt lat="44.31824" lon="6.52421">
        <ele>1957.4</ele>
        <time>2018-08-05T08:16:35Z</time>
      </trkpt>
      <trkpt lat="44.31827" lon="6.52421">
        <ele>1956.2</ele>
        <time>2018-08-05T08:16:39Z</time>
      </trkpt>
      <trkpt lat="44.3183" lon="6.52423">
        <ele>1954.9</ele>
        <time>2018-08-05T08:16:43Z</time>
      </trkpt>
      <trkpt lat="44.31831" lon="6.52427">
        <ele>1957.7</ele>
        <time>2018-08-05T08:16:48Z</time>
      </trkpt>
      <trkpt lat="44.31833" lon="6.52431">
        <ele>1958.9</ele>
        <time>2018-08-05T08:16:53Z</time>
      </trkpt>
      <trkpt lat="44.31833" lon="6.52435">
        <ele>1961.5</ele>
        <time>2018-08-05T08:17:02Z</time>
      </trkpt>
      <trkpt lat="44.31832" lon="6.5243">
        <ele>1960.5</ele>
        <time>2018-08-05T08:17:23Z</time>
      </trkpt>
      <trkpt lat="44.3183" lon="6.52427">
        <ele>1958</ele>
        <time>2018-08-05T08:17:26Z</time>
      </trkpt>
      <trkpt lat="44.31827" lon="6.52426">
        <ele>1959.4</ele>
        <time>2018-08-05T08:17:30Z</time>
      </trkpt>
      <trkpt lat="44.31824" lon="6.52427">
        <ele>1960.7</ele>
        <time>2018-08-05T08:17:35Z</time>
      </trkpt>
      <trkpt lat="44.31825" lon="6.52431">
        <ele>1963.4</ele>
        <time>2018-08-05T08:17:39Z</time>
      </trkpt>
      <trkpt lat="44.31827" lon="6.52435">
        <ele>1964.7</ele>
        <time>2018-08-05T08:17:45Z</time>
      </trkpt>
      <trkpt lat="44.31828" lon="6.52438">
        <ele>1967.3</ele>
        <time>2018-08-05T08:17:51Z</time>
      </trkpt>
      <trkpt lat="44.31827" lon="6.52442">
        <ele>1967.4</ele>
        <time>2018-08-05T08:17:55Z</time>
      </trkpt>
      <trkpt lat="44.31824" lon="6.52444">
        <ele>1971.3</ele>
        <time>2018-08-05T08:18:22Z</time>
      </trkpt>
      <trkpt lat="44.31825" lon="6.52448">
        <ele>1974.1</ele>
        <time>2018-08-05T08:18:36Z</time>
      </trkpt>
      <trkpt lat="44.31824" lon="6.52452">
        <ele>1977</ele>
        <time>2018-08-05T08:18:42Z</time>
      </trkpt>
      <trkpt lat="44.31826" lon="6.52455">
        <ele>1978.5</ele>
        <time>2018-08-05T08:18:51Z</time>
      </trkpt>
      <trkpt lat="44.31824" lon="6.52452">
        <ele>1977.1</ele>
        <time>2018-08-05T08:19:05Z</time>
      </trkpt>
      <trkpt lat="44.31822" lon="6.52448">
        <ele>1976</ele>
        <time>2018-08-05T08:19:10Z</time>
      </trkpt>
      <trkpt lat="44.3182" lon="6.52445">
        <ele>1975.3</ele>
        <time>2018-08-05T08:19:18Z</time>
      </trkpt>
      <trkpt lat="44.31817" lon="6.52445">
        <ele>1974.7</ele>
        <time>2018-08-05T08:19:23Z</time>
      </trkpt>
      <trkpt lat="44.31814" lon="6.52442">
        <ele>1974</ele>
        <time>2018-08-05T08:19:27Z</time>
      </trkpt>
      <trkpt lat="44.31812" lon="6.5244">
        <ele>1973.3</ele>
        <time>2018-08-05T08:19:31Z</time>
      </trkpt>
      <trkpt lat="44.31808" lon="6.52438">
        <ele>1972.6</ele>
        <time>2018-08-05T08:19:36Z</time>
      </trkpt>
      <trkpt lat="44.31806" lon="6.52436">
        <ele>1971.9</ele>
        <time>2018-08-05T08:19:39Z</time>
      </trkpt>
      <trkpt lat="44.31803" lon="6.52435">
        <ele>1971.2</ele>
        <time>2018-08-05T08:19:47Z</time>
      </trkpt>
      <trkpt lat="44.318" lon="6.52433">
        <ele>1970.6</ele>
        <time>2018-08-05T08:19:53Z</time>
      </trkpt>
      <trkpt lat="44.31797" lon="6.52432">
        <ele>1969.5</ele>
        <time>2018-08-05T08:20:41Z</time>
      </trkpt>
      <trkpt lat="44.31798" lon="6.52436">
        <ele>1970.5</ele>
        <time>2018-08-05T08:20:47Z</time>
      </trkpt>
      <trkpt lat="44.31798" lon="6.52441">
        <ele>1971.6</ele>
        <time>2018-08-05T08:20:52Z</time>
      </trkpt>
      <trkpt lat="44.318" lon="6.52444">
        <ele>1972.5</ele>
        <time>2018-08-05T08:20:57Z</time>
      </trkpt>
      <trkpt lat="44.31802" lon="6.52447">
        <ele>1973.6</ele>
        <time>2018-08-05T08:21:02Z</time>
      </trkpt>
      <trkpt lat="44.31805" lon="6.52451">
        <ele>1974.8</ele>
        <time>2018-08-05T08:21:06Z</time>
      </trkpt>
      <trkpt lat="44.31806" lon="6.52455">
        <ele>1975.7</ele>
        <time>2018-08-05T08:21:10Z</time>
      </trkpt>
      <trkpt lat="44.31808" lon="6.52457">
        <ele>1976.5</ele>
        <time>2018-08-05T08:21:14Z</time>
      </trkpt>
      <trkpt lat="44.31809" lon="6.52462">
        <ele>1979.2</ele>
        <time>2018-08-05T08:21:17Z</time>
      </trkpt>
      <trkpt lat="44.3181" lon="6.52466">
        <ele>1981.7</ele>
        <time>2018-08-05T08:21:27Z</time>
      </trkpt>
      <trkpt lat="44.31813" lon="6.52466">
        <ele>1983.9</ele>
        <time>2018-08-05T08:21:30Z</time>
      </trkpt>
      <trkpt lat="44.31812" lon="6.52471">
        <ele>1985.7</ele>
        <time>2018-08-05T08:21:33Z</time>
      </trkpt>
      <trkpt lat="44.31815" lon="6.52473">
        <ele>1987.5</ele>
        <time>2018-08-05T08:21:39Z</time>
      </trkpt>
      <trkpt lat="44.31818" lon="6.52475">
        <ele>1989.5</ele>
        <time>2018-08-05T08:21:43Z</time>
      </trkpt>
      <trkpt lat="44.3182" lon="6.52479">
        <ele>1991.4</ele>
        <time>2018-08-05T08:22:22Z</time>
      </trkpt>
      <trkpt lat="44.31822" lon="6.52481">
        <ele>1993.3</ele>
        <time>2018-08-05T08:22:25Z</time>
      </trkpt>
      <trkpt lat="44.31823" lon="6.52486">
        <ele>1995.4</ele>
        <time>2018-08-05T08:22:29Z</time>
      </trkpt>
      <trkpt lat="44.31825" lon="6.52488">
        <ele>1997</ele>
        <time>2018-08-05T08:22:32Z</time>
      </trkpt>
      <trkpt lat="44.31827" lon="6.52492">
        <ele>1998.7</ele>
        <time>2018-08-05T08:22:36Z</time>
      </trkpt>
      <trkpt lat="44.31829" lon="6.52495">
        <ele>2000.2</ele>
        <time>2018-08-05T08:22:39Z</time>
      </trkpt>
      <trkpt lat="44.3183" lon="6.52499">
        <ele>2002.1</ele>
        <time>2018-08-05T08:22:43Z</time>
      </trkpt>
      <trkpt lat="44.31832" lon="6.52502">
        <ele>2000.7</ele>
        <time>2018-08-05T08:22:48Z</time>
      </trkpt>
      <trkpt lat="44.31835" lon="6.52504">
        <ele>2003.4</ele>
        <time>2018-08-05T08:22:53Z</time>
      </trkpt>
      <trkpt lat="44.31836" lon="6.52507">
        <ele>2004.5</ele>
        <time>2018-08-05T08:22:58Z</time>
      </trkpt>
      <trkpt lat="44.31839" lon="6.52509">
        <ele>2003.2</ele>
        <time>2018-08-05T08:23:02Z</time>
      </trkpt>
      <trkpt lat="44.31841" lon="6.52513">
        <ele>2005.8</ele>
        <time>2018-08-05T08:23:14Z</time>
      </trkpt>
      <trkpt lat="44.31844" lon="6.52515">
        <ele>2004.5</ele>
        <time>2018-08-05T08:23:19Z</time>
      </trkpt>
      <trkpt lat="44.31846" lon="6.52518">
        <ele>2005.6</ele>
        <time>2018-08-05T08:23:23Z</time>
      </trkpt>
      <trkpt lat="44.31848" lon="6.52521">
        <ele>2006.4</ele>
        <time>2018-08-05T08:23:28Z</time>
      </trkpt>
      <trkpt lat="44.3185" lon="6.52524">
        <ele>2008.6</ele>
        <time>2018-08-05T08:23:34Z</time>
      </trkpt>
      <trkpt lat="44.31853" lon="6.52525">
        <ele>2007.3</ele>
        <time>2018-08-05T08:23:51Z</time>
      </trkpt>
      <trkpt lat="44.31852" lon="6.52529">
        <ele>2009.4</ele>
        <time>2018-08-05T08:23:59Z</time>
      </trkpt>
      <trkpt lat="44.31849" lon="6.52527">
        <ele>2009.2</ele>
        <time>2018-08-05T08:24:02Z</time>
      </trkpt>
      <trkpt lat="44.31847" lon="6.52524">
        <ele>2008.8</ele>
        <time>2018-08-05T08:24:06Z</time>
      </trkpt>
      <trkpt lat="44.31844" lon="6.52523">
        <ele>2010.3</ele>
        <time>2018-08-05T08:24:15Z</time>
      </trkpt>
      <trkpt lat="44.31842" lon="6.52522">
        <ele>2010.5</ele>
        <time>2018-08-05T08:24:19Z</time>
      </trkpt>
      <trkpt lat="44.31838" lon="6.5252">
        <ele>2013.6</ele>
        <time>2018-08-05T08:24:26Z</time>
      </trkpt>
      <trkpt lat="44.31835" lon="6.52519">
        <ele>2013.3</ele>
        <time>2018-08-05T08:24:30Z</time>
      </trkpt>
      <trkpt lat="44.31832" lon="6.52518">
        <ele>2012.2</ele>
        <time>2018-08-05T08:24:35Z</time>
      </trkpt>
      <trkpt lat="44.31829" lon="6.52517">
        <ele>2011</ele>
        <time>2018-08-05T08:24:39Z</time>
      </trkpt>
      <trkpt lat="44.31826" lon="6.52516">
        <ele>2009.8</ele>
        <time>2018-08-05T08:24:43Z</time>
      </trkpt>
      <trkpt lat="44.31824" lon="6.52516">
        <ele>2008.7</ele>
        <time>2018-08-05T08:24:46Z</time>
      </trkpt>
      <trkpt lat="44.31821" lon="6.52516">
        <ele>2007.5</ele>
        <time>2018-08-05T08:24:51Z</time>
      </trkpt>
      <trkpt lat="44.31818" lon="6.52513">
        <ele>2006.1</ele>
        <time>2018-08-05T08:24:57Z</time>
      </trkpt>
      <trkpt lat="44.31816" lon="6.52511">
        <ele>2005</ele>
        <time>2018-08-05T08:25:01Z</time>
      </trkpt>
      <trkpt lat="44.31813" lon="6.52511">
        <ele>2003.7</ele>
        <time>2018-08-05T08:25:06Z</time>
      </trkpt>
      <trkpt lat="44.3181" lon="6.52509">
        <ele>2002.6</ele>
        <time>2018-08-05T08:25:10Z</time>
      </trkpt>
      <trkpt lat="44.31807" lon="6.52509">
        <ele>2001.3</ele>
        <time>2018-08-05T08:25:15Z</time>
      </trkpt>
      <trkpt lat="44.31804" lon="6.52507">
        <ele>2000</ele>
        <time>2018-08-05T08:25:19Z</time>
      </trkpt>
      <trkpt lat="44.31801" lon="6.52505">
        <ele>1999.1</ele>
        <time>2018-08-05T08:25:23Z</time>
      </trkpt>
      <trkpt lat="44.31799" lon="6.52502">
        <ele>1998</ele>
        <time>2018-08-05T08:25:27Z</time>
      </trkpt>
      <trkpt lat="44.31796" lon="6.52499">
        <ele>1997</ele>
        <time>2018-08-05T08:25:31Z</time>
      </trkpt>
      <trkpt lat="44.31794" lon="6.52496">
        <ele>1995.9</ele>
        <time>2018-08-05T08:25:35Z</time>
      </trkpt>
      <trkpt lat="44.31791" lon="6.52496">
        <ele>2003.2</ele>
        <time>2018-08-05T08:25:48Z</time>
      </trkpt>
      <trkpt lat="44.31788" lon="6.52495">
        <ele>2010.7</ele>
        <time>2018-08-05T08:25:51Z</time>
      </trkpt>
      <trkpt lat="44.31785" lon="6.52495">
        <ele>2018.1</ele>
        <time>2018-08-05T08:25:54Z</time>
      </trkpt>
      <trkpt lat="44.31782" lon="6.52496">
        <ele>2025.6</ele>
        <time>2018-08-05T08:26:01Z</time>
      </trkpt>
      <trkpt lat="44.31779" lon="6.52494">
        <ele>2025.9</ele>
        <time>2018-08-05T08:26:06Z</time>
      </trkpt>
      <trkpt lat="44.31776" lon="6.52496">
        <ele>2025.8</ele>
        <time>2018-08-05T08:26:09Z</time>
      </trkpt>
      <trkpt lat="44.31773" lon="6.52496">
        <ele>2025.7</ele>
        <time>2018-08-05T08:26:16Z</time>
      </trkpt>
      <trkpt lat="44.31771" lon="6.52494">
        <ele>2025.6</ele>
        <time>2018-08-05T08:26:19Z</time>
      </trkpt>
      <trkpt lat="44.31767" lon="6.52492">
        <ele>2025.7</ele>
        <time>2018-08-05T08:26:21Z</time>
      </trkpt>
      <trkpt lat="44.31764" lon="6.52492">
        <ele>2025.8</ele>
        <time>2018-08-05T08:26:23Z</time>
      </trkpt>
      <trkpt lat="44.31762" lon="6.52492">
        <ele>2025.9</ele>
        <time>2018-08-05T08:26:27Z</time>
      </trkpt>
      <trkpt lat="44.3176" lon="6.52488">
        <ele>2025.1</ele>
        <time>2018-08-05T08:26:34Z</time>
      </trkpt>
      <trkpt lat="44.31756" lon="6.52486">
        <ele>2024.2</ele>
        <time>2018-08-05T08:26:37Z</time>
      </trkpt>
      <trkpt lat="44.31754" lon="6.52484">
        <ele>2023.6</ele>
        <time>2018-08-05T08:26:40Z</time>
      </trkpt>
      <trkpt lat="44.31751" lon="6.52483">
        <ele>2023.4</ele>
        <time>2018-08-05T08:26:43Z</time>
      </trkpt>
      <trkpt lat="44.31748" lon="6.52483">
        <ele>2023.2</ele>
        <time>2018-08-05T08:26:52Z</time>
      </trkpt>
      <trkpt lat="44.31745" lon="6.52481">
        <ele>2023</ele>
        <time>2018-08-05T08:26:58Z</time>
      </trkpt>
      <trkpt lat="44.31742" lon="6.52477">
        <ele>2022.9</ele>
        <time>2018-08-05T08:27:00Z</time>
      </trkpt>
      <trkpt lat="44.3174" lon="6.52474">
        <ele>2022.9</ele>
        <time>2018-08-05T08:27:03Z</time>
      </trkpt>
      <trkpt lat="44.31737" lon="6.52471">
        <ele>2022.8</ele>
        <time>2018-08-05T08:27:07Z</time>
      </trkpt>
      <trkpt lat="44.31736" lon="6.52468">
        <ele>2022.5</ele>
        <time>2018-08-05T08:27:11Z</time>
      </trkpt>
      <trkpt lat="44.31733" lon="6.52472">
        <ele>2022.2</ele>
        <time>2018-08-05T08:27:52Z</time>
      </trkpt>
      <trkpt lat="44.31732" lon="6.52476">
        <ele>2022.2</ele>
        <time>2018-08-05T08:27:57Z</time>
      </trkpt>
      <trkpt lat="44.31732" lon="6.52481">
        <ele>2022.5</ele>
        <time>2018-08-05T08:28:04Z</time>
      </trkpt>
      <trkpt lat="44.31734" lon="6.52484">
        <ele>2022.7</ele>
        <time>2018-08-05T08:28:07Z</time>
      </trkpt>
      <trkpt lat="44.31736" lon="6.52488">
        <ele>2022.9</ele>
        <time>2018-08-05T08:28:17Z</time>
      </trkpt>
      <trkpt lat="44.31737" lon="6.52492">
        <ele>2022.9</ele>
        <time>2018-08-05T08:28:19Z</time>
      </trkpt>
      <trkpt lat="44.31738" lon="6.52496">
        <ele>2023</ele>
        <time>2018-08-05T08:28:23Z</time>
      </trkpt>
      <trkpt lat="44.31739" lon="6.525">
        <ele>2023.1</ele>
        <time>2018-08-05T08:28:28Z</time>
      </trkpt>
      <trkpt lat="44.31742" lon="6.52503">
        <ele>2023.2</ele>
        <time>2018-08-05T08:28:31Z</time>
      </trkpt>
      <trkpt lat="44.31742" lon="6.52508">
        <ele>2023.5</ele>
        <time>2018-08-05T08:28:36Z</time>
      </trkpt>
      <trkpt lat="44.31744" lon="6.5251">
        <ele>2023.7</ele>
        <time>2018-08-05T08:28:41Z</time>
      </trkpt>
      <trkpt lat="44.31744" lon="6.52514">
        <ele>2024.3</ele>
        <time>2018-08-05T08:28:44Z</time>
      </trkpt>
      <trkpt lat="44.31747" lon="6.52518">
        <ele>2025</ele>
        <time>2018-08-05T08:28:57Z</time>
      </trkpt>
      <trkpt lat="44.31749" lon="6.52521">
        <ele>2025.8</ele>
        <time>2018-08-05T08:29:01Z</time>
      </trkpt>
      <trkpt lat="44.31752" lon="6.52523">
        <ele>2025.8</ele>
        <time>2018-08-05T08:29:04Z</time>
      </trkpt>
      <trkpt lat="44.31755" lon="6.52523">
        <ele>2025.7</ele>
        <time>2018-08-05T08:29:09Z</time>
      </trkpt>
      <trkpt lat="44.31759" lon="6.52523">
        <ele>2025.6</ele>
        <time>2018-08-05T08:29:18Z</time>
      </trkpt>
      <trkpt lat="44.31762" lon="6.52525">
        <ele>2025.6</ele>
        <time>2018-08-05T08:29:22Z</time>
      </trkpt>
      <trkpt lat="44.31765" lon="6.52527">
        <ele>2025.8</ele>
        <time>2018-08-05T08:29:25Z</time>
      </trkpt>
      <trkpt lat="44.31767" lon="6.52531">
        <ele>2025.9</ele>
        <time>2018-08-05T08:29:31Z</time>
      </trkpt>
      <trkpt lat="44.31768" lon="6.52536">
        <ele>2025.7</ele>
        <time>2018-08-05T08:29:59Z</time>
      </trkpt>
      <trkpt lat="44.31769" lon="6.5254">
        <ele>2025.4</ele>
        <time>2018-08-05T08:30:02Z</time>
      </trkpt>
      <trkpt lat="44.31771" lon="6.52543">
        <ele>2025</ele>
        <time>2018-08-05T08:30:06Z</time>
      </trkpt>
      <trkpt lat="44.31774" lon="6.52544">
        <ele>2024.8</ele>
        <time>2018-08-05T08:30:09Z</time>
      </trkpt>
      <trkpt lat="44.31776" lon="6.52547">
        <ele>2026.9</ele>
        <time>2018-08-05T08:30:12Z</time>
      </trkpt>
      <trkpt lat="44.31779" lon="6.5255">
        <ele>2027.9</ele>
        <time>2018-08-05T08:30:15Z</time>
      </trkpt>
      <trkpt lat="44.31781" lon="6.52552">
        <ele>2027</ele>
        <time>2018-08-05T08:30:20Z</time>
      </trkpt>
      <trkpt lat="44.31783" lon="6.52556">
        <ele>2029</ele>
        <time>2018-08-05T08:30:25Z</time>
      </trkpt>
      <trkpt lat="44.31784" lon="6.5256">
        <ele>2029.7</ele>
        <time>2018-08-05T08:30:30Z</time>
      </trkpt>
      <trkpt lat="44.31786" lon="6.52563">
        <ele>2030.2</ele>
        <time>2018-08-05T08:30:34Z</time>
      </trkpt>
      <trkpt lat="44.31789" lon="6.52566">
        <ele>2029.4</ele>
        <time>2018-08-05T08:30:38Z</time>
      </trkpt>
      <trkpt lat="44.31792" lon="6.52567">
        <ele>2031</ele>
        <time>2018-08-05T08:30:42Z</time>
      </trkpt>
      <trkpt lat="44.31794" lon="6.5257">
        <ele>2030.3</ele>
        <time>2018-08-05T08:30:46Z</time>
      </trkpt>
      <trkpt lat="44.31797" lon="6.52572">
        <ele>2030.8</ele>
        <time>2018-08-05T08:30:49Z</time>
      </trkpt>
      <trkpt lat="44.31799" lon="6.52575">
        <ele>2031.1</ele>
        <time>2018-08-05T08:30:53Z</time>
      </trkpt>
      <trkpt lat="44.318" lon="6.52578">
        <ele>2031.4</ele>
        <time>2018-08-05T08:30:55Z</time>
      </trkpt>
      <trkpt lat="44.31802" lon="6.52582">
        <ele>2031.7</ele>
        <time>2018-08-05T08:31:00Z</time>
      </trkpt>
      <trkpt lat="44.31806" lon="6.52582">
        <ele>2030.8</ele>
        <time>2018-08-05T08:31:03Z</time>
      </trkpt>
      <trkpt lat="44.31808" lon="6.52586">
        <ele>2030.9</ele>
        <time>2018-08-05T08:31:06Z</time>
      </trkpt>
      <trkpt lat="44.3181" lon="6.5259">
        <ele>2033</ele>
        <time>2018-08-05T08:31:12Z</time>
      </trkpt>
      <trkpt lat="44.31812" lon="6.52594">
        <ele>2033.1</ele>
        <time>2018-08-05T08:31:16Z</time>
      </trkpt>
      <trkpt lat="44.31813" lon="6.52597">
        <ele>2034.3</ele>
        <time>2018-08-05T08:31:25Z</time>
      </trkpt>
      <trkpt lat="44.31816" lon="6.52595">
        <ele>2032.6</ele>
        <time>2018-08-05T08:31:29Z</time>
      </trkpt>
      <trkpt lat="44.31819" lon="6.52597">
        <ele>2032.7</ele>
        <time>2018-08-05T08:31:35Z</time>
      </trkpt>
      <trkpt lat="44.31821" lon="6.52601">
        <ele>2032</ele>
        <time>2018-08-05T08:31:43Z</time>
      </trkpt>
      <trkpt lat="44.31822" lon="6.52604">
        <ele>2033.1</ele>
        <time>2018-08-05T08:32:07Z</time>
      </trkpt>
      <trkpt lat="44.31819" lon="6.52608">
        <ele>2035.2</ele>
        <time>2018-08-05T08:32:10Z</time>
      </trkpt>
      <trkpt lat="44.31817" lon="6.52611">
        <ele>2036.2</ele>
        <time>2018-08-05T08:32:13Z</time>
      </trkpt>
      <trkpt lat="44.31815" lon="6.52616">
        <ele>2038.2</ele>
        <time>2018-08-05T08:32:16Z</time>
      </trkpt>
      <trkpt lat="44.31815" lon="6.5262">
        <ele>2039.1</ele>
        <time>2018-08-05T08:32:19Z</time>
      </trkpt>
      <trkpt lat="44.31812" lon="6.52623">
        <ele>2041.1</ele>
        <time>2018-08-05T08:32:21Z</time>
      </trkpt>
      <trkpt lat="44.31809" lon="6.52626">
        <ele>2042.6</ele>
        <time>2018-08-05T08:32:23Z</time>
      </trkpt>
      <trkpt lat="44.31807" lon="6.5263">
        <ele>2044.7</ele>
        <time>2018-08-05T08:32:27Z</time>
      </trkpt>
      <trkpt lat="44.31804" lon="6.52632">
        <ele>2046.8</ele>
        <time>2018-08-05T08:32:30Z</time>
      </trkpt>
      <trkpt lat="44.318" lon="6.52636">
        <ele>2048.7</ele>
        <time>2018-08-05T08:32:34Z</time>
      </trkpt>
      <trkpt lat="44.31796" lon="6.52637">
        <ele>2050</ele>
        <time>2018-08-05T08:32:36Z</time>
      </trkpt>
      <trkpt lat="44.31793" lon="6.52639">
        <ele>2051.3</ele>
        <time>2018-08-05T08:32:39Z</time>
      </trkpt>
      <trkpt lat="44.3179" lon="6.52641">
        <ele>2052.9</ele>
        <time>2018-08-05T08:32:42Z</time>
      </trkpt>
      <trkpt lat="44.31787" lon="6.52643">
        <ele>2054.2</ele>
        <time>2018-08-05T08:32:44Z</time>
      </trkpt>
      <trkpt lat="44.31786" lon="6.52646">
        <ele>2055.8</ele>
        <time>2018-08-05T08:32:48Z</time>
      </trkpt>
      <trkpt lat="44.31781" lon="6.52645">
        <ele>2057.1</ele>
        <time>2018-08-05T08:32:50Z</time>
      </trkpt>
      <trkpt lat="44.31777" lon="6.52646">
        <ele>2059.4</ele>
        <time>2018-08-05T08:32:52Z</time>
      </trkpt>
      <trkpt lat="44.31773" lon="6.52648">
        <ele>2060.8</ele>
        <time>2018-08-05T08:32:54Z</time>
      </trkpt>
      <trkpt lat="44.3177" lon="6.5265">
        <ele>2062</ele>
        <time>2018-08-05T08:32:56Z</time>
      </trkpt>
      <trkpt lat="44.31767" lon="6.52652">
        <ele>2063.2</ele>
        <time>2018-08-05T08:32:58Z</time>
      </trkpt>
      <trkpt lat="44.31763" lon="6.52654">
        <ele>2064.4</ele>
        <time>2018-08-05T08:33:00Z</time>
      </trkpt>
      <trkpt lat="44.3176" lon="6.52656">
        <ele>2064.9</ele>
        <time>2018-08-05T08:33:02Z</time>
      </trkpt>
      <trkpt lat="44.31758" lon="6.52659">
        <ele>2065.6</ele>
        <time>2018-08-05T08:33:04Z</time>
      </trkpt>
      <trkpt lat="44.31755" lon="6.52661">
        <ele>2066.2</ele>
        <time>2018-08-05T08:33:06Z</time>
      </trkpt>
      <trkpt lat="44.31752" lon="6.52664">
        <ele>2066.8</ele>
        <time>2018-08-05T08:33:09Z</time>
      </trkpt>
      <trkpt lat="44.31749" lon="6.52668">
        <ele>2067.3</ele>
        <time>2018-08-05T08:33:12Z</time>
      </trkpt>
      <trkpt lat="44.31748" lon="6.52671">
        <ele>2067.7</ele>
        <time>2018-08-05T08:33:14Z</time>
      </trkpt>
      <trkpt lat="44.31746" lon="6.52673">
        <ele>2068.1</ele>
        <time>2018-08-05T08:33:16Z</time>
      </trkpt>
      <trkpt lat="44.31744" lon="6.52676">
        <ele>2068.4</ele>
        <time>2018-08-05T08:33:18Z</time>
      </trkpt>
      <trkpt lat="44.31742" lon="6.52679">
        <ele>2068.7</ele>
        <time>2018-08-05T08:33:20Z</time>
      </trkpt>
      <trkpt lat="44.31739" lon="6.52683">
        <ele>2069.1</ele>
        <time>2018-08-05T08:33:23Z</time>
      </trkpt>
      <trkpt lat="44.31737" lon="6.52687">
        <ele>2069.5</ele>
        <time>2018-08-05T08:33:26Z</time>
      </trkpt>
      <trkpt lat="44.31735" lon="6.5269">
        <ele>2069.8</ele>
        <time>2018-08-05T08:33:28Z</time>
      </trkpt>
      <trkpt lat="44.31733" lon="6.52692">
        <ele>2070.2</ele>
        <time>2018-08-05T08:33:30Z</time>
      </trkpt>
      <trkpt lat="44.3173" lon="6.52694">
        <ele>2070.6</ele>
        <time>2018-08-05T08:33:32Z</time>
      </trkpt>
      <trkpt lat="44.31728" lon="6.52696">
        <ele>2071</ele>
        <time>2018-08-05T08:33:34Z</time>
      </trkpt>
      <trkpt lat="44.31726" lon="6.52699">
        <ele>2071.5</ele>
        <time>2018-08-05T08:33:36Z</time>
      </trkpt>
      <trkpt lat="44.31723" lon="6.52703">
        <ele>2072</ele>
        <time>2018-08-05T08:33:40Z</time>
      </trkpt>
      <trkpt lat="44.31721" lon="6.52707">
        <ele>2072.4</ele>
        <time>2018-08-05T08:33:43Z</time>
      </trkpt>
      <trkpt lat="44.31719" lon="6.5271">
        <ele>2072.7</ele>
        <time>2018-08-05T08:33:45Z</time>
      </trkpt>
      <trkpt lat="44.31717" lon="6.52714">
        <ele>2073</ele>
        <time>2018-08-05T08:33:48Z</time>
      </trkpt>
      <trkpt lat="44.31715" lon="6.52717">
        <ele>2073.2</ele>
        <time>2018-08-05T08:33:50Z</time>
      </trkpt>
      <trkpt lat="44.31715" lon="6.52721">
        <ele>2073.5</ele>
        <time>2018-08-05T08:33:52Z</time>
      </trkpt>
      <trkpt lat="44.31712" lon="6.52724">
        <ele>2073.8</ele>
        <time>2018-08-05T08:33:54Z</time>
      </trkpt>
      <trkpt lat="44.3171" lon="6.52727">
        <ele>2074.1</ele>
        <time>2018-08-05T08:33:57Z</time>
      </trkpt>
      <trkpt lat="44.31708" lon="6.5273">
        <ele>2074.4</ele>
        <time>2018-08-05T08:33:59Z</time>
      </trkpt>
      <trkpt lat="44.31706" lon="6.52732">
        <ele>2074.7</ele>
        <time>2018-08-05T08:34:01Z</time>
      </trkpt>
      <trkpt lat="44.31701" lon="6.52734">
        <ele>2075.1</ele>
        <time>2018-08-05T08:34:06Z</time>
      </trkpt>
      <trkpt lat="44.31698" lon="6.52737">
        <ele>2075.2</ele>
        <time>2018-08-05T08:34:08Z</time>
      </trkpt>
      <trkpt lat="44.31695" lon="6.52741">
        <ele>2075.2</ele>
        <time>2018-08-05T08:34:10Z</time>
      </trkpt>
      <trkpt lat="44.31692" lon="6.52743">
        <ele>2075.3</ele>
        <time>2018-08-05T08:34:12Z</time>
      </trkpt>
      <trkpt lat="44.31691" lon="6.52747">
        <ele>2075.5</ele>
        <time>2018-08-05T08:34:14Z</time>
      </trkpt>
      <trkpt lat="44.31688" lon="6.52748">
        <ele>2075.6</ele>
        <time>2018-08-05T08:34:16Z</time>
      </trkpt>
      <trkpt lat="44.31685" lon="6.5275">
        <ele>2075.8</ele>
        <time>2018-08-05T08:34:18Z</time>
      </trkpt>
      <trkpt lat="44.31682" lon="6.52749">
        <ele>2075.9</ele>
        <time>2018-08-05T08:34:20Z</time>
      </trkpt>
      <trkpt lat="44.3168" lon="6.52753">
        <ele>2075.9</ele>
        <time>2018-08-05T08:34:22Z</time>
      </trkpt>
      <trkpt lat="44.31677" lon="6.52755">
        <ele>2076</ele>
        <time>2018-08-05T08:34:26Z</time>
      </trkpt>
      <trkpt lat="44.31674" lon="6.52756">
        <ele>2076.1</ele>
        <time>2018-08-05T08:34:28Z</time>
      </trkpt>
      <trkpt lat="44.31671" lon="6.52755">
        <ele>2076.2</ele>
        <time>2018-08-05T08:34:30Z</time>
      </trkpt>
      <trkpt lat="44.31668" lon="6.52757">
        <ele>2076.3</ele>
        <time>2018-08-05T08:34:34Z</time>
      </trkpt>
      <trkpt lat="44.31667" lon="6.52761">
        <ele>2076.4</ele>
        <time>2018-08-05T08:34:37Z</time>
      </trkpt>
      <trkpt lat="44.31666" lon="6.52765">
        <ele>2076.5</ele>
        <time>2018-08-05T08:34:39Z</time>
      </trkpt>
      <trkpt lat="44.31665" lon="6.52768">
        <ele>2076.6</ele>
        <time>2018-08-05T08:34:41Z</time>
      </trkpt>
      <trkpt lat="44.31662" lon="6.52773">
        <ele>2076.7</ele>
        <time>2018-08-05T08:34:44Z</time>
      </trkpt>
      <trkpt lat="44.3166" lon="6.52775">
        <ele>2076.7</ele>
        <time>2018-08-05T08:34:46Z</time>
      </trkpt>
      <trkpt lat="44.31658" lon="6.52778">
        <ele>2076.7</ele>
        <time>2018-08-05T08:34:48Z</time>
      </trkpt>
      <trkpt lat="44.31656" lon="6.52782">
        <ele>2076.6</ele>
        <time>2018-08-05T08:34:50Z</time>
      </trkpt>
      <trkpt lat="44.31654" lon="6.52785">
        <ele>2076.4</ele>
        <time>2018-08-05T08:34:53Z</time>
      </trkpt>
      <trkpt lat="44.31653" lon="6.52789">
        <ele>2076.5</ele>
        <time>2018-08-05T08:34:55Z</time>
      </trkpt>
      <trkpt lat="44.31652" lon="6.52794">
        <ele>2076.6</ele>
        <time>2018-08-05T08:34:58Z</time>
      </trkpt>
      <trkpt lat="44.31651" lon="6.52798">
        <ele>2076.7</ele>
        <time>2018-08-05T08:35:00Z</time>
      </trkpt>
      <trkpt lat="44.31649" lon="6.52801">
        <ele>2076.8</ele>
        <time>2018-08-05T08:35:02Z</time>
      </trkpt>
      <trkpt lat="44.31648" lon="6.52805">
        <ele>2076.8</ele>
        <time>2018-08-05T08:35:06Z</time>
      </trkpt>
      <trkpt lat="44.31646" lon="6.52811">
        <ele>2077</ele>
        <time>2018-08-05T08:35:09Z</time>
      </trkpt>
      <trkpt lat="44.31643" lon="6.52815">
        <ele>2077.2</ele>
        <time>2018-08-05T08:35:12Z</time>
      </trkpt>
      <trkpt lat="44.31641" lon="6.5282">
        <ele>2077.4</ele>
        <time>2018-08-05T08:35:14Z</time>
      </trkpt>
      <trkpt lat="44.3164" lon="6.52824">
        <ele>2077.5</ele>
        <time>2018-08-05T08:35:16Z</time>
      </trkpt>
      <trkpt lat="44.31638" lon="6.52827">
        <ele>2077.4</ele>
        <time>2018-08-05T08:35:18Z</time>
      </trkpt>
      <trkpt lat="44.31635" lon="6.52832">
        <ele>2077.4</ele>
        <time>2018-08-05T08:35:20Z</time>
      </trkpt>
      <trkpt lat="44.31633" lon="6.52836">
        <ele>2077.7</ele>
        <time>2018-08-05T08:35:22Z</time>
      </trkpt>
      <trkpt lat="44.3163" lon="6.52839">
        <ele>2078</ele>
        <time>2018-08-05T08:35:24Z</time>
      </trkpt>
      <trkpt lat="44.31628" lon="6.52842">
        <ele>2078.3</ele>
        <time>2018-08-05T08:35:26Z</time>
      </trkpt>
      <trkpt lat="44.31626" lon="6.52846">
        <ele>2078.5</ele>
        <time>2018-08-05T08:35:28Z</time>
      </trkpt>
      <trkpt lat="44.31623" lon="6.52848">
        <ele>2078.8</ele>
        <time>2018-08-05T08:35:30Z</time>
      </trkpt>
      <trkpt lat="44.31619" lon="6.5285">
        <ele>2079.3</ele>
        <time>2018-08-05T08:35:32Z</time>
      </trkpt>
      <trkpt lat="44.31616" lon="6.52852">
        <ele>2080</ele>
        <time>2018-08-05T08:35:34Z</time>
      </trkpt>
      <trkpt lat="44.31612" lon="6.52856">
        <ele>2080.6</ele>
        <time>2018-08-05T08:35:36Z</time>
      </trkpt>
      <trkpt lat="44.31609" lon="6.52858">
        <ele>2080.9</ele>
        <time>2018-08-05T08:35:37Z</time>
      </trkpt>
      <trkpt lat="44.31606" lon="6.52862">
        <ele>2081.3</ele>
        <time>2018-08-05T08:35:40Z</time>
      </trkpt>
      <trkpt lat="44.31603" lon="6.52863">
        <ele>2081.8</ele>
        <time>2018-08-05T08:35:44Z</time>
      </trkpt>
      <trkpt lat="44.316" lon="6.52866">
        <ele>2082.3</ele>
        <time>2018-08-05T08:35:46Z</time>
      </trkpt>
      <trkpt lat="44.31596" lon="6.52869">
        <ele>2082.9</ele>
        <time>2018-08-05T08:35:48Z</time>
      </trkpt>
      <trkpt lat="44.31594" lon="6.52871">
        <ele>2083.3</ele>
        <time>2018-08-05T08:35:49Z</time>
      </trkpt>
      <trkpt lat="44.3159" lon="6.52873">
        <ele>2083.8</ele>
        <time>2018-08-05T08:35:50Z</time>
      </trkpt>
      <trkpt lat="44.31586" lon="6.52875">
        <ele>2084.8</ele>
        <time>2018-08-05T08:35:52Z</time>
      </trkpt>
      <trkpt lat="44.31582" lon="6.52876">
        <ele>2086</ele>
        <time>2018-08-05T08:35:54Z</time>
      </trkpt>
      <trkpt lat="44.31579" lon="6.52878">
        <ele>2087</ele>
        <time>2018-08-05T08:35:56Z</time>
      </trkpt>
      <trkpt lat="44.31576" lon="6.52879">
        <ele>2087.9</ele>
        <time>2018-08-05T08:35:58Z</time>
      </trkpt>
      <trkpt lat="44.31573" lon="6.52881">
        <ele>2088.6</ele>
        <time>2018-08-05T08:36:00Z</time>
      </trkpt>
      <trkpt lat="44.3157" lon="6.52883">
        <ele>2089.3</ele>
        <time>2018-08-05T08:36:02Z</time>
      </trkpt>
      <trkpt lat="44.31567" lon="6.52886">
        <ele>2089.9</ele>
        <time>2018-08-05T08:36:05Z</time>
      </trkpt>
      <trkpt lat="44.31564" lon="6.52889">
        <ele>2090.4</ele>
        <time>2018-08-05T08:36:07Z</time>
      </trkpt>
      <trkpt lat="44.31563" lon="6.52894">
        <ele>2091.2</ele>
        <time>2018-08-05T08:36:09Z</time>
      </trkpt>
      <trkpt lat="44.31562" lon="6.52899">
        <ele>2092</ele>
        <time>2018-08-05T08:36:11Z</time>
      </trkpt>
      <trkpt lat="44.31562" lon="6.52903">
        <ele>2092.6</ele>
        <time>2018-08-05T08:36:14Z</time>
      </trkpt>
      <trkpt lat="44.31559" lon="6.52903">
        <ele>2092.3</ele>
        <time>2018-08-05T08:36:17Z</time>
      </trkpt>
      <trkpt lat="44.31556" lon="6.52901">
        <ele>2092.1</ele>
        <time>2018-08-05T08:36:19Z</time>
      </trkpt>
      <trkpt lat="44.31552" lon="6.529">
        <ele>2092.1</ele>
        <time>2018-08-05T08:36:21Z</time>
      </trkpt>
      <trkpt lat="44.31548" lon="6.52898">
        <ele>2093.2</ele>
        <time>2018-08-05T08:36:23Z</time>
      </trkpt>
      <trkpt lat="44.31545" lon="6.529">
        <ele>2094</ele>
        <time>2018-08-05T08:36:25Z</time>
      </trkpt>
      <trkpt lat="44.31542" lon="6.52902">
        <ele>2094.8</ele>
        <time>2018-08-05T08:36:31Z</time>
      </trkpt>
      <trkpt lat="44.31539" lon="6.52904">
        <ele>2095.4</ele>
        <time>2018-08-05T08:36:38Z</time>
      </trkpt>
      <trkpt lat="44.31537" lon="6.52908">
        <ele>2096</ele>
        <time>2018-08-05T08:36:41Z</time>
      </trkpt>
      <trkpt lat="44.31534" lon="6.5291">
        <ele>2096.5</ele>
        <time>2018-08-05T08:36:53Z</time>
      </trkpt>
      <trkpt lat="44.31532" lon="6.52912">
        <ele>2097</ele>
        <time>2018-08-05T08:36:56Z</time>
      </trkpt>
      <trkpt lat="44.3153" lon="6.52913">
        <ele>2097.5</ele>
        <time>2018-08-05T08:37:57Z</time>
      </trkpt>
      <trkpt lat="44.31527" lon="6.52916">
        <ele>2098</ele>
        <time>2018-08-05T08:38:12Z</time>
      </trkpt>
      <trkpt lat="44.31525" lon="6.52918">
        <ele>2098.5</ele>
        <time>2018-08-05T08:38:23Z</time>
      </trkpt>
      <trkpt lat="44.31523" lon="6.5292">
        <ele>2098.9</ele>
        <time>2018-08-05T08:38:37Z</time>
      </trkpt>
      <trkpt lat="44.31521" lon="6.52923">
        <ele>2099.3</ele>
        <time>2018-08-05T08:38:45Z</time>
      </trkpt>
      <trkpt lat="44.31518" lon="6.52926">
        <ele>2099.7</ele>
        <time>2018-08-05T08:38:50Z</time>
      </trkpt>
      <trkpt lat="44.31517" lon="6.52929">
        <ele>2099.9</ele>
        <time>2018-08-05T08:39:07Z</time>
      </trkpt>
      <trkpt lat="44.31515" lon="6.52932">
        <ele>2100.1</ele>
        <time>2018-08-05T08:39:13Z</time>
      </trkpt>
      <trkpt lat="44.31526" lon="6.52932">
        <ele>2101.3</ele>
        <time>2018-08-05T08:41:03Z</time>
      </trkpt>
      <trkpt lat="44.31529" lon="6.52931">
        <ele>2101.8</ele>
        <time>2018-08-05T08:41:12Z</time>
      </trkpt>
      <trkpt lat="44.31528" lon="6.52935">
        <ele>2102.1</ele>
        <time>2018-08-05T08:41:18Z</time>
      </trkpt>
      <trkpt lat="44.31526" lon="6.52939">
        <ele>2102.5</ele>
        <time>2018-08-05T08:41:22Z</time>
      </trkpt>
      <trkpt lat="44.31529" lon="6.52941">
        <ele>2102.7</ele>
        <time>2018-08-05T08:41:34Z</time>
      </trkpt>
      <trkpt lat="44.31523" lon="6.52952">
        <ele>2105.1</ele>
        <time>2018-08-05T08:43:11Z</time>
      </trkpt>
      <trkpt lat="44.31525" lon="6.52956">
        <ele>2105.6</ele>
        <time>2018-08-05T08:43:35Z</time>
      </trkpt>
      <trkpt lat="44.31527" lon="6.52959">
        <ele>2106.1</ele>
        <time>2018-08-05T08:43:38Z</time>
      </trkpt>
      <trkpt lat="44.3153" lon="6.52959">
        <ele>2106.2</ele>
        <time>2018-08-05T08:43:56Z</time>
      </trkpt>
      <trkpt lat="44.31533" lon="6.5296">
        <ele>2105.7</ele>
        <time>2018-08-05T08:44:00Z</time>
      </trkpt>
      <trkpt lat="44.31535" lon="6.5296">
        <ele>2105.1</ele>
        <time>2018-08-05T08:44:06Z</time>
      </trkpt>
      <trkpt lat="44.31537" lon="6.52956">
        <ele>2104.4</ele>
        <time>2018-08-05T08:44:09Z</time>
      </trkpt>
      <trkpt lat="44.31539" lon="6.52954">
        <ele>2103.9</ele>
        <time>2018-08-05T08:44:19Z</time>
      </trkpt>
      <trkpt lat="44.31542" lon="6.52952">
        <ele>2103.2</ele>
        <time>2018-08-05T08:44:21Z</time>
      </trkpt>
      <trkpt lat="44.31544" lon="6.52949">
        <ele>2102.7</ele>
        <time>2018-08-05T08:44:25Z</time>
      </trkpt>
      <trkpt lat="44.31547" lon="6.5295">
        <ele>2102.1</ele>
        <time>2018-08-05T08:44:28Z</time>
      </trkpt>
      <trkpt lat="44.3155" lon="6.5295">
        <ele>2101.4</ele>
        <time>2018-08-05T08:44:31Z</time>
      </trkpt>
      <trkpt lat="44.31551" lon="6.52946">
        <ele>2100.5</ele>
        <time>2018-08-05T08:44:37Z</time>
      </trkpt>
      <trkpt lat="44.31555" lon="6.52947">
        <ele>2099.6</ele>
        <time>2018-08-05T08:44:41Z</time>
      </trkpt>
      <trkpt lat="44.31557" lon="6.52949">
        <ele>2098.9</ele>
        <time>2018-08-05T08:44:45Z</time>
      </trkpt>
      <trkpt lat="44.3156" lon="6.52953">
        <ele>2098</ele>
        <time>2018-08-05T08:44:51Z</time>
      </trkpt>
      <trkpt lat="44.3156" lon="6.52963">
        <ele>2096.5</ele>
        <time>2018-08-05T08:47:03Z</time>
      </trkpt>
      <trkpt lat="44.31563" lon="6.52965">
        <ele>2096</ele>
        <time>2018-08-05T08:47:07Z</time>
      </trkpt>
      <trkpt lat="44.31566" lon="6.52967">
        <ele>2095.4</ele>
        <time>2018-08-05T08:47:11Z</time>
      </trkpt>
      <trkpt lat="44.31569" lon="6.52969">
        <ele>2095</ele>
        <time>2018-08-05T08:47:18Z</time>
      </trkpt>
      <trkpt lat="44.31572" lon="6.5297">
        <ele>2094.6</ele>
        <time>2018-08-05T08:47:22Z</time>
      </trkpt>
      <trkpt lat="44.31575" lon="6.52972">
        <ele>2094.3</ele>
        <time>2018-08-05T08:47:27Z</time>
      </trkpt>
      <trkpt lat="44.31578" lon="6.52972">
        <ele>2094</ele>
        <time>2018-08-05T08:47:32Z</time>
      </trkpt>
      <trkpt lat="44.31581" lon="6.52972">
        <ele>2093.8</ele>
        <time>2018-08-05T08:47:37Z</time>
      </trkpt>
      <trkpt lat="44.31585" lon="6.52973">
        <ele>2093.8</ele>
        <time>2018-08-05T08:47:43Z</time>
      </trkpt>
      <trkpt lat="44.31588" lon="6.52975">
        <ele>2093.9</ele>
        <time>2018-08-05T08:47:46Z</time>
      </trkpt>
      <trkpt lat="44.3159" lon="6.52976">
        <ele>2094</ele>
        <time>2018-08-05T08:47:55Z</time>
      </trkpt>
      <trkpt lat="44.31591" lon="6.5298">
        <ele>2094</ele>
        <time>2018-08-05T08:48:09Z</time>
      </trkpt>
      <trkpt lat="44.31594" lon="6.52987">
        <ele>2093.9</ele>
        <time>2018-08-05T08:57:40Z</time>
      </trkpt>
      <trkpt lat="44.31595" lon="6.52991">
        <ele>2093.9</ele>
        <time>2018-08-05T08:57:42Z</time>
      </trkpt>
      <trkpt lat="44.31596" lon="6.52995">
        <ele>2093.8</ele>
        <time>2018-08-05T08:57:45Z</time>
      </trkpt>
      <trkpt lat="44.31596" lon="6.52999">
        <ele>2093.7</ele>
        <time>2018-08-05T08:57:48Z</time>
      </trkpt>
      <trkpt lat="44.31596" lon="6.53003">
        <ele>2093.4</ele>
        <time>2018-08-05T08:57:55Z</time>
      </trkpt>
      <trkpt lat="44.31595" lon="6.53007">
        <ele>2093.2</ele>
        <time>2018-08-05T08:57:59Z</time>
      </trkpt>
      <trkpt lat="44.31601" lon="6.5301">
        <ele>2094.4</ele>
        <time>2018-08-05T08:59:03Z</time>
      </trkpt>
      <trkpt lat="44.31604" lon="6.53009">
        <ele>2095.1</ele>
        <time>2018-08-05T08:59:08Z</time>
      </trkpt>
      <trkpt lat="44.31607" lon="6.53007">
        <ele>2095.7</ele>
        <time>2018-08-05T08:59:13Z</time>
      </trkpt>
      <trkpt lat="44.3161" lon="6.53005">
        <ele>2096.3</ele>
        <time>2018-08-05T08:59:19Z</time>
      </trkpt>
      <trkpt lat="44.31612" lon="6.53002">
        <ele>2097.2</ele>
        <time>2018-08-05T08:59:23Z</time>
      </trkpt>
      <trkpt lat="44.31614" lon="6.53">
        <ele>2098.4</ele>
        <time>2018-08-05T08:59:27Z</time>
      </trkpt>
      <trkpt lat="44.31617" lon="6.52998">
        <ele>2099.4</ele>
        <time>2018-08-05T08:59:30Z</time>
      </trkpt>
      <trkpt lat="44.31619" lon="6.52996">
        <ele>2099.5</ele>
        <time>2018-08-05T08:59:34Z</time>
      </trkpt>
      <trkpt lat="44.31622" lon="6.52994">
        <ele>2099.1</ele>
        <time>2018-08-05T08:59:38Z</time>
      </trkpt>
      <trkpt lat="44.31625" lon="6.52995">
        <ele>2098.6</ele>
        <time>2018-08-05T08:59:41Z</time>
      </trkpt>
      <trkpt lat="44.31628" lon="6.52995">
        <ele>2098.1</ele>
        <time>2018-08-05T08:59:45Z</time>
      </trkpt>
      <trkpt lat="44.31631" lon="6.52996">
        <ele>2097.5</ele>
        <time>2018-08-05T08:59:49Z</time>
      </trkpt>
      <trkpt lat="44.31634" lon="6.52997">
        <ele>2096.6</ele>
        <time>2018-08-05T08:59:57Z</time>
      </trkpt>
      <trkpt lat="44.31636" lon="6.53001">
        <ele>2095.5</ele>
        <time>2018-08-05T09:00:00Z</time>
      </trkpt>
      <trkpt lat="44.31636" lon="6.53006">
        <ele>2094.4</ele>
        <time>2018-08-05T09:00:04Z</time>
      </trkpt>
      <trkpt lat="44.31636" lon="6.5301">
        <ele>2093.2</ele>
        <time>2018-08-05T09:00:06Z</time>
      </trkpt>
      <trkpt lat="44.31636" lon="6.53015">
        <ele>2092.2</ele>
        <time>2018-08-05T09:00:12Z</time>
      </trkpt>
      <trkpt lat="44.31636" lon="6.5302">
        <ele>2091.7</ele>
        <time>2018-08-05T09:00:18Z</time>
      </trkpt>
      <trkpt lat="44.31636" lon="6.53024">
        <ele>2092.9</ele>
        <time>2018-08-05T09:00:23Z</time>
      </trkpt>
      <trkpt lat="44.31636" lon="6.53029">
        <ele>2093.9</ele>
        <time>2018-08-05T09:00:27Z</time>
      </trkpt>
      <trkpt lat="44.31636" lon="6.53033">
        <ele>2094.9</ele>
        <time>2018-08-05T09:00:30Z</time>
      </trkpt>
      <trkpt lat="44.31635" lon="6.53037">
        <ele>2095.5</ele>
        <time>2018-08-05T09:00:34Z</time>
      </trkpt>
      <trkpt lat="44.31635" lon="6.53043">
        <ele>2096.2</ele>
        <time>2018-08-05T09:00:40Z</time>
      </trkpt>
      <trkpt lat="44.31634" lon="6.53047">
        <ele>2096.9</ele>
        <time>2018-08-05T09:00:43Z</time>
      </trkpt>
      <trkpt lat="44.31636" lon="6.53051">
        <ele>2097.6</ele>
        <time>2018-08-05T09:00:47Z</time>
      </trkpt>
      <trkpt lat="44.31634" lon="6.53055">
        <ele>2098.3</ele>
        <time>2018-08-05T09:00:57Z</time>
      </trkpt>
      <trkpt lat="44.31635" lon="6.53058">
        <ele>2098.9</ele>
        <time>2018-08-05T09:01:02Z</time>
      </trkpt>
      <trkpt lat="44.31638" lon="6.5306">
        <ele>2099.5</ele>
        <time>2018-08-05T09:01:11Z</time>
      </trkpt>
      <trkpt lat="44.31641" lon="6.53059">
        <ele>2100.1</ele>
        <time>2018-08-05T09:01:17Z</time>
      </trkpt>
      <trkpt lat="44.31644" lon="6.53058">
        <ele>2100.8</ele>
        <time>2018-08-05T09:01:21Z</time>
      </trkpt>
      <trkpt lat="44.31646" lon="6.53057">
        <ele>2101.5</ele>
        <time>2018-08-05T09:01:24Z</time>
      </trkpt>
      <trkpt lat="44.31649" lon="6.53054">
        <ele>2102.3</ele>
        <time>2018-08-05T09:01:27Z</time>
      </trkpt>
      <trkpt lat="44.31651" lon="6.53052">
        <ele>2103.1</ele>
        <time>2018-08-05T09:01:31Z</time>
      </trkpt>
      <trkpt lat="44.31654" lon="6.53049">
        <ele>2104.6</ele>
        <time>2018-08-05T09:01:35Z</time>
      </trkpt>
      <trkpt lat="44.31656" lon="6.53047">
        <ele>2105.9</ele>
        <time>2018-08-05T09:01:39Z</time>
      </trkpt>
      <trkpt lat="44.31659" lon="6.53045">
        <ele>2106.4</ele>
        <time>2018-08-05T09:01:43Z</time>
      </trkpt>
      <trkpt lat="44.31662" lon="6.53046">
        <ele>2105.3</ele>
        <time>2018-08-05T09:01:47Z</time>
      </trkpt>
      <trkpt lat="44.31666" lon="6.53047">
        <ele>2104.1</ele>
        <time>2018-08-05T09:01:52Z</time>
      </trkpt>
      <trkpt lat="44.31668" lon="6.5305">
        <ele>2103.1</ele>
        <time>2018-08-05T09:01:55Z</time>
      </trkpt>
      <trkpt lat="44.3167" lon="6.53054">
        <ele>2103.2</ele>
        <time>2018-08-05T09:01:59Z</time>
      </trkpt>
      <trkpt lat="44.31671" lon="6.53057">
        <ele>2103.4</ele>
        <time>2018-08-05T09:02:03Z</time>
      </trkpt>
      <trkpt lat="44.31673" lon="6.5306">
        <ele>2103.6</ele>
        <time>2018-08-05T09:02:06Z</time>
      </trkpt>
      <trkpt lat="44.31675" lon="6.53063">
        <ele>2104.4</ele>
        <time>2018-08-05T09:02:09Z</time>
      </trkpt>
      <trkpt lat="44.31678" lon="6.53064">
        <ele>2105.3</ele>
        <time>2018-08-05T09:02:14Z</time>
      </trkpt>
      <trkpt lat="44.31681" lon="6.53067">
        <ele>2106.3</ele>
        <time>2018-08-05T09:02:23Z</time>
      </trkpt>
      <trkpt lat="44.31682" lon="6.53071">
        <ele>2107.5</ele>
        <time>2018-08-05T09:02:26Z</time>
      </trkpt>
      <trkpt lat="44.31684" lon="6.53075">
        <ele>2108.8</ele>
        <time>2018-08-05T09:02:30Z</time>
      </trkpt>
      <trkpt lat="44.31685" lon="6.5308">
        <ele>2109.9</ele>
        <time>2018-08-05T09:02:34Z</time>
      </trkpt>
      <trkpt lat="44.31686" lon="6.53083">
        <ele>2110.7</ele>
        <time>2018-08-05T09:02:37Z</time>
      </trkpt>
      <trkpt lat="44.31688" lon="6.53087">
        <ele>2111.5</ele>
        <time>2018-08-05T09:02:40Z</time>
      </trkpt>
      <trkpt lat="44.31689" lon="6.5309">
        <ele>2112.4</ele>
        <time>2018-08-05T09:02:46Z</time>
      </trkpt>
      <trkpt lat="44.31691" lon="6.53093">
        <ele>2113.3</ele>
        <time>2018-08-05T09:02:50Z</time>
      </trkpt>
      <trkpt lat="44.31694" lon="6.53095">
        <ele>2114.4</ele>
        <time>2018-08-05T09:02:56Z</time>
      </trkpt>
      <trkpt lat="44.31697" lon="6.53093">
        <ele>2115.4</ele>
        <time>2018-08-05T09:02:59Z</time>
      </trkpt>
      <trkpt lat="44.31699" lon="6.53089">
        <ele>2116.6</ele>
        <time>2018-08-05T09:03:04Z</time>
      </trkpt>
      <trkpt lat="44.31702" lon="6.53087">
        <ele>2118</ele>
        <time>2018-08-05T09:03:10Z</time>
      </trkpt>
      <trkpt lat="44.31705" lon="6.53089">
        <ele>2119.5</ele>
        <time>2018-08-05T09:03:15Z</time>
      </trkpt>
      <trkpt lat="44.31708" lon="6.53092">
        <ele>2121.3</ele>
        <time>2018-08-05T09:03:19Z</time>
      </trkpt>
      <trkpt lat="44.3171" lon="6.53094">
        <ele>2122.5</ele>
        <time>2018-08-05T09:03:22Z</time>
      </trkpt>
      <trkpt lat="44.31713" lon="6.53095">
        <ele>2123.3</ele>
        <time>2018-08-05T09:03:25Z</time>
      </trkpt>
      <trkpt lat="44.31714" lon="6.53099">
        <ele>2124.3</ele>
        <time>2018-08-05T09:03:29Z</time>
      </trkpt>
      <trkpt lat="44.31716" lon="6.53102">
        <ele>2125.5</ele>
        <time>2018-08-05T09:03:32Z</time>
      </trkpt>
      <trkpt lat="44.31718" lon="6.53106">
        <ele>2126.7</ele>
        <time>2018-08-05T09:03:41Z</time>
      </trkpt>
      <trkpt lat="44.31721" lon="6.53105">
        <ele>2126.3</ele>
        <time>2018-08-05T09:03:51Z</time>
      </trkpt>
      <trkpt lat="44.31724" lon="6.53105">
        <ele>2125.9</ele>
        <time>2018-08-05T09:03:54Z</time>
      </trkpt>
      <trkpt lat="44.31726" lon="6.53107">
        <ele>2127.4</ele>
        <time>2018-08-05T09:03:57Z</time>
      </trkpt>
      <trkpt lat="44.3173" lon="6.53107">
        <ele>2127.1</ele>
        <time>2018-08-05T09:04:00Z</time>
      </trkpt>
      <trkpt lat="44.31733" lon="6.53109">
        <ele>2126.7</ele>
        <time>2018-08-05T09:04:05Z</time>
      </trkpt>
      <trkpt lat="44.31736" lon="6.53109">
        <ele>2126.4</ele>
        <time>2018-08-05T09:04:13Z</time>
      </trkpt>
      <trkpt lat="44.31739" lon="6.53109">
        <ele>2126.1</ele>
        <time>2018-08-05T09:04:17Z</time>
      </trkpt>
      <trkpt lat="44.31742" lon="6.53109">
        <ele>2125.8</ele>
        <time>2018-08-05T09:04:21Z</time>
      </trkpt>
      <trkpt lat="44.31745" lon="6.53109">
        <ele>2125.4</ele>
        <time>2018-08-05T09:04:24Z</time>
      </trkpt>
      <trkpt lat="44.31747" lon="6.53111">
        <ele>2125.1</ele>
        <time>2018-08-05T09:04:27Z</time>
      </trkpt>
      <trkpt lat="44.3175" lon="6.53113">
        <ele>2126.7</ele>
        <time>2018-08-05T09:04:30Z</time>
      </trkpt>
      <trkpt lat="44.31753" lon="6.53113">
        <ele>2126.4</ele>
        <time>2018-08-05T09:04:34Z</time>
      </trkpt>
      <trkpt lat="44.31756" lon="6.53115">
        <ele>2126.1</ele>
        <time>2018-08-05T09:04:39Z</time>
      </trkpt>
      <trkpt lat="44.31759" lon="6.53115">
        <ele>2125.8</ele>
        <time>2018-08-05T09:04:42Z</time>
      </trkpt>
      <trkpt lat="44.31761" lon="6.53113">
        <ele>2125.7</ele>
        <time>2018-08-05T09:04:45Z</time>
      </trkpt>
      <trkpt lat="44.31764" lon="6.53116">
        <ele>2125.4</ele>
        <time>2018-08-05T09:04:49Z</time>
      </trkpt>
      <trkpt lat="44.31767" lon="6.53118">
        <ele>2127.2</ele>
        <time>2018-08-05T09:04:55Z</time>
      </trkpt>
      <trkpt lat="44.31766" lon="6.53121">
        <ele>2129.3</ele>
        <time>2018-08-05T09:05:08Z</time>
      </trkpt>
      <trkpt lat="44.31763" lon="6.5312">
        <ele>2129.3</ele>
        <time>2018-08-05T09:05:15Z</time>
      </trkpt>
      <trkpt lat="44.3176" lon="6.53121">
        <ele>2129.3</ele>
        <time>2018-08-05T09:05:20Z</time>
      </trkpt>
      <trkpt lat="44.31758" lon="6.53124">
        <ele>2129.3</ele>
        <time>2018-08-05T09:05:25Z</time>
      </trkpt>
      <trkpt lat="44.31754" lon="6.53125">
        <ele>2131.7</ele>
        <time>2018-08-05T09:05:29Z</time>
      </trkpt>
      <trkpt lat="44.31752" lon="6.53127">
        <ele>2131.7</ele>
        <time>2018-08-05T09:05:33Z</time>
      </trkpt>
      <trkpt lat="44.31749" lon="6.53128">
        <ele>2131.7</ele>
        <time>2018-08-05T09:05:37Z</time>
      </trkpt>
      <trkpt lat="44.31746" lon="6.53129">
        <ele>2134.2</ele>
        <time>2018-08-05T09:05:42Z</time>
      </trkpt>
      <trkpt lat="44.31743" lon="6.53131">
        <ele>2134.2</ele>
        <time>2018-08-05T09:05:48Z</time>
      </trkpt>
      <trkpt lat="44.3174" lon="6.53133">
        <ele>2134.1</ele>
        <time>2018-08-05T09:05:53Z</time>
      </trkpt>
      <trkpt lat="44.31737" lon="6.53134">
        <ele>2136.6</ele>
        <time>2018-08-05T09:05:58Z</time>
      </trkpt>
      <trkpt lat="44.31735" lon="6.53135">
        <ele>2136.6</ele>
        <time>2018-08-05T09:06:05Z</time>
      </trkpt>
      <trkpt lat="44.31732" lon="6.53138">
        <ele>2139.1</ele>
        <time>2018-08-05T09:06:12Z</time>
      </trkpt>
      <trkpt lat="44.3173" lon="6.53141">
        <ele>2140.1</ele>
        <time>2018-08-05T09:06:15Z</time>
      </trkpt>
      <trkpt lat="44.31727" lon="6.53142">
        <ele>2141.1</ele>
        <time>2018-08-05T09:06:19Z</time>
      </trkpt>
      <trkpt lat="44.31724" lon="6.53144">
        <ele>2141.9</ele>
        <time>2018-08-05T09:06:23Z</time>
      </trkpt>
      <trkpt lat="44.31721" lon="6.53143">
        <ele>2142.9</ele>
        <time>2018-08-05T09:06:30Z</time>
      </trkpt>
      <trkpt lat="44.31718" lon="6.53142">
        <ele>2143.8</ele>
        <time>2018-08-05T09:06:36Z</time>
      </trkpt>
      <trkpt lat="44.31715" lon="6.53143">
        <ele>2144.7</ele>
        <time>2018-08-05T09:06:41Z</time>
      </trkpt>
      <trkpt lat="44.31712" lon="6.53145">
        <ele>2145.6</ele>
        <time>2018-08-05T09:06:45Z</time>
      </trkpt>
      <trkpt lat="44.31709" lon="6.53146">
        <ele>2146.5</ele>
        <time>2018-08-05T09:06:48Z</time>
      </trkpt>
      <trkpt lat="44.31706" lon="6.53147">
        <ele>2147.4</ele>
        <time>2018-08-05T09:06:51Z</time>
      </trkpt>
      <trkpt lat="44.31703" lon="6.53149">
        <ele>2148.3</ele>
        <time>2018-08-05T09:06:55Z</time>
      </trkpt>
      <trkpt lat="44.317" lon="6.53151">
        <ele>2150.1</ele>
        <time>2018-08-05T09:07:00Z</time>
      </trkpt>
      <trkpt lat="44.31697" lon="6.53152">
        <ele>2152.1</ele>
        <time>2018-08-05T09:07:04Z</time>
      </trkpt>
      <trkpt lat="44.31694" lon="6.53154">
        <ele>2154.1</ele>
        <time>2018-08-05T09:07:08Z</time>
      </trkpt>
      <trkpt lat="44.31691" lon="6.53153">
        <ele>2156.7</ele>
        <time>2018-08-05T09:07:13Z</time>
      </trkpt>
      <trkpt lat="44.31688" lon="6.53155">
        <ele>2159.1</ele>
        <time>2018-08-05T09:07:17Z</time>
      </trkpt>
      <trkpt lat="44.31686" lon="6.53156">
        <ele>2161.2</ele>
        <time>2018-08-05T09:07:21Z</time>
      </trkpt>
      <trkpt lat="44.31684" lon="6.53159">
        <ele>2162.8</ele>
        <time>2018-08-05T09:07:27Z</time>
      </trkpt>
      <trkpt lat="44.31681" lon="6.53163">
        <ele>2164.6</ele>
        <time>2018-08-05T09:07:31Z</time>
      </trkpt>
      <trkpt lat="44.31679" lon="6.53166">
        <ele>2167</ele>
        <time>2018-08-05T09:07:35Z</time>
      </trkpt>
      <trkpt lat="44.31676" lon="6.53167">
        <ele>2169.5</ele>
        <time>2018-08-05T09:07:41Z</time>
      </trkpt>
      <trkpt lat="44.31674" lon="6.53164">
        <ele>2171.9</ele>
        <time>2018-08-05T09:07:55Z</time>
      </trkpt>
      <trkpt lat="44.31672" lon="6.53162">
        <ele>2173.1</ele>
        <time>2018-08-05T09:08:01Z</time>
      </trkpt>
      <trkpt lat="44.31669" lon="6.53162">
        <ele>2174</ele>
        <time>2018-08-05T09:08:05Z</time>
      </trkpt>
      <trkpt lat="44.31666" lon="6.53162">
        <ele>2175.2</ele>
        <time>2018-08-05T09:08:09Z</time>
      </trkpt>
      <trkpt lat="44.31663" lon="6.53163">
        <ele>2176.3</ele>
        <time>2018-08-05T09:08:12Z</time>
      </trkpt>
      <trkpt lat="44.3166" lon="6.53166">
        <ele>2176</ele>
        <time>2018-08-05T09:08:15Z</time>
      </trkpt>
      <trkpt lat="44.31658" lon="6.53169">
        <ele>2174.9</ele>
        <time>2018-08-05T09:08:18Z</time>
      </trkpt>
      <trkpt lat="44.31655" lon="6.53172">
        <ele>2173</ele>
        <time>2018-08-05T09:08:22Z</time>
      </trkpt>
      <trkpt lat="44.31653" lon="6.53175">
        <ele>2172.9</ele>
        <time>2018-08-05T09:08:25Z</time>
      </trkpt>
      <trkpt lat="44.31651" lon="6.53177">
        <ele>2172.8</ele>
        <time>2018-08-05T09:08:29Z</time>
      </trkpt>
      <trkpt lat="44.31649" lon="6.5318">
        <ele>2172.7</ele>
        <time>2018-08-05T09:08:36Z</time>
      </trkpt>
      <trkpt lat="44.31646" lon="6.53181">
        <ele>2172.5</ele>
        <time>2018-08-05T09:08:53Z</time>
      </trkpt>
      <trkpt lat="44.31644" lon="6.53179">
        <ele>2173.2</ele>
        <time>2018-08-05T09:08:59Z</time>
      </trkpt>
      <trkpt lat="44.31638" lon="6.53176">
        <ele>2174</ele>
        <time>2018-08-05T09:10:02Z</time>
      </trkpt>
      <trkpt lat="44.31635" lon="6.53174">
        <ele>2172.6</ele>
        <time>2018-08-05T09:10:06Z</time>
      </trkpt>
      <trkpt lat="44.31632" lon="6.53172">
        <ele>2171.1</ele>
        <time>2018-08-05T09:10:09Z</time>
      </trkpt>
      <trkpt lat="44.31629" lon="6.53172">
        <ele>2168.8</ele>
        <time>2018-08-05T09:10:13Z</time>
      </trkpt>
      <trkpt lat="44.31626" lon="6.53171">
        <ele>2167.2</ele>
        <time>2018-08-05T09:10:18Z</time>
      </trkpt>
      <trkpt lat="44.31623" lon="6.53172">
        <ele>2166.2</ele>
        <time>2018-08-05T09:10:22Z</time>
      </trkpt>
      <trkpt lat="44.3162" lon="6.53172">
        <ele>2165.2</ele>
        <time>2018-08-05T09:10:25Z</time>
      </trkpt>
      <trkpt lat="44.31616" lon="6.53171">
        <ele>2163.3</ele>
        <time>2018-08-05T09:10:28Z</time>
      </trkpt>
      <trkpt lat="44.31612" lon="6.5317">
        <ele>2161.2</ele>
        <time>2018-08-05T09:10:32Z</time>
      </trkpt>
      <trkpt lat="44.31609" lon="6.53169">
        <ele>2160.3</ele>
        <time>2018-08-05T09:10:35Z</time>
      </trkpt>
      <trkpt lat="44.31606" lon="6.5317">
        <ele>2159.5</ele>
        <time>2018-08-05T09:10:39Z</time>
      </trkpt>
      <trkpt lat="44.31602" lon="6.53171">
        <ele>2158.6</ele>
        <time>2018-08-05T09:10:43Z</time>
      </trkpt>
      <trkpt lat="44.31599" lon="6.53171">
        <ele>2158</ele>
        <time>2018-08-05T09:10:47Z</time>
      </trkpt>
      <trkpt lat="44.31596" lon="6.53171">
        <ele>2157.9</ele>
        <time>2018-08-05T09:10:51Z</time>
      </trkpt>
      <trkpt lat="44.31593" lon="6.53172">
        <ele>2159.1</ele>
        <time>2018-08-05T09:10:57Z</time>
      </trkpt>
      <trkpt lat="44.31594" lon="6.53176">
        <ele>2160.2</ele>
        <time>2018-08-05T09:11:04Z</time>
      </trkpt>
      <trkpt lat="44.31597" lon="6.53178">
        <ele>2159.4</ele>
        <time>2018-08-05T09:11:08Z</time>
      </trkpt>
      <trkpt lat="44.316" lon="6.53177">
        <ele>2158.5</ele>
        <time>2018-08-05T09:11:14Z</time>
      </trkpt>
      <trkpt lat="44.31603" lon="6.53179">
        <ele>2157.6</ele>
        <time>2018-08-05T09:11:18Z</time>
      </trkpt>
      <trkpt lat="44.31605" lon="6.53181">
        <ele>2158.1</ele>
        <time>2018-08-05T09:11:22Z</time>
      </trkpt>
      <trkpt lat="44.31608" lon="6.53183">
        <ele>2158.6</ele>
        <time>2018-08-05T09:11:28Z</time>
      </trkpt>
      <trkpt lat="44.31611" lon="6.53185">
        <ele>2159.2</ele>
        <time>2018-08-05T09:11:32Z</time>
      </trkpt>
      <trkpt lat="44.31613" lon="6.53188">
        <ele>2159.9</ele>
        <time>2018-08-05T09:11:35Z</time>
      </trkpt>
      <trkpt lat="44.31616" lon="6.5319">
        <ele>2160.4</ele>
        <time>2018-08-05T09:11:38Z</time>
      </trkpt>
      <trkpt lat="44.31618" lon="6.53193">
        <ele>2161</ele>
        <time>2018-08-05T09:11:42Z</time>
      </trkpt>
      <trkpt lat="44.31621" lon="6.53193">
        <ele>2162.1</ele>
        <time>2018-08-05T09:11:45Z</time>
      </trkpt>
      <trkpt lat="44.31624" lon="6.53195">
        <ele>2163.3</ele>
        <time>2018-08-05T09:11:49Z</time>
      </trkpt>
      <trkpt lat="44.31626" lon="6.53196">
        <ele>2164.6</ele>
        <time>2018-08-05T09:11:53Z</time>
      </trkpt>
      <trkpt lat="44.31629" lon="6.53198">
        <ele>2165.6</ele>
        <time>2018-08-05T09:11:56Z</time>
      </trkpt>
      <trkpt lat="44.31631" lon="6.53201">
        <ele>2166.4</ele>
        <time>2018-08-05T09:12:00Z</time>
      </trkpt>
      <trkpt lat="44.31632" lon="6.53205">
        <ele>2167</ele>
        <time>2018-08-05T09:12:04Z</time>
      </trkpt>
      <trkpt lat="44.31633" lon="6.53209">
        <ele>2167.7</ele>
        <time>2018-08-05T09:12:11Z</time>
      </trkpt>
      <trkpt lat="44.31634" lon="6.53212">
        <ele>2169.3</ele>
        <time>2018-08-05T09:12:29Z</time>
      </trkpt>
      <trkpt lat="44.31637" lon="6.53214">
        <ele>2170.9</ele>
        <time>2018-08-05T09:12:40Z</time>
      </trkpt>
      <trkpt lat="44.3164" lon="6.53214">
        <ele>2172.4</ele>
        <time>2018-08-05T09:12:50Z</time>
      </trkpt>
      <trkpt lat="44.31643" lon="6.53212">
        <ele>2173.2</ele>
        <time>2018-08-05T09:12:54Z</time>
      </trkpt>
      <trkpt lat="44.31646" lon="6.53212">
        <ele>2174.2</ele>
        <time>2018-08-05T09:13:00Z</time>
      </trkpt>
      <trkpt lat="44.31649" lon="6.53212">
        <ele>2173.8</ele>
        <time>2018-08-05T09:13:04Z</time>
      </trkpt>
      <trkpt lat="44.31652" lon="6.53212">
        <ele>2173.2</ele>
        <time>2018-08-05T09:13:07Z</time>
      </trkpt>
      <trkpt lat="44.31655" lon="6.53211">
        <ele>2172.7</ele>
        <time>2018-08-05T09:13:10Z</time>
      </trkpt>
      <trkpt lat="44.31657" lon="6.53213">
        <ele>2172.6</ele>
        <time>2018-08-05T09:13:14Z</time>
      </trkpt>
      <trkpt lat="44.3166" lon="6.53213">
        <ele>2172.8</ele>
        <time>2018-08-05T09:13:18Z</time>
      </trkpt>
      <trkpt lat="44.31663" lon="6.53215">
        <ele>2172.9</ele>
        <time>2018-08-05T09:13:22Z</time>
      </trkpt>
      <trkpt lat="44.31666" lon="6.53216">
        <ele>2172.9</ele>
        <time>2018-08-05T09:13:29Z</time>
      </trkpt>
      <trkpt lat="44.31669" lon="6.53214">
        <ele>2173</ele>
        <time>2018-08-05T09:13:39Z</time>
      </trkpt>
      <trkpt lat="44.31671" lon="6.53211">
        <ele>2174</ele>
        <time>2018-08-05T09:13:43Z</time>
      </trkpt>
      <trkpt lat="44.31674" lon="6.5321">
        <ele>2175.6</ele>
        <time>2018-08-05T09:13:47Z</time>
      </trkpt>
      <trkpt lat="44.31678" lon="6.53207">
        <ele>2176.2</ele>
        <time>2018-08-05T09:14:07Z</time>
      </trkpt>
      <trkpt lat="44.31682" lon="6.53206">
        <ele>2176</ele>
        <time>2018-08-05T09:14:12Z</time>
      </trkpt>
      <trkpt lat="44.31685" lon="6.53207">
        <ele>2175</ele>
        <time>2018-08-05T09:14:15Z</time>
      </trkpt>
      <trkpt lat="44.31688" lon="6.53208">
        <ele>2174.1</ele>
        <time>2018-08-05T09:14:19Z</time>
      </trkpt>
      <trkpt lat="44.31691" lon="6.53206">
        <ele>2173.3</ele>
        <time>2018-08-05T09:14:22Z</time>
      </trkpt>
      <trkpt lat="44.31694" lon="6.53207">
        <ele>2172.4</ele>
        <time>2018-08-05T09:14:26Z</time>
      </trkpt>
      <trkpt lat="44.31697" lon="6.53207">
        <ele>2174.2</ele>
        <time>2018-08-05T09:14:29Z</time>
      </trkpt>
      <trkpt lat="44.317" lon="6.53207">
        <ele>2176.5</ele>
        <time>2018-08-05T09:14:32Z</time>
      </trkpt>
      <trkpt lat="44.31704" lon="6.53207">
        <ele>2179</ele>
        <time>2018-08-05T09:14:36Z</time>
      </trkpt>
      <trkpt lat="44.31707" lon="6.53207">
        <ele>2181.2</ele>
        <time>2018-08-05T09:14:39Z</time>
      </trkpt>
      <trkpt lat="44.3171" lon="6.53209">
        <ele>2183.3</ele>
        <time>2018-08-05T09:14:42Z</time>
      </trkpt>
      <trkpt lat="44.31713" lon="6.53209">
        <ele>2185.5</ele>
        <time>2018-08-05T09:14:45Z</time>
      </trkpt>
      <trkpt lat="44.31716" lon="6.53207">
        <ele>2187.6</ele>
        <time>2018-08-05T09:14:48Z</time>
      </trkpt>
      <trkpt lat="44.31719" lon="6.53206">
        <ele>2189.5</ele>
        <time>2018-08-05T09:14:51Z</time>
      </trkpt>
      <trkpt lat="44.31722" lon="6.53206">
        <ele>2191.7</ele>
        <time>2018-08-05T09:15:01Z</time>
      </trkpt>
      <trkpt lat="44.31725" lon="6.53207">
        <ele>2194.1</ele>
        <time>2018-08-05T09:15:04Z</time>
      </trkpt>
      <trkpt lat="44.31728" lon="6.53208">
        <ele>2196.2</ele>
        <time>2018-08-05T09:15:07Z</time>
      </trkpt>
      <trkpt lat="44.31732" lon="6.53208">
        <ele>2195.3</ele>
        <time>2018-08-05T09:15:10Z</time>
      </trkpt>
      <trkpt lat="44.31735" lon="6.53209">
        <ele>2194.4</ele>
        <time>2018-08-05T09:15:14Z</time>
      </trkpt>
      <trkpt lat="44.31738" lon="6.5321">
        <ele>2194.4</ele>
        <time>2018-08-05T09:15:17Z</time>
      </trkpt>
      <trkpt lat="44.31741" lon="6.53211">
        <ele>2194.5</ele>
        <time>2018-08-05T09:15:21Z</time>
      </trkpt>
      <trkpt lat="44.31744" lon="6.53211">
        <ele>2194.5</ele>
        <time>2018-08-05T09:15:26Z</time>
      </trkpt>
      <trkpt lat="44.31747" lon="6.5321">
        <ele>2193.4</ele>
        <time>2018-08-05T09:15:31Z</time>
      </trkpt>
      <trkpt lat="44.3175" lon="6.5321">
        <ele>2192.3</ele>
        <time>2018-08-05T09:15:34Z</time>
      </trkpt>
      <trkpt lat="44.31753" lon="6.53211">
        <ele>2191.3</ele>
        <time>2018-08-05T09:15:38Z</time>
      </trkpt>
      <trkpt lat="44.31756" lon="6.53212">
        <ele>2191.2</ele>
        <time>2018-08-05T09:15:41Z</time>
      </trkpt>
      <trkpt lat="44.31759" lon="6.53213">
        <ele>2191.1</ele>
        <time>2018-08-05T09:15:44Z</time>
      </trkpt>
      <trkpt lat="44.31763" lon="6.53215">
        <ele>2190.7</ele>
        <time>2018-08-05T09:15:48Z</time>
      </trkpt>
      <trkpt lat="44.31766" lon="6.53215">
        <ele>2189.4</ele>
        <time>2018-08-05T09:15:51Z</time>
      </trkpt>
      <trkpt lat="44.31769" lon="6.53215">
        <ele>2188.3</ele>
        <time>2018-08-05T09:15:56Z</time>
      </trkpt>
      <trkpt lat="44.31772" lon="6.53216">
        <ele>2187.3</ele>
        <time>2018-08-05T09:15:59Z</time>
      </trkpt>
      <trkpt lat="44.31775" lon="6.53216">
        <ele>2187.1</ele>
        <time>2018-08-05T09:16:03Z</time>
      </trkpt>
      <trkpt lat="44.31778" lon="6.53217">
        <ele>2187</ele>
        <time>2018-08-05T09:16:06Z</time>
      </trkpt>
      <trkpt lat="44.31781" lon="6.53216">
        <ele>2186.8</ele>
        <time>2018-08-05T09:16:13Z</time>
      </trkpt>
      <trkpt lat="44.31783" lon="6.53219">
        <ele>2186.3</ele>
        <time>2018-08-05T09:16:17Z</time>
      </trkpt>
      <trkpt lat="44.31785" lon="6.53221">
        <ele>2186</ele>
        <time>2018-08-05T09:16:20Z</time>
      </trkpt>
      <trkpt lat="44.31788" lon="6.53223">
        <ele>2185.4</ele>
        <time>2018-08-05T09:16:25Z</time>
      </trkpt>
      <trkpt lat="44.31791" lon="6.53225">
        <ele>2183.8</ele>
        <time>2018-08-05T09:16:28Z</time>
      </trkpt>
      <trkpt lat="44.31794" lon="6.53226">
        <ele>2182.5</ele>
        <time>2018-08-05T09:16:32Z</time>
      </trkpt>
      <trkpt lat="44.31797" lon="6.53224">
        <ele>2181.2</ele>
        <time>2018-08-05T09:16:34Z</time>
      </trkpt>
      <trkpt lat="44.318" lon="6.53222">
        <ele>2180.4</ele>
        <time>2018-08-05T09:16:38Z</time>
      </trkpt>
      <trkpt lat="44.31803" lon="6.53218">
        <ele>2179.4</ele>
        <time>2018-08-05T09:16:45Z</time>
      </trkpt>
      <trkpt lat="44.31806" lon="6.53217">
        <ele>2178.7</ele>
        <time>2018-08-05T09:16:47Z</time>
      </trkpt>
      <trkpt lat="44.31809" lon="6.53218">
        <ele>2178.1</ele>
        <time>2018-08-05T09:16:49Z</time>
      </trkpt>
      <trkpt lat="44.31812" lon="6.53218">
        <ele>2177.3</ele>
        <time>2018-08-05T09:16:51Z</time>
      </trkpt>
      <trkpt lat="44.31816" lon="6.53219">
        <ele>2177.4</ele>
        <time>2018-08-05T09:16:53Z</time>
      </trkpt>
      <trkpt lat="44.31819" lon="6.53219">
        <ele>2177.5</ele>
        <time>2018-08-05T09:16:55Z</time>
      </trkpt>
      <trkpt lat="44.31821" lon="6.53221">
        <ele>2177.2</ele>
        <time>2018-08-05T09:16:57Z</time>
      </trkpt>
      <trkpt lat="44.31824" lon="6.53223">
        <ele>2176.4</ele>
        <time>2018-08-05T09:16:59Z</time>
      </trkpt>
      <trkpt lat="44.31827" lon="6.53225">
        <ele>2175.8</ele>
        <time>2018-08-05T09:17:01Z</time>
      </trkpt>
      <trkpt lat="44.3183" lon="6.53228">
        <ele>2175.7</ele>
        <time>2018-08-05T09:17:04Z</time>
      </trkpt>
      <trkpt lat="44.31833" lon="6.5323">
        <ele>2175.8</ele>
        <time>2018-08-05T09:17:10Z</time>
      </trkpt>
      <trkpt lat="44.31835" lon="6.53232">
        <ele>2176.1</ele>
        <time>2018-08-05T09:17:15Z</time>
      </trkpt>
      <trkpt lat="44.31838" lon="6.53233">
        <ele>2177</ele>
        <time>2018-08-05T09:17:23Z</time>
      </trkpt>
      <trkpt lat="44.31842" lon="6.53234">
        <ele>2178</ele>
        <time>2018-08-05T09:17:26Z</time>
      </trkpt>
      <trkpt lat="44.31844" lon="6.53235">
        <ele>2178.7</ele>
        <time>2018-08-05T09:17:30Z</time>
      </trkpt>
      <trkpt lat="44.31848" lon="6.53236">
        <ele>2179.5</ele>
        <time>2018-08-05T09:17:33Z</time>
      </trkpt>
      <trkpt lat="44.31851" lon="6.53237">
        <ele>2180.3</ele>
        <time>2018-08-05T09:17:38Z</time>
      </trkpt>
      <trkpt lat="44.31854" lon="6.53238">
        <ele>2180.9</ele>
        <time>2018-08-05T09:17:41Z</time>
      </trkpt>
      <trkpt lat="44.31856" lon="6.5324">
        <ele>2181.4</ele>
        <time>2018-08-05T09:17:45Z</time>
      </trkpt>
      <trkpt lat="44.31859" lon="6.53241">
        <ele>2181.9</ele>
        <time>2018-08-05T09:17:48Z</time>
      </trkpt>
      <trkpt lat="44.31862" lon="6.53242">
        <ele>2182.6</ele>
        <time>2018-08-05T09:17:52Z</time>
      </trkpt>
      <trkpt lat="44.31865" lon="6.53244">
        <ele>2183.5</ele>
        <time>2018-08-05T09:17:55Z</time>
      </trkpt>
      <trkpt lat="44.31868" lon="6.53245">
        <ele>2184.6</ele>
        <time>2018-08-05T09:17:58Z</time>
      </trkpt>
      <trkpt lat="44.3187" lon="6.53249">
        <ele>2185.7</ele>
        <time>2018-08-05T09:18:04Z</time>
      </trkpt>
      <trkpt lat="44.31872" lon="6.53253">
        <ele>2186.8</ele>
        <time>2018-08-05T09:18:16Z</time>
      </trkpt>
      <trkpt lat="44.31875" lon="6.53258">
        <ele>2187.9</ele>
        <time>2018-08-05T09:18:19Z</time>
      </trkpt>
      <trkpt lat="44.31877" lon="6.5326">
        <ele>2188.4</ele>
        <time>2018-08-05T09:18:21Z</time>
      </trkpt>
      <trkpt lat="44.3188" lon="6.53262">
        <ele>2188.7</ele>
        <time>2018-08-05T09:18:24Z</time>
      </trkpt>
      <trkpt lat="44.31883" lon="6.53265">
        <ele>2189.1</ele>
        <time>2018-08-05T09:18:27Z</time>
      </trkpt>
      <trkpt lat="44.31886" lon="6.53268">
        <ele>2189.2</ele>
        <time>2018-08-05T09:18:29Z</time>
      </trkpt>
      <trkpt lat="44.31888" lon="6.53269">
        <ele>2189.4</ele>
        <time>2018-08-05T09:18:31Z</time>
      </trkpt>
      <trkpt lat="44.3189" lon="6.53272">
        <ele>2189.5</ele>
        <time>2018-08-05T09:18:35Z</time>
      </trkpt>
      <trkpt lat="44.3189" lon="6.53276">
        <ele>2189.9</ele>
        <time>2018-08-05T09:18:38Z</time>
      </trkpt>
      <trkpt lat="44.31891" lon="6.53281">
        <ele>2190.7</ele>
        <time>2018-08-05T09:18:41Z</time>
      </trkpt>
      <trkpt lat="44.31894" lon="6.53283">
        <ele>2191.5</ele>
        <time>2018-08-05T09:18:44Z</time>
      </trkpt>
      <trkpt lat="44.31897" lon="6.53287">
        <ele>2192.3</ele>
        <time>2018-08-05T09:18:47Z</time>
      </trkpt>
      <trkpt lat="44.31899" lon="6.53291">
        <ele>2193.1</ele>
        <time>2018-08-05T09:18:50Z</time>
      </trkpt>
      <trkpt lat="44.319" lon="6.53295">
        <ele>2193.8</ele>
        <time>2018-08-05T09:18:53Z</time>
      </trkpt>
      <trkpt lat="44.31901" lon="6.53298">
        <ele>2193.8</ele>
        <time>2018-08-05T09:18:56Z</time>
      </trkpt>
      <trkpt lat="44.31903" lon="6.53302">
        <ele>2193.8</ele>
        <time>2018-08-05T09:18:59Z</time>
      </trkpt>
      <trkpt lat="44.31905" lon="6.53305">
        <ele>2193.7</ele>
        <time>2018-08-05T09:19:02Z</time>
      </trkpt>
      <trkpt lat="44.31907" lon="6.5331">
        <ele>2193.5</ele>
        <time>2018-08-05T09:19:05Z</time>
      </trkpt>
      <trkpt lat="44.31908" lon="6.53315">
        <ele>2193.2</ele>
        <time>2018-08-05T09:19:08Z</time>
      </trkpt>
      <trkpt lat="44.3191" lon="6.53318">
        <ele>2193</ele>
        <time>2018-08-05T09:19:11Z</time>
      </trkpt>
      <trkpt lat="44.31912" lon="6.53323">
        <ele>2193.4</ele>
        <time>2018-08-05T09:19:15Z</time>
      </trkpt>
      <trkpt lat="44.31914" lon="6.53328">
        <ele>2193.7</ele>
        <time>2018-08-05T09:19:30Z</time>
      </trkpt>
      <trkpt lat="44.31916" lon="6.53331">
        <ele>2193.7</ele>
        <time>2018-08-05T09:19:34Z</time>
      </trkpt>
      <trkpt lat="44.31918" lon="6.53334">
        <ele>2193.5</ele>
        <time>2018-08-05T09:19:38Z</time>
      </trkpt>
      <trkpt lat="44.31919" lon="6.53338">
        <ele>2193.3</ele>
        <time>2018-08-05T09:19:44Z</time>
      </trkpt>
      <trkpt lat="44.31921" lon="6.53341">
        <ele>2193.5</ele>
        <time>2018-08-05T09:19:48Z</time>
      </trkpt>
      <trkpt lat="44.31923" lon="6.53346">
        <ele>2194</ele>
        <time>2018-08-05T09:19:51Z</time>
      </trkpt>
      <trkpt lat="44.31925" lon="6.53349">
        <ele>2194.5</ele>
        <time>2018-08-05T09:19:53Z</time>
      </trkpt>
      <trkpt lat="44.31926" lon="6.53352">
        <ele>2194.7</ele>
        <time>2018-08-05T09:19:56Z</time>
      </trkpt>
      <trkpt lat="44.31927" lon="6.53357">
        <ele>2194.5</ele>
        <time>2018-08-05T09:19:59Z</time>
      </trkpt>
      <trkpt lat="44.31928" lon="6.53361">
        <ele>2194.3</ele>
        <time>2018-08-05T09:20:01Z</time>
      </trkpt>
      <trkpt lat="44.31928" lon="6.53366">
        <ele>2194.3</ele>
        <time>2018-08-05T09:20:04Z</time>
      </trkpt>
      <trkpt lat="44.31929" lon="6.53369">
        <ele>2194.4</ele>
        <time>2018-08-05T09:20:12Z</time>
      </trkpt>
      <trkpt lat="44.31931" lon="6.53373">
        <ele>2194.6</ele>
        <time>2018-08-05T09:20:19Z</time>
      </trkpt>
      <trkpt lat="44.31931" lon="6.53377">
        <ele>2194.7</ele>
        <time>2018-08-05T09:20:24Z</time>
      </trkpt>
      <trkpt lat="44.31932" lon="6.53382">
        <ele>2194.5</ele>
        <time>2018-08-05T09:20:28Z</time>
      </trkpt>
      <trkpt lat="44.31933" lon="6.53386">
        <ele>2194.4</ele>
        <time>2018-08-05T09:20:31Z</time>
      </trkpt>
      <trkpt lat="44.31933" lon="6.5339">
        <ele>2194.2</ele>
        <time>2018-08-05T09:20:35Z</time>
      </trkpt>
      <trkpt lat="44.31934" lon="6.53394">
        <ele>2194.2</ele>
        <time>2018-08-05T09:20:39Z</time>
      </trkpt>
      <trkpt lat="44.31932" lon="6.53398">
        <ele>2194.2</ele>
        <time>2018-08-05T09:20:43Z</time>
      </trkpt>
      <trkpt lat="44.31931" lon="6.53403">
        <ele>2194.5</ele>
        <time>2018-08-05T09:20:48Z</time>
      </trkpt>
      <trkpt lat="44.31933" lon="6.53408">
        <ele>2195.1</ele>
        <time>2018-08-05T09:20:58Z</time>
      </trkpt>
      <trkpt lat="44.31933" lon="6.53412">
        <ele>2195.5</ele>
        <time>2018-08-05T09:21:05Z</time>
      </trkpt>
      <trkpt lat="44.31935" lon="6.53415">
        <ele>2196.3</ele>
        <time>2018-08-05T09:21:12Z</time>
      </trkpt>
      <trkpt lat="44.31937" lon="6.53419">
        <ele>2197.3</ele>
        <time>2018-08-05T09:21:15Z</time>
      </trkpt>
      <trkpt lat="44.3194" lon="6.53421">
        <ele>2198.4</ele>
        <time>2018-08-05T09:21:19Z</time>
      </trkpt>
      <trkpt lat="44.31942" lon="6.53423">
        <ele>2199.6</ele>
        <time>2018-08-05T09:21:22Z</time>
      </trkpt>
      <trkpt lat="44.31944" lon="6.53427">
        <ele>2201</ele>
        <time>2018-08-05T09:21:26Z</time>
      </trkpt>
      <trkpt lat="44.31947" lon="6.5343">
        <ele>2202.5</ele>
        <time>2018-08-05T09:21:33Z</time>
      </trkpt>
      <trkpt lat="44.31948" lon="6.53434">
        <ele>2204.1</ele>
        <time>2018-08-05T09:21:36Z</time>
      </trkpt>
      <trkpt lat="44.3195" lon="6.53439">
        <ele>2205.7</ele>
        <time>2018-08-05T09:21:39Z</time>
      </trkpt>
      <trkpt lat="44.31952" lon="6.53442">
        <ele>2206.7</ele>
        <time>2018-08-05T09:21:41Z</time>
      </trkpt>
      <trkpt lat="44.31954" lon="6.53446">
        <ele>2207.1</ele>
        <time>2018-08-05T09:21:43Z</time>
      </trkpt>
      <trkpt lat="44.31954" lon="6.5345">
        <ele>2207.4</ele>
        <time>2018-08-05T09:21:48Z</time>
      </trkpt>
      <trkpt lat="44.31955" lon="6.53453">
        <ele>2208</ele>
        <time>2018-08-05T09:21:52Z</time>
      </trkpt>
      <trkpt lat="44.31957" lon="6.53456">
        <ele>2209.3</ele>
        <time>2018-08-05T09:21:56Z</time>
      </trkpt>
      <trkpt lat="44.31958" lon="6.5346">
        <ele>2210.5</ele>
        <time>2018-08-05T09:22:01Z</time>
      </trkpt>
      <trkpt lat="44.3196" lon="6.53464">
        <ele>2211.8</ele>
        <time>2018-08-05T09:22:05Z</time>
      </trkpt>
      <trkpt lat="44.31962" lon="6.53467">
        <ele>2212.4</ele>
        <time>2018-08-05T09:22:11Z</time>
      </trkpt>
      <trkpt lat="44.31964" lon="6.5347">
        <ele>2213.3</ele>
        <time>2018-08-05T09:22:18Z</time>
      </trkpt>
      <trkpt lat="44.31966" lon="6.53471">
        <ele>2212</ele>
        <time>2018-08-05T09:22:22Z</time>
      </trkpt>
      <trkpt lat="44.31969" lon="6.53473">
        <ele>2212.1</ele>
        <time>2018-08-05T09:22:26Z</time>
      </trkpt>
      <trkpt lat="44.31971" lon="6.53476">
        <ele>2210.9</ele>
        <time>2018-08-05T09:22:30Z</time>
      </trkpt>
      <trkpt lat="44.31971" lon="6.5348">
        <ele>2211.8</ele>
        <time>2018-08-05T09:22:33Z</time>
      </trkpt>
      <trkpt lat="44.3197" lon="6.53484">
        <ele>2213.4</ele>
        <time>2018-08-05T09:22:36Z</time>
      </trkpt>
      <trkpt lat="44.31969" lon="6.53488">
        <ele>2214.3</ele>
        <time>2018-08-05T09:22:39Z</time>
      </trkpt>
      <trkpt lat="44.31967" lon="6.53492">
        <ele>2215.2</ele>
        <time>2018-08-05T09:22:43Z</time>
      </trkpt>
      <trkpt lat="44.31967" lon="6.53497">
        <ele>2216.9</ele>
        <time>2018-08-05T09:23:05Z</time>
      </trkpt>
      <trkpt lat="44.31967" lon="6.53501">
        <ele>2217.8</ele>
        <time>2018-08-05T09:23:11Z</time>
      </trkpt>
      <trkpt lat="44.31967" lon="6.53505">
        <ele>2218.6</ele>
        <time>2018-08-05T09:23:15Z</time>
      </trkpt>
      <trkpt lat="44.31967" lon="6.53509">
        <ele>2219.4</ele>
        <time>2018-08-05T09:23:19Z</time>
      </trkpt>
      <trkpt lat="44.31967" lon="6.53514">
        <ele>2220.1</ele>
        <time>2018-08-05T09:23:25Z</time>
      </trkpt>
      <trkpt lat="44.31966" lon="6.53517">
        <ele>2220.8</ele>
        <time>2018-08-05T09:23:34Z</time>
      </trkpt>
      <trkpt lat="44.31967" lon="6.53521">
        <ele>2221.4</ele>
        <time>2018-08-05T09:23:42Z</time>
      </trkpt>
      <trkpt lat="44.31969" lon="6.53524">
        <ele>2221.5</ele>
        <time>2018-08-05T09:23:47Z</time>
      </trkpt>
      <trkpt lat="44.3197" lon="6.53528">
        <ele>2222.3</ele>
        <time>2018-08-05T09:23:54Z</time>
      </trkpt>
      <trkpt lat="44.31973" lon="6.53537">
        <ele>2223.9</ele>
        <time>2018-08-05T09:25:37Z</time>
      </trkpt>
      <trkpt lat="44.31974" lon="6.53533">
        <ele>2223.3</ele>
        <time>2018-08-05T09:25:45Z</time>
      </trkpt>
      <trkpt lat="44.31975" lon="6.53529">
        <ele>2222.7</ele>
        <time>2018-08-05T09:25:53Z</time>
      </trkpt>
      <trkpt lat="44.31976" lon="6.53524">
        <ele>2222.1</ele>
        <time>2018-08-05T09:25:56Z</time>
      </trkpt>
      <trkpt lat="44.31977" lon="6.53521">
        <ele>2221.6</ele>
        <time>2018-08-05T09:26:01Z</time>
      </trkpt>
      <trkpt lat="44.31979" lon="6.53516">
        <ele>2221</ele>
        <time>2018-08-05T09:26:04Z</time>
      </trkpt>
      <trkpt lat="44.31987" lon="6.53523">
        <ele>2218.3</ele>
        <time>2018-08-05T09:28:40Z</time>
      </trkpt>
      <trkpt lat="44.31989" lon="6.53519">
        <ele>2217.7</ele>
        <time>2018-08-05T09:28:44Z</time>
      </trkpt>
      <trkpt lat="44.3199" lon="6.53515">
        <ele>2217.3</ele>
        <time>2018-08-05T09:28:47Z</time>
      </trkpt>
      <trkpt lat="44.31992" lon="6.5352">
        <ele>2217.4</ele>
        <time>2018-08-05T09:28:50Z</time>
      </trkpt>
      <trkpt lat="44.31994" lon="6.53524">
        <ele>2218.7</ele>
        <time>2018-08-05T09:28:55Z</time>
      </trkpt>
      <trkpt lat="44.31997" lon="6.53525">
        <ele>2219.9</ele>
        <time>2018-08-05T09:28:58Z</time>
      </trkpt>
      <trkpt lat="44.31999" lon="6.53529">
        <ele>2221.2</ele>
        <time>2018-08-05T09:29:01Z</time>
      </trkpt>
      <trkpt lat="44.32" lon="6.53532">
        <ele>2222.7</ele>
        <time>2018-08-05T09:29:04Z</time>
      </trkpt>
      <trkpt lat="44.32" lon="6.53537">
        <ele>2224.3</ele>
        <time>2018-08-05T09:29:09Z</time>
      </trkpt>
      <trkpt lat="44.32002" lon="6.53541">
        <ele>2225.6</ele>
        <time>2018-08-05T09:29:12Z</time>
      </trkpt>
      <trkpt lat="44.32005" lon="6.53544">
        <ele>2226</ele>
        <time>2018-08-05T09:29:15Z</time>
      </trkpt>
      <trkpt lat="44.32007" lon="6.53547">
        <ele>2226.3</ele>
        <time>2018-08-05T09:29:19Z</time>
      </trkpt>
      <trkpt lat="44.3201" lon="6.53549">
        <ele>2226.4</ele>
        <time>2018-08-05T09:29:23Z</time>
      </trkpt>
      <trkpt lat="44.32013" lon="6.5355">
        <ele>2227.6</ele>
        <time>2018-08-05T09:29:26Z</time>
      </trkpt>
      <trkpt lat="44.32016" lon="6.53553">
        <ele>2229.2</ele>
        <time>2018-08-05T09:29:31Z</time>
      </trkpt>
      <trkpt lat="44.32018" lon="6.53555">
        <ele>2230.5</ele>
        <time>2018-08-05T09:29:35Z</time>
      </trkpt>
      <trkpt lat="44.3202" lon="6.53559">
        <ele>2231.9</ele>
        <time>2018-08-05T09:29:39Z</time>
      </trkpt>
      <trkpt lat="44.32022" lon="6.53562">
        <ele>2233.4</ele>
        <time>2018-08-05T09:29:43Z</time>
      </trkpt>
      <trkpt lat="44.32023" lon="6.53566">
        <ele>2234.7</ele>
        <time>2018-08-05T09:29:46Z</time>
      </trkpt>
      <trkpt lat="44.32025" lon="6.53568">
        <ele>2236</ele>
        <time>2018-08-05T09:29:48Z</time>
      </trkpt>
      <trkpt lat="44.32025" lon="6.53573">
        <ele>2238.2</ele>
        <time>2018-08-05T09:29:53Z</time>
      </trkpt>
      <trkpt lat="44.32025" lon="6.53578">
        <ele>2240</ele>
        <time>2018-08-05T09:29:58Z</time>
      </trkpt>
      <trkpt lat="44.32025" lon="6.53582">
        <ele>2241.7</ele>
        <time>2018-08-05T09:30:16Z</time>
      </trkpt>
      <trkpt lat="44.32023" lon="6.53584">
        <ele>2243</ele>
        <time>2018-08-05T09:30:18Z</time>
      </trkpt>
      <trkpt lat="44.32024" lon="6.53588">
        <ele>2244.3</ele>
        <time>2018-08-05T09:30:22Z</time>
      </trkpt>
      <trkpt lat="44.32026" lon="6.53592">
        <ele>2245.7</ele>
        <time>2018-08-05T09:30:27Z</time>
      </trkpt>
      <trkpt lat="44.32028" lon="6.53595">
        <ele>2246</ele>
        <time>2018-08-05T09:30:31Z</time>
      </trkpt>
      <trkpt lat="44.3203" lon="6.53597">
        <ele>2246.3</ele>
        <time>2018-08-05T09:30:47Z</time>
      </trkpt>
      <trkpt lat="44.32033" lon="6.53597">
        <ele>2246.5</ele>
        <time>2018-08-05T09:31:08Z</time>
      </trkpt>
      <trkpt lat="44.32036" lon="6.53595">
        <ele>2246.5</ele>
        <time>2018-08-05T09:31:18Z</time>
      </trkpt>
      <trkpt lat="44.32039" lon="6.53596">
        <ele>2246.6</ele>
        <time>2018-08-05T09:31:22Z</time>
      </trkpt>
      <trkpt lat="44.32042" lon="6.53594">
        <ele>2246.7</ele>
        <time>2018-08-05T09:31:24Z</time>
      </trkpt>
      <trkpt lat="44.32045" lon="6.53591">
        <ele>2247</ele>
        <time>2018-08-05T09:31:28Z</time>
      </trkpt>
      <trkpt lat="44.32048" lon="6.53591">
        <ele>2247.2</ele>
        <time>2018-08-05T09:31:36Z</time>
      </trkpt>
      <trkpt lat="44.32053" lon="6.53583">
        <ele>2243.4</ele>
        <time>2018-08-05T09:32:23Z</time>
      </trkpt>
      <trkpt lat="44.32054" lon="6.53578">
        <ele>2242.3</ele>
        <time>2018-08-05T09:32:29Z</time>
      </trkpt>
      <trkpt lat="44.32054" lon="6.53574">
        <ele>2241.6</ele>
        <time>2018-08-05T09:32:34Z</time>
      </trkpt>
      <trkpt lat="44.32055" lon="6.5357">
        <ele>2241</ele>
        <time>2018-08-05T09:32:37Z</time>
      </trkpt>
      <trkpt lat="44.32055" lon="6.53566">
        <ele>2240.4</ele>
        <time>2018-08-05T09:32:41Z</time>
      </trkpt>
      <trkpt lat="44.32058" lon="6.53565">
        <ele>2240.1</ele>
        <time>2018-08-05T09:32:46Z</time>
      </trkpt>
      <trkpt lat="44.3206" lon="6.53562">
        <ele>2239.8</ele>
        <time>2018-08-05T09:32:50Z</time>
      </trkpt>
      <trkpt lat="44.32063" lon="6.53559">
        <ele>2240</ele>
        <time>2018-08-05T09:32:54Z</time>
      </trkpt>
      <trkpt lat="44.32065" lon="6.53556">
        <ele>2240.3</ele>
        <time>2018-08-05T09:33:05Z</time>
      </trkpt>
      <trkpt lat="44.32068" lon="6.53555">
        <ele>2240.9</ele>
        <time>2018-08-05T09:33:26Z</time>
      </trkpt>
      <trkpt lat="44.32071" lon="6.53554">
        <ele>2241.9</ele>
        <time>2018-08-05T09:33:29Z</time>
      </trkpt>
      <trkpt lat="44.32073" lon="6.53552">
        <ele>2242.9</ele>
        <time>2018-08-05T09:33:32Z</time>
      </trkpt>
      <trkpt lat="44.32076" lon="6.5355">
        <ele>2243</ele>
        <time>2018-08-05T09:33:35Z</time>
      </trkpt>
      <trkpt lat="44.32078" lon="6.53547">
        <ele>2242.8</ele>
        <time>2018-08-05T09:33:40Z</time>
      </trkpt>
      <trkpt lat="44.3208" lon="6.53544">
        <ele>2242.7</ele>
        <time>2018-08-05T09:33:44Z</time>
      </trkpt>
      <trkpt lat="44.32085" lon="6.53539">
        <ele>2243.8</ele>
        <time>2018-08-05T09:33:50Z</time>
      </trkpt>
      <trkpt lat="44.32088" lon="6.53537">
        <ele>2244.1</ele>
        <time>2018-08-05T09:33:54Z</time>
      </trkpt>
      <trkpt lat="44.3209" lon="6.53534">
        <ele>2244.2</ele>
        <time>2018-08-05T09:33:58Z</time>
      </trkpt>
      <trkpt lat="44.32093" lon="6.53534">
        <ele>2244.2</ele>
        <time>2018-08-05T09:34:01Z</time>
      </trkpt>
      <trkpt lat="44.32097" lon="6.53532">
        <ele>2244.9</ele>
        <time>2018-08-05T09:34:04Z</time>
      </trkpt>
      <trkpt lat="44.32099" lon="6.53529">
        <ele>2245.6</ele>
        <time>2018-08-05T09:34:08Z</time>
      </trkpt>
      <trkpt lat="44.32102" lon="6.53526">
        <ele>2246.5</ele>
        <time>2018-08-05T09:34:13Z</time>
      </trkpt>
      <trkpt lat="44.32104" lon="6.53523">
        <ele>2247.1</ele>
        <time>2018-08-05T09:34:19Z</time>
      </trkpt>
      <trkpt lat="44.32108" lon="6.53521">
        <ele>2248.1</ele>
        <time>2018-08-05T09:34:23Z</time>
      </trkpt>
      <trkpt lat="44.3211" lon="6.53518">
        <ele>2248.8</ele>
        <time>2018-08-05T09:34:25Z</time>
      </trkpt>
      <trkpt lat="44.32113" lon="6.53517">
        <ele>2249.6</ele>
        <time>2018-08-05T09:34:29Z</time>
      </trkpt>
      <trkpt lat="44.32113" lon="6.53513">
        <ele>2250.3</ele>
        <time>2018-08-05T09:34:34Z</time>
      </trkpt>
      <trkpt lat="44.32115" lon="6.53511">
        <ele>2251</ele>
        <time>2018-08-05T09:34:38Z</time>
      </trkpt>
      <trkpt lat="44.32118" lon="6.53508">
        <ele>2251.9</ele>
        <time>2018-08-05T09:34:41Z</time>
      </trkpt>
      <trkpt lat="44.32121" lon="6.53507">
        <ele>2252.8</ele>
        <time>2018-08-05T09:34:45Z</time>
      </trkpt>
      <trkpt lat="44.32123" lon="6.53505">
        <ele>2254</ele>
        <time>2018-08-05T09:34:49Z</time>
      </trkpt>
      <trkpt lat="44.32127" lon="6.53503">
        <ele>2255.3</ele>
        <time>2018-08-05T09:34:53Z</time>
      </trkpt>
      <trkpt lat="44.32129" lon="6.53501">
        <ele>2255.7</ele>
        <time>2018-08-05T09:34:57Z</time>
      </trkpt>
      <trkpt lat="44.32132" lon="6.53497">
        <ele>2256.3</ele>
        <time>2018-08-05T09:35:01Z</time>
      </trkpt>
      <trkpt lat="44.32135" lon="6.53496">
        <ele>2256.8</ele>
        <time>2018-08-05T09:35:06Z</time>
      </trkpt>
      <trkpt lat="44.32138" lon="6.53494">
        <ele>2257.3</ele>
        <time>2018-08-05T09:35:10Z</time>
      </trkpt>
      <trkpt lat="44.3214" lon="6.53493">
        <ele>2257.8</ele>
        <time>2018-08-05T09:35:16Z</time>
      </trkpt>
      <trkpt lat="44.32143" lon="6.53491">
        <ele>2257.6</ele>
        <time>2018-08-05T09:35:22Z</time>
      </trkpt>
      <trkpt lat="44.32144" lon="6.53487">
        <ele>2257.3</ele>
        <time>2018-08-05T09:35:26Z</time>
      </trkpt>
      <trkpt lat="44.32146" lon="6.53483">
        <ele>2257</ele>
        <time>2018-08-05T09:35:30Z</time>
      </trkpt>
      <trkpt lat="44.32148" lon="6.53481">
        <ele>2256.6</ele>
        <time>2018-08-05T09:35:34Z</time>
      </trkpt>
      <trkpt lat="44.32151" lon="6.53482">
        <ele>2256.1</ele>
        <time>2018-08-05T09:35:47Z</time>
      </trkpt>
      <trkpt lat="44.32154" lon="6.53482">
        <ele>2255.7</ele>
        <time>2018-08-05T09:35:51Z</time>
      </trkpt>
      <trkpt lat="44.32156" lon="6.53477">
        <ele>2255.1</ele>
        <time>2018-08-05T09:35:54Z</time>
      </trkpt>
      <trkpt lat="44.32158" lon="6.53474">
        <ele>2254.5</ele>
        <time>2018-08-05T09:35:58Z</time>
      </trkpt>
      <trkpt lat="44.3216" lon="6.53471">
        <ele>2254</ele>
        <time>2018-08-05T09:36:01Z</time>
      </trkpt>
      <trkpt lat="44.32162" lon="6.53467">
        <ele>2253.4</ele>
        <time>2018-08-05T09:36:05Z</time>
      </trkpt>
      <trkpt lat="44.32163" lon="6.53463">
        <ele>2252.8</ele>
        <time>2018-08-05T09:36:08Z</time>
      </trkpt>
      <trkpt lat="44.32166" lon="6.53461">
        <ele>2252.2</ele>
        <time>2018-08-05T09:36:12Z</time>
      </trkpt>
      <trkpt lat="44.32169" lon="6.53458">
        <ele>2251.5</ele>
        <time>2018-08-05T09:36:16Z</time>
      </trkpt>
      <trkpt lat="44.32173" lon="6.53459">
        <ele>2250.6</ele>
        <time>2018-08-05T09:36:36Z</time>
      </trkpt>
      <trkpt lat="44.32176" lon="6.53459">
        <ele>2249.8</ele>
        <time>2018-08-05T09:36:40Z</time>
      </trkpt>
      <trkpt lat="44.32178" lon="6.5346">
        <ele>2250.2</ele>
        <time>2018-08-05T09:36:44Z</time>
      </trkpt>
      <trkpt lat="44.32182" lon="6.53459">
        <ele>2250.9</ele>
        <time>2018-08-05T09:36:55Z</time>
      </trkpt>
      <trkpt lat="44.32185" lon="6.53461">
        <ele>2251.8</ele>
        <time>2018-08-05T09:36:58Z</time>
      </trkpt>
      <trkpt lat="44.32189" lon="6.53462">
        <ele>2253.5</ele>
        <time>2018-08-05T09:37:00Z</time>
      </trkpt>
      <trkpt lat="44.32194" lon="6.53463">
        <ele>2255.8</ele>
        <time>2018-08-05T09:37:02Z</time>
      </trkpt>
      <trkpt lat="44.32198" lon="6.53463">
        <ele>2256.2</ele>
        <time>2018-08-05T09:37:03Z</time>
      </trkpt>
      <trkpt lat="44.322" lon="6.53463">
        <ele>2256.5</ele>
        <time>2018-08-05T09:37:05Z</time>
      </trkpt>
      <trkpt lat="44.32204" lon="6.53463">
        <ele>2257</ele>
        <time>2018-08-05T09:37:12Z</time>
      </trkpt>
      <trkpt lat="44.32207" lon="6.53463">
        <ele>2258.2</ele>
        <time>2018-08-05T09:37:16Z</time>
      </trkpt>
      <trkpt lat="44.3221" lon="6.53462">
        <ele>2259.5</ele>
        <time>2018-08-05T09:37:22Z</time>
      </trkpt>
      <trkpt lat="44.32211" lon="6.53458">
        <ele>2260.1</ele>
        <time>2018-08-05T09:37:31Z</time>
      </trkpt>
      <trkpt lat="44.32214" lon="6.53457">
        <ele>2259.3</ele>
        <time>2018-08-05T09:37:35Z</time>
      </trkpt>
      <trkpt lat="44.32217" lon="6.53457">
        <ele>2258.5</ele>
        <time>2018-08-05T09:37:41Z</time>
      </trkpt>
      <trkpt lat="44.32221" lon="6.53456">
        <ele>2258.4</ele>
        <time>2018-08-05T09:37:45Z</time>
      </trkpt>
      <trkpt lat="44.32224" lon="6.53454">
        <ele>2258.5</ele>
        <time>2018-08-05T09:37:48Z</time>
      </trkpt>
      <trkpt lat="44.32227" lon="6.53454">
        <ele>2258.2</ele>
        <time>2018-08-05T09:37:51Z</time>
      </trkpt>
      <trkpt lat="44.32229" lon="6.53455">
        <ele>2257.4</ele>
        <time>2018-08-05T09:37:53Z</time>
      </trkpt>
      <trkpt lat="44.32233" lon="6.53455">
        <ele>2256.4</ele>
        <time>2018-08-05T09:37:57Z</time>
      </trkpt>
      <trkpt lat="44.32236" lon="6.53457">
        <ele>2255.2</ele>
        <time>2018-08-05T09:38:00Z</time>
      </trkpt>
      <trkpt lat="44.32239" lon="6.53459">
        <ele>2254.1</ele>
        <time>2018-08-05T09:38:08Z</time>
      </trkpt>
      <trkpt lat="44.32242" lon="6.5346">
        <ele>2254.6</ele>
        <time>2018-08-05T09:38:12Z</time>
      </trkpt>
      <trkpt lat="44.32244" lon="6.53456">
        <ele>2255.7</ele>
        <time>2018-08-05T09:38:17Z</time>
      </trkpt>
      <trkpt lat="44.32248" lon="6.53456">
        <ele>2257</ele>
        <time>2018-08-05T09:38:22Z</time>
      </trkpt>
      <trkpt lat="44.32251" lon="6.53456">
        <ele>2257.3</ele>
        <time>2018-08-05T09:38:27Z</time>
      </trkpt>
      <trkpt lat="44.32254" lon="6.53455">
        <ele>2257.5</ele>
        <time>2018-08-05T09:38:32Z</time>
      </trkpt>
      <trkpt lat="44.32256" lon="6.53457">
        <ele>2257.8</ele>
        <time>2018-08-05T09:38:51Z</time>
      </trkpt>
      <trkpt lat="44.3226" lon="6.53462">
        <ele>2258.5</ele>
        <time>2018-08-05T09:39:29Z</time>
      </trkpt>
      <trkpt lat="44.32261" lon="6.53467">
        <ele>2259.6</ele>
        <time>2018-08-05T09:39:32Z</time>
      </trkpt>
      <trkpt lat="44.32263" lon="6.5347">
        <ele>2261.6</ele>
        <time>2018-08-05T09:39:36Z</time>
      </trkpt>
      <trkpt lat="44.32265" lon="6.53474">
        <ele>2264.2</ele>
        <time>2018-08-05T09:39:40Z</time>
      </trkpt>
      <trkpt lat="44.32267" lon="6.53477">
        <ele>2266.5</ele>
        <time>2018-08-05T09:39:44Z</time>
      </trkpt>
      <trkpt lat="44.32269" lon="6.5348">
        <ele>2269.5</ele>
        <time>2018-08-05T09:39:49Z</time>
      </trkpt>
      <trkpt lat="44.32271" lon="6.53483">
        <ele>2272.3</ele>
        <time>2018-08-05T09:39:54Z</time>
      </trkpt>
      <trkpt lat="44.32272" lon="6.53487">
        <ele>2274.7</ele>
        <time>2018-08-05T09:40:00Z</time>
      </trkpt>
      <trkpt lat="44.32274" lon="6.53491">
        <ele>2277.1</ele>
        <time>2018-08-05T09:40:15Z</time>
      </trkpt>
      <trkpt lat="44.32276" lon="6.53491">
        <ele>2279.2</ele>
        <time>2018-08-05T09:40:23Z</time>
      </trkpt>
      <trkpt lat="44.32279" lon="6.53488">
        <ele>2281.7</ele>
        <time>2018-08-05T09:40:32Z</time>
      </trkpt>
      <trkpt lat="44.32281" lon="6.53486">
        <ele>2284.1</ele>
        <time>2018-08-05T09:40:47Z</time>
      </trkpt>
      <trkpt lat="44.32286" lon="6.53491">
        <ele>2287.4</ele>
        <time>2018-08-05T09:42:33Z</time>
      </trkpt>
      <trkpt lat="44.32284" lon="6.53488">
        <ele>2286</ele>
        <time>2018-08-05T09:42:42Z</time>
      </trkpt>
      <trkpt lat="44.32286" lon="6.53484">
        <ele>2284.6</ele>
        <time>2018-08-05T09:43:04Z</time>
      </trkpt>
      <trkpt lat="44.32288" lon="6.53481">
        <ele>2283.5</ele>
        <time>2018-08-05T09:43:09Z</time>
      </trkpt>
      <trkpt lat="44.32291" lon="6.53481">
        <ele>2283</ele>
        <time>2018-08-05T09:43:14Z</time>
      </trkpt>
      <trkpt lat="44.32293" lon="6.53478">
        <ele>2282.6</ele>
        <time>2018-08-05T09:43:23Z</time>
      </trkpt>
      <trkpt lat="44.32296" lon="6.53477">
        <ele>2281.8</ele>
        <time>2018-08-05T09:43:30Z</time>
      </trkpt>
      <trkpt lat="44.32297" lon="6.53473">
        <ele>2280.4</ele>
        <time>2018-08-05T09:43:33Z</time>
      </trkpt>
      <trkpt lat="44.323" lon="6.53472">
        <ele>2279.2</ele>
        <time>2018-08-05T09:43:37Z</time>
      </trkpt>
      <trkpt lat="44.32302" lon="6.53469">
        <ele>2278.5</ele>
        <time>2018-08-05T09:43:41Z</time>
      </trkpt>
      <trkpt lat="44.32304" lon="6.53466">
        <ele>2278.1</ele>
        <time>2018-08-05T09:43:45Z</time>
      </trkpt>
      <trkpt lat="44.32307" lon="6.53465">
        <ele>2277.7</ele>
        <time>2018-08-05T09:43:51Z</time>
      </trkpt>
      <trkpt lat="44.3231" lon="6.53462">
        <ele>2276.4</ele>
        <time>2018-08-05T09:43:56Z</time>
      </trkpt>
      <trkpt lat="44.32312" lon="6.53459">
        <ele>2275.2</ele>
        <time>2018-08-05T09:43:59Z</time>
      </trkpt>
      <trkpt lat="44.32316" lon="6.53457">
        <ele>2273.7</ele>
        <time>2018-08-05T09:44:03Z</time>
      </trkpt>
      <trkpt lat="44.32318" lon="6.53455">
        <ele>2273.3</ele>
        <time>2018-08-05T09:44:06Z</time>
      </trkpt>
      <trkpt lat="44.32321" lon="6.53453">
        <ele>2272.9</ele>
        <time>2018-08-05T09:44:11Z</time>
      </trkpt>
      <trkpt lat="44.32323" lon="6.5345">
        <ele>2272.5</ele>
        <time>2018-08-05T09:44:14Z</time>
      </trkpt>
      <trkpt lat="44.32325" lon="6.53448">
        <ele>2272.4</ele>
        <time>2018-08-05T09:44:17Z</time>
      </trkpt>
      <trkpt lat="44.32328" lon="6.53447">
        <ele>2272.3</ele>
        <time>2018-08-05T09:44:19Z</time>
      </trkpt>
      <trkpt lat="44.3233" lon="6.53445">
        <ele>2272.2</ele>
        <time>2018-08-05T09:44:22Z</time>
      </trkpt>
      <trkpt lat="44.32333" lon="6.53443">
        <ele>2271.8</ele>
        <time>2018-08-05T09:44:25Z</time>
      </trkpt>
      <trkpt lat="44.32331" lon="6.53439">
        <ele>2271.4</ele>
        <time>2018-08-05T09:44:29Z</time>
      </trkpt>
      <trkpt lat="44.32334" lon="6.53439">
        <ele>2271.1</ele>
        <time>2018-08-05T09:44:31Z</time>
      </trkpt>
      <trkpt lat="44.32337" lon="6.53439">
        <ele>2270.8</ele>
        <time>2018-08-05T09:44:36Z</time>
      </trkpt>
      <trkpt lat="44.3234" lon="6.5344">
        <ele>2270.5</ele>
        <time>2018-08-05T09:44:40Z</time>
      </trkpt>
      <trkpt lat="44.32343" lon="6.5344">
        <ele>2271.2</ele>
        <time>2018-08-05T09:44:42Z</time>
      </trkpt>
      <trkpt lat="44.32345" lon="6.53436">
        <ele>2271.9</ele>
        <time>2018-08-05T09:44:48Z</time>
      </trkpt>
      <trkpt lat="44.32348" lon="6.53436">
        <ele>2272.8</ele>
        <time>2018-08-05T09:44:53Z</time>
      </trkpt>
      <trkpt lat="44.32351" lon="6.53435">
        <ele>2273.7</ele>
        <time>2018-08-05T09:44:56Z</time>
      </trkpt>
      <trkpt lat="44.32353" lon="6.53433">
        <ele>2274.6</ele>
        <time>2018-08-05T09:45:02Z</time>
      </trkpt>
      <trkpt lat="44.32356" lon="6.53434">
        <ele>2275.2</ele>
        <time>2018-08-05T09:45:09Z</time>
      </trkpt>
      <trkpt lat="44.32358" lon="6.53432">
        <ele>2275</ele>
        <time>2018-08-05T09:45:12Z</time>
      </trkpt>
      <trkpt lat="44.32359" lon="6.53428">
        <ele>2274.6</ele>
        <time>2018-08-05T09:45:15Z</time>
      </trkpt>
      <trkpt lat="44.32361" lon="6.53425">
        <ele>2274.2</ele>
        <time>2018-08-05T09:45:18Z</time>
      </trkpt>
      <trkpt lat="44.32364" lon="6.53423">
        <ele>2273</ele>
        <time>2018-08-05T09:45:21Z</time>
      </trkpt>
      <trkpt lat="44.32365" lon="6.53419">
        <ele>2272.1</ele>
        <time>2018-08-05T09:45:24Z</time>
      </trkpt>
      <trkpt lat="44.32368" lon="6.53418">
        <ele>2271.4</ele>
        <time>2018-08-05T09:45:30Z</time>
      </trkpt>
      <trkpt lat="44.32371" lon="6.53418">
        <ele>2271.2</ele>
        <time>2018-08-05T09:45:36Z</time>
      </trkpt>
      <trkpt lat="44.32374" lon="6.5342">
        <ele>2271</ele>
        <time>2018-08-05T09:45:39Z</time>
      </trkpt>
      <trkpt lat="44.32377" lon="6.53419">
        <ele>2271.2</ele>
        <time>2018-08-05T09:45:44Z</time>
      </trkpt>
      <trkpt lat="44.3238" lon="6.53422">
        <ele>2272.2</ele>
        <time>2018-08-05T09:45:48Z</time>
      </trkpt>
      <trkpt lat="44.32382" lon="6.53424">
        <ele>2272.9</ele>
        <time>2018-08-05T09:45:51Z</time>
      </trkpt>
      <trkpt lat="44.32385" lon="6.53427">
        <ele>2274.1</ele>
        <time>2018-08-05T09:45:54Z</time>
      </trkpt>
      <trkpt lat="44.32388" lon="6.53427">
        <ele>2275.4</ele>
        <time>2018-08-05T09:45:59Z</time>
      </trkpt>
      <trkpt lat="44.32391" lon="6.53426">
        <ele>2277.1</ele>
        <time>2018-08-05T09:46:06Z</time>
      </trkpt>
      <trkpt lat="44.32395" lon="6.53426">
        <ele>2278</ele>
        <time>2018-08-05T09:46:12Z</time>
      </trkpt>
      <trkpt lat="44.32397" lon="6.53424">
        <ele>2278.8</ele>
        <time>2018-08-05T09:46:17Z</time>
      </trkpt>
      <trkpt lat="44.324" lon="6.53422">
        <ele>2279.5</ele>
        <time>2018-08-05T09:46:21Z</time>
      </trkpt>
      <trkpt lat="44.32403" lon="6.5342">
        <ele>2279.9</ele>
        <time>2018-08-05T09:46:25Z</time>
      </trkpt>
      <trkpt lat="44.32406" lon="6.5342">
        <ele>2280.2</ele>
        <time>2018-08-05T09:46:30Z</time>
      </trkpt>
      <trkpt lat="44.32409" lon="6.5342">
        <ele>2280.5</ele>
        <time>2018-08-05T09:46:34Z</time>
      </trkpt>
      <trkpt lat="44.32412" lon="6.53421">
        <ele>2280.9</ele>
        <time>2018-08-05T09:46:44Z</time>
      </trkpt>
      <trkpt lat="44.32415" lon="6.53423">
        <ele>2281.3</ele>
        <time>2018-08-05T09:47:04Z</time>
      </trkpt>
      <trkpt lat="44.32418" lon="6.53425">
        <ele>2281.6</ele>
        <time>2018-08-05T09:47:08Z</time>
      </trkpt>
      <trkpt lat="44.3242" lon="6.53422">
        <ele>2281.2</ele>
        <time>2018-08-05T09:47:14Z</time>
      </trkpt>
      <trkpt lat="44.32423" lon="6.53423">
        <ele>2280.8</ele>
        <time>2018-08-05T09:47:21Z</time>
      </trkpt>
      <trkpt lat="44.32426" lon="6.53423">
        <ele>2280.5</ele>
        <time>2018-08-05T09:47:24Z</time>
      </trkpt>
      <trkpt lat="44.32429" lon="6.53423">
        <ele>2280.7</ele>
        <time>2018-08-05T09:47:35Z</time>
      </trkpt>
      <trkpt lat="44.32433" lon="6.53422">
        <ele>2280.9</ele>
        <time>2018-08-05T09:47:41Z</time>
      </trkpt>
      <trkpt lat="44.32436" lon="6.53422">
        <ele>2281.1</ele>
        <time>2018-08-05T09:47:45Z</time>
      </trkpt>
      <trkpt lat="44.32439" lon="6.53421">
        <ele>2280.7</ele>
        <time>2018-08-05T09:47:48Z</time>
      </trkpt>
      <trkpt lat="44.32442" lon="6.5342">
        <ele>2280.2</ele>
        <time>2018-08-05T09:47:51Z</time>
      </trkpt>
      <trkpt lat="44.32444" lon="6.53417">
        <ele>2279.8</ele>
        <time>2018-08-05T09:47:55Z</time>
      </trkpt>
      <trkpt lat="44.32448" lon="6.53417">
        <ele>2279.8</ele>
        <time>2018-08-05T09:47:59Z</time>
      </trkpt>
      <trkpt lat="44.32451" lon="6.53418">
        <ele>2279.9</ele>
        <time>2018-08-05T09:48:03Z</time>
      </trkpt>
      <trkpt lat="44.32454" lon="6.53417">
        <ele>2280</ele>
        <time>2018-08-05T09:48:07Z</time>
      </trkpt>
      <trkpt lat="44.32458" lon="6.53417">
        <ele>2279.5</ele>
        <time>2018-08-05T09:48:10Z</time>
      </trkpt>
      <trkpt lat="44.32461" lon="6.53417">
        <ele>2279</ele>
        <time>2018-08-05T09:48:14Z</time>
      </trkpt>
      <trkpt lat="44.32464" lon="6.53418">
        <ele>2278.4</ele>
        <time>2018-08-05T09:48:17Z</time>
      </trkpt>
      <trkpt lat="44.32466" lon="6.53417">
        <ele>2278.2</ele>
        <time>2018-08-05T09:48:22Z</time>
      </trkpt>
      <trkpt lat="44.3247" lon="6.53417">
        <ele>2278.1</ele>
        <time>2018-08-05T09:48:26Z</time>
      </trkpt>
      <trkpt lat="44.32473" lon="6.53417">
        <ele>2278</ele>
        <time>2018-08-05T09:48:30Z</time>
      </trkpt>
      <trkpt lat="44.32475" lon="6.53418">
        <ele>2277.9</ele>
        <time>2018-08-05T09:48:34Z</time>
      </trkpt>
      <trkpt lat="44.32479" lon="6.53419">
        <ele>2277.7</ele>
        <time>2018-08-05T09:48:37Z</time>
      </trkpt>
      <trkpt lat="44.32482" lon="6.5342">
        <ele>2277.5</ele>
        <time>2018-08-05T09:48:40Z</time>
      </trkpt>
      <trkpt lat="44.32485" lon="6.5342">
        <ele>2277.6</ele>
        <time>2018-08-05T09:48:43Z</time>
      </trkpt>
      <trkpt lat="44.32488" lon="6.53421">
        <ele>2277.9</ele>
        <time>2018-08-05T09:48:46Z</time>
      </trkpt>
      <trkpt lat="44.32491" lon="6.53421">
        <ele>2278.1</ele>
        <time>2018-08-05T09:48:51Z</time>
      </trkpt>
      <trkpt lat="44.32495" lon="6.53421">
        <ele>2278.1</ele>
        <time>2018-08-05T09:48:55Z</time>
      </trkpt>
      <trkpt lat="44.32498" lon="6.53423">
        <ele>2277.8</ele>
        <time>2018-08-05T09:49:01Z</time>
      </trkpt>
      <trkpt lat="44.325" lon="6.53425">
        <ele>2277.5</ele>
        <time>2018-08-05T09:49:18Z</time>
      </trkpt>
      <trkpt lat="44.32503" lon="6.53425">
        <ele>2277.5</ele>
        <time>2018-08-05T09:49:21Z</time>
      </trkpt>
      <trkpt lat="44.32507" lon="6.53426">
        <ele>2277.5</ele>
        <time>2018-08-05T09:49:26Z</time>
      </trkpt>
      <trkpt lat="44.3251" lon="6.53427">
        <ele>2277.4</ele>
        <time>2018-08-05T09:49:33Z</time>
      </trkpt>
      <trkpt lat="44.32513" lon="6.53428">
        <ele>2276.8</ele>
        <time>2018-08-05T09:49:37Z</time>
      </trkpt>
      <trkpt lat="44.32516" lon="6.53429">
        <ele>2276.3</ele>
        <time>2018-08-05T09:49:41Z</time>
      </trkpt>
      <trkpt lat="44.32518" lon="6.5343">
        <ele>2275.8</ele>
        <time>2018-08-05T09:49:47Z</time>
      </trkpt>
      <trkpt lat="44.32519" lon="6.53434">
        <ele>2275.8</ele>
        <time>2018-08-05T09:49:58Z</time>
      </trkpt>
      <trkpt lat="44.32519" lon="6.53439">
        <ele>2275.8</ele>
        <time>2018-08-05T09:50:01Z</time>
      </trkpt>
      <trkpt lat="44.32519" lon="6.53444">
        <ele>2275.7</ele>
        <time>2018-08-05T09:50:05Z</time>
      </trkpt>
      <trkpt lat="44.32519" lon="6.53448">
        <ele>2275</ele>
        <time>2018-08-05T09:50:10Z</time>
      </trkpt>
      <trkpt lat="44.32517" lon="6.53451">
        <ele>2274.4</ele>
        <time>2018-08-05T09:50:13Z</time>
      </trkpt>
      <trkpt lat="44.32514" lon="6.53453">
        <ele>2274.5</ele>
        <time>2018-08-05T09:50:37Z</time>
      </trkpt>
      <trkpt lat="44.32511" lon="6.53453">
        <ele>2276</ele>
        <time>2018-08-05T09:50:48Z</time>
      </trkpt>
      <trkpt lat="44.32507" lon="6.53452">
        <ele>2277.7</ele>
        <time>2018-08-05T09:50:51Z</time>
      </trkpt>
      <trkpt lat="44.32503" lon="6.53451">
        <ele>2278.9</ele>
        <time>2018-08-05T09:50:54Z</time>
      </trkpt>
      <trkpt lat="44.32499" lon="6.53451">
        <ele>2280.2</ele>
        <time>2018-08-05T09:50:56Z</time>
      </trkpt>
      <trkpt lat="44.32493" lon="6.53452">
        <ele>2281.6</ele>
        <time>2018-08-05T09:51:00Z</time>
      </trkpt>
      <trkpt lat="44.3249" lon="6.53452">
        <ele>2282</ele>
        <time>2018-08-05T09:51:02Z</time>
      </trkpt>
      <trkpt lat="44.32487" lon="6.53454">
        <ele>2282.5</ele>
        <time>2018-08-05T09:51:05Z</time>
      </trkpt>
      <trkpt lat="44.32483" lon="6.53453">
        <ele>2283.1</ele>
        <time>2018-08-05T09:51:08Z</time>
      </trkpt>
      <trkpt lat="44.3248" lon="6.53453">
        <ele>2283.5</ele>
        <time>2018-08-05T09:51:10Z</time>
      </trkpt>
      <trkpt lat="44.32477" lon="6.53453">
        <ele>2283.8</ele>
        <time>2018-08-05T09:51:13Z</time>
      </trkpt>
      <trkpt lat="44.32473" lon="6.53455">
        <ele>2283.8</ele>
        <time>2018-08-05T09:51:16Z</time>
      </trkpt>
      <trkpt lat="44.32471" lon="6.53456">
        <ele>2283.9</ele>
        <time>2018-08-05T09:51:17Z</time>
      </trkpt>
      <trkpt lat="44.32467" lon="6.53456">
        <ele>2285</ele>
        <time>2018-08-05T09:51:19Z</time>
      </trkpt>
      <trkpt lat="44.32468" lon="6.5346">
        <ele>2286</ele>
        <time>2018-08-05T09:51:41Z</time>
      </trkpt>
      <trkpt lat="44.32469" lon="6.53463">
        <ele>2286.8</ele>
        <time>2018-08-05T09:51:44Z</time>
      </trkpt>
      <trkpt lat="44.3247" lon="6.53467">
        <ele>2287.1</ele>
        <time>2018-08-05T09:51:47Z</time>
      </trkpt>
      <trkpt lat="44.3247" lon="6.53472">
        <ele>2287.5</ele>
        <time>2018-08-05T09:51:50Z</time>
      </trkpt>
      <trkpt lat="44.3247" lon="6.53475">
        <ele>2287.9</ele>
        <time>2018-08-05T09:51:54Z</time>
      </trkpt>
      <trkpt lat="44.3247" lon="6.53481">
        <ele>2288.6</ele>
        <time>2018-08-05T09:51:57Z</time>
      </trkpt>
      <trkpt lat="44.32471" lon="6.53486">
        <ele>2289.3</ele>
        <time>2018-08-05T09:52:00Z</time>
      </trkpt>
      <trkpt lat="44.32469" lon="6.53491">
        <ele>2289.7</ele>
        <time>2018-08-05T09:52:04Z</time>
      </trkpt>
      <trkpt lat="44.32468" lon="6.53495">
        <ele>2290.2</ele>
        <time>2018-08-05T09:52:08Z</time>
      </trkpt>
      <trkpt lat="44.32466" lon="6.53499">
        <ele>2290.9</ele>
        <time>2018-08-05T09:52:11Z</time>
      </trkpt>
      <trkpt lat="44.32466" lon="6.53504">
        <ele>2291.7</ele>
        <time>2018-08-05T09:52:15Z</time>
      </trkpt>
      <trkpt lat="44.32465" lon="6.53509">
        <ele>2292.6</ele>
        <time>2018-08-05T09:52:18Z</time>
      </trkpt>
      <trkpt lat="44.32466" lon="6.53513">
        <ele>2293.3</ele>
        <time>2018-08-05T09:52:21Z</time>
      </trkpt>
      <trkpt lat="44.32464" lon="6.53519">
        <ele>2294.4</ele>
        <time>2018-08-05T09:52:26Z</time>
      </trkpt>
      <trkpt lat="44.32464" lon="6.53523">
        <ele>2295</ele>
        <time>2018-08-05T09:52:28Z</time>
      </trkpt>
      <trkpt lat="44.32464" lon="6.53528">
        <ele>2295.8</ele>
        <time>2018-08-05T09:52:32Z</time>
      </trkpt>
      <trkpt lat="44.32463" lon="6.53531">
        <ele>2296.4</ele>
        <time>2018-08-05T09:52:53Z</time>
      </trkpt>
      <trkpt lat="44.32462" lon="6.53535">
        <ele>2297</ele>
        <time>2018-08-05T09:52:55Z</time>
      </trkpt>
      <trkpt lat="44.3246" lon="6.5354">
        <ele>2297.9</ele>
        <time>2018-08-05T09:52:58Z</time>
      </trkpt>
      <trkpt lat="44.3246" lon="6.53543">
        <ele>2298.5</ele>
        <time>2018-08-05T09:53:00Z</time>
      </trkpt>
      <trkpt lat="44.32459" lon="6.53547">
        <ele>2299.2</ele>
        <time>2018-08-05T09:53:02Z</time>
      </trkpt>
      <trkpt lat="44.32458" lon="6.53551">
        <ele>2300</ele>
        <time>2018-08-05T09:53:04Z</time>
      </trkpt>
      <trkpt lat="44.32456" lon="6.53555">
        <ele>2301</ele>
        <time>2018-08-05T09:53:07Z</time>
      </trkpt>
      <trkpt lat="44.32455" lon="6.53558">
        <ele>2301.8</ele>
        <time>2018-08-05T09:53:09Z</time>
      </trkpt>
      <trkpt lat="44.32453" lon="6.53562">
        <ele>2302.3</ele>
        <time>2018-08-05T09:53:11Z</time>
      </trkpt>
      <trkpt lat="44.32452" lon="6.53565">
        <ele>2302.8</ele>
        <time>2018-08-05T09:53:14Z</time>
      </trkpt>
      <trkpt lat="44.32451" lon="6.53569">
        <ele>2303.2</ele>
        <time>2018-08-05T09:53:20Z</time>
      </trkpt>
      <trkpt lat="44.3245" lon="6.53573">
        <ele>2303.9</ele>
        <time>2018-08-05T09:53:25Z</time>
      </trkpt>
      <trkpt lat="44.32448" lon="6.53577">
        <ele>2304.9</ele>
        <time>2018-08-05T09:53:28Z</time>
      </trkpt>
      <trkpt lat="44.32445" lon="6.53581">
        <ele>2305.8</ele>
        <time>2018-08-05T09:53:30Z</time>
      </trkpt>
      <trkpt lat="44.32446" lon="6.53584">
        <ele>2306.3</ele>
        <time>2018-08-05T09:53:32Z</time>
      </trkpt>
      <trkpt lat="44.32445" lon="6.53589">
        <ele>2306.9</ele>
        <time>2018-08-05T09:53:35Z</time>
      </trkpt>
      <trkpt lat="44.32442" lon="6.53593">
        <ele>2307.7</ele>
        <time>2018-08-05T09:53:37Z</time>
      </trkpt>
      <trkpt lat="44.32441" lon="6.53598">
        <ele>2308.5</ele>
        <time>2018-08-05T09:53:40Z</time>
      </trkpt>
      <trkpt lat="44.32441" lon="6.53602">
        <ele>2309.3</ele>
        <time>2018-08-05T09:53:43Z</time>
      </trkpt>
      <trkpt lat="44.32444" lon="6.53604">
        <ele>2310.1</ele>
        <time>2018-08-05T09:53:50Z</time>
      </trkpt>
      <trkpt lat="44.32441" lon="6.53605">
        <ele>2310.7</ele>
        <time>2018-08-05T09:53:54Z</time>
      </trkpt>
      <trkpt lat="44.32438" lon="6.53607">
        <ele>2311.4</ele>
        <time>2018-08-05T09:54:06Z</time>
      </trkpt>
      <trkpt lat="44.32438" lon="6.53611">
        <ele>2311.9</ele>
        <time>2018-08-05T09:54:11Z</time>
      </trkpt>
      <trkpt lat="44.32437" lon="6.53617">
        <ele>2312.4</ele>
        <time>2018-08-05T09:54:15Z</time>
      </trkpt>
      <trkpt lat="44.32434" lon="6.5362">
        <ele>2312.8</ele>
        <time>2018-08-05T09:54:18Z</time>
      </trkpt>
      <trkpt lat="44.32436" lon="6.53624">
        <ele>2313.5</ele>
        <time>2018-08-05T09:54:23Z</time>
      </trkpt>
      <trkpt lat="44.32438" lon="6.53628">
        <ele>2314.2</ele>
        <time>2018-08-05T09:54:26Z</time>
      </trkpt>
      <trkpt lat="44.32439" lon="6.53632">
        <ele>2314.9</ele>
        <time>2018-08-05T09:54:30Z</time>
      </trkpt>
      <trkpt lat="44.3244" lon="6.53636">
        <ele>2315.3</ele>
        <time>2018-08-05T09:54:35Z</time>
      </trkpt>
      <trkpt lat="44.32441" lon="6.5364">
        <ele>2315.6</ele>
        <time>2018-08-05T09:54:39Z</time>
      </trkpt>
      <trkpt lat="44.3244" lon="6.53644">
        <ele>2315.8</ele>
        <time>2018-08-05T09:54:42Z</time>
      </trkpt>
      <trkpt lat="44.32439" lon="6.53649">
        <ele>2316.2</ele>
        <time>2018-08-05T09:54:45Z</time>
      </trkpt>
      <trkpt lat="44.32439" lon="6.53653">
        <ele>2316.9</ele>
        <time>2018-08-05T09:54:48Z</time>
      </trkpt>
      <trkpt lat="44.32439" lon="6.53657">
        <ele>2317.5</ele>
        <time>2018-08-05T09:55:24Z</time>
      </trkpt>
      <trkpt lat="44.32438" lon="6.53662">
        <ele>2318.3</ele>
        <time>2018-08-05T09:55:27Z</time>
      </trkpt>
      <trkpt lat="44.32437" lon="6.53666">
        <ele>2318.9</ele>
        <time>2018-08-05T09:55:29Z</time>
      </trkpt>
      <trkpt lat="44.32436" lon="6.5367">
        <ele>2319.6</ele>
        <time>2018-08-05T09:55:31Z</time>
      </trkpt>
      <trkpt lat="44.32434" lon="6.53673">
        <ele>2320.3</ele>
        <time>2018-08-05T09:55:33Z</time>
      </trkpt>
      <trkpt lat="44.32432" lon="6.53677">
        <ele>2320.5</ele>
        <time>2018-08-05T09:55:44Z</time>
      </trkpt>
      <trkpt lat="44.32428" lon="6.53679">
        <ele>2320.8</ele>
        <time>2018-08-05T09:55:48Z</time>
      </trkpt>
      <trkpt lat="44.32427" lon="6.53683">
        <ele>2321.1</ele>
        <time>2018-08-05T09:55:52Z</time>
      </trkpt>
      <trkpt lat="44.32427" lon="6.53688">
        <ele>2321.7</ele>
        <time>2018-08-05T09:55:56Z</time>
      </trkpt>
      <trkpt lat="44.32425" lon="6.53692">
        <ele>2322.4</ele>
        <time>2018-08-05T09:56:00Z</time>
      </trkpt>
      <trkpt lat="44.32423" lon="6.53696">
        <ele>2323</ele>
        <time>2018-08-05T09:56:04Z</time>
      </trkpt>
      <trkpt lat="44.32423" lon="6.537">
        <ele>2323.6</ele>
        <time>2018-08-05T09:56:07Z</time>
      </trkpt>
      <trkpt lat="44.32423" lon="6.53705">
        <ele>2324.3</ele>
        <time>2018-08-05T09:56:11Z</time>
      </trkpt>
      <trkpt lat="44.32423" lon="6.53709">
        <ele>2325</ele>
        <time>2018-08-05T09:56:15Z</time>
      </trkpt>
      <trkpt lat="44.32423" lon="6.53714">
        <ele>2325.8</ele>
        <time>2018-08-05T09:56:20Z</time>
      </trkpt>
      <trkpt lat="44.32421" lon="6.53717">
        <ele>2326.5</ele>
        <time>2018-08-05T09:56:23Z</time>
      </trkpt>
      <trkpt lat="44.32419" lon="6.53721">
        <ele>2327.2</ele>
        <time>2018-08-05T09:56:26Z</time>
      </trkpt>
      <trkpt lat="44.32416" lon="6.53724">
        <ele>2327.9</ele>
        <time>2018-08-05T09:56:29Z</time>
      </trkpt>
      <trkpt lat="44.32414" lon="6.53727">
        <ele>2328.6</ele>
        <time>2018-08-05T09:56:34Z</time>
      </trkpt>
      <trkpt lat="44.32412" lon="6.5373">
        <ele>2329.2</ele>
        <time>2018-08-05T09:56:38Z</time>
      </trkpt>
      <trkpt lat="44.32411" lon="6.53734">
        <ele>2329.8</ele>
        <time>2018-08-05T09:56:44Z</time>
      </trkpt>
      <trkpt lat="44.32413" lon="6.53738">
        <ele>2330.5</ele>
        <time>2018-08-05T09:56:49Z</time>
      </trkpt>
      <trkpt lat="44.32413" lon="6.53743">
        <ele>2331.4</ele>
        <time>2018-08-05T09:56:53Z</time>
      </trkpt>
      <trkpt lat="44.32413" lon="6.53748">
        <ele>2332.2</ele>
        <time>2018-08-05T09:56:57Z</time>
      </trkpt>
      <trkpt lat="44.32414" lon="6.53752">
        <ele>2332.9</ele>
        <time>2018-08-05T09:57:01Z</time>
      </trkpt>
      <trkpt lat="44.32412" lon="6.53755">
        <ele>2333.6</ele>
        <time>2018-08-05T09:57:05Z</time>
      </trkpt>
      <trkpt lat="44.32411" lon="6.53759">
        <ele>2334.3</ele>
        <time>2018-08-05T09:57:09Z</time>
      </trkpt>
      <trkpt lat="44.32409" lon="6.53761">
        <ele>2334.9</ele>
        <time>2018-08-05T09:57:12Z</time>
      </trkpt>
      <trkpt lat="44.32406" lon="6.53764">
        <ele>2335.6</ele>
        <time>2018-08-05T09:57:18Z</time>
      </trkpt>
      <trkpt lat="44.32404" lon="6.53765">
        <ele>2336.7</ele>
        <time>2018-08-05T09:57:24Z</time>
      </trkpt>
      <trkpt lat="44.32403" lon="6.5377">
        <ele>2338.1</ele>
        <time>2018-08-05T09:57:32Z</time>
      </trkpt>
      <trkpt lat="44.32403" lon="6.53774">
        <ele>2339.3</ele>
        <time>2018-08-05T09:57:35Z</time>
      </trkpt>
      <trkpt lat="44.32402" lon="6.53778">
        <ele>2340.5</ele>
        <time>2018-08-05T09:57:40Z</time>
      </trkpt>
      <trkpt lat="44.32401" lon="6.53782">
        <ele>2341.4</ele>
        <time>2018-08-05T09:57:44Z</time>
      </trkpt>
      <trkpt lat="44.32399" lon="6.53785">
        <ele>2342.3</ele>
        <time>2018-08-05T09:57:48Z</time>
      </trkpt>
      <trkpt lat="44.32397" lon="6.53788">
        <ele>2343.1</ele>
        <time>2018-08-05T09:58:01Z</time>
      </trkpt>
      <trkpt lat="44.32394" lon="6.53791">
        <ele>2344</ele>
        <time>2018-08-05T09:58:11Z</time>
      </trkpt>
      <trkpt lat="44.32396" lon="6.53793">
        <ele>2344.7</ele>
        <time>2018-08-05T09:58:18Z</time>
      </trkpt>
      <trkpt lat="44.32398" lon="6.53796">
        <ele>2345.4</ele>
        <time>2018-08-05T09:58:24Z</time>
      </trkpt>
      <trkpt lat="44.32401" lon="6.53798">
        <ele>2346.4</ele>
        <time>2018-08-05T09:58:29Z</time>
      </trkpt>
      <trkpt lat="44.32401" lon="6.53801">
        <ele>2347</ele>
        <time>2018-08-05T09:58:34Z</time>
      </trkpt>
      <trkpt lat="44.32401" lon="6.53803">
        <ele>2347.6</ele>
        <time>2018-08-05T10:05:14Z</time>
      </trkpt>
      <trkpt lat="44.32402" lon="6.53806">
        <ele>2348.2</ele>
        <time>2018-08-05T10:05:15Z</time>
      </trkpt>
      <trkpt lat="44.32404" lon="6.53804">
        <ele>2349</ele>
        <time>2018-08-05T10:05:16Z</time>
      </trkpt>
      <trkpt lat="44.32401" lon="6.53804">
        <ele>2349.8</ele>
        <time>2018-08-05T10:05:27Z</time>
      </trkpt>
      <trkpt lat="44.32403" lon="6.53808">
        <ele>2350.6</ele>
        <time>2018-08-05T10:05:51Z</time>
      </trkpt>
      <trkpt lat="44.32404" lon="6.53811">
        <ele>2351.5</ele>
        <time>2018-08-05T10:05:53Z</time>
      </trkpt>
      <trkpt lat="44.32403" lon="6.53816">
        <ele>2352.9</ele>
        <time>2018-08-05T10:05:57Z</time>
      </trkpt>
      <trkpt lat="44.32402" lon="6.53821">
        <ele>2354.7</ele>
        <time>2018-08-05T10:06:01Z</time>
      </trkpt>
      <trkpt lat="44.32402" lon="6.53826">
        <ele>2354.6</ele>
        <time>2018-08-05T10:06:05Z</time>
      </trkpt>
      <trkpt lat="44.32401" lon="6.5383">
        <ele>2353.4</ele>
        <time>2018-08-05T10:06:09Z</time>
      </trkpt>
      <trkpt lat="44.32401" lon="6.53834">
        <ele>2352.2</ele>
        <time>2018-08-05T10:06:13Z</time>
      </trkpt>
      <trkpt lat="44.324" lon="6.53838">
        <ele>2351.7</ele>
        <time>2018-08-05T10:06:16Z</time>
      </trkpt>
      <trkpt lat="44.32401" lon="6.53841">
        <ele>2352.3</ele>
        <time>2018-08-05T10:06:20Z</time>
      </trkpt>
      <trkpt lat="44.32402" lon="6.53846">
        <ele>2353</ele>
        <time>2018-08-05T10:06:25Z</time>
      </trkpt>
      <trkpt lat="44.32401" lon="6.5385">
        <ele>2353.6</ele>
        <time>2018-08-05T10:06:30Z</time>
      </trkpt>
      <trkpt lat="44.32401" lon="6.53854">
        <ele>2354</ele>
        <time>2018-08-05T10:06:43Z</time>
      </trkpt>
      <trkpt lat="44.32401" lon="6.53858">
        <ele>2354.5</ele>
        <time>2018-08-05T10:06:53Z</time>
      </trkpt>
      <trkpt lat="44.32403" lon="6.53862">
        <ele>2355.4</ele>
        <time>2018-08-05T10:06:58Z</time>
      </trkpt>
      <trkpt lat="44.32405" lon="6.53865">
        <ele>2356.5</ele>
        <time>2018-08-05T10:07:02Z</time>
      </trkpt>
      <trkpt lat="44.32408" lon="6.53866">
        <ele>2357.8</ele>
        <time>2018-08-05T10:07:05Z</time>
      </trkpt>
      <trkpt lat="44.32411" lon="6.53866">
        <ele>2358.7</ele>
        <time>2018-08-05T10:07:09Z</time>
      </trkpt>
      <trkpt lat="44.32413" lon="6.53867">
        <ele>2359.4</ele>
        <time>2018-08-05T10:07:12Z</time>
      </trkpt>
      <trkpt lat="44.32416" lon="6.5387">
        <ele>2360.2</ele>
        <time>2018-08-05T10:07:16Z</time>
      </trkpt>
      <trkpt lat="44.32417" lon="6.53875">
        <ele>2360.9</ele>
        <time>2018-08-05T10:07:21Z</time>
      </trkpt>
      <trkpt lat="44.32417" lon="6.53879">
        <ele>2361.5</ele>
        <time>2018-08-05T10:07:26Z</time>
      </trkpt>
      <trkpt lat="44.32417" lon="6.53884">
        <ele>2362.1</ele>
        <time>2018-08-05T10:07:30Z</time>
      </trkpt>
      <trkpt lat="44.32417" lon="6.53888">
        <ele>2361.6</ele>
        <time>2018-08-05T10:07:34Z</time>
      </trkpt>
      <trkpt lat="44.32417" lon="6.53893">
        <ele>2361</ele>
        <time>2018-08-05T10:07:38Z</time>
      </trkpt>
      <trkpt lat="44.32416" lon="6.53897">
        <ele>2360.5</ele>
        <time>2018-08-05T10:07:43Z</time>
      </trkpt>
      <trkpt lat="44.32415" lon="6.539">
        <ele>2360</ele>
        <time>2018-08-05T10:07:47Z</time>
      </trkpt>
      <trkpt lat="44.32414" lon="6.53904">
        <ele>2359.5</ele>
        <time>2018-08-05T10:07:52Z</time>
      </trkpt>
      <trkpt lat="44.32413" lon="6.53908">
        <ele>2359.5</ele>
        <time>2018-08-05T10:07:58Z</time>
      </trkpt>
      <trkpt lat="44.32412" lon="6.53912">
        <ele>2359.5</ele>
        <time>2018-08-05T10:08:01Z</time>
      </trkpt>
      <trkpt lat="44.32409" lon="6.53913">
        <ele>2360</ele>
        <time>2018-08-05T10:08:02Z</time>
      </trkpt>
      <trkpt lat="44.32406" lon="6.53916">
        <ele>2360.7</ele>
        <time>2018-08-05T10:08:10Z</time>
      </trkpt>
      <trkpt lat="44.32404" lon="6.53919">
        <ele>2361.3</ele>
        <time>2018-08-05T10:08:12Z</time>
      </trkpt>
      <trkpt lat="44.32407" lon="6.53921">
        <ele>2362.2</ele>
        <time>2018-08-05T10:08:14Z</time>
      </trkpt>
      <trkpt lat="44.32411" lon="6.53922">
        <ele>2363.1</ele>
        <time>2018-08-05T10:08:16Z</time>
      </trkpt>
      <trkpt lat="44.32415" lon="6.53923">
        <ele>2364.7</ele>
        <time>2018-08-05T10:08:19Z</time>
      </trkpt>
      <trkpt lat="44.32418" lon="6.53923">
        <ele>2365.8</ele>
        <time>2018-08-05T10:08:21Z</time>
      </trkpt>
      <trkpt lat="44.32421" lon="6.53923">
        <ele>2366.9</ele>
        <time>2018-08-05T10:08:24Z</time>
      </trkpt>
      <trkpt lat="44.32424" lon="6.53922">
        <ele>2367.6</ele>
        <time>2018-08-05T10:08:28Z</time>
      </trkpt>
      <trkpt lat="44.32427" lon="6.5392">
        <ele>2368.4</ele>
        <time>2018-08-05T10:08:32Z</time>
      </trkpt>
      <trkpt lat="44.32429" lon="6.53919">
        <ele>2369.1</ele>
        <time>2018-08-05T10:08:35Z</time>
      </trkpt>
      <trkpt lat="44.32432" lon="6.53918">
        <ele>2369.8</ele>
        <time>2018-08-05T10:08:37Z</time>
      </trkpt>
      <trkpt lat="44.32434" lon="6.53921">
        <ele>2370.6</ele>
        <time>2018-08-05T10:08:39Z</time>
      </trkpt>
      <trkpt lat="44.32436" lon="6.53924">
        <ele>2370</ele>
        <time>2018-08-05T10:08:42Z</time>
      </trkpt>
      <trkpt lat="44.32438" lon="6.53927">
        <ele>2369.4</ele>
        <time>2018-08-05T10:08:45Z</time>
      </trkpt>
      <trkpt lat="44.32441" lon="6.53928">
        <ele>2368.5</ele>
        <time>2018-08-05T10:08:48Z</time>
      </trkpt>
      <trkpt lat="44.32441" lon="6.53932">
        <ele>2367.4</ele>
        <time>2018-08-05T10:08:51Z</time>
      </trkpt>
      <trkpt lat="44.32443" lon="6.53935">
        <ele>2367.8</ele>
        <time>2018-08-05T10:08:54Z</time>
      </trkpt>
      <trkpt lat="44.32447" lon="6.53934">
        <ele>2368.5</ele>
        <time>2018-08-05T10:08:57Z</time>
      </trkpt>
      <trkpt lat="44.3245" lon="6.53932">
        <ele>2369.1</ele>
        <time>2018-08-05T10:09:01Z</time>
      </trkpt>
      <trkpt lat="44.32453" lon="6.5393">
        <ele>2369.7</ele>
        <time>2018-08-05T10:09:05Z</time>
      </trkpt>
      <trkpt lat="44.32455" lon="6.53926">
        <ele>2370.3</ele>
        <time>2018-08-05T10:09:08Z</time>
      </trkpt>
      <trkpt lat="44.32457" lon="6.53922">
        <ele>2370.2</ele>
        <time>2018-08-05T10:09:10Z</time>
      </trkpt>
      <trkpt lat="44.32459" lon="6.53919">
        <ele>2369.4</ele>
        <time>2018-08-05T10:09:13Z</time>
      </trkpt>
      <trkpt lat="44.32461" lon="6.53916">
        <ele>2368.8</ele>
        <time>2018-08-05T10:09:15Z</time>
      </trkpt>
      <trkpt lat="44.32465" lon="6.53915">
        <ele>2368</ele>
        <time>2018-08-05T10:09:18Z</time>
      </trkpt>
      <trkpt lat="44.32468" lon="6.53916">
        <ele>2367.2</ele>
        <time>2018-08-05T10:09:20Z</time>
      </trkpt>
      <trkpt lat="44.3247" lon="6.53918">
        <ele>2366.5</ele>
        <time>2018-08-05T10:09:27Z</time>
      </trkpt>
      <trkpt lat="44.32473" lon="6.53915">
        <ele>2365.7</ele>
        <time>2018-08-05T10:09:31Z</time>
      </trkpt>
      <trkpt lat="44.32474" lon="6.53911">
        <ele>2365.3</ele>
        <time>2018-08-05T10:09:36Z</time>
      </trkpt>
      <trkpt lat="44.32475" lon="6.53907">
        <ele>2364.8</ele>
        <time>2018-08-05T10:09:40Z</time>
      </trkpt>
      <trkpt lat="44.32478" lon="6.53906">
        <ele>2364.2</ele>
        <time>2018-08-05T10:09:43Z</time>
      </trkpt>
      <trkpt lat="44.32481" lon="6.53906">
        <ele>2363.2</ele>
        <time>2018-08-05T10:09:47Z</time>
      </trkpt>
      <trkpt lat="44.32484" lon="6.53907">
        <ele>2362.3</ele>
        <time>2018-08-05T10:09:52Z</time>
      </trkpt>
      <trkpt lat="44.32488" lon="6.53906">
        <ele>2361.8</ele>
        <time>2018-08-05T10:09:56Z</time>
      </trkpt>
      <trkpt lat="44.32491" lon="6.53906">
        <ele>2362.3</ele>
        <time>2018-08-05T10:10:00Z</time>
      </trkpt>
      <trkpt lat="44.32493" lon="6.53907">
        <ele>2362.8</ele>
        <time>2018-08-05T10:10:04Z</time>
      </trkpt>
      <trkpt lat="44.32496" lon="6.53908">
        <ele>2363.3</ele>
        <time>2018-08-05T10:10:08Z</time>
      </trkpt>
      <trkpt lat="44.32499" lon="6.5391">
        <ele>2363.4</ele>
        <time>2018-08-05T10:10:11Z</time>
      </trkpt>
      <trkpt lat="44.32502" lon="6.53911">
        <ele>2363.4</ele>
        <time>2018-08-05T10:10:14Z</time>
      </trkpt>
      <trkpt lat="44.32505" lon="6.53912">
        <ele>2363.5</ele>
        <time>2018-08-05T10:10:20Z</time>
      </trkpt>
      <trkpt lat="44.32508" lon="6.53911">
        <ele>2363.7</ele>
        <time>2018-08-05T10:10:24Z</time>
      </trkpt>
      <trkpt lat="44.32511" lon="6.53912">
        <ele>2363.8</ele>
        <time>2018-08-05T10:10:28Z</time>
      </trkpt>
      <trkpt lat="44.32514" lon="6.53913">
        <ele>2363.9</ele>
        <time>2018-08-05T10:10:34Z</time>
      </trkpt>
      <trkpt lat="44.32517" lon="6.53915">
        <ele>2364.5</ele>
        <time>2018-08-05T10:10:38Z</time>
      </trkpt>
      <trkpt lat="44.3252" lon="6.53916">
        <ele>2365.2</ele>
        <time>2018-08-05T10:10:43Z</time>
      </trkpt>
      <trkpt lat="44.32523" lon="6.53916">
        <ele>2365.8</ele>
        <time>2018-08-05T10:10:48Z</time>
      </trkpt>
      <trkpt lat="44.32526" lon="6.53917">
        <ele>2366</ele>
        <time>2018-08-05T10:10:52Z</time>
      </trkpt>
      <trkpt lat="44.3253" lon="6.53917">
        <ele>2366.1</ele>
        <time>2018-08-05T10:10:57Z</time>
      </trkpt>
      <trkpt lat="44.32532" lon="6.53919">
        <ele>2366.3</ele>
        <time>2018-08-05T10:11:23Z</time>
      </trkpt>
      <trkpt lat="44.32535" lon="6.5392">
        <ele>2366.4</ele>
        <time>2018-08-05T10:11:27Z</time>
      </trkpt>
      <trkpt lat="44.32538" lon="6.5392">
        <ele>2366.5</ele>
        <time>2018-08-05T10:11:31Z</time>
      </trkpt>
      <trkpt lat="44.32541" lon="6.5392">
        <ele>2366.6</ele>
        <time>2018-08-05T10:11:34Z</time>
      </trkpt>
      <trkpt lat="44.32544" lon="6.53921">
        <ele>2367</ele>
        <time>2018-08-05T10:11:39Z</time>
      </trkpt>
      <trkpt lat="44.32547" lon="6.53924">
        <ele>2367.4</ele>
        <time>2018-08-05T10:11:43Z</time>
      </trkpt>
      <trkpt lat="44.3255" lon="6.53925">
        <ele>2367.9</ele>
        <time>2018-08-05T10:11:47Z</time>
      </trkpt>
      <trkpt lat="44.32553" lon="6.53925">
        <ele>2368.1</ele>
        <time>2018-08-05T10:11:51Z</time>
      </trkpt>
      <trkpt lat="44.32556" lon="6.53926">
        <ele>2368.1</ele>
        <time>2018-08-05T10:11:55Z</time>
      </trkpt>
      <trkpt lat="44.32558" lon="6.53928">
        <ele>2368.1</ele>
        <time>2018-08-05T10:11:59Z</time>
      </trkpt>
      <trkpt lat="44.32561" lon="6.53931">
        <ele>2368.2</ele>
        <time>2018-08-05T10:12:02Z</time>
      </trkpt>
      <trkpt lat="44.32564" lon="6.53931">
        <ele>2368.5</ele>
        <time>2018-08-05T10:12:07Z</time>
      </trkpt>
      <trkpt lat="44.32566" lon="6.53934">
        <ele>2368.8</ele>
        <time>2018-08-05T10:12:11Z</time>
      </trkpt>
      <trkpt lat="44.32569" lon="6.53935">
        <ele>2369.1</ele>
        <time>2018-08-05T10:12:16Z</time>
      </trkpt>
      <trkpt lat="44.32572" lon="6.53935">
        <ele>2369.3</ele>
        <time>2018-08-05T10:12:21Z</time>
      </trkpt>
      <trkpt lat="44.32575" lon="6.53937">
        <ele>2369.5</ele>
        <time>2018-08-05T10:12:25Z</time>
      </trkpt>
      <trkpt lat="44.32572" lon="6.5394">
        <ele>2369.8</ele>
        <time>2018-08-05T10:12:55Z</time>
      </trkpt>
      <trkpt lat="44.3257" lon="6.53943">
        <ele>2369.9</ele>
        <time>2018-08-05T10:12:59Z</time>
      </trkpt>
      <trkpt lat="44.32569" lon="6.53947">
        <ele>2370</ele>
        <time>2018-08-05T10:13:04Z</time>
      </trkpt>
      <trkpt lat="44.32568" lon="6.53951">
        <ele>2370.1</ele>
        <time>2018-08-05T10:13:07Z</time>
      </trkpt>
      <trkpt lat="44.32566" lon="6.53955">
        <ele>2370.3</ele>
        <time>2018-08-05T10:13:13Z</time>
      </trkpt>
      <trkpt lat="44.32566" lon="6.5396">
        <ele>2370.5</ele>
        <time>2018-08-05T10:13:19Z</time>
      </trkpt>
      <trkpt lat="44.32566" lon="6.53964">
        <ele>2371.2</ele>
        <time>2018-08-05T10:13:23Z</time>
      </trkpt>
      <trkpt lat="44.32566" lon="6.53968">
        <ele>2372.3</ele>
        <time>2018-08-05T10:13:26Z</time>
      </trkpt>
      <trkpt lat="44.32567" lon="6.53973">
        <ele>2373.5</ele>
        <time>2018-08-05T10:13:48Z</time>
      </trkpt>
      <trkpt lat="44.32567" lon="6.53979">
        <ele>2374.9</ele>
        <time>2018-08-05T10:13:52Z</time>
      </trkpt>
      <trkpt lat="44.32562" lon="6.53981">
        <ele>2376.4</ele>
        <time>2018-08-05T10:13:56Z</time>
      </trkpt>
      <trkpt lat="44.32559" lon="6.53981">
        <ele>2377.4</ele>
        <time>2018-08-05T10:13:58Z</time>
      </trkpt>
      <trkpt lat="44.32556" lon="6.53981">
        <ele>2378.1</ele>
        <time>2018-08-05T10:14:00Z</time>
      </trkpt>
      <trkpt lat="44.32552" lon="6.53981">
        <ele>2379.1</ele>
        <time>2018-08-05T10:14:03Z</time>
      </trkpt>
      <trkpt lat="44.32549" lon="6.53983">
        <ele>2379.8</ele>
        <time>2018-08-05T10:14:05Z</time>
      </trkpt>
      <trkpt lat="44.32546" lon="6.53982">
        <ele>2380.7</ele>
        <time>2018-08-05T10:14:08Z</time>
      </trkpt>
      <trkpt lat="44.32542" lon="6.53983">
        <ele>2381.8</ele>
        <time>2018-08-05T10:14:11Z</time>
      </trkpt>
      <trkpt lat="44.32539" lon="6.53983">
        <ele>2382.6</ele>
        <time>2018-08-05T10:14:14Z</time>
      </trkpt>
      <trkpt lat="44.32537" lon="6.53985">
        <ele>2383.1</ele>
        <time>2018-08-05T10:14:16Z</time>
      </trkpt>
      <trkpt lat="44.32534" lon="6.53988">
        <ele>2383.7</ele>
        <time>2018-08-05T10:14:19Z</time>
      </trkpt>
      <trkpt lat="44.32531" lon="6.53993">
        <ele>2384.2</ele>
        <time>2018-08-05T10:14:22Z</time>
      </trkpt>
      <trkpt lat="44.3253" lon="6.53997">
        <ele>2384.4</ele>
        <time>2018-08-05T10:14:24Z</time>
      </trkpt>
      <trkpt lat="44.32528" lon="6.54001">
        <ele>2384.5</ele>
        <time>2018-08-05T10:14:27Z</time>
      </trkpt>
      <trkpt lat="44.32526" lon="6.54004">
        <ele>2384.8</ele>
        <time>2018-08-05T10:14:30Z</time>
      </trkpt>
      <trkpt lat="44.32525" lon="6.54008">
        <ele>2385.1</ele>
        <time>2018-08-05T10:14:34Z</time>
      </trkpt>
      <trkpt lat="44.32523" lon="6.54011">
        <ele>2385.6</ele>
        <time>2018-08-05T10:14:40Z</time>
      </trkpt>
      <trkpt lat="44.32522" lon="6.54015">
        <ele>2385.9</ele>
        <time>2018-08-05T10:14:51Z</time>
      </trkpt>
      <trkpt lat="44.32522" lon="6.5402">
        <ele>2386</ele>
        <time>2018-08-05T10:14:56Z</time>
      </trkpt>
      <trkpt lat="44.32522" lon="6.54025">
        <ele>2386.1</ele>
        <time>2018-08-05T10:15:00Z</time>
      </trkpt>
      <trkpt lat="44.32524" lon="6.54028">
        <ele>2386.4</ele>
        <time>2018-08-05T10:15:03Z</time>
      </trkpt>
      <trkpt lat="44.32523" lon="6.54033">
        <ele>2387.4</ele>
        <time>2018-08-05T10:15:07Z</time>
      </trkpt>
      <trkpt lat="44.32524" lon="6.54037">
        <ele>2388.3</ele>
        <time>2018-08-05T10:15:09Z</time>
      </trkpt>
      <trkpt lat="44.32525" lon="6.54041">
        <ele>2389</ele>
        <time>2018-08-05T10:15:12Z</time>
      </trkpt>
      <trkpt lat="44.32525" lon="6.54045">
        <ele>2389.6</ele>
        <time>2018-08-05T10:15:17Z</time>
      </trkpt>
      <trkpt lat="44.32525" lon="6.54049">
        <ele>2390</ele>
        <time>2018-08-05T10:15:20Z</time>
      </trkpt>
      <trkpt lat="44.32526" lon="6.54053">
        <ele>2390.8</ele>
        <time>2018-08-05T10:15:25Z</time>
      </trkpt>
      <trkpt lat="44.32528" lon="6.54057">
        <ele>2391.7</ele>
        <time>2018-08-05T10:15:31Z</time>
      </trkpt>
      <trkpt lat="44.3253" lon="6.54059">
        <ele>2392.5</ele>
        <time>2018-08-05T10:15:35Z</time>
      </trkpt>
      <trkpt lat="44.32531" lon="6.54063">
        <ele>2393.1</ele>
        <time>2018-08-05T10:15:37Z</time>
      </trkpt>
      <trkpt lat="44.32532" lon="6.54067">
        <ele>2393.8</ele>
        <time>2018-08-05T10:15:41Z</time>
      </trkpt>
      <trkpt lat="44.32533" lon="6.54073">
        <ele>2394.7</ele>
        <time>2018-08-05T10:15:46Z</time>
      </trkpt>
      <trkpt lat="44.32533" lon="6.54078">
        <ele>2395.2</ele>
        <time>2018-08-05T10:15:50Z</time>
      </trkpt>
      <trkpt lat="44.32534" lon="6.54082">
        <ele>2395.6</ele>
        <time>2018-08-05T10:15:53Z</time>
      </trkpt>
      <trkpt lat="44.32533" lon="6.54086">
        <ele>2396.1</ele>
        <time>2018-08-05T10:15:55Z</time>
      </trkpt>
      <trkpt lat="44.32535" lon="6.54091">
        <ele>2396.7</ele>
        <time>2018-08-05T10:15:59Z</time>
      </trkpt>
      <trkpt lat="44.32533" lon="6.54096">
        <ele>2397.4</ele>
        <time>2018-08-05T10:16:03Z</time>
      </trkpt>
      <trkpt lat="44.32531" lon="6.54101">
        <ele>2398.2</ele>
        <time>2018-08-05T10:16:08Z</time>
      </trkpt>
      <trkpt lat="44.32528" lon="6.54105">
        <ele>2398.9</ele>
        <time>2018-08-05T10:16:12Z</time>
      </trkpt>
      <trkpt lat="44.32526" lon="6.54108">
        <ele>2399.5</ele>
        <time>2018-08-05T10:16:16Z</time>
      </trkpt>
      <trkpt lat="44.32524" lon="6.54112">
        <ele>2400</ele>
        <time>2018-08-05T10:16:21Z</time>
      </trkpt>
      <trkpt lat="44.32522" lon="6.54118">
        <ele>2400.7</ele>
        <time>2018-08-05T10:16:26Z</time>
      </trkpt>
      <trkpt lat="44.3252" lon="6.5412">
        <ele>2401.2</ele>
        <time>2018-08-05T10:17:04Z</time>
      </trkpt>
      <trkpt lat="44.32519" lon="6.54124">
        <ele>2401.7</ele>
        <time>2018-08-05T10:17:08Z</time>
      </trkpt>
      <trkpt lat="44.32517" lon="6.54128">
        <ele>2402.2</ele>
        <time>2018-08-05T10:17:10Z</time>
      </trkpt>
      <trkpt lat="44.32516" lon="6.54132">
        <ele>2402.7</ele>
        <time>2018-08-05T10:17:13Z</time>
      </trkpt>
      <trkpt lat="44.32515" lon="6.54138">
        <ele>2403.2</ele>
        <time>2018-08-05T10:17:15Z</time>
      </trkpt>
      <trkpt lat="44.32512" lon="6.5414">
        <ele>2403.5</ele>
        <time>2018-08-05T10:17:18Z</time>
      </trkpt>
      <trkpt lat="44.32509" lon="6.54142">
        <ele>2403.9</ele>
        <time>2018-08-05T10:17:23Z</time>
      </trkpt>
      <trkpt lat="44.32508" lon="6.54145">
        <ele>2404.3</ele>
        <time>2018-08-05T10:17:25Z</time>
      </trkpt>
      <trkpt lat="44.32505" lon="6.54148">
        <ele>2404.7</ele>
        <time>2018-08-05T10:17:28Z</time>
      </trkpt>
      <trkpt lat="44.32503" lon="6.5415">
        <ele>2405.1</ele>
        <time>2018-08-05T10:17:36Z</time>
      </trkpt>
      <trkpt lat="44.325" lon="6.54153">
        <ele>2405.7</ele>
        <time>2018-08-05T10:17:41Z</time>
      </trkpt>
      <trkpt lat="44.32498" lon="6.54155">
        <ele>2406.2</ele>
        <time>2018-08-05T10:17:45Z</time>
      </trkpt>
      <trkpt lat="44.32495" lon="6.54158">
        <ele>2406.6</ele>
        <time>2018-08-05T10:18:02Z</time>
      </trkpt>
      <trkpt lat="44.32493" lon="6.5416">
        <ele>2407.1</ele>
        <time>2018-08-05T10:18:05Z</time>
      </trkpt>
      <trkpt lat="44.3249" lon="6.54161">
        <ele>2407.6</ele>
        <time>2018-08-05T10:18:12Z</time>
      </trkpt>
      <trkpt lat="44.32488" lon="6.54162">
        <ele>2408.1</ele>
        <time>2018-08-05T10:18:19Z</time>
      </trkpt>
      <trkpt lat="44.32485" lon="6.54164">
        <ele>2408.7</ele>
        <time>2018-08-05T10:18:21Z</time>
      </trkpt>
      <trkpt lat="44.32482" lon="6.54165">
        <ele>2409.1</ele>
        <time>2018-08-05T10:18:26Z</time>
      </trkpt>
      <trkpt lat="44.3248" lon="6.54167">
        <ele>2409.8</ele>
        <time>2018-08-05T10:18:30Z</time>
      </trkpt>
      <trkpt lat="44.32476" lon="6.5417">
        <ele>2410.5</ele>
        <time>2018-08-05T10:18:34Z</time>
      </trkpt>
      <trkpt lat="44.32473" lon="6.54172">
        <ele>2411.1</ele>
        <time>2018-08-05T10:18:39Z</time>
      </trkpt>
      <trkpt lat="44.32471" lon="6.54174">
        <ele>2411.8</ele>
        <time>2018-08-05T10:18:44Z</time>
      </trkpt>
      <trkpt lat="44.32468" lon="6.54178">
        <ele>2412.8</ele>
        <time>2018-08-05T10:18:49Z</time>
      </trkpt>
      <trkpt lat="44.32465" lon="6.5418">
        <ele>2413.7</ele>
        <time>2018-08-05T10:18:51Z</time>
      </trkpt>
      <trkpt lat="44.32462" lon="6.54181">
        <ele>2414.6</ele>
        <time>2018-08-05T10:18:56Z</time>
      </trkpt>
      <trkpt lat="44.32459" lon="6.54184">
        <ele>2415.2</ele>
        <time>2018-08-05T10:18:59Z</time>
      </trkpt>
      <trkpt lat="44.32456" lon="6.54185">
        <ele>2415.5</ele>
        <time>2018-08-05T10:19:05Z</time>
      </trkpt>
      <trkpt lat="44.32453" lon="6.54186">
        <ele>2415.9</ele>
        <time>2018-08-05T10:19:09Z</time>
      </trkpt>
      <trkpt lat="44.3245" lon="6.54189">
        <ele>2416.6</ele>
        <time>2018-08-05T10:19:13Z</time>
      </trkpt>
      <trkpt lat="44.32447" lon="6.54191">
        <ele>2417</ele>
        <time>2018-08-05T10:19:21Z</time>
      </trkpt>
      <trkpt lat="44.32444" lon="6.54192">
        <ele>2417.5</ele>
        <time>2018-08-05T10:19:48Z</time>
      </trkpt>
      <trkpt lat="44.32441" lon="6.54195">
        <ele>2418.4</ele>
        <time>2018-08-05T10:19:52Z</time>
      </trkpt>
      <trkpt lat="44.3244" lon="6.54198">
        <ele>2419.1</ele>
        <time>2018-08-05T10:19:55Z</time>
      </trkpt>
      <trkpt lat="44.32437" lon="6.54201">
        <ele>2419.8</ele>
        <time>2018-08-05T10:19:59Z</time>
      </trkpt>
      <trkpt lat="44.32436" lon="6.54204">
        <ele>2420.3</ele>
        <time>2018-08-05T10:20:04Z</time>
      </trkpt>
      <trkpt lat="44.32433" lon="6.54207">
        <ele>2421</ele>
        <time>2018-08-05T10:20:10Z</time>
      </trkpt>
      <trkpt lat="44.32429" lon="6.54207">
        <ele>2421.7</ele>
        <time>2018-08-05T10:20:13Z</time>
      </trkpt>
      <trkpt lat="44.32426" lon="6.54208">
        <ele>2422.2</ele>
        <time>2018-08-05T10:20:18Z</time>
      </trkpt>
      <trkpt lat="44.32423" lon="6.54207">
        <ele>2422.7</ele>
        <time>2018-08-05T10:20:20Z</time>
      </trkpt>
      <trkpt lat="44.32421" lon="6.54208">
        <ele>2423.2</ele>
        <time>2018-08-05T10:20:28Z</time>
      </trkpt>
      <trkpt lat="44.32418" lon="6.54204">
        <ele>2423.8</ele>
        <time>2018-08-05T10:20:36Z</time>
      </trkpt>
      <trkpt lat="44.32416" lon="6.54203">
        <ele>2424.6</ele>
        <time>2018-08-05T10:20:37Z</time>
      </trkpt>
      <trkpt lat="44.32413" lon="6.54199">
        <ele>2425.5</ele>
        <time>2018-08-05T10:20:39Z</time>
      </trkpt>
      <trkpt lat="44.32408" lon="6.54197">
        <ele>2426.8</ele>
        <time>2018-08-05T10:20:44Z</time>
      </trkpt>
      <trkpt lat="44.32405" lon="6.54195">
        <ele>2427.7</ele>
        <time>2018-08-05T10:20:48Z</time>
      </trkpt>
      <trkpt lat="44.32401" lon="6.54194">
        <ele>2428.4</ele>
        <time>2018-08-05T10:20:51Z</time>
      </trkpt>
      <trkpt lat="44.32398" lon="6.54196">
        <ele>2429.1</ele>
        <time>2018-08-05T10:20:53Z</time>
      </trkpt>
      <trkpt lat="44.32395" lon="6.54197">
        <ele>2429.7</ele>
        <time>2018-08-05T10:20:56Z</time>
      </trkpt>
      <trkpt lat="44.32391" lon="6.54198">
        <ele>2430.7</ele>
        <time>2018-08-05T10:20:59Z</time>
      </trkpt>
      <trkpt lat="44.32388" lon="6.54197">
        <ele>2431.4</ele>
        <time>2018-08-05T10:21:02Z</time>
      </trkpt>
      <trkpt lat="44.32387" lon="6.542">
        <ele>2432.3</ele>
        <time>2018-08-05T10:21:07Z</time>
      </trkpt>
      <trkpt lat="44.32384" lon="6.54202">
        <ele>2433</ele>
        <time>2018-08-05T10:21:12Z</time>
      </trkpt>
      <trkpt lat="44.32381" lon="6.54204">
        <ele>2433.1</ele>
        <time>2018-08-05T10:21:17Z</time>
      </trkpt>
      <trkpt lat="44.32381" lon="6.54209">
        <ele>2433.2</ele>
        <time>2018-08-05T10:21:22Z</time>
      </trkpt>
      <trkpt lat="44.32379" lon="6.54214">
        <ele>2433.5</ele>
        <time>2018-08-05T10:21:26Z</time>
      </trkpt>
      <trkpt lat="44.3238" lon="6.54218">
        <ele>2433.8</ele>
        <time>2018-08-05T10:21:28Z</time>
      </trkpt>
      <trkpt lat="44.32378" lon="6.54221">
        <ele>2434.1</ele>
        <time>2018-08-05T10:21:31Z</time>
      </trkpt>
      <trkpt lat="44.32376" lon="6.54224">
        <ele>2434.7</ele>
        <time>2018-08-05T10:21:35Z</time>
      </trkpt>
      <trkpt lat="44.32372" lon="6.54224">
        <ele>2435.5</ele>
        <time>2018-08-05T10:21:38Z</time>
      </trkpt>
      <trkpt lat="44.32369" lon="6.54226">
        <ele>2436.4</ele>
        <time>2018-08-05T10:21:41Z</time>
      </trkpt>
      <trkpt lat="44.32368" lon="6.5423">
        <ele>2437.1</ele>
        <time>2018-08-05T10:21:53Z</time>
      </trkpt>
      <trkpt lat="44.32365" lon="6.54226">
        <ele>2438.1</ele>
        <time>2018-08-05T10:22:08Z</time>
      </trkpt>
      <trkpt lat="44.32364" lon="6.54223">
        <ele>2438.8</ele>
        <time>2018-08-05T10:22:13Z</time>
      </trkpt>
      <trkpt lat="44.3236" lon="6.54221">
        <ele>2439.8</ele>
        <time>2018-08-05T10:22:22Z</time>
      </trkpt>
      <trkpt lat="44.32358" lon="6.54222">
        <ele>2440.5</ele>
        <time>2018-08-05T10:22:29Z</time>
      </trkpt>
      <trkpt lat="44.32354" lon="6.54222">
        <ele>2441.7</ele>
        <time>2018-08-05T10:22:32Z</time>
      </trkpt>
      <trkpt lat="44.32351" lon="6.54221">
        <ele>2443.1</ele>
        <time>2018-08-05T10:22:45Z</time>
      </trkpt>
      <trkpt lat="44.3235" lon="6.54217">
        <ele>2444.4</ele>
        <time>2018-08-05T10:22:49Z</time>
      </trkpt>
      <trkpt lat="44.32347" lon="6.54213">
        <ele>2446</ele>
        <time>2018-08-05T10:22:52Z</time>
      </trkpt>
      <trkpt lat="44.32345" lon="6.5421">
        <ele>2447.3</ele>
        <time>2018-08-05T10:22:55Z</time>
      </trkpt>
      <trkpt lat="44.32342" lon="6.54209">
        <ele>2448.6</ele>
        <time>2018-08-05T10:23:02Z</time>
      </trkpt>
      <trkpt lat="44.32339" lon="6.54212">
        <ele>2449.6</ele>
        <time>2018-08-05T10:23:08Z</time>
      </trkpt>
      <trkpt lat="44.32335" lon="6.54213">
        <ele>2450.7</ele>
        <time>2018-08-05T10:23:10Z</time>
      </trkpt>
      <trkpt lat="44.32332" lon="6.54213">
        <ele>2450.6</ele>
        <time>2018-08-05T10:23:13Z</time>
      </trkpt>
      <trkpt lat="44.3233" lon="6.54216">
        <ele>2450.5</ele>
        <time>2018-08-05T10:23:17Z</time>
      </trkpt>
      <trkpt lat="44.32327" lon="6.54218">
        <ele>2450.5</ele>
        <time>2018-08-05T10:23:26Z</time>
      </trkpt>
      <trkpt lat="44.32325" lon="6.54216">
        <ele>2451.2</ele>
        <time>2018-08-05T10:23:37Z</time>
      </trkpt>
      <trkpt lat="44.32322" lon="6.54215">
        <ele>2451.9</ele>
        <time>2018-08-05T10:23:42Z</time>
      </trkpt>
      <trkpt lat="44.32318" lon="6.54215">
        <ele>2452.6</ele>
        <time>2018-08-05T10:23:47Z</time>
      </trkpt>
      <trkpt lat="44.32315" lon="6.54213">
        <ele>2453.3</ele>
        <time>2018-08-05T10:23:51Z</time>
      </trkpt>
      <trkpt lat="44.32312" lon="6.54212">
        <ele>2453.4</ele>
        <time>2018-08-05T10:23:54Z</time>
      </trkpt>
      <trkpt lat="44.32309" lon="6.54212">
        <ele>2452.9</ele>
        <time>2018-08-05T10:23:58Z</time>
      </trkpt>
      <trkpt lat="44.32309" lon="6.54207">
        <ele>2452.3</ele>
        <time>2018-08-05T10:24:07Z</time>
      </trkpt>
      <trkpt lat="44.32308" lon="6.54203">
        <ele>2452.1</ele>
        <time>2018-08-05T10:24:11Z</time>
      </trkpt>
      <trkpt lat="44.32306" lon="6.54201">
        <ele>2453.4</ele>
        <time>2018-08-05T10:24:14Z</time>
      </trkpt>
      <trkpt lat="44.32303" lon="6.54202">
        <ele>2454.5</ele>
        <time>2018-08-05T10:24:26Z</time>
      </trkpt>
      <trkpt lat="44.32302" lon="6.54198">
        <ele>2455.5</ele>
        <time>2018-08-05T10:24:33Z</time>
      </trkpt>
      <trkpt lat="44.32302" lon="6.54194">
        <ele>2456.1</ele>
        <time>2018-08-05T10:24:36Z</time>
      </trkpt>
      <trkpt lat="44.32302" lon="6.5419">
        <ele>2457</ele>
        <time>2018-08-05T10:24:38Z</time>
      </trkpt>
      <trkpt lat="44.323" lon="6.54184">
        <ele>2458.8</ele>
        <time>2018-08-05T10:24:41Z</time>
      </trkpt>
      <trkpt lat="44.32299" lon="6.54181">
        <ele>2459.7</ele>
        <time>2018-08-05T10:24:43Z</time>
      </trkpt>
      <trkpt lat="44.32296" lon="6.54179">
        <ele>2459.9</ele>
        <time>2018-08-05T10:24:47Z</time>
      </trkpt>
      <trkpt lat="44.32293" lon="6.54176">
        <ele>2460.1</ele>
        <time>2018-08-05T10:24:51Z</time>
      </trkpt>
      <trkpt lat="44.32287" lon="6.54175">
        <ele>2459.8</ele>
        <time>2018-08-05T10:24:54Z</time>
      </trkpt>
      <trkpt lat="44.32283" lon="6.54174">
        <ele>2459.8</ele>
        <time>2018-08-05T10:24:58Z</time>
      </trkpt>
      <trkpt lat="44.3228" lon="6.54175">
        <ele>2460.2</ele>
        <time>2018-08-05T10:25:06Z</time>
      </trkpt>
      <trkpt lat="44.32278" lon="6.54174">
        <ele>2460.6</ele>
        <time>2018-08-05T10:25:10Z</time>
      </trkpt>
      <trkpt lat="44.32275" lon="6.54176">
        <ele>2461.1</ele>
        <time>2018-08-05T10:25:14Z</time>
      </trkpt>
      <trkpt lat="44.32272" lon="6.54178">
        <ele>2461.6</ele>
        <time>2018-08-05T10:25:16Z</time>
      </trkpt>
      <trkpt lat="44.32269" lon="6.54177">
        <ele>2461.9</ele>
        <time>2018-08-05T10:25:29Z</time>
      </trkpt>
      <trkpt lat="44.32267" lon="6.54173">
        <ele>2461.5</ele>
        <time>2018-08-05T10:25:32Z</time>
      </trkpt>
      <trkpt lat="44.32264" lon="6.54172">
        <ele>2461.2</ele>
        <time>2018-08-05T10:25:36Z</time>
      </trkpt>
      <trkpt lat="44.32261" lon="6.54173">
        <ele>2460.4</ele>
        <time>2018-08-05T10:25:41Z</time>
      </trkpt>
      <trkpt lat="44.32257" lon="6.54174">
        <ele>2459.5</ele>
        <time>2018-08-05T10:25:44Z</time>
      </trkpt>
      <trkpt lat="44.32254" lon="6.54174">
        <ele>2459.2</ele>
        <time>2018-08-05T10:25:48Z</time>
      </trkpt>
      <trkpt lat="44.32251" lon="6.54173">
        <ele>2460.2</ele>
        <time>2018-08-05T10:26:18Z</time>
      </trkpt>
      <trkpt lat="44.32248" lon="6.5417">
        <ele>2461.2</ele>
        <time>2018-08-05T10:26:23Z</time>
      </trkpt>
      <trkpt lat="44.32245" lon="6.54166">
        <ele>2463</ele>
        <time>2018-08-05T10:26:27Z</time>
      </trkpt>
      <trkpt lat="44.32244" lon="6.54162">
        <ele>2464.5</ele>
        <time>2018-08-05T10:26:31Z</time>
      </trkpt>
      <trkpt lat="44.32242" lon="6.54159">
        <ele>2465.6</ele>
        <time>2018-08-05T10:26:35Z</time>
      </trkpt>
      <trkpt lat="44.3224" lon="6.54156">
        <ele>2466.3</ele>
        <time>2018-08-05T10:26:39Z</time>
      </trkpt>
      <trkpt lat="44.32239" lon="6.54152">
        <ele>2466.9</ele>
        <time>2018-08-05T10:26:44Z</time>
      </trkpt>
      <trkpt lat="44.32237" lon="6.5415">
        <ele>2467.9</ele>
        <time>2018-08-05T10:26:49Z</time>
      </trkpt>
      <trkpt lat="44.32234" lon="6.54147">
        <ele>2469.8</ele>
        <time>2018-08-05T10:26:54Z</time>
      </trkpt>
      <trkpt lat="44.32231" lon="6.54145">
        <ele>2471.5</ele>
        <time>2018-08-05T10:26:58Z</time>
      </trkpt>
      <trkpt lat="44.32227" lon="6.54144">
        <ele>2471.3</ele>
        <time>2018-08-05T10:27:00Z</time>
      </trkpt>
      <trkpt lat="44.32225" lon="6.54142">
        <ele>2470.9</ele>
        <time>2018-08-05T10:27:03Z</time>
      </trkpt>
      <trkpt lat="44.32223" lon="6.54139">
        <ele>2470.6</ele>
        <time>2018-08-05T10:27:11Z</time>
      </trkpt>
      <trkpt lat="44.32222" lon="6.54144">
        <ele>2472.7</ele>
        <time>2018-08-05T10:27:19Z</time>
      </trkpt>
      <trkpt lat="44.32222" lon="6.54148">
        <ele>2475.1</ele>
        <time>2018-08-05T10:27:27Z</time>
      </trkpt>
      <trkpt lat="44.3222" lon="6.54151">
        <ele>2477.1</ele>
        <time>2018-08-05T10:27:30Z</time>
      </trkpt>
      <trkpt lat="44.32219" lon="6.54154">
        <ele>2478.3</ele>
        <time>2018-08-05T10:27:33Z</time>
      </trkpt>
      <trkpt lat="44.32219" lon="6.54159">
        <ele>2479.8</ele>
        <time>2018-08-05T10:27:38Z</time>
      </trkpt>
      <trkpt lat="44.32218" lon="6.54163">
        <ele>2480</ele>
        <time>2018-08-05T10:27:42Z</time>
      </trkpt>
      <trkpt lat="44.32217" lon="6.54166">
        <ele>2480.1</ele>
        <time>2018-08-05T10:27:46Z</time>
      </trkpt>
      <trkpt lat="44.32217" lon="6.5417">
        <ele>2480.1</ele>
        <time>2018-08-05T10:27:50Z</time>
      </trkpt>
      <trkpt lat="44.32217" lon="6.54174">
        <ele>2479.8</ele>
        <time>2018-08-05T10:28:06Z</time>
      </trkpt>
      <trkpt lat="44.32218" lon="6.54179">
        <ele>2479.3</ele>
        <time>2018-08-05T10:28:10Z</time>
      </trkpt>
      <trkpt lat="44.32218" lon="6.54183">
        <ele>2478.9</ele>
        <time>2018-08-05T10:28:15Z</time>
      </trkpt>
      <trkpt lat="44.32218" lon="6.54188">
        <ele>2479.5</ele>
        <time>2018-08-05T10:28:18Z</time>
      </trkpt>
      <trkpt lat="44.32219" lon="6.54194">
        <ele>2480.3</ele>
        <time>2018-08-05T10:28:22Z</time>
      </trkpt>
      <trkpt lat="44.3222" lon="6.54199">
        <ele>2480.7</ele>
        <time>2018-08-05T10:28:26Z</time>
      </trkpt>
      <trkpt lat="44.32221" lon="6.54203">
        <ele>2480.9</ele>
        <time>2018-08-05T10:28:29Z</time>
      </trkpt>
      <trkpt lat="44.32221" lon="6.54207">
        <ele>2481.2</ele>
        <time>2018-08-05T10:28:32Z</time>
      </trkpt>
      <trkpt lat="44.3222" lon="6.54211">
        <ele>2482.7</ele>
        <time>2018-08-05T10:28:38Z</time>
      </trkpt>
      <trkpt lat="44.32221" lon="6.54215">
        <ele>2484.1</ele>
        <time>2018-08-05T10:28:41Z</time>
      </trkpt>
      <trkpt lat="44.32221" lon="6.54218">
        <ele>2485.3</ele>
        <time>2018-08-05T10:28:48Z</time>
      </trkpt>
      <trkpt lat="44.3222" lon="6.54222">
        <ele>2486.2</ele>
        <time>2018-08-05T10:28:55Z</time>
      </trkpt>
      <trkpt lat="44.3222" lon="6.54226">
        <ele>2487</ele>
        <time>2018-08-05T10:28:58Z</time>
      </trkpt>
      <trkpt lat="44.3222" lon="6.54232">
        <ele>2489.1</ele>
        <time>2018-08-05T10:29:06Z</time>
      </trkpt>
      <trkpt lat="44.32221" lon="6.54236">
        <ele>2491.4</ele>
        <time>2018-08-05T10:29:10Z</time>
      </trkpt>
      <trkpt lat="44.32222" lon="6.5424">
        <ele>2493.3</ele>
        <time>2018-08-05T10:29:15Z</time>
      </trkpt>
      <trkpt lat="44.32223" lon="6.54244">
        <ele>2494.7</ele>
        <time>2018-08-05T10:29:19Z</time>
      </trkpt>
      <trkpt lat="44.32222" lon="6.54248">
        <ele>2496.3</ele>
        <time>2018-08-05T10:29:25Z</time>
      </trkpt>
      <trkpt lat="44.32223" lon="6.54253">
        <ele>2497.8</ele>
        <time>2018-08-05T10:29:29Z</time>
      </trkpt>
      <trkpt lat="44.32225" lon="6.54256">
        <ele>2499</ele>
        <time>2018-08-05T10:29:33Z</time>
      </trkpt>
      <trkpt lat="44.32223" lon="6.54259">
        <ele>2500.1</ele>
        <time>2018-08-05T10:30:05Z</time>
      </trkpt>
      <trkpt lat="44.32224" lon="6.54263">
        <ele>2501.3</ele>
        <time>2018-08-05T10:30:09Z</time>
      </trkpt>
      <trkpt lat="44.32224" lon="6.54268">
        <ele>2502.7</ele>
        <time>2018-08-05T10:30:13Z</time>
      </trkpt>
      <trkpt lat="44.32225" lon="6.54271">
        <ele>2503.9</ele>
        <time>2018-08-05T10:30:17Z</time>
      </trkpt>
      <trkpt lat="44.32226" lon="6.54275">
        <ele>2505.3</ele>
        <time>2018-08-05T10:30:21Z</time>
      </trkpt>
      <trkpt lat="44.32228" lon="6.54278">
        <ele>2506.6</ele>
        <time>2018-08-05T10:30:24Z</time>
      </trkpt>
      <trkpt lat="44.3223" lon="6.54282">
        <ele>2508</ele>
        <time>2018-08-05T10:30:28Z</time>
      </trkpt>
      <trkpt lat="44.32232" lon="6.54285">
        <ele>2509.5</ele>
        <time>2018-08-05T10:30:35Z</time>
      </trkpt>
      <trkpt lat="44.32235" lon="6.54288">
        <ele>2510.5</ele>
        <time>2018-08-05T10:30:39Z</time>
      </trkpt>
      <trkpt lat="44.32237" lon="6.5429">
        <ele>2511.4</ele>
        <time>2018-08-05T10:30:44Z</time>
      </trkpt>
      <trkpt lat="44.32237" lon="6.54294">
        <ele>2512.2</ele>
        <time>2018-08-05T10:30:48Z</time>
      </trkpt>
      <trkpt lat="44.32238" lon="6.54299">
        <ele>2513.1</ele>
        <time>2018-08-05T10:30:55Z</time>
      </trkpt>
      <trkpt lat="44.32239" lon="6.54303">
        <ele>2514.1</ele>
        <time>2018-08-05T10:31:00Z</time>
      </trkpt>
      <trkpt lat="44.32241" lon="6.54306">
        <ele>2515</ele>
        <time>2018-08-05T10:31:06Z</time>
      </trkpt>
      <trkpt lat="44.32244" lon="6.54307">
        <ele>2515.1</ele>
        <time>2018-08-05T10:31:56Z</time>
      </trkpt>
      <trkpt lat="44.32246" lon="6.54311">
        <ele>2515.1</ele>
        <time>2018-08-05T10:32:00Z</time>
      </trkpt>
      <trkpt lat="44.32248" lon="6.54314">
        <ele>2515</ele>
        <time>2018-08-05T10:32:04Z</time>
      </trkpt>
      <trkpt lat="44.32249" lon="6.54318">
        <ele>2515.4</ele>
        <time>2018-08-05T10:32:09Z</time>
      </trkpt>
      <trkpt lat="44.32251" lon="6.54322">
        <ele>2516.1</ele>
        <time>2018-08-05T10:32:15Z</time>
      </trkpt>
      <trkpt lat="44.32252" lon="6.54326">
        <ele>2516.6</ele>
        <time>2018-08-05T10:32:19Z</time>
      </trkpt>
      <trkpt lat="44.32254" lon="6.5433">
        <ele>2517.2</ele>
        <time>2018-08-05T10:32:23Z</time>
      </trkpt>
      <trkpt lat="44.32256" lon="6.54333">
        <ele>2517.9</ele>
        <time>2018-08-05T10:32:28Z</time>
      </trkpt>
      <trkpt lat="44.3226" lon="6.54335">
        <ele>2518.4</ele>
        <time>2018-08-05T10:32:33Z</time>
      </trkpt>
      <trkpt lat="44.32261" lon="6.54338">
        <ele>2518.8</ele>
        <time>2018-08-05T10:32:38Z</time>
      </trkpt>
      <trkpt lat="44.32264" lon="6.54341">
        <ele>2519.4</ele>
        <time>2018-08-05T10:32:42Z</time>
      </trkpt>
      <trkpt lat="44.32266" lon="6.54344">
        <ele>2519.7</ele>
        <time>2018-08-05T10:32:48Z</time>
      </trkpt>
      <trkpt lat="44.32269" lon="6.54344">
        <ele>2519.9</ele>
        <time>2018-08-05T10:32:51Z</time>
      </trkpt>
      <trkpt lat="44.3227" lon="6.54348">
        <ele>2520.2</ele>
        <time>2018-08-05T10:32:56Z</time>
      </trkpt>
      <trkpt lat="44.3227" lon="6.54352">
        <ele>2520.4</ele>
        <time>2018-08-05T10:32:59Z</time>
      </trkpt>
      <trkpt lat="44.3227" lon="6.54356">
        <ele>2520.5</ele>
        <time>2018-08-05T10:33:18Z</time>
      </trkpt>
      <trkpt lat="44.32272" lon="6.5436">
        <ele>2520.7</ele>
        <time>2018-08-05T10:33:21Z</time>
      </trkpt>
      <trkpt lat="44.32273" lon="6.54364">
        <ele>2520.3</ele>
        <time>2018-08-05T10:33:25Z</time>
      </trkpt>
      <trkpt lat="44.32275" lon="6.54367">
        <ele>2519.7</ele>
        <time>2018-08-05T10:33:28Z</time>
      </trkpt>
      <trkpt lat="44.32276" lon="6.54371">
        <ele>2519.2</ele>
        <time>2018-08-05T10:33:33Z</time>
      </trkpt>
      <trkpt lat="44.32277" lon="6.54374">
        <ele>2519.1</ele>
        <time>2018-08-05T10:33:38Z</time>
      </trkpt>
      <trkpt lat="44.32279" lon="6.54377">
        <ele>2519.1</ele>
        <time>2018-08-05T10:33:42Z</time>
      </trkpt>
      <trkpt lat="44.32281" lon="6.5438">
        <ele>2519.1</ele>
        <time>2018-08-05T10:33:48Z</time>
      </trkpt>
      <trkpt lat="44.32284" lon="6.54383">
        <ele>2519</ele>
        <time>2018-08-05T10:34:22Z</time>
      </trkpt>
      <trkpt lat="44.32285" lon="6.54386">
        <ele>2518.9</ele>
        <time>2018-08-05T10:34:25Z</time>
      </trkpt>
      <trkpt lat="44.32287" lon="6.54389">
        <ele>2518.8</ele>
        <time>2018-08-05T10:34:28Z</time>
      </trkpt>
      <trkpt lat="44.32289" lon="6.54393">
        <ele>2519</ele>
        <time>2018-08-05T10:34:31Z</time>
      </trkpt>
      <trkpt lat="44.32289" lon="6.54396">
        <ele>2519.3</ele>
        <time>2018-08-05T10:34:36Z</time>
      </trkpt>
      <trkpt lat="44.32291" lon="6.544">
        <ele>2519.6</ele>
        <time>2018-08-05T10:34:42Z</time>
      </trkpt>
      <trkpt lat="44.32294" lon="6.544">
        <ele>2520.1</ele>
        <time>2018-08-05T10:34:48Z</time>
      </trkpt>
      <trkpt lat="44.32295" lon="6.54404">
        <ele>2520.6</ele>
        <time>2018-08-05T10:34:52Z</time>
      </trkpt>
      <trkpt lat="44.32297" lon="6.54408">
        <ele>2521.2</ele>
        <time>2018-08-05T10:34:58Z</time>
      </trkpt>
      <trkpt lat="44.323" lon="6.54411">
        <ele>2521.8</ele>
        <time>2018-08-05T10:35:01Z</time>
      </trkpt>
      <trkpt lat="44.32301" lon="6.54415">
        <ele>2522.3</ele>
        <time>2018-08-05T10:35:05Z</time>
      </trkpt>
      <trkpt lat="44.32302" lon="6.54419">
        <ele>2522.9</ele>
        <time>2018-08-05T10:35:09Z</time>
      </trkpt>
      <trkpt lat="44.32302" lon="6.54423">
        <ele>2524.2</ele>
        <time>2018-08-05T10:35:13Z</time>
      </trkpt>
      <trkpt lat="44.32304" lon="6.54428">
        <ele>2525.6</ele>
        <time>2018-08-05T10:35:20Z</time>
      </trkpt>
      <trkpt lat="44.32306" lon="6.54431">
        <ele>2526.7</ele>
        <time>2018-08-05T10:35:24Z</time>
      </trkpt>
      <trkpt lat="44.32305" lon="6.54435">
        <ele>2527</ele>
        <time>2018-08-05T10:35:29Z</time>
      </trkpt>
      <trkpt lat="44.32305" lon="6.54439">
        <ele>2527.5</ele>
        <time>2018-08-05T10:35:35Z</time>
      </trkpt>
      <trkpt lat="44.32306" lon="6.54443">
        <ele>2528</ele>
        <time>2018-08-05T10:35:41Z</time>
      </trkpt>
      <trkpt lat="44.32306" lon="6.54447">
        <ele>2528.6</ele>
        <time>2018-08-05T10:35:46Z</time>
      </trkpt>
      <trkpt lat="44.32308" lon="6.5445">
        <ele>2529.3</ele>
        <time>2018-08-05T10:35:50Z</time>
      </trkpt>
      <trkpt lat="44.32309" lon="6.54453">
        <ele>2529.9</ele>
        <time>2018-08-05T10:36:37Z</time>
      </trkpt>
      <trkpt lat="44.32306" lon="6.54453">
        <ele>2531.1</ele>
        <time>2018-08-05T10:36:49Z</time>
      </trkpt>
      <trkpt lat="44.32306" lon="6.54458">
        <ele>2532.5</ele>
        <time>2018-08-05T10:36:59Z</time>
      </trkpt>
      <trkpt lat="44.32302" lon="6.5446">
        <ele>2533.8</ele>
        <time>2018-08-05T10:37:04Z</time>
      </trkpt>
      <trkpt lat="44.32298" lon="6.54462">
        <ele>2534.3</ele>
        <time>2018-08-05T10:37:07Z</time>
      </trkpt>
      <trkpt lat="44.32296" lon="6.54462">
        <ele>2534.8</ele>
        <time>2018-08-05T10:37:10Z</time>
      </trkpt>
      <trkpt lat="44.32294" lon="6.54465">
        <ele>2535.5</ele>
        <time>2018-08-05T10:37:19Z</time>
      </trkpt>
      <trkpt lat="44.32295" lon="6.54469">
        <ele>2536.5</ele>
        <time>2018-08-05T10:37:24Z</time>
      </trkpt>
      <trkpt lat="44.32295" lon="6.54474">
        <ele>2537.5</ele>
        <time>2018-08-05T10:37:28Z</time>
      </trkpt>
      <trkpt lat="44.32296" lon="6.54478">
        <ele>2538.2</ele>
        <time>2018-08-05T10:37:33Z</time>
      </trkpt>
      <trkpt lat="44.32297" lon="6.54483">
        <ele>2538.8</ele>
        <time>2018-08-05T10:38:18Z</time>
      </trkpt>
      <trkpt lat="44.323" lon="6.54487">
        <ele>2539.3</ele>
        <time>2018-08-05T10:38:22Z</time>
      </trkpt>
      <trkpt lat="44.32301" lon="6.54491">
        <ele>2539.6</ele>
        <time>2018-08-05T10:38:25Z</time>
      </trkpt>
      <trkpt lat="44.32303" lon="6.54494">
        <ele>2539.8</ele>
        <time>2018-08-05T10:38:28Z</time>
      </trkpt>
      <trkpt lat="44.32304" lon="6.54498">
        <ele>2540</ele>
        <time>2018-08-05T10:38:32Z</time>
      </trkpt>
      <trkpt lat="44.32305" lon="6.54501">
        <ele>2540.6</ele>
        <time>2018-08-05T10:38:36Z</time>
      </trkpt>
      <trkpt lat="44.32308" lon="6.54502">
        <ele>2541.3</ele>
        <time>2018-08-05T10:38:40Z</time>
      </trkpt>
      <trkpt lat="44.32309" lon="6.54506">
        <ele>2542</ele>
        <time>2018-08-05T10:38:43Z</time>
      </trkpt>
      <trkpt lat="44.32313" lon="6.54507">
        <ele>2542.4</ele>
        <time>2018-08-05T10:38:48Z</time>
      </trkpt>
      <trkpt lat="44.32315" lon="6.5451">
        <ele>2542.7</ele>
        <time>2018-08-05T10:38:55Z</time>
      </trkpt>
      <trkpt lat="44.32318" lon="6.54512">
        <ele>2543</ele>
        <time>2018-08-05T10:38:59Z</time>
      </trkpt>
      <trkpt lat="44.3232" lon="6.54516">
        <ele>2543.5</ele>
        <time>2018-08-05T10:39:03Z</time>
      </trkpt>
      <trkpt lat="44.32323" lon="6.54516">
        <ele>2544</ele>
        <time>2018-08-05T10:39:06Z</time>
      </trkpt>
      <trkpt lat="44.32324" lon="6.5452">
        <ele>2544.4</ele>
        <time>2018-08-05T10:39:10Z</time>
      </trkpt>
      <trkpt lat="44.32323" lon="6.54524">
        <ele>2544.7</ele>
        <time>2018-08-05T10:39:15Z</time>
      </trkpt>
      <trkpt lat="44.32326" lon="6.54525">
        <ele>2545.1</ele>
        <time>2018-08-05T10:39:30Z</time>
      </trkpt>
      <trkpt lat="44.32328" lon="6.54528">
        <ele>2545.3</ele>
        <time>2018-08-05T10:39:33Z</time>
      </trkpt>
      <trkpt lat="44.32329" lon="6.54532">
        <ele>2545.6</ele>
        <time>2018-08-05T10:39:36Z</time>
      </trkpt>
      <trkpt lat="44.32332" lon="6.54534">
        <ele>2545.7</ele>
        <time>2018-08-05T10:39:39Z</time>
      </trkpt>
      <trkpt lat="44.32335" lon="6.54538">
        <ele>2545.6</ele>
        <time>2018-08-05T10:39:44Z</time>
      </trkpt>
      <trkpt lat="44.32338" lon="6.54541">
        <ele>2545.5</ele>
        <time>2018-08-05T10:39:48Z</time>
      </trkpt>
      <trkpt lat="44.3234" lon="6.5454">
        <ele>2545.4</ele>
        <time>2018-08-05T10:40:04Z</time>
      </trkpt>
      <trkpt lat="44.32342" lon="6.54537">
        <ele>2545.4</ele>
        <time>2018-08-05T10:40:11Z</time>
      </trkpt>
      <trkpt lat="44.3234" lon="6.54546">
        <ele>2545.1</ele>
        <time>2018-08-05T10:43:03Z</time>
      </trkpt>
      <trkpt lat="44.32341" lon="6.54542">
        <ele>2544.9</ele>
        <time>2018-08-05T10:43:08Z</time>
      </trkpt>
      <trkpt lat="44.32335" lon="6.54541">
        <ele>2544.5</ele>
        <time>2018-08-05T10:43:37Z</time>
      </trkpt>
      <trkpt lat="44.32334" lon="6.54545">
        <ele>2544.3</ele>
        <time>2018-08-05T10:43:40Z</time>
      </trkpt>
      <trkpt lat="44.32333" lon="6.54549">
        <ele>2544.1</ele>
        <time>2018-08-05T10:44:05Z</time>
      </trkpt>
      <trkpt lat="44.32333" lon="6.54544">
        <ele>2543.8</ele>
        <time>2018-08-05T10:45:42Z</time>
      </trkpt>
      <trkpt lat="44.32335" lon="6.54541">
        <ele>2543.6</ele>
        <time>2018-08-05T10:45:45Z</time>
      </trkpt>
      <trkpt lat="44.32335" lon="6.54537">
        <ele>2543.3</ele>
        <time>2018-08-05T10:45:52Z</time>
      </trkpt>
      <trkpt lat="44.3234" lon="6.54539">
        <ele>2542.8</ele>
        <time>2018-08-05T10:46:19Z</time>
      </trkpt>
      <trkpt lat="44.32337" lon="6.54542">
        <ele>2542.3</ele>
        <time>2018-08-05T10:48:33Z</time>
      </trkpt>
      <trkpt lat="44.32337" lon="6.54547">
        <ele>2541.8</ele>
        <time>2018-08-05T10:48:40Z</time>
      </trkpt>
      <trkpt lat="44.32334" lon="6.54549">
        <ele>2541.2</ele>
        <time>2018-08-05T10:48:45Z</time>
      </trkpt>
      <trkpt lat="44.32333" lon="6.54541">
        <ele>2541</ele>
        <time>2018-08-05T10:56:43Z</time>
      </trkpt>
      <trkpt lat="44.32336" lon="6.54539">
        <ele>2541</ele>
        <time>2018-08-05T10:56:55Z</time>
      </trkpt>
      <trkpt lat="44.32338" lon="6.54536">
        <ele>2540.6</ele>
        <time>2018-08-05T10:57:01Z</time>
      </trkpt>
      <trkpt lat="44.32339" lon="6.5454">
        <ele>2540.2</ele>
        <time>2018-08-05T10:57:51Z</time>
      </trkpt>
      <trkpt lat="44.32336" lon="6.54537">
        <ele>2539.7</ele>
        <time>2018-08-05T10:57:57Z</time>
      </trkpt>
      <trkpt lat="44.32334" lon="6.54534">
        <ele>2539.1</ele>
        <time>2018-08-05T10:58:01Z</time>
      </trkpt>
      <trkpt lat="44.32335" lon="6.54538">
        <ele>2538.5</ele>
        <time>2018-08-05T10:58:24Z</time>
      </trkpt>
      <trkpt lat="44.32333" lon="6.5454">
        <ele>2537.7</ele>
        <time>2018-08-05T10:59:08Z</time>
      </trkpt>
      <trkpt lat="44.32331" lon="6.54545">
        <ele>2537</ele>
        <time>2018-08-05T10:59:11Z</time>
      </trkpt>
      <trkpt lat="44.3233" lon="6.54548">
        <ele>2536.5</ele>
        <time>2018-08-05T10:59:13Z</time>
      </trkpt>
      <trkpt lat="44.32327" lon="6.54554">
        <ele>2535.4</ele>
        <time>2018-08-05T10:59:15Z</time>
      </trkpt>
      <trkpt lat="44.32326" lon="6.54558">
        <ele>2534.5</ele>
        <time>2018-08-05T10:59:18Z</time>
      </trkpt>
      <trkpt lat="44.32325" lon="6.54561">
        <ele>2533.7</ele>
        <time>2018-08-05T10:59:21Z</time>
      </trkpt>
      <trkpt lat="44.32324" lon="6.54566">
        <ele>2532.6</ele>
        <time>2018-08-05T10:59:24Z</time>
      </trkpt>
      <trkpt lat="44.32322" lon="6.54569">
        <ele>2532</ele>
        <time>2018-08-05T10:59:27Z</time>
      </trkpt>
      <trkpt lat="44.32322" lon="6.54573">
        <ele>2531.3</ele>
        <time>2018-08-05T10:59:31Z</time>
      </trkpt>
      <trkpt lat="44.32322" lon="6.54578">
        <ele>2530.2</ele>
        <time>2018-08-05T10:59:34Z</time>
      </trkpt>
      <trkpt lat="44.32321" lon="6.54582">
        <ele>2529.2</ele>
        <time>2018-08-05T10:59:37Z</time>
      </trkpt>
      <trkpt lat="44.32322" lon="6.54588">
        <ele>2527.7</ele>
        <time>2018-08-05T10:59:40Z</time>
      </trkpt>
      <trkpt lat="44.3232" lon="6.54592">
        <ele>2526.7</ele>
        <time>2018-08-05T10:59:43Z</time>
      </trkpt>
      <trkpt lat="44.32318" lon="6.54596">
        <ele>2525.7</ele>
        <time>2018-08-05T10:59:45Z</time>
      </trkpt>
      <trkpt lat="44.32318" lon="6.54601">
        <ele>2524.6</ele>
        <time>2018-08-05T10:59:47Z</time>
      </trkpt>
      <trkpt lat="44.32315" lon="6.54603">
        <ele>2523.4</ele>
        <time>2018-08-05T10:59:51Z</time>
      </trkpt>
      <trkpt lat="44.32313" lon="6.54606">
        <ele>2522</ele>
        <time>2018-08-05T10:59:55Z</time>
      </trkpt>
      <trkpt lat="44.3231" lon="6.54605">
        <ele>2520.9</ele>
        <time>2018-08-05T11:00:03Z</time>
      </trkpt>
      <trkpt lat="44.32308" lon="6.54608">
        <ele>2519.6</ele>
        <time>2018-08-05T11:00:06Z</time>
      </trkpt>
      <trkpt lat="44.32306" lon="6.54613">
        <ele>2518.1</ele>
        <time>2018-08-05T11:00:09Z</time>
      </trkpt>
      <trkpt lat="44.32305" lon="6.54617">
        <ele>2517.2</ele>
        <time>2018-08-05T11:00:11Z</time>
      </trkpt>
      <trkpt lat="44.32303" lon="6.54622">
        <ele>2516</ele>
        <time>2018-08-05T11:00:13Z</time>
      </trkpt>
      <trkpt lat="44.323" lon="6.54626">
        <ele>2514.8</ele>
        <time>2018-08-05T11:00:15Z</time>
      </trkpt>
      <trkpt lat="44.32298" lon="6.54629">
        <ele>2513.4</ele>
        <time>2018-08-05T11:00:17Z</time>
      </trkpt>
      <trkpt lat="44.32295" lon="6.54632">
        <ele>2511.9</ele>
        <time>2018-08-05T11:00:19Z</time>
      </trkpt>
      <trkpt lat="44.32292" lon="6.54635">
        <ele>2510.7</ele>
        <time>2018-08-05T11:00:30Z</time>
      </trkpt>
      <trkpt lat="44.32291" lon="6.54639">
        <ele>2509.8</ele>
        <time>2018-08-05T11:00:34Z</time>
      </trkpt>
      <trkpt lat="44.32291" lon="6.54644">
        <ele>2508.6</ele>
        <time>2018-08-05T11:00:38Z</time>
      </trkpt>
      <trkpt lat="44.32292" lon="6.54648">
        <ele>2507.3</ele>
        <time>2018-08-05T11:00:40Z</time>
      </trkpt>
      <trkpt lat="44.32292" lon="6.54652">
        <ele>2506</ele>
        <time>2018-08-05T11:00:42Z</time>
      </trkpt>
      <trkpt lat="44.32292" lon="6.54657">
        <ele>2504.5</ele>
        <time>2018-08-05T11:00:56Z</time>
      </trkpt>
      <trkpt lat="44.32291" lon="6.54659">
        <ele>2503.7</ele>
        <time>2018-08-05T11:01:00Z</time>
      </trkpt>
      <trkpt lat="44.32288" lon="6.5466">
        <ele>2503</ele>
        <time>2018-08-05T11:01:06Z</time>
      </trkpt>
      <trkpt lat="44.32286" lon="6.54662">
        <ele>2502.2</ele>
        <time>2018-08-05T11:01:12Z</time>
      </trkpt>
      <trkpt lat="44.32285" lon="6.54666">
        <ele>2501.3</ele>
        <time>2018-08-05T11:01:13Z</time>
      </trkpt>
      <trkpt lat="44.32284" lon="6.54672">
        <ele>2499.6</ele>
        <time>2018-08-05T11:01:15Z</time>
      </trkpt>
      <trkpt lat="44.32285" lon="6.5468">
        <ele>2497.7</ele>
        <time>2018-08-05T11:01:17Z</time>
      </trkpt>
      <trkpt lat="44.32283" lon="6.54685">
        <ele>2496.3</ele>
        <time>2018-08-05T11:01:19Z</time>
      </trkpt>
      <trkpt lat="44.32282" lon="6.54689">
        <ele>2495.2</ele>
        <time>2018-08-05T11:01:22Z</time>
      </trkpt>
      <trkpt lat="44.32282" lon="6.54694">
        <ele>2494.4</ele>
        <time>2018-08-05T11:01:27Z</time>
      </trkpt>
      <trkpt lat="44.32283" lon="6.54698">
        <ele>2493.7</ele>
        <time>2018-08-05T11:01:28Z</time>
      </trkpt>
      <trkpt lat="44.32281" lon="6.54703">
        <ele>2492.7</ele>
        <time>2018-08-05T11:01:30Z</time>
      </trkpt>
      <trkpt lat="44.32281" lon="6.5471">
        <ele>2491.3</ele>
        <time>2018-08-05T11:01:32Z</time>
      </trkpt>
      <trkpt lat="44.3228" lon="6.54715">
        <ele>2490.3</ele>
        <time>2018-08-05T11:01:34Z</time>
      </trkpt>
      <trkpt lat="44.32278" lon="6.54721">
        <ele>2489.2</ele>
        <time>2018-08-05T11:01:36Z</time>
      </trkpt>
      <trkpt lat="44.32277" lon="6.54725">
        <ele>2488.6</ele>
        <time>2018-08-05T11:01:37Z</time>
      </trkpt>
      <trkpt lat="44.32275" lon="6.5473">
        <ele>2487.5</ele>
        <time>2018-08-05T11:01:39Z</time>
      </trkpt>
      <trkpt lat="44.32274" lon="6.54735">
        <ele>2486.3</ele>
        <time>2018-08-05T11:01:42Z</time>
      </trkpt>
      <trkpt lat="44.32272" lon="6.5474">
        <ele>2485</ele>
        <time>2018-08-05T11:01:44Z</time>
      </trkpt>
      <trkpt lat="44.32269" lon="6.54747">
        <ele>2483.6</ele>
        <time>2018-08-05T11:01:46Z</time>
      </trkpt>
      <trkpt lat="44.32268" lon="6.54753">
        <ele>2482.7</ele>
        <time>2018-08-05T11:01:47Z</time>
      </trkpt>
      <trkpt lat="44.32267" lon="6.54757">
        <ele>2482.1</ele>
        <time>2018-08-05T11:01:48Z</time>
      </trkpt>
      <trkpt lat="44.32265" lon="6.54761">
        <ele>2481.5</ele>
        <time>2018-08-05T11:01:49Z</time>
      </trkpt>
      <trkpt lat="44.32263" lon="6.54764">
        <ele>2480.9</ele>
        <time>2018-08-05T11:01:50Z</time>
      </trkpt>
      <trkpt lat="44.32262" lon="6.54768">
        <ele>2480.2</ele>
        <time>2018-08-05T11:01:51Z</time>
      </trkpt>
      <trkpt lat="44.32261" lon="6.54772">
        <ele>2479.3</ele>
        <time>2018-08-05T11:01:52Z</time>
      </trkpt>
      <trkpt lat="44.32259" lon="6.54777">
        <ele>2478.3</ele>
        <time>2018-08-05T11:01:53Z</time>
      </trkpt>
      <trkpt lat="44.32257" lon="6.54783">
        <ele>2477.3</ele>
        <time>2018-08-05T11:01:54Z</time>
      </trkpt>
      <trkpt lat="44.32258" lon="6.54787">
        <ele>2476.6</ele>
        <time>2018-08-05T11:01:55Z</time>
      </trkpt>
      <trkpt lat="44.32255" lon="6.54794">
        <ele>2475.7</ele>
        <time>2018-08-05T11:01:57Z</time>
      </trkpt>
      <trkpt lat="44.32252" lon="6.54796">
        <ele>2475.1</ele>
        <time>2018-08-05T11:01:58Z</time>
      </trkpt>
      <trkpt lat="44.3225" lon="6.548">
        <ele>2474.4</ele>
        <time>2018-08-05T11:01:59Z</time>
      </trkpt>
      <trkpt lat="44.32249" lon="6.54805">
        <ele>2473.6</ele>
        <time>2018-08-05T11:02:00Z</time>
      </trkpt>
      <trkpt lat="44.32248" lon="6.5481">
        <ele>2472.8</ele>
        <time>2018-08-05T11:02:01Z</time>
      </trkpt>
      <trkpt lat="44.32246" lon="6.54814">
        <ele>2472.2</ele>
        <time>2018-08-05T11:02:02Z</time>
      </trkpt>
      <trkpt lat="44.32244" lon="6.54818">
        <ele>2471.6</ele>
        <time>2018-08-05T11:02:03Z</time>
      </trkpt>
      <trkpt lat="44.32241" lon="6.54821">
        <ele>2471</ele>
        <time>2018-08-05T11:02:04Z</time>
      </trkpt>
      <trkpt lat="44.32238" lon="6.54827">
        <ele>2469.7</ele>
        <time>2018-08-05T11:02:06Z</time>
      </trkpt>
      <trkpt lat="44.32237" lon="6.54832">
        <ele>2469.1</ele>
        <time>2018-08-05T11:02:07Z</time>
      </trkpt>
      <trkpt lat="44.32235" lon="6.54836">
        <ele>2468.5</ele>
        <time>2018-08-05T11:02:08Z</time>
      </trkpt>
      <trkpt lat="44.32234" lon="6.54841">
        <ele>2467.9</ele>
        <time>2018-08-05T11:02:09Z</time>
      </trkpt>
      <trkpt lat="44.32232" lon="6.54846">
        <ele>2467</ele>
        <time>2018-08-05T11:02:10Z</time>
      </trkpt>
      <trkpt lat="44.3223" lon="6.54852">
        <ele>2466.1</ele>
        <time>2018-08-05T11:02:11Z</time>
      </trkpt>
      <trkpt lat="44.32228" lon="6.54857">
        <ele>2465.5</ele>
        <time>2018-08-05T11:02:12Z</time>
      </trkpt>
      <trkpt lat="44.32226" lon="6.54861">
        <ele>2464.9</ele>
        <time>2018-08-05T11:02:13Z</time>
      </trkpt>
      <trkpt lat="44.32224" lon="6.54865">
        <ele>2464.2</ele>
        <time>2018-08-05T11:02:14Z</time>
      </trkpt>
      <trkpt lat="44.32222" lon="6.54869">
        <ele>2463.5</ele>
        <time>2018-08-05T11:02:15Z</time>
      </trkpt>
      <trkpt lat="44.3222" lon="6.54873">
        <ele>2462.8</ele>
        <time>2018-08-05T11:02:16Z</time>
      </trkpt>
      <trkpt lat="44.32218" lon="6.54877">
        <ele>2462.2</ele>
        <time>2018-08-05T11:02:17Z</time>
      </trkpt>
      <trkpt lat="44.32215" lon="6.54883">
        <ele>2461.3</ele>
        <time>2018-08-05T11:02:19Z</time>
      </trkpt>
      <trkpt lat="44.32214" lon="6.54886">
        <ele>2460.7</ele>
        <time>2018-08-05T11:02:20Z</time>
      </trkpt>
      <trkpt lat="44.32213" lon="6.5489">
        <ele>2460.1</ele>
        <time>2018-08-05T11:02:21Z</time>
      </trkpt>
      <trkpt lat="44.32211" lon="6.54893">
        <ele>2459.6</ele>
        <time>2018-08-05T11:02:22Z</time>
      </trkpt>
      <trkpt lat="44.3221" lon="6.54897">
        <ele>2459</ele>
        <time>2018-08-05T11:02:23Z</time>
      </trkpt>
      <trkpt lat="44.32208" lon="6.54901">
        <ele>2458.3</ele>
        <time>2018-08-05T11:02:24Z</time>
      </trkpt>
      <trkpt lat="44.32205" lon="6.54904">
        <ele>2457.6</ele>
        <time>2018-08-05T11:02:25Z</time>
      </trkpt>
      <trkpt lat="44.32202" lon="6.54909">
        <ele>2456.7</ele>
        <time>2018-08-05T11:02:27Z</time>
      </trkpt>
      <trkpt lat="44.32201" lon="6.54915">
        <ele>2455.8</ele>
        <time>2018-08-05T11:02:29Z</time>
      </trkpt>
      <trkpt lat="44.32197" lon="6.54921">
        <ele>2454.7</ele>
        <time>2018-08-05T11:02:31Z</time>
      </trkpt>
      <trkpt lat="44.32195" lon="6.54926">
        <ele>2453.8</ele>
        <time>2018-08-05T11:02:32Z</time>
      </trkpt>
      <trkpt lat="44.32192" lon="6.5493">
        <ele>2453.1</ele>
        <time>2018-08-05T11:02:33Z</time>
      </trkpt>
      <trkpt lat="44.3219" lon="6.54933">
        <ele>2452.6</ele>
        <time>2018-08-05T11:02:34Z</time>
      </trkpt>
      <trkpt lat="44.32187" lon="6.54938">
        <ele>2451.5</ele>
        <time>2018-08-05T11:02:36Z</time>
      </trkpt>
      <trkpt lat="44.32185" lon="6.54941">
        <ele>2450.8</ele>
        <time>2018-08-05T11:02:37Z</time>
      </trkpt>
      <trkpt lat="44.32182" lon="6.54946">
        <ele>2449.8</ele>
        <time>2018-08-05T11:02:39Z</time>
      </trkpt>
      <trkpt lat="44.3218" lon="6.54951">
        <ele>2448.8</ele>
        <time>2018-08-05T11:02:41Z</time>
      </trkpt>
      <trkpt lat="44.32175" lon="6.54956">
        <ele>2447.6</ele>
        <time>2018-08-05T11:02:43Z</time>
      </trkpt>
      <trkpt lat="44.32172" lon="6.54958">
        <ele>2446.8</ele>
        <time>2018-08-05T11:02:44Z</time>
      </trkpt>
      <trkpt lat="44.3217" lon="6.5496">
        <ele>2446</ele>
        <time>2018-08-05T11:02:45Z</time>
      </trkpt>
      <trkpt lat="44.32166" lon="6.54964">
        <ele>2445</ele>
        <time>2018-08-05T11:02:47Z</time>
      </trkpt>
      <trkpt lat="44.32162" lon="6.54968">
        <ele>2444</ele>
        <time>2018-08-05T11:02:57Z</time>
      </trkpt>
      <trkpt lat="44.32158" lon="6.54973">
        <ele>2442.2</ele>
        <time>2018-08-05T11:02:59Z</time>
      </trkpt>
      <trkpt lat="44.32156" lon="6.54979">
        <ele>2441</ele>
        <time>2018-08-05T11:03:01Z</time>
      </trkpt>
      <trkpt lat="44.32154" lon="6.5498">
        <ele>2441</ele>
        <time>2018-08-05T11:03:03Z</time>
      </trkpt>
      <trkpt lat="44.32149" lon="6.54983">
        <ele>2441</ele>
        <time>2018-08-05T11:03:05Z</time>
      </trkpt>
      <trkpt lat="44.32145" lon="6.54987">
        <ele>2439.9</ele>
        <time>2018-08-05T11:03:07Z</time>
      </trkpt>
      <trkpt lat="44.32143" lon="6.5499">
        <ele>2439.3</ele>
        <time>2018-08-05T11:03:08Z</time>
      </trkpt>
      <trkpt lat="44.32141" lon="6.54994">
        <ele>2439</ele>
        <time>2018-08-05T11:03:09Z</time>
      </trkpt>
      <trkpt lat="44.3214" lon="6.54997">
        <ele>2438.7</ele>
        <time>2018-08-05T11:03:10Z</time>
      </trkpt>
      <trkpt lat="44.32138" lon="6.55">
        <ele>2438.4</ele>
        <time>2018-08-05T11:03:11Z</time>
      </trkpt>
      <trkpt lat="44.32134" lon="6.55004">
        <ele>2437.2</ele>
        <time>2018-08-05T11:03:13Z</time>
      </trkpt>
      <trkpt lat="44.32131" lon="6.55007">
        <ele>2436.5</ele>
        <time>2018-08-05T11:03:14Z</time>
      </trkpt>
      <trkpt lat="44.32129" lon="6.5501">
        <ele>2435.9</ele>
        <time>2018-08-05T11:03:15Z</time>
      </trkpt>
      <trkpt lat="44.32127" lon="6.55014">
        <ele>2435.1</ele>
        <time>2018-08-05T11:03:16Z</time>
      </trkpt>
      <trkpt lat="44.32125" lon="6.55018">
        <ele>2434.4</ele>
        <time>2018-08-05T11:03:17Z</time>
      </trkpt>
      <trkpt lat="44.32123" lon="6.55021">
        <ele>2433.9</ele>
        <time>2018-08-05T11:03:18Z</time>
      </trkpt>
      <trkpt lat="44.3212" lon="6.55025">
        <ele>2433.2</ele>
        <time>2018-08-05T11:03:20Z</time>
      </trkpt>
      <trkpt lat="44.32117" lon="6.55025">
        <ele>2432.6</ele>
        <time>2018-08-05T11:03:22Z</time>
      </trkpt>
      <trkpt lat="44.32114" lon="6.55027">
        <ele>2431.9</ele>
        <time>2018-08-05T11:03:24Z</time>
      </trkpt>
      <trkpt lat="44.32111" lon="6.55032">
        <ele>2431.1</ele>
        <time>2018-08-05T11:03:26Z</time>
      </trkpt>
      <trkpt lat="44.32108" lon="6.55034">
        <ele>2430.6</ele>
        <time>2018-08-05T11:03:28Z</time>
      </trkpt>
      <trkpt lat="44.32106" lon="6.55038">
        <ele>2430.1</ele>
        <time>2018-08-05T11:03:32Z</time>
      </trkpt>
      <trkpt lat="44.32103" lon="6.55043">
        <ele>2429.7</ele>
        <time>2018-08-05T11:03:34Z</time>
      </trkpt>
      <trkpt lat="44.321" lon="6.55047">
        <ele>2429.5</ele>
        <time>2018-08-05T11:03:36Z</time>
      </trkpt>
      <trkpt lat="44.32098" lon="6.5505">
        <ele>2429.2</ele>
        <time>2018-08-05T11:03:38Z</time>
      </trkpt>
      <trkpt lat="44.32095" lon="6.55054">
        <ele>2428.7</ele>
        <time>2018-08-05T11:03:40Z</time>
      </trkpt>
      <trkpt lat="44.32092" lon="6.5506">
        <ele>2428</ele>
        <time>2018-08-05T11:03:42Z</time>
      </trkpt>
      <trkpt lat="44.3209" lon="6.55063">
        <ele>2427.6</ele>
        <time>2018-08-05T11:03:43Z</time>
      </trkpt>
      <trkpt lat="44.32087" lon="6.55068">
        <ele>2427.2</ele>
        <time>2018-08-05T11:03:44Z</time>
      </trkpt>
      <trkpt lat="44.32084" lon="6.55071">
        <ele>2426.8</ele>
        <time>2018-08-05T11:03:45Z</time>
      </trkpt>
      <trkpt lat="44.32082" lon="6.55074">
        <ele>2426.5</ele>
        <time>2018-08-05T11:03:46Z</time>
      </trkpt>
      <trkpt lat="44.32079" lon="6.55078">
        <ele>2426.1</ele>
        <time>2018-08-05T11:04:10Z</time>
      </trkpt>
      <trkpt lat="44.32077" lon="6.55081">
        <ele>2425.8</ele>
        <time>2018-08-05T11:04:12Z</time>
      </trkpt>
      <trkpt lat="44.32074" lon="6.55086">
        <ele>2425.4</ele>
        <time>2018-08-05T11:04:14Z</time>
      </trkpt>
      <trkpt lat="44.32072" lon="6.55088">
        <ele>2425.1</ele>
        <time>2018-08-05T11:04:15Z</time>
      </trkpt>
      <trkpt lat="44.32071" lon="6.55093">
        <ele>2424.8</ele>
        <time>2018-08-05T11:04:16Z</time>
      </trkpt>
      <trkpt lat="44.32069" lon="6.55096">
        <ele>2424.7</ele>
        <time>2018-08-05T11:04:17Z</time>
      </trkpt>
      <trkpt lat="44.32067" lon="6.55099">
        <ele>2424.7</ele>
        <time>2018-08-05T11:04:18Z</time>
      </trkpt>
      <trkpt lat="44.32064" lon="6.55104">
        <ele>2424.5</ele>
        <time>2018-08-05T11:04:20Z</time>
      </trkpt>
      <trkpt lat="44.32062" lon="6.5511">
        <ele>2424.2</ele>
        <time>2018-08-05T11:04:22Z</time>
      </trkpt>
      <trkpt lat="44.3206" lon="6.55114">
        <ele>2424</ele>
        <time>2018-08-05T11:04:25Z</time>
      </trkpt>
      <trkpt lat="44.32058" lon="6.55118">
        <ele>2423.8</ele>
        <time>2018-08-05T11:04:27Z</time>
      </trkpt>
      <trkpt lat="44.32058" lon="6.55121">
        <ele>2423.8</ele>
        <time>2018-08-05T11:04:28Z</time>
      </trkpt>
      <trkpt lat="44.32057" lon="6.55125">
        <ele>2423.7</ele>
        <time>2018-08-05T11:04:30Z</time>
      </trkpt>
      <trkpt lat="44.32055" lon="6.5513">
        <ele>2423.6</ele>
        <time>2018-08-05T11:04:32Z</time>
      </trkpt>
      <trkpt lat="44.32055" lon="6.55136">
        <ele>2423.6</ele>
        <time>2018-08-05T11:04:34Z</time>
      </trkpt>
      <trkpt lat="44.32053" lon="6.55142">
        <ele>2423.6</ele>
        <time>2018-08-05T11:04:36Z</time>
      </trkpt>
      <trkpt lat="44.32052" lon="6.55146">
        <ele>2423.6</ele>
        <time>2018-08-05T11:05:57Z</time>
      </trkpt>
      <trkpt lat="44.3205" lon="6.55151">
        <ele>2423.8</ele>
        <time>2018-08-05T11:06:00Z</time>
      </trkpt>
      <trkpt lat="44.32048" lon="6.55154">
        <ele>2423.9</ele>
        <time>2018-08-05T11:06:02Z</time>
      </trkpt>
      <trkpt lat="44.32046" lon="6.55158">
        <ele>2424</ele>
        <time>2018-08-05T11:06:04Z</time>
      </trkpt>
      <trkpt lat="44.32043" lon="6.55159">
        <ele>2424</ele>
        <time>2018-08-05T11:06:07Z</time>
      </trkpt>
      <trkpt lat="44.3204" lon="6.55161">
        <ele>2424</ele>
        <time>2018-08-05T11:06:09Z</time>
      </trkpt>
      <trkpt lat="44.32037" lon="6.55163">
        <ele>2424</ele>
        <time>2018-08-05T11:06:12Z</time>
      </trkpt>
      <trkpt lat="44.32034" lon="6.55166">
        <ele>2424</ele>
        <time>2018-08-05T11:06:15Z</time>
      </trkpt>
      <trkpt lat="44.32031" lon="6.55167">
        <ele>2423.9</ele>
        <time>2018-08-05T11:06:17Z</time>
      </trkpt>
      <trkpt lat="44.32028" lon="6.55169">
        <ele>2423.7</ele>
        <time>2018-08-05T11:06:20Z</time>
      </trkpt>
      <trkpt lat="44.32026" lon="6.55173">
        <ele>2423.5</ele>
        <time>2018-08-05T11:06:23Z</time>
      </trkpt>
      <trkpt lat="44.32024" lon="6.55176">
        <ele>2423.5</ele>
        <time>2018-08-05T11:06:30Z</time>
      </trkpt>
      <trkpt lat="44.32023" lon="6.55181">
        <ele>2423.6</ele>
        <time>2018-08-05T11:06:37Z</time>
      </trkpt>
      <trkpt lat="44.3202" lon="6.55184">
        <ele>2423.6</ele>
        <time>2018-08-05T11:06:39Z</time>
      </trkpt>
      <trkpt lat="44.32017" lon="6.55188">
        <ele>2423.8</ele>
        <time>2018-08-05T11:06:41Z</time>
      </trkpt>
      <trkpt lat="44.32015" lon="6.55192">
        <ele>2423.8</ele>
        <time>2018-08-05T11:06:43Z</time>
      </trkpt>
      <trkpt lat="44.32013" lon="6.55194">
        <ele>2423.8</ele>
        <time>2018-08-05T11:06:44Z</time>
      </trkpt>
      <trkpt lat="44.32011" lon="6.55197">
        <ele>2423.8</ele>
        <time>2018-08-05T11:06:45Z</time>
      </trkpt>
      <trkpt lat="44.32009" lon="6.552">
        <ele>2423.8</ele>
        <time>2018-08-05T11:06:46Z</time>
      </trkpt>
      <trkpt lat="44.32005" lon="6.55205">
        <ele>2423.9</ele>
        <time>2018-08-05T11:06:48Z</time>
      </trkpt>
      <trkpt lat="44.32001" lon="6.55208">
        <ele>2424.1</ele>
        <time>2018-08-05T11:06:50Z</time>
      </trkpt>
      <trkpt lat="44.31997" lon="6.55213">
        <ele>2424.4</ele>
        <time>2018-08-05T11:06:52Z</time>
      </trkpt>
      <trkpt lat="44.31993" lon="6.55218">
        <ele>2424.7</ele>
        <time>2018-08-05T11:06:54Z</time>
      </trkpt>
      <trkpt lat="44.3199" lon="6.55223">
        <ele>2425</ele>
        <time>2018-08-05T11:06:55Z</time>
      </trkpt>
      <trkpt lat="44.31986" lon="6.55228">
        <ele>2425.3</ele>
        <time>2018-08-05T11:06:56Z</time>
      </trkpt>
      <trkpt lat="44.31983" lon="6.55233">
        <ele>2425.6</ele>
        <time>2018-08-05T11:06:57Z</time>
      </trkpt>
      <trkpt lat="44.31981" lon="6.55236">
        <ele>2425.8</ele>
        <time>2018-08-05T11:06:58Z</time>
      </trkpt>
      <trkpt lat="44.31979" lon="6.55239">
        <ele>2426</ele>
        <time>2018-08-05T11:06:59Z</time>
      </trkpt>
      <trkpt lat="44.31976" lon="6.55246">
        <ele>2426.3</ele>
        <time>2018-08-05T11:07:01Z</time>
      </trkpt>
      <trkpt lat="44.31974" lon="6.55249">
        <ele>2426.7</ele>
        <time>2018-08-05T11:07:02Z</time>
      </trkpt>
      <trkpt lat="44.31971" lon="6.55254">
        <ele>2427.3</ele>
        <time>2018-08-05T11:07:04Z</time>
      </trkpt>
      <trkpt lat="44.3197" lon="6.55258">
        <ele>2427.6</ele>
        <time>2018-08-05T11:07:05Z</time>
      </trkpt>
      <trkpt lat="44.31968" lon="6.55264">
        <ele>2428</ele>
        <time>2018-08-05T11:07:07Z</time>
      </trkpt>
      <trkpt lat="44.31967" lon="6.55268">
        <ele>2428.2</ele>
        <time>2018-08-05T11:07:08Z</time>
      </trkpt>
      <trkpt lat="44.31965" lon="6.55274">
        <ele>2428.6</ele>
        <time>2018-08-05T11:07:10Z</time>
      </trkpt>
      <trkpt lat="44.31962" lon="6.5528">
        <ele>2429.1</ele>
        <time>2018-08-05T11:07:12Z</time>
      </trkpt>
      <trkpt lat="44.31961" lon="6.55285">
        <ele>2429.6</ele>
        <time>2018-08-05T11:07:13Z</time>
      </trkpt>
      <trkpt lat="44.31959" lon="6.55289">
        <ele>2429.9</ele>
        <time>2018-08-05T11:07:14Z</time>
      </trkpt>
      <trkpt lat="44.31957" lon="6.55293">
        <ele>2430.2</ele>
        <time>2018-08-05T11:07:15Z</time>
      </trkpt>
      <trkpt lat="44.31956" lon="6.55297">
        <ele>2430.6</ele>
        <time>2018-08-05T11:07:16Z</time>
      </trkpt>
      <trkpt lat="44.31955" lon="6.55301">
        <ele>2431</ele>
        <time>2018-08-05T11:07:17Z</time>
      </trkpt>
      <trkpt lat="44.31952" lon="6.55308">
        <ele>2431.6</ele>
        <time>2018-08-05T11:07:19Z</time>
      </trkpt>
      <trkpt lat="44.31952" lon="6.55313">
        <ele>2431.9</ele>
        <time>2018-08-05T11:07:20Z</time>
      </trkpt>
      <trkpt lat="44.3195" lon="6.55316">
        <ele>2432.2</ele>
        <time>2018-08-05T11:07:21Z</time>
      </trkpt>
      <trkpt lat="44.31949" lon="6.5532">
        <ele>2432.3</ele>
        <time>2018-08-05T11:07:22Z</time>
      </trkpt>
      <trkpt lat="44.31947" lon="6.55327">
        <ele>2432.5</ele>
        <time>2018-08-05T11:07:24Z</time>
      </trkpt>
      <trkpt lat="44.31945" lon="6.55334">
        <ele>2432.7</ele>
        <time>2018-08-05T11:07:26Z</time>
      </trkpt>
      <trkpt lat="44.31944" lon="6.5534">
        <ele>2433</ele>
        <time>2018-08-05T11:07:28Z</time>
      </trkpt>
      <trkpt lat="44.31941" lon="6.55345">
        <ele>2433.1</ele>
        <time>2018-08-05T11:07:30Z</time>
      </trkpt>
      <trkpt lat="44.31939" lon="6.55353">
        <ele>2433.3</ele>
        <time>2018-08-05T11:07:32Z</time>
      </trkpt>
      <trkpt lat="44.31937" lon="6.5536">
        <ele>2433.4</ele>
        <time>2018-08-05T11:07:34Z</time>
      </trkpt>
      <trkpt lat="44.31937" lon="6.55364">
        <ele>2433.5</ele>
        <time>2018-08-05T11:07:35Z</time>
      </trkpt>
      <trkpt lat="44.31936" lon="6.55371">
        <ele>2433.7</ele>
        <time>2018-08-05T11:07:37Z</time>
      </trkpt>
      <trkpt lat="44.31934" lon="6.55376">
        <ele>2433.9</ele>
        <time>2018-08-05T11:07:39Z</time>
      </trkpt>
      <trkpt lat="44.31932" lon="6.55382">
        <ele>2434.2</ele>
        <time>2018-08-05T11:07:41Z</time>
      </trkpt>
      <trkpt lat="44.31931" lon="6.55388">
        <ele>2434.4</ele>
        <time>2018-08-05T11:07:43Z</time>
      </trkpt>
      <trkpt lat="44.3193" lon="6.55395">
        <ele>2434.6</ele>
        <time>2018-08-05T11:07:45Z</time>
      </trkpt>
      <trkpt lat="44.3193" lon="6.55402">
        <ele>2434.8</ele>
        <time>2018-08-05T11:07:47Z</time>
      </trkpt>
      <trkpt lat="44.31928" lon="6.55407">
        <ele>2435</ele>
        <time>2018-08-05T11:07:49Z</time>
      </trkpt>
      <trkpt lat="44.31927" lon="6.55412">
        <ele>2435.2</ele>
        <time>2018-08-05T11:07:51Z</time>
      </trkpt>
      <trkpt lat="44.31927" lon="6.55416">
        <ele>2435.3</ele>
        <time>2018-08-05T11:07:53Z</time>
      </trkpt>
      <trkpt lat="44.31926" lon="6.55421">
        <ele>2435.4</ele>
        <time>2018-08-05T11:07:55Z</time>
      </trkpt>
      <trkpt lat="44.31925" lon="6.55426">
        <ele>2435.4</ele>
        <time>2018-08-05T11:07:57Z</time>
      </trkpt>
      <trkpt lat="44.31923" lon="6.55431">
        <ele>2435.4</ele>
        <time>2018-08-05T11:07:59Z</time>
      </trkpt>
      <trkpt lat="44.31922" lon="6.55435">
        <ele>2435.5</ele>
        <time>2018-08-05T11:08:01Z</time>
      </trkpt>
      <trkpt lat="44.3192" lon="6.55439">
        <ele>2435.6</ele>
        <time>2018-08-05T11:08:03Z</time>
      </trkpt>
      <trkpt lat="44.31919" lon="6.55443">
        <ele>2435.7</ele>
        <time>2018-08-05T11:08:05Z</time>
      </trkpt>
      <trkpt lat="44.31918" lon="6.55447">
        <ele>2435.7</ele>
        <time>2018-08-05T11:08:07Z</time>
      </trkpt>
      <trkpt lat="44.31917" lon="6.55452">
        <ele>2435.8</ele>
        <time>2018-08-05T11:08:09Z</time>
      </trkpt>
      <trkpt lat="44.31916" lon="6.55456">
        <ele>2435.9</ele>
        <time>2018-08-05T11:08:11Z</time>
      </trkpt>
      <trkpt lat="44.31914" lon="6.55459">
        <ele>2435.9</ele>
        <time>2018-08-05T11:08:13Z</time>
      </trkpt>
      <trkpt lat="44.31912" lon="6.55464">
        <ele>2436</ele>
        <time>2018-08-05T11:08:16Z</time>
      </trkpt>
      <trkpt lat="44.31911" lon="6.55469">
        <ele>2435.9</ele>
        <time>2018-08-05T11:08:18Z</time>
      </trkpt>
      <trkpt lat="44.31911" lon="6.55474">
        <ele>2435.8</ele>
        <time>2018-08-05T11:08:20Z</time>
      </trkpt>
      <trkpt lat="44.31909" lon="6.55479">
        <ele>2435.7</ele>
        <time>2018-08-05T11:08:22Z</time>
      </trkpt>
      <trkpt lat="44.31907" lon="6.55484">
        <ele>2435.5</ele>
        <time>2018-08-05T11:08:25Z</time>
      </trkpt>
      <trkpt lat="44.31905" lon="6.55488">
        <ele>2435.4</ele>
        <time>2018-08-05T11:08:27Z</time>
      </trkpt>
      <trkpt lat="44.31904" lon="6.55492">
        <ele>2435.3</ele>
        <time>2018-08-05T11:08:30Z</time>
      </trkpt>
      <trkpt lat="44.31903" lon="6.55496">
        <ele>2435.2</ele>
        <time>2018-08-05T11:08:32Z</time>
      </trkpt>
      <trkpt lat="44.31902" lon="6.55501">
        <ele>2435.1</ele>
        <time>2018-08-05T11:08:34Z</time>
      </trkpt>
      <trkpt lat="44.31902" lon="6.55506">
        <ele>2434.9</ele>
        <time>2018-08-05T11:08:36Z</time>
      </trkpt>
      <trkpt lat="44.31901" lon="6.55512">
        <ele>2434.7</ele>
        <time>2018-08-05T11:08:38Z</time>
      </trkpt>
      <trkpt lat="44.31899" lon="6.55519">
        <ele>2434.5</ele>
        <time>2018-08-05T11:08:40Z</time>
      </trkpt>
      <trkpt lat="44.31898" lon="6.55525">
        <ele>2434.3</ele>
        <time>2018-08-05T11:08:42Z</time>
      </trkpt>
      <trkpt lat="44.31897" lon="6.5553">
        <ele>2434.2</ele>
        <time>2018-08-05T11:08:44Z</time>
      </trkpt>
      <trkpt lat="44.31896" lon="6.55534">
        <ele>2434.1</ele>
        <time>2018-08-05T11:08:46Z</time>
      </trkpt>
      <trkpt lat="44.31895" lon="6.5554">
        <ele>2434.1</ele>
        <time>2018-08-05T11:08:48Z</time>
      </trkpt>
      <trkpt lat="44.31893" lon="6.55545">
        <ele>2434.1</ele>
        <time>2018-08-05T11:08:50Z</time>
      </trkpt>
      <trkpt lat="44.31891" lon="6.55551">
        <ele>2434.1</ele>
        <time>2018-08-05T11:08:52Z</time>
      </trkpt>
      <trkpt lat="44.31889" lon="6.55558">
        <ele>2434</ele>
        <time>2018-08-05T11:08:54Z</time>
      </trkpt>
      <trkpt lat="44.31887" lon="6.55563">
        <ele>2434</ele>
        <time>2018-08-05T11:08:56Z</time>
      </trkpt>
      <trkpt lat="44.31884" lon="6.55569">
        <ele>2433.9</ele>
        <time>2018-08-05T11:08:58Z</time>
      </trkpt>
      <trkpt lat="44.31883" lon="6.55576">
        <ele>2433.8</ele>
        <time>2018-08-05T11:09:00Z</time>
      </trkpt>
      <trkpt lat="44.31882" lon="6.55582">
        <ele>2433.8</ele>
        <time>2018-08-05T11:09:02Z</time>
      </trkpt>
      <trkpt lat="44.31882" lon="6.55587">
        <ele>2433.8</ele>
        <time>2018-08-05T11:09:04Z</time>
      </trkpt>
      <trkpt lat="44.31882" lon="6.55593">
        <ele>2433.8</ele>
        <time>2018-08-05T11:09:06Z</time>
      </trkpt>
      <trkpt lat="44.31881" lon="6.556">
        <ele>2433.9</ele>
        <time>2018-08-05T11:09:08Z</time>
      </trkpt>
      <trkpt lat="44.31881" lon="6.55604">
        <ele>2433.9</ele>
        <time>2018-08-05T11:09:09Z</time>
      </trkpt>
      <trkpt lat="44.31881" lon="6.55608">
        <ele>2434.1</ele>
        <time>2018-08-05T11:09:10Z</time>
      </trkpt>
      <trkpt lat="44.31881" lon="6.55613">
        <ele>2434.3</ele>
        <time>2018-08-05T11:09:11Z</time>
      </trkpt>
      <trkpt lat="44.31881" lon="6.55618">
        <ele>2434.6</ele>
        <time>2018-08-05T11:09:12Z</time>
      </trkpt>
      <trkpt lat="44.31881" lon="6.55623">
        <ele>2435</ele>
        <time>2018-08-05T11:09:13Z</time>
      </trkpt>
      <trkpt lat="44.31881" lon="6.55628">
        <ele>2435.4</ele>
        <time>2018-08-05T11:09:14Z</time>
      </trkpt>
      <trkpt lat="44.3188" lon="6.55634">
        <ele>2435.7</ele>
        <time>2018-08-05T11:09:15Z</time>
      </trkpt>
      <trkpt lat="44.3188" lon="6.5564">
        <ele>2436.3</ele>
        <time>2018-08-05T11:09:16Z</time>
      </trkpt>
      <trkpt lat="44.3188" lon="6.55646">
        <ele>2437</ele>
        <time>2018-08-05T11:09:17Z</time>
      </trkpt>
      <trkpt lat="44.31879" lon="6.55653">
        <ele>2437.8</ele>
        <time>2018-08-05T11:09:19Z</time>
      </trkpt>
      <trkpt lat="44.31879" lon="6.5566">
        <ele>2438.4</ele>
        <time>2018-08-05T11:09:21Z</time>
      </trkpt>
      <trkpt lat="44.31879" lon="6.55667">
        <ele>2439.5</ele>
        <time>2018-08-05T11:09:23Z</time>
      </trkpt>
      <trkpt lat="44.31879" lon="6.55671">
        <ele>2440</ele>
        <time>2018-08-05T11:09:25Z</time>
      </trkpt>
      <trkpt lat="44.31879" lon="6.55675">
        <ele>2440</ele>
        <time>2018-08-05T11:09:33Z</time>
      </trkpt>
      <trkpt lat="44.3188" lon="6.55681">
        <ele>2440</ele>
        <time>2018-08-05T11:09:38Z</time>
      </trkpt>
      <trkpt lat="44.31881" lon="6.55686">
        <ele>2441.1</ele>
        <time>2018-08-05T11:09:44Z</time>
      </trkpt>
      <trkpt lat="44.31881" lon="6.55691">
        <ele>2442.1</ele>
        <time>2018-08-05T11:09:49Z</time>
      </trkpt>
      <trkpt lat="44.31882" lon="6.55695">
        <ele>2442.8</ele>
        <time>2018-08-05T11:09:52Z</time>
      </trkpt>
      <trkpt lat="44.31884" lon="6.557">
        <ele>2443.7</ele>
        <time>2018-08-05T11:09:58Z</time>
      </trkpt>
      <trkpt lat="44.31884" lon="6.55704">
        <ele>2444.6</ele>
        <time>2018-08-05T11:10:02Z</time>
      </trkpt>
      <trkpt lat="44.31885" lon="6.55709">
        <ele>2445.8</ele>
        <time>2018-08-05T11:10:07Z</time>
      </trkpt>
      <trkpt lat="44.31885" lon="6.55713">
        <ele>2446.6</ele>
        <time>2018-08-05T11:10:11Z</time>
      </trkpt>
      <trkpt lat="44.31885" lon="6.55717">
        <ele>2447.4</ele>
        <time>2018-08-05T11:10:16Z</time>
      </trkpt>
      <trkpt lat="44.31884" lon="6.55721">
        <ele>2448.1</ele>
        <time>2018-08-05T11:10:18Z</time>
      </trkpt>
      <trkpt lat="44.31883" lon="6.55725">
        <ele>2449.2</ele>
        <time>2018-08-05T11:10:22Z</time>
      </trkpt>
      <trkpt lat="44.31883" lon="6.5573">
        <ele>2450.7</ele>
        <time>2018-08-05T11:10:26Z</time>
      </trkpt>
      <trkpt lat="44.31883" lon="6.55735">
        <ele>2452</ele>
        <time>2018-08-05T11:10:32Z</time>
      </trkpt>
      <trkpt lat="44.31883" lon="6.55739">
        <ele>2452.9</ele>
        <time>2018-08-05T11:10:37Z</time>
      </trkpt>
      <trkpt lat="44.31884" lon="6.55743">
        <ele>2453.8</ele>
        <time>2018-08-05T11:10:39Z</time>
      </trkpt>
      <trkpt lat="44.31884" lon="6.55748">
        <ele>2455.2</ele>
        <time>2018-08-05T11:10:43Z</time>
      </trkpt>
      <trkpt lat="44.31885" lon="6.55752">
        <ele>2456.5</ele>
        <time>2018-08-05T11:10:46Z</time>
      </trkpt>
      <trkpt lat="44.31886" lon="6.55757">
        <ele>2458</ele>
        <time>2018-08-05T11:10:49Z</time>
      </trkpt>
      <trkpt lat="44.31886" lon="6.55761">
        <ele>2458.8</ele>
        <time>2018-08-05T11:10:52Z</time>
      </trkpt>
      <trkpt lat="44.31885" lon="6.55765">
        <ele>2459.6</ele>
        <time>2018-08-05T11:11:22Z</time>
      </trkpt>
      <trkpt lat="44.31885" lon="6.5577">
        <ele>2460.8</ele>
        <time>2018-08-05T11:11:24Z</time>
      </trkpt>
      <trkpt lat="44.31885" lon="6.55775">
        <ele>2462.2</ele>
        <time>2018-08-05T11:11:26Z</time>
      </trkpt>
      <trkpt lat="44.31884" lon="6.5578">
        <ele>2463.6</ele>
        <time>2018-08-05T11:11:28Z</time>
      </trkpt>
      <trkpt lat="44.31882" lon="6.55785">
        <ele>2465.1</ele>
        <time>2018-08-05T11:11:30Z</time>
      </trkpt>
      <trkpt lat="44.31881" lon="6.55789">
        <ele>2466.6</ele>
        <time>2018-08-05T11:11:32Z</time>
      </trkpt>
      <trkpt lat="44.31879" lon="6.55794">
        <ele>2467.2</ele>
        <time>2018-08-05T11:11:34Z</time>
      </trkpt>
      <trkpt lat="44.31876" lon="6.55799">
        <ele>2467.7</ele>
        <time>2018-08-05T11:11:36Z</time>
      </trkpt>
      <trkpt lat="44.31874" lon="6.55804">
        <ele>2468.2</ele>
        <time>2018-08-05T11:11:38Z</time>
      </trkpt>
      <trkpt lat="44.31871" lon="6.55809">
        <ele>2468.6</ele>
        <time>2018-08-05T11:11:40Z</time>
      </trkpt>
      <trkpt lat="44.31868" lon="6.55814">
        <ele>2468.8</ele>
        <time>2018-08-05T11:11:42Z</time>
      </trkpt>
      <trkpt lat="44.31866" lon="6.55821">
        <ele>2468.9</ele>
        <time>2018-08-05T11:11:44Z</time>
      </trkpt>
      <trkpt lat="44.31863" lon="6.55826">
        <ele>2469.5</ele>
        <time>2018-08-05T11:11:46Z</time>
      </trkpt>
      <trkpt lat="44.3186" lon="6.55831">
        <ele>2470</ele>
        <time>2018-08-05T11:11:48Z</time>
      </trkpt>
      <trkpt lat="44.31857" lon="6.55835">
        <ele>2469.7</ele>
        <time>2018-08-05T11:11:50Z</time>
      </trkpt>
      <trkpt lat="44.31855" lon="6.5584">
        <ele>2469.3</ele>
        <time>2018-08-05T11:11:52Z</time>
      </trkpt>
      <trkpt lat="44.31852" lon="6.55845">
        <ele>2468.9</ele>
        <time>2018-08-05T11:11:54Z</time>
      </trkpt>
      <trkpt lat="44.3185" lon="6.5585">
        <ele>2468.5</ele>
        <time>2018-08-05T11:11:56Z</time>
      </trkpt>
      <trkpt lat="44.31847" lon="6.55854">
        <ele>2468</ele>
        <time>2018-08-05T11:11:58Z</time>
      </trkpt>
      <trkpt lat="44.31844" lon="6.55857">
        <ele>2467.5</ele>
        <time>2018-08-05T11:12:00Z</time>
      </trkpt>
      <trkpt lat="44.31842" lon="6.55862">
        <ele>2467.1</ele>
        <time>2018-08-05T11:12:02Z</time>
      </trkpt>
      <trkpt lat="44.31839" lon="6.55866">
        <ele>2466.4</ele>
        <time>2018-08-05T11:12:04Z</time>
      </trkpt>
      <trkpt lat="44.31837" lon="6.55871">
        <ele>2466.2</ele>
        <time>2018-08-05T11:12:05Z</time>
      </trkpt>
      <trkpt lat="44.31835" lon="6.55876">
        <ele>2466.1</ele>
        <time>2018-08-05T11:12:07Z</time>
      </trkpt>
      <trkpt lat="44.31833" lon="6.55879">
        <ele>2465.8</ele>
        <time>2018-08-05T11:12:09Z</time>
      </trkpt>
      <trkpt lat="44.31829" lon="6.55883">
        <ele>2465.1</ele>
        <time>2018-08-05T11:12:11Z</time>
      </trkpt>
      <trkpt lat="44.31827" lon="6.55887">
        <ele>2464.5</ele>
        <time>2018-08-05T11:12:13Z</time>
      </trkpt>
      <trkpt lat="44.31824" lon="6.55891">
        <ele>2463.8</ele>
        <time>2018-08-05T11:12:15Z</time>
      </trkpt>
      <trkpt lat="44.31822" lon="6.55895">
        <ele>2463.2</ele>
        <time>2018-08-05T11:12:17Z</time>
      </trkpt>
      <trkpt lat="44.3182" lon="6.559">
        <ele>2462.7</ele>
        <time>2018-08-05T11:12:19Z</time>
      </trkpt>
      <trkpt lat="44.31818" lon="6.55904">
        <ele>2462.2</ele>
        <time>2018-08-05T11:12:21Z</time>
      </trkpt>
      <trkpt lat="44.31815" lon="6.55909">
        <ele>2461.6</ele>
        <time>2018-08-05T11:12:23Z</time>
      </trkpt>
      <trkpt lat="44.31813" lon="6.55913">
        <ele>2461.1</ele>
        <time>2018-08-05T11:12:25Z</time>
      </trkpt>
      <trkpt lat="44.31811" lon="6.55916">
        <ele>2460.6</ele>
        <time>2018-08-05T11:12:27Z</time>
      </trkpt>
      <trkpt lat="44.31808" lon="6.55919">
        <ele>2460.3</ele>
        <time>2018-08-05T11:12:29Z</time>
      </trkpt>
      <trkpt lat="44.31805" lon="6.55923">
        <ele>2459.9</ele>
        <time>2018-08-05T11:12:31Z</time>
      </trkpt>
      <trkpt lat="44.31802" lon="6.55928">
        <ele>2459.3</ele>
        <time>2018-08-05T11:12:33Z</time>
      </trkpt>
      <trkpt lat="44.31799" lon="6.55932">
        <ele>2458.8</ele>
        <time>2018-08-05T11:12:35Z</time>
      </trkpt>
      <trkpt lat="44.31797" lon="6.55937">
        <ele>2458.3</ele>
        <time>2018-08-05T11:12:37Z</time>
      </trkpt>
      <trkpt lat="44.31795" lon="6.55942">
        <ele>2457.8</ele>
        <time>2018-08-05T11:12:39Z</time>
      </trkpt>
      <trkpt lat="44.31792" lon="6.55945">
        <ele>2457.5</ele>
        <time>2018-08-05T11:12:41Z</time>
      </trkpt>
      <trkpt lat="44.3179" lon="6.5595">
        <ele>2457.2</ele>
        <time>2018-08-05T11:12:43Z</time>
      </trkpt>
      <trkpt lat="44.31787" lon="6.55953">
        <ele>2457</ele>
        <time>2018-08-05T11:12:45Z</time>
      </trkpt>
      <trkpt lat="44.31785" lon="6.55958">
        <ele>2456.8</ele>
        <time>2018-08-05T11:12:47Z</time>
      </trkpt>
      <trkpt lat="44.31782" lon="6.55961">
        <ele>2456.5</ele>
        <time>2018-08-05T11:12:49Z</time>
      </trkpt>
      <trkpt lat="44.31778" lon="6.55964">
        <ele>2456.2</ele>
        <time>2018-08-05T11:12:51Z</time>
      </trkpt>
      <trkpt lat="44.31775" lon="6.55967">
        <ele>2456</ele>
        <time>2018-08-05T11:12:53Z</time>
      </trkpt>
      <trkpt lat="44.31772" lon="6.55968">
        <ele>2455.9</ele>
        <time>2018-08-05T11:12:54Z</time>
      </trkpt>
      <trkpt lat="44.31769" lon="6.55973">
        <ele>2455.7</ele>
        <time>2018-08-05T11:12:56Z</time>
      </trkpt>
      <trkpt lat="44.31766" lon="6.55979">
        <ele>2455.5</ele>
        <time>2018-08-05T11:12:58Z</time>
      </trkpt>
      <trkpt lat="44.31764" lon="6.55983">
        <ele>2455.4</ele>
        <time>2018-08-05T11:13:00Z</time>
      </trkpt>
      <trkpt lat="44.3176" lon="6.55987">
        <ele>2455.3</ele>
        <time>2018-08-05T11:13:02Z</time>
      </trkpt>
      <trkpt lat="44.31755" lon="6.5599">
        <ele>2454.8</ele>
        <time>2018-08-05T11:13:04Z</time>
      </trkpt>
      <trkpt lat="44.31751" lon="6.55994">
        <ele>2454.4</ele>
        <time>2018-08-05T11:13:06Z</time>
      </trkpt>
      <trkpt lat="44.31747" lon="6.55996">
        <ele>2453.9</ele>
        <time>2018-08-05T11:13:08Z</time>
      </trkpt>
      <trkpt lat="44.31743" lon="6.55999">
        <ele>2453.4</ele>
        <time>2018-08-05T11:13:10Z</time>
      </trkpt>
      <trkpt lat="44.31739" lon="6.56003">
        <ele>2452.8</ele>
        <time>2018-08-05T11:13:12Z</time>
      </trkpt>
      <trkpt lat="44.31736" lon="6.56005">
        <ele>2452.1</ele>
        <time>2018-08-05T11:13:14Z</time>
      </trkpt>
      <trkpt lat="44.31733" lon="6.56009">
        <ele>2451.4</ele>
        <time>2018-08-05T11:13:16Z</time>
      </trkpt>
      <trkpt lat="44.31731" lon="6.56014">
        <ele>2450.3</ele>
        <time>2018-08-05T11:13:18Z</time>
      </trkpt>
      <trkpt lat="44.31728" lon="6.56017">
        <ele>2449.6</ele>
        <time>2018-08-05T11:13:20Z</time>
      </trkpt>
      <trkpt lat="44.31725" lon="6.56023">
        <ele>2448.5</ele>
        <time>2018-08-05T11:13:22Z</time>
      </trkpt>
      <trkpt lat="44.31723" lon="6.56026">
        <ele>2447.9</ele>
        <time>2018-08-05T11:13:23Z</time>
      </trkpt>
      <trkpt lat="44.31722" lon="6.5603">
        <ele>2447.1</ele>
        <time>2018-08-05T11:13:24Z</time>
      </trkpt>
      <trkpt lat="44.3172" lon="6.56035">
        <ele>2445.8</ele>
        <time>2018-08-05T11:13:26Z</time>
      </trkpt>
      <trkpt lat="44.31718" lon="6.5604">
        <ele>2444.6</ele>
        <time>2018-08-05T11:13:28Z</time>
      </trkpt>
      <trkpt lat="44.31716" lon="6.56045">
        <ele>2443.2</ele>
        <time>2018-08-05T11:13:32Z</time>
      </trkpt>
      <trkpt lat="44.31714" lon="6.56049">
        <ele>2441.6</ele>
        <time>2018-08-05T11:13:34Z</time>
      </trkpt>
      <trkpt lat="44.31713" lon="6.56053">
        <ele>2440.8</ele>
        <time>2018-08-05T11:13:35Z</time>
      </trkpt>
      <trkpt lat="44.3171" lon="6.56057">
        <ele>2439.6</ele>
        <time>2018-08-05T11:13:37Z</time>
      </trkpt>
      <trkpt lat="44.31707" lon="6.56059">
        <ele>2438.7</ele>
        <time>2018-08-05T11:13:39Z</time>
      </trkpt>
      <trkpt lat="44.31705" lon="6.56062">
        <ele>2437.8</ele>
        <time>2018-08-05T11:13:41Z</time>
      </trkpt>
      <trkpt lat="44.31704" lon="6.56066">
        <ele>2436.9</ele>
        <time>2018-08-05T11:13:43Z</time>
      </trkpt>
      <trkpt lat="44.31702" lon="6.56069">
        <ele>2436.1</ele>
        <time>2018-08-05T11:13:45Z</time>
      </trkpt>
      <trkpt lat="44.31699" lon="6.56073">
        <ele>2434.9</ele>
        <time>2018-08-05T11:13:47Z</time>
      </trkpt>
      <trkpt lat="44.31697" lon="6.56076">
        <ele>2433.8</ele>
        <time>2018-08-05T11:13:49Z</time>
      </trkpt>
      <trkpt lat="44.31695" lon="6.5608">
        <ele>2432.9</ele>
        <time>2018-08-05T11:13:51Z</time>
      </trkpt>
      <trkpt lat="44.31692" lon="6.56082">
        <ele>2432</ele>
        <time>2018-08-05T11:13:57Z</time>
      </trkpt>
      <trkpt lat="44.31689" lon="6.56086">
        <ele>2430.8</ele>
        <time>2018-08-05T11:13:59Z</time>
      </trkpt>
      <trkpt lat="44.31687" lon="6.56088">
        <ele>2429.8</ele>
        <time>2018-08-05T11:14:02Z</time>
      </trkpt>
      <trkpt lat="44.31687" lon="6.56092">
        <ele>2428.8</ele>
        <time>2018-08-05T11:14:08Z</time>
      </trkpt>
      <trkpt lat="44.31685" lon="6.56095">
        <ele>2427.6</ele>
        <time>2018-08-05T11:14:14Z</time>
      </trkpt>
      <trkpt lat="44.31684" lon="6.561">
        <ele>2426.7</ele>
        <time>2018-08-05T11:14:16Z</time>
      </trkpt>
      <trkpt lat="44.31681" lon="6.56104">
        <ele>2425.8</ele>
        <time>2018-08-05T11:14:18Z</time>
      </trkpt>
      <trkpt lat="44.31679" lon="6.56108">
        <ele>2425</ele>
        <time>2018-08-05T11:14:21Z</time>
      </trkpt>
      <trkpt lat="44.31675" lon="6.56113">
        <ele>2423.9</ele>
        <time>2018-08-05T11:14:23Z</time>
      </trkpt>
      <trkpt lat="44.31672" lon="6.56117">
        <ele>2422.9</ele>
        <time>2018-08-05T11:14:25Z</time>
      </trkpt>
      <trkpt lat="44.3167" lon="6.5612">
        <ele>2422.4</ele>
        <time>2018-08-05T11:14:26Z</time>
      </trkpt>
      <trkpt lat="44.31667" lon="6.56123">
        <ele>2421.7</ele>
        <time>2018-08-05T11:14:28Z</time>
      </trkpt>
      <trkpt lat="44.31664" lon="6.56126">
        <ele>2421.2</ele>
        <time>2018-08-05T11:14:30Z</time>
      </trkpt>
      <trkpt lat="44.31662" lon="6.56129">
        <ele>2420.7</ele>
        <time>2018-08-05T11:14:32Z</time>
      </trkpt>
      <trkpt lat="44.31659" lon="6.56132">
        <ele>2420.3</ele>
        <time>2018-08-05T11:14:34Z</time>
      </trkpt>
      <trkpt lat="44.31657" lon="6.56135">
        <ele>2420</ele>
        <time>2018-08-05T11:14:36Z</time>
      </trkpt>
      <trkpt lat="44.31655" lon="6.56138">
        <ele>2419.8</ele>
        <time>2018-08-05T11:14:38Z</time>
      </trkpt>
      <trkpt lat="44.31651" lon="6.56141">
        <ele>2419.3</ele>
        <time>2018-08-05T11:14:40Z</time>
      </trkpt>
      <trkpt lat="44.31648" lon="6.56144">
        <ele>2418.8</ele>
        <time>2018-08-05T11:14:43Z</time>
      </trkpt>
      <trkpt lat="44.31645" lon="6.56148">
        <ele>2418.3</ele>
        <time>2018-08-05T11:14:45Z</time>
      </trkpt>
      <trkpt lat="44.31642" lon="6.56152">
        <ele>2417.8</ele>
        <time>2018-08-05T11:14:47Z</time>
      </trkpt>
      <trkpt lat="44.31639" lon="6.56156">
        <ele>2417.5</ele>
        <time>2018-08-05T11:14:49Z</time>
      </trkpt>
      <trkpt lat="44.31636" lon="6.56159">
        <ele>2417.2</ele>
        <time>2018-08-05T11:14:51Z</time>
      </trkpt>
      <trkpt lat="44.31634" lon="6.56163">
        <ele>2417</ele>
        <time>2018-08-05T11:14:55Z</time>
      </trkpt>
      <trkpt lat="44.31632" lon="6.56167">
        <ele>2416.9</ele>
        <time>2018-08-05T11:14:58Z</time>
      </trkpt>
      <trkpt lat="44.31627" lon="6.5617">
        <ele>2416.7</ele>
        <time>2018-08-05T11:15:00Z</time>
      </trkpt>
      <trkpt lat="44.31624" lon="6.56175">
        <ele>2416.6</ele>
        <time>2018-08-05T11:15:02Z</time>
      </trkpt>
      <trkpt lat="44.31622" lon="6.56179">
        <ele>2416.6</ele>
        <time>2018-08-05T11:15:04Z</time>
      </trkpt>
      <trkpt lat="44.31619" lon="6.56181">
        <ele>2416.6</ele>
        <time>2018-08-05T11:15:07Z</time>
      </trkpt>
      <trkpt lat="44.31616" lon="6.56185">
        <ele>2416.6</ele>
        <time>2018-08-05T11:15:09Z</time>
      </trkpt>
      <trkpt lat="44.31613" lon="6.56191">
        <ele>2416.6</ele>
        <time>2018-08-05T11:15:11Z</time>
      </trkpt>
      <trkpt lat="44.3161" lon="6.56194">
        <ele>2416.7</ele>
        <time>2018-08-05T11:15:12Z</time>
      </trkpt>
      <trkpt lat="44.31608" lon="6.56198">
        <ele>2416.8</ele>
        <time>2018-08-05T11:15:13Z</time>
      </trkpt>
      <trkpt lat="44.31604" lon="6.56202">
        <ele>2417.1</ele>
        <time>2018-08-05T11:15:14Z</time>
      </trkpt>
      <trkpt lat="44.31601" lon="6.56205">
        <ele>2417.3</ele>
        <time>2018-08-05T11:15:16Z</time>
      </trkpt>
      <trkpt lat="44.316" lon="6.56209">
        <ele>2417.5</ele>
        <time>2018-08-05T11:15:22Z</time>
      </trkpt>
      <trkpt lat="44.31598" lon="6.56213">
        <ele>2417.7</ele>
        <time>2018-08-05T11:15:26Z</time>
      </trkpt>
      <trkpt lat="44.31595" lon="6.56215">
        <ele>2417.9</ele>
        <time>2018-08-05T11:15:29Z</time>
      </trkpt>
      <trkpt lat="44.31592" lon="6.56216">
        <ele>2418.1</ele>
        <time>2018-08-05T11:15:32Z</time>
      </trkpt>
      <trkpt lat="44.3159" lon="6.56219">
        <ele>2418.3</ele>
        <time>2018-08-05T11:15:35Z</time>
      </trkpt>
      <trkpt lat="44.31588" lon="6.56224">
        <ele>2418.6</ele>
        <time>2018-08-05T11:15:40Z</time>
      </trkpt>
      <trkpt lat="44.31585" lon="6.56225">
        <ele>2418.8</ele>
        <time>2018-08-05T11:15:42Z</time>
      </trkpt>
      <trkpt lat="44.31581" lon="6.56228">
        <ele>2419.2</ele>
        <time>2018-08-05T11:15:44Z</time>
      </trkpt>
      <trkpt lat="44.31577" lon="6.56232">
        <ele>2419.6</ele>
        <time>2018-08-05T11:15:46Z</time>
      </trkpt>
      <trkpt lat="44.31574" lon="6.56235">
        <ele>2419.9</ele>
        <time>2018-08-05T11:15:47Z</time>
      </trkpt>
      <trkpt lat="44.31571" lon="6.56238">
        <ele>2420.3</ele>
        <time>2018-08-05T11:15:48Z</time>
      </trkpt>
      <trkpt lat="44.31568" lon="6.56241">
        <ele>2420.6</ele>
        <time>2018-08-05T11:15:49Z</time>
      </trkpt>
      <trkpt lat="44.31565" lon="6.56244">
        <ele>2420.9</ele>
        <time>2018-08-05T11:15:50Z</time>
      </trkpt>
      <trkpt lat="44.31561" lon="6.56245">
        <ele>2421.2</ele>
        <time>2018-08-05T11:15:51Z</time>
      </trkpt>
      <trkpt lat="44.31558" lon="6.56247">
        <ele>2421.4</ele>
        <time>2018-08-05T11:15:52Z</time>
      </trkpt>
      <trkpt lat="44.31553" lon="6.56251">
        <ele>2421.9</ele>
        <time>2018-08-05T11:15:54Z</time>
      </trkpt>
      <trkpt lat="44.3155" lon="6.56254">
        <ele>2421.9</ele>
        <time>2018-08-05T11:15:55Z</time>
      </trkpt>
      <trkpt lat="44.31547" lon="6.56255">
        <ele>2422</ele>
        <time>2018-08-05T11:15:56Z</time>
      </trkpt>
      <trkpt lat="44.31544" lon="6.56257">
        <ele>2422</ele>
        <time>2018-08-05T11:15:57Z</time>
      </trkpt>
      <trkpt lat="44.3154" lon="6.56262">
        <ele>2422</ele>
        <time>2018-08-05T11:15:59Z</time>
      </trkpt>
      <trkpt lat="44.31536" lon="6.56266">
        <ele>2421.9</ele>
        <time>2018-08-05T11:16:01Z</time>
      </trkpt>
      <trkpt lat="44.31533" lon="6.56271">
        <ele>2421.8</ele>
        <time>2018-08-05T11:16:03Z</time>
      </trkpt>
      <trkpt lat="44.31531" lon="6.56274">
        <ele>2421.8</ele>
        <time>2018-08-05T11:16:04Z</time>
      </trkpt>
      <trkpt lat="44.31531" lon="6.56281">
        <ele>2421.9</ele>
        <time>2018-08-05T11:16:06Z</time>
      </trkpt>
      <trkpt lat="44.31531" lon="6.56287">
        <ele>2421.5</ele>
        <time>2018-08-05T11:16:08Z</time>
      </trkpt>
      <trkpt lat="44.31532" lon="6.56291">
        <ele>2421.3</ele>
        <time>2018-08-05T11:16:14Z</time>
      </trkpt>
      <trkpt lat="44.31532" lon="6.56295">
        <ele>2421.5</ele>
        <time>2018-08-05T11:16:18Z</time>
      </trkpt>
      <trkpt lat="44.3153" lon="6.56299">
        <ele>2421.7</ele>
        <time>2018-08-05T11:16:21Z</time>
      </trkpt>
      <trkpt lat="44.31528" lon="6.56303">
        <ele>2421.8</ele>
        <time>2018-08-05T11:16:29Z</time>
      </trkpt>
      <trkpt lat="44.31529" lon="6.56307">
        <ele>2421.9</ele>
        <time>2018-08-05T11:16:32Z</time>
      </trkpt>
      <trkpt lat="44.31528" lon="6.56312">
        <ele>2421.9</ele>
        <time>2018-08-05T11:16:34Z</time>
      </trkpt>
      <trkpt lat="44.31527" lon="6.56315">
        <ele>2421.7</ele>
        <time>2018-08-05T11:16:35Z</time>
      </trkpt>
      <trkpt lat="44.31526" lon="6.5632">
        <ele>2421.4</ele>
        <time>2018-08-05T11:16:36Z</time>
      </trkpt>
      <trkpt lat="44.31524" lon="6.56326">
        <ele>2421</ele>
        <time>2018-08-05T11:16:37Z</time>
      </trkpt>
      <trkpt lat="44.31524" lon="6.56332">
        <ele>2420.7</ele>
        <time>2018-08-05T11:16:38Z</time>
      </trkpt>
      <trkpt lat="44.31525" lon="6.56337">
        <ele>2420.5</ele>
        <time>2018-08-05T11:16:39Z</time>
      </trkpt>
      <trkpt lat="44.31525" lon="6.56342">
        <ele>2420.3</ele>
        <time>2018-08-05T11:16:40Z</time>
      </trkpt>
      <trkpt lat="44.31526" lon="6.56348">
        <ele>2420.2</ele>
        <time>2018-08-05T11:16:42Z</time>
      </trkpt>
      <trkpt lat="44.31528" lon="6.56352">
        <ele>2420.2</ele>
        <time>2018-08-05T11:16:43Z</time>
      </trkpt>
      <trkpt lat="44.31528" lon="6.56359">
        <ele>2419.7</ele>
        <time>2018-08-05T11:16:45Z</time>
      </trkpt>
      <trkpt lat="44.31528" lon="6.56364">
        <ele>2419.4</ele>
        <time>2018-08-05T11:16:46Z</time>
      </trkpt>
      <trkpt lat="44.31529" lon="6.56368">
        <ele>2418.8</ele>
        <time>2018-08-05T11:16:47Z</time>
      </trkpt>
      <trkpt lat="44.31529" lon="6.56373">
        <ele>2418.4</ele>
        <time>2018-08-05T11:16:48Z</time>
      </trkpt>
      <trkpt lat="44.31528" lon="6.56379">
        <ele>2417.9</ele>
        <time>2018-08-05T11:16:50Z</time>
      </trkpt>
      <trkpt lat="44.31526" lon="6.56384">
        <ele>2417.5</ele>
        <time>2018-08-05T11:16:52Z</time>
      </trkpt>
      <trkpt lat="44.31525" lon="6.56391">
        <ele>2416.9</ele>
        <time>2018-08-05T11:16:54Z</time>
      </trkpt>
      <trkpt lat="44.31526" lon="6.56395">
        <ele>2416.4</ele>
        <time>2018-08-05T11:16:55Z</time>
      </trkpt>
      <trkpt lat="44.31526" lon="6.56399">
        <ele>2415.8</ele>
        <time>2018-08-05T11:16:56Z</time>
      </trkpt>
      <trkpt lat="44.31525" lon="6.56403">
        <ele>2415.3</ele>
        <time>2018-08-05T11:16:57Z</time>
      </trkpt>
      <trkpt lat="44.31523" lon="6.56407">
        <ele>2415</ele>
        <time>2018-08-05T11:16:58Z</time>
      </trkpt>
      <trkpt lat="44.31523" lon="6.56411">
        <ele>2414.7</ele>
        <time>2018-08-05T11:16:59Z</time>
      </trkpt>
      <trkpt lat="44.31523" lon="6.56415">
        <ele>2414.3</ele>
        <time>2018-08-05T11:17:00Z</time>
      </trkpt>
      <trkpt lat="44.31523" lon="6.5642">
        <ele>2413.7</ele>
        <time>2018-08-05T11:17:02Z</time>
      </trkpt>
      <trkpt lat="44.31524" lon="6.56424">
        <ele>2413.2</ele>
        <time>2018-08-05T11:17:04Z</time>
      </trkpt>
      <trkpt lat="44.31524" lon="6.56431">
        <ele>2412.3</ele>
        <time>2018-08-05T11:17:06Z</time>
      </trkpt>
      <trkpt lat="44.31524" lon="6.56435">
        <ele>2411.7</ele>
        <time>2018-08-05T11:17:07Z</time>
      </trkpt>
      <trkpt lat="44.31524" lon="6.56439">
        <ele>2411.1</ele>
        <time>2018-08-05T11:17:08Z</time>
      </trkpt>
      <trkpt lat="44.31524" lon="6.56443">
        <ele>2410.6</ele>
        <time>2018-08-05T11:17:09Z</time>
      </trkpt>
      <trkpt lat="44.31523" lon="6.56447">
        <ele>2410.1</ele>
        <time>2018-08-05T11:17:10Z</time>
      </trkpt>
      <trkpt lat="44.31523" lon="6.56454">
        <ele>2409.3</ele>
        <time>2018-08-05T11:17:12Z</time>
      </trkpt>
      <trkpt lat="44.31523" lon="6.56458">
        <ele>2409</ele>
        <time>2018-08-05T11:17:14Z</time>
      </trkpt>
      <trkpt lat="44.31522" lon="6.56462">
        <ele>2408.6</ele>
        <time>2018-08-05T11:17:15Z</time>
      </trkpt>
      <trkpt lat="44.31522" lon="6.56466">
        <ele>2408.1</ele>
        <time>2018-08-05T11:17:16Z</time>
      </trkpt>
      <trkpt lat="44.31521" lon="6.56474">
        <ele>2407.1</ele>
        <time>2018-08-05T11:17:18Z</time>
      </trkpt>
      <trkpt lat="44.31521" lon="6.56478">
        <ele>2406.7</ele>
        <time>2018-08-05T11:17:19Z</time>
      </trkpt>
      <trkpt lat="44.31519" lon="6.56483">
        <ele>2406.1</ele>
        <time>2018-08-05T11:17:20Z</time>
      </trkpt>
      <trkpt lat="44.31518" lon="6.56487">
        <ele>2405.7</ele>
        <time>2018-08-05T11:17:21Z</time>
      </trkpt>
      <trkpt lat="44.31517" lon="6.56494">
        <ele>2405.2</ele>
        <time>2018-08-05T11:17:22Z</time>
      </trkpt>
      <trkpt lat="44.31515" lon="6.56499">
        <ele>2404.7</ele>
        <time>2018-08-05T11:17:23Z</time>
      </trkpt>
      <trkpt lat="44.31513" lon="6.56505">
        <ele>2403.9</ele>
        <time>2018-08-05T11:17:24Z</time>
      </trkpt>
      <trkpt lat="44.31511" lon="6.56511">
        <ele>2403.4</ele>
        <time>2018-08-05T11:17:25Z</time>
      </trkpt>
      <trkpt lat="44.3151" lon="6.56516">
        <ele>2403</ele>
        <time>2018-08-05T11:17:26Z</time>
      </trkpt>
      <trkpt lat="44.31508" lon="6.56519">
        <ele>2402.6</ele>
        <time>2018-08-05T11:17:27Z</time>
      </trkpt>
      <trkpt lat="44.31506" lon="6.56524">
        <ele>2402.2</ele>
        <time>2018-08-05T11:17:28Z</time>
      </trkpt>
      <trkpt lat="44.31505" lon="6.5653">
        <ele>2401.6</ele>
        <time>2018-08-05T11:17:30Z</time>
      </trkpt>
      <trkpt lat="44.31504" lon="6.56534">
        <ele>2401.4</ele>
        <time>2018-08-05T11:17:31Z</time>
      </trkpt>
      <trkpt lat="44.31503" lon="6.56537">
        <ele>2401.1</ele>
        <time>2018-08-05T11:17:32Z</time>
      </trkpt>
      <trkpt lat="44.31501" lon="6.56541">
        <ele>2400.8</ele>
        <time>2018-08-05T11:17:33Z</time>
      </trkpt>
      <trkpt lat="44.31498" lon="6.56548">
        <ele>2399.8</ele>
        <time>2018-08-05T11:17:35Z</time>
      </trkpt>
      <trkpt lat="44.31496" lon="6.56553">
        <ele>2399.3</ele>
        <time>2018-08-05T11:17:36Z</time>
      </trkpt>
      <trkpt lat="44.31495" lon="6.56557">
        <ele>2398.9</ele>
        <time>2018-08-05T11:17:37Z</time>
      </trkpt>
      <trkpt lat="44.31492" lon="6.56564">
        <ele>2398</ele>
        <time>2018-08-05T11:17:39Z</time>
      </trkpt>
      <trkpt lat="44.31491" lon="6.56568">
        <ele>2397.4</ele>
        <time>2018-08-05T11:17:40Z</time>
      </trkpt>
      <trkpt lat="44.3149" lon="6.56572">
        <ele>2396.9</ele>
        <time>2018-08-05T11:17:41Z</time>
      </trkpt>
      <trkpt lat="44.31488" lon="6.56576">
        <ele>2396.6</ele>
        <time>2018-08-05T11:17:42Z</time>
      </trkpt>
      <trkpt lat="44.31487" lon="6.56581">
        <ele>2396.2</ele>
        <time>2018-08-05T11:17:43Z</time>
      </trkpt>
      <trkpt lat="44.31486" lon="6.56587">
        <ele>2395.7</ele>
        <time>2018-08-05T11:17:44Z</time>
      </trkpt>
      <trkpt lat="44.31484" lon="6.56592">
        <ele>2395.3</ele>
        <time>2018-08-05T11:17:45Z</time>
      </trkpt>
      <trkpt lat="44.31483" lon="6.56598">
        <ele>2395</ele>
        <time>2018-08-05T11:17:46Z</time>
      </trkpt>
      <trkpt lat="44.31483" lon="6.56603">
        <ele>2394.8</ele>
        <time>2018-08-05T11:17:47Z</time>
      </trkpt>
      <trkpt lat="44.31481" lon="6.56607">
        <ele>2394.7</ele>
        <time>2018-08-05T11:17:48Z</time>
      </trkpt>
      <trkpt lat="44.31478" lon="6.56612">
        <ele>2394.5</ele>
        <time>2018-08-05T11:17:50Z</time>
      </trkpt>
      <trkpt lat="44.31475" lon="6.56618">
        <ele>2394.5</ele>
        <time>2018-08-05T11:17:52Z</time>
      </trkpt>
      <trkpt lat="44.31473" lon="6.56623">
        <ele>2394.7</ele>
        <time>2018-08-05T11:17:54Z</time>
      </trkpt>
      <trkpt lat="44.31469" lon="6.56629">
        <ele>2394.9</ele>
        <time>2018-08-05T11:17:56Z</time>
      </trkpt>
      <trkpt lat="44.31467" lon="6.56632">
        <ele>2395.1</ele>
        <time>2018-08-05T11:17:58Z</time>
      </trkpt>
      <trkpt lat="44.31465" lon="6.56635">
        <ele>2395.3</ele>
        <time>2018-08-05T11:18:04Z</time>
      </trkpt>
      <trkpt lat="44.31465" lon="6.56639">
        <ele>2395.6</ele>
        <time>2018-08-05T11:18:07Z</time>
      </trkpt>
      <trkpt lat="44.31463" lon="6.56641">
        <ele>2396</ele>
        <time>2018-08-05T11:18:11Z</time>
      </trkpt>
      <trkpt lat="44.31462" lon="6.56645">
        <ele>2396.4</ele>
        <time>2018-08-05T11:18:52Z</time>
      </trkpt>
      <trkpt lat="44.3146" lon="6.56648">
        <ele>2396.9</ele>
        <time>2018-08-05T11:18:54Z</time>
      </trkpt>
      <trkpt lat="44.31461" lon="6.56652">
        <ele>2397.3</ele>
        <time>2018-08-05T11:18:59Z</time>
      </trkpt>
      <trkpt lat="44.31458" lon="6.56655">
        <ele>2397.8</ele>
        <time>2018-08-05T11:19:04Z</time>
      </trkpt>
      <trkpt lat="44.31456" lon="6.56657">
        <ele>2398.3</ele>
        <time>2018-08-05T11:19:07Z</time>
      </trkpt>
      <trkpt lat="44.31458" lon="6.5666">
        <ele>2398.8</ele>
        <time>2018-08-05T11:19:31Z</time>
      </trkpt>
      <trkpt lat="44.31457" lon="6.56663">
        <ele>2399.3</ele>
        <time>2018-08-05T11:19:34Z</time>
      </trkpt>
      <trkpt lat="44.31456" lon="6.56667">
        <ele>2399.7</ele>
        <time>2018-08-05T11:19:43Z</time>
      </trkpt>
      <trkpt lat="44.31455" lon="6.56672">
        <ele>2400.5</ele>
        <time>2018-08-05T11:19:53Z</time>
      </trkpt>
      <trkpt lat="44.31454" lon="6.56676">
        <ele>2401.4</ele>
        <time>2018-08-05T11:20:00Z</time>
      </trkpt>
      <trkpt lat="44.31453" lon="6.56681">
        <ele>2402.5</ele>
        <time>2018-08-05T11:20:03Z</time>
      </trkpt>
      <trkpt lat="44.31449" lon="6.56683">
        <ele>2403.5</ele>
        <time>2018-08-05T11:20:06Z</time>
      </trkpt>
      <trkpt lat="44.31452" lon="6.56681">
        <ele>2403</ele>
        <time>2018-08-05T11:20:24Z</time>
      </trkpt>
      <trkpt lat="44.31454" lon="6.56679">
        <ele>2402.3</ele>
        <time>2018-08-05T11:20:27Z</time>
      </trkpt>
      <trkpt lat="44.31457" lon="6.56679">
        <ele>2401.4</ele>
        <time>2018-08-05T11:20:30Z</time>
      </trkpt>
      <trkpt lat="44.31458" lon="6.56675">
        <ele>2400.5</ele>
        <time>2018-08-05T11:20:44Z</time>
      </trkpt>
      <trkpt lat="44.31457" lon="6.56672">
        <ele>2399.9</ele>
        <time>2018-08-05T11:21:03Z</time>
      </trkpt>
      <trkpt lat="44.31457" lon="6.56667">
        <ele>2399.4</ele>
        <time>2018-08-05T11:21:09Z</time>
      </trkpt>
      <trkpt lat="44.31457" lon="6.56663">
        <ele>2398.9</ele>
        <time>2018-08-05T11:21:13Z</time>
      </trkpt>
      <trkpt lat="44.31455" lon="6.5666">
        <ele>2398.4</ele>
        <time>2018-08-05T11:21:58Z</time>
      </trkpt>
      <trkpt lat="44.31457" lon="6.56656">
        <ele>2397.9</ele>
        <time>2018-08-05T11:23:32Z</time>
      </trkpt>
      <trkpt lat="44.3146" lon="6.56654">
        <ele>2397.3</ele>
        <time>2018-08-05T11:23:38Z</time>
      </trkpt>
      <trkpt lat="44.31461" lon="6.5665">
        <ele>2396.9</ele>
        <time>2018-08-05T11:23:42Z</time>
      </trkpt>
      <trkpt lat="44.31459" lon="6.56647">
        <ele>2396.4</ele>
        <time>2018-08-05T11:23:51Z</time>
      </trkpt>
      <trkpt lat="44.31462" lon="6.56645">
        <ele>2396</ele>
        <time>2018-08-05T11:23:58Z</time>
      </trkpt>
      <trkpt lat="44.31465" lon="6.56643">
        <ele>2395.7</ele>
        <time>2018-08-05T11:24:00Z</time>
      </trkpt>
      <trkpt lat="44.31466" lon="6.56638">
        <ele>2395.3</ele>
        <time>2018-08-05T11:24:02Z</time>
      </trkpt>
      <trkpt lat="44.31468" lon="6.56633">
        <ele>2395.1</ele>
        <time>2018-08-05T11:24:04Z</time>
      </trkpt>
      <trkpt lat="44.31471" lon="6.56628">
        <ele>2394.8</ele>
        <time>2018-08-05T11:24:06Z</time>
      </trkpt>
      <trkpt lat="44.31473" lon="6.56625">
        <ele>2394.7</ele>
        <time>2018-08-05T11:24:07Z</time>
      </trkpt>
      <trkpt lat="44.31474" lon="6.56622">
        <ele>2394.6</ele>
        <time>2018-08-05T11:24:08Z</time>
      </trkpt>
      <trkpt lat="44.31476" lon="6.56618">
        <ele>2394.5</ele>
        <time>2018-08-05T11:24:09Z</time>
      </trkpt>
      <trkpt lat="44.31478" lon="6.56614">
        <ele>2394.5</ele>
        <time>2018-08-05T11:24:10Z</time>
      </trkpt>
      <trkpt lat="44.3148" lon="6.56611">
        <ele>2394.6</ele>
        <time>2018-08-05T11:24:11Z</time>
      </trkpt>
      <trkpt lat="44.31481" lon="6.56608">
        <ele>2394.7</ele>
        <time>2018-08-05T11:24:12Z</time>
      </trkpt>
      <trkpt lat="44.31482" lon="6.56604">
        <ele>2394.8</ele>
        <time>2018-08-05T11:24:13Z</time>
      </trkpt>
      <trkpt lat="44.31484" lon="6.566">
        <ele>2394.9</ele>
        <time>2018-08-05T11:24:14Z</time>
      </trkpt>
      <trkpt lat="44.31485" lon="6.56596">
        <ele>2395</ele>
        <time>2018-08-05T11:24:15Z</time>
      </trkpt>
      <trkpt lat="44.31486" lon="6.56593">
        <ele>2395.1</ele>
        <time>2018-08-05T11:24:16Z</time>
      </trkpt>
      <trkpt lat="44.31488" lon="6.56585">
        <ele>2395.8</ele>
        <time>2018-08-05T11:24:18Z</time>
      </trkpt>
      <trkpt lat="44.31489" lon="6.56579">
        <ele>2396.3</ele>
        <time>2018-08-05T11:24:20Z</time>
      </trkpt>
      <trkpt lat="44.31491" lon="6.56574">
        <ele>2396.6</ele>
        <time>2018-08-05T11:24:22Z</time>
      </trkpt>
      <trkpt lat="44.31493" lon="6.56568">
        <ele>2397.1</ele>
        <time>2018-08-05T11:24:24Z</time>
      </trkpt>
      <trkpt lat="44.31494" lon="6.56563">
        <ele>2397.8</ele>
        <time>2018-08-05T11:24:26Z</time>
      </trkpt>
      <trkpt lat="44.31496" lon="6.56558">
        <ele>2398.4</ele>
        <time>2018-08-05T11:24:28Z</time>
      </trkpt>
      <trkpt lat="44.31497" lon="6.56554">
        <ele>2398.8</ele>
        <time>2018-08-05T11:24:30Z</time>
      </trkpt>
      <trkpt lat="44.31497" lon="6.5655">
        <ele>2399.2</ele>
        <time>2018-08-05T11:24:32Z</time>
      </trkpt>
      <trkpt lat="44.31499" lon="6.56547">
        <ele>2399.5</ele>
        <time>2018-08-05T11:24:42Z</time>
      </trkpt>
      <trkpt lat="44.31502" lon="6.56544">
        <ele>2400</ele>
        <time>2018-08-05T11:24:46Z</time>
      </trkpt>
      <trkpt lat="44.31499" lon="6.56542">
        <ele>2400.1</ele>
        <time>2018-08-05T11:25:33Z</time>
      </trkpt>
      <trkpt lat="44.31496" lon="6.56542">
        <ele>2399.6</ele>
        <time>2018-08-05T11:25:36Z</time>
      </trkpt>
      <trkpt lat="44.31495" lon="6.56547">
        <ele>2399.3</ele>
        <time>2018-08-05T11:25:40Z</time>
      </trkpt>
      <trkpt lat="44.31492" lon="6.5655">
        <ele>2398.9</ele>
        <time>2018-08-05T11:25:43Z</time>
      </trkpt>
      <trkpt lat="44.3149" lon="6.56552">
        <ele>2398.6</ele>
        <time>2018-08-05T11:25:45Z</time>
      </trkpt>
      <trkpt lat="44.31487" lon="6.56554">
        <ele>2398.2</ele>
        <time>2018-08-05T11:25:49Z</time>
      </trkpt>
      <trkpt lat="44.31485" lon="6.56558">
        <ele>2397.6</ele>
        <time>2018-08-05T11:25:54Z</time>
      </trkpt>
      <trkpt lat="44.31483" lon="6.56562">
        <ele>2397.1</ele>
        <time>2018-08-05T11:26:00Z</time>
      </trkpt>
      <trkpt lat="44.31481" lon="6.56565">
        <ele>2396.8</ele>
        <time>2018-08-05T11:26:03Z</time>
      </trkpt>
      <trkpt lat="44.31479" lon="6.56566">
        <ele>2396.6</ele>
        <time>2018-08-05T11:26:05Z</time>
      </trkpt>
      <trkpt lat="44.31475" lon="6.56568">
        <ele>2396.3</ele>
        <time>2018-08-05T11:26:08Z</time>
      </trkpt>
      <trkpt lat="44.31472" lon="6.56569">
        <ele>2395.9</ele>
        <time>2018-08-05T11:26:11Z</time>
      </trkpt>
      <trkpt lat="44.3147" lon="6.56574">
        <ele>2395.6</ele>
        <time>2018-08-05T11:26:15Z</time>
      </trkpt>
      <trkpt lat="44.31468" lon="6.56577">
        <ele>2395</ele>
        <time>2018-08-05T11:26:19Z</time>
      </trkpt>
      <trkpt lat="44.31466" lon="6.56578">
        <ele>2394.6</ele>
        <time>2018-08-05T11:26:23Z</time>
      </trkpt>
      <trkpt lat="44.31464" lon="6.56582">
        <ele>2394.5</ele>
        <time>2018-08-05T11:26:26Z</time>
      </trkpt>
      <trkpt lat="44.31461" lon="6.56584">
        <ele>2394</ele>
        <time>2018-08-05T11:26:29Z</time>
      </trkpt>
      <trkpt lat="44.31459" lon="6.56586">
        <ele>2393.6</ele>
        <time>2018-08-05T11:26:36Z</time>
      </trkpt>
      <trkpt lat="44.31457" lon="6.5659">
        <ele>2393.1</ele>
        <time>2018-08-05T11:26:47Z</time>
      </trkpt>
      <trkpt lat="44.31454" lon="6.56591">
        <ele>2392.6</ele>
        <time>2018-08-05T11:26:55Z</time>
      </trkpt>
      <trkpt lat="44.31452" lon="6.56587">
        <ele>2392.5</ele>
        <time>2018-08-05T11:27:10Z</time>
      </trkpt>
      <trkpt lat="44.31454" lon="6.56583">
        <ele>2392.4</ele>
        <time>2018-08-05T11:27:13Z</time>
      </trkpt>
      <trkpt lat="44.31454" lon="6.56579">
        <ele>2392.4</ele>
        <time>2018-08-05T11:27:16Z</time>
      </trkpt>
      <trkpt lat="44.31452" lon="6.56575">
        <ele>2392.3</ele>
        <time>2018-08-05T11:27:21Z</time>
      </trkpt>
      <trkpt lat="44.31453" lon="6.56572">
        <ele>2392.2</ele>
        <time>2018-08-05T11:27:30Z</time>
      </trkpt>
      <trkpt lat="44.31453" lon="6.56567">
        <ele>2392.1</ele>
        <time>2018-08-05T11:27:33Z</time>
      </trkpt>
      <trkpt lat="44.31453" lon="6.56564">
        <ele>2392.1</ele>
        <time>2018-08-05T11:27:41Z</time>
      </trkpt>
      <trkpt lat="44.3145" lon="6.56561">
        <ele>2391.1</ele>
        <time>2018-08-05T11:27:46Z</time>
      </trkpt>
      <trkpt lat="44.3145" lon="6.56556">
        <ele>2390.9</ele>
        <time>2018-08-05T11:27:50Z</time>
      </trkpt>
      <trkpt lat="44.3145" lon="6.56552">
        <ele>2390.8</ele>
        <time>2018-08-05T11:27:53Z</time>
      </trkpt>
      <trkpt lat="44.31454" lon="6.56553">
        <ele>2391.8</ele>
        <time>2018-08-05T11:28:07Z</time>
      </trkpt>
      <trkpt lat="44.31453" lon="6.56549">
        <ele>2391.7</ele>
        <time>2018-08-05T11:28:17Z</time>
      </trkpt>
      <trkpt lat="44.31452" lon="6.56544">
        <ele>2391.6</ele>
        <time>2018-08-05T11:28:24Z</time>
      </trkpt>
      <trkpt lat="44.3145" lon="6.5654">
        <ele>2390.4</ele>
        <time>2018-08-05T11:28:28Z</time>
      </trkpt>
      <trkpt lat="44.31449" lon="6.56536">
        <ele>2390.4</ele>
        <time>2018-08-05T11:28:31Z</time>
      </trkpt>
      <trkpt lat="44.31449" lon="6.56532">
        <ele>2390.3</ele>
        <time>2018-08-05T11:28:36Z</time>
      </trkpt>
      <trkpt lat="44.31447" lon="6.56528">
        <ele>2388.8</ele>
        <time>2018-08-05T11:28:41Z</time>
      </trkpt>
      <trkpt lat="44.31445" lon="6.56524">
        <ele>2387.2</ele>
        <time>2018-08-05T11:28:46Z</time>
      </trkpt>
      <trkpt lat="44.31444" lon="6.56519">
        <ele>2386.9</ele>
        <time>2018-08-05T11:28:49Z</time>
      </trkpt>
      <trkpt lat="44.31441" lon="6.56515">
        <ele>2385.1</ele>
        <time>2018-08-05T11:28:53Z</time>
      </trkpt>
      <trkpt lat="44.31439" lon="6.56511">
        <ele>2383</ele>
        <time>2018-08-05T11:28:57Z</time>
      </trkpt>
      <trkpt lat="44.3144" lon="6.56506">
        <ele>2384.4</ele>
        <time>2018-08-05T11:29:02Z</time>
      </trkpt>
      <trkpt lat="44.31439" lon="6.56503">
        <ele>2382.3</ele>
        <time>2018-08-05T11:29:07Z</time>
      </trkpt>
      <trkpt lat="44.31437" lon="6.565">
        <ele>2381.9</ele>
        <time>2018-08-05T11:29:09Z</time>
      </trkpt>
      <trkpt lat="44.31437" lon="6.56495">
        <ele>2381.5</ele>
        <time>2018-08-05T11:29:13Z</time>
      </trkpt>
      <trkpt lat="44.31436" lon="6.56491">
        <ele>2381.1</ele>
        <time>2018-08-05T11:29:24Z</time>
      </trkpt>
      <trkpt lat="44.31438" lon="6.56487">
        <ele>2380.8</ele>
        <time>2018-08-05T11:29:30Z</time>
      </trkpt>
      <trkpt lat="44.3144" lon="6.56483">
        <ele>2382.4</ele>
        <time>2018-08-05T11:29:34Z</time>
      </trkpt>
      <trkpt lat="44.31439" lon="6.5648">
        <ele>2382.2</ele>
        <time>2018-08-05T11:29:38Z</time>
      </trkpt>
      <trkpt lat="44.31441" lon="6.56476">
        <ele>2382.1</ele>
        <time>2018-08-05T11:29:43Z</time>
      </trkpt>
      <trkpt lat="44.31441" lon="6.56473">
        <ele>2381.9</ele>
        <time>2018-08-05T11:29:49Z</time>
      </trkpt>
      <trkpt lat="44.31439" lon="6.5647">
        <ele>2379.7</ele>
        <time>2018-08-05T11:29:51Z</time>
      </trkpt>
      <trkpt lat="44.31439" lon="6.56466">
        <ele>2379.5</ele>
        <time>2018-08-05T11:29:54Z</time>
      </trkpt>
      <trkpt lat="44.31437" lon="6.56463">
        <ele>2379.4</ele>
        <time>2018-08-05T11:30:02Z</time>
      </trkpt>
      <trkpt lat="44.31435" lon="6.5646">
        <ele>2377.3</ele>
        <time>2018-08-05T11:30:07Z</time>
      </trkpt>
      <trkpt lat="44.31434" lon="6.56456">
        <ele>2377.2</ele>
        <time>2018-08-05T11:30:13Z</time>
      </trkpt>
      <trkpt lat="44.31433" lon="6.56451">
        <ele>2377.2</ele>
        <time>2018-08-05T11:30:17Z</time>
      </trkpt>
      <trkpt lat="44.31432" lon="6.56447">
        <ele>2375.2</ele>
        <time>2018-08-05T11:30:21Z</time>
      </trkpt>
      <trkpt lat="44.3143" lon="6.56443">
        <ele>2375.2</ele>
        <time>2018-08-05T11:30:28Z</time>
      </trkpt>
      <trkpt lat="44.31431" lon="6.56439">
        <ele>2375.3</ele>
        <time>2018-08-05T11:30:32Z</time>
      </trkpt>
      <trkpt lat="44.3143" lon="6.56435">
        <ele>2373.4</ele>
        <time>2018-08-05T11:30:38Z</time>
      </trkpt>
      <trkpt lat="44.31427" lon="6.56432">
        <ele>2371.5</ele>
        <time>2018-08-05T11:30:43Z</time>
      </trkpt>
      <trkpt lat="44.31425" lon="6.56429">
        <ele>2371.6</ele>
        <time>2018-08-05T11:30:47Z</time>
      </trkpt>
      <trkpt lat="44.31427" lon="6.56426">
        <ele>2373.6</ele>
        <time>2018-08-05T11:30:52Z</time>
      </trkpt>
      <trkpt lat="44.31425" lon="6.56424">
        <ele>2371.8</ele>
        <time>2018-08-05T11:30:58Z</time>
      </trkpt>
      <trkpt lat="44.31424" lon="6.56419">
        <ele>2369.8</ele>
        <time>2018-08-05T11:31:02Z</time>
      </trkpt>
      <trkpt lat="44.31426" lon="6.56415">
        <ele>2372.1</ele>
        <time>2018-08-05T11:31:06Z</time>
      </trkpt>
      <trkpt lat="44.31424" lon="6.56412">
        <ele>2372.1</ele>
        <time>2018-08-05T11:31:12Z</time>
      </trkpt>
      <trkpt lat="44.31421" lon="6.5641">
        <ele>2370.2</ele>
        <time>2018-08-05T11:31:17Z</time>
      </trkpt>
      <trkpt lat="44.31421" lon="6.56406">
        <ele>2370.4</ele>
        <time>2018-08-05T11:31:20Z</time>
      </trkpt>
      <trkpt lat="44.31421" lon="6.56402">
        <ele>2370.6</ele>
        <time>2018-08-05T11:31:23Z</time>
      </trkpt>
      <trkpt lat="44.31419" lon="6.56398">
        <ele>2368.6</ele>
        <time>2018-08-05T11:31:29Z</time>
      </trkpt>
      <trkpt lat="44.31418" lon="6.56394">
        <ele>2366.4</ele>
        <time>2018-08-05T11:31:33Z</time>
      </trkpt>
      <trkpt lat="44.31416" lon="6.56389">
        <ele>2366.7</ele>
        <time>2018-08-05T11:31:37Z</time>
      </trkpt>
      <trkpt lat="44.31413" lon="6.56388">
        <ele>2364.3</ele>
        <time>2018-08-05T11:31:40Z</time>
      </trkpt>
      <trkpt lat="44.3141" lon="6.56387">
        <ele>2362</ele>
        <time>2018-08-05T11:31:42Z</time>
      </trkpt>
      <trkpt lat="44.31407" lon="6.56387">
        <ele>2359.9</ele>
        <time>2018-08-05T11:31:47Z</time>
      </trkpt>
      <trkpt lat="44.31404" lon="6.56387">
        <ele>2358</ele>
        <time>2018-08-05T11:31:57Z</time>
      </trkpt>
      <trkpt lat="44.31401" lon="6.56389">
        <ele>2356.2</ele>
        <time>2018-08-05T11:31:59Z</time>
      </trkpt>
      <trkpt lat="44.31398" lon="6.5639">
        <ele>2353.9</ele>
        <time>2018-08-05T11:32:01Z</time>
      </trkpt>
      <trkpt lat="44.31394" lon="6.56392">
        <ele>2352</ele>
        <time>2018-08-05T11:32:03Z</time>
      </trkpt>
      <trkpt lat="44.31389" lon="6.56395">
        <ele>2347.6</ele>
        <time>2018-08-05T11:32:05Z</time>
      </trkpt>
      <trkpt lat="44.31387" lon="6.56398">
        <ele>2347.6</ele>
        <time>2018-08-05T11:32:07Z</time>
      </trkpt>
      <trkpt lat="44.31384" lon="6.56401">
        <ele>2345.3</ele>
        <time>2018-08-05T11:32:09Z</time>
      </trkpt>
      <trkpt lat="44.31381" lon="6.56403">
        <ele>2343.3</ele>
        <time>2018-08-05T11:32:11Z</time>
      </trkpt>
      <trkpt lat="44.31377" lon="6.56404">
        <ele>2340.3</ele>
        <time>2018-08-05T11:32:13Z</time>
      </trkpt>
      <trkpt lat="44.31374" lon="6.56404">
        <ele>2338.9</ele>
        <time>2018-08-05T11:32:15Z</time>
      </trkpt>
      <trkpt lat="44.31369" lon="6.56406">
        <ele>2337.4</ele>
        <time>2018-08-05T11:32:17Z</time>
      </trkpt>
      <trkpt lat="44.31366" lon="6.56407">
        <ele>2335.9</ele>
        <time>2018-08-05T11:32:18Z</time>
      </trkpt>
      <trkpt lat="44.31363" lon="6.56406">
        <ele>2334.3</ele>
        <time>2018-08-05T11:32:19Z</time>
      </trkpt>
      <trkpt lat="44.31359" lon="6.56409">
        <ele>2331</ele>
        <time>2018-08-05T11:32:21Z</time>
      </trkpt>
      <trkpt lat="44.31354" lon="6.5641">
        <ele>2329.7</ele>
        <time>2018-08-05T11:32:23Z</time>
      </trkpt>
      <trkpt lat="44.3135" lon="6.56411">
        <ele>2327.4</ele>
        <time>2018-08-05T11:32:25Z</time>
      </trkpt>
      <trkpt lat="44.31346" lon="6.56411">
        <ele>2326.3</ele>
        <time>2018-08-05T11:32:27Z</time>
      </trkpt>
      <trkpt lat="44.3134" lon="6.56411">
        <ele>2324.2</ele>
        <time>2018-08-05T11:32:30Z</time>
      </trkpt>
      <trkpt lat="44.31336" lon="6.56414">
        <ele>2322.5</ele>
        <time>2018-08-05T11:32:31Z</time>
      </trkpt>
      <trkpt lat="44.31333" lon="6.56414">
        <ele>2321.4</ele>
        <time>2018-08-05T11:32:32Z</time>
      </trkpt>
      <trkpt lat="44.3133" lon="6.56415">
        <ele>2320.2</ele>
        <time>2018-08-05T11:32:33Z</time>
      </trkpt>
      <trkpt lat="44.31327" lon="6.56417">
        <ele>2318.5</ele>
        <time>2018-08-05T11:32:35Z</time>
      </trkpt>
      <trkpt lat="44.31323" lon="6.56416">
        <ele>2317.5</ele>
        <time>2018-08-05T11:32:37Z</time>
      </trkpt>
      <trkpt lat="44.31318" lon="6.56419">
        <ele>2315.6</ele>
        <time>2018-08-05T11:32:39Z</time>
      </trkpt>
      <trkpt lat="44.31313" lon="6.5642">
        <ele>2313.7</ele>
        <time>2018-08-05T11:32:41Z</time>
      </trkpt>
      <trkpt lat="44.3131" lon="6.56421">
        <ele>2313</ele>
        <time>2018-08-05T11:32:42Z</time>
      </trkpt>
      <trkpt lat="44.31308" lon="6.56423">
        <ele>2312</ele>
        <time>2018-08-05T11:32:43Z</time>
      </trkpt>
      <trkpt lat="44.31303" lon="6.56425">
        <ele>2309</ele>
        <time>2018-08-05T11:32:45Z</time>
      </trkpt>
      <trkpt lat="44.313" lon="6.56426">
        <ele>2307.9</ele>
        <time>2018-08-05T11:32:46Z</time>
      </trkpt>
      <trkpt lat="44.31297" lon="6.56426">
        <ele>2306.9</ele>
        <time>2018-08-05T11:32:47Z</time>
      </trkpt>
      <trkpt lat="44.31293" lon="6.56428">
        <ele>2306</ele>
        <time>2018-08-05T11:32:49Z</time>
      </trkpt>
      <trkpt lat="44.3129" lon="6.56429">
        <ele>2304.5</ele>
        <time>2018-08-05T11:32:50Z</time>
      </trkpt>
      <trkpt lat="44.31287" lon="6.56432">
        <ele>2303.6</ele>
        <time>2018-08-05T11:32:51Z</time>
      </trkpt>
      <trkpt lat="44.31284" lon="6.56431">
        <ele>2302.6</ele>
        <time>2018-08-05T11:32:52Z</time>
      </trkpt>
      <trkpt lat="44.31281" lon="6.56433">
        <ele>2301.6</ele>
        <time>2018-08-05T11:32:53Z</time>
      </trkpt>
      <trkpt lat="44.31277" lon="6.56434">
        <ele>2299.9</ele>
        <time>2018-08-05T11:32:55Z</time>
      </trkpt>
      <trkpt lat="44.31273" lon="6.56433">
        <ele>2297.9</ele>
        <time>2018-08-05T11:32:57Z</time>
      </trkpt>
      <trkpt lat="44.31268" lon="6.56434">
        <ele>2297</ele>
        <time>2018-08-05T11:32:59Z</time>
      </trkpt>
      <trkpt lat="44.31266" lon="6.56434">
        <ele>2296.1</ele>
        <time>2018-08-05T11:33:01Z</time>
      </trkpt>
      <trkpt lat="44.31263" lon="6.56434">
        <ele>2295.2</ele>
        <time>2018-08-05T11:33:04Z</time>
      </trkpt>
      <trkpt lat="44.3126" lon="6.56436">
        <ele>2294.2</ele>
        <time>2018-08-05T11:33:07Z</time>
      </trkpt>
      <trkpt lat="44.31257" lon="6.56436">
        <ele>2293.2</ele>
        <time>2018-08-05T11:33:09Z</time>
      </trkpt>
      <trkpt lat="44.31252" lon="6.56436">
        <ele>2292.1</ele>
        <time>2018-08-05T11:33:11Z</time>
      </trkpt>
      <trkpt lat="44.31248" lon="6.56436">
        <ele>2289.9</ele>
        <time>2018-08-05T11:33:13Z</time>
      </trkpt>
      <trkpt lat="44.31244" lon="6.56435">
        <ele>2288.9</ele>
        <time>2018-08-05T11:33:15Z</time>
      </trkpt>
      <trkpt lat="44.31241" lon="6.56434">
        <ele>2287.8</ele>
        <time>2018-08-05T11:33:17Z</time>
      </trkpt>
      <trkpt lat="44.31237" lon="6.56435">
        <ele>2286.8</ele>
        <time>2018-08-05T11:33:20Z</time>
      </trkpt>
      <trkpt lat="44.31234" lon="6.56435">
        <ele>2285.8</ele>
        <time>2018-08-05T11:33:23Z</time>
      </trkpt>
      <trkpt lat="44.31231" lon="6.56436">
        <ele>2284.8</ele>
        <time>2018-08-05T11:33:25Z</time>
      </trkpt>
      <trkpt lat="44.31227" lon="6.56435">
        <ele>2283.8</ele>
        <time>2018-08-05T11:33:27Z</time>
      </trkpt>
      <trkpt lat="44.31224" lon="6.56434">
        <ele>2281.6</ele>
        <time>2018-08-05T11:33:29Z</time>
      </trkpt>
      <trkpt lat="44.31221" lon="6.56435">
        <ele>2281.6</ele>
        <time>2018-08-05T11:33:32Z</time>
      </trkpt>
      <trkpt lat="44.31218" lon="6.56436">
        <ele>2280.5</ele>
        <time>2018-08-05T11:33:36Z</time>
      </trkpt>
      <trkpt lat="44.31215" lon="6.56437">
        <ele>2278.8</ele>
        <time>2018-08-05T11:33:38Z</time>
      </trkpt>
      <trkpt lat="44.31213" lon="6.56443">
        <ele>2277.1</ele>
        <time>2018-08-05T11:33:40Z</time>
      </trkpt>
      <trkpt lat="44.31211" lon="6.56447">
        <ele>2275.4</ele>
        <time>2018-08-05T11:33:42Z</time>
      </trkpt>
      <trkpt lat="44.31209" lon="6.56453">
        <ele>2274.8</ele>
        <time>2018-08-05T11:33:44Z</time>
      </trkpt>
      <trkpt lat="44.31207" lon="6.56458">
        <ele>2273.2</ele>
        <time>2018-08-05T11:33:47Z</time>
      </trkpt>
      <trkpt lat="44.31205" lon="6.56465">
        <ele>2270.9</ele>
        <time>2018-08-05T11:33:49Z</time>
      </trkpt>
      <trkpt lat="44.31202" lon="6.56466">
        <ele>2269.9</ele>
        <time>2018-08-05T11:33:50Z</time>
      </trkpt>
      <trkpt lat="44.31197" lon="6.56467">
        <ele>2268.8</ele>
        <time>2018-08-05T11:33:52Z</time>
      </trkpt>
      <trkpt lat="44.31193" lon="6.56466">
        <ele>2266.5</ele>
        <time>2018-08-05T11:33:54Z</time>
      </trkpt>
      <trkpt lat="44.31188" lon="6.56465">
        <ele>2265.3</ele>
        <time>2018-08-05T11:33:56Z</time>
      </trkpt>
      <trkpt lat="44.31184" lon="6.56464">
        <ele>2263.3</ele>
        <time>2018-08-05T11:33:58Z</time>
      </trkpt>
      <trkpt lat="44.31181" lon="6.56461">
        <ele>2263.8</ele>
        <time>2018-08-05T11:33:59Z</time>
      </trkpt>
      <trkpt lat="44.31178" lon="6.56461">
        <ele>2262.8</ele>
        <time>2018-08-05T11:34:00Z</time>
      </trkpt>
      <trkpt lat="44.31175" lon="6.56461">
        <ele>2261.8</ele>
        <time>2018-08-05T11:34:01Z</time>
      </trkpt>
      <trkpt lat="44.31173" lon="6.56461">
        <ele>2260.7</ele>
        <time>2018-08-05T11:34:02Z</time>
      </trkpt>
      <trkpt lat="44.3117" lon="6.5646">
        <ele>2259.6</ele>
        <time>2018-08-05T11:34:03Z</time>
      </trkpt>
      <trkpt lat="44.31167" lon="6.56459">
        <ele>2258.8</ele>
        <time>2018-08-05T11:34:04Z</time>
      </trkpt>
      <trkpt lat="44.31164" lon="6.56457">
        <ele>2257.6</ele>
        <time>2018-08-05T11:34:05Z</time>
      </trkpt>
      <trkpt lat="44.3116" lon="6.56456">
        <ele>2256.4</ele>
        <time>2018-08-05T11:34:06Z</time>
      </trkpt>
      <trkpt lat="44.31156" lon="6.56456">
        <ele>2254.2</ele>
        <time>2018-08-05T11:34:07Z</time>
      </trkpt>
      <trkpt lat="44.31153" lon="6.56457">
        <ele>2253.1</ele>
        <time>2018-08-05T11:34:08Z</time>
      </trkpt>
      <trkpt lat="44.31149" lon="6.56458">
        <ele>2251.9</ele>
        <time>2018-08-05T11:34:09Z</time>
      </trkpt>
      <trkpt lat="44.31146" lon="6.56458">
        <ele>2250.7</ele>
        <time>2018-08-05T11:34:10Z</time>
      </trkpt>
      <trkpt lat="44.31141" lon="6.56459">
        <ele>2247.7</ele>
        <time>2018-08-05T11:34:12Z</time>
      </trkpt>
      <trkpt lat="44.31136" lon="6.56458">
        <ele>2246.7</ele>
        <time>2018-08-05T11:34:14Z</time>
      </trkpt>
      <trkpt lat="44.31133" lon="6.56458">
        <ele>2245.4</ele>
        <time>2018-08-05T11:34:16Z</time>
      </trkpt>
      <trkpt lat="44.31131" lon="6.56454">
        <ele>2244.4</ele>
        <time>2018-08-05T11:34:25Z</time>
      </trkpt>
      <trkpt lat="44.31128" lon="6.56454">
        <ele>2243.1</ele>
        <time>2018-08-05T11:34:44Z</time>
      </trkpt>
      <trkpt lat="44.31125" lon="6.56456">
        <ele>2241.6</ele>
        <time>2018-08-05T11:34:46Z</time>
      </trkpt>
      <trkpt lat="44.31121" lon="6.56457">
        <ele>2240.5</ele>
        <time>2018-08-05T11:34:48Z</time>
      </trkpt>
      <trkpt lat="44.31119" lon="6.56458">
        <ele>2239.3</ele>
        <time>2018-08-05T11:34:50Z</time>
      </trkpt>
      <trkpt lat="44.31116" lon="6.56456">
        <ele>2238.1</ele>
        <time>2018-08-05T11:34:54Z</time>
      </trkpt>
      <trkpt lat="44.31116" lon="6.56449">
        <ele>2238.5</ele>
        <time>2018-08-05T11:34:57Z</time>
      </trkpt>
      <trkpt lat="44.31118" lon="6.56444">
        <ele>2239.8</ele>
        <time>2018-08-05T11:34:59Z</time>
      </trkpt>
      <trkpt lat="44.31119" lon="6.56439">
        <ele>2240</ele>
        <time>2018-08-05T11:35:01Z</time>
      </trkpt>
      <trkpt lat="44.31121" lon="6.56434">
        <ele>2241.4</ele>
        <time>2018-08-05T11:35:03Z</time>
      </trkpt>
      <trkpt lat="44.31122" lon="6.56428">
        <ele>2241.7</ele>
        <time>2018-08-05T11:35:05Z</time>
      </trkpt>
      <trkpt lat="44.3112" lon="6.56421">
        <ele>2240.7</ele>
        <time>2018-08-05T11:35:07Z</time>
      </trkpt>
      <trkpt lat="44.31118" lon="6.56418">
        <ele>2240.9</ele>
        <time>2018-08-05T11:35:09Z</time>
      </trkpt>
      <trkpt lat="44.31112" lon="6.56416">
        <ele>2238.3</ele>
        <time>2018-08-05T11:35:11Z</time>
      </trkpt>
      <trkpt lat="44.31109" lon="6.56413">
        <ele>2237.1</ele>
        <time>2018-08-05T11:35:13Z</time>
      </trkpt>
      <trkpt lat="44.31105" lon="6.5641">
        <ele>2236</ele>
        <time>2018-08-05T11:35:15Z</time>
      </trkpt>
      <trkpt lat="44.31101" lon="6.56406">
        <ele>2233.6</ele>
        <time>2018-08-05T11:35:17Z</time>
      </trkpt>
      <trkpt lat="44.31097" lon="6.56404">
        <ele>2232.4</ele>
        <time>2018-08-05T11:35:19Z</time>
      </trkpt>
      <trkpt lat="44.31093" lon="6.56403">
        <ele>2231.3</ele>
        <time>2018-08-05T11:35:23Z</time>
      </trkpt>
      <trkpt lat="44.3109" lon="6.56403">
        <ele>2230.2</ele>
        <time>2018-08-05T11:35:25Z</time>
      </trkpt>
      <trkpt lat="44.31086" lon="6.56401">
        <ele>2229</ele>
        <time>2018-08-05T11:35:27Z</time>
      </trkpt>
      <trkpt lat="44.31082" lon="6.56399">
        <ele>2226.3</ele>
        <time>2018-08-05T11:35:29Z</time>
      </trkpt>
      <trkpt lat="44.31079" lon="6.56398">
        <ele>2225</ele>
        <time>2018-08-05T11:35:31Z</time>
      </trkpt>
      <trkpt lat="44.31076" lon="6.56398">
        <ele>2223.8</ele>
        <time>2018-08-05T11:35:34Z</time>
      </trkpt>
      <trkpt lat="44.31074" lon="6.56395">
        <ele>2223.8</ele>
        <time>2018-08-05T11:35:40Z</time>
      </trkpt>
      <trkpt lat="44.31071" lon="6.56396">
        <ele>2221.7</ele>
        <time>2018-08-05T11:35:46Z</time>
      </trkpt>
      <trkpt lat="44.31067" lon="6.56399">
        <ele>2220.7</ele>
        <time>2018-08-05T11:35:49Z</time>
      </trkpt>
      <trkpt lat="44.31063" lon="6.56399">
        <ele>2219.8</ele>
        <time>2018-08-05T11:35:51Z</time>
      </trkpt>
      <trkpt lat="44.31059" lon="6.56395">
        <ele>2218.5</ele>
        <time>2018-08-05T11:35:53Z</time>
      </trkpt>
      <trkpt lat="44.31056" lon="6.56393">
        <ele>2217.3</ele>
        <time>2018-08-05T11:35:55Z</time>
      </trkpt>
      <trkpt lat="44.31054" lon="6.56388">
        <ele>2216</ele>
        <time>2018-08-05T11:35:57Z</time>
      </trkpt>
      <trkpt lat="44.31052" lon="6.56385">
        <ele>2214.8</ele>
        <time>2018-08-05T11:35:58Z</time>
      </trkpt>
      <trkpt lat="44.31049" lon="6.5638">
        <ele>2213.7</ele>
        <time>2018-08-05T11:36:00Z</time>
      </trkpt>
      <trkpt lat="44.31046" lon="6.56375">
        <ele>2212.6</ele>
        <time>2018-08-05T11:36:02Z</time>
      </trkpt>
      <trkpt lat="44.31043" lon="6.56371">
        <ele>2211.4</ele>
        <time>2018-08-05T11:36:04Z</time>
      </trkpt>
      <trkpt lat="44.3104" lon="6.56368">
        <ele>2210.2</ele>
        <time>2018-08-05T11:36:06Z</time>
      </trkpt>
      <trkpt lat="44.31037" lon="6.56366">
        <ele>2210.2</ele>
        <time>2018-08-05T11:36:07Z</time>
      </trkpt>
      <trkpt lat="44.31033" lon="6.56363">
        <ele>2207.6</ele>
        <time>2018-08-05T11:36:09Z</time>
      </trkpt>
      <trkpt lat="44.31029" lon="6.56362">
        <ele>2206.4</ele>
        <time>2018-08-05T11:36:11Z</time>
      </trkpt>
      <trkpt lat="44.31026" lon="6.56359">
        <ele>2204.8</ele>
        <time>2018-08-05T11:36:13Z</time>
      </trkpt>
      <trkpt lat="44.31022" lon="6.56355">
        <ele>2203</ele>
        <time>2018-08-05T11:36:15Z</time>
      </trkpt>
      <trkpt lat="44.31019" lon="6.56352">
        <ele>2201.7</ele>
        <time>2018-08-05T11:36:17Z</time>
      </trkpt>
      <trkpt lat="44.31017" lon="6.56348">
        <ele>2199.9</ele>
        <time>2018-08-05T11:36:19Z</time>
      </trkpt>
      <trkpt lat="44.31016" lon="6.56343">
        <ele>2199.4</ele>
        <time>2018-08-05T11:36:21Z</time>
      </trkpt>
      <trkpt lat="44.31015" lon="6.56337">
        <ele>2197.1</ele>
        <time>2018-08-05T11:36:24Z</time>
      </trkpt>
      <trkpt lat="44.31013" lon="6.56332">
        <ele>2196.5</ele>
        <time>2018-08-05T11:36:26Z</time>
      </trkpt>
      <trkpt lat="44.31012" lon="6.56327">
        <ele>2194.5</ele>
        <time>2018-08-05T11:36:28Z</time>
      </trkpt>
      <trkpt lat="44.3101" lon="6.56322">
        <ele>2193.8</ele>
        <time>2018-08-05T11:36:30Z</time>
      </trkpt>
      <trkpt lat="44.31009" lon="6.56317">
        <ele>2191.7</ele>
        <time>2018-08-05T11:36:32Z</time>
      </trkpt>
      <trkpt lat="44.31008" lon="6.56314">
        <ele>2191</ele>
        <time>2018-08-05T11:36:33Z</time>
      </trkpt>
      <trkpt lat="44.31006" lon="6.56308">
        <ele>2188</ele>
        <time>2018-08-05T11:36:35Z</time>
      </trkpt>
      <trkpt lat="44.31004" lon="6.56305">
        <ele>2188</ele>
        <time>2018-08-05T11:36:37Z</time>
      </trkpt>
      <trkpt lat="44.31003" lon="6.563">
        <ele>2184.7</ele>
        <time>2018-08-05T11:36:39Z</time>
      </trkpt>
      <trkpt lat="44.31" lon="6.56296">
        <ele>2183.9</ele>
        <time>2018-08-05T11:36:41Z</time>
      </trkpt>
      <trkpt lat="44.30998" lon="6.56292">
        <ele>2181.9</ele>
        <time>2018-08-05T11:36:44Z</time>
      </trkpt>
      <trkpt lat="44.30998" lon="6.56286">
        <ele>2180.1</ele>
        <time>2018-08-05T11:36:47Z</time>
      </trkpt>
      <trkpt lat="44.30996" lon="6.56281">
        <ele>2176.8</ele>
        <time>2018-08-05T11:36:49Z</time>
      </trkpt>
      <trkpt lat="44.30994" lon="6.56276">
        <ele>2175.7</ele>
        <time>2018-08-05T11:36:51Z</time>
      </trkpt>
      <trkpt lat="44.30992" lon="6.56271">
        <ele>2172.3</ele>
        <time>2018-08-05T11:36:54Z</time>
      </trkpt>
      <trkpt lat="44.3099" lon="6.56267">
        <ele>2169</ele>
        <time>2018-08-05T11:36:56Z</time>
      </trkpt>
      <trkpt lat="44.30989" lon="6.56262">
        <ele>2167.9</ele>
        <time>2018-08-05T11:36:59Z</time>
      </trkpt>
      <trkpt lat="44.30986" lon="6.56265">
        <ele>2165.8</ele>
        <time>2018-08-05T11:37:13Z</time>
      </trkpt>
      <trkpt lat="44.30983" lon="6.56264">
        <ele>2163.8</ele>
        <time>2018-08-05T11:37:17Z</time>
      </trkpt>
      <trkpt lat="44.3098" lon="6.56264">
        <ele>2161.7</ele>
        <time>2018-08-05T11:37:20Z</time>
      </trkpt>
      <trkpt lat="44.30977" lon="6.56262">
        <ele>2159.5</ele>
        <time>2018-08-05T11:37:26Z</time>
      </trkpt>
      <trkpt lat="44.30974" lon="6.56262">
        <ele>2157.1</ele>
        <time>2018-08-05T11:37:31Z</time>
      </trkpt>
      <trkpt lat="44.30971" lon="6.56261">
        <ele>2153.6</ele>
        <time>2018-08-05T11:37:36Z</time>
      </trkpt>
      <trkpt lat="44.30969" lon="6.56263">
        <ele>2152.3</ele>
        <time>2018-08-05T11:37:40Z</time>
      </trkpt>
      <trkpt lat="44.30966" lon="6.56265">
        <ele>2150</ele>
        <time>2018-08-05T11:37:44Z</time>
      </trkpt>
      <trkpt lat="44.30963" lon="6.56268">
        <ele>2149</ele>
        <time>2018-08-05T11:37:48Z</time>
      </trkpt>
      <trkpt lat="44.3096" lon="6.56266">
        <ele>2147.1</ele>
        <time>2018-08-05T11:37:50Z</time>
      </trkpt>
      <trkpt lat="44.30957" lon="6.56266">
        <ele>2146</ele>
        <time>2018-08-05T11:37:53Z</time>
      </trkpt>
      <trkpt lat="44.30955" lon="6.56267">
        <ele>2145.1</ele>
        <time>2018-08-05T11:37:55Z</time>
      </trkpt>
      <trkpt lat="44.30952" lon="6.56268">
        <ele>2143.1</ele>
        <time>2018-08-05T11:37:57Z</time>
      </trkpt>
      <trkpt lat="44.30949" lon="6.56268">
        <ele>2140.9</ele>
        <time>2018-08-05T11:37:59Z</time>
      </trkpt>
      <trkpt lat="44.30946" lon="6.56273">
        <ele>2139.8</ele>
        <time>2018-08-05T11:38:04Z</time>
      </trkpt>
      <trkpt lat="44.30943" lon="6.56273">
        <ele>2137.5</ele>
        <time>2018-08-05T11:38:08Z</time>
      </trkpt>
      <trkpt lat="44.30941" lon="6.56277">
        <ele>2136.5</ele>
        <time>2018-08-05T11:38:18Z</time>
      </trkpt>
      <trkpt lat="44.30937" lon="6.56278">
        <ele>2134.4</ele>
        <time>2018-08-05T11:38:20Z</time>
      </trkpt>
      <trkpt lat="44.30932" lon="6.56277">
        <ele>2130.4</ele>
        <time>2018-08-05T11:38:22Z</time>
      </trkpt>
      <trkpt lat="44.30928" lon="6.56276">
        <ele>2128.4</ele>
        <time>2018-08-05T11:38:24Z</time>
      </trkpt>
      <trkpt lat="44.30923" lon="6.56275">
        <ele>2124.1</ele>
        <time>2018-08-05T11:38:26Z</time>
      </trkpt>
      <trkpt lat="44.30919" lon="6.56274">
        <ele>2120.9</ele>
        <time>2018-08-05T11:38:28Z</time>
      </trkpt>
      <trkpt lat="44.30915" lon="6.56273">
        <ele>2118.7</ele>
        <time>2018-08-05T11:38:30Z</time>
      </trkpt>
      <trkpt lat="44.30911" lon="6.56273">
        <ele>2116.6</ele>
        <time>2018-08-05T11:38:32Z</time>
      </trkpt>
      <trkpt lat="44.30908" lon="6.56275">
        <ele>2113.4</ele>
        <time>2018-08-05T11:38:35Z</time>
      </trkpt>
      <trkpt lat="44.30905" lon="6.56276">
        <ele>2111.5</ele>
        <time>2018-08-05T11:38:37Z</time>
      </trkpt>
      <trkpt lat="44.30899" lon="6.56277">
        <ele>2109.8</ele>
        <time>2018-08-05T11:38:39Z</time>
      </trkpt>
      <trkpt lat="44.30895" lon="6.5628">
        <ele>2107.5</ele>
        <time>2018-08-05T11:38:41Z</time>
      </trkpt>
      <trkpt lat="44.30893" lon="6.56282">
        <ele>2105.9</ele>
        <time>2018-08-05T11:38:46Z</time>
      </trkpt>
      <trkpt lat="44.3089" lon="6.56284">
        <ele>2106.6</ele>
        <time>2018-08-05T11:38:48Z</time>
      </trkpt>
      <trkpt lat="44.30887" lon="6.56287">
        <ele>2105</ele>
        <time>2018-08-05T11:38:50Z</time>
      </trkpt>
      <trkpt lat="44.30884" lon="6.56286">
        <ele>2103.3</ele>
        <time>2018-08-05T11:38:55Z</time>
      </trkpt>
      <trkpt lat="44.3088" lon="6.56283">
        <ele>2100.4</ele>
        <time>2018-08-05T11:38:57Z</time>
      </trkpt>
      <trkpt lat="44.30876" lon="6.56281">
        <ele>2098.3</ele>
        <time>2018-08-05T11:38:59Z</time>
      </trkpt>
      <trkpt lat="44.30871" lon="6.56277">
        <ele>2096.4</ele>
        <time>2018-08-05T11:39:01Z</time>
      </trkpt>
      <trkpt lat="44.30866" lon="6.56274">
        <ele>2093.2</ele>
        <time>2018-08-05T11:39:03Z</time>
      </trkpt>
      <trkpt lat="44.30864" lon="6.56273">
        <ele>2091.8</ele>
        <time>2018-08-05T11:39:04Z</time>
      </trkpt>
      <trkpt lat="44.30859" lon="6.56273">
        <ele>2090.4</ele>
        <time>2018-08-05T11:39:06Z</time>
      </trkpt>
      <trkpt lat="44.30855" lon="6.56275">
        <ele>2088.4</ele>
        <time>2018-08-05T11:39:08Z</time>
      </trkpt>
      <trkpt lat="44.30853" lon="6.56278">
        <ele>2087.3</ele>
        <time>2018-08-05T11:39:11Z</time>
      </trkpt>
      <trkpt lat="44.3085" lon="6.5628">
        <ele>2088</ele>
        <time>2018-08-05T11:39:14Z</time>
      </trkpt>
      <trkpt lat="44.30847" lon="6.56281">
        <ele>2087</ele>
        <time>2018-08-05T11:39:17Z</time>
      </trkpt>
      <trkpt lat="44.30844" lon="6.5628">
        <ele>2086.1</ele>
        <time>2018-08-05T11:39:19Z</time>
      </trkpt>
      <trkpt lat="44.30841" lon="6.56279">
        <ele>2085.1</ele>
        <time>2018-08-05T11:39:21Z</time>
      </trkpt>
      <trkpt lat="44.30838" lon="6.56277">
        <ele>2083.4</ele>
        <time>2018-08-05T11:39:23Z</time>
      </trkpt>
      <trkpt lat="44.30838" lon="6.56281">
        <ele>2084.1</ele>
        <time>2018-08-05T11:39:26Z</time>
      </trkpt>
      <trkpt lat="44.30839" lon="6.56276">
        <ele>2083.4</ele>
        <time>2018-08-05T11:39:37Z</time>
      </trkpt>
      <trkpt lat="44.30839" lon="6.56272">
        <ele>2082.7</ele>
        <time>2018-08-05T11:39:39Z</time>
      </trkpt>
      <trkpt lat="44.30838" lon="6.56268">
        <ele>2082</ele>
        <time>2018-08-05T11:39:41Z</time>
      </trkpt>
      <trkpt lat="44.3084" lon="6.56263">
        <ele>2081.4</ele>
        <time>2018-08-05T11:39:44Z</time>
      </trkpt>
      <trkpt lat="44.3084" lon="6.56258">
        <ele>2080.9</ele>
        <time>2018-08-05T11:39:46Z</time>
      </trkpt>
      <trkpt lat="44.30841" lon="6.56253">
        <ele>2080.7</ele>
        <time>2018-08-05T11:39:49Z</time>
      </trkpt>
      <trkpt lat="44.30843" lon="6.56249">
        <ele>2080.6</ele>
        <time>2018-08-05T11:39:52Z</time>
      </trkpt>
      <trkpt lat="44.30844" lon="6.56243">
        <ele>2080.2</ele>
        <time>2018-08-05T11:39:56Z</time>
      </trkpt>
      <trkpt lat="44.30846" lon="6.56239">
        <ele>2079.6</ele>
        <time>2018-08-05T11:40:01Z</time>
      </trkpt>
      <trkpt lat="44.30843" lon="6.56236">
        <ele>2078.6</ele>
        <time>2018-08-05T11:40:05Z</time>
      </trkpt>
      <trkpt lat="44.30838" lon="6.56237">
        <ele>2077.6</ele>
        <time>2018-08-05T11:40:08Z</time>
      </trkpt>
      <trkpt lat="44.30835" lon="6.56236">
        <ele>2076.6</ele>
        <time>2018-08-05T11:40:10Z</time>
      </trkpt>
      <trkpt lat="44.30832" lon="6.56237">
        <ele>2075.6</ele>
        <time>2018-08-05T11:40:13Z</time>
      </trkpt>
      <trkpt lat="44.30829" lon="6.56236">
        <ele>2074.6</ele>
        <time>2018-08-05T11:40:16Z</time>
      </trkpt>
      <trkpt lat="44.30826" lon="6.56237">
        <ele>2073.6</ele>
        <time>2018-08-05T11:40:19Z</time>
      </trkpt>
      <trkpt lat="44.30825" lon="6.56232">
        <ele>2072</ele>
        <time>2018-08-05T11:40:23Z</time>
      </trkpt>
      <trkpt lat="44.30825" lon="6.56228">
        <ele>2072.1</ele>
        <time>2018-08-05T11:40:26Z</time>
      </trkpt>
      <trkpt lat="44.30821" lon="6.56229">
        <ele>2070.2</ele>
        <time>2018-08-05T11:40:31Z</time>
      </trkpt>
      <trkpt lat="44.30818" lon="6.56229">
        <ele>2069.3</ele>
        <time>2018-08-05T11:40:35Z</time>
      </trkpt>
      <trkpt lat="44.30816" lon="6.56231">
        <ele>2069.3</ele>
        <time>2018-08-05T11:40:40Z</time>
      </trkpt>
      <trkpt lat="44.30813" lon="6.56231">
        <ele>2068.3</ele>
        <time>2018-08-05T11:40:44Z</time>
      </trkpt>
      <trkpt lat="44.3081" lon="6.56234">
        <ele>2067.5</ele>
        <time>2018-08-05T11:40:48Z</time>
      </trkpt>
      <trkpt lat="44.30807" lon="6.56236">
        <ele>2066.4</ele>
        <time>2018-08-05T11:40:50Z</time>
      </trkpt>
      <trkpt lat="44.30804" lon="6.56235">
        <ele>2065.3</ele>
        <time>2018-08-05T11:40:52Z</time>
      </trkpt>
      <trkpt lat="44.30801" lon="6.56234">
        <ele>2064.1</ele>
        <time>2018-08-05T11:40:54Z</time>
      </trkpt>
      <trkpt lat="44.30798" lon="6.56236">
        <ele>2063</ele>
        <time>2018-08-05T11:40:57Z</time>
      </trkpt>
      <trkpt lat="44.30795" lon="6.56235">
        <ele>2061.9</ele>
        <time>2018-08-05T11:41:02Z</time>
      </trkpt>
      <trkpt lat="44.30791" lon="6.56235">
        <ele>2059.8</ele>
        <time>2018-08-05T11:41:04Z</time>
      </trkpt>
      <trkpt lat="44.30787" lon="6.56235">
        <ele>2058.7</ele>
        <time>2018-08-05T11:41:07Z</time>
      </trkpt>
      <trkpt lat="44.30785" lon="6.56238">
        <ele>2058.6</ele>
        <time>2018-08-05T11:41:13Z</time>
      </trkpt>
      <trkpt lat="44.30782" lon="6.56239">
        <ele>2057.4</ele>
        <time>2018-08-05T11:41:18Z</time>
      </trkpt>
      <trkpt lat="44.30779" lon="6.56237">
        <ele>2056.2</ele>
        <time>2018-08-05T11:41:23Z</time>
      </trkpt>
      <trkpt lat="44.30776" lon="6.56238">
        <ele>2055</ele>
        <time>2018-08-05T11:41:27Z</time>
      </trkpt>
      <trkpt lat="44.30776" lon="6.56234">
        <ele>2054</ele>
        <time>2018-08-05T11:41:32Z</time>
      </trkpt>
      <trkpt lat="44.30775" lon="6.5623">
        <ele>2053</ele>
        <time>2018-08-05T11:41:39Z</time>
      </trkpt>
      <trkpt lat="44.30775" lon="6.56225">
        <ele>2052.1</ele>
        <time>2018-08-05T11:41:42Z</time>
      </trkpt>
      <trkpt lat="44.30773" lon="6.5622">
        <ele>2051.2</ele>
        <time>2018-08-05T11:41:45Z</time>
      </trkpt>
      <trkpt lat="44.30772" lon="6.56216">
        <ele>2049.2</ele>
        <time>2018-08-05T11:41:47Z</time>
      </trkpt>
      <trkpt lat="44.30769" lon="6.56212">
        <ele>2047.3</ele>
        <time>2018-08-05T11:41:50Z</time>
      </trkpt>
      <trkpt lat="44.30766" lon="6.56209">
        <ele>2045.4</ele>
        <time>2018-08-05T11:41:52Z</time>
      </trkpt>
      <trkpt lat="44.30763" lon="6.56205">
        <ele>2043.5</ele>
        <time>2018-08-05T11:41:54Z</time>
      </trkpt>
      <trkpt lat="44.3076" lon="6.56202">
        <ele>2042.5</ele>
        <time>2018-08-05T11:41:56Z</time>
      </trkpt>
      <trkpt lat="44.30758" lon="6.56198">
        <ele>2041.5</ele>
        <time>2018-08-05T11:41:58Z</time>
      </trkpt>
      <trkpt lat="44.30755" lon="6.56195">
        <ele>2039.4</ele>
        <time>2018-08-05T11:42:00Z</time>
      </trkpt>
      <trkpt lat="44.30751" lon="6.56191">
        <ele>2037.1</ele>
        <time>2018-08-05T11:42:02Z</time>
      </trkpt>
      <trkpt lat="44.30748" lon="6.56187">
        <ele>2034.9</ele>
        <time>2018-08-05T11:42:04Z</time>
      </trkpt>
      <trkpt lat="44.30745" lon="6.56183">
        <ele>2031.7</ele>
        <time>2018-08-05T11:42:06Z</time>
      </trkpt>
      <trkpt lat="44.30743" lon="6.56179">
        <ele>2030.7</ele>
        <time>2018-08-05T11:42:08Z</time>
      </trkpt>
      <trkpt lat="44.30741" lon="6.56176">
        <ele>2029.8</ele>
        <time>2018-08-05T11:42:10Z</time>
      </trkpt>
      <trkpt lat="44.30738" lon="6.56172">
        <ele>2027.9</ele>
        <time>2018-08-05T11:42:12Z</time>
      </trkpt>
      <trkpt lat="44.30735" lon="6.56167">
        <ele>2026</ele>
        <time>2018-08-05T11:42:14Z</time>
      </trkpt>
      <trkpt lat="44.30732" lon="6.56165">
        <ele>2024.1</ele>
        <time>2018-08-05T11:42:16Z</time>
      </trkpt>
      <trkpt lat="44.30729" lon="6.56162">
        <ele>2022</ele>
        <time>2018-08-05T11:42:18Z</time>
      </trkpt>
      <trkpt lat="44.30727" lon="6.56159">
        <ele>2022</ele>
        <time>2018-08-05T11:42:20Z</time>
      </trkpt>
      <trkpt lat="44.30724" lon="6.56154">
        <ele>2018.9</ele>
        <time>2018-08-05T11:42:22Z</time>
      </trkpt>
      <trkpt lat="44.30721" lon="6.5615">
        <ele>2017.8</ele>
        <time>2018-08-05T11:42:24Z</time>
      </trkpt>
      <trkpt lat="44.3072" lon="6.56145">
        <ele>2014.7</ele>
        <time>2018-08-05T11:42:26Z</time>
      </trkpt>
      <trkpt lat="44.30719" lon="6.56141">
        <ele>2013.6</ele>
        <time>2018-08-05T11:42:28Z</time>
      </trkpt>
      <trkpt lat="44.30717" lon="6.56137">
        <ele>2011.6</ele>
        <time>2018-08-05T11:42:30Z</time>
      </trkpt>
      <trkpt lat="44.30715" lon="6.56133">
        <ele>2011.6</ele>
        <time>2018-08-05T11:42:32Z</time>
      </trkpt>
      <trkpt lat="44.30713" lon="6.56128">
        <ele>2008.8</ele>
        <time>2018-08-05T11:42:34Z</time>
      </trkpt>
      <trkpt lat="44.3071" lon="6.56123">
        <ele>2007</ele>
        <time>2018-08-05T11:42:36Z</time>
      </trkpt>
      <trkpt lat="44.30708" lon="6.5612">
        <ele>2005.2</ele>
        <time>2018-08-05T11:42:38Z</time>
      </trkpt>
      <trkpt lat="44.30705" lon="6.56114">
        <ele>2003.4</ele>
        <time>2018-08-05T11:42:40Z</time>
      </trkpt>
      <trkpt lat="44.30703" lon="6.56111">
        <ele>2002.4</ele>
        <time>2018-08-05T11:42:42Z</time>
      </trkpt>
      <trkpt lat="44.307" lon="6.56106">
        <ele>2000.5</ele>
        <time>2018-08-05T11:43:00Z</time>
      </trkpt>
      <trkpt lat="44.30697" lon="6.56102">
        <ele>1998.5</ele>
        <time>2018-08-05T11:43:02Z</time>
      </trkpt>
      <trkpt lat="44.30696" lon="6.56097">
        <ele>1996.5</ele>
        <time>2018-08-05T11:43:05Z</time>
      </trkpt>
      <trkpt lat="44.30696" lon="6.56093">
        <ele>1996.5</ele>
        <time>2018-08-05T11:43:06Z</time>
      </trkpt>
      <trkpt lat="44.30695" lon="6.56086">
        <ele>1994.6</ele>
        <time>2018-08-05T11:43:08Z</time>
      </trkpt>
      <trkpt lat="44.30693" lon="6.56079">
        <ele>1992.7</ele>
        <time>2018-08-05T11:43:10Z</time>
      </trkpt>
      <trkpt lat="44.30691" lon="6.56077">
        <ele>1991</ele>
        <time>2018-08-05T11:43:11Z</time>
      </trkpt>
      <trkpt lat="44.30687" lon="6.56073">
        <ele>1990.1</ele>
        <time>2018-08-05T11:43:13Z</time>
      </trkpt>
      <trkpt lat="44.30684" lon="6.5607">
        <ele>1988.4</ele>
        <time>2018-08-05T11:43:15Z</time>
      </trkpt>
      <trkpt lat="44.30682" lon="6.56068">
        <ele>1986.9</ele>
        <time>2018-08-05T11:43:19Z</time>
      </trkpt>
      <trkpt lat="44.3068" lon="6.56066">
        <ele>1986.2</ele>
        <time>2018-08-05T11:43:24Z</time>
      </trkpt>
      <trkpt lat="44.30679" lon="6.56059">
        <ele>1984.5</ele>
        <time>2018-08-05T11:43:27Z</time>
      </trkpt>
      <trkpt lat="44.30677" lon="6.56053">
        <ele>1983</ele>
        <time>2018-08-05T11:43:29Z</time>
      </trkpt>
      <trkpt lat="44.30674" lon="6.56048">
        <ele>1981.4</ele>
        <time>2018-08-05T11:43:31Z</time>
      </trkpt>
      <trkpt lat="44.30671" lon="6.56043">
        <ele>1979.8</ele>
        <time>2018-08-05T11:43:33Z</time>
      </trkpt>
      <trkpt lat="44.30669" lon="6.56041">
        <ele>1979</ele>
        <time>2018-08-05T11:43:35Z</time>
      </trkpt>
      <trkpt lat="44.30666" lon="6.56036">
        <ele>1977.4</ele>
        <time>2018-08-05T11:43:37Z</time>
      </trkpt>
      <trkpt lat="44.30662" lon="6.56036">
        <ele>1976.5</ele>
        <time>2018-08-05T11:43:39Z</time>
      </trkpt>
      <trkpt lat="44.30659" lon="6.56036">
        <ele>1974.9</ele>
        <time>2018-08-05T11:43:41Z</time>
      </trkpt>
      <trkpt lat="44.30655" lon="6.56033">
        <ele>1973.5</ele>
        <time>2018-08-05T11:43:44Z</time>
      </trkpt>
      <trkpt lat="44.30654" lon="6.5603">
        <ele>1972.7</ele>
        <time>2018-08-05T11:43:45Z</time>
      </trkpt>
      <trkpt lat="44.30651" lon="6.56024">
        <ele>1971.3</ele>
        <time>2018-08-05T11:43:47Z</time>
      </trkpt>
      <trkpt lat="44.30649" lon="6.5602">
        <ele>1969.8</ele>
        <time>2018-08-05T11:43:49Z</time>
      </trkpt>
      <trkpt lat="44.30644" lon="6.56017">
        <ele>1968.7</ele>
        <time>2018-08-05T11:43:51Z</time>
      </trkpt>
      <trkpt lat="44.30641" lon="6.56018">
        <ele>1967.9</ele>
        <time>2018-08-05T11:43:53Z</time>
      </trkpt>
      <trkpt lat="44.30638" lon="6.56018">
        <ele>1967.4</ele>
        <time>2018-08-05T11:43:54Z</time>
      </trkpt>
      <trkpt lat="44.30634" lon="6.56021">
        <ele>1966.4</ele>
        <time>2018-08-05T11:43:56Z</time>
      </trkpt>
      <trkpt lat="44.30632" lon="6.56024">
        <ele>1966</ele>
        <time>2018-08-05T11:43:57Z</time>
      </trkpt>
      <trkpt lat="44.30629" lon="6.56027">
        <ele>1965.4</ele>
        <time>2018-08-05T11:43:58Z</time>
      </trkpt>
      <trkpt lat="44.30626" lon="6.5603">
        <ele>1964.7</ele>
        <time>2018-08-05T11:43:59Z</time>
      </trkpt>
      <trkpt lat="44.30622" lon="6.56033">
        <ele>1963.9</ele>
        <time>2018-08-05T11:44:00Z</time>
      </trkpt>
      <trkpt lat="44.30618" lon="6.56036">
        <ele>1963.1</ele>
        <time>2018-08-05T11:44:01Z</time>
      </trkpt>
      <trkpt lat="44.30615" lon="6.56039">
        <ele>1962.3</ele>
        <time>2018-08-05T11:44:02Z</time>
      </trkpt>
      <trkpt lat="44.3061" lon="6.56042">
        <ele>1961.5</ele>
        <time>2018-08-05T11:44:03Z</time>
      </trkpt>
      <trkpt lat="44.30604" lon="6.56046">
        <ele>1960.8</ele>
        <time>2018-08-05T11:44:04Z</time>
      </trkpt>
      <trkpt lat="44.30598" lon="6.5605">
        <ele>1959.7</ele>
        <time>2018-08-05T11:44:05Z</time>
      </trkpt>
      <trkpt lat="44.30593" lon="6.56054">
        <ele>1958.7</ele>
        <time>2018-08-05T11:44:06Z</time>
      </trkpt>
      <trkpt lat="44.30589" lon="6.56061">
        <ele>1957.5</ele>
        <time>2018-08-05T11:44:07Z</time>
      </trkpt>
      <trkpt lat="44.30584" lon="6.56068">
        <ele>1956</ele>
        <time>2018-08-05T11:44:08Z</time>
      </trkpt>
      <trkpt lat="44.30579" lon="6.56075">
        <ele>1954.4</ele>
        <time>2018-08-05T11:44:09Z</time>
      </trkpt>
      <trkpt lat="44.30572" lon="6.56082">
        <ele>1953.1</ele>
        <time>2018-08-05T11:44:10Z</time>
      </trkpt>
      <trkpt lat="44.30565" lon="6.56087">
        <ele>1951.4</ele>
        <time>2018-08-05T11:44:11Z</time>
      </trkpt>
      <trkpt lat="44.30558" lon="6.56089">
        <ele>1950.1</ele>
        <time>2018-08-05T11:44:12Z</time>
      </trkpt>
      <trkpt lat="44.30552" lon="6.56091">
        <ele>1949</ele>
        <time>2018-08-05T11:44:13Z</time>
      </trkpt>
      <trkpt lat="44.30548" lon="6.56095">
        <ele>1948.2</ele>
        <time>2018-08-05T11:44:14Z</time>
      </trkpt>
      <trkpt lat="44.30543" lon="6.56099">
        <ele>1947.3</ele>
        <time>2018-08-05T11:44:15Z</time>
      </trkpt>
      <trkpt lat="44.30539" lon="6.56107">
        <ele>1946.3</ele>
        <time>2018-08-05T11:44:16Z</time>
      </trkpt>
      <trkpt lat="44.30534" lon="6.56114">
        <ele>1945</ele>
        <time>2018-08-05T11:44:17Z</time>
      </trkpt>
      <trkpt lat="44.3053" lon="6.56121">
        <ele>1944</ele>
        <time>2018-08-05T11:44:18Z</time>
      </trkpt>
      <trkpt lat="44.30524" lon="6.56128">
        <ele>1942.9</ele>
        <time>2018-08-05T11:44:19Z</time>
      </trkpt>
      <trkpt lat="44.30519" lon="6.56136">
        <ele>1941.5</ele>
        <time>2018-08-05T11:44:20Z</time>
      </trkpt>
      <trkpt lat="44.30513" lon="6.56143">
        <ele>1940</ele>
        <time>2018-08-05T11:44:21Z</time>
      </trkpt>
      <trkpt lat="44.30508" lon="6.56147">
        <ele>1939</ele>
        <time>2018-08-05T11:44:22Z</time>
      </trkpt>
      <trkpt lat="44.30501" lon="6.56151">
        <ele>1937.6</ele>
        <time>2018-08-05T11:44:23Z</time>
      </trkpt>
      <trkpt lat="44.30495" lon="6.56155">
        <ele>1936.3</ele>
        <time>2018-08-05T11:44:24Z</time>
      </trkpt>
      <trkpt lat="44.30487" lon="6.56161">
        <ele>1935</ele>
        <time>2018-08-05T11:44:25Z</time>
      </trkpt>
      <trkpt lat="44.30479" lon="6.56167">
        <ele>1933.1</ele>
        <time>2018-08-05T11:44:26Z</time>
      </trkpt>
      <trkpt lat="44.30472" lon="6.56173">
        <ele>1931.5</ele>
        <time>2018-08-05T11:44:27Z</time>
      </trkpt>
      <trkpt lat="44.30466" lon="6.56178">
        <ele>1930.2</ele>
        <time>2018-08-05T11:44:28Z</time>
      </trkpt>
      <trkpt lat="44.30459" lon="6.56184">
        <ele>1929.1</ele>
        <time>2018-08-05T11:44:29Z</time>
      </trkpt>
      <trkpt lat="44.30452" lon="6.56189">
        <ele>1927.2</ele>
        <time>2018-08-05T11:44:30Z</time>
      </trkpt>
      <trkpt lat="44.30446" lon="6.56194">
        <ele>1925.8</ele>
        <time>2018-08-05T11:44:31Z</time>
      </trkpt>
      <trkpt lat="44.3044" lon="6.56199">
        <ele>1924.9</ele>
        <time>2018-08-05T11:44:32Z</time>
      </trkpt>
      <trkpt lat="44.30433" lon="6.56206">
        <ele>1924.4</ele>
        <time>2018-08-05T11:44:33Z</time>
      </trkpt>
      <trkpt lat="44.30429" lon="6.56212">
        <ele>1923.9</ele>
        <time>2018-08-05T11:44:34Z</time>
      </trkpt>
      <trkpt lat="44.30424" lon="6.56219">
        <ele>1923.7</ele>
        <time>2018-08-05T11:44:35Z</time>
      </trkpt>
      <trkpt lat="44.30419" lon="6.56225">
        <ele>1923.5</ele>
        <time>2018-08-05T11:44:36Z</time>
      </trkpt>
      <trkpt lat="44.30414" lon="6.56229">
        <ele>1923.2</ele>
        <time>2018-08-05T11:44:37Z</time>
      </trkpt>
      <trkpt lat="44.30408" lon="6.56232">
        <ele>1922.8</ele>
        <time>2018-08-05T11:44:38Z</time>
      </trkpt>
      <trkpt lat="44.30401" lon="6.56235">
        <ele>1922.5</ele>
        <time>2018-08-05T11:44:39Z</time>
      </trkpt>
      <trkpt lat="44.30396" lon="6.56238">
        <ele>1922.3</ele>
        <time>2018-08-05T11:44:40Z</time>
      </trkpt>
      <trkpt lat="44.3039" lon="6.56239">
        <ele>1922.1</ele>
        <time>2018-08-05T11:44:41Z</time>
      </trkpt>
      <trkpt lat="44.30386" lon="6.56241">
        <ele>1922</ele>
        <time>2018-08-05T11:44:42Z</time>
      </trkpt>
      <trkpt lat="44.30382" lon="6.56243">
        <ele>1922</ele>
        <time>2018-08-05T11:44:43Z</time>
      </trkpt>
      <trkpt lat="44.30377" lon="6.56246">
        <ele>1921.7</ele>
        <time>2018-08-05T11:44:44Z</time>
      </trkpt>
      <trkpt lat="44.30373" lon="6.56249">
        <ele>1920.6</ele>
        <time>2018-08-05T11:44:45Z</time>
      </trkpt>
      <trkpt lat="44.30369" lon="6.56253">
        <ele>1919.6</ele>
        <time>2018-08-05T11:44:46Z</time>
      </trkpt>
      <trkpt lat="44.30367" lon="6.56256">
        <ele>1918.9</ele>
        <time>2018-08-05T11:44:47Z</time>
      </trkpt>
      <trkpt lat="44.30364" lon="6.56259">
        <ele>1918.2</ele>
        <time>2018-08-05T11:44:48Z</time>
      </trkpt>
      <trkpt lat="44.30362" lon="6.56262">
        <ele>1917.7</ele>
        <time>2018-08-05T11:44:49Z</time>
      </trkpt>
      <trkpt lat="44.30359" lon="6.56266">
        <ele>1916.9</ele>
        <time>2018-08-05T11:44:50Z</time>
      </trkpt>
      <trkpt lat="44.30355" lon="6.56269">
        <ele>1916.3</ele>
        <time>2018-08-05T11:44:51Z</time>
      </trkpt>
      <trkpt lat="44.30353" lon="6.56273">
        <ele>1915.7</ele>
        <time>2018-08-05T11:44:52Z</time>
      </trkpt>
      <trkpt lat="44.30349" lon="6.56277">
        <ele>1915.1</ele>
        <time>2018-08-05T11:44:53Z</time>
      </trkpt>
      <trkpt lat="44.30346" lon="6.56284">
        <ele>1914.4</ele>
        <time>2018-08-05T11:44:54Z</time>
      </trkpt>
      <trkpt lat="44.30342" lon="6.5629">
        <ele>1913.6</ele>
        <time>2018-08-05T11:44:55Z</time>
      </trkpt>
      <trkpt lat="44.30338" lon="6.56296">
        <ele>1912.6</ele>
        <time>2018-08-05T11:44:56Z</time>
      </trkpt>
      <trkpt lat="44.30335" lon="6.56304">
        <ele>1912</ele>
        <time>2018-08-05T11:44:57Z</time>
      </trkpt>
      <trkpt lat="44.30331" lon="6.56313">
        <ele>1911.6</ele>
        <time>2018-08-05T11:44:58Z</time>
      </trkpt>
      <trkpt lat="44.30329" lon="6.56322">
        <ele>1911.3</ele>
        <time>2018-08-05T11:44:59Z</time>
      </trkpt>
      <trkpt lat="44.30325" lon="6.56332">
        <ele>1910.7</ele>
        <time>2018-08-05T11:45:00Z</time>
      </trkpt>
      <trkpt lat="44.30322" lon="6.56339">
        <ele>1910.8</ele>
        <time>2018-08-05T11:45:01Z</time>
      </trkpt>
      <trkpt lat="44.30318" lon="6.56345">
        <ele>1910.8</ele>
        <time>2018-08-05T11:45:02Z</time>
      </trkpt>
      <trkpt lat="44.30314" lon="6.5635">
        <ele>1910.2</ele>
        <time>2018-08-05T11:45:03Z</time>
      </trkpt>
      <trkpt lat="44.30311" lon="6.56354">
        <ele>1909.6</ele>
        <time>2018-08-05T11:45:04Z</time>
      </trkpt>
      <trkpt lat="44.30308" lon="6.56357">
        <ele>1909.1</ele>
        <time>2018-08-05T11:45:05Z</time>
      </trkpt>
      <trkpt lat="44.30304" lon="6.5636">
        <ele>1908.6</ele>
        <time>2018-08-05T11:45:06Z</time>
      </trkpt>
      <trkpt lat="44.303" lon="6.56366">
        <ele>1908.7</ele>
        <time>2018-08-05T11:45:07Z</time>
      </trkpt>
      <trkpt lat="44.30296" lon="6.56372">
        <ele>1908.4</ele>
        <time>2018-08-05T11:45:08Z</time>
      </trkpt>
      <trkpt lat="44.30291" lon="6.56379">
        <ele>1907.8</ele>
        <time>2018-08-05T11:45:09Z</time>
      </trkpt>
      <trkpt lat="44.30286" lon="6.56387">
        <ele>1906.9</ele>
        <time>2018-08-05T11:45:10Z</time>
      </trkpt>
      <trkpt lat="44.30281" lon="6.56395">
        <ele>1905.9</ele>
        <time>2018-08-05T11:45:11Z</time>
      </trkpt>
      <trkpt lat="44.30277" lon="6.56402">
        <ele>1905.1</ele>
        <time>2018-08-05T11:45:12Z</time>
      </trkpt>
      <trkpt lat="44.30272" lon="6.56409">
        <ele>1905.1</ele>
        <time>2018-08-05T11:45:13Z</time>
      </trkpt>
      <trkpt lat="44.30268" lon="6.56418">
        <ele>1904.9</ele>
        <time>2018-08-05T11:45:14Z</time>
      </trkpt>
      <trkpt lat="44.30265" lon="6.56426">
        <ele>1904.5</ele>
        <time>2018-08-05T11:45:15Z</time>
      </trkpt>
      <trkpt lat="44.30261" lon="6.56434">
        <ele>1904.2</ele>
        <time>2018-08-05T11:45:16Z</time>
      </trkpt>
      <trkpt lat="44.30256" lon="6.56442">
        <ele>1903.9</ele>
        <time>2018-08-05T11:45:17Z</time>
      </trkpt>
      <trkpt lat="44.30252" lon="6.56449">
        <ele>1903.3</ele>
        <time>2018-08-05T11:45:18Z</time>
      </trkpt>
      <trkpt lat="44.30247" lon="6.56458">
        <ele>1902.6</ele>
        <time>2018-08-05T11:45:19Z</time>
      </trkpt>
      <trkpt lat="44.30242" lon="6.56465">
        <ele>1902.7</ele>
        <time>2018-08-05T11:45:20Z</time>
      </trkpt>
      <trkpt lat="44.30237" lon="6.56472">
        <ele>1902.7</ele>
        <time>2018-08-05T11:45:21Z</time>
      </trkpt>
      <trkpt lat="44.30231" lon="6.56479">
        <ele>1902.3</ele>
        <time>2018-08-05T11:45:22Z</time>
      </trkpt>
      <trkpt lat="44.30225" lon="6.56485">
        <ele>1901.8</ele>
        <time>2018-08-05T11:45:23Z</time>
      </trkpt>
      <trkpt lat="44.30219" lon="6.56491">
        <ele>1900.9</ele>
        <time>2018-08-05T11:45:24Z</time>
      </trkpt>
      <trkpt lat="44.30214" lon="6.56497">
        <ele>1899.1</ele>
        <time>2018-08-05T11:45:25Z</time>
      </trkpt>
      <trkpt lat="44.30208" lon="6.56503">
        <ele>1898.2</ele>
        <time>2018-08-05T11:45:26Z</time>
      </trkpt>
      <trkpt lat="44.30202" lon="6.56508">
        <ele>1896.8</ele>
        <time>2018-08-05T11:45:27Z</time>
      </trkpt>
      <trkpt lat="44.30196" lon="6.56512">
        <ele>1895.5</ele>
        <time>2018-08-05T11:45:28Z</time>
      </trkpt>
      <trkpt lat="44.30189" lon="6.56517">
        <ele>1894</ele>
        <time>2018-08-05T11:45:29Z</time>
      </trkpt>
      <trkpt lat="44.30182" lon="6.56523">
        <ele>1892.7</ele>
        <time>2018-08-05T11:45:30Z</time>
      </trkpt>
      <trkpt lat="44.30174" lon="6.56529">
        <ele>1891.3</ele>
        <time>2018-08-05T11:45:31Z</time>
      </trkpt>
      <trkpt lat="44.30167" lon="6.56533">
        <ele>1889.6</ele>
        <time>2018-08-05T11:45:32Z</time>
      </trkpt>
      <trkpt lat="44.3016" lon="6.56536">
        <ele>1887.3</ele>
        <time>2018-08-05T11:45:33Z</time>
      </trkpt>
      <trkpt lat="44.30152" lon="6.5654">
        <ele>1885.6</ele>
        <time>2018-08-05T11:45:34Z</time>
      </trkpt>
      <trkpt lat="44.30146" lon="6.56544">
        <ele>1884.4</ele>
        <time>2018-08-05T11:45:35Z</time>
      </trkpt>
      <trkpt lat="44.30141" lon="6.56548">
        <ele>1883.2</ele>
        <time>2018-08-05T11:45:36Z</time>
      </trkpt>
      <trkpt lat="44.30137" lon="6.56553">
        <ele>1882.9</ele>
        <time>2018-08-05T11:45:37Z</time>
      </trkpt>
      <trkpt lat="44.30132" lon="6.5656">
        <ele>1882.7</ele>
        <time>2018-08-05T11:45:38Z</time>
      </trkpt>
      <trkpt lat="44.30129" lon="6.56567">
        <ele>1882.2</ele>
        <time>2018-08-05T11:45:39Z</time>
      </trkpt>
      <trkpt lat="44.30124" lon="6.56574">
        <ele>1882.3</ele>
        <time>2018-08-05T11:45:40Z</time>
      </trkpt>
      <trkpt lat="44.30118" lon="6.56579">
        <ele>1881.2</ele>
        <time>2018-08-05T11:45:41Z</time>
      </trkpt>
      <trkpt lat="44.30112" lon="6.56584">
        <ele>1879.5</ele>
        <time>2018-08-05T11:45:42Z</time>
      </trkpt>
      <trkpt lat="44.30104" lon="6.56587">
        <ele>1878.4</ele>
        <time>2018-08-05T11:45:43Z</time>
      </trkpt>
      <trkpt lat="44.30096" lon="6.56591">
        <ele>1876.9</ele>
        <time>2018-08-05T11:45:44Z</time>
      </trkpt>
      <trkpt lat="44.30088" lon="6.56594">
        <ele>1875.5</ele>
        <time>2018-08-05T11:45:45Z</time>
      </trkpt>
      <trkpt lat="44.30082" lon="6.56598">
        <ele>1874.1</ele>
        <time>2018-08-05T11:45:46Z</time>
      </trkpt>
      <trkpt lat="44.30075" lon="6.56602">
        <ele>1873.2</ele>
        <time>2018-08-05T11:45:47Z</time>
      </trkpt>
      <trkpt lat="44.30067" lon="6.56606">
        <ele>1872.2</ele>
        <time>2018-08-05T11:45:48Z</time>
      </trkpt>
      <trkpt lat="44.3006" lon="6.5661">
        <ele>1871.4</ele>
        <time>2018-08-05T11:45:49Z</time>
      </trkpt>
      <trkpt lat="44.30053" lon="6.56614">
        <ele>1870.7</ele>
        <time>2018-08-05T11:45:50Z</time>
      </trkpt>
      <trkpt lat="44.30045" lon="6.5662">
        <ele>1870.4</ele>
        <time>2018-08-05T11:45:51Z</time>
      </trkpt>
      <trkpt lat="44.30038" lon="6.56626">
        <ele>1869.8</ele>
        <time>2018-08-05T11:45:52Z</time>
      </trkpt>
      <trkpt lat="44.30032" lon="6.56631">
        <ele>1869.1</ele>
        <time>2018-08-05T11:45:53Z</time>
      </trkpt>
      <trkpt lat="44.30026" lon="6.56636">
        <ele>1868.4</ele>
        <time>2018-08-05T11:45:54Z</time>
      </trkpt>
      <trkpt lat="44.3002" lon="6.56639">
        <ele>1867.7</ele>
        <time>2018-08-05T11:45:55Z</time>
      </trkpt>
      <trkpt lat="44.30014" lon="6.56644">
        <ele>1867.2</ele>
        <time>2018-08-05T11:45:56Z</time>
      </trkpt>
      <trkpt lat="44.30007" lon="6.56648">
        <ele>1866.7</ele>
        <time>2018-08-05T11:45:57Z</time>
      </trkpt>
      <trkpt lat="44.30001" lon="6.56653">
        <ele>1866.1</ele>
        <time>2018-08-05T11:45:58Z</time>
      </trkpt>
      <trkpt lat="44.29996" lon="6.56658">
        <ele>1865.3</ele>
        <time>2018-08-05T11:45:59Z</time>
      </trkpt>
      <trkpt lat="44.2999" lon="6.56662">
        <ele>1864.5</ele>
        <time>2018-08-05T11:46:00Z</time>
      </trkpt>
      <trkpt lat="44.29986" lon="6.56667">
        <ele>1864.3</ele>
        <time>2018-08-05T11:46:01Z</time>
      </trkpt>
      <trkpt lat="44.29981" lon="6.56673">
        <ele>1863.6</ele>
        <time>2018-08-05T11:46:02Z</time>
      </trkpt>
      <trkpt lat="44.29978" lon="6.5668">
        <ele>1863.6</ele>
        <time>2018-08-05T11:46:03Z</time>
      </trkpt>
      <trkpt lat="44.29976" lon="6.56687">
        <ele>1864.1</ele>
        <time>2018-08-05T11:46:04Z</time>
      </trkpt>
      <trkpt lat="44.29975" lon="6.56694">
        <ele>1864.6</ele>
        <time>2018-08-05T11:46:05Z</time>
      </trkpt>
      <trkpt lat="44.29974" lon="6.567">
        <ele>1864.7</ele>
        <time>2018-08-05T11:46:06Z</time>
      </trkpt>
      <trkpt lat="44.29972" lon="6.56706">
        <ele>1864.6</ele>
        <time>2018-08-05T11:46:07Z</time>
      </trkpt>
      <trkpt lat="44.29969" lon="6.5671">
        <ele>1864.1</ele>
        <time>2018-08-05T11:46:08Z</time>
      </trkpt>
      <trkpt lat="44.29967" lon="6.56714">
        <ele>1863.2</ele>
        <time>2018-08-05T11:46:09Z</time>
      </trkpt>
      <trkpt lat="44.29965" lon="6.56716">
        <ele>1862.6</ele>
        <time>2018-08-05T11:46:10Z</time>
      </trkpt>
      <trkpt lat="44.29963" lon="6.5672">
        <ele>1862.3</ele>
        <time>2018-08-05T11:46:11Z</time>
      </trkpt>
      <trkpt lat="44.29957" lon="6.5672">
        <ele>1861.5</ele>
        <time>2018-08-05T11:46:49Z</time>
      </trkpt>
      <trkpt lat="44.29953" lon="6.5672">
        <ele>1861</ele>
        <time>2018-08-05T11:46:51Z</time>
      </trkpt>
      <trkpt lat="44.29951" lon="6.56717">
        <ele>1861</ele>
        <time>2018-08-05T11:46:52Z</time>
      </trkpt>
      <trkpt lat="44.29946" lon="6.56715">
        <ele>1861</ele>
        <time>2018-08-05T11:46:54Z</time>
      </trkpt>
      <trkpt lat="44.29942" lon="6.56714">
        <ele>1861</ele>
        <time>2018-08-05T11:46:56Z</time>
      </trkpt>
      <trkpt lat="44.29939" lon="6.56714">
        <ele>1861</ele>
        <time>2018-08-05T11:46:58Z</time>
      </trkpt>
      <trkpt lat="44.29934" lon="6.56714">
        <ele>1861</ele>
        <time>2018-08-05T11:47:00Z</time>
      </trkpt>
      <trkpt lat="44.29931" lon="6.56714">
        <ele>1861</ele>
        <time>2018-08-05T11:47:11Z</time>
      </trkpt>
      <trkpt lat="44.29934" lon="6.56723">
        <ele>1861</ele>
        <time>2018-08-05T11:49:40Z</time>
      </trkpt>
      <trkpt lat="44.29933" lon="6.56727">
        <ele>1861</ele>
        <time>2018-08-05T11:49:42Z</time>
      </trkpt>
      <trkpt lat="44.29932" lon="6.56731">
        <ele>1861</ele>
        <time>2018-08-05T11:49:43Z</time>
      </trkpt>
      <trkpt lat="44.2993" lon="6.56736">
        <ele>1861</ele>
        <time>2018-08-05T11:49:44Z</time>
      </trkpt>
      <trkpt lat="44.29927" lon="6.56744">
        <ele>1860.7</ele>
        <time>2018-08-05T11:49:45Z</time>
      </trkpt>
      <trkpt lat="44.29923" lon="6.56751">
        <ele>1860.3</ele>
        <time>2018-08-05T11:49:46Z</time>
      </trkpt>
      <trkpt lat="44.2992" lon="6.56758">
        <ele>1860.1</ele>
        <time>2018-08-05T11:49:47Z</time>
      </trkpt>
      <trkpt lat="44.29915" lon="6.56765">
        <ele>1860</ele>
        <time>2018-08-05T11:49:48Z</time>
      </trkpt>
      <trkpt lat="44.2991" lon="6.56771">
        <ele>1859.9</ele>
        <time>2018-08-05T11:49:49Z</time>
      </trkpt>
      <trkpt lat="44.29904" lon="6.56778">
        <ele>1859.8</ele>
        <time>2018-08-05T11:49:50Z</time>
      </trkpt>
      <trkpt lat="44.29898" lon="6.56782">
        <ele>1859.7</ele>
        <time>2018-08-05T11:49:51Z</time>
      </trkpt>
      <trkpt lat="44.29891" lon="6.56786">
        <ele>1859.5</ele>
        <time>2018-08-05T11:49:52Z</time>
      </trkpt>
      <trkpt lat="44.29884" lon="6.56789">
        <ele>1859.1</ele>
        <time>2018-08-05T11:49:53Z</time>
      </trkpt>
      <trkpt lat="44.29876" lon="6.56793">
        <ele>1858.5</ele>
        <time>2018-08-05T11:49:54Z</time>
      </trkpt>
      <trkpt lat="44.29868" lon="6.56797">
        <ele>1858.1</ele>
        <time>2018-08-05T11:49:55Z</time>
      </trkpt>
      <trkpt lat="44.2986" lon="6.56802">
        <ele>1857.6</ele>
        <time>2018-08-05T11:49:56Z</time>
      </trkpt>
      <trkpt lat="44.29853" lon="6.56808">
        <ele>1857.1</ele>
        <time>2018-08-05T11:49:57Z</time>
      </trkpt>
      <trkpt lat="44.29845" lon="6.56813">
        <ele>1856.8</ele>
        <time>2018-08-05T11:49:58Z</time>
      </trkpt>
      <trkpt lat="44.29837" lon="6.56818">
        <ele>1856.3</ele>
        <time>2018-08-05T11:49:59Z</time>
      </trkpt>
      <trkpt lat="44.29829" lon="6.56825">
        <ele>1855.8</ele>
        <time>2018-08-05T11:50:00Z</time>
      </trkpt>
      <trkpt lat="44.29821" lon="6.56831">
        <ele>1855.5</ele>
        <time>2018-08-05T11:50:01Z</time>
      </trkpt>
      <trkpt lat="44.29813" lon="6.56838">
        <ele>1855.1</ele>
        <time>2018-08-05T11:50:02Z</time>
      </trkpt>
      <trkpt lat="44.29805" lon="6.56844">
        <ele>1854.8</ele>
        <time>2018-08-05T11:50:03Z</time>
      </trkpt>
      <trkpt lat="44.29799" lon="6.5685">
        <ele>1854.7</ele>
        <time>2018-08-05T11:50:04Z</time>
      </trkpt>
      <trkpt lat="44.29793" lon="6.56856">
        <ele>1854.5</ele>
        <time>2018-08-05T11:50:05Z</time>
      </trkpt>
      <trkpt lat="44.29788" lon="6.56861">
        <ele>1854.2</ele>
        <time>2018-08-05T11:50:06Z</time>
      </trkpt>
      <trkpt lat="44.29783" lon="6.56866">
        <ele>1853.4</ele>
        <time>2018-08-05T11:50:07Z</time>
      </trkpt>
      <trkpt lat="44.29778" lon="6.5687">
        <ele>1852.7</ele>
        <time>2018-08-05T11:50:08Z</time>
      </trkpt>
      <trkpt lat="44.29775" lon="6.56872">
        <ele>1852.4</ele>
        <time>2018-08-05T11:50:09Z</time>
      </trkpt>
      <trkpt lat="44.29771" lon="6.56875">
        <ele>1852</ele>
        <time>2018-08-05T11:50:11Z</time>
      </trkpt>
      <trkpt lat="44.29768" lon="6.56877">
        <ele>1851.6</ele>
        <time>2018-08-05T11:50:14Z</time>
      </trkpt>
      <trkpt lat="44.29768" lon="6.56872">
        <ele>1851.3</ele>
        <time>2018-08-05T11:50:20Z</time>
      </trkpt>
      <trkpt lat="44.2977" lon="6.56868">
        <ele>1851.4</ele>
        <time>2018-08-05T11:50:22Z</time>
      </trkpt>
      <trkpt lat="44.2977" lon="6.56864">
        <ele>1851.1</ele>
        <time>2018-08-05T11:50:24Z</time>
      </trkpt>
      <trkpt lat="44.29772" lon="6.5686">
        <ele>1850.8</ele>
        <time>2018-08-05T11:50:27Z</time>
      </trkpt>
      <trkpt lat="44.29773" lon="6.56864">
        <ele>1851.8</ele>
        <time>2018-08-05T11:50:31Z</time>
      </trkpt>
      <trkpt lat="44.29772" lon="6.56852">
        <ele>1850.5</ele>
        <time>2018-08-05T11:50:59Z</time>
      </trkpt>
      <trkpt lat="44.29773" lon="6.56864">
        <ele>1852.1</ele>
        <time>2018-08-05T11:51:01Z</time>
      </trkpt>
      <trkpt lat="44.29771" lon="6.56876">
        <ele>1853.4</ele>
        <time>2018-08-05T11:51:11Z</time>
      </trkpt>
      <trkpt lat="44.2978" lon="6.5683">
        <ele>1849.3</ele>
        <time>2018-08-05T11:55:35Z</time>
      </trkpt>
      <trkpt lat="44.29773" lon="6.56829">
        <ele>1849</ele>
        <time>2018-08-05T11:55:37Z</time>
      </trkpt>
      <trkpt lat="44.29769" lon="6.56828">
        <ele>1848.6</ele>
        <time>2018-08-05T11:55:38Z</time>
      </trkpt>
      <trkpt lat="44.29772" lon="6.56832">
        <ele>1849.4</ele>
        <time>2018-08-05T11:55:39Z</time>
      </trkpt>
      <trkpt lat="44.29772" lon="6.56837">
        <ele>1850.4</ele>
        <time>2018-08-05T11:55:42Z</time>
      </trkpt>
      <trkpt lat="44.29773" lon="6.56843">
        <ele>1851.1</ele>
        <time>2018-08-05T11:55:46Z</time>
      </trkpt>
      <trkpt lat="44.29773" lon="6.56848">
        <ele>1851.7</ele>
        <time>2018-08-05T11:55:48Z</time>
      </trkpt>
      <trkpt lat="44.29773" lon="6.56856">
        <ele>1852.8</ele>
        <time>2018-08-05T11:55:53Z</time>
      </trkpt>
      <trkpt lat="44.29771" lon="6.5686">
        <ele>1852.6</ele>
        <time>2018-08-05T11:55:57Z</time>
      </trkpt>
      <trkpt lat="44.29771" lon="6.56866">
        <ele>1852.4</ele>
        <time>2018-08-05T11:55:59Z</time>
      </trkpt>
      <trkpt lat="44.29772" lon="6.56869">
        <ele>1852.2</ele>
        <time>2018-08-05T11:56:02Z</time>
      </trkpt>
      <trkpt lat="44.29769" lon="6.56871">
        <ele>1852.1</ele>
        <time>2018-08-05T11:56:05Z</time>
      </trkpt>
      <trkpt lat="44.29771" lon="6.56874">
        <ele>1852</ele>
        <time>2018-08-05T11:56:06Z</time>
      </trkpt>
      <trkpt lat="44.29773" lon="6.56884">
        <ele>1851.6</ele>
        <time>2018-08-05T11:56:08Z</time>
      </trkpt>
      <trkpt lat="44.29775" lon="6.56886">
        <ele>1851.4</ele>
        <time>2018-08-05T11:56:11Z</time>
      </trkpt>
      <trkpt lat="44.29772" lon="6.56893">
        <ele>1851</ele>
        <time>2018-08-05T11:56:13Z</time>
      </trkpt>
      <trkpt lat="44.29771" lon="6.56898">
        <ele>1850.7</ele>
        <time>2018-08-05T11:56:15Z</time>
      </trkpt>
      <trkpt lat="44.29769" lon="6.56903">
        <ele>1850.4</ele>
        <time>2018-08-05T11:56:17Z</time>
      </trkpt>
      <trkpt lat="44.29771" lon="6.56906">
        <ele>1851.8</ele>
        <time>2018-08-05T11:56:19Z</time>
      </trkpt>
      <trkpt lat="44.29764" lon="6.56908">
        <ele>1851.6</ele>
        <time>2018-08-05T11:56:21Z</time>
      </trkpt>
      <trkpt lat="44.29764" lon="6.569">
        <ele>1851.2</ele>
        <time>2018-08-05T11:56:23Z</time>
      </trkpt>
      <trkpt lat="44.29763" lon="6.56897">
        <ele>1851.4</ele>
        <time>2018-08-05T11:56:24Z</time>
      </trkpt>
      <trkpt lat="44.29768" lon="6.5687">
        <ele>1849.7</ele>
        <time>2018-08-05T11:56:27Z</time>
      </trkpt>
      <trkpt lat="44.29765" lon="6.56869">
        <ele>1850.4</ele>
        <time>2018-08-05T11:56:28Z</time>
      </trkpt>
      <trkpt lat="44.29763" lon="6.56865">
        <ele>1850.3</ele>
        <time>2018-08-05T11:56:31Z</time>
      </trkpt>
      <trkpt lat="44.29764" lon="6.5687">
        <ele>1851.5</ele>
        <time>2018-08-05T11:56:32Z</time>
      </trkpt>
      <trkpt lat="44.29767" lon="6.56867">
        <ele>1851.7</ele>
        <time>2018-08-05T11:56:34Z</time>
      </trkpt>
      <trkpt lat="44.29776" lon="6.5688">
        <ele>1852.2</ele>
        <time>2018-08-05T11:56:49Z</time>
      </trkpt>
      <trkpt lat="44.29779" lon="6.56877">
        <ele>1852.3</ele>
        <time>2018-08-05T11:56:50Z</time>
      </trkpt>
      <trkpt lat="44.29776" lon="6.56869">
        <ele>1852.5</ele>
        <time>2018-08-05T11:56:51Z</time>
      </trkpt>
      <trkpt lat="44.29774" lon="6.56873">
        <ele>1852.3</ele>
        <time>2018-08-05T11:56:54Z</time>
      </trkpt>
      <trkpt lat="44.29774" lon="6.56879">
        <ele>1851.9</ele>
        <time>2018-08-05T11:56:56Z</time>
      </trkpt>
      <trkpt lat="44.29769" lon="6.56885">
        <ele>1851.1</ele>
        <time>2018-08-05T11:56:58Z</time>
      </trkpt>
      <trkpt lat="44.29765" lon="6.56888">
        <ele>1850.5</ele>
        <time>2018-08-05T11:57:00Z</time>
      </trkpt>
      <trkpt lat="44.29761" lon="6.5689">
        <ele>1850</ele>
        <time>2018-08-05T11:57:02Z</time>
      </trkpt>
      <trkpt lat="44.29757" lon="6.56891">
        <ele>1849.7</ele>
        <time>2018-08-05T11:57:04Z</time>
      </trkpt>
      <trkpt lat="44.29754" lon="6.5689">
        <ele>1849.4</ele>
        <time>2018-08-05T11:57:06Z</time>
      </trkpt>
      <trkpt lat="44.2975" lon="6.56891">
        <ele>1849.1</ele>
        <time>2018-08-05T11:57:08Z</time>
      </trkpt>
      <trkpt lat="44.29747" lon="6.56893">
        <ele>1848.7</ele>
        <time>2018-08-05T11:57:10Z</time>
      </trkpt>
      <trkpt lat="44.29743" lon="6.56895">
        <ele>1848.1</ele>
        <time>2018-08-05T11:57:12Z</time>
      </trkpt>
      <trkpt lat="44.29739" lon="6.56897">
        <ele>1847.5</ele>
        <time>2018-08-05T11:57:14Z</time>
      </trkpt>
      <trkpt lat="44.29733" lon="6.56899">
        <ele>1847.1</ele>
        <time>2018-08-05T11:57:16Z</time>
      </trkpt>
      <trkpt lat="44.2973" lon="6.569">
        <ele>1846.9</ele>
        <time>2018-08-05T11:57:17Z</time>
      </trkpt>
      <trkpt lat="44.29727" lon="6.56902">
        <ele>1846.6</ele>
        <time>2018-08-05T11:57:18Z</time>
      </trkpt>
      <trkpt lat="44.29724" lon="6.56905">
        <ele>1846.3</ele>
        <time>2018-08-05T11:57:19Z</time>
      </trkpt>
      <trkpt lat="44.2972" lon="6.56907">
        <ele>1845.9</ele>
        <time>2018-08-05T11:57:20Z</time>
      </trkpt>
      <trkpt lat="44.29715" lon="6.56909">
        <ele>1845.2</ele>
        <time>2018-08-05T11:57:21Z</time>
      </trkpt>
      <trkpt lat="44.2971" lon="6.56912">
        <ele>1844.7</ele>
        <time>2018-08-05T11:57:22Z</time>
      </trkpt>
      <trkpt lat="44.29706" lon="6.56914">
        <ele>1844.3</ele>
        <time>2018-08-05T11:57:23Z</time>
      </trkpt>
      <trkpt lat="44.297" lon="6.56918">
        <ele>1844</ele>
        <time>2018-08-05T11:57:24Z</time>
      </trkpt>
      <trkpt lat="44.29695" lon="6.56921">
        <ele>1843.6</ele>
        <time>2018-08-05T11:57:25Z</time>
      </trkpt>
      <trkpt lat="44.29689" lon="6.56924">
        <ele>1842.7</ele>
        <time>2018-08-05T11:57:26Z</time>
      </trkpt>
      <trkpt lat="44.29682" lon="6.56928">
        <ele>1841.8</ele>
        <time>2018-08-05T11:57:27Z</time>
      </trkpt>
      <trkpt lat="44.29675" lon="6.56932">
        <ele>1841.2</ele>
        <time>2018-08-05T11:57:28Z</time>
      </trkpt>
      <trkpt lat="44.29669" lon="6.56936">
        <ele>1840.8</ele>
        <time>2018-08-05T11:57:29Z</time>
      </trkpt>
      <trkpt lat="44.29663" lon="6.5694">
        <ele>1840.3</ele>
        <time>2018-08-05T11:57:30Z</time>
      </trkpt>
      <trkpt lat="44.29657" lon="6.56945">
        <ele>1839.4</ele>
        <time>2018-08-05T11:57:31Z</time>
      </trkpt>
      <trkpt lat="44.29651" lon="6.56949">
        <ele>1838.8</ele>
        <time>2018-08-05T11:57:32Z</time>
      </trkpt>
      <trkpt lat="44.29647" lon="6.56952">
        <ele>1838.4</ele>
        <time>2018-08-05T11:57:33Z</time>
      </trkpt>
      <trkpt lat="44.29642" lon="6.56956">
        <ele>1837.7</ele>
        <time>2018-08-05T11:57:34Z</time>
      </trkpt>
      <trkpt lat="44.29637" lon="6.5696">
        <ele>1837</ele>
        <time>2018-08-05T11:57:35Z</time>
      </trkpt>
      <trkpt lat="44.29632" lon="6.56963">
        <ele>1836.5</ele>
        <time>2018-08-05T11:57:36Z</time>
      </trkpt>
      <trkpt lat="44.29627" lon="6.56965">
        <ele>1836.3</ele>
        <time>2018-08-05T11:57:37Z</time>
      </trkpt>
      <trkpt lat="44.29623" lon="6.56965">
        <ele>1836.1</ele>
        <time>2018-08-05T11:57:38Z</time>
      </trkpt>
      <trkpt lat="44.29618" lon="6.56962">
        <ele>1834.7</ele>
        <time>2018-08-05T11:57:39Z</time>
      </trkpt>
      <trkpt lat="44.29613" lon="6.56958">
        <ele>1833.4</ele>
        <time>2018-08-05T11:57:40Z</time>
      </trkpt>
      <trkpt lat="44.29609" lon="6.56951">
        <ele>1832.1</ele>
        <time>2018-08-05T11:57:41Z</time>
      </trkpt>
      <trkpt lat="44.29604" lon="6.56945">
        <ele>1831.5</ele>
        <time>2018-08-05T11:57:42Z</time>
      </trkpt>
      <trkpt lat="44.29598" lon="6.56938">
        <ele>1830.7</ele>
        <time>2018-08-05T11:57:43Z</time>
      </trkpt>
      <trkpt lat="44.29593" lon="6.56931">
        <ele>1830.1</ele>
        <time>2018-08-05T11:57:44Z</time>
      </trkpt>
      <trkpt lat="44.29586" lon="6.56926">
        <ele>1829.3</ele>
        <time>2018-08-05T11:57:45Z</time>
      </trkpt>
      <trkpt lat="44.2958" lon="6.56921">
        <ele>1829</ele>
        <time>2018-08-05T11:57:46Z</time>
      </trkpt>
      <trkpt lat="44.29573" lon="6.5692">
        <ele>1829</ele>
        <time>2018-08-05T11:57:47Z</time>
      </trkpt>
      <trkpt lat="44.29566" lon="6.5692">
        <ele>1829</ele>
        <time>2018-08-05T11:57:48Z</time>
      </trkpt>
      <trkpt lat="44.29559" lon="6.56919">
        <ele>1829</ele>
        <time>2018-08-05T11:57:49Z</time>
      </trkpt>
      <trkpt lat="44.29553" lon="6.56917">
        <ele>1829</ele>
        <time>2018-08-05T11:57:50Z</time>
      </trkpt>
      <trkpt lat="44.29538" lon="6.56914">
        <ele>1829</ele>
        <time>2018-08-05T11:57:51Z</time>
      </trkpt>
      <trkpt lat="44.29529" lon="6.56919">
        <ele>1829</ele>
        <time>2018-08-05T11:57:52Z</time>
      </trkpt>
      <trkpt lat="44.29526" lon="6.56929">
        <ele>1829</ele>
        <time>2018-08-05T11:57:53Z</time>
      </trkpt>
      <trkpt lat="44.29519" lon="6.56934">
        <ele>1828.9</ele>
        <time>2018-08-05T11:57:54Z</time>
      </trkpt>
      <trkpt lat="44.29511" lon="6.56936">
        <ele>1828.8</ele>
        <time>2018-08-05T11:57:55Z</time>
      </trkpt>
      <trkpt lat="44.29503" lon="6.56938">
        <ele>1828.7</ele>
        <time>2018-08-05T11:57:56Z</time>
      </trkpt>
      <trkpt lat="44.29494" lon="6.56938">
        <ele>1828.6</ele>
        <time>2018-08-05T11:57:57Z</time>
      </trkpt>
      <trkpt lat="44.29486" lon="6.56938">
        <ele>1828.4</ele>
        <time>2018-08-05T11:57:58Z</time>
      </trkpt>
      <trkpt lat="44.29477" lon="6.56939">
        <ele>1828.1</ele>
        <time>2018-08-05T11:57:59Z</time>
      </trkpt>
      <trkpt lat="44.29469" lon="6.56939">
        <ele>1827.4</ele>
        <time>2018-08-05T11:58:00Z</time>
      </trkpt>
      <trkpt lat="44.2946" lon="6.5694">
        <ele>1826.4</ele>
        <time>2018-08-05T11:58:01Z</time>
      </trkpt>
      <trkpt lat="44.29451" lon="6.5694">
        <ele>1825.7</ele>
        <time>2018-08-05T11:58:02Z</time>
      </trkpt>
      <trkpt lat="44.29442" lon="6.56941">
        <ele>1824.7</ele>
        <time>2018-08-05T11:58:03Z</time>
      </trkpt>
      <trkpt lat="44.29434" lon="6.56943">
        <ele>1824.2</ele>
        <time>2018-08-05T11:58:04Z</time>
      </trkpt>
      <trkpt lat="44.29425" lon="6.56942">
        <ele>1823.9</ele>
        <time>2018-08-05T11:58:05Z</time>
      </trkpt>
      <trkpt lat="44.29416" lon="6.56943">
        <ele>1823.5</ele>
        <time>2018-08-05T11:58:06Z</time>
      </trkpt>
      <trkpt lat="44.29408" lon="6.56944">
        <ele>1823.2</ele>
        <time>2018-08-05T11:58:07Z</time>
      </trkpt>
      <trkpt lat="44.294" lon="6.56946">
        <ele>1822.5</ele>
        <time>2018-08-05T11:58:08Z</time>
      </trkpt>
      <trkpt lat="44.29393" lon="6.56947">
        <ele>1821.9</ele>
        <time>2018-08-05T11:58:09Z</time>
      </trkpt>
      <trkpt lat="44.29384" lon="6.56947">
        <ele>1821.4</ele>
        <time>2018-08-05T11:58:10Z</time>
      </trkpt>
      <trkpt lat="44.29376" lon="6.56948">
        <ele>1821</ele>
        <time>2018-08-05T11:58:11Z</time>
      </trkpt>
      <trkpt lat="44.29368" lon="6.56949">
        <ele>1819.6</ele>
        <time>2018-08-05T11:58:12Z</time>
      </trkpt>
      <trkpt lat="44.29359" lon="6.56949">
        <ele>1818.7</ele>
        <time>2018-08-05T11:58:13Z</time>
      </trkpt>
      <trkpt lat="44.29351" lon="6.56948">
        <ele>1817.5</ele>
        <time>2018-08-05T11:58:14Z</time>
      </trkpt>
      <trkpt lat="44.29343" lon="6.56947">
        <ele>1816.5</ele>
        <time>2018-08-05T11:58:15Z</time>
      </trkpt>
      <trkpt lat="44.29335" lon="6.56946">
        <ele>1815.8</ele>
        <time>2018-08-05T11:58:16Z</time>
      </trkpt>
      <trkpt lat="44.29327" lon="6.56946">
        <ele>1814.9</ele>
        <time>2018-08-05T11:58:17Z</time>
      </trkpt>
      <trkpt lat="44.29319" lon="6.56949">
        <ele>1814</ele>
        <time>2018-08-05T11:58:18Z</time>
      </trkpt>
      <trkpt lat="44.29312" lon="6.56956">
        <ele>1813.5</ele>
        <time>2018-08-05T11:58:19Z</time>
      </trkpt>
      <trkpt lat="44.29306" lon="6.56965">
        <ele>1812.8</ele>
        <time>2018-08-05T11:58:20Z</time>
      </trkpt>
      <trkpt lat="44.29301" lon="6.56974">
        <ele>1811.8</ele>
        <time>2018-08-05T11:58:21Z</time>
      </trkpt>
      <trkpt lat="44.29295" lon="6.56984">
        <ele>1811.1</ele>
        <time>2018-08-05T11:58:22Z</time>
      </trkpt>
      <trkpt lat="44.29287" lon="6.56992">
        <ele>1810.4</ele>
        <time>2018-08-05T11:58:23Z</time>
      </trkpt>
      <trkpt lat="44.29279" lon="6.56999">
        <ele>1809.3</ele>
        <time>2018-08-05T11:58:24Z</time>
      </trkpt>
      <trkpt lat="44.2927" lon="6.57004">
        <ele>1808.8</ele>
        <time>2018-08-05T11:58:25Z</time>
      </trkpt>
      <trkpt lat="44.29261" lon="6.57008">
        <ele>1808.5</ele>
        <time>2018-08-05T11:58:26Z</time>
      </trkpt>
      <trkpt lat="44.29252" lon="6.57009">
        <ele>1808.3</ele>
        <time>2018-08-05T11:58:27Z</time>
      </trkpt>
      <trkpt lat="44.29243" lon="6.57007">
        <ele>1808</ele>
        <time>2018-08-05T11:58:28Z</time>
      </trkpt>
      <trkpt lat="44.29235" lon="6.57004">
        <ele>1807.1</ele>
        <time>2018-08-05T11:58:29Z</time>
      </trkpt>
      <trkpt lat="44.29225" lon="6.57002">
        <ele>1806.1</ele>
        <time>2018-08-05T11:58:30Z</time>
      </trkpt>
      <trkpt lat="44.29216" lon="6.57003">
        <ele>1805.6</ele>
        <time>2018-08-05T11:58:31Z</time>
      </trkpt>
      <trkpt lat="44.29207" lon="6.57005">
        <ele>1804.8</ele>
        <time>2018-08-05T11:58:32Z</time>
      </trkpt>
      <trkpt lat="44.29198" lon="6.57011">
        <ele>1803.9</ele>
        <time>2018-08-05T11:58:33Z</time>
      </trkpt>
      <trkpt lat="44.2919" lon="6.5702">
        <ele>1803.3</ele>
        <time>2018-08-05T11:58:34Z</time>
      </trkpt>
      <trkpt lat="44.29183" lon="6.57029">
        <ele>1802.6</ele>
        <time>2018-08-05T11:58:35Z</time>
      </trkpt>
      <trkpt lat="44.29176" lon="6.57038">
        <ele>1801.2</ele>
        <time>2018-08-05T11:58:36Z</time>
      </trkpt>
      <trkpt lat="44.29168" lon="6.57047">
        <ele>1800.4</ele>
        <time>2018-08-05T11:58:37Z</time>
      </trkpt>
      <trkpt lat="44.29161" lon="6.57057">
        <ele>1799</ele>
        <time>2018-08-05T11:58:38Z</time>
      </trkpt>
      <trkpt lat="44.29153" lon="6.57066">
        <ele>1798.1</ele>
        <time>2018-08-05T11:58:39Z</time>
      </trkpt>
      <trkpt lat="44.29145" lon="6.57077">
        <ele>1797</ele>
        <time>2018-08-05T11:58:40Z</time>
      </trkpt>
      <trkpt lat="44.29137" lon="6.57086">
        <ele>1796.1</ele>
        <time>2018-08-05T11:58:41Z</time>
      </trkpt>
      <trkpt lat="44.2913" lon="6.57095">
        <ele>1795.6</ele>
        <time>2018-08-05T11:58:42Z</time>
      </trkpt>
      <trkpt lat="44.29122" lon="6.57105">
        <ele>1795</ele>
        <time>2018-08-05T11:58:43Z</time>
      </trkpt>
      <trkpt lat="44.29114" lon="6.57115">
        <ele>1793.9</ele>
        <time>2018-08-05T11:58:44Z</time>
      </trkpt>
      <trkpt lat="44.29106" lon="6.57125">
        <ele>1793.4</ele>
        <time>2018-08-05T11:58:45Z</time>
      </trkpt>
      <trkpt lat="44.29099" lon="6.57134">
        <ele>1792.9</ele>
        <time>2018-08-05T11:58:46Z</time>
      </trkpt>
      <trkpt lat="44.29091" lon="6.57143">
        <ele>1792.3</ele>
        <time>2018-08-05T11:58:47Z</time>
      </trkpt>
      <trkpt lat="44.29083" lon="6.57151">
        <ele>1791.7</ele>
        <time>2018-08-05T11:58:48Z</time>
      </trkpt>
      <trkpt lat="44.29074" lon="6.57159">
        <ele>1790.6</ele>
        <time>2018-08-05T11:58:49Z</time>
      </trkpt>
      <trkpt lat="44.29065" lon="6.57166">
        <ele>1789.5</ele>
        <time>2018-08-05T11:58:50Z</time>
      </trkpt>
      <trkpt lat="44.29056" lon="6.57173">
        <ele>1789</ele>
        <time>2018-08-05T11:58:51Z</time>
      </trkpt>
      <trkpt lat="44.29046" lon="6.57179">
        <ele>1788.2</ele>
        <time>2018-08-05T11:58:52Z</time>
      </trkpt>
      <trkpt lat="44.29036" lon="6.57184">
        <ele>1786.6</ele>
        <time>2018-08-05T11:58:53Z</time>
      </trkpt>
      <trkpt lat="44.29027" lon="6.57187">
        <ele>1785.8</ele>
        <time>2018-08-05T11:58:54Z</time>
      </trkpt>
      <trkpt lat="44.29019" lon="6.5719">
        <ele>1785.4</ele>
        <time>2018-08-05T11:58:55Z</time>
      </trkpt>
      <trkpt lat="44.2901" lon="6.57192">
        <ele>1784.9</ele>
        <time>2018-08-05T11:58:56Z</time>
      </trkpt>
      <trkpt lat="44.29001" lon="6.57193">
        <ele>1783.9</ele>
        <time>2018-08-05T11:58:57Z</time>
      </trkpt>
      <trkpt lat="44.28992" lon="6.57194">
        <ele>1782.8</ele>
        <time>2018-08-05T11:58:58Z</time>
      </trkpt>
      <trkpt lat="44.28983" lon="6.57197">
        <ele>1782.2</ele>
        <time>2018-08-05T11:58:59Z</time>
      </trkpt>
      <trkpt lat="44.28973" lon="6.572">
        <ele>1781.6</ele>
        <time>2018-08-05T11:59:00Z</time>
      </trkpt>
      <trkpt lat="44.28966" lon="6.57207">
        <ele>1780.6</ele>
        <time>2018-08-05T11:59:01Z</time>
      </trkpt>
      <trkpt lat="44.28959" lon="6.57214">
        <ele>1779.9</ele>
        <time>2018-08-05T11:59:02Z</time>
      </trkpt>
      <trkpt lat="44.28954" lon="6.5722">
        <ele>1779.5</ele>
        <time>2018-08-05T11:59:03Z</time>
      </trkpt>
      <trkpt lat="44.28949" lon="6.57224">
        <ele>1779</ele>
        <time>2018-08-05T11:59:04Z</time>
      </trkpt>
      <trkpt lat="44.28945" lon="6.57226">
        <ele>1779</ele>
        <time>2018-08-05T11:59:05Z</time>
      </trkpt>
      <trkpt lat="44.28943" lon="6.57225">
        <ele>1779</ele>
        <time>2018-08-05T11:59:06Z</time>
      </trkpt>
      <trkpt lat="44.2894" lon="6.57223">
        <ele>1779</ele>
        <time>2018-08-05T11:59:07Z</time>
      </trkpt>
      <trkpt lat="44.28939" lon="6.57215">
        <ele>1779</ele>
        <time>2018-08-05T11:59:09Z</time>
      </trkpt>
      <trkpt lat="44.2894" lon="6.57209">
        <ele>1779</ele>
        <time>2018-08-05T11:59:11Z</time>
      </trkpt>
      <trkpt lat="44.28943" lon="6.57206">
        <ele>1779</ele>
        <time>2018-08-05T11:59:13Z</time>
      </trkpt>
      <trkpt lat="44.28947" lon="6.57204">
        <ele>1779.1</ele>
        <time>2018-08-05T11:59:15Z</time>
      </trkpt>
      <trkpt lat="44.28951" lon="6.57198">
        <ele>1779.3</ele>
        <time>2018-08-05T11:59:17Z</time>
      </trkpt>
      <trkpt lat="44.28954" lon="6.57194">
        <ele>1779.5</ele>
        <time>2018-08-05T11:59:18Z</time>
      </trkpt>
      <trkpt lat="44.28956" lon="6.5719">
        <ele>1779.6</ele>
        <time>2018-08-05T11:59:19Z</time>
      </trkpt>
      <trkpt lat="44.28958" lon="6.57188">
        <ele>1779.7</ele>
        <time>2018-08-05T11:59:20Z</time>
      </trkpt>
      <trkpt lat="44.28961" lon="6.57185">
        <ele>1779.8</ele>
        <time>2018-08-05T11:59:21Z</time>
      </trkpt>
      <trkpt lat="44.28965" lon="6.57183">
        <ele>1780</ele>
        <time>2018-08-05T11:59:22Z</time>
      </trkpt>
      <trkpt lat="44.28969" lon="6.57181">
        <ele>1780.1</ele>
        <time>2018-08-05T11:59:23Z</time>
      </trkpt>
      <trkpt lat="44.28972" lon="6.57177">
        <ele>1780.2</ele>
        <time>2018-08-05T11:59:24Z</time>
      </trkpt>
      <trkpt lat="44.28977" lon="6.57174">
        <ele>1780.4</ele>
        <time>2018-08-05T11:59:25Z</time>
      </trkpt>
      <trkpt lat="44.28981" lon="6.5717">
        <ele>1780.5</ele>
        <time>2018-08-05T11:59:26Z</time>
      </trkpt>
      <trkpt lat="44.28985" lon="6.57166">
        <ele>1780.7</ele>
        <time>2018-08-05T11:59:27Z</time>
      </trkpt>
      <trkpt lat="44.2899" lon="6.57162">
        <ele>1780.9</ele>
        <time>2018-08-05T11:59:28Z</time>
      </trkpt>
      <trkpt lat="44.28994" lon="6.57157">
        <ele>1781.1</ele>
        <time>2018-08-05T11:59:29Z</time>
      </trkpt>
      <trkpt lat="44.28998" lon="6.57151">
        <ele>1781.3</ele>
        <time>2018-08-05T11:59:30Z</time>
      </trkpt>
      <trkpt lat="44.29003" lon="6.57144">
        <ele>1781.5</ele>
        <time>2018-08-05T11:59:31Z</time>
      </trkpt>
      <trkpt lat="44.29007" lon="6.57138">
        <ele>1781.8</ele>
        <time>2018-08-05T11:59:32Z</time>
      </trkpt>
      <trkpt lat="44.29011" lon="6.5713">
        <ele>1782</ele>
        <time>2018-08-05T11:59:33Z</time>
      </trkpt>
      <trkpt lat="44.29016" lon="6.57121">
        <ele>1782.2</ele>
        <time>2018-08-05T11:59:34Z</time>
      </trkpt>
      <trkpt lat="44.29021" lon="6.57112">
        <ele>1782.5</ele>
        <time>2018-08-05T11:59:35Z</time>
      </trkpt>
      <trkpt lat="44.29026" lon="6.57104">
        <ele>1782.7</ele>
        <time>2018-08-05T11:59:36Z</time>
      </trkpt>
      <trkpt lat="44.2903" lon="6.57095">
        <ele>1783</ele>
        <time>2018-08-05T11:59:37Z</time>
      </trkpt>
      <trkpt lat="44.29036" lon="6.57087">
        <ele>1783.2</ele>
        <time>2018-08-05T11:59:38Z</time>
      </trkpt>
      <trkpt lat="44.29041" lon="6.57078">
        <ele>1783.5</ele>
        <time>2018-08-05T11:59:39Z</time>
      </trkpt>
      <trkpt lat="44.29047" lon="6.57071">
        <ele>1783.7</ele>
        <time>2018-08-05T11:59:40Z</time>
      </trkpt>
      <trkpt lat="44.29053" lon="6.57064">
        <ele>1784</ele>
        <time>2018-08-05T11:59:41Z</time>
      </trkpt>
      <trkpt lat="44.29058" lon="6.57056">
        <ele>1784.2</ele>
        <time>2018-08-05T11:59:42Z</time>
      </trkpt>
      <trkpt lat="44.29063" lon="6.57049">
        <ele>1784.5</ele>
        <time>2018-08-05T11:59:43Z</time>
      </trkpt>
      <trkpt lat="44.29069" lon="6.57041">
        <ele>1784.6</ele>
        <time>2018-08-05T11:59:44Z</time>
      </trkpt>
      <trkpt lat="44.29074" lon="6.57035">
        <ele>1784.8</ele>
        <time>2018-08-05T11:59:45Z</time>
      </trkpt>
      <trkpt lat="44.29079" lon="6.57028">
        <ele>1784.9</ele>
        <time>2018-08-05T11:59:46Z</time>
      </trkpt>
      <trkpt lat="44.29084" lon="6.57022">
        <ele>1785</ele>
        <time>2018-08-05T11:59:47Z</time>
      </trkpt>
      <trkpt lat="44.29089" lon="6.57015">
        <ele>1785.2</ele>
        <time>2018-08-05T11:59:48Z</time>
      </trkpt>
      <trkpt lat="44.29093" lon="6.57009">
        <ele>1785.3</ele>
        <time>2018-08-05T11:59:49Z</time>
      </trkpt>
      <trkpt lat="44.29097" lon="6.57003">
        <ele>1785.5</ele>
        <time>2018-08-05T11:59:50Z</time>
      </trkpt>
      <trkpt lat="44.29101" lon="6.56997">
        <ele>1785.6</ele>
        <time>2018-08-05T11:59:51Z</time>
      </trkpt>
      <trkpt lat="44.29105" lon="6.56992">
        <ele>1785.7</ele>
        <time>2018-08-05T11:59:52Z</time>
      </trkpt>
      <trkpt lat="44.29108" lon="6.56986">
        <ele>1785.9</ele>
        <time>2018-08-05T11:59:53Z</time>
      </trkpt>
      <trkpt lat="44.29111" lon="6.5698">
        <ele>1786.2</ele>
        <time>2018-08-05T11:59:54Z</time>
      </trkpt>
      <trkpt lat="44.29112" lon="6.56973">
        <ele>1786.4</ele>
        <time>2018-08-05T11:59:55Z</time>
      </trkpt>
      <trkpt lat="44.29114" lon="6.56966">
        <ele>1786.7</ele>
        <time>2018-08-05T11:59:56Z</time>
      </trkpt>
      <trkpt lat="44.29115" lon="6.56959">
        <ele>1787.1</ele>
        <time>2018-08-05T11:59:57Z</time>
      </trkpt>
      <trkpt lat="44.29116" lon="6.56952">
        <ele>1787.4</ele>
        <time>2018-08-05T11:59:58Z</time>
      </trkpt>
      <trkpt lat="44.29116" lon="6.56944">
        <ele>1787.8</ele>
        <time>2018-08-05T11:59:59Z</time>
      </trkpt>
      <trkpt lat="44.29116" lon="6.56938">
        <ele>1788.2</ele>
        <time>2018-08-05T12:00:00Z</time>
      </trkpt>
      <trkpt lat="44.29115" lon="6.5693">
        <ele>1789.3</ele>
        <time>2018-08-05T12:00:01Z</time>
      </trkpt>
      <trkpt lat="44.29113" lon="6.56924">
        <ele>1790.3</ele>
        <time>2018-08-05T12:00:02Z</time>
      </trkpt>
      <trkpt lat="44.29109" lon="6.56917">
        <ele>1791.4</ele>
        <time>2018-08-05T12:00:03Z</time>
      </trkpt>
      <trkpt lat="44.29105" lon="6.56913">
        <ele>1792.5</ele>
        <time>2018-08-05T12:00:04Z</time>
      </trkpt>
      <trkpt lat="44.29101" lon="6.5691">
        <ele>1793.4</ele>
        <time>2018-08-05T12:00:05Z</time>
      </trkpt>
      <trkpt lat="44.29095" lon="6.56908">
        <ele>1794.5</ele>
        <time>2018-08-05T12:00:06Z</time>
      </trkpt>
      <trkpt lat="44.2909" lon="6.56907">
        <ele>1795.5</ele>
        <time>2018-08-05T12:00:07Z</time>
      </trkpt>
      <trkpt lat="44.29084" lon="6.56907">
        <ele>1796.5</ele>
        <time>2018-08-05T12:00:08Z</time>
      </trkpt>
      <trkpt lat="44.29079" lon="6.56907">
        <ele>1797.4</ele>
        <time>2018-08-05T12:00:09Z</time>
      </trkpt>
      <trkpt lat="44.29074" lon="6.56907">
        <ele>1797.7</ele>
        <time>2018-08-05T12:00:10Z</time>
      </trkpt>
      <trkpt lat="44.29069" lon="6.56908">
        <ele>1797.3</ele>
        <time>2018-08-05T12:00:11Z</time>
      </trkpt>
      <trkpt lat="44.29064" lon="6.56908">
        <ele>1796.9</ele>
        <time>2018-08-05T12:00:12Z</time>
      </trkpt>
      <trkpt lat="44.29059" lon="6.56909">
        <ele>1796.6</ele>
        <time>2018-08-05T12:00:13Z</time>
      </trkpt>
      <trkpt lat="44.29055" lon="6.56909">
        <ele>1796.3</ele>
        <time>2018-08-05T12:00:14Z</time>
      </trkpt>
      <trkpt lat="44.2905" lon="6.56909">
        <ele>1796.1</ele>
        <time>2018-08-05T12:00:15Z</time>
      </trkpt>
      <trkpt lat="44.29046" lon="6.56908">
        <ele>1795.8</ele>
        <time>2018-08-05T12:00:16Z</time>
      </trkpt>
      <trkpt lat="44.29041" lon="6.56906">
        <ele>1795.7</ele>
        <time>2018-08-05T12:00:17Z</time>
      </trkpt>
      <trkpt lat="44.29037" lon="6.56905">
        <ele>1795.7</ele>
        <time>2018-08-05T12:00:18Z</time>
      </trkpt>
      <trkpt lat="44.29033" lon="6.56903">
        <ele>1796</ele>
        <time>2018-08-05T12:00:19Z</time>
      </trkpt>
      <trkpt lat="44.2903" lon="6.56898">
        <ele>1796.2</ele>
        <time>2018-08-05T12:00:20Z</time>
      </trkpt>
      <trkpt lat="44.29026" lon="6.56894">
        <ele>1796.6</ele>
        <time>2018-08-05T12:00:21Z</time>
      </trkpt>
      <trkpt lat="44.29024" lon="6.56889">
        <ele>1796.9</ele>
        <time>2018-08-05T12:00:22Z</time>
      </trkpt>
      <trkpt lat="44.29022" lon="6.56884">
        <ele>1797.2</ele>
        <time>2018-08-05T12:00:23Z</time>
      </trkpt>
      <trkpt lat="44.29021" lon="6.56879">
        <ele>1797.5</ele>
        <time>2018-08-05T12:00:24Z</time>
      </trkpt>
      <trkpt lat="44.2902" lon="6.56874">
        <ele>1797.7</ele>
        <time>2018-08-05T12:00:25Z</time>
      </trkpt>
      <trkpt lat="44.29017" lon="6.56868">
        <ele>1798</ele>
        <time>2018-08-05T12:00:27Z</time>
      </trkpt>
      <trkpt lat="44.29014" lon="6.56865">
        <ele>1798</ele>
        <time>2018-08-05T12:00:29Z</time>
      </trkpt>
      <trkpt lat="44.29009" lon="6.56865">
        <ele>1798</ele>
        <time>2018-08-05T12:00:31Z</time>
      </trkpt>
      <trkpt lat="44.29003" lon="6.56865">
        <ele>1798</ele>
        <time>2018-08-05T12:00:33Z</time>
      </trkpt>
      <trkpt lat="44.29" lon="6.56866">
        <ele>1798.1</ele>
        <time>2018-08-05T12:00:34Z</time>
      </trkpt>
      <trkpt lat="44.28997" lon="6.56867">
        <ele>1798.4</ele>
        <time>2018-08-05T12:00:35Z</time>
      </trkpt>
      <trkpt lat="44.28993" lon="6.5687">
        <ele>1798.8</ele>
        <time>2018-08-05T12:00:36Z</time>
      </trkpt>
      <trkpt lat="44.2899" lon="6.56872">
        <ele>1799.1</ele>
        <time>2018-08-05T12:00:37Z</time>
      </trkpt>
      <trkpt lat="44.28986" lon="6.56874">
        <ele>1799.5</ele>
        <time>2018-08-05T12:00:38Z</time>
      </trkpt>
      <trkpt lat="44.28982" lon="6.56877">
        <ele>1799.8</ele>
        <time>2018-08-05T12:00:39Z</time>
      </trkpt>
      <trkpt lat="44.28977" lon="6.5688">
        <ele>1800.2</ele>
        <time>2018-08-05T12:00:40Z</time>
      </trkpt>
      <trkpt lat="44.28973" lon="6.56883">
        <ele>1800.5</ele>
        <time>2018-08-05T12:00:41Z</time>
      </trkpt>
      <trkpt lat="44.28969" lon="6.56886">
        <ele>1800.7</ele>
        <time>2018-08-05T12:00:42Z</time>
      </trkpt>
      <trkpt lat="44.28965" lon="6.5689">
        <ele>1801</ele>
        <time>2018-08-05T12:00:43Z</time>
      </trkpt>
      <trkpt lat="44.28961" lon="6.56893">
        <ele>1801.2</ele>
        <time>2018-08-05T12:00:44Z</time>
      </trkpt>
      <trkpt lat="44.28957" lon="6.56896">
        <ele>1801.4</ele>
        <time>2018-08-05T12:00:45Z</time>
      </trkpt>
      <trkpt lat="44.28953" lon="6.569">
        <ele>1801.7</ele>
        <time>2018-08-05T12:00:46Z</time>
      </trkpt>
      <trkpt lat="44.2895" lon="6.56903">
        <ele>1801.9</ele>
        <time>2018-08-05T12:00:47Z</time>
      </trkpt>
      <trkpt lat="44.28946" lon="6.56905">
        <ele>1802.2</ele>
        <time>2018-08-05T12:00:48Z</time>
      </trkpt>
      <trkpt lat="44.28942" lon="6.56908">
        <ele>1802.6</ele>
        <time>2018-08-05T12:00:49Z</time>
      </trkpt>
      <trkpt lat="44.28938" lon="6.56912">
        <ele>1803.1</ele>
        <time>2018-08-05T12:00:50Z</time>
      </trkpt>
      <trkpt lat="44.28933" lon="6.56915">
        <ele>1803.7</ele>
        <time>2018-08-05T12:00:51Z</time>
      </trkpt>
      <trkpt lat="44.28928" lon="6.56918">
        <ele>1804.2</ele>
        <time>2018-08-05T12:00:52Z</time>
      </trkpt>
      <trkpt lat="44.28923" lon="6.56922">
        <ele>1804.8</ele>
        <time>2018-08-05T12:00:53Z</time>
      </trkpt>
      <trkpt lat="44.28918" lon="6.56926">
        <ele>1805.3</ele>
        <time>2018-08-05T12:00:54Z</time>
      </trkpt>
      <trkpt lat="44.28913" lon="6.5693">
        <ele>1805.8</ele>
        <time>2018-08-05T12:00:55Z</time>
      </trkpt>
      <trkpt lat="44.28907" lon="6.56934">
        <ele>1806.2</ele>
        <time>2018-08-05T12:00:56Z</time>
      </trkpt>
      <trkpt lat="44.28902" lon="6.56938">
        <ele>1806.6</ele>
        <time>2018-08-05T12:00:57Z</time>
      </trkpt>
      <trkpt lat="44.28895" lon="6.56943">
        <ele>1807.3</ele>
        <time>2018-08-05T12:00:58Z</time>
      </trkpt>
      <trkpt lat="44.28889" lon="6.56949">
        <ele>1808</ele>
        <time>2018-08-05T12:00:59Z</time>
      </trkpt>
      <trkpt lat="44.28883" lon="6.56955">
        <ele>1808.9</ele>
        <time>2018-08-05T12:01:00Z</time>
      </trkpt>
      <trkpt lat="44.28877" lon="6.5696">
        <ele>1809.8</ele>
        <time>2018-08-05T12:01:01Z</time>
      </trkpt>
      <trkpt lat="44.2887" lon="6.56964">
        <ele>1810.9</ele>
        <time>2018-08-05T12:01:02Z</time>
      </trkpt>
      <trkpt lat="44.28862" lon="6.56969">
        <ele>1812</ele>
        <time>2018-08-05T12:01:03Z</time>
      </trkpt>
      <trkpt lat="44.28855" lon="6.56973">
        <ele>1812</ele>
        <time>2018-08-05T12:01:04Z</time>
      </trkpt>
      <trkpt lat="44.28848" lon="6.56979">
        <ele>1812</ele>
        <time>2018-08-05T12:01:05Z</time>
      </trkpt>
      <trkpt lat="44.28841" lon="6.56986">
        <ele>1809.2</ele>
        <time>2018-08-05T12:01:06Z</time>
      </trkpt>
      <trkpt lat="44.28834" lon="6.56992">
        <ele>1807.2</ele>
        <time>2018-08-05T12:01:07Z</time>
      </trkpt>
      <trkpt lat="44.28826" lon="6.56998">
        <ele>1805.3</ele>
        <time>2018-08-05T12:01:08Z</time>
      </trkpt>
      <trkpt lat="44.28818" lon="6.57003">
        <ele>1803.4</ele>
        <time>2018-08-05T12:01:09Z</time>
      </trkpt>
      <trkpt lat="44.28812" lon="6.57008">
        <ele>1801.7</ele>
        <time>2018-08-05T12:01:10Z</time>
      </trkpt>
      <trkpt lat="44.28805" lon="6.57014">
        <ele>1800</ele>
        <time>2018-08-05T12:01:11Z</time>
      </trkpt>
      <trkpt lat="44.28798" lon="6.5702">
        <ele>1798.5</ele>
        <time>2018-08-05T12:01:12Z</time>
      </trkpt>
      <trkpt lat="44.28792" lon="6.57026">
        <ele>1797.6</ele>
        <time>2018-08-05T12:01:13Z</time>
      </trkpt>
      <trkpt lat="44.28785" lon="6.57032">
        <ele>1796.7</ele>
        <time>2018-08-05T12:01:14Z</time>
      </trkpt>
      <trkpt lat="44.28778" lon="6.57038">
        <ele>1795.7</ele>
        <time>2018-08-05T12:01:15Z</time>
      </trkpt>
      <trkpt lat="44.28772" lon="6.57044">
        <ele>1794.8</ele>
        <time>2018-08-05T12:01:16Z</time>
      </trkpt>
      <trkpt lat="44.28766" lon="6.5705">
        <ele>1793.4</ele>
        <time>2018-08-05T12:01:17Z</time>
      </trkpt>
      <trkpt lat="44.28759" lon="6.57057">
        <ele>1791.7</ele>
        <time>2018-08-05T12:01:18Z</time>
      </trkpt>
      <trkpt lat="44.28754" lon="6.57064">
        <ele>1789.7</ele>
        <time>2018-08-05T12:01:19Z</time>
      </trkpt>
      <trkpt lat="44.28748" lon="6.5707">
        <ele>1787.8</ele>
        <time>2018-08-05T12:01:20Z</time>
      </trkpt>
      <trkpt lat="44.28743" lon="6.57076">
        <ele>1785.8</ele>
        <time>2018-08-05T12:01:21Z</time>
      </trkpt>
      <trkpt lat="44.28738" lon="6.57082">
        <ele>1783.8</ele>
        <time>2018-08-05T12:01:22Z</time>
      </trkpt>
      <trkpt lat="44.28733" lon="6.57088">
        <ele>1781.8</ele>
        <time>2018-08-05T12:01:23Z</time>
      </trkpt>
      <trkpt lat="44.28729" lon="6.57094">
        <ele>1779.7</ele>
        <time>2018-08-05T12:01:24Z</time>
      </trkpt>
      <trkpt lat="44.28725" lon="6.571">
        <ele>1778.6</ele>
        <time>2018-08-05T12:01:25Z</time>
      </trkpt>
      <trkpt lat="44.28721" lon="6.57105">
        <ele>1777.9</ele>
        <time>2018-08-05T12:01:26Z</time>
      </trkpt>
      <trkpt lat="44.28716" lon="6.5711">
        <ele>1777.3</ele>
        <time>2018-08-05T12:01:27Z</time>
      </trkpt>
      <trkpt lat="44.28712" lon="6.57116">
        <ele>1776.9</ele>
        <time>2018-08-05T12:01:28Z</time>
      </trkpt>
      <trkpt lat="44.28708" lon="6.57122">
        <ele>1776.5</ele>
        <time>2018-08-05T12:01:29Z</time>
      </trkpt>
      <trkpt lat="44.28704" lon="6.57128">
        <ele>1776.2</ele>
        <time>2018-08-05T12:01:30Z</time>
      </trkpt>
      <trkpt lat="44.287" lon="6.57133">
        <ele>1775.9</ele>
        <time>2018-08-05T12:01:31Z</time>
      </trkpt>
      <trkpt lat="44.28696" lon="6.57138">
        <ele>1775.6</ele>
        <time>2018-08-05T12:01:32Z</time>
      </trkpt>
      <trkpt lat="44.28692" lon="6.57143">
        <ele>1775.4</ele>
        <time>2018-08-05T12:01:33Z</time>
      </trkpt>
      <trkpt lat="44.28687" lon="6.57147">
        <ele>1775.2</ele>
        <time>2018-08-05T12:01:34Z</time>
      </trkpt>
      <trkpt lat="44.28683" lon="6.57152">
        <ele>1775</ele>
        <time>2018-08-05T12:01:35Z</time>
      </trkpt>
      <trkpt lat="44.28678" lon="6.57158">
        <ele>1774.8</ele>
        <time>2018-08-05T12:01:36Z</time>
      </trkpt>
      <trkpt lat="44.28674" lon="6.57163">
        <ele>1774.6</ele>
        <time>2018-08-05T12:01:37Z</time>
      </trkpt>
      <trkpt lat="44.2867" lon="6.57168">
        <ele>1774.4</ele>
        <time>2018-08-05T12:01:38Z</time>
      </trkpt>
      <trkpt lat="44.28665" lon="6.57173">
        <ele>1774.2</ele>
        <time>2018-08-05T12:01:39Z</time>
      </trkpt>
      <trkpt lat="44.2866" lon="6.57179">
        <ele>1774</ele>
        <time>2018-08-05T12:01:40Z</time>
      </trkpt>
      <trkpt lat="44.28654" lon="6.57183">
        <ele>1773.6</ele>
        <time>2018-08-05T12:01:41Z</time>
      </trkpt>
      <trkpt lat="44.28649" lon="6.57187">
        <ele>1773</ele>
        <time>2018-08-05T12:01:42Z</time>
      </trkpt>
      <trkpt lat="44.28642" lon="6.57191">
        <ele>1772.2</ele>
        <time>2018-08-05T12:01:43Z</time>
      </trkpt>
      <trkpt lat="44.28636" lon="6.57194">
        <ele>1771.4</ele>
        <time>2018-08-05T12:01:44Z</time>
      </trkpt>
      <trkpt lat="44.28629" lon="6.57199">
        <ele>1770.5</ele>
        <time>2018-08-05T12:01:45Z</time>
      </trkpt>
      <trkpt lat="44.28623" lon="6.57203">
        <ele>1769.5</ele>
        <time>2018-08-05T12:01:46Z</time>
      </trkpt>
      <trkpt lat="44.28616" lon="6.57206">
        <ele>1768.5</ele>
        <time>2018-08-05T12:01:47Z</time>
      </trkpt>
      <trkpt lat="44.28608" lon="6.57211">
        <ele>1767.5</ele>
        <time>2018-08-05T12:01:48Z</time>
      </trkpt>
      <trkpt lat="44.28601" lon="6.57215">
        <ele>1766.4</ele>
        <time>2018-08-05T12:01:49Z</time>
      </trkpt>
      <trkpt lat="44.28594" lon="6.57219">
        <ele>1765.4</ele>
        <time>2018-08-05T12:01:50Z</time>
      </trkpt>
      <trkpt lat="44.28586" lon="6.57224">
        <ele>1764.4</ele>
        <time>2018-08-05T12:01:51Z</time>
      </trkpt>
      <trkpt lat="44.28579" lon="6.57229">
        <ele>1763.5</ele>
        <time>2018-08-05T12:01:52Z</time>
      </trkpt>
      <trkpt lat="44.28572" lon="6.57234">
        <ele>1762.6</ele>
        <time>2018-08-05T12:01:53Z</time>
      </trkpt>
      <trkpt lat="44.28565" lon="6.57239">
        <ele>1761.8</ele>
        <time>2018-08-05T12:01:54Z</time>
      </trkpt>
      <trkpt lat="44.28558" lon="6.57242">
        <ele>1761.1</ele>
        <time>2018-08-05T12:01:55Z</time>
      </trkpt>
      <trkpt lat="44.2855" lon="6.57245">
        <ele>1760.5</ele>
        <time>2018-08-05T12:01:56Z</time>
      </trkpt>
      <trkpt lat="44.28543" lon="6.57247">
        <ele>1760</ele>
        <time>2018-08-05T12:01:57Z</time>
      </trkpt>
      <trkpt lat="44.28537" lon="6.5725">
        <ele>1759.5</ele>
        <time>2018-08-05T12:01:58Z</time>
      </trkpt>
      <trkpt lat="44.2853" lon="6.57251">
        <ele>1758.8</ele>
        <time>2018-08-05T12:01:59Z</time>
      </trkpt>
      <trkpt lat="44.28524" lon="6.57252">
        <ele>1758</ele>
        <time>2018-08-05T12:02:00Z</time>
      </trkpt>
      <trkpt lat="44.28517" lon="6.57252">
        <ele>1757.3</ele>
        <time>2018-08-05T12:02:01Z</time>
      </trkpt>
      <trkpt lat="44.2851" lon="6.5725">
        <ele>1756.4</ele>
        <time>2018-08-05T12:02:02Z</time>
      </trkpt>
      <trkpt lat="44.28504" lon="6.57248">
        <ele>1755.4</ele>
        <time>2018-08-05T12:02:03Z</time>
      </trkpt>
      <trkpt lat="44.28497" lon="6.57245">
        <ele>1755.4</ele>
        <time>2018-08-05T12:02:04Z</time>
      </trkpt>
      <trkpt lat="44.2849" lon="6.57242">
        <ele>1757.8</ele>
        <time>2018-08-05T12:02:05Z</time>
      </trkpt>
      <trkpt lat="44.28482" lon="6.57239">
        <ele>1760</ele>
        <time>2018-08-05T12:02:06Z</time>
      </trkpt>
      <trkpt lat="44.28475" lon="6.57235">
        <ele>1760</ele>
        <time>2018-08-05T12:02:07Z</time>
      </trkpt>
      <trkpt lat="44.28467" lon="6.57231">
        <ele>1760</ele>
        <time>2018-08-05T12:02:08Z</time>
      </trkpt>
      <trkpt lat="44.28459" lon="6.57228">
        <ele>1759.3</ele>
        <time>2018-08-05T12:02:09Z</time>
      </trkpt>
      <trkpt lat="44.28451" lon="6.57225">
        <ele>1758.2</ele>
        <time>2018-08-05T12:02:10Z</time>
      </trkpt>
      <trkpt lat="44.28442" lon="6.57223">
        <ele>1757.2</ele>
        <time>2018-08-05T12:02:11Z</time>
      </trkpt>
      <trkpt lat="44.28434" lon="6.57221">
        <ele>1756.2</ele>
        <time>2018-08-05T12:02:12Z</time>
      </trkpt>
      <trkpt lat="44.28425" lon="6.5722">
        <ele>1755.1</ele>
        <time>2018-08-05T12:02:13Z</time>
      </trkpt>
      <trkpt lat="44.28416" lon="6.57219">
        <ele>1754.1</ele>
        <time>2018-08-05T12:02:14Z</time>
      </trkpt>
      <trkpt lat="44.28406" lon="6.57219">
        <ele>1752.9</ele>
        <time>2018-08-05T12:02:15Z</time>
      </trkpt>
      <trkpt lat="44.28397" lon="6.5722">
        <ele>1751.7</ele>
        <time>2018-08-05T12:02:16Z</time>
      </trkpt>
      <trkpt lat="44.28388" lon="6.57222">
        <ele>1750.6</ele>
        <time>2018-08-05T12:02:17Z</time>
      </trkpt>
      <trkpt lat="44.28379" lon="6.57225">
        <ele>1749.4</ele>
        <time>2018-08-05T12:02:18Z</time>
      </trkpt>
      <trkpt lat="44.2837" lon="6.57229">
        <ele>1748.2</ele>
        <time>2018-08-05T12:02:19Z</time>
      </trkpt>
      <trkpt lat="44.28362" lon="6.57233">
        <ele>1749.5</ele>
        <time>2018-08-05T12:02:20Z</time>
      </trkpt>
      <trkpt lat="44.28354" lon="6.57238">
        <ele>1751.1</ele>
        <time>2018-08-05T12:02:21Z</time>
      </trkpt>
      <trkpt lat="44.28347" lon="6.57243">
        <ele>1752.6</ele>
        <time>2018-08-05T12:02:22Z</time>
      </trkpt>
      <trkpt lat="44.28341" lon="6.57248">
        <ele>1754</ele>
        <time>2018-08-05T12:02:23Z</time>
      </trkpt>
      <trkpt lat="44.28334" lon="6.57254">
        <ele>1755</ele>
        <time>2018-08-05T12:02:24Z</time>
      </trkpt>
      <trkpt lat="44.28329" lon="6.5726">
        <ele>1755</ele>
        <time>2018-08-05T12:02:25Z</time>
      </trkpt>
      <trkpt lat="44.28324" lon="6.57264">
        <ele>1755.1</ele>
        <time>2018-08-05T12:02:26Z</time>
      </trkpt>
      <trkpt lat="44.2832" lon="6.57269">
        <ele>1755.1</ele>
        <time>2018-08-05T12:02:27Z</time>
      </trkpt>
      <trkpt lat="44.28316" lon="6.57273">
        <ele>1755.2</ele>
        <time>2018-08-05T12:02:28Z</time>
      </trkpt>
      <trkpt lat="44.28312" lon="6.57278">
        <ele>1755.3</ele>
        <time>2018-08-05T12:02:29Z</time>
      </trkpt>
      <trkpt lat="44.28308" lon="6.57282">
        <ele>1755.3</ele>
        <time>2018-08-05T12:02:30Z</time>
      </trkpt>
      <trkpt lat="44.28303" lon="6.57286">
        <ele>1755.4</ele>
        <time>2018-08-05T12:02:31Z</time>
      </trkpt>
      <trkpt lat="44.28299" lon="6.57291">
        <ele>1755.5</ele>
        <time>2018-08-05T12:02:32Z</time>
      </trkpt>
      <trkpt lat="44.28295" lon="6.57296">
        <ele>1755.6</ele>
        <time>2018-08-05T12:02:33Z</time>
      </trkpt>
      <trkpt lat="44.28291" lon="6.573">
        <ele>1755.7</ele>
        <time>2018-08-05T12:02:34Z</time>
      </trkpt>
      <trkpt lat="44.28287" lon="6.57304">
        <ele>1755.9</ele>
        <time>2018-08-05T12:02:35Z</time>
      </trkpt>
      <trkpt lat="44.28283" lon="6.57309">
        <ele>1756</ele>
        <time>2018-08-05T12:02:36Z</time>
      </trkpt>
      <trkpt lat="44.28279" lon="6.57312">
        <ele>1756.1</ele>
        <time>2018-08-05T12:02:37Z</time>
      </trkpt>
      <trkpt lat="44.28275" lon="6.57316">
        <ele>1756.3</ele>
        <time>2018-08-05T12:02:38Z</time>
      </trkpt>
      <trkpt lat="44.28271" lon="6.57321">
        <ele>1756.4</ele>
        <time>2018-08-05T12:02:39Z</time>
      </trkpt>
      <trkpt lat="44.28267" lon="6.57325">
        <ele>1756.5</ele>
        <time>2018-08-05T12:02:40Z</time>
      </trkpt>
      <trkpt lat="44.28263" lon="6.5733">
        <ele>1756.7</ele>
        <time>2018-08-05T12:02:41Z</time>
      </trkpt>
      <trkpt lat="44.28258" lon="6.57334">
        <ele>1756.9</ele>
        <time>2018-08-05T12:02:42Z</time>
      </trkpt>
      <trkpt lat="44.28254" lon="6.57339">
        <ele>1756.7</ele>
        <time>2018-08-05T12:02:43Z</time>
      </trkpt>
      <trkpt lat="44.2825" lon="6.57344">
        <ele>1754.6</ele>
        <time>2018-08-05T12:02:44Z</time>
      </trkpt>
      <trkpt lat="44.28244" lon="6.57348">
        <ele>1752.1</ele>
        <time>2018-08-05T12:02:45Z</time>
      </trkpt>
      <trkpt lat="44.28239" lon="6.57353">
        <ele>1749.6</ele>
        <time>2018-08-05T12:02:46Z</time>
      </trkpt>
      <trkpt lat="44.28233" lon="6.57356">
        <ele>1746.9</ele>
        <time>2018-08-05T12:02:47Z</time>
      </trkpt>
      <trkpt lat="44.28226" lon="6.5736">
        <ele>1743.9</ele>
        <time>2018-08-05T12:02:48Z</time>
      </trkpt>
      <trkpt lat="44.28218" lon="6.57363">
        <ele>1740.8</ele>
        <time>2018-08-05T12:02:49Z</time>
      </trkpt>
      <trkpt lat="44.28211" lon="6.57367">
        <ele>1739.9</ele>
        <time>2018-08-05T12:02:50Z</time>
      </trkpt>
      <trkpt lat="44.28203" lon="6.57371">
        <ele>1739.8</ele>
        <time>2018-08-05T12:02:51Z</time>
      </trkpt>
      <trkpt lat="44.28195" lon="6.57375">
        <ele>1739.7</ele>
        <time>2018-08-05T12:02:52Z</time>
      </trkpt>
      <trkpt lat="44.28187" lon="6.57377">
        <ele>1739.5</ele>
        <time>2018-08-05T12:02:53Z</time>
      </trkpt>
      <trkpt lat="44.28178" lon="6.57381">
        <ele>1739.4</ele>
        <time>2018-08-05T12:02:54Z</time>
      </trkpt>
      <trkpt lat="44.2817" lon="6.57385">
        <ele>1739.1</ele>
        <time>2018-08-05T12:02:55Z</time>
      </trkpt>
      <trkpt lat="44.28161" lon="6.57388">
        <ele>1738.1</ele>
        <time>2018-08-05T12:02:56Z</time>
      </trkpt>
      <trkpt lat="44.28152" lon="6.57391">
        <ele>1737</ele>
        <time>2018-08-05T12:02:57Z</time>
      </trkpt>
      <trkpt lat="44.28143" lon="6.57394">
        <ele>1735.8</ele>
        <time>2018-08-05T12:02:58Z</time>
      </trkpt>
      <trkpt lat="44.28134" lon="6.57396">
        <ele>1735.4</ele>
        <time>2018-08-05T12:02:59Z</time>
      </trkpt>
      <trkpt lat="44.28124" lon="6.57398">
        <ele>1735</ele>
        <time>2018-08-05T12:03:00Z</time>
      </trkpt>
      <trkpt lat="44.28115" lon="6.57401">
        <ele>1734.7</ele>
        <time>2018-08-05T12:03:01Z</time>
      </trkpt>
      <trkpt lat="44.28105" lon="6.57404">
        <ele>1733.8</ele>
        <time>2018-08-05T12:03:02Z</time>
      </trkpt>
      <trkpt lat="44.28096" lon="6.57407">
        <ele>1733.1</ele>
        <time>2018-08-05T12:03:03Z</time>
      </trkpt>
      <trkpt lat="44.28086" lon="6.57409">
        <ele>1732.3</ele>
        <time>2018-08-05T12:03:04Z</time>
      </trkpt>
      <trkpt lat="44.28076" lon="6.57413">
        <ele>1731.4</ele>
        <time>2018-08-05T12:03:05Z</time>
      </trkpt>
      <trkpt lat="44.28067" lon="6.57416">
        <ele>1731</ele>
        <time>2018-08-05T12:03:06Z</time>
      </trkpt>
      <trkpt lat="44.28057" lon="6.57421">
        <ele>1730.5</ele>
        <time>2018-08-05T12:03:07Z</time>
      </trkpt>
      <trkpt lat="44.28048" lon="6.57426">
        <ele>1729.5</ele>
        <time>2018-08-05T12:03:08Z</time>
      </trkpt>
      <trkpt lat="44.28039" lon="6.57432">
        <ele>1728.9</ele>
        <time>2018-08-05T12:03:09Z</time>
      </trkpt>
      <trkpt lat="44.2803" lon="6.5744">
        <ele>1728.3</ele>
        <time>2018-08-05T12:03:10Z</time>
      </trkpt>
      <trkpt lat="44.28021" lon="6.57447">
        <ele>1727.3</ele>
        <time>2018-08-05T12:03:11Z</time>
      </trkpt>
      <trkpt lat="44.28012" lon="6.57456">
        <ele>1726.6</ele>
        <time>2018-08-05T12:03:12Z</time>
      </trkpt>
      <trkpt lat="44.28004" lon="6.57466">
        <ele>1726.2</ele>
        <time>2018-08-05T12:03:13Z</time>
      </trkpt>
      <trkpt lat="44.27996" lon="6.57476">
        <ele>1725.6</ele>
        <time>2018-08-05T12:03:14Z</time>
      </trkpt>
      <trkpt lat="44.27989" lon="6.57487">
        <ele>1724.8</ele>
        <time>2018-08-05T12:03:15Z</time>
      </trkpt>
      <trkpt lat="44.2798" lon="6.57496">
        <ele>1724.3</ele>
        <time>2018-08-05T12:03:16Z</time>
      </trkpt>
      <trkpt lat="44.2797" lon="6.57504">
        <ele>1723.2</ele>
        <time>2018-08-05T12:03:17Z</time>
      </trkpt>
      <trkpt lat="44.27961" lon="6.57512">
        <ele>1722.4</ele>
        <time>2018-08-05T12:03:18Z</time>
      </trkpt>
      <trkpt lat="44.27951" lon="6.57521">
        <ele>1721.9</ele>
        <time>2018-08-05T12:03:19Z</time>
      </trkpt>
      <trkpt lat="44.27942" lon="6.57531">
        <ele>1720.9</ele>
        <time>2018-08-05T12:03:20Z</time>
      </trkpt>
      <trkpt lat="44.27933" lon="6.57542">
        <ele>1720.3</ele>
        <time>2018-08-05T12:03:21Z</time>
      </trkpt>
      <trkpt lat="44.27925" lon="6.57553">
        <ele>1719.6</ele>
        <time>2018-08-05T12:03:22Z</time>
      </trkpt>
      <trkpt lat="44.27917" lon="6.57564">
        <ele>1719.1</ele>
        <time>2018-08-05T12:03:23Z</time>
      </trkpt>
      <trkpt lat="44.27909" lon="6.57576">
        <ele>1718.5</ele>
        <time>2018-08-05T12:03:24Z</time>
      </trkpt>
      <trkpt lat="44.27901" lon="6.57588">
        <ele>1717.4</ele>
        <time>2018-08-05T12:03:25Z</time>
      </trkpt>
      <trkpt lat="44.27893" lon="6.57599">
        <ele>1717</ele>
        <time>2018-08-05T12:03:26Z</time>
      </trkpt>
      <trkpt lat="44.27885" lon="6.57611">
        <ele>1716.3</ele>
        <time>2018-08-05T12:03:27Z</time>
      </trkpt>
      <trkpt lat="44.27877" lon="6.57623">
        <ele>1715.3</ele>
        <time>2018-08-05T12:03:28Z</time>
      </trkpt>
      <trkpt lat="44.27869" lon="6.57634">
        <ele>1714.7</ele>
        <time>2018-08-05T12:03:29Z</time>
      </trkpt>
      <trkpt lat="44.27861" lon="6.57646">
        <ele>1713.9</ele>
        <time>2018-08-05T12:03:30Z</time>
      </trkpt>
      <trkpt lat="44.27853" lon="6.57658">
        <ele>1712.8</ele>
        <time>2018-08-05T12:03:31Z</time>
      </trkpt>
      <trkpt lat="44.27846" lon="6.57669">
        <ele>1712.4</ele>
        <time>2018-08-05T12:03:32Z</time>
      </trkpt>
      <trkpt lat="44.27838" lon="6.57681">
        <ele>1712</ele>
        <time>2018-08-05T12:03:33Z</time>
      </trkpt>
      <trkpt lat="44.27831" lon="6.57693">
        <ele>1711</ele>
        <time>2018-08-05T12:03:34Z</time>
      </trkpt>
      <trkpt lat="44.27823" lon="6.57706">
        <ele>1710.5</ele>
        <time>2018-08-05T12:03:35Z</time>
      </trkpt>
      <trkpt lat="44.27817" lon="6.57719">
        <ele>1710.1</ele>
        <time>2018-08-05T12:03:36Z</time>
      </trkpt>
      <trkpt lat="44.27811" lon="6.57732">
        <ele>1709.2</ele>
        <time>2018-08-05T12:03:37Z</time>
      </trkpt>
      <trkpt lat="44.27805" lon="6.57744">
        <ele>1708.4</ele>
        <time>2018-08-05T12:03:38Z</time>
      </trkpt>
      <trkpt lat="44.27799" lon="6.57756">
        <ele>1708.1</ele>
        <time>2018-08-05T12:03:39Z</time>
      </trkpt>
      <trkpt lat="44.27793" lon="6.57767">
        <ele>1707.5</ele>
        <time>2018-08-05T12:03:40Z</time>
      </trkpt>
      <trkpt lat="44.27785" lon="6.57777">
        <ele>1706.4</ele>
        <time>2018-08-05T12:03:41Z</time>
      </trkpt>
      <trkpt lat="44.27776" lon="6.57784">
        <ele>1705.9</ele>
        <time>2018-08-05T12:03:42Z</time>
      </trkpt>
      <trkpt lat="44.27767" lon="6.57792">
        <ele>1705.6</ele>
        <time>2018-08-05T12:03:43Z</time>
      </trkpt>
      <trkpt lat="44.27758" lon="6.578">
        <ele>1705.3</ele>
        <time>2018-08-05T12:03:44Z</time>
      </trkpt>
      <trkpt lat="44.2775" lon="6.57809">
        <ele>1704.5</ele>
        <time>2018-08-05T12:03:45Z</time>
      </trkpt>
      <trkpt lat="44.27742" lon="6.57818">
        <ele>1703.9</ele>
        <time>2018-08-05T12:03:46Z</time>
      </trkpt>
      <trkpt lat="44.27734" lon="6.57826">
        <ele>1703.2</ele>
        <time>2018-08-05T12:03:47Z</time>
      </trkpt>
      <trkpt lat="44.27725" lon="6.57834">
        <ele>1702.4</ele>
        <time>2018-08-05T12:03:48Z</time>
      </trkpt>
      <trkpt lat="44.27716" lon="6.57839">
        <ele>1702.1</ele>
        <time>2018-08-05T12:03:49Z</time>
      </trkpt>
      <trkpt lat="44.27707" lon="6.57842">
        <ele>1701.9</ele>
        <time>2018-08-05T12:03:50Z</time>
      </trkpt>
      <trkpt lat="44.27697" lon="6.57844">
        <ele>1701.7</ele>
        <time>2018-08-05T12:03:51Z</time>
      </trkpt>
      <trkpt lat="44.27687" lon="6.57845">
        <ele>1701.4</ele>
        <time>2018-08-05T12:03:52Z</time>
      </trkpt>
      <trkpt lat="44.27677" lon="6.57847">
        <ele>1700.6</ele>
        <time>2018-08-05T12:03:53Z</time>
      </trkpt>
      <trkpt lat="44.27667" lon="6.5785">
        <ele>1699.9</ele>
        <time>2018-08-05T12:03:54Z</time>
      </trkpt>
      <trkpt lat="44.27659" lon="6.57855">
        <ele>1699.5</ele>
        <time>2018-08-05T12:03:55Z</time>
      </trkpt>
      <trkpt lat="44.27652" lon="6.57863">
        <ele>1699.1</ele>
        <time>2018-08-05T12:03:56Z</time>
      </trkpt>
      <trkpt lat="44.27647" lon="6.57872">
        <ele>1698.5</ele>
        <time>2018-08-05T12:03:57Z</time>
      </trkpt>
      <trkpt lat="44.27643" lon="6.57884">
        <ele>1697.8</ele>
        <time>2018-08-05T12:03:58Z</time>
      </trkpt>
      <trkpt lat="44.27639" lon="6.57895">
        <ele>1697.5</ele>
        <time>2018-08-05T12:03:59Z</time>
      </trkpt>
      <trkpt lat="44.27633" lon="6.57904">
        <ele>1697.3</ele>
        <time>2018-08-05T12:04:00Z</time>
      </trkpt>
      <trkpt lat="44.27626" lon="6.5791">
        <ele>1696.9</ele>
        <time>2018-08-05T12:04:01Z</time>
      </trkpt>
      <trkpt lat="44.27617" lon="6.57911">
        <ele>1696</ele>
        <time>2018-08-05T12:04:02Z</time>
      </trkpt>
      <trkpt lat="44.27608" lon="6.57909">
        <ele>1695.4</ele>
        <time>2018-08-05T12:04:03Z</time>
      </trkpt>
      <trkpt lat="44.27601" lon="6.57904">
        <ele>1695.2</ele>
        <time>2018-08-05T12:04:04Z</time>
      </trkpt>
      <trkpt lat="44.27593" lon="6.57897">
        <ele>1694.8</ele>
        <time>2018-08-05T12:04:05Z</time>
      </trkpt>
      <trkpt lat="44.27585" lon="6.5789">
        <ele>1694.4</ele>
        <time>2018-08-05T12:04:06Z</time>
      </trkpt>
      <trkpt lat="44.27578" lon="6.57883">
        <ele>1693.4</ele>
        <time>2018-08-05T12:04:07Z</time>
      </trkpt>
      <trkpt lat="44.2757" lon="6.57876">
        <ele>1692.9</ele>
        <time>2018-08-05T12:04:08Z</time>
      </trkpt>
      <trkpt lat="44.27562" lon="6.57871">
        <ele>1692.1</ele>
        <time>2018-08-05T12:04:09Z</time>
      </trkpt>
      <trkpt lat="44.27553" lon="6.57866">
        <ele>1691.5</ele>
        <time>2018-08-05T12:04:10Z</time>
      </trkpt>
      <trkpt lat="44.27544" lon="6.57863">
        <ele>1691.2</ele>
        <time>2018-08-05T12:04:11Z</time>
      </trkpt>
      <trkpt lat="44.27534" lon="6.57862">
        <ele>1690.9</ele>
        <time>2018-08-05T12:04:12Z</time>
      </trkpt>
      <trkpt lat="44.27524" lon="6.57863">
        <ele>1690.5</ele>
        <time>2018-08-05T12:04:13Z</time>
      </trkpt>
      <trkpt lat="44.27516" lon="6.57865">
        <ele>1689.9</ele>
        <time>2018-08-05T12:04:14Z</time>
      </trkpt>
      <trkpt lat="44.27507" lon="6.5787">
        <ele>1689.1</ele>
        <time>2018-08-05T12:04:15Z</time>
      </trkpt>
      <trkpt lat="44.27499" lon="6.57878">
        <ele>1688.8</ele>
        <time>2018-08-05T12:04:16Z</time>
      </trkpt>
      <trkpt lat="44.27493" lon="6.57886">
        <ele>1688.5</ele>
        <time>2018-08-05T12:04:17Z</time>
      </trkpt>
      <trkpt lat="44.27486" lon="6.57895">
        <ele>1688.3</ele>
        <time>2018-08-05T12:04:18Z</time>
      </trkpt>
      <trkpt lat="44.2748" lon="6.57903">
        <ele>1688.2</ele>
        <time>2018-08-05T12:04:19Z</time>
      </trkpt>
      <trkpt lat="44.27474" lon="6.57912">
        <ele>1688</ele>
        <time>2018-08-05T12:04:20Z</time>
      </trkpt>
      <trkpt lat="44.27467" lon="6.57921">
        <ele>1687.4</ele>
        <time>2018-08-05T12:04:21Z</time>
      </trkpt>
      <trkpt lat="44.27461" lon="6.57929">
        <ele>1686.8</ele>
        <time>2018-08-05T12:04:22Z</time>
      </trkpt>
      <trkpt lat="44.27454" lon="6.57938">
        <ele>1686.5</ele>
        <time>2018-08-05T12:04:23Z</time>
      </trkpt>
      <trkpt lat="44.27447" lon="6.57945">
        <ele>1686.3</ele>
        <time>2018-08-05T12:04:24Z</time>
      </trkpt>
      <trkpt lat="44.27439" lon="6.5795">
        <ele>1686.1</ele>
        <time>2018-08-05T12:04:25Z</time>
      </trkpt>
      <trkpt lat="44.27431" lon="6.57953">
        <ele>1685.7</ele>
        <time>2018-08-05T12:04:26Z</time>
      </trkpt>
      <trkpt lat="44.27422" lon="6.57956">
        <ele>1685</ele>
        <time>2018-08-05T12:04:27Z</time>
      </trkpt>
      <trkpt lat="44.27413" lon="6.57958">
        <ele>1684.5</ele>
        <time>2018-08-05T12:04:28Z</time>
      </trkpt>
      <trkpt lat="44.27405" lon="6.5796">
        <ele>1684.4</ele>
        <time>2018-08-05T12:04:29Z</time>
      </trkpt>
      <trkpt lat="44.27396" lon="6.57962">
        <ele>1684.4</ele>
        <time>2018-08-05T12:04:30Z</time>
      </trkpt>
      <trkpt lat="44.27388" lon="6.57963">
        <ele>1684.3</ele>
        <time>2018-08-05T12:04:31Z</time>
      </trkpt>
      <trkpt lat="44.2738" lon="6.57964">
        <ele>1684.3</ele>
        <time>2018-08-05T12:04:32Z</time>
      </trkpt>
      <trkpt lat="44.27372" lon="6.57963">
        <ele>1684.2</ele>
        <time>2018-08-05T12:04:33Z</time>
      </trkpt>
      <trkpt lat="44.27364" lon="6.57962">
        <ele>1684.2</ele>
        <time>2018-08-05T12:04:34Z</time>
      </trkpt>
      <trkpt lat="44.27357" lon="6.57961">
        <ele>1684.1</ele>
        <time>2018-08-05T12:04:35Z</time>
      </trkpt>
      <trkpt lat="44.2735" lon="6.57958">
        <ele>1684</ele>
        <time>2018-08-05T12:04:36Z</time>
      </trkpt>
      <trkpt lat="44.27343" lon="6.57954">
        <ele>1683.9</ele>
        <time>2018-08-05T12:04:37Z</time>
      </trkpt>
      <trkpt lat="44.27336" lon="6.57949">
        <ele>1683.8</ele>
        <time>2018-08-05T12:04:38Z</time>
      </trkpt>
      <trkpt lat="44.2733" lon="6.57943">
        <ele>1683.3</ele>
        <time>2018-08-05T12:04:39Z</time>
      </trkpt>
      <trkpt lat="44.27324" lon="6.57938">
        <ele>1682.6</ele>
        <time>2018-08-05T12:04:40Z</time>
      </trkpt>
      <trkpt lat="44.27318" lon="6.57932">
        <ele>1682.3</ele>
        <time>2018-08-05T12:04:41Z</time>
      </trkpt>
      <trkpt lat="44.27312" lon="6.57926">
        <ele>1682</ele>
        <time>2018-08-05T12:04:42Z</time>
      </trkpt>
      <trkpt lat="44.27305" lon="6.57921">
        <ele>1680.5</ele>
        <time>2018-08-05T12:04:43Z</time>
      </trkpt>
      <trkpt lat="44.27299" lon="6.57916">
        <ele>1676.6</ele>
        <time>2018-08-05T12:04:44Z</time>
      </trkpt>
      <trkpt lat="44.27292" lon="6.57911">
        <ele>1672.4</ele>
        <time>2018-08-05T12:04:45Z</time>
      </trkpt>
      <trkpt lat="44.27285" lon="6.57907">
        <ele>1668</ele>
        <time>2018-08-05T12:04:46Z</time>
      </trkpt>
      <trkpt lat="44.27276" lon="6.57903">
        <ele>1663.2</ele>
        <time>2018-08-05T12:04:47Z</time>
      </trkpt>
      <trkpt lat="44.27268" lon="6.57902">
        <ele>1658.5</ele>
        <time>2018-08-05T12:04:48Z</time>
      </trkpt>
      <trkpt lat="44.27259" lon="6.57902">
        <ele>1655.4</ele>
        <time>2018-08-05T12:04:49Z</time>
      </trkpt>
      <trkpt lat="44.2725" lon="6.57903">
        <ele>1652.8</ele>
        <time>2018-08-05T12:04:50Z</time>
      </trkpt>
      <trkpt lat="44.27241" lon="6.57906">
        <ele>1652.3</ele>
        <time>2018-08-05T12:04:51Z</time>
      </trkpt>
      <trkpt lat="44.27232" lon="6.5791">
        <ele>1651.9</ele>
        <time>2018-08-05T12:04:52Z</time>
      </trkpt>
      <trkpt lat="44.27224" lon="6.57915">
        <ele>1651.4</ele>
        <time>2018-08-05T12:04:53Z</time>
      </trkpt>
      <trkpt lat="44.27216" lon="6.57922">
        <ele>1651</ele>
        <time>2018-08-05T12:04:54Z</time>
      </trkpt>
      <trkpt lat="44.27208" lon="6.5793">
        <ele>1650.5</ele>
        <time>2018-08-05T12:04:55Z</time>
      </trkpt>
      <trkpt lat="44.27201" lon="6.57939">
        <ele>1650</ele>
        <time>2018-08-05T12:04:56Z</time>
      </trkpt>
      <trkpt lat="44.27194" lon="6.57949">
        <ele>1649.6</ele>
        <time>2018-08-05T12:04:57Z</time>
      </trkpt>
      <trkpt lat="44.27188" lon="6.57959">
        <ele>1649.1</ele>
        <time>2018-08-05T12:04:58Z</time>
      </trkpt>
      <trkpt lat="44.27181" lon="6.57969">
        <ele>1648.6</ele>
        <time>2018-08-05T12:04:59Z</time>
      </trkpt>
      <trkpt lat="44.27174" lon="6.57978">
        <ele>1648.1</ele>
        <time>2018-08-05T12:05:00Z</time>
      </trkpt>
      <trkpt lat="44.27166" lon="6.57987">
        <ele>1647.5</ele>
        <time>2018-08-05T12:05:01Z</time>
      </trkpt>
      <trkpt lat="44.27157" lon="6.57994">
        <ele>1647</ele>
        <time>2018-08-05T12:05:02Z</time>
      </trkpt>
      <trkpt lat="44.27148" lon="6.57999">
        <ele>1646.5</ele>
        <time>2018-08-05T12:05:03Z</time>
      </trkpt>
      <trkpt lat="44.27138" lon="6.58003">
        <ele>1646</ele>
        <time>2018-08-05T12:05:04Z</time>
      </trkpt>
      <trkpt lat="44.27129" lon="6.58005">
        <ele>1645.6</ele>
        <time>2018-08-05T12:05:05Z</time>
      </trkpt>
      <trkpt lat="44.27119" lon="6.58008">
        <ele>1645.1</ele>
        <time>2018-08-05T12:05:06Z</time>
      </trkpt>
      <trkpt lat="44.27109" lon="6.58011">
        <ele>1644.7</ele>
        <time>2018-08-05T12:05:07Z</time>
      </trkpt>
      <trkpt lat="44.271" lon="6.58013">
        <ele>1644.2</ele>
        <time>2018-08-05T12:05:08Z</time>
      </trkpt>
      <trkpt lat="44.27089" lon="6.58016">
        <ele>1643.7</ele>
        <time>2018-08-05T12:05:09Z</time>
      </trkpt>
      <trkpt lat="44.27079" lon="6.58018">
        <ele>1643.3</ele>
        <time>2018-08-05T12:05:10Z</time>
      </trkpt>
      <trkpt lat="44.27069" lon="6.58021">
        <ele>1642.8</ele>
        <time>2018-08-05T12:05:11Z</time>
      </trkpt>
      <trkpt lat="44.27059" lon="6.58023">
        <ele>1642.3</ele>
        <time>2018-08-05T12:05:12Z</time>
      </trkpt>
      <trkpt lat="44.27049" lon="6.58026">
        <ele>1641.8</ele>
        <time>2018-08-05T12:05:13Z</time>
      </trkpt>
      <trkpt lat="44.27039" lon="6.58028">
        <ele>1641.3</ele>
        <time>2018-08-05T12:05:14Z</time>
      </trkpt>
      <trkpt lat="44.27029" lon="6.5803">
        <ele>1640.8</ele>
        <time>2018-08-05T12:05:15Z</time>
      </trkpt>
      <trkpt lat="44.27019" lon="6.58031">
        <ele>1640.2</ele>
        <time>2018-08-05T12:05:16Z</time>
      </trkpt>
      <trkpt lat="44.27008" lon="6.58033">
        <ele>1639.7</ele>
        <time>2018-08-05T12:05:17Z</time>
      </trkpt>
      <trkpt lat="44.26998" lon="6.58036">
        <ele>1639.2</ele>
        <time>2018-08-05T12:05:18Z</time>
      </trkpt>
      <trkpt lat="44.26987" lon="6.58037">
        <ele>1638.6</ele>
        <time>2018-08-05T12:05:19Z</time>
      </trkpt>
      <trkpt lat="44.26977" lon="6.58039">
        <ele>1638.1</ele>
        <time>2018-08-05T12:05:20Z</time>
      </trkpt>
      <trkpt lat="44.26966" lon="6.58041">
        <ele>1637.6</ele>
        <time>2018-08-05T12:05:21Z</time>
      </trkpt>
      <trkpt lat="44.26955" lon="6.58043">
        <ele>1637</ele>
        <time>2018-08-05T12:05:22Z</time>
      </trkpt>
      <trkpt lat="44.26945" lon="6.58043">
        <ele>1636.4</ele>
        <time>2018-08-05T12:05:23Z</time>
      </trkpt>
      <trkpt lat="44.26935" lon="6.58044">
        <ele>1635.9</ele>
        <time>2018-08-05T12:05:24Z</time>
      </trkpt>
      <trkpt lat="44.26923" lon="6.58045">
        <ele>1635.2</ele>
        <time>2018-08-05T12:05:25Z</time>
      </trkpt>
      <trkpt lat="44.26914" lon="6.58047">
        <ele>1634.7</ele>
        <time>2018-08-05T12:05:26Z</time>
      </trkpt>
      <trkpt lat="44.26904" lon="6.58048">
        <ele>1634.1</ele>
        <time>2018-08-05T12:05:27Z</time>
      </trkpt>
      <trkpt lat="44.26893" lon="6.5805">
        <ele>1633.5</ele>
        <time>2018-08-05T12:05:28Z</time>
      </trkpt>
      <trkpt lat="44.26882" lon="6.58051">
        <ele>1632.9</ele>
        <time>2018-08-05T12:05:29Z</time>
      </trkpt>
      <trkpt lat="44.26872" lon="6.58052">
        <ele>1632.4</ele>
        <time>2018-08-05T12:05:30Z</time>
      </trkpt>
      <trkpt lat="44.26863" lon="6.58053">
        <ele>1631.9</ele>
        <time>2018-08-05T12:05:31Z</time>
      </trkpt>
      <trkpt lat="44.26853" lon="6.58054">
        <ele>1631.4</ele>
        <time>2018-08-05T12:05:32Z</time>
      </trkpt>
      <trkpt lat="44.26843" lon="6.58054">
        <ele>1630.8</ele>
        <time>2018-08-05T12:05:33Z</time>
      </trkpt>
      <trkpt lat="44.26833" lon="6.58056">
        <ele>1630.3</ele>
        <time>2018-08-05T12:05:34Z</time>
      </trkpt>
      <trkpt lat="44.26824" lon="6.58058">
        <ele>1629.8</ele>
        <time>2018-08-05T12:05:35Z</time>
      </trkpt>
      <trkpt lat="44.26814" lon="6.58061">
        <ele>1629.1</ele>
        <time>2018-08-05T12:05:36Z</time>
      </trkpt>
      <trkpt lat="44.26806" lon="6.58064">
        <ele>1628</ele>
        <time>2018-08-05T12:05:37Z</time>
      </trkpt>
      <trkpt lat="44.26798" lon="6.58067">
        <ele>1627.5</ele>
        <time>2018-08-05T12:05:38Z</time>
      </trkpt>
      <trkpt lat="44.26789" lon="6.58068">
        <ele>1627</ele>
        <time>2018-08-05T12:05:39Z</time>
      </trkpt>
      <trkpt lat="44.2678" lon="6.58068">
        <ele>1626.3</ele>
        <time>2018-08-05T12:05:40Z</time>
      </trkpt>
      <trkpt lat="44.2677" lon="6.58068">
        <ele>1625.2</ele>
        <time>2018-08-05T12:05:41Z</time>
      </trkpt>
      <trkpt lat="44.2676" lon="6.58068">
        <ele>1624.5</ele>
        <time>2018-08-05T12:05:42Z</time>
      </trkpt>
      <trkpt lat="44.2675" lon="6.58069">
        <ele>1623.9</ele>
        <time>2018-08-05T12:05:43Z</time>
      </trkpt>
      <trkpt lat="44.2674" lon="6.5807">
        <ele>1622.8</ele>
        <time>2018-08-05T12:05:44Z</time>
      </trkpt>
      <trkpt lat="44.2673" lon="6.58074">
        <ele>1622.1</ele>
        <time>2018-08-05T12:05:45Z</time>
      </trkpt>
      <trkpt lat="44.2672" lon="6.58079">
        <ele>1621.7</ele>
        <time>2018-08-05T12:05:46Z</time>
      </trkpt>
      <trkpt lat="44.26711" lon="6.58085">
        <ele>1620.8</ele>
        <time>2018-08-05T12:05:47Z</time>
      </trkpt>
      <trkpt lat="44.26702" lon="6.58092">
        <ele>1620</ele>
        <time>2018-08-05T12:05:48Z</time>
      </trkpt>
      <trkpt lat="44.26693" lon="6.581">
        <ele>1619.6</ele>
        <time>2018-08-05T12:05:49Z</time>
      </trkpt>
      <trkpt lat="44.26684" lon="6.58107">
        <ele>1619</ele>
        <time>2018-08-05T12:05:50Z</time>
      </trkpt>
      <trkpt lat="44.26675" lon="6.58114">
        <ele>1617.7</ele>
        <time>2018-08-05T12:05:51Z</time>
      </trkpt>
      <trkpt lat="44.26665" lon="6.58121">
        <ele>1617.1</ele>
        <time>2018-08-05T12:05:52Z</time>
      </trkpt>
      <trkpt lat="44.26655" lon="6.58128">
        <ele>1616.6</ele>
        <time>2018-08-05T12:05:53Z</time>
      </trkpt>
      <trkpt lat="44.26645" lon="6.58134">
        <ele>1615.5</ele>
        <time>2018-08-05T12:05:54Z</time>
      </trkpt>
      <trkpt lat="44.26636" lon="6.5814">
        <ele>1614.9</ele>
        <time>2018-08-05T12:05:55Z</time>
      </trkpt>
      <trkpt lat="44.26626" lon="6.58148">
        <ele>1614.4</ele>
        <time>2018-08-05T12:05:56Z</time>
      </trkpt>
      <trkpt lat="44.26616" lon="6.58155">
        <ele>1613.7</ele>
        <time>2018-08-05T12:05:57Z</time>
      </trkpt>
      <trkpt lat="44.26606" lon="6.58162">
        <ele>1612.6</ele>
        <time>2018-08-05T12:05:58Z</time>
      </trkpt>
      <trkpt lat="44.26596" lon="6.58169">
        <ele>1612</ele>
        <time>2018-08-05T12:05:59Z</time>
      </trkpt>
      <trkpt lat="44.26586" lon="6.58176">
        <ele>1611.5</ele>
        <time>2018-08-05T12:06:00Z</time>
      </trkpt>
      <trkpt lat="44.26576" lon="6.58183">
        <ele>1610.6</ele>
        <time>2018-08-05T12:06:01Z</time>
      </trkpt>
      <trkpt lat="44.26566" lon="6.5819">
        <ele>1609.8</ele>
        <time>2018-08-05T12:06:02Z</time>
      </trkpt>
      <trkpt lat="44.26556" lon="6.58198">
        <ele>1609.1</ele>
        <time>2018-08-05T12:06:03Z</time>
      </trkpt>
      <trkpt lat="44.26546" lon="6.58205">
        <ele>1608.2</ele>
        <time>2018-08-05T12:06:04Z</time>
      </trkpt>
      <trkpt lat="44.26536" lon="6.58211">
        <ele>1607.2</ele>
        <time>2018-08-05T12:06:05Z</time>
      </trkpt>
      <trkpt lat="44.26527" lon="6.58217">
        <ele>1606.7</ele>
        <time>2018-08-05T12:06:06Z</time>
      </trkpt>
      <trkpt lat="44.26516" lon="6.58222">
        <ele>1605.6</ele>
        <time>2018-08-05T12:06:07Z</time>
      </trkpt>
      <trkpt lat="44.26506" lon="6.58226">
        <ele>1604.9</ele>
        <time>2018-08-05T12:06:08Z</time>
      </trkpt>
      <trkpt lat="44.26495" lon="6.5823">
        <ele>1604.6</ele>
        <time>2018-08-05T12:06:09Z</time>
      </trkpt>
      <trkpt lat="44.26485" lon="6.58234">
        <ele>1603.9</ele>
        <time>2018-08-05T12:06:10Z</time>
      </trkpt>
      <trkpt lat="44.26474" lon="6.58237">
        <ele>1602.9</ele>
        <time>2018-08-05T12:06:11Z</time>
      </trkpt>
      <trkpt lat="44.26462" lon="6.58239">
        <ele>1602.5</ele>
        <time>2018-08-05T12:06:12Z</time>
      </trkpt>
      <trkpt lat="44.26452" lon="6.58241">
        <ele>1602.2</ele>
        <time>2018-08-05T12:06:13Z</time>
      </trkpt>
      <trkpt lat="44.26441" lon="6.58244">
        <ele>1602</ele>
        <time>2018-08-05T12:06:14Z</time>
      </trkpt>
      <trkpt lat="44.26431" lon="6.58247">
        <ele>1601.9</ele>
        <time>2018-08-05T12:06:15Z</time>
      </trkpt>
      <trkpt lat="44.26421" lon="6.58249">
        <ele>1601.4</ele>
        <time>2018-08-05T12:06:16Z</time>
      </trkpt>
      <trkpt lat="44.26411" lon="6.58252">
        <ele>1601.1</ele>
        <time>2018-08-05T12:06:17Z</time>
      </trkpt>
      <trkpt lat="44.264" lon="6.58255">
        <ele>1600.9</ele>
        <time>2018-08-05T12:06:18Z</time>
      </trkpt>
      <trkpt lat="44.2639" lon="6.58258">
        <ele>1600.4</ele>
        <time>2018-08-05T12:06:19Z</time>
      </trkpt>
      <trkpt lat="44.2638" lon="6.58262">
        <ele>1599.8</ele>
        <time>2018-08-05T12:06:20Z</time>
      </trkpt>
      <trkpt lat="44.26369" lon="6.58264">
        <ele>1599.4</ele>
        <time>2018-08-05T12:06:21Z</time>
      </trkpt>
      <trkpt lat="44.26359" lon="6.58267">
        <ele>1598.6</ele>
        <time>2018-08-05T12:06:22Z</time>
      </trkpt>
      <trkpt lat="44.26349" lon="6.58271">
        <ele>1598.1</ele>
        <time>2018-08-05T12:06:23Z</time>
      </trkpt>
      <trkpt lat="44.2634" lon="6.58275">
        <ele>1597.5</ele>
        <time>2018-08-05T12:06:24Z</time>
      </trkpt>
      <trkpt lat="44.26331" lon="6.58279">
        <ele>1596.3</ele>
        <time>2018-08-05T12:06:25Z</time>
      </trkpt>
      <trkpt lat="44.26323" lon="6.58285">
        <ele>1595.3</ele>
        <time>2018-08-05T12:06:26Z</time>
      </trkpt>
      <trkpt lat="44.26317" lon="6.58291">
        <ele>1595.1</ele>
        <time>2018-08-05T12:06:27Z</time>
      </trkpt>
      <trkpt lat="44.26313" lon="6.58299">
        <ele>1594.8</ele>
        <time>2018-08-05T12:06:28Z</time>
      </trkpt>
      <trkpt lat="44.26311" lon="6.58308">
        <ele>1594.3</ele>
        <time>2018-08-05T12:06:29Z</time>
      </trkpt>
      <trkpt lat="44.26312" lon="6.58319">
        <ele>1593.9</ele>
        <time>2018-08-05T12:06:30Z</time>
      </trkpt>
      <trkpt lat="44.26315" lon="6.58329">
        <ele>1593.6</ele>
        <time>2018-08-05T12:06:31Z</time>
      </trkpt>
      <trkpt lat="44.26318" lon="6.58339">
        <ele>1593.4</ele>
        <time>2018-08-05T12:06:32Z</time>
      </trkpt>
      <trkpt lat="44.26322" lon="6.5835">
        <ele>1593.2</ele>
        <time>2018-08-05T12:06:33Z</time>
      </trkpt>
      <trkpt lat="44.26324" lon="6.58362">
        <ele>1592.8</ele>
        <time>2018-08-05T12:06:34Z</time>
      </trkpt>
      <trkpt lat="44.26324" lon="6.58372">
        <ele>1592.4</ele>
        <time>2018-08-05T12:06:35Z</time>
      </trkpt>
      <trkpt lat="44.26321" lon="6.58383">
        <ele>1592.2</ele>
        <time>2018-08-05T12:06:36Z</time>
      </trkpt>
      <trkpt lat="44.26316" lon="6.58392">
        <ele>1592</ele>
        <time>2018-08-05T12:06:37Z</time>
      </trkpt>
      <trkpt lat="44.26309" lon="6.58399">
        <ele>1591.5</ele>
        <time>2018-08-05T12:06:38Z</time>
      </trkpt>
      <trkpt lat="44.26302" lon="6.58407">
        <ele>1591.1</ele>
        <time>2018-08-05T12:06:39Z</time>
      </trkpt>
      <trkpt lat="44.26296" lon="6.58415">
        <ele>1590.9</ele>
        <time>2018-08-05T12:06:40Z</time>
      </trkpt>
      <trkpt lat="44.2629" lon="6.58424">
        <ele>1590.7</ele>
        <time>2018-08-05T12:06:41Z</time>
      </trkpt>
      <trkpt lat="44.26283" lon="6.58433">
        <ele>1590.2</ele>
        <time>2018-08-05T12:06:42Z</time>
      </trkpt>
      <trkpt lat="44.26277" lon="6.58442">
        <ele>1589.7</ele>
        <time>2018-08-05T12:06:43Z</time>
      </trkpt>
      <trkpt lat="44.26269" lon="6.58451">
        <ele>1589.5</ele>
        <time>2018-08-05T12:06:44Z</time>
      </trkpt>
      <trkpt lat="44.26262" lon="6.58458">
        <ele>1589.3</ele>
        <time>2018-08-05T12:06:45Z</time>
      </trkpt>
      <trkpt lat="44.26254" lon="6.58466">
        <ele>1589</ele>
        <time>2018-08-05T12:06:46Z</time>
      </trkpt>
      <trkpt lat="44.26246" lon="6.58473">
        <ele>1588.5</ele>
        <time>2018-08-05T12:06:47Z</time>
      </trkpt>
      <trkpt lat="44.26237" lon="6.58481">
        <ele>1588.2</ele>
        <time>2018-08-05T12:06:48Z</time>
      </trkpt>
      <trkpt lat="44.26228" lon="6.58487">
        <ele>1587.8</ele>
        <time>2018-08-05T12:06:49Z</time>
      </trkpt>
      <trkpt lat="44.26219" lon="6.58493">
        <ele>1587.2</ele>
        <time>2018-08-05T12:06:50Z</time>
      </trkpt>
      <trkpt lat="44.2621" lon="6.585">
        <ele>1586.8</ele>
        <time>2018-08-05T12:06:51Z</time>
      </trkpt>
      <trkpt lat="44.262" lon="6.58507">
        <ele>1586.5</ele>
        <time>2018-08-05T12:06:52Z</time>
      </trkpt>
      <trkpt lat="44.26191" lon="6.58513">
        <ele>1586</ele>
        <time>2018-08-05T12:06:53Z</time>
      </trkpt>
      <trkpt lat="44.26182" lon="6.58521">
        <ele>1585.7</ele>
        <time>2018-08-05T12:06:54Z</time>
      </trkpt>
      <trkpt lat="44.26173" lon="6.58528">
        <ele>1585.4</ele>
        <time>2018-08-05T12:06:55Z</time>
      </trkpt>
      <trkpt lat="44.26163" lon="6.58536">
        <ele>1584.7</ele>
        <time>2018-08-05T12:06:56Z</time>
      </trkpt>
      <trkpt lat="44.26154" lon="6.58544">
        <ele>1584.2</ele>
        <time>2018-08-05T12:06:57Z</time>
      </trkpt>
      <trkpt lat="44.26145" lon="6.58552">
        <ele>1584</ele>
        <time>2018-08-05T12:06:58Z</time>
      </trkpt>
      <trkpt lat="44.26136" lon="6.5856">
        <ele>1583.7</ele>
        <time>2018-08-05T12:06:59Z</time>
      </trkpt>
      <trkpt lat="44.26126" lon="6.58568">
        <ele>1583.1</ele>
        <time>2018-08-05T12:07:00Z</time>
      </trkpt>
      <trkpt lat="44.26118" lon="6.58578">
        <ele>1582.8</ele>
        <time>2018-08-05T12:07:01Z</time>
      </trkpt>
      <trkpt lat="44.2611" lon="6.58589">
        <ele>1582.2</ele>
        <time>2018-08-05T12:07:02Z</time>
      </trkpt>
      <trkpt lat="44.26103" lon="6.586">
        <ele>1581.6</ele>
        <time>2018-08-05T12:07:03Z</time>
      </trkpt>
      <trkpt lat="44.26096" lon="6.58612">
        <ele>1581.4</ele>
        <time>2018-08-05T12:07:04Z</time>
      </trkpt>
      <trkpt lat="44.26089" lon="6.58623">
        <ele>1581.1</ele>
        <time>2018-08-05T12:07:05Z</time>
      </trkpt>
      <trkpt lat="44.26082" lon="6.58635">
        <ele>1580.6</ele>
        <time>2018-08-05T12:07:06Z</time>
      </trkpt>
      <trkpt lat="44.26073" lon="6.58645">
        <ele>1580.1</ele>
        <time>2018-08-05T12:07:07Z</time>
      </trkpt>
      <trkpt lat="44.26064" lon="6.58654">
        <ele>1579.8</ele>
        <time>2018-08-05T12:07:08Z</time>
      </trkpt>
      <trkpt lat="44.26054" lon="6.58662">
        <ele>1579.1</ele>
        <time>2018-08-05T12:07:09Z</time>
      </trkpt>
      <trkpt lat="44.26044" lon="6.58669">
        <ele>1578.8</ele>
        <time>2018-08-05T12:07:10Z</time>
      </trkpt>
      <trkpt lat="44.26035" lon="6.58676">
        <ele>1578.5</ele>
        <time>2018-08-05T12:07:11Z</time>
      </trkpt>
      <trkpt lat="44.26025" lon="6.58684">
        <ele>1577.8</ele>
        <time>2018-08-05T12:07:12Z</time>
      </trkpt>
      <trkpt lat="44.26017" lon="6.58692">
        <ele>1577.4</ele>
        <time>2018-08-05T12:07:13Z</time>
      </trkpt>
      <trkpt lat="44.26009" lon="6.58702">
        <ele>1576.8</ele>
        <time>2018-08-05T12:07:14Z</time>
      </trkpt>
      <trkpt lat="44.26002" lon="6.58713">
        <ele>1576.3</ele>
        <time>2018-08-05T12:07:15Z</time>
      </trkpt>
      <trkpt lat="44.25997" lon="6.58725">
        <ele>1576.1</ele>
        <time>2018-08-05T12:07:16Z</time>
      </trkpt>
      <trkpt lat="44.25993" lon="6.58739">
        <ele>1575.8</ele>
        <time>2018-08-05T12:07:17Z</time>
      </trkpt>
      <trkpt lat="44.2599" lon="6.58754">
        <ele>1575.1</ele>
        <time>2018-08-05T12:07:18Z</time>
      </trkpt>
      <trkpt lat="44.25988" lon="6.58769">
        <ele>1574.4</ele>
        <time>2018-08-05T12:07:19Z</time>
      </trkpt>
      <trkpt lat="44.25986" lon="6.58783">
        <ele>1573.7</ele>
        <time>2018-08-05T12:07:20Z</time>
      </trkpt>
      <trkpt lat="44.25983" lon="6.58797">
        <ele>1573.3</ele>
        <time>2018-08-05T12:07:21Z</time>
      </trkpt>
      <trkpt lat="44.25979" lon="6.5881">
        <ele>1572.6</ele>
        <time>2018-08-05T12:07:22Z</time>
      </trkpt>
      <trkpt lat="44.25974" lon="6.58822">
        <ele>1572.3</ele>
        <time>2018-08-05T12:07:23Z</time>
      </trkpt>
      <trkpt lat="44.25967" lon="6.58833">
        <ele>1571.6</ele>
        <time>2018-08-05T12:07:24Z</time>
      </trkpt>
      <trkpt lat="44.25959" lon="6.58843">
        <ele>1571.1</ele>
        <time>2018-08-05T12:07:25Z</time>
      </trkpt>
      <trkpt lat="44.2595" lon="6.58851">
        <ele>1571.1</ele>
        <time>2018-08-05T12:07:26Z</time>
      </trkpt>
      <trkpt lat="44.2594" lon="6.58855">
        <ele>1571</ele>
        <time>2018-08-05T12:07:27Z</time>
      </trkpt>
      <trkpt lat="44.2593" lon="6.58858">
        <ele>1570.1</ele>
        <time>2018-08-05T12:07:28Z</time>
      </trkpt>
      <trkpt lat="44.25919" lon="6.5886">
        <ele>1569</ele>
        <time>2018-08-05T12:07:29Z</time>
      </trkpt>
      <trkpt lat="44.25908" lon="6.58862">
        <ele>1567.9</ele>
        <time>2018-08-05T12:07:30Z</time>
      </trkpt>
      <trkpt lat="44.25897" lon="6.58864">
        <ele>1566.3</ele>
        <time>2018-08-05T12:07:31Z</time>
      </trkpt>
      <trkpt lat="44.25886" lon="6.58868">
        <ele>1563.3</ele>
        <time>2018-08-05T12:07:32Z</time>
      </trkpt>
      <trkpt lat="44.25876" lon="6.58874">
        <ele>1561.6</ele>
        <time>2018-08-05T12:07:33Z</time>
      </trkpt>
      <trkpt lat="44.25867" lon="6.58882">
        <ele>1559.9</ele>
        <time>2018-08-05T12:07:34Z</time>
      </trkpt>
      <trkpt lat="44.25858" lon="6.58892">
        <ele>1557.6</ele>
        <time>2018-08-05T12:07:35Z</time>
      </trkpt>
      <trkpt lat="44.25851" lon="6.58904">
        <ele>1556.6</ele>
        <time>2018-08-05T12:07:36Z</time>
      </trkpt>
      <trkpt lat="44.25845" lon="6.58917">
        <ele>1555.6</ele>
        <time>2018-08-05T12:07:37Z</time>
      </trkpt>
      <trkpt lat="44.2584" lon="6.58932">
        <ele>1554.6</ele>
        <time>2018-08-05T12:07:38Z</time>
      </trkpt>
      <trkpt lat="44.25836" lon="6.58947">
        <ele>1551.9</ele>
        <time>2018-08-05T12:07:39Z</time>
      </trkpt>
      <trkpt lat="44.25833" lon="6.58962">
        <ele>1549.6</ele>
        <time>2018-08-05T12:07:40Z</time>
      </trkpt>
      <trkpt lat="44.2583" lon="6.58977">
        <ele>1546.9</ele>
        <time>2018-08-05T12:07:41Z</time>
      </trkpt>
      <trkpt lat="44.25827" lon="6.58992">
        <ele>1545.1</ele>
        <time>2018-08-05T12:07:42Z</time>
      </trkpt>
      <trkpt lat="44.25822" lon="6.59006">
        <ele>1543.3</ele>
        <time>2018-08-05T12:07:43Z</time>
      </trkpt>
      <trkpt lat="44.25818" lon="6.5902">
        <ele>1540.6</ele>
        <time>2018-08-05T12:07:44Z</time>
      </trkpt>
      <trkpt lat="44.25811" lon="6.59033">
        <ele>1539.1</ele>
        <time>2018-08-05T12:07:45Z</time>
      </trkpt>
      <trkpt lat="44.25805" lon="6.59045">
        <ele>1538.2</ele>
        <time>2018-08-05T12:07:46Z</time>
      </trkpt>
      <trkpt lat="44.25798" lon="6.59057">
        <ele>1537.5</ele>
        <time>2018-08-05T12:07:47Z</time>
      </trkpt>
      <trkpt lat="44.25791" lon="6.59068">
        <ele>1536.9</ele>
        <time>2018-08-05T12:07:48Z</time>
      </trkpt>
      <trkpt lat="44.25783" lon="6.5908">
        <ele>1536.7</ele>
        <time>2018-08-05T12:07:49Z</time>
      </trkpt>
      <trkpt lat="44.25776" lon="6.59091">
        <ele>1536.5</ele>
        <time>2018-08-05T12:07:50Z</time>
      </trkpt>
      <trkpt lat="44.25768" lon="6.59102">
        <ele>1535.8</ele>
        <time>2018-08-05T12:07:51Z</time>
      </trkpt>
      <trkpt lat="44.25761" lon="6.59113">
        <ele>1535.1</ele>
        <time>2018-08-05T12:07:52Z</time>
      </trkpt>
      <trkpt lat="44.25754" lon="6.59123">
        <ele>1534.8</ele>
        <time>2018-08-05T12:07:53Z</time>
      </trkpt>
      <trkpt lat="44.25746" lon="6.59133">
        <ele>1534.5</ele>
        <time>2018-08-05T12:07:54Z</time>
      </trkpt>
      <trkpt lat="44.25739" lon="6.59144">
        <ele>1534.2</ele>
        <time>2018-08-05T12:07:55Z</time>
      </trkpt>
      <trkpt lat="44.25732" lon="6.59153">
        <ele>1533.6</ele>
        <time>2018-08-05T12:07:56Z</time>
      </trkpt>
      <trkpt lat="44.25725" lon="6.59164">
        <ele>1533.1</ele>
        <time>2018-08-05T12:07:57Z</time>
      </trkpt>
      <trkpt lat="44.25718" lon="6.59173">
        <ele>1532.9</ele>
        <time>2018-08-05T12:07:58Z</time>
      </trkpt>
      <trkpt lat="44.2571" lon="6.59183">
        <ele>1532.7</ele>
        <time>2018-08-05T12:07:59Z</time>
      </trkpt>
      <trkpt lat="44.25702" lon="6.59191">
        <ele>1532.5</ele>
        <time>2018-08-05T12:08:00Z</time>
      </trkpt>
      <trkpt lat="44.25694" lon="6.592">
        <ele>1532.3</ele>
        <time>2018-08-05T12:08:01Z</time>
      </trkpt>
      <trkpt lat="44.25688" lon="6.5921">
        <ele>1531.8</ele>
        <time>2018-08-05T12:08:02Z</time>
      </trkpt>
      <trkpt lat="44.25683" lon="6.59222">
        <ele>1531.1</ele>
        <time>2018-08-05T12:08:03Z</time>
      </trkpt>
      <trkpt lat="44.25678" lon="6.59233">
        <ele>1530.6</ele>
        <time>2018-08-05T12:08:04Z</time>
      </trkpt>
      <trkpt lat="44.25674" lon="6.59245">
        <ele>1530.2</ele>
        <time>2018-08-05T12:08:05Z</time>
      </trkpt>
      <trkpt lat="44.25668" lon="6.59256">
        <ele>1529.9</ele>
        <time>2018-08-05T12:08:06Z</time>
      </trkpt>
      <trkpt lat="44.25663" lon="6.59267">
        <ele>1529.3</ele>
        <time>2018-08-05T12:08:07Z</time>
      </trkpt>
      <trkpt lat="44.25657" lon="6.59277">
        <ele>1528.8</ele>
        <time>2018-08-05T12:08:08Z</time>
      </trkpt>
      <trkpt lat="44.25651" lon="6.59287">
        <ele>1528.6</ele>
        <time>2018-08-05T12:08:09Z</time>
      </trkpt>
      <trkpt lat="44.25646" lon="6.59298">
        <ele>1528.3</ele>
        <time>2018-08-05T12:08:10Z</time>
      </trkpt>
      <trkpt lat="44.25641" lon="6.5931">
        <ele>1527.9</ele>
        <time>2018-08-05T12:08:11Z</time>
      </trkpt>
      <trkpt lat="44.25636" lon="6.59321">
        <ele>1527.2</ele>
        <time>2018-08-05T12:08:12Z</time>
      </trkpt>
      <trkpt lat="44.2563" lon="6.5933">
        <ele>1526.6</ele>
        <time>2018-08-05T12:08:13Z</time>
      </trkpt>
      <trkpt lat="44.25624" lon="6.5934">
        <ele>1526.4</ele>
        <time>2018-08-05T12:08:14Z</time>
      </trkpt>
      <trkpt lat="44.25617" lon="6.5935">
        <ele>1526.2</ele>
        <time>2018-08-05T12:08:15Z</time>
      </trkpt>
      <trkpt lat="44.2561" lon="6.59358">
        <ele>1526</ele>
        <time>2018-08-05T12:08:16Z</time>
      </trkpt>
      <trkpt lat="44.25603" lon="6.59366">
        <ele>1525.7</ele>
        <time>2018-08-05T12:08:17Z</time>
      </trkpt>
      <trkpt lat="44.25597" lon="6.59374">
        <ele>1525.2</ele>
        <time>2018-08-05T12:08:18Z</time>
      </trkpt>
      <trkpt lat="44.2559" lon="6.59382">
        <ele>1524.6</ele>
        <time>2018-08-05T12:08:19Z</time>
      </trkpt>
      <trkpt lat="44.25585" lon="6.59392">
        <ele>1524.4</ele>
        <time>2018-08-05T12:08:20Z</time>
      </trkpt>
      <trkpt lat="44.25579" lon="6.59402">
        <ele>1524.2</ele>
        <time>2018-08-05T12:08:21Z</time>
      </trkpt>
      <trkpt lat="44.25573" lon="6.59411">
        <ele>1524</ele>
        <time>2018-08-05T12:08:22Z</time>
      </trkpt>
      <trkpt lat="44.25567" lon="6.59419">
        <ele>1523.7</ele>
        <time>2018-08-05T12:08:23Z</time>
      </trkpt>
      <trkpt lat="44.2556" lon="6.59428">
        <ele>1523.1</ele>
        <time>2018-08-05T12:08:24Z</time>
      </trkpt>
      <trkpt lat="44.25553" lon="6.59435">
        <ele>1522.5</ele>
        <time>2018-08-05T12:08:25Z</time>
      </trkpt>
      <trkpt lat="44.25546" lon="6.59442">
        <ele>1522.2</ele>
        <time>2018-08-05T12:08:26Z</time>
      </trkpt>
      <trkpt lat="44.25539" lon="6.59449">
        <ele>1522</ele>
        <time>2018-08-05T12:08:27Z</time>
      </trkpt>
      <trkpt lat="44.25533" lon="6.59458">
        <ele>1521.4</ele>
        <time>2018-08-05T12:08:28Z</time>
      </trkpt>
      <trkpt lat="44.25528" lon="6.59467">
        <ele>1520.8</ele>
        <time>2018-08-05T12:08:29Z</time>
      </trkpt>
      <trkpt lat="44.25523" lon="6.59477">
        <ele>1520.6</ele>
        <time>2018-08-05T12:08:30Z</time>
      </trkpt>
      <trkpt lat="44.25518" lon="6.59487">
        <ele>1520.3</ele>
        <time>2018-08-05T12:08:31Z</time>
      </trkpt>
      <trkpt lat="44.25512" lon="6.59496">
        <ele>1520.2</ele>
        <time>2018-08-05T12:08:32Z</time>
      </trkpt>
      <trkpt lat="44.25507" lon="6.59506">
        <ele>1520</ele>
        <time>2018-08-05T12:08:33Z</time>
      </trkpt>
      <trkpt lat="44.25502" lon="6.59516">
        <ele>1519.6</ele>
        <time>2018-08-05T12:08:34Z</time>
      </trkpt>
      <trkpt lat="44.25497" lon="6.59526">
        <ele>1519</ele>
        <time>2018-08-05T12:08:35Z</time>
      </trkpt>
      <trkpt lat="44.25492" lon="6.59535">
        <ele>1518.5</ele>
        <time>2018-08-05T12:08:36Z</time>
      </trkpt>
      <trkpt lat="44.25486" lon="6.59544">
        <ele>1518.4</ele>
        <time>2018-08-05T12:08:37Z</time>
      </trkpt>
      <trkpt lat="44.25479" lon="6.59552">
        <ele>1518.2</ele>
        <time>2018-08-05T12:08:38Z</time>
      </trkpt>
      <trkpt lat="44.25473" lon="6.59559">
        <ele>1517.9</ele>
        <time>2018-08-05T12:08:39Z</time>
      </trkpt>
      <trkpt lat="44.25466" lon="6.59567">
        <ele>1517.8</ele>
        <time>2018-08-05T12:08:40Z</time>
      </trkpt>
      <trkpt lat="44.25459" lon="6.59576">
        <ele>1517.3</ele>
        <time>2018-08-05T12:08:41Z</time>
      </trkpt>
      <trkpt lat="44.25453" lon="6.59583">
        <ele>1516.7</ele>
        <time>2018-08-05T12:08:42Z</time>
      </trkpt>
      <trkpt lat="44.25446" lon="6.5959">
        <ele>1516.3</ele>
        <time>2018-08-05T12:08:43Z</time>
      </trkpt>
      <trkpt lat="44.25438" lon="6.59594">
        <ele>1516</ele>
        <time>2018-08-05T12:08:44Z</time>
      </trkpt>
      <trkpt lat="44.25429" lon="6.59598">
        <ele>1515.8</ele>
        <time>2018-08-05T12:08:45Z</time>
      </trkpt>
      <trkpt lat="44.2542" lon="6.596">
        <ele>1515.2</ele>
        <time>2018-08-05T12:08:46Z</time>
      </trkpt>
      <trkpt lat="44.25411" lon="6.59604">
        <ele>1514.7</ele>
        <time>2018-08-05T12:08:47Z</time>
      </trkpt>
      <trkpt lat="44.25404" lon="6.59611">
        <ele>1514.5</ele>
        <time>2018-08-05T12:08:48Z</time>
      </trkpt>
      <trkpt lat="44.25396" lon="6.59621">
        <ele>1514.4</ele>
        <time>2018-08-05T12:08:49Z</time>
      </trkpt>
      <trkpt lat="44.2539" lon="6.5963">
        <ele>1514.3</ele>
        <time>2018-08-05T12:08:50Z</time>
      </trkpt>
      <trkpt lat="44.25385" lon="6.5964">
        <ele>1514.2</ele>
        <time>2018-08-05T12:08:51Z</time>
      </trkpt>
      <trkpt lat="44.25378" lon="6.59649">
        <ele>1514.1</ele>
        <time>2018-08-05T12:08:52Z</time>
      </trkpt>
      <trkpt lat="44.25373" lon="6.59658">
        <ele>1513.7</ele>
        <time>2018-08-05T12:08:53Z</time>
      </trkpt>
      <trkpt lat="44.25368" lon="6.5967">
        <ele>1513</ele>
        <time>2018-08-05T12:08:54Z</time>
      </trkpt>
      <trkpt lat="44.25364" lon="6.5968">
        <ele>1512.2</ele>
        <time>2018-08-05T12:08:55Z</time>
      </trkpt>
      <trkpt lat="44.2536" lon="6.59689">
        <ele>1511.5</ele>
        <time>2018-08-05T12:08:56Z</time>
      </trkpt>
      <trkpt lat="44.25355" lon="6.59697">
        <ele>1510.9</ele>
        <time>2018-08-05T12:08:57Z</time>
      </trkpt>
      <trkpt lat="44.25348" lon="6.59703">
        <ele>1510.3</ele>
        <time>2018-08-05T12:08:58Z</time>
      </trkpt>
      <trkpt lat="44.25341" lon="6.59709">
        <ele>1509.8</ele>
        <time>2018-08-05T12:08:59Z</time>
      </trkpt>
      <trkpt lat="44.25334" lon="6.59716">
        <ele>1509.7</ele>
        <time>2018-08-05T12:09:00Z</time>
      </trkpt>
      <trkpt lat="44.25328" lon="6.59722">
        <ele>1509.5</ele>
        <time>2018-08-05T12:09:01Z</time>
      </trkpt>
      <trkpt lat="44.25322" lon="6.59729">
        <ele>1509.4</ele>
        <time>2018-08-05T12:09:02Z</time>
      </trkpt>
      <trkpt lat="44.25318" lon="6.59738">
        <ele>1509.2</ele>
        <time>2018-08-05T12:09:03Z</time>
      </trkpt>
      <trkpt lat="44.25317" lon="6.59748">
        <ele>1509</ele>
        <time>2018-08-05T12:09:04Z</time>
      </trkpt>
      <trkpt lat="44.25318" lon="6.59759">
        <ele>1508.5</ele>
        <time>2018-08-05T12:09:05Z</time>
      </trkpt>
      <trkpt lat="44.25322" lon="6.59769">
        <ele>1508.1</ele>
        <time>2018-08-05T12:09:06Z</time>
      </trkpt>
      <trkpt lat="44.25326" lon="6.59779">
        <ele>1507.8</ele>
        <time>2018-08-05T12:09:07Z</time>
      </trkpt>
      <trkpt lat="44.2533" lon="6.59788">
        <ele>1507.5</ele>
        <time>2018-08-05T12:09:08Z</time>
      </trkpt>
      <trkpt lat="44.25335" lon="6.59798">
        <ele>1507</ele>
        <time>2018-08-05T12:09:09Z</time>
      </trkpt>
      <trkpt lat="44.2534" lon="6.59806">
        <ele>1506.4</ele>
        <time>2018-08-05T12:09:10Z</time>
      </trkpt>
      <trkpt lat="44.25343" lon="6.59813">
        <ele>1506</ele>
        <time>2018-08-05T12:09:11Z</time>
      </trkpt>
      <trkpt lat="44.25344" lon="6.59821">
        <ele>1505.8</ele>
        <time>2018-08-05T12:09:12Z</time>
      </trkpt>
      <trkpt lat="44.25344" lon="6.59829">
        <ele>1505.6</ele>
        <time>2018-08-05T12:09:13Z</time>
      </trkpt>
      <trkpt lat="44.25341" lon="6.59836">
        <ele>1505.4</ele>
        <time>2018-08-05T12:09:14Z</time>
      </trkpt>
      <trkpt lat="44.25337" lon="6.59841">
        <ele>1505.3</ele>
        <time>2018-08-05T12:09:15Z</time>
      </trkpt>
      <trkpt lat="44.25332" lon="6.59843">
        <ele>1505.1</ele>
        <time>2018-08-05T12:09:16Z</time>
      </trkpt>
      <trkpt lat="44.25326" lon="6.59842">
        <ele>1504.9</ele>
        <time>2018-08-05T12:09:17Z</time>
      </trkpt>
      <trkpt lat="44.2532" lon="6.59838">
        <ele>1504.5</ele>
        <time>2018-08-05T12:09:18Z</time>
      </trkpt>
      <trkpt lat="44.25314" lon="6.59834">
        <ele>1504.1</ele>
        <time>2018-08-05T12:09:19Z</time>
      </trkpt>
      <trkpt lat="44.25307" lon="6.5983">
        <ele>1503.7</ele>
        <time>2018-08-05T12:09:20Z</time>
      </trkpt>
      <trkpt lat="44.25299" lon="6.59826">
        <ele>1503.5</ele>
        <time>2018-08-05T12:09:21Z</time>
      </trkpt>
      <trkpt lat="44.25292" lon="6.59824">
        <ele>1503.4</ele>
        <time>2018-08-05T12:09:22Z</time>
      </trkpt>
      <trkpt lat="44.25283" lon="6.59822">
        <ele>1503.2</ele>
        <time>2018-08-05T12:09:23Z</time>
      </trkpt>
      <trkpt lat="44.25275" lon="6.59823">
        <ele>1503</ele>
        <time>2018-08-05T12:09:24Z</time>
      </trkpt>
      <trkpt lat="44.25267" lon="6.59828">
        <ele>1502.7</ele>
        <time>2018-08-05T12:09:25Z</time>
      </trkpt>
      <trkpt lat="44.25259" lon="6.59834">
        <ele>1502.2</ele>
        <time>2018-08-05T12:09:26Z</time>
      </trkpt>
      <trkpt lat="44.25253" lon="6.59842">
        <ele>1501.6</ele>
        <time>2018-08-05T12:09:27Z</time>
      </trkpt>
      <trkpt lat="44.25246" lon="6.59851">
        <ele>1501.5</ele>
        <time>2018-08-05T12:09:28Z</time>
      </trkpt>
      <trkpt lat="44.2524" lon="6.59859">
        <ele>1501.3</ele>
        <time>2018-08-05T12:09:29Z</time>
      </trkpt>
      <trkpt lat="44.25233" lon="6.59867">
        <ele>1501.2</ele>
        <time>2018-08-05T12:09:30Z</time>
      </trkpt>
      <trkpt lat="44.25227" lon="6.59875">
        <ele>1500.8</ele>
        <time>2018-08-05T12:09:31Z</time>
      </trkpt>
      <trkpt lat="44.2522" lon="6.59883">
        <ele>1500.3</ele>
        <time>2018-08-05T12:09:32Z</time>
      </trkpt>
      <trkpt lat="44.25213" lon="6.59891">
        <ele>1499.9</ele>
        <time>2018-08-05T12:09:33Z</time>
      </trkpt>
      <trkpt lat="44.25206" lon="6.59899">
        <ele>1499.6</ele>
        <time>2018-08-05T12:09:34Z</time>
      </trkpt>
      <trkpt lat="44.25199" lon="6.59907">
        <ele>1499.4</ele>
        <time>2018-08-05T12:09:35Z</time>
      </trkpt>
      <trkpt lat="44.25192" lon="6.59915">
        <ele>1499.1</ele>
        <time>2018-08-05T12:09:36Z</time>
      </trkpt>
      <trkpt lat="44.25186" lon="6.59923">
        <ele>1498.6</ele>
        <time>2018-08-05T12:09:37Z</time>
      </trkpt>
      <trkpt lat="44.2518" lon="6.59933">
        <ele>1498</ele>
        <time>2018-08-05T12:09:38Z</time>
      </trkpt>
      <trkpt lat="44.25175" lon="6.59943">
        <ele>1497.6</ele>
        <time>2018-08-05T12:09:39Z</time>
      </trkpt>
      <trkpt lat="44.2517" lon="6.59953">
        <ele>1497.2</ele>
        <time>2018-08-05T12:09:40Z</time>
      </trkpt>
      <trkpt lat="44.25166" lon="6.59964">
        <ele>1497</ele>
        <time>2018-08-05T12:09:41Z</time>
      </trkpt>
      <trkpt lat="44.25161" lon="6.59974">
        <ele>1496.8</ele>
        <time>2018-08-05T12:09:42Z</time>
      </trkpt>
      <trkpt lat="44.25157" lon="6.59985">
        <ele>1496.7</ele>
        <time>2018-08-05T12:09:43Z</time>
      </trkpt>
      <trkpt lat="44.25154" lon="6.59996">
        <ele>1496.2</ele>
        <time>2018-08-05T12:09:44Z</time>
      </trkpt>
      <trkpt lat="44.2515" lon="6.60007">
        <ele>1495.6</ele>
        <time>2018-08-05T12:09:45Z</time>
      </trkpt>
      <trkpt lat="44.25144" lon="6.60017">
        <ele>1495.2</ele>
        <time>2018-08-05T12:09:46Z</time>
      </trkpt>
      <trkpt lat="44.25138" lon="6.60025">
        <ele>1494.7</ele>
        <time>2018-08-05T12:09:47Z</time>
      </trkpt>
      <trkpt lat="44.2513" lon="6.60031">
        <ele>1494</ele>
        <time>2018-08-05T12:09:48Z</time>
      </trkpt>
      <trkpt lat="44.25122" lon="6.60036">
        <ele>1493.4</ele>
        <time>2018-08-05T12:09:49Z</time>
      </trkpt>
      <trkpt lat="44.25114" lon="6.60042">
        <ele>1493.2</ele>
        <time>2018-08-05T12:09:50Z</time>
      </trkpt>
      <trkpt lat="44.25106" lon="6.6005">
        <ele>1493</ele>
        <time>2018-08-05T12:09:51Z</time>
      </trkpt>
      <trkpt lat="44.25098" lon="6.60057">
        <ele>1492.8</ele>
        <time>2018-08-05T12:09:52Z</time>
      </trkpt>
      <trkpt lat="44.25091" lon="6.60061">
        <ele>1492.6</ele>
        <time>2018-08-05T12:09:53Z</time>
      </trkpt>
      <trkpt lat="44.25085" lon="6.60064">
        <ele>1492.2</ele>
        <time>2018-08-05T12:09:54Z</time>
      </trkpt>
      <trkpt lat="44.2508" lon="6.60066">
        <ele>1491.8</ele>
        <time>2018-08-05T12:09:55Z</time>
      </trkpt>
      <trkpt lat="44.25077" lon="6.60067">
        <ele>1491.6</ele>
        <time>2018-08-05T12:09:56Z</time>
      </trkpt>
      <trkpt lat="44.25076" lon="6.60073">
        <ele>1491.4</ele>
        <time>2018-08-05T12:11:57Z</time>
      </trkpt>
      <trkpt lat="44.25074" lon="6.60074">
        <ele>1491.3</ele>
        <time>2018-08-05T12:11:59Z</time>
      </trkpt>
      <trkpt lat="44.25071" lon="6.60075">
        <ele>1491.1</ele>
        <time>2018-08-05T12:12:00Z</time>
      </trkpt>
      <trkpt lat="44.25067" lon="6.60077">
        <ele>1491</ele>
        <time>2018-08-05T12:12:01Z</time>
      </trkpt>
      <trkpt lat="44.25063" lon="6.60079">
        <ele>1490.9</ele>
        <time>2018-08-05T12:12:02Z</time>
      </trkpt>
      <trkpt lat="44.25058" lon="6.60081">
        <ele>1490.8</ele>
        <time>2018-08-05T12:12:03Z</time>
      </trkpt>
      <trkpt lat="44.25052" lon="6.60084">
        <ele>1490.7</ele>
        <time>2018-08-05T12:12:04Z</time>
      </trkpt>
      <trkpt lat="44.25046" lon="6.60086">
        <ele>1490.5</ele>
        <time>2018-08-05T12:12:05Z</time>
      </trkpt>
      <trkpt lat="44.25039" lon="6.60089">
        <ele>1490</ele>
        <time>2018-08-05T12:12:06Z</time>
      </trkpt>
      <trkpt lat="44.25033" lon="6.60092">
        <ele>1489.5</ele>
        <time>2018-08-05T12:12:07Z</time>
      </trkpt>
      <trkpt lat="44.25026" lon="6.60096">
        <ele>1489.3</ele>
        <time>2018-08-05T12:12:08Z</time>
      </trkpt>
      <trkpt lat="44.2502" lon="6.60101">
        <ele>1489.1</ele>
        <time>2018-08-05T12:12:09Z</time>
      </trkpt>
      <trkpt lat="44.25013" lon="6.60105">
        <ele>1488.9</ele>
        <time>2018-08-05T12:12:10Z</time>
      </trkpt>
      <trkpt lat="44.25006" lon="6.6011">
        <ele>1488.7</ele>
        <time>2018-08-05T12:12:11Z</time>
      </trkpt>
      <trkpt lat="44.24999" lon="6.60114">
        <ele>1488.4</ele>
        <time>2018-08-05T12:12:12Z</time>
      </trkpt>
      <trkpt lat="44.24992" lon="6.60119">
        <ele>1487.9</ele>
        <time>2018-08-05T12:12:13Z</time>
      </trkpt>
      <trkpt lat="44.24986" lon="6.60125">
        <ele>1487.4</ele>
        <time>2018-08-05T12:12:14Z</time>
      </trkpt>
      <trkpt lat="44.24979" lon="6.6013">
        <ele>1487.3</ele>
        <time>2018-08-05T12:12:15Z</time>
      </trkpt>
      <trkpt lat="44.24972" lon="6.60135">
        <ele>1487.1</ele>
        <time>2018-08-05T12:12:16Z</time>
      </trkpt>
      <trkpt lat="44.24964" lon="6.60138">
        <ele>1486.8</ele>
        <time>2018-08-05T12:12:17Z</time>
      </trkpt>
      <trkpt lat="44.24956" lon="6.6014">
        <ele>1486.6</ele>
        <time>2018-08-05T12:12:18Z</time>
      </trkpt>
      <trkpt lat="44.24948" lon="6.60143">
        <ele>1486.1</ele>
        <time>2018-08-05T12:12:19Z</time>
      </trkpt>
      <trkpt lat="44.24941" lon="6.60148">
        <ele>1485.5</ele>
        <time>2018-08-05T12:12:20Z</time>
      </trkpt>
      <trkpt lat="44.24936" lon="6.60156">
        <ele>1485.1</ele>
        <time>2018-08-05T12:12:21Z</time>
      </trkpt>
      <trkpt lat="44.24932" lon="6.60166">
        <ele>1484.8</ele>
        <time>2018-08-05T12:12:22Z</time>
      </trkpt>
      <trkpt lat="44.24929" lon="6.60176">
        <ele>1484.6</ele>
        <time>2018-08-05T12:12:23Z</time>
      </trkpt>
      <trkpt lat="44.24925" lon="6.60186">
        <ele>1484.4</ele>
        <time>2018-08-05T12:12:24Z</time>
      </trkpt>
      <trkpt lat="44.2492" lon="6.60195">
        <ele>1484</ele>
        <time>2018-08-05T12:12:25Z</time>
      </trkpt>
      <trkpt lat="44.24914" lon="6.60203">
        <ele>1483.4</ele>
        <time>2018-08-05T12:12:26Z</time>
      </trkpt>
      <trkpt lat="44.24908" lon="6.60212">
        <ele>1483</ele>
        <time>2018-08-05T12:12:27Z</time>
      </trkpt>
      <trkpt lat="44.24902" lon="6.60219">
        <ele>1482.6</ele>
        <time>2018-08-05T12:12:28Z</time>
      </trkpt>
      <trkpt lat="44.24897" lon="6.60227">
        <ele>1482</ele>
        <time>2018-08-05T12:12:29Z</time>
      </trkpt>
      <trkpt lat="44.24894" lon="6.60237">
        <ele>1481.5</ele>
        <time>2018-08-05T12:12:30Z</time>
      </trkpt>
      <trkpt lat="44.24891" lon="6.60247">
        <ele>1481.1</ele>
        <time>2018-08-05T12:12:31Z</time>
      </trkpt>
      <trkpt lat="44.2489" lon="6.60259">
        <ele>1480.8</ele>
        <time>2018-08-05T12:12:32Z</time>
      </trkpt>
      <trkpt lat="44.24891" lon="6.6027">
        <ele>1480.5</ele>
        <time>2018-08-05T12:12:33Z</time>
      </trkpt>
      <trkpt lat="44.24891" lon="6.6028">
        <ele>1480.1</ele>
        <time>2018-08-05T12:12:34Z</time>
      </trkpt>
      <trkpt lat="44.2489" lon="6.60291">
        <ele>1479.4</ele>
        <time>2018-08-05T12:12:35Z</time>
      </trkpt>
      <trkpt lat="44.24887" lon="6.603">
        <ele>1479</ele>
        <time>2018-08-05T12:12:36Z</time>
      </trkpt>
      <trkpt lat="44.24882" lon="6.60308">
        <ele>1479.1</ele>
        <time>2018-08-05T12:12:37Z</time>
      </trkpt>
      <trkpt lat="44.24876" lon="6.60314">
        <ele>1479.2</ele>
        <time>2018-08-05T12:12:38Z</time>
      </trkpt>
      <trkpt lat="44.24869" lon="6.6032">
        <ele>1479.3</ele>
        <time>2018-08-05T12:12:39Z</time>
      </trkpt>
      <trkpt lat="44.24862" lon="6.60325">
        <ele>1479.4</ele>
        <time>2018-08-05T12:12:40Z</time>
      </trkpt>
      <trkpt lat="44.24855" lon="6.60331">
        <ele>1479.4</ele>
        <time>2018-08-05T12:12:41Z</time>
      </trkpt>
      <trkpt lat="44.24848" lon="6.60338">
        <ele>1479.2</ele>
        <time>2018-08-05T12:12:42Z</time>
      </trkpt>
      <trkpt lat="44.24841" lon="6.60345">
        <ele>1479</ele>
        <time>2018-08-05T12:12:43Z</time>
      </trkpt>
      <trkpt lat="44.24835" lon="6.60353">
        <ele>1478.9</ele>
        <time>2018-08-05T12:12:44Z</time>
      </trkpt>
      <trkpt lat="44.24828" lon="6.60362">
        <ele>1478.6</ele>
        <time>2018-08-05T12:12:45Z</time>
      </trkpt>
      <trkpt lat="44.24821" lon="6.6037">
        <ele>1478.3</ele>
        <time>2018-08-05T12:12:46Z</time>
      </trkpt>
      <trkpt lat="44.24814" lon="6.60379">
        <ele>1478.3</ele>
        <time>2018-08-05T12:12:47Z</time>
      </trkpt>
      <trkpt lat="44.24808" lon="6.60387">
        <ele>1478.3</ele>
        <time>2018-08-05T12:12:48Z</time>
      </trkpt>
      <trkpt lat="44.24801" lon="6.60396">
        <ele>1478.2</ele>
        <time>2018-08-05T12:12:49Z</time>
      </trkpt>
      <trkpt lat="44.24794" lon="6.60404">
        <ele>1478.2</ele>
        <time>2018-08-05T12:12:50Z</time>
      </trkpt>
      <trkpt lat="44.24787" lon="6.60413">
        <ele>1478.1</ele>
        <time>2018-08-05T12:12:51Z</time>
      </trkpt>
      <trkpt lat="44.2478" lon="6.60421">
        <ele>1478</ele>
        <time>2018-08-05T12:12:52Z</time>
      </trkpt>
      <trkpt lat="44.24773" lon="6.6043">
        <ele>1477.9</ele>
        <time>2018-08-05T12:12:53Z</time>
      </trkpt>
      <trkpt lat="44.24766" lon="6.60438">
        <ele>1477.8</ele>
        <time>2018-08-05T12:12:54Z</time>
      </trkpt>
      <trkpt lat="44.24759" lon="6.60447">
        <ele>1477.7</ele>
        <time>2018-08-05T12:12:55Z</time>
      </trkpt>
      <trkpt lat="44.24751" lon="6.60455">
        <ele>1477.5</ele>
        <time>2018-08-05T12:12:56Z</time>
      </trkpt>
      <trkpt lat="44.24744" lon="6.60464">
        <ele>1477.3</ele>
        <time>2018-08-05T12:12:57Z</time>
      </trkpt>
      <trkpt lat="44.24736" lon="6.60473">
        <ele>1477.1</ele>
        <time>2018-08-05T12:12:58Z</time>
      </trkpt>
      <trkpt lat="44.24728" lon="6.60482">
        <ele>1477</ele>
        <time>2018-08-05T12:12:59Z</time>
      </trkpt>
      <trkpt lat="44.24721" lon="6.6049">
        <ele>1476.8</ele>
        <time>2018-08-05T12:13:00Z</time>
      </trkpt>
      <trkpt lat="44.24714" lon="6.60498">
        <ele>1476.6</ele>
        <time>2018-08-05T12:13:01Z</time>
      </trkpt>
      <trkpt lat="44.24707" lon="6.60506">
        <ele>1476.6</ele>
        <time>2018-08-05T12:13:02Z</time>
      </trkpt>
      <trkpt lat="44.24701" lon="6.60515">
        <ele>1476.6</ele>
        <time>2018-08-05T12:13:03Z</time>
      </trkpt>
      <trkpt lat="44.24696" lon="6.60524">
        <ele>1476.6</ele>
        <time>2018-08-05T12:13:04Z</time>
      </trkpt>
      <trkpt lat="44.24691" lon="6.60535">
        <ele>1476.6</ele>
        <time>2018-08-05T12:13:05Z</time>
      </trkpt>
      <trkpt lat="44.24688" lon="6.60546">
        <ele>1476.6</ele>
        <time>2018-08-05T12:13:06Z</time>
      </trkpt>
      <trkpt lat="44.24685" lon="6.60557">
        <ele>1476.4</ele>
        <time>2018-08-05T12:13:07Z</time>
      </trkpt>
      <trkpt lat="44.24683" lon="6.60569">
        <ele>1476.3</ele>
        <time>2018-08-05T12:13:08Z</time>
      </trkpt>
      <trkpt lat="44.24682" lon="6.60582">
        <ele>1476.2</ele>
        <time>2018-08-05T12:13:09Z</time>
      </trkpt>
      <trkpt lat="44.24681" lon="6.60594">
        <ele>1476.2</ele>
        <time>2018-08-05T12:13:10Z</time>
      </trkpt>
      <trkpt lat="44.24682" lon="6.60606">
        <ele>1476.2</ele>
        <time>2018-08-05T12:13:11Z</time>
      </trkpt>
      <trkpt lat="44.24683" lon="6.60618">
        <ele>1476.2</ele>
        <time>2018-08-05T12:13:12Z</time>
      </trkpt>
      <trkpt lat="44.24685" lon="6.6063">
        <ele>1476</ele>
        <time>2018-08-05T12:13:13Z</time>
      </trkpt>
      <trkpt lat="44.24688" lon="6.60642">
        <ele>1475.9</ele>
        <time>2018-08-05T12:13:14Z</time>
      </trkpt>
      <trkpt lat="44.2469" lon="6.60655">
        <ele>1475.7</ele>
        <time>2018-08-05T12:13:15Z</time>
      </trkpt>
      <trkpt lat="44.24692" lon="6.60667">
        <ele>1475.3</ele>
        <time>2018-08-05T12:13:16Z</time>
      </trkpt>
      <trkpt lat="44.24694" lon="6.6068">
        <ele>1474.9</ele>
        <time>2018-08-05T12:13:17Z</time>
      </trkpt>
      <trkpt lat="44.24695" lon="6.60693">
        <ele>1474.4</ele>
        <time>2018-08-05T12:13:18Z</time>
      </trkpt>
      <trkpt lat="44.24695" lon="6.60706">
        <ele>1474</ele>
        <time>2018-08-05T12:13:19Z</time>
      </trkpt>
      <trkpt lat="44.24695" lon="6.6072">
        <ele>1473.9</ele>
        <time>2018-08-05T12:13:20Z</time>
      </trkpt>
      <trkpt lat="44.24694" lon="6.60732">
        <ele>1473.8</ele>
        <time>2018-08-05T12:13:21Z</time>
      </trkpt>
      <trkpt lat="44.24692" lon="6.60745">
        <ele>1473.7</ele>
        <time>2018-08-05T12:13:22Z</time>
      </trkpt>
      <trkpt lat="44.24691" lon="6.60759">
        <ele>1473.5</ele>
        <time>2018-08-05T12:13:23Z</time>
      </trkpt>
      <trkpt lat="44.24688" lon="6.60771">
        <ele>1473.4</ele>
        <time>2018-08-05T12:13:24Z</time>
      </trkpt>
      <trkpt lat="44.24685" lon="6.60784">
        <ele>1472.8</ele>
        <time>2018-08-05T12:13:25Z</time>
      </trkpt>
      <trkpt lat="44.24682" lon="6.60796">
        <ele>1471.8</ele>
        <time>2018-08-05T12:13:26Z</time>
      </trkpt>
      <trkpt lat="44.24678" lon="6.60809">
        <ele>1470.9</ele>
        <time>2018-08-05T12:13:27Z</time>
      </trkpt>
      <trkpt lat="44.24673" lon="6.6082">
        <ele>1470.5</ele>
        <time>2018-08-05T12:13:28Z</time>
      </trkpt>
      <trkpt lat="44.24668" lon="6.60832">
        <ele>1470.2</ele>
        <time>2018-08-05T12:13:29Z</time>
      </trkpt>
      <trkpt lat="44.24664" lon="6.60844">
        <ele>1470</ele>
        <time>2018-08-05T12:13:30Z</time>
      </trkpt>
      <trkpt lat="44.2466" lon="6.60856">
        <ele>1469.8</ele>
        <time>2018-08-05T12:13:31Z</time>
      </trkpt>
      <trkpt lat="44.24656" lon="6.60868">
        <ele>1469.3</ele>
        <time>2018-08-05T12:13:32Z</time>
      </trkpt>
      <trkpt lat="44.24651" lon="6.6088">
        <ele>1468.7</ele>
        <time>2018-08-05T12:13:33Z</time>
      </trkpt>
      <trkpt lat="44.24647" lon="6.60893">
        <ele>1468.5</ele>
        <time>2018-08-05T12:13:34Z</time>
      </trkpt>
      <trkpt lat="44.24643" lon="6.60906">
        <ele>1468.1</ele>
        <time>2018-08-05T12:13:35Z</time>
      </trkpt>
      <trkpt lat="44.24639" lon="6.60918">
        <ele>1467.7</ele>
        <time>2018-08-05T12:13:36Z</time>
      </trkpt>
      <trkpt lat="44.24635" lon="6.60931">
        <ele>1467.6</ele>
        <time>2018-08-05T12:13:37Z</time>
      </trkpt>
      <trkpt lat="44.24631" lon="6.60944">
        <ele>1467.4</ele>
        <time>2018-08-05T12:13:38Z</time>
      </trkpt>
      <trkpt lat="44.24627" lon="6.60957">
        <ele>1467</ele>
        <time>2018-08-05T12:13:39Z</time>
      </trkpt>
      <trkpt lat="44.24624" lon="6.60971">
        <ele>1466.5</ele>
        <time>2018-08-05T12:13:40Z</time>
      </trkpt>
      <trkpt lat="44.2462" lon="6.60984">
        <ele>1466.1</ele>
        <time>2018-08-05T12:13:41Z</time>
      </trkpt>
      <trkpt lat="44.24616" lon="6.60997">
        <ele>1465.8</ele>
        <time>2018-08-05T12:13:42Z</time>
      </trkpt>
      <trkpt lat="44.24613" lon="6.6101">
        <ele>1465.6</ele>
        <time>2018-08-05T12:13:43Z</time>
      </trkpt>
      <trkpt lat="44.2461" lon="6.61024">
        <ele>1465</ele>
        <time>2018-08-05T12:13:44Z</time>
      </trkpt>
      <trkpt lat="44.24607" lon="6.61037">
        <ele>1464.6</ele>
        <time>2018-08-05T12:13:45Z</time>
      </trkpt>
      <trkpt lat="44.24604" lon="6.61051">
        <ele>1464.4</ele>
        <time>2018-08-05T12:13:46Z</time>
      </trkpt>
      <trkpt lat="44.24601" lon="6.61065">
        <ele>1464</ele>
        <time>2018-08-05T12:13:47Z</time>
      </trkpt>
      <trkpt lat="44.24598" lon="6.61079">
        <ele>1463.1</ele>
        <time>2018-08-05T12:13:48Z</time>
      </trkpt>
      <trkpt lat="44.24595" lon="6.61093">
        <ele>1462.2</ele>
        <time>2018-08-05T12:13:49Z</time>
      </trkpt>
      <trkpt lat="44.24593" lon="6.61107">
        <ele>1461.5</ele>
        <time>2018-08-05T12:13:50Z</time>
      </trkpt>
      <trkpt lat="44.2459" lon="6.6112">
        <ele>1461.1</ele>
        <time>2018-08-05T12:13:51Z</time>
      </trkpt>
      <trkpt lat="44.24587" lon="6.61135">
        <ele>1460.6</ele>
        <time>2018-08-05T12:13:52Z</time>
      </trkpt>
      <trkpt lat="44.24583" lon="6.61149">
        <ele>1460.1</ele>
        <time>2018-08-05T12:13:53Z</time>
      </trkpt>
      <trkpt lat="44.24579" lon="6.61163">
        <ele>1459.9</ele>
        <time>2018-08-05T12:13:54Z</time>
      </trkpt>
      <trkpt lat="44.24574" lon="6.61177">
        <ele>1459.7</ele>
        <time>2018-08-05T12:13:55Z</time>
      </trkpt>
      <trkpt lat="44.24569" lon="6.61191">
        <ele>1459.6</ele>
        <time>2018-08-05T12:13:56Z</time>
      </trkpt>
      <trkpt lat="44.24564" lon="6.61204">
        <ele>1459.2</ele>
        <time>2018-08-05T12:13:57Z</time>
      </trkpt>
      <trkpt lat="44.24558" lon="6.61216">
        <ele>1458.9</ele>
        <time>2018-08-05T12:13:58Z</time>
      </trkpt>
      <trkpt lat="44.24551" lon="6.61228">
        <ele>1458.7</ele>
        <time>2018-08-05T12:13:59Z</time>
      </trkpt>
      <trkpt lat="44.24546" lon="6.6124">
        <ele>1458.6</ele>
        <time>2018-08-05T12:14:00Z</time>
      </trkpt>
      <trkpt lat="44.2454" lon="6.61251">
        <ele>1458.4</ele>
        <time>2018-08-05T12:14:01Z</time>
      </trkpt>
      <trkpt lat="44.24535" lon="6.61263">
        <ele>1458.2</ele>
        <time>2018-08-05T12:14:02Z</time>
      </trkpt>
      <trkpt lat="44.24531" lon="6.61275">
        <ele>1457.7</ele>
        <time>2018-08-05T12:14:03Z</time>
      </trkpt>
      <trkpt lat="44.24527" lon="6.61287">
        <ele>1457.1</ele>
        <time>2018-08-05T12:14:04Z</time>
      </trkpt>
      <trkpt lat="44.24523" lon="6.61299">
        <ele>1456.8</ele>
        <time>2018-08-05T12:14:05Z</time>
      </trkpt>
      <trkpt lat="44.24519" lon="6.61311">
        <ele>1456.5</ele>
        <time>2018-08-05T12:14:06Z</time>
      </trkpt>
      <trkpt lat="44.24515" lon="6.61323">
        <ele>1455.8</ele>
        <time>2018-08-05T12:14:07Z</time>
      </trkpt>
      <trkpt lat="44.24512" lon="6.61335">
        <ele>1455.4</ele>
        <time>2018-08-05T12:14:08Z</time>
      </trkpt>
      <trkpt lat="44.24507" lon="6.61347">
        <ele>1454.9</ele>
        <time>2018-08-05T12:14:09Z</time>
      </trkpt>
      <trkpt lat="44.24503" lon="6.61359">
        <ele>1454.3</ele>
        <time>2018-08-05T12:14:10Z</time>
      </trkpt>
      <trkpt lat="44.24498" lon="6.61371">
        <ele>1454.1</ele>
        <time>2018-08-05T12:14:11Z</time>
      </trkpt>
      <trkpt lat="44.24494" lon="6.61383">
        <ele>1454</ele>
        <time>2018-08-05T12:14:12Z</time>
      </trkpt>
      <trkpt lat="44.24489" lon="6.61394">
        <ele>1453.9</ele>
        <time>2018-08-05T12:14:13Z</time>
      </trkpt>
      <trkpt lat="44.24486" lon="6.61406">
        <ele>1453.8</ele>
        <time>2018-08-05T12:14:14Z</time>
      </trkpt>
      <trkpt lat="44.24482" lon="6.61418">
        <ele>1453.8</ele>
        <time>2018-08-05T12:14:15Z</time>
      </trkpt>
      <trkpt lat="44.24479" lon="6.61431">
        <ele>1453.7</ele>
        <time>2018-08-05T12:14:16Z</time>
      </trkpt>
      <trkpt lat="44.24477" lon="6.61443">
        <ele>1453.4</ele>
        <time>2018-08-05T12:14:17Z</time>
      </trkpt>
      <trkpt lat="44.24476" lon="6.61456">
        <ele>1453</ele>
        <time>2018-08-05T12:14:18Z</time>
      </trkpt>
      <trkpt lat="44.24475" lon="6.6147">
        <ele>1452.9</ele>
        <time>2018-08-05T12:14:19Z</time>
      </trkpt>
      <trkpt lat="44.24475" lon="6.61483">
        <ele>1452.8</ele>
        <time>2018-08-05T12:14:20Z</time>
      </trkpt>
      <trkpt lat="44.24476" lon="6.61495">
        <ele>1452.8</ele>
        <time>2018-08-05T12:14:21Z</time>
      </trkpt>
      <trkpt lat="44.24477" lon="6.61504">
        <ele>1452.8</ele>
        <time>2018-08-05T12:14:22Z</time>
      </trkpt>
      <trkpt lat="44.24477" lon="6.61513">
        <ele>1452.8</ele>
        <time>2018-08-05T12:14:23Z</time>
      </trkpt>
      <trkpt lat="44.24476" lon="6.61522">
        <ele>1452.8</ele>
        <time>2018-08-05T12:14:24Z</time>
      </trkpt>
      <trkpt lat="44.24474" lon="6.6153">
        <ele>1452.9</ele>
        <time>2018-08-05T12:14:25Z</time>
      </trkpt>
      <trkpt lat="44.2447" lon="6.61536">
        <ele>1452.9</ele>
        <time>2018-08-05T12:14:26Z</time>
      </trkpt>
      <trkpt lat="44.24466" lon="6.61542">
        <ele>1452.9</ele>
        <time>2018-08-05T12:14:27Z</time>
      </trkpt>
      <trkpt lat="44.24463" lon="6.61546">
        <ele>1453</ele>
        <time>2018-08-05T12:14:28Z</time>
      </trkpt>
      <trkpt lat="44.2446" lon="6.61549">
        <ele>1453</ele>
        <time>2018-08-05T12:14:29Z</time>
      </trkpt>
      <trkpt lat="44.24457" lon="6.6155">
        <ele>1453</ele>
        <time>2018-08-05T12:14:30Z</time>
      </trkpt>
      <trkpt lat="44.24455" lon="6.6155">
        <ele>1452.5</ele>
        <time>2018-08-05T12:14:31Z</time>
      </trkpt>
      <trkpt lat="44.24452" lon="6.61548">
        <ele>1451.4</ele>
        <time>2018-08-05T12:14:32Z</time>
      </trkpt>
      <trkpt lat="44.24449" lon="6.61546">
        <ele>1450.2</ele>
        <time>2018-08-05T12:14:33Z</time>
      </trkpt>
      <trkpt lat="44.24447" lon="6.61544">
        <ele>1449.3</ele>
        <time>2018-08-05T12:14:34Z</time>
      </trkpt>
      <trkpt lat="44.24444" lon="6.61541">
        <ele>1448.7</ele>
        <time>2018-08-05T12:14:35Z</time>
      </trkpt>
      <trkpt lat="44.24441" lon="6.61539">
        <ele>1448.1</ele>
        <time>2018-08-05T12:14:36Z</time>
      </trkpt>
      <trkpt lat="44.24438" lon="6.61536">
        <ele>1448.1</ele>
        <time>2018-08-05T12:14:37Z</time>
      </trkpt>
      <trkpt lat="44.24436" lon="6.61533">
        <ele>1448.1</ele>
        <time>2018-08-05T12:14:38Z</time>
      </trkpt>
      <trkpt lat="44.24433" lon="6.61531">
        <ele>1448.2</ele>
        <time>2018-08-05T12:14:39Z</time>
      </trkpt>
      <trkpt lat="44.2443" lon="6.61529">
        <ele>1448.2</ele>
        <time>2018-08-05T12:14:40Z</time>
      </trkpt>
      <trkpt lat="44.24428" lon="6.61527">
        <ele>1448.7</ele>
        <time>2018-08-05T12:14:41Z</time>
      </trkpt>
      <trkpt lat="44.24425" lon="6.61525">
        <ele>1449.2</ele>
        <time>2018-08-05T12:14:42Z</time>
      </trkpt>
      <trkpt lat="44.24421" lon="6.61521">
        <ele>1450.1</ele>
        <time>2018-08-05T12:14:44Z</time>
      </trkpt>
      <trkpt lat="44.24417" lon="6.61516">
        <ele>1450.8</ele>
        <time>2018-08-05T12:14:46Z</time>
      </trkpt>
      <trkpt lat="44.24413" lon="6.61512">
        <ele>1451.7</ele>
        <time>2018-08-05T12:14:48Z</time>
      </trkpt>
      <trkpt lat="44.2441" lon="6.61516">
        <ele>1452.3</ele>
        <time>2018-08-05T12:14:50Z</time>
      </trkpt>
      <trkpt lat="44.24414" lon="6.61519">
        <ele>1453</ele>
        <time>2018-08-05T12:14:52Z</time>
      </trkpt>
      <trkpt lat="44.24418" lon="6.61522">
        <ele>1453</ele>
        <time>2018-08-05T12:14:54Z</time>
      </trkpt>
      <trkpt lat="44.2442" lon="6.61526">
        <ele>1454.1</ele>
        <time>2018-08-05T12:14:56Z</time>
      </trkpt>
      <trkpt lat="44.24422" lon="6.61523">
        <ele>1455</ele>
        <time>2018-08-05T12:15:05Z</time>
      </trkpt>
      <trkpt lat="44.24422" lon="6.61527">
        <ele>1455.9</ele>
        <time>2018-08-05T12:17:06Z</time>
      </trkpt>
      <trkpt lat="44.24422" lon="6.61522">
        <ele>1456.9</ele>
        <time>2018-08-05T12:17:08Z</time>
      </trkpt>
      <trkpt lat="44.2442" lon="6.6152">
        <ele>1457.6</ele>
        <time>2018-08-05T12:17:09Z</time>
      </trkpt>
      <trkpt lat="44.24417" lon="6.61518">
        <ele>1458.4</ele>
        <time>2018-08-05T12:17:10Z</time>
      </trkpt>
      <trkpt lat="44.24414" lon="6.61515">
        <ele>1459.1</ele>
        <time>2018-08-05T12:17:11Z</time>
      </trkpt>
      <trkpt lat="44.2441" lon="6.61514">
        <ele>1460</ele>
        <time>2018-08-05T12:17:12Z</time>
      </trkpt>
      <trkpt lat="44.24406" lon="6.61513">
        <ele>1460.7</ele>
        <time>2018-08-05T12:17:13Z</time>
      </trkpt>
      <trkpt lat="44.24402" lon="6.61513">
        <ele>1461.4</ele>
        <time>2018-08-05T12:17:14Z</time>
      </trkpt>
      <trkpt lat="44.24397" lon="6.61514">
        <ele>1462.1</ele>
        <time>2018-08-05T12:17:15Z</time>
      </trkpt>
      <trkpt lat="44.24394" lon="6.61517">
        <ele>1462.8</ele>
        <time>2018-08-05T12:17:16Z</time>
      </trkpt>
      <trkpt lat="44.2439" lon="6.61521">
        <ele>1463.5</ele>
        <time>2018-08-05T12:17:17Z</time>
      </trkpt>
      <trkpt lat="44.24388" lon="6.61526">
        <ele>1464.2</ele>
        <time>2018-08-05T12:17:18Z</time>
      </trkpt>
      <trkpt lat="44.24386" lon="6.61531">
        <ele>1464.9</ele>
        <time>2018-08-05T12:17:19Z</time>
      </trkpt>
      <trkpt lat="44.24384" lon="6.61536">
        <ele>1465.5</ele>
        <time>2018-08-05T12:17:20Z</time>
      </trkpt>
      <trkpt lat="44.24384" lon="6.61541">
        <ele>1466.1</ele>
        <time>2018-08-05T12:17:21Z</time>
      </trkpt>
      <trkpt lat="44.24383" lon="6.61546">
        <ele>1466.6</ele>
        <time>2018-08-05T12:17:22Z</time>
      </trkpt>
      <trkpt lat="44.24382" lon="6.61551">
        <ele>1467.1</ele>
        <time>2018-08-05T12:17:23Z</time>
      </trkpt>
      <trkpt lat="44.24381" lon="6.61556">
        <ele>1467.6</ele>
        <time>2018-08-05T12:17:24Z</time>
      </trkpt>
      <trkpt lat="44.2438" lon="6.61561">
        <ele>1468.1</ele>
        <time>2018-08-05T12:17:25Z</time>
      </trkpt>
      <trkpt lat="44.24379" lon="6.61566">
        <ele>1468.6</ele>
        <time>2018-08-05T12:17:26Z</time>
      </trkpt>
      <trkpt lat="44.24378" lon="6.61571">
        <ele>1469.1</ele>
        <time>2018-08-05T12:17:27Z</time>
      </trkpt>
      <trkpt lat="44.24377" lon="6.61575">
        <ele>1469.6</ele>
        <time>2018-08-05T12:17:28Z</time>
      </trkpt>
      <trkpt lat="44.24375" lon="6.61579">
        <ele>1470</ele>
        <time>2018-08-05T12:17:29Z</time>
      </trkpt>
      <trkpt lat="44.24374" lon="6.61583">
        <ele>1470.4</ele>
        <time>2018-08-05T12:17:30Z</time>
      </trkpt>
      <trkpt lat="44.24373" lon="6.61591">
        <ele>1471.2</ele>
        <time>2018-08-05T12:17:32Z</time>
      </trkpt>
      <trkpt lat="44.24373" lon="6.61595">
        <ele>1471.6</ele>
        <time>2018-08-05T12:17:33Z</time>
      </trkpt>
      <trkpt lat="44.24372" lon="6.61599">
        <ele>1471.9</ele>
        <time>2018-08-05T12:17:34Z</time>
      </trkpt>
      <trkpt lat="44.24371" lon="6.61603">
        <ele>1472.4</ele>
        <time>2018-08-05T12:17:35Z</time>
      </trkpt>
      <trkpt lat="44.2437" lon="6.61607">
        <ele>1472.7</ele>
        <time>2018-08-05T12:17:36Z</time>
      </trkpt>
      <trkpt lat="44.24369" lon="6.6161">
        <ele>1473.1</ele>
        <time>2018-08-05T12:17:37Z</time>
      </trkpt>
      <trkpt lat="44.24367" lon="6.61617">
        <ele>1473.7</ele>
        <time>2018-08-05T12:17:39Z</time>
      </trkpt>
      <trkpt lat="44.24365" lon="6.61624">
        <ele>1474.3</ele>
        <time>2018-08-05T12:17:41Z</time>
      </trkpt>
      <trkpt lat="44.24364" lon="6.61631">
        <ele>1474.9</ele>
        <time>2018-08-05T12:17:43Z</time>
      </trkpt>
      <trkpt lat="44.24362" lon="6.61638">
        <ele>1475.6</ele>
        <time>2018-08-05T12:17:45Z</time>
      </trkpt>
      <trkpt lat="44.24361" lon="6.61645">
        <ele>1476.1</ele>
        <time>2018-08-05T12:17:47Z</time>
      </trkpt>
      <trkpt lat="44.2436" lon="6.61649">
        <ele>1476.5</ele>
        <time>2018-08-05T12:17:48Z</time>
      </trkpt>
      <trkpt lat="44.24359" lon="6.61656">
        <ele>1477</ele>
        <time>2018-08-05T12:17:50Z</time>
      </trkpt>
      <trkpt lat="44.24358" lon="6.61663">
        <ele>1477.6</ele>
        <time>2018-08-05T12:17:52Z</time>
      </trkpt>
      <trkpt lat="44.24358" lon="6.6167">
        <ele>1478.3</ele>
        <time>2018-08-05T12:17:54Z</time>
      </trkpt>
      <trkpt lat="44.24357" lon="6.61674">
        <ele>1478.6</ele>
        <time>2018-08-05T12:17:55Z</time>
      </trkpt>
      <trkpt lat="44.24358" lon="6.61682">
        <ele>1479.2</ele>
        <time>2018-08-05T12:17:57Z</time>
      </trkpt>
      <trkpt lat="44.24357" lon="6.61688">
        <ele>1479.8</ele>
        <time>2018-08-05T12:17:59Z</time>
      </trkpt>
      <trkpt lat="44.24356" lon="6.61696">
        <ele>1480.4</ele>
        <time>2018-08-05T12:18:01Z</time>
      </trkpt>
      <trkpt lat="44.24356" lon="6.61702">
        <ele>1480.9</ele>
        <time>2018-08-05T12:18:03Z</time>
      </trkpt>
      <trkpt lat="44.24355" lon="6.61709">
        <ele>1481.5</ele>
        <time>2018-08-05T12:18:05Z</time>
      </trkpt>
      <trkpt lat="44.24355" lon="6.61713">
        <ele>1481.8</ele>
        <time>2018-08-05T12:18:06Z</time>
      </trkpt>
      <trkpt lat="44.24354" lon="6.6172">
        <ele>1482.4</ele>
        <time>2018-08-05T12:18:08Z</time>
      </trkpt>
      <trkpt lat="44.24353" lon="6.61723">
        <ele>1482.7</ele>
        <time>2018-08-05T12:18:09Z</time>
      </trkpt>
      <trkpt lat="44.24352" lon="6.61727">
        <ele>1483.1</ele>
        <time>2018-08-05T12:18:10Z</time>
      </trkpt>
      <trkpt lat="44.24351" lon="6.61731">
        <ele>1483.4</ele>
        <time>2018-08-05T12:18:11Z</time>
      </trkpt>
      <trkpt lat="44.24349" lon="6.61738">
        <ele>1484</ele>
        <time>2018-08-05T12:18:13Z</time>
      </trkpt>
      <trkpt lat="44.24347" lon="6.61744">
        <ele>1484.5</ele>
        <time>2018-08-05T12:18:15Z</time>
      </trkpt>
      <trkpt lat="44.24345" lon="6.61751">
        <ele>1485.1</ele>
        <time>2018-08-05T12:18:17Z</time>
      </trkpt>
      <trkpt lat="44.24344" lon="6.61757">
        <ele>1485.7</ele>
        <time>2018-08-05T12:18:19Z</time>
      </trkpt>
      <trkpt lat="44.24342" lon="6.61762">
        <ele>1486.2</ele>
        <time>2018-08-05T12:18:21Z</time>
      </trkpt>
      <trkpt lat="44.2434" lon="6.61769">
        <ele>1486.8</ele>
        <time>2018-08-05T12:18:23Z</time>
      </trkpt>
      <trkpt lat="44.24339" lon="6.61775">
        <ele>1487.3</ele>
        <time>2018-08-05T12:18:25Z</time>
      </trkpt>
      <trkpt lat="44.24337" lon="6.61781">
        <ele>1487.9</ele>
        <time>2018-08-05T12:18:27Z</time>
      </trkpt>
      <trkpt lat="44.24335" lon="6.61788">
        <ele>1488.5</ele>
        <time>2018-08-05T12:18:29Z</time>
      </trkpt>
      <trkpt lat="44.24334" lon="6.61794">
        <ele>1489</ele>
        <time>2018-08-05T12:18:31Z</time>
      </trkpt>
      <trkpt lat="44.24331" lon="6.61799">
        <ele>1489.6</ele>
        <time>2018-08-05T12:18:33Z</time>
      </trkpt>
      <trkpt lat="44.24328" lon="6.61804">
        <ele>1490.1</ele>
        <time>2018-08-05T12:18:35Z</time>
      </trkpt>
      <trkpt lat="44.24325" lon="6.61809">
        <ele>1490.7</ele>
        <time>2018-08-05T12:18:37Z</time>
      </trkpt>
      <trkpt lat="44.24322" lon="6.61814">
        <ele>1491.2</ele>
        <time>2018-08-05T12:18:39Z</time>
      </trkpt>
      <trkpt lat="44.24318" lon="6.61818">
        <ele>1491.8</ele>
        <time>2018-08-05T12:18:41Z</time>
      </trkpt>
      <trkpt lat="44.24314" lon="6.61822">
        <ele>1492.3</ele>
        <time>2018-08-05T12:18:43Z</time>
      </trkpt>
      <trkpt lat="44.2431" lon="6.61825">
        <ele>1492.8</ele>
        <time>2018-08-05T12:18:45Z</time>
      </trkpt>
      <trkpt lat="44.24306" lon="6.61829">
        <ele>1493.3</ele>
        <time>2018-08-05T12:18:47Z</time>
      </trkpt>
      <trkpt lat="44.24302" lon="6.61832">
        <ele>1493.8</ele>
        <time>2018-08-05T12:18:49Z</time>
      </trkpt>
      <trkpt lat="44.24297" lon="6.61835">
        <ele>1494.3</ele>
        <time>2018-08-05T12:18:51Z</time>
      </trkpt>
      <trkpt lat="44.24293" lon="6.61838">
        <ele>1494.8</ele>
        <time>2018-08-05T12:18:53Z</time>
      </trkpt>
      <trkpt lat="44.24288" lon="6.6184">
        <ele>1495.3</ele>
        <time>2018-08-05T12:18:55Z</time>
      </trkpt>
      <trkpt lat="44.24285" lon="6.61842">
        <ele>1495.8</ele>
        <time>2018-08-05T12:18:57Z</time>
      </trkpt>
      <trkpt lat="44.2428" lon="6.61843">
        <ele>1496.2</ele>
        <time>2018-08-05T12:18:59Z</time>
      </trkpt>
      <trkpt lat="44.24276" lon="6.61845">
        <ele>1496.7</ele>
        <time>2018-08-05T12:19:01Z</time>
      </trkpt>
      <trkpt lat="44.24271" lon="6.61845">
        <ele>1497.2</ele>
        <time>2018-08-05T12:19:03Z</time>
      </trkpt>
      <trkpt lat="44.24267" lon="6.61846">
        <ele>1497.6</ele>
        <time>2018-08-05T12:19:05Z</time>
      </trkpt>
      <trkpt lat="44.24262" lon="6.61845">
        <ele>1498.1</ele>
        <time>2018-08-05T12:19:07Z</time>
      </trkpt>
      <trkpt lat="44.24258" lon="6.61845">
        <ele>1498.5</ele>
        <time>2018-08-05T12:19:09Z</time>
      </trkpt>
      <trkpt lat="44.24254" lon="6.61844">
        <ele>1499</ele>
        <time>2018-08-05T12:19:11Z</time>
      </trkpt>
      <trkpt lat="44.24249" lon="6.61842">
        <ele>1499.6</ele>
        <time>2018-08-05T12:19:13Z</time>
      </trkpt>
      <trkpt lat="44.24244" lon="6.61841">
        <ele>1500.1</ele>
        <time>2018-08-05T12:19:15Z</time>
      </trkpt>
      <trkpt lat="44.2424" lon="6.61838">
        <ele>1500.7</ele>
        <time>2018-08-05T12:19:17Z</time>
      </trkpt>
      <trkpt lat="44.24235" lon="6.61836">
        <ele>1501.3</ele>
        <time>2018-08-05T12:19:19Z</time>
      </trkpt>
      <trkpt lat="44.2423" lon="6.61834">
        <ele>1501.9</ele>
        <time>2018-08-05T12:19:21Z</time>
      </trkpt>
      <trkpt lat="44.24226" lon="6.61831">
        <ele>1502.5</ele>
        <time>2018-08-05T12:19:23Z</time>
      </trkpt>
      <trkpt lat="44.24222" lon="6.61829">
        <ele>1503.2</ele>
        <time>2018-08-05T12:19:25Z</time>
      </trkpt>
      <trkpt lat="44.24217" lon="6.61828">
        <ele>1503.8</ele>
        <time>2018-08-05T12:19:27Z</time>
      </trkpt>
      <trkpt lat="44.24212" lon="6.61825">
        <ele>1504.5</ele>
        <time>2018-08-05T12:19:29Z</time>
      </trkpt>
      <trkpt lat="44.24208" lon="6.61824">
        <ele>1505.3</ele>
        <time>2018-08-05T12:19:31Z</time>
      </trkpt>
      <trkpt lat="44.24202" lon="6.61822">
        <ele>1506.2</ele>
        <time>2018-08-05T12:19:33Z</time>
      </trkpt>
      <trkpt lat="44.24197" lon="6.61822">
        <ele>1507</ele>
        <time>2018-08-05T12:19:35Z</time>
      </trkpt>
      <trkpt lat="44.24195" lon="6.61822">
        <ele>1507.4</ele>
        <time>2018-08-05T12:19:36Z</time>
      </trkpt>
      <trkpt lat="44.24189" lon="6.61822">
        <ele>1508.3</ele>
        <time>2018-08-05T12:19:38Z</time>
      </trkpt>
      <trkpt lat="44.24185" lon="6.61822">
        <ele>1509</ele>
        <time>2018-08-05T12:19:40Z</time>
      </trkpt>
      <trkpt lat="44.24179" lon="6.61822">
        <ele>1509.8</ele>
        <time>2018-08-05T12:19:42Z</time>
      </trkpt>
      <trkpt lat="44.24174" lon="6.61822">
        <ele>1510.6</ele>
        <time>2018-08-05T12:19:44Z</time>
      </trkpt>
      <trkpt lat="44.2417" lon="6.61821">
        <ele>1511.3</ele>
        <time>2018-08-05T12:19:46Z</time>
      </trkpt>
      <trkpt lat="44.24166" lon="6.61818">
        <ele>1511.9</ele>
        <time>2018-08-05T12:19:48Z</time>
      </trkpt>
      <trkpt lat="44.24164" lon="6.61814">
        <ele>1512.5</ele>
        <time>2018-08-05T12:19:50Z</time>
      </trkpt>
      <trkpt lat="44.24165" lon="6.61808">
        <ele>1512.5</ele>
        <time>2018-08-05T12:19:52Z</time>
      </trkpt>
      <trkpt lat="44.24167" lon="6.61803">
        <ele>1512.1</ele>
        <time>2018-08-05T12:19:54Z</time>
      </trkpt>
      <trkpt lat="44.24169" lon="6.61798">
        <ele>1511.7</ele>
        <time>2018-08-05T12:19:56Z</time>
      </trkpt>
      <trkpt lat="44.24173" lon="6.61795">
        <ele>1511.4</ele>
        <time>2018-08-05T12:19:58Z</time>
      </trkpt>
      <trkpt lat="44.24176" lon="6.61791">
        <ele>1511.2</ele>
        <time>2018-08-05T12:20:00Z</time>
      </trkpt>
      <trkpt lat="44.2418" lon="6.61787">
        <ele>1510.9</ele>
        <time>2018-08-05T12:20:02Z</time>
      </trkpt>
      <trkpt lat="44.24184" lon="6.61785">
        <ele>1510.7</ele>
        <time>2018-08-05T12:20:04Z</time>
      </trkpt>
      <trkpt lat="44.24187" lon="6.61782">
        <ele>1510.5</ele>
        <time>2018-08-05T12:20:06Z</time>
      </trkpt>
      <trkpt lat="44.2419" lon="6.61779">
        <ele>1510.4</ele>
        <time>2018-08-05T12:20:08Z</time>
      </trkpt>
      <trkpt lat="44.24194" lon="6.61775">
        <ele>1510.2</ele>
        <time>2018-08-05T12:20:10Z</time>
      </trkpt>
      <trkpt lat="44.24197" lon="6.61772">
        <ele>1510</ele>
        <time>2018-08-05T12:20:12Z</time>
      </trkpt>
      <trkpt lat="44.24201" lon="6.61768">
        <ele>1509.8</ele>
        <time>2018-08-05T12:20:14Z</time>
      </trkpt>
      <trkpt lat="44.24204" lon="6.61765">
        <ele>1509.6</ele>
        <time>2018-08-05T12:20:16Z</time>
      </trkpt>
      <trkpt lat="44.24207" lon="6.61761">
        <ele>1509.4</ele>
        <time>2018-08-05T12:20:18Z</time>
      </trkpt>
      <trkpt lat="44.2421" lon="6.61757">
        <ele>1509.3</ele>
        <time>2018-08-05T12:20:20Z</time>
      </trkpt>
      <trkpt lat="44.24214" lon="6.61754">
        <ele>1509.1</ele>
        <time>2018-08-05T12:20:22Z</time>
      </trkpt>
      <trkpt lat="44.24217" lon="6.6175">
        <ele>1508.9</ele>
        <time>2018-08-05T12:20:24Z</time>
      </trkpt>
      <trkpt lat="44.2422" lon="6.61746">
        <ele>1508.8</ele>
        <time>2018-08-05T12:20:26Z</time>
      </trkpt>
      <trkpt lat="44.24223" lon="6.61743">
        <ele>1508.6</ele>
        <time>2018-08-05T12:20:28Z</time>
      </trkpt>
      <trkpt lat="44.24226" lon="6.61738">
        <ele>1508.5</ele>
        <time>2018-08-05T12:20:30Z</time>
      </trkpt>
      <trkpt lat="44.24229" lon="6.61734">
        <ele>1508.3</ele>
        <time>2018-08-05T12:20:32Z</time>
      </trkpt>
      <trkpt lat="44.24233" lon="6.6173">
        <ele>1508.2</ele>
        <time>2018-08-05T12:20:34Z</time>
      </trkpt>
      <trkpt lat="44.24235" lon="6.61726">
        <ele>1508.1</ele>
        <time>2018-08-05T12:20:36Z</time>
      </trkpt>
      <trkpt lat="44.24238" lon="6.61721">
        <ele>1508</ele>
        <time>2018-08-05T12:20:38Z</time>
      </trkpt>
      <trkpt lat="44.2424" lon="6.61716">
        <ele>1507.9</ele>
        <time>2018-08-05T12:20:40Z</time>
      </trkpt>
      <trkpt lat="44.24242" lon="6.61711">
        <ele>1507.8</ele>
        <time>2018-08-05T12:20:42Z</time>
      </trkpt>
      <trkpt lat="44.24244" lon="6.61706">
        <ele>1507.7</ele>
        <time>2018-08-05T12:20:44Z</time>
      </trkpt>
      <trkpt lat="44.24246" lon="6.61702">
        <ele>1507.6</ele>
        <time>2018-08-05T12:20:46Z</time>
      </trkpt>
      <trkpt lat="44.24247" lon="6.61697">
        <ele>1507.6</ele>
        <time>2018-08-05T12:20:48Z</time>
      </trkpt>
      <trkpt lat="44.24248" lon="6.61692">
        <ele>1507.5</ele>
        <time>2018-08-05T12:20:50Z</time>
      </trkpt>
      <trkpt lat="44.24248" lon="6.61686">
        <ele>1507.4</ele>
        <time>2018-08-05T12:20:52Z</time>
      </trkpt>
      <trkpt lat="44.24248" lon="6.61681">
        <ele>1507.3</ele>
        <time>2018-08-05T12:20:54Z</time>
      </trkpt>
      <trkpt lat="44.24249" lon="6.61675">
        <ele>1507.2</ele>
        <time>2018-08-05T12:20:56Z</time>
      </trkpt>
      <trkpt lat="44.2425" lon="6.61669">
        <ele>1507.1</ele>
        <time>2018-08-05T12:20:58Z</time>
      </trkpt>
      <trkpt lat="44.24249" lon="6.61665">
        <ele>1507</ele>
        <time>2018-08-05T12:21:00Z</time>
      </trkpt>
      <trkpt lat="44.2425" lon="6.6166">
        <ele>1506.9</ele>
        <time>2018-08-05T12:21:02Z</time>
      </trkpt>
      <trkpt lat="44.2425" lon="6.61656">
        <ele>1506.8</ele>
        <time>2018-08-05T12:21:04Z</time>
      </trkpt>
      <trkpt lat="44.2425" lon="6.6165">
        <ele>1506.6</ele>
        <time>2018-08-05T12:21:06Z</time>
      </trkpt>
      <trkpt lat="44.24249" lon="6.61644">
        <ele>1506.4</ele>
        <time>2018-08-05T12:21:08Z</time>
      </trkpt>
      <trkpt lat="44.24249" lon="6.61636">
        <ele>1506.2</ele>
        <time>2018-08-05T12:21:10Z</time>
      </trkpt>
      <trkpt lat="44.24249" lon="6.6163">
        <ele>1506</ele>
        <time>2018-08-05T12:21:12Z</time>
      </trkpt>
      <trkpt lat="44.24249" lon="6.61624">
        <ele>1505.7</ele>
        <time>2018-08-05T12:21:14Z</time>
      </trkpt>
      <trkpt lat="44.24249" lon="6.61617">
        <ele>1505.5</ele>
        <time>2018-08-05T12:21:16Z</time>
      </trkpt>
      <trkpt lat="44.24247" lon="6.61611">
        <ele>1505.3</ele>
        <time>2018-08-05T12:21:18Z</time>
      </trkpt>
      <trkpt lat="44.24247" lon="6.61605">
        <ele>1505</ele>
        <time>2018-08-05T12:21:20Z</time>
      </trkpt>
      <trkpt lat="44.24247" lon="6.61598">
        <ele>1504.8</ele>
        <time>2018-08-05T12:21:22Z</time>
      </trkpt>
      <trkpt lat="44.24246" lon="6.61592">
        <ele>1504.5</ele>
        <time>2018-08-05T12:21:24Z</time>
      </trkpt>
      <trkpt lat="44.24247" lon="6.61586">
        <ele>1504.3</ele>
        <time>2018-08-05T12:21:26Z</time>
      </trkpt>
      <trkpt lat="44.24247" lon="6.6158">
        <ele>1504</ele>
        <time>2018-08-05T12:21:28Z</time>
      </trkpt>
      <trkpt lat="44.24248" lon="6.61574">
        <ele>1503.7</ele>
        <time>2018-08-05T12:21:30Z</time>
      </trkpt>
      <trkpt lat="44.24249" lon="6.61568">
        <ele>1503.4</ele>
        <time>2018-08-05T12:21:32Z</time>
      </trkpt>
      <trkpt lat="44.24251" lon="6.61562">
        <ele>1503.2</ele>
        <time>2018-08-05T12:21:34Z</time>
      </trkpt>
      <trkpt lat="44.24252" lon="6.61556">
        <ele>1503</ele>
        <time>2018-08-05T12:21:36Z</time>
      </trkpt>
      <trkpt lat="44.24254" lon="6.6155">
        <ele>1502.9</ele>
        <time>2018-08-05T12:21:38Z</time>
      </trkpt>
      <trkpt lat="44.24256" lon="6.61545">
        <ele>1502.8</ele>
        <time>2018-08-05T12:21:40Z</time>
      </trkpt>
      <trkpt lat="44.24258" lon="6.61539">
        <ele>1502.8</ele>
        <time>2018-08-05T12:21:42Z</time>
      </trkpt>
      <trkpt lat="44.24259" lon="6.61534">
        <ele>1502.8</ele>
        <time>2018-08-05T12:21:44Z</time>
      </trkpt>
      <trkpt lat="44.2426" lon="6.61527">
        <ele>1502.8</ele>
        <time>2018-08-05T12:21:46Z</time>
      </trkpt>
      <trkpt lat="44.24261" lon="6.61521">
        <ele>1502.8</ele>
        <time>2018-08-05T12:21:48Z</time>
      </trkpt>
      <trkpt lat="44.24261" lon="6.61515">
        <ele>1502.8</ele>
        <time>2018-08-05T12:21:50Z</time>
      </trkpt>
      <trkpt lat="44.24262" lon="6.61509">
        <ele>1502.8</ele>
        <time>2018-08-05T12:21:52Z</time>
      </trkpt>
      <trkpt lat="44.24261" lon="6.61503">
        <ele>1502.9</ele>
        <time>2018-08-05T12:21:54Z</time>
      </trkpt>
      <trkpt lat="44.24259" lon="6.61497">
        <ele>1502.9</ele>
        <time>2018-08-05T12:21:56Z</time>
      </trkpt>
      <trkpt lat="44.24257" lon="6.61492">
        <ele>1503</ele>
        <time>2018-08-05T12:21:58Z</time>
      </trkpt>
      <trkpt lat="44.24253" lon="6.61488">
        <ele>1503.5</ele>
        <time>2018-08-05T12:22:00Z</time>
      </trkpt>
      <trkpt lat="44.24249" lon="6.61485">
        <ele>1504.1</ele>
        <time>2018-08-05T12:22:02Z</time>
      </trkpt>
      <trkpt lat="44.24246" lon="6.61483">
        <ele>1504.5</ele>
        <time>2018-08-05T12:22:04Z</time>
      </trkpt>
      <trkpt lat="44.24242" lon="6.61481">
        <ele>1505</ele>
        <time>2018-08-05T12:22:06Z</time>
      </trkpt>
      <trkpt lat="44.24238" lon="6.61479">
        <ele>1505.5</ele>
        <time>2018-08-05T12:22:08Z</time>
      </trkpt>
      <trkpt lat="44.24233" lon="6.61477">
        <ele>1506</ele>
        <time>2018-08-05T12:22:10Z</time>
      </trkpt>
      <trkpt lat="44.24229" lon="6.61478">
        <ele>1506.5</ele>
        <time>2018-08-05T12:22:12Z</time>
      </trkpt>
      <trkpt lat="44.24224" lon="6.61478">
        <ele>1507</ele>
        <time>2018-08-05T12:22:14Z</time>
      </trkpt>
      <trkpt lat="44.2422" lon="6.61478">
        <ele>1507.4</ele>
        <time>2018-08-05T12:22:16Z</time>
      </trkpt>
      <trkpt lat="44.24216" lon="6.61478">
        <ele>1507.9</ele>
        <time>2018-08-05T12:22:18Z</time>
      </trkpt>
      <trkpt lat="44.24212" lon="6.6148">
        <ele>1508.4</ele>
        <time>2018-08-05T12:22:20Z</time>
      </trkpt>
      <trkpt lat="44.24207" lon="6.61482">
        <ele>1508.9</ele>
        <time>2018-08-05T12:22:22Z</time>
      </trkpt>
      <trkpt lat="44.24203" lon="6.61483">
        <ele>1509.4</ele>
        <time>2018-08-05T12:22:24Z</time>
      </trkpt>
      <trkpt lat="44.24199" lon="6.61487">
        <ele>1510</ele>
        <time>2018-08-05T12:22:26Z</time>
      </trkpt>
      <trkpt lat="44.24195" lon="6.6149">
        <ele>1510.5</ele>
        <time>2018-08-05T12:22:28Z</time>
      </trkpt>
      <trkpt lat="44.24191" lon="6.61495">
        <ele>1511</ele>
        <time>2018-08-05T12:22:30Z</time>
      </trkpt>
      <trkpt lat="44.24188" lon="6.61498">
        <ele>1511.5</ele>
        <time>2018-08-05T12:22:32Z</time>
      </trkpt>
      <trkpt lat="44.24185" lon="6.61503">
        <ele>1511.9</ele>
        <time>2018-08-05T12:22:34Z</time>
      </trkpt>
      <trkpt lat="44.24182" lon="6.61508">
        <ele>1512.4</ele>
        <time>2018-08-05T12:22:36Z</time>
      </trkpt>
      <trkpt lat="44.2418" lon="6.61513">
        <ele>1512.9</ele>
        <time>2018-08-05T12:22:38Z</time>
      </trkpt>
      <trkpt lat="44.24178" lon="6.61519">
        <ele>1513.3</ele>
        <time>2018-08-05T12:22:40Z</time>
      </trkpt>
      <trkpt lat="44.24177" lon="6.61525">
        <ele>1513.7</ele>
        <time>2018-08-05T12:22:42Z</time>
      </trkpt>
      <trkpt lat="44.24175" lon="6.6153">
        <ele>1514.2</ele>
        <time>2018-08-05T12:22:44Z</time>
      </trkpt>
      <trkpt lat="44.24174" lon="6.61536">
        <ele>1514.6</ele>
        <time>2018-08-05T12:22:46Z</time>
      </trkpt>
      <trkpt lat="44.24172" lon="6.61542">
        <ele>1515.1</ele>
        <time>2018-08-05T12:22:48Z</time>
      </trkpt>
      <trkpt lat="44.24169" lon="6.61548">
        <ele>1515.7</ele>
        <time>2018-08-05T12:22:50Z</time>
      </trkpt>
      <trkpt lat="44.24169" lon="6.61555">
        <ele>1516.3</ele>
        <time>2018-08-05T12:22:52Z</time>
      </trkpt>
      <trkpt lat="44.24167" lon="6.6156">
        <ele>1517</ele>
        <time>2018-08-05T12:22:54Z</time>
      </trkpt>
      <trkpt lat="44.24167" lon="6.61566">
        <ele>1517.7</ele>
        <time>2018-08-05T12:22:56Z</time>
      </trkpt>
      <trkpt lat="44.24166" lon="6.61573">
        <ele>1518.5</ele>
        <time>2018-08-05T12:22:58Z</time>
      </trkpt>
      <trkpt lat="44.24165" lon="6.61579">
        <ele>1519.2</ele>
        <time>2018-08-05T12:23:00Z</time>
      </trkpt>
      <trkpt lat="44.24164" lon="6.61585">
        <ele>1519.9</ele>
        <time>2018-08-05T12:23:02Z</time>
      </trkpt>
      <trkpt lat="44.24163" lon="6.61591">
        <ele>1520.5</ele>
        <time>2018-08-05T12:23:04Z</time>
      </trkpt>
      <trkpt lat="44.24161" lon="6.61597">
        <ele>1521.2</ele>
        <time>2018-08-05T12:23:06Z</time>
      </trkpt>
      <trkpt lat="44.24159" lon="6.61603">
        <ele>1521.9</ele>
        <time>2018-08-05T12:23:08Z</time>
      </trkpt>
      <trkpt lat="44.24156" lon="6.61607">
        <ele>1522.5</ele>
        <time>2018-08-05T12:23:10Z</time>
      </trkpt>
      <trkpt lat="44.24153" lon="6.61611">
        <ele>1523.1</ele>
        <time>2018-08-05T12:23:12Z</time>
      </trkpt>
      <trkpt lat="44.24149" lon="6.61614">
        <ele>1523.7</ele>
        <time>2018-08-05T12:23:14Z</time>
      </trkpt>
      <trkpt lat="44.24145" lon="6.61616">
        <ele>1524.3</ele>
        <time>2018-08-05T12:23:16Z</time>
      </trkpt>
      <trkpt lat="44.24142" lon="6.61617">
        <ele>1524.7</ele>
        <time>2018-08-05T12:23:18Z</time>
      </trkpt>
      <trkpt lat="44.24138" lon="6.61619">
        <ele>1525.3</ele>
        <time>2018-08-05T12:23:20Z</time>
      </trkpt>
      <trkpt lat="44.24134" lon="6.61619">
        <ele>1525.8</ele>
        <time>2018-08-05T12:23:22Z</time>
      </trkpt>
      <trkpt lat="44.24129" lon="6.61619">
        <ele>1526.3</ele>
        <time>2018-08-05T12:23:24Z</time>
      </trkpt>
      <trkpt lat="44.24126" lon="6.6162">
        <ele>1526.7</ele>
        <time>2018-08-05T12:23:25Z</time>
      </trkpt>
      <trkpt lat="44.24122" lon="6.6162">
        <ele>1527.2</ele>
        <time>2018-08-05T12:23:27Z</time>
      </trkpt>
      <trkpt lat="44.24117" lon="6.61621">
        <ele>1527.7</ele>
        <time>2018-08-05T12:23:29Z</time>
      </trkpt>
      <trkpt lat="44.24112" lon="6.61621">
        <ele>1528.2</ele>
        <time>2018-08-05T12:23:31Z</time>
      </trkpt>
      <trkpt lat="44.24109" lon="6.61622">
        <ele>1528.5</ele>
        <time>2018-08-05T12:23:32Z</time>
      </trkpt>
      <trkpt lat="44.24105" lon="6.61622">
        <ele>1529.1</ele>
        <time>2018-08-05T12:23:34Z</time>
      </trkpt>
      <trkpt lat="44.241" lon="6.61622">
        <ele>1529.6</ele>
        <time>2018-08-05T12:23:36Z</time>
      </trkpt>
      <trkpt lat="44.24095" lon="6.61622">
        <ele>1530.1</ele>
        <time>2018-08-05T12:23:38Z</time>
      </trkpt>
      <trkpt lat="44.24091" lon="6.61621">
        <ele>1530.6</ele>
        <time>2018-08-05T12:23:40Z</time>
      </trkpt>
      <trkpt lat="44.24086" lon="6.61621">
        <ele>1531</ele>
        <time>2018-08-05T12:23:42Z</time>
      </trkpt>
      <trkpt lat="44.24081" lon="6.61622">
        <ele>1531.4</ele>
        <time>2018-08-05T12:23:44Z</time>
      </trkpt>
      <trkpt lat="44.24077" lon="6.61623">
        <ele>1531.8</ele>
        <time>2018-08-05T12:23:46Z</time>
      </trkpt>
      <trkpt lat="44.24073" lon="6.61623">
        <ele>1532.2</ele>
        <time>2018-08-05T12:23:48Z</time>
      </trkpt>
      <trkpt lat="44.24068" lon="6.61624">
        <ele>1532.7</ele>
        <time>2018-08-05T12:23:50Z</time>
      </trkpt>
      <trkpt lat="44.24064" lon="6.61626">
        <ele>1533.3</ele>
        <time>2018-08-05T12:23:52Z</time>
      </trkpt>
      <trkpt lat="44.2406" lon="6.6163">
        <ele>1533.9</ele>
        <time>2018-08-05T12:23:54Z</time>
      </trkpt>
      <trkpt lat="44.24056" lon="6.61634">
        <ele>1534.4</ele>
        <time>2018-08-05T12:23:56Z</time>
      </trkpt>
      <trkpt lat="44.24053" lon="6.61638">
        <ele>1534.7</ele>
        <time>2018-08-05T12:23:58Z</time>
      </trkpt>
      <trkpt lat="44.24051" lon="6.61643">
        <ele>1535</ele>
        <time>2018-08-05T12:24:00Z</time>
      </trkpt>
      <trkpt lat="44.2405" lon="6.61649">
        <ele>1535.3</ele>
        <time>2018-08-05T12:24:02Z</time>
      </trkpt>
      <trkpt lat="44.24047" lon="6.61656">
        <ele>1535.7</ele>
        <time>2018-08-05T12:24:04Z</time>
      </trkpt>
      <trkpt lat="44.24045" lon="6.61661">
        <ele>1536</ele>
        <time>2018-08-05T12:24:06Z</time>
      </trkpt>
      <trkpt lat="44.24043" lon="6.61664">
        <ele>1536.3</ele>
        <time>2018-08-05T12:24:07Z</time>
      </trkpt>
      <trkpt lat="44.24041" lon="6.6167">
        <ele>1536.7</ele>
        <time>2018-08-05T12:24:09Z</time>
      </trkpt>
      <trkpt lat="44.24039" lon="6.61675">
        <ele>1537.3</ele>
        <time>2018-08-05T12:24:11Z</time>
      </trkpt>
      <trkpt lat="44.24036" lon="6.6168">
        <ele>1538</ele>
        <time>2018-08-05T12:24:13Z</time>
      </trkpt>
      <trkpt lat="44.24033" lon="6.61686">
        <ele>1538.6</ele>
        <time>2018-08-05T12:24:15Z</time>
      </trkpt>
      <trkpt lat="44.24031" lon="6.6169">
        <ele>1539.1</ele>
        <time>2018-08-05T12:24:17Z</time>
      </trkpt>
      <trkpt lat="44.24028" lon="6.61694">
        <ele>1539.7</ele>
        <time>2018-08-05T12:24:19Z</time>
      </trkpt>
      <trkpt lat="44.24026" lon="6.61699">
        <ele>1540.2</ele>
        <time>2018-08-05T12:24:21Z</time>
      </trkpt>
      <trkpt lat="44.24024" lon="6.61703">
        <ele>1540.7</ele>
        <time>2018-08-05T12:24:23Z</time>
      </trkpt>
      <trkpt lat="44.24021" lon="6.61708">
        <ele>1541.3</ele>
        <time>2018-08-05T12:24:25Z</time>
      </trkpt>
      <trkpt lat="44.24018" lon="6.61709">
        <ele>1541.7</ele>
        <time>2018-08-05T12:24:27Z</time>
      </trkpt>
      <trkpt lat="44.24015" lon="6.61708">
        <ele>1542.1</ele>
        <time>2018-08-05T12:24:29Z</time>
      </trkpt>
      <trkpt lat="44.24016" lon="6.61717">
        <ele>1542.9</ele>
        <time>2018-08-05T12:25:48Z</time>
      </trkpt>
      <trkpt lat="44.24015" lon="6.61721">
        <ele>1543.2</ele>
        <time>2018-08-05T12:26:07Z</time>
      </trkpt>
      <trkpt lat="44.24012" lon="6.61708">
        <ele>1544.4</ele>
        <time>2018-08-05T12:37:21Z</time>
      </trkpt>
      <trkpt lat="44.24009" lon="6.61702">
        <ele>1545.3</ele>
        <time>2018-08-05T12:37:23Z</time>
      </trkpt>
      <trkpt lat="44.24006" lon="6.61695">
        <ele>1546.2</ele>
        <time>2018-08-05T12:37:27Z</time>
      </trkpt>
      <trkpt lat="44.24003" lon="6.61694">
        <ele>1547</ele>
        <time>2018-08-05T12:37:31Z</time>
      </trkpt>
      <trkpt lat="44.23999" lon="6.6169">
        <ele>1547.8</ele>
        <time>2018-08-05T12:37:34Z</time>
      </trkpt>
      <trkpt lat="44.23996" lon="6.61686">
        <ele>1548.6</ele>
        <time>2018-08-05T12:37:36Z</time>
      </trkpt>
      <trkpt lat="44.24013" lon="6.61687">
        <ele>1544.7</ele>
        <time>2018-08-05T12:37:48Z</time>
      </trkpt>
      <trkpt lat="44.24016" lon="6.61682">
        <ele>1544.9</ele>
        <time>2018-08-05T12:37:50Z</time>
      </trkpt>
      <trkpt lat="44.24011" lon="6.6169">
        <ele>1545.5</ele>
        <time>2018-08-05T12:37:53Z</time>
      </trkpt>
      <trkpt lat="44.24008" lon="6.61696">
        <ele>1546.1</ele>
        <time>2018-08-05T12:37:54Z</time>
      </trkpt>
      <trkpt lat="44.24014" lon="6.6169">
        <ele>1545.1</ele>
        <time>2018-08-05T12:37:55Z</time>
      </trkpt>
      <trkpt lat="44.24011" lon="6.61694">
        <ele>1545.7</ele>
        <time>2018-08-05T12:37:56Z</time>
      </trkpt>
      <trkpt lat="44.24015" lon="6.61688">
        <ele>1545.3</ele>
        <time>2018-08-05T12:37:57Z</time>
      </trkpt>
      <trkpt lat="44.24044" lon="6.61709">
        <ele>1539.5</ele>
        <time>2018-08-05T12:37:59Z</time>
      </trkpt>
      <trkpt lat="44.2404" lon="6.61705">
        <ele>1540.7</ele>
        <time>2018-08-05T12:38:00Z</time>
      </trkpt>
      <trkpt lat="44.24035" lon="6.61704">
        <ele>1541.2</ele>
        <time>2018-08-05T12:38:01Z</time>
      </trkpt>
      <trkpt lat="44.24039" lon="6.61706">
        <ele>1540.9</ele>
        <time>2018-08-05T12:38:03Z</time>
      </trkpt>
      <trkpt lat="44.24043" lon="6.61707">
        <ele>1540.5</ele>
        <time>2018-08-05T12:38:05Z</time>
      </trkpt>
      <trkpt lat="44.24051" lon="6.61709">
        <ele>1538.8</ele>
        <time>2018-08-05T12:38:06Z</time>
      </trkpt>
      <trkpt lat="44.2405" lon="6.61702">
        <ele>1539.3</ele>
        <time>2018-08-05T12:38:07Z</time>
      </trkpt>
      <trkpt lat="44.24031" lon="6.61708">
        <ele>1541.4</ele>
        <time>2018-08-05T12:38:11Z</time>
      </trkpt>
      <trkpt lat="44.24025" lon="6.61713">
        <ele>1542.1</ele>
        <time>2018-08-05T12:38:12Z</time>
      </trkpt>
      <trkpt lat="44.24006" lon="6.6172">
        <ele>1543.9</ele>
        <time>2018-08-05T12:38:15Z</time>
      </trkpt>
      <trkpt lat="44.24004" lon="6.61723">
        <ele>1544.3</ele>
        <time>2018-08-05T12:38:17Z</time>
      </trkpt>
      <trkpt lat="44.24002" lon="6.61726">
        <ele>1544.6</ele>
        <time>2018-08-05T12:38:19Z</time>
      </trkpt>
      <trkpt lat="44.23998" lon="6.61724">
        <ele>1545</ele>
        <time>2018-08-05T12:38:20Z</time>
      </trkpt>
      <trkpt lat="44.23995" lon="6.61728">
        <ele>1545.8</ele>
        <time>2018-08-05T12:38:24Z</time>
      </trkpt>
      <trkpt lat="44.2404" lon="6.61701">
        <ele>1540.1</ele>
        <time>2018-08-05T12:38:29Z</time>
      </trkpt>
      <trkpt lat="44.24043" lon="6.61697">
        <ele>1539.6</ele>
        <time>2018-08-05T12:38:31Z</time>
      </trkpt>
      <trkpt lat="44.24046" lon="6.61686">
        <ele>1538.5</ele>
        <time>2018-08-05T12:38:33Z</time>
      </trkpt>
      <trkpt lat="44.24049" lon="6.61688">
        <ele>1538</ele>
        <time>2018-08-05T12:38:35Z</time>
      </trkpt>
      <trkpt lat="44.24003" lon="6.61687">
        <ele>1546.2</ele>
        <time>2018-08-05T12:39:07Z</time>
      </trkpt>
      <trkpt lat="44.24012" lon="6.61689">
        <ele>1544.2</ele>
        <time>2018-08-05T12:39:09Z</time>
      </trkpt>
      <trkpt lat="44.2401" lon="6.61685">
        <ele>1544.8</ele>
        <time>2018-08-05T12:39:10Z</time>
      </trkpt>
      <trkpt lat="44.24006" lon="6.61681">
        <ele>1545.4</ele>
        <time>2018-08-05T12:39:11Z</time>
      </trkpt>
      <trkpt lat="44.24001" lon="6.61675">
        <ele>1546.1</ele>
        <time>2018-08-05T12:39:15Z</time>
      </trkpt>
      <trkpt lat="44.23998" lon="6.61677">
        <ele>1546.8</ele>
        <time>2018-08-05T12:39:17Z</time>
      </trkpt>
      <trkpt lat="44.23997" lon="6.61672">
        <ele>1547.5</ele>
        <time>2018-08-05T12:39:18Z</time>
      </trkpt>
      <trkpt lat="44.23993" lon="6.61666">
        <ele>1548.2</ele>
        <time>2018-08-05T12:39:19Z</time>
      </trkpt>
      <trkpt lat="44.23989" lon="6.61668">
        <ele>1548.9</ele>
        <time>2018-08-05T12:39:21Z</time>
      </trkpt>
      <trkpt lat="44.23985" lon="6.61668">
        <ele>1549.6</ele>
        <time>2018-08-05T12:39:22Z</time>
      </trkpt>
      <trkpt lat="44.23982" lon="6.6167">
        <ele>1550.3</ele>
        <time>2018-08-05T12:39:24Z</time>
      </trkpt>
      <trkpt lat="44.2398" lon="6.61667">
        <ele>1551.1</ele>
        <time>2018-08-05T12:39:25Z</time>
      </trkpt>
      <trkpt lat="44.23987" lon="6.61678">
        <ele>1549.6</ele>
        <time>2018-08-05T12:39:27Z</time>
      </trkpt>
      <trkpt lat="44.23989" lon="6.61682">
        <ele>1548.9</ele>
        <time>2018-08-05T12:39:28Z</time>
      </trkpt>
      <trkpt lat="44.23993" lon="6.61687">
        <ele>1548.3</ele>
        <time>2018-08-05T12:39:29Z</time>
      </trkpt>
      <trkpt lat="44.2399" lon="6.61683">
        <ele>1548.9</ele>
        <time>2018-08-05T12:39:31Z</time>
      </trkpt>
      <trkpt lat="44.23993" lon="6.61683">
        <ele>1548.3</ele>
        <time>2018-08-05T12:41:43Z</time>
      </trkpt>
      <trkpt lat="44.23995" lon="6.61685">
        <ele>1547.6</ele>
        <time>2018-08-05T12:41:44Z</time>
      </trkpt>
      <trkpt lat="44.23994" lon="6.61689">
        <ele>1547.6</ele>
        <time>2018-08-05T12:41:53Z</time>
      </trkpt>
      <trkpt lat="44.23996" lon="6.61693">
        <ele>1547.6</ele>
        <time>2018-08-05T12:42:09Z</time>
      </trkpt>
      <trkpt lat="44.23998" lon="6.61696">
        <ele>1546.8</ele>
        <time>2018-08-05T12:42:13Z</time>
      </trkpt>
    </trkseg>
  </trk>
</gpx>